<?xml version="1.0" encoding="UTF-8"?>
<gpx version="1.1" creator="https://www.youtrack.es" xsi:schemaLocation="http://www.topografix.com/GPX/1/1 http://www.topografix.com/GPX/1/1/gpx.xsd http://www.garmin.com/xmlschemas/GpxExtensions/v3 http://www.garmin.com/xmlschemas/GpxExtensionsv3.xsd http://www.garmin.com/xmlschemas/TrackPointExtension/v1 http://www.garmin.com/xmlschemas/TrackPointExtensionv1.xsd" xmlns:gpxtpx="http://www.garmin.com/xmlschemas/TrackPointExtension/v1" xmlns:gpxx="http://www.garmin.com/xmlschemas/GpxExtensions/v3" xmlns:xsi="http://www.w3.org/2001/XMLSchema-instance">
  <metadata>
    <link href="https://www.youtrack.es">
      <text>YouTrack.es</text>
    </link>
    <time>2026-05-08T23:18:31Z</time>
  </metadata>
  <trk>
    <src>https://www.youtrack.es</src>
    <link href="https://www.youtrack.es/ruta/3476-monjos-mazinguer-monjos">
      <text>YouTrack.es</text>
    </link>
    <trkseg>
      <trkpt lat="41.324559096246958" lon="1.664493586868048">
        <ele>182</ele>
        <time>2018-12-29T07:09:46Z</time>
      </trkpt>
      <trkpt lat="41.324530011042953" lon="1.664491994306445">
        <ele>181.60000610351562</ele>
        <time>2018-12-29T07:10:17Z</time>
      </trkpt>
      <trkpt lat="41.324492627754807" lon="1.664494257420301">
        <ele>181.60000610351562</ele>
        <time>2018-12-29T07:10:19Z</time>
      </trkpt>
      <trkpt lat="41.324452310800552" lon="1.664557792246342">
        <ele>181.39999389648437</ele>
        <time>2018-12-29T07:10:21Z</time>
      </trkpt>
      <trkpt lat="41.324428590014577" lon="1.664567850530148">
        <ele>181</ele>
        <time>2018-12-29T07:10:22Z</time>
      </trkpt>
      <trkpt lat="41.324404617771506" lon="1.664563491940498">
        <ele>180.80000305175781</ele>
        <time>2018-12-29T07:10:23Z</time>
      </trkpt>
      <trkpt lat="41.324382908642292" lon="1.664548739790916">
        <ele>180.60000610351562</ele>
        <time>2018-12-29T07:10:24Z</time>
      </trkpt>
      <trkpt lat="41.324366480112076" lon="1.664530215784907">
        <ele>181</ele>
        <time>2018-12-29T07:10:25Z</time>
      </trkpt>
      <trkpt lat="41.324337478727102" lon="1.664471961557865">
        <ele>181</ele>
        <time>2018-12-29T07:10:27Z</time>
      </trkpt>
      <trkpt lat="41.324325576424599" lon="1.664450084790587">
        <ele>181</ele>
        <time>2018-12-29T07:10:28Z</time>
      </trkpt>
      <trkpt lat="41.324314344674349" lon="1.664420077577233">
        <ele>181.19999694824219</ele>
        <time>2018-12-29T07:10:29Z</time>
      </trkpt>
      <trkpt lat="41.324281403794885" lon="1.664369618520141">
        <ele>181</ele>
        <time>2018-12-29T07:10:31Z</time>
      </trkpt>
      <trkpt lat="41.324248295277357" lon="1.664324272423983">
        <ele>181.19999694824219</ele>
        <time>2018-12-29T07:10:33Z</time>
      </trkpt>
      <trkpt lat="41.324215270578861" lon="1.664290828630328">
        <ele>181.39999389648437</ele>
        <time>2018-12-29T07:10:35Z</time>
      </trkpt>
      <trkpt lat="41.324187777936459" lon="1.664248583838344">
        <ele>181.19999694824219</ele>
        <time>2018-12-29T07:10:37Z</time>
      </trkpt>
      <trkpt lat="41.324162548407912" lon="1.664198627695441">
        <ele>181.39999389648437</ele>
        <time>2018-12-29T07:10:39Z</time>
      </trkpt>
      <trkpt lat="41.324146371334791" lon="1.664166944101453">
        <ele>181.39999389648437</ele>
        <time>2018-12-29T07:10:40Z</time>
      </trkpt>
      <trkpt lat="41.32412969134748" lon="1.664157556369901">
        <ele>181.39999389648437</ele>
        <time>2018-12-29T07:10:41Z</time>
      </trkpt>
      <trkpt lat="41.324101444333792" lon="1.664122436195612">
        <ele>181.39999389648437</ele>
        <time>2018-12-29T07:10:43Z</time>
      </trkpt>
      <trkpt lat="41.32409255951643" lon="1.664102403447032">
        <ele>181.39999389648437</ele>
        <time>2018-12-29T07:10:44Z</time>
      </trkpt>
      <trkpt lat="41.324084931984544" lon="1.664079101756215">
        <ele>181.39999389648437</ele>
        <time>2018-12-29T07:10:45Z</time>
      </trkpt>
      <trkpt lat="41.324064815416932" lon="1.664031492546201">
        <ele>181.60000610351562</ele>
        <time>2018-12-29T07:10:47Z</time>
      </trkpt>
      <trkpt lat="41.32404126226902" lon="1.663981871679425">
        <ele>181.60000610351562</ele>
        <time>2018-12-29T07:10:49Z</time>
      </trkpt>
      <trkpt lat="41.324025588110089" lon="1.663954798132181">
        <ele>181.80000305175781</ele>
        <time>2018-12-29T07:10:50Z</time>
      </trkpt>
      <trkpt lat="41.324010333046317" lon="1.663925712928176">
        <ele>182</ele>
        <time>2018-12-29T07:10:51Z</time>
      </trkpt>
      <trkpt lat="41.323979320004582" lon="1.663871901109815">
        <ele>182</ele>
        <time>2018-12-29T07:10:53Z</time>
      </trkpt>
      <trkpt lat="41.323947552591562" lon="1.663818676024675">
        <ele>182.19999694824219</ele>
        <time>2018-12-29T07:10:55Z</time>
      </trkpt>
      <trkpt lat="41.323915114626288" lon="1.663753883913159">
        <ele>182.19999694824219</ele>
        <time>2018-12-29T07:10:57Z</time>
      </trkpt>
      <trkpt lat="41.323899608105421" lon="1.663718093186617">
        <ele>182.19999694824219</ele>
        <time>2018-12-29T07:10:58Z</time>
      </trkpt>
      <trkpt lat="41.323882760480046" lon="1.663679452612996">
        <ele>182.19999694824219</ele>
        <time>2018-12-29T07:10:59Z</time>
      </trkpt>
      <trkpt lat="41.323844539001584" lon="1.66360342875123">
        <ele>182.19999694824219</ele>
        <time>2018-12-29T07:11:01Z</time>
      </trkpt>
      <trkpt lat="41.323796175420284" lon="1.663534361869097">
        <ele>182.19999694824219</ele>
        <time>2018-12-29T07:11:03Z</time>
      </trkpt>
      <trkpt lat="41.323740938678384" lon="1.663472671061754">
        <ele>182.39999389648437</ele>
        <time>2018-12-29T07:11:05Z</time>
      </trkpt>
      <trkpt lat="41.323679583147168" lon="1.663412824273109">
        <ele>182.39999389648437</ele>
        <time>2018-12-29T07:11:07Z</time>
      </trkpt>
      <trkpt lat="41.323614120483398" lon="1.663363035768271">
        <ele>182.39999389648437</ele>
        <time>2018-12-29T07:11:09Z</time>
      </trkpt>
      <trkpt lat="41.3235501665622" lon="1.663314001634717">
        <ele>182</ele>
        <time>2018-12-29T07:11:11Z</time>
      </trkpt>
      <trkpt lat="41.323519488796592" lon="1.663291119039059">
        <ele>182.19999694824219</ele>
        <time>2018-12-29T07:11:12Z</time>
      </trkpt>
      <trkpt lat="41.323487721383572" lon="1.663267314434052">
        <ele>182.39999389648437</ele>
        <time>2018-12-29T07:11:13Z</time>
      </trkpt>
      <trkpt lat="41.323431646451354" lon="1.66320662945509">
        <ele>182</ele>
        <time>2018-12-29T07:11:15Z</time>
      </trkpt>
      <trkpt lat="41.323385126888752" lon="1.663128174841404">
        <ele>181.60000610351562</ele>
        <time>2018-12-29T07:11:17Z</time>
      </trkpt>
      <trkpt lat="41.323334416374564" lon="1.663045864552259">
        <ele>181.39999389648437</ele>
        <time>2018-12-29T07:11:19Z</time>
      </trkpt>
      <trkpt lat="41.32328194566071" lon="1.662960788235068">
        <ele>181.19999694824219</ele>
        <time>2018-12-29T07:11:21Z</time>
      </trkpt>
      <trkpt lat="41.323232492431998" lon="1.662870012223721">
        <ele>181.19999694824219</ele>
        <time>2018-12-29T07:11:23Z</time>
      </trkpt>
      <trkpt lat="41.323203993961215" lon="1.662828018888831">
        <ele>181.19999694824219</ele>
        <time>2018-12-29T07:11:24Z</time>
      </trkpt>
      <trkpt lat="41.323173902928829" lon="1.662790467962623">
        <ele>181</ele>
        <time>2018-12-29T07:11:25Z</time>
      </trkpt>
      <trkpt lat="41.323144230991602" lon="1.662756772711873">
        <ele>181</ele>
        <time>2018-12-29T07:11:26Z</time>
      </trkpt>
      <trkpt lat="41.323114475235343" lon="1.662724502384663">
        <ele>181</ele>
        <time>2018-12-29T07:11:27Z</time>
      </trkpt>
      <trkpt lat="41.32306401617825" lon="1.662651915103197">
        <ele>181</ele>
        <time>2018-12-29T07:11:29Z</time>
      </trkpt>
      <trkpt lat="41.323020262643695" lon="1.662571281194687">
        <ele>181</ele>
        <time>2018-12-29T07:11:31Z</time>
      </trkpt>
      <trkpt lat="41.322997799143195" lon="1.662531886249781">
        <ele>181.19999694824219</ele>
        <time>2018-12-29T07:11:32Z</time>
      </trkpt>
      <trkpt lat="41.322975335642695" lon="1.662492910400033">
        <ele>181.19999694824219</ele>
        <time>2018-12-29T07:11:33Z</time>
      </trkpt>
      <trkpt lat="41.322930324822664" lon="1.662411605939269">
        <ele>181.19999694824219</ele>
        <time>2018-12-29T07:11:35Z</time>
      </trkpt>
      <trkpt lat="41.322888499125838" lon="1.662341365590692">
        <ele>181.19999694824219</ele>
        <time>2018-12-29T07:11:37Z</time>
      </trkpt>
      <trkpt lat="41.322852792218328" lon="1.662285039201379">
        <ele>181.19999694824219</ele>
        <time>2018-12-29T07:11:39Z</time>
      </trkpt>
      <trkpt lat="41.322821695357561" lon="1.662232903763652">
        <ele>181</ele>
        <time>2018-12-29T07:11:41Z</time>
      </trkpt>
      <trkpt lat="41.322814486920834" lon="1.662212703377008">
        <ele>181</ele>
        <time>2018-12-29T07:11:42Z</time>
      </trkpt>
      <trkpt lat="41.322811301797628" lon="1.662194766104221">
        <ele>181</ele>
        <time>2018-12-29T07:11:43Z</time>
      </trkpt>
      <trkpt lat="41.322803506627679" lon="1.662177331745625">
        <ele>181</ele>
        <time>2018-12-29T07:11:44Z</time>
      </trkpt>
      <trkpt lat="41.322794118896127" lon="1.662161909043789">
        <ele>181</ele>
        <time>2018-12-29T07:11:45Z</time>
      </trkpt>
      <trkpt lat="41.322780540212989" lon="1.662137098610401">
        <ele>181</ele>
        <time>2018-12-29T07:11:47Z</time>
      </trkpt>
      <trkpt lat="41.322778193280101" lon="1.662128632888198">
        <ele>181</ele>
        <time>2018-12-29T07:11:49Z</time>
      </trkpt>
      <trkpt lat="41.322745336219668" lon="1.662156796082854">
        <ele>180.80000305175781</ele>
        <time>2018-12-29T07:13:44Z</time>
      </trkpt>
      <trkpt lat="41.322755813598633" lon="1.662181271240115">
        <ele>180.80000305175781</ele>
        <time>2018-12-29T07:13:45Z</time>
      </trkpt>
      <trkpt lat="41.322769727557898" lon="1.662207674235106">
        <ele>180.80000305175781</ele>
        <time>2018-12-29T07:13:46Z</time>
      </trkpt>
      <trkpt lat="41.322805769741535" lon="1.662269281223416">
        <ele>180.80000305175781</ele>
        <time>2018-12-29T07:13:48Z</time>
      </trkpt>
      <trkpt lat="41.322847846895456" lon="1.662343209609389">
        <ele>180.80000305175781</ele>
        <time>2018-12-29T07:13:50Z</time>
      </trkpt>
      <trkpt lat="41.32289788685739" lon="1.662421077489853">
        <ele>180.60000610351562</ele>
        <time>2018-12-29T07:13:52Z</time>
      </trkpt>
      <trkpt lat="41.322925044223666" lon="1.662460220977664">
        <ele>180.60000610351562</ele>
        <time>2018-12-29T07:13:53Z</time>
      </trkpt>
      <trkpt lat="41.322948932647705" lon="1.662495760247111">
        <ele>180.80000305175781</ele>
        <time>2018-12-29T07:13:54Z</time>
      </trkpt>
      <trkpt lat="41.322997463867068" lon="1.662576394155622">
        <ele>180.80000305175781</ele>
        <time>2018-12-29T07:13:56Z</time>
      </trkpt>
      <trkpt lat="41.323042642325163" lon="1.662655016407371">
        <ele>180.80000305175781</ele>
        <time>2018-12-29T07:13:58Z</time>
      </trkpt>
      <trkpt lat="41.323085054755211" lon="1.662729782983661">
        <ele>181</ele>
        <time>2018-12-29T07:14:00Z</time>
      </trkpt>
      <trkpt lat="41.323129562661052" lon="1.662799185141921">
        <ele>181.19999694824219</ele>
        <time>2018-12-29T07:14:02Z</time>
      </trkpt>
      <trkpt lat="41.323171807453036" lon="1.662864480167627">
        <ele>181.19999694824219</ele>
        <time>2018-12-29T07:14:04Z</time>
      </trkpt>
      <trkpt lat="41.323204915970564" lon="1.662919716909528">
        <ele>181.39999389648437</ele>
        <time>2018-12-29T07:14:06Z</time>
      </trkpt>
      <trkpt lat="41.32323307916522" lon="1.662974953651428">
        <ele>181.39999389648437</ele>
        <time>2018-12-29T07:14:08Z</time>
      </trkpt>
      <trkpt lat="41.323264176025987" lon="1.663023149594665">
        <ele>181.80000305175781</ele>
        <time>2018-12-29T07:14:10Z</time>
      </trkpt>
      <trkpt lat="41.323290914297104" lon="1.663068244233728">
        <ele>181.80000305175781</ele>
        <time>2018-12-29T07:14:12Z</time>
      </trkpt>
      <trkpt lat="41.323324861004949" lon="1.663102610036731">
        <ele>181.80000305175781</ele>
        <time>2018-12-29T07:14:14Z</time>
      </trkpt>
      <trkpt lat="41.323343887925148" lon="1.663094228133559">
        <ele>182</ele>
        <time>2018-12-29T07:14:16Z</time>
      </trkpt>
      <trkpt lat="41.323343636468053" lon="1.66309523396194">
        <ele>182</ele>
        <time>2018-12-29T07:14:17Z</time>
      </trkpt>
      <trkpt lat="41.323311366140842" lon="1.663040081039071">
        <ele>182.19999694824219</ele>
        <time>2018-12-29T07:15:00Z</time>
      </trkpt>
      <trkpt lat="41.323296027258039" lon="1.663017282262445">
        <ele>182</ele>
        <time>2018-12-29T07:15:01Z</time>
      </trkpt>
      <trkpt lat="41.323263756930828" lon="1.662970092147589">
        <ele>182</ele>
        <time>2018-12-29T07:15:03Z</time>
      </trkpt>
      <trkpt lat="41.323225283995271" lon="1.662910161539912">
        <ele>182</ele>
        <time>2018-12-29T07:15:05Z</time>
      </trkpt>
      <trkpt lat="41.323203491047025" lon="1.662872778251767">
        <ele>181.80000305175781</ele>
        <time>2018-12-29T07:15:06Z</time>
      </trkpt>
      <trkpt lat="41.323183039203286" lon="1.662834389135242">
        <ele>181.80000305175781</ele>
        <time>2018-12-29T07:15:07Z</time>
      </trkpt>
      <trkpt lat="41.323144230991602" lon="1.662768591195345">
        <ele>181.80000305175781</ele>
        <time>2018-12-29T07:15:09Z</time>
      </trkpt>
      <trkpt lat="41.323106344789267" lon="1.662705140188336">
        <ele>181.60000610351562</ele>
        <time>2018-12-29T07:15:11Z</time>
      </trkpt>
      <trkpt lat="41.323061501607299" lon="1.662633055821061">
        <ele>181.60000610351562</ele>
        <time>2018-12-29T07:15:13Z</time>
      </trkpt>
      <trkpt lat="41.323036942631006" lon="1.66259877383709">
        <ele>181.60000610351562</ele>
        <time>2018-12-29T07:15:14Z</time>
      </trkpt>
      <trkpt lat="41.323013557121158" lon="1.662561558187008">
        <ele>181.39999389648437</ele>
        <time>2018-12-29T07:15:15Z</time>
      </trkpt>
      <trkpt lat="41.322965361177921" lon="1.662483522668481">
        <ele>181.39999389648437</ele>
        <time>2018-12-29T07:15:17Z</time>
      </trkpt>
      <trkpt lat="41.322916829958558" lon="1.66240188293159">
        <ele>181.19999694824219</ele>
        <time>2018-12-29T07:15:19Z</time>
      </trkpt>
      <trkpt lat="41.322866035625339" lon="1.662319991737604">
        <ele>181.19999694824219</ele>
        <time>2018-12-29T07:15:21Z</time>
      </trkpt>
      <trkpt lat="41.322815408930182" lon="1.662241201847792">
        <ele>181</ele>
        <time>2018-12-29T07:15:23Z</time>
      </trkpt>
      <trkpt lat="41.322789760306478" lon="1.662201136350632">
        <ele>181.19999694824219</ele>
        <time>2018-12-29T07:15:24Z</time>
      </trkpt>
      <trkpt lat="41.322764446958899" lon="1.662159562110901">
        <ele>181.19999694824219</ele>
        <time>2018-12-29T07:15:25Z</time>
      </trkpt>
      <trkpt lat="41.32271415553987" lon="1.662072809413075">
        <ele>181</ele>
        <time>2018-12-29T07:15:27Z</time>
      </trkpt>
      <trkpt lat="41.322666211053729" lon="1.661982955411077">
        <ele>180.80000305175781</ele>
        <time>2018-12-29T07:15:29Z</time>
      </trkpt>
      <trkpt lat="41.322622038424015" lon="1.661889664828777">
        <ele>180.80000305175781</ele>
        <time>2018-12-29T07:15:31Z</time>
      </trkpt>
      <trkpt lat="41.322579458355904" lon="1.6617969609797">
        <ele>180.60000610351562</ele>
        <time>2018-12-29T07:15:33Z</time>
      </trkpt>
      <trkpt lat="41.322533693164587" lon="1.661704927682877">
        <ele>180.39999389648437</ele>
        <time>2018-12-29T07:15:35Z</time>
      </trkpt>
      <trkpt lat="41.322483569383621" lon="1.661611637100577">
        <ele>180.19999694824219</ele>
        <time>2018-12-29T07:15:37Z</time>
      </trkpt>
      <trkpt lat="41.322433697059751" lon="1.661516083404422">
        <ele>180</ele>
        <time>2018-12-29T07:15:39Z</time>
      </trkpt>
      <trkpt lat="41.322385249659419" lon="1.661417176946998">
        <ele>180</ele>
        <time>2018-12-29T07:15:41Z</time>
      </trkpt>
      <trkpt lat="41.322360439226031" lon="1.661367304623127">
        <ele>180</ele>
        <time>2018-12-29T07:15:42Z</time>
      </trkpt>
      <trkpt lat="41.32233839482069" lon="1.661321287974715">
        <ele>180</ele>
        <time>2018-12-29T07:15:43Z</time>
      </trkpt>
      <trkpt lat="41.322291037067771" lon="1.661227913573384">
        <ele>180</ele>
        <time>2018-12-29T07:15:45Z</time>
      </trkpt>
      <trkpt lat="41.322242086753249" lon="1.66113487444818">
        <ele>179.80000305175781</ele>
        <time>2018-12-29T07:15:47Z</time>
      </trkpt>
      <trkpt lat="41.322192549705505" lon="1.661036051809788">
        <ele>179.80000305175781</ele>
        <time>2018-12-29T07:15:49Z</time>
      </trkpt>
      <trkpt lat="41.322142845019698" lon="1.660942593589425">
        <ele>180</ele>
        <time>2018-12-29T07:15:51Z</time>
      </trkpt>
      <trkpt lat="41.32209506817162" lon="1.660855505615473">
        <ele>180.19999694824219</ele>
        <time>2018-12-29T07:15:53Z</time>
      </trkpt>
      <trkpt lat="41.322051482275128" lon="1.660763723775744">
        <ele>180.39999389648437</ele>
        <time>2018-12-29T07:15:55Z</time>
      </trkpt>
      <trkpt lat="41.322008986026049" lon="1.660677725449204">
        <ele>180.60000610351562</ele>
        <time>2018-12-29T07:15:57Z</time>
      </trkpt>
      <trkpt lat="41.321987612172961" lon="1.660640761256218">
        <ele>181</ele>
        <time>2018-12-29T07:15:58Z</time>
      </trkpt>
      <trkpt lat="41.321966322138906" lon="1.660600025206804">
        <ele>181</ele>
        <time>2018-12-29T07:15:59Z</time>
      </trkpt>
      <trkpt lat="41.321923993527889" lon="1.660519726574421">
        <ele>181.39999389648437</ele>
        <time>2018-12-29T07:16:01Z</time>
      </trkpt>
      <trkpt lat="41.321890968829393" lon="1.660447306931019">
        <ele>181.60000610351562</ele>
        <time>2018-12-29T07:16:03Z</time>
      </trkpt>
      <trkpt lat="41.321875294670463" lon="1.660408666357398">
        <ele>181.80000305175781</ele>
        <time>2018-12-29T07:16:04Z</time>
      </trkpt>
      <trkpt lat="41.321863476186991" lon="1.660366840660572">
        <ele>181.80000305175781</ele>
        <time>2018-12-29T07:16:05Z</time>
      </trkpt>
      <trkpt lat="41.321855681017041" lon="1.660325769335032">
        <ele>182.19999694824219</ele>
        <time>2018-12-29T07:16:06Z</time>
      </trkpt>
      <trkpt lat="41.321850484237075" lon="1.660282015800476">
        <ele>182.19999694824219</ele>
        <time>2018-12-29T07:16:07Z</time>
      </trkpt>
      <trkpt lat="41.321848221123219" lon="1.660192161798477">
        <ele>182.19999694824219</ele>
        <time>2018-12-29T07:16:09Z</time>
      </trkpt>
      <trkpt lat="41.321847382932901" lon="1.660096356645227">
        <ele>182.39999389648437</ele>
        <time>2018-12-29T07:16:11Z</time>
      </trkpt>
      <trkpt lat="41.321850568056107" lon="1.660001138225198">
        <ele>182.60000610351562</ele>
        <time>2018-12-29T07:16:13Z</time>
      </trkpt>
      <trkpt lat="41.321860123425722" lon="1.65991086512804">
        <ele>182.80000305175781</ele>
        <time>2018-12-29T07:16:15Z</time>
      </trkpt>
      <trkpt lat="41.321851909160614" lon="1.659813886508346">
        <ele>182.80000305175781</ele>
        <time>2018-12-29T07:16:17Z</time>
      </trkpt>
      <trkpt lat="41.321844784542918" lon="1.659767618402839">
        <ele>182.80000305175781</ele>
        <time>2018-12-29T07:16:18Z</time>
      </trkpt>
      <trkpt lat="41.321830451488495" lon="1.659723781049252">
        <ele>182.80000305175781</ele>
        <time>2018-12-29T07:16:19Z</time>
      </trkpt>
      <trkpt lat="41.321795415133238" lon="1.659659743309021">
        <ele>182.80000305175781</ele>
        <time>2018-12-29T07:16:21Z</time>
      </trkpt>
      <trkpt lat="41.321776555851102" lon="1.659644739702344">
        <ele>182.80000305175781</ele>
        <time>2018-12-29T07:16:22Z</time>
      </trkpt>
      <trkpt lat="41.321753840893507" lon="1.659631999209523">
        <ele>182.60000610351562</ele>
        <time>2018-12-29T07:16:23Z</time>
      </trkpt>
      <trkpt lat="41.321694832295179" lon="1.659633927047253">
        <ele>182.80000305175781</ele>
        <time>2018-12-29T07:16:25Z</time>
      </trkpt>
      <trkpt lat="41.321655940264463" lon="1.659649014472961">
        <ele>182.60000610351562</ele>
        <time>2018-12-29T07:16:26Z</time>
      </trkpt>
      <trkpt lat="41.321614868938923" lon="1.659666365012527">
        <ele>182.39999389648437</ele>
        <time>2018-12-29T07:16:27Z</time>
      </trkpt>
      <trkpt lat="41.321537923067808" lon="1.659718248993158">
        <ele>182.39999389648437</ele>
        <time>2018-12-29T07:16:29Z</time>
      </trkpt>
      <trkpt lat="41.321465671062469" lon="1.659781113266945">
        <ele>182.19999694824219</ele>
        <time>2018-12-29T07:16:31Z</time>
      </trkpt>
      <trkpt lat="41.321392245590687" lon="1.659845989197493">
        <ele>182.19999694824219</ele>
        <time>2018-12-29T07:16:33Z</time>
      </trkpt>
      <trkpt lat="41.321313958615065" lon="1.659907512366772">
        <ele>182.19999694824219</ele>
        <time>2018-12-29T07:16:35Z</time>
      </trkpt>
      <trkpt lat="41.321235504001379" lon="1.659968197345734">
        <ele>182.19999694824219</ele>
        <time>2018-12-29T07:16:37Z</time>
      </trkpt>
      <trkpt lat="41.321156211197376" lon="1.660036342218518">
        <ele>182</ele>
        <time>2018-12-29T07:16:39Z</time>
      </trkpt>
      <trkpt lat="41.32107918150723" lon="1.660103900358081">
        <ele>181.80000305175781</ele>
        <time>2018-12-29T07:16:41Z</time>
      </trkpt>
      <trkpt lat="41.321040708571672" lon="1.660138852894306">
        <ele>181.80000305175781</ele>
        <time>2018-12-29T07:16:42Z</time>
      </trkpt>
      <trkpt lat="41.321002235636115" lon="1.660173805430532">
        <ele>181.80000305175781</ele>
        <time>2018-12-29T07:16:43Z</time>
      </trkpt>
      <trkpt lat="41.320924451574683" lon="1.66024211794138">
        <ele>181.80000305175781</ele>
        <time>2018-12-29T07:16:45Z</time>
      </trkpt>
      <trkpt lat="41.320845745503902" lon="1.660310430452228">
        <ele>181.60000610351562</ele>
        <time>2018-12-29T07:16:47Z</time>
      </trkpt>
      <trkpt lat="41.320764860138297" lon="1.660377234220505">
        <ele>181.19999694824219</ele>
        <time>2018-12-29T07:16:49Z</time>
      </trkpt>
      <trkpt lat="41.320683052763343" lon="1.660447893664241">
        <ele>181.19999694824219</ele>
        <time>2018-12-29T07:16:51Z</time>
      </trkpt>
      <trkpt lat="41.320599569007754" lon="1.66052115149796">
        <ele>181</ele>
        <time>2018-12-29T07:16:53Z</time>
      </trkpt>
      <trkpt lat="41.320557575672865" lon="1.660557277500629">
        <ele>181</ele>
        <time>2018-12-29T07:16:54Z</time>
      </trkpt>
      <trkpt lat="41.320515414699912" lon="1.660593403503299">
        <ele>181</ele>
        <time>2018-12-29T07:16:55Z</time>
      </trkpt>
      <trkpt lat="41.320429164916277" lon="1.660668505355716">
        <ele>180.60000610351562</ele>
        <time>2018-12-29T07:16:57Z</time>
      </trkpt>
      <trkpt lat="41.320340316742659" lon="1.660744361579418">
        <ele>180.39999389648437</ele>
        <time>2018-12-29T07:16:59Z</time>
      </trkpt>
      <trkpt lat="41.320251803845167" lon="1.660816362127662">
        <ele>180.39999389648437</ele>
        <time>2018-12-29T07:17:01Z</time>
      </trkpt>
      <trkpt lat="41.320164380595088" lon="1.660885345190764">
        <ele>180</ele>
        <time>2018-12-29T07:17:03Z</time>
      </trkpt>
      <trkpt lat="41.320120375603437" lon="1.660920633003116">
        <ele>179.80000305175781</ele>
        <time>2018-12-29T07:17:04Z</time>
      </trkpt>
      <trkpt lat="41.320077795535326" lon="1.66095751337707">
        <ele>179.39999389648437</ele>
        <time>2018-12-29T07:17:05Z</time>
      </trkpt>
      <trkpt lat="41.320003531873226" lon="1.661022137850523">
        <ele>179.39999389648437</ele>
        <time>2018-12-29T07:17:07Z</time>
      </trkpt>
      <trkpt lat="41.319934548810124" lon="1.661072261631489">
        <ele>179.39999389648437</ele>
        <time>2018-12-29T07:17:09Z</time>
      </trkpt>
      <trkpt lat="41.319894902408123" lon="1.661082487553358">
        <ele>179.39999389648437</ele>
        <time>2018-12-29T07:17:10Z</time>
      </trkpt>
      <trkpt lat="41.319852992892265" lon="1.661079302430153">
        <ele>179.19999694824219</ele>
        <time>2018-12-29T07:17:11Z</time>
      </trkpt>
      <trkpt lat="41.319774622097611" lon="1.661030435934663">
        <ele>179</ele>
        <time>2018-12-29T07:17:13Z</time>
      </trkpt>
      <trkpt lat="41.319713518023491" lon="1.660940749570727">
        <ele>179</ele>
        <time>2018-12-29T07:17:15Z</time>
      </trkpt>
      <trkpt lat="41.319684600457549" lon="1.660890206694603">
        <ele>178.80000305175781</ele>
        <time>2018-12-29T07:17:16Z</time>
      </trkpt>
      <trkpt lat="41.319654928520322" lon="1.66084167547524">
        <ele>178.80000305175781</ele>
        <time>2018-12-29T07:17:17Z</time>
      </trkpt>
      <trkpt lat="41.31962651386857" lon="1.660790629684925">
        <ele>178.80000305175781</ele>
        <time>2018-12-29T07:17:18Z</time>
      </trkpt>
      <trkpt lat="41.319597009569407" lon="1.660742098465562">
        <ele>178.80000305175781</ele>
        <time>2018-12-29T07:17:19Z</time>
      </trkpt>
      <trkpt lat="41.319536659866571" lon="1.66064478456974">
        <ele>178.80000305175781</ele>
        <time>2018-12-29T07:17:21Z</time>
      </trkpt>
      <trkpt lat="41.319471700116992" lon="1.66054705157876">
        <ele>178.60000610351562</ele>
        <time>2018-12-29T07:17:23Z</time>
      </trkpt>
      <trkpt lat="41.319404980167747" lon="1.660446804016829">
        <ele>178.39999389648437</ele>
        <time>2018-12-29T07:17:25Z</time>
      </trkpt>
      <trkpt lat="41.319337002933025" lon="1.660347059369087">
        <ele>178.19999694824219</ele>
        <time>2018-12-29T07:17:27Z</time>
      </trkpt>
      <trkpt lat="41.319304145872593" lon="1.660298947244883">
        <ele>178.39999389648437</ele>
        <time>2018-12-29T07:17:28Z</time>
      </trkpt>
      <trkpt lat="41.319271791726351" lon="1.660251757130027">
        <ele>178.39999389648437</ele>
        <time>2018-12-29T07:17:29Z</time>
      </trkpt>
      <trkpt lat="41.319206915795803" lon="1.660153269767761">
        <ele>178.39999389648437</ele>
        <time>2018-12-29T07:17:31Z</time>
      </trkpt>
      <trkpt lat="41.319142291322351" lon="1.660049082711339">
        <ele>178.19999694824219</ele>
        <time>2018-12-29T07:17:33Z</time>
      </trkpt>
      <trkpt lat="41.319076074287295" lon="1.659947242587805">
        <ele>178</ele>
        <time>2018-12-29T07:17:35Z</time>
      </trkpt>
      <trkpt lat="41.319004576653242" lon="1.659842636436224">
        <ele>178</ele>
        <time>2018-12-29T07:17:37Z</time>
      </trkpt>
      <trkpt lat="41.318931737914681" lon="1.65973735973239">
        <ele>177.80000305175781</ele>
        <time>2018-12-29T07:17:39Z</time>
      </trkpt>
      <trkpt lat="41.318862503394485" lon="1.659633675590158">
        <ele>177.80000305175781</ele>
        <time>2018-12-29T07:17:41Z</time>
      </trkpt>
      <trkpt lat="41.318793017417192" lon="1.659519514068961">
        <ele>177.39999389648437</ele>
        <time>2018-12-29T07:17:43Z</time>
      </trkpt>
      <trkpt lat="41.318723196163774" lon="1.659406358376145">
        <ele>177.39999389648437</ele>
        <time>2018-12-29T07:17:45Z</time>
      </trkpt>
      <trkpt lat="41.318653039634228" lon="1.659298483282328">
        <ele>177.39999389648437</ele>
        <time>2018-12-29T07:17:47Z</time>
      </trkpt>
      <trkpt lat="41.318583134561777" lon="1.659190189093351">
        <ele>177.19999694824219</ele>
        <time>2018-12-29T07:17:49Z</time>
      </trkpt>
      <trkpt lat="41.318514067679644" lon="1.659082313999534">
        <ele>177.19999694824219</ele>
        <time>2018-12-29T07:17:51Z</time>
      </trkpt>
      <trkpt lat="41.318445671349764" lon="1.658970583230257">
        <ele>177.19999694824219</ele>
        <time>2018-12-29T07:17:53Z</time>
      </trkpt>
      <trkpt lat="41.318381717428565" lon="1.658855667337775">
        <ele>177.39999389648437</ele>
        <time>2018-12-29T07:17:55Z</time>
      </trkpt>
      <trkpt lat="41.318316757678986" lon="1.658745780587196">
        <ele>177.39999389648437</ele>
        <time>2018-12-29T07:17:57Z</time>
      </trkpt>
      <trkpt lat="41.318250792101026" lon="1.658635893836618">
        <ele>177.19999694824219</ele>
        <time>2018-12-29T07:17:59Z</time>
      </trkpt>
      <trkpt lat="41.318182228133082" lon="1.658530365675688">
        <ele>177</ele>
        <time>2018-12-29T07:18:01Z</time>
      </trkpt>
      <trkpt lat="41.318149538710713" lon="1.658475548028946">
        <ele>177</ele>
        <time>2018-12-29T07:18:02Z</time>
      </trkpt>
      <trkpt lat="41.318117184564471" lon="1.658422742038965">
        <ele>177</ele>
        <time>2018-12-29T07:18:03Z</time>
      </trkpt>
      <trkpt lat="41.318052308633924" lon="1.658319309353828">
        <ele>177</ele>
        <time>2018-12-29T07:18:05Z</time>
      </trkpt>
      <trkpt lat="41.317987013608217" lon="1.658213529735804">
        <ele>177.19999694824219</ele>
        <time>2018-12-29T07:18:07Z</time>
      </trkpt>
      <trkpt lat="41.317920042201877" lon="1.658107414841652">
        <ele>177.19999694824219</ele>
        <time>2018-12-29T07:18:09Z</time>
      </trkpt>
      <trkpt lat="41.317853154614568" lon="1.657999288290739">
        <ele>177</ele>
        <time>2018-12-29T07:18:11Z</time>
      </trkpt>
      <trkpt lat="41.317784003913403" lon="1.657891497015953">
        <ele>177</ele>
        <time>2018-12-29T07:18:13Z</time>
      </trkpt>
      <trkpt lat="41.317714685574174" lon="1.65777943097055">
        <ele>177</ele>
        <time>2018-12-29T07:18:15Z</time>
      </trkpt>
      <trkpt lat="41.317645953968167" lon="1.657667197287083">
        <ele>177</ele>
        <time>2018-12-29T07:18:17Z</time>
      </trkpt>
      <trkpt lat="41.317573366686702" lon="1.65755907073617">
        <ele>177</ele>
        <time>2018-12-29T07:18:19Z</time>
      </trkpt>
      <trkpt lat="41.317537324503064" lon="1.657504001632333">
        <ele>177</ele>
        <time>2018-12-29T07:18:20Z</time>
      </trkpt>
      <trkpt lat="41.31750195287168" lon="1.657449100166559">
        <ele>177</ele>
        <time>2018-12-29T07:18:21Z</time>
      </trkpt>
      <trkpt lat="41.317433724179864" lon="1.657340470701456">
        <ele>177</ele>
        <time>2018-12-29T07:18:23Z</time>
      </trkpt>
      <trkpt lat="41.317363232374191" lon="1.657231003046036">
        <ele>177.19999694824219</ele>
        <time>2018-12-29T07:18:25Z</time>
      </trkpt>
      <trkpt lat="41.317295338958502" lon="1.657123463228345">
        <ele>177.19999694824219</ele>
        <time>2018-12-29T07:18:27Z</time>
      </trkpt>
      <trkpt lat="41.317228116095066" lon="1.657015336677432">
        <ele>177.39999389648437</ele>
        <time>2018-12-29T07:18:29Z</time>
      </trkpt>
      <trkpt lat="41.317162653431296" lon="1.656908383592963">
        <ele>177.60000610351562</ele>
        <time>2018-12-29T07:18:31Z</time>
      </trkpt>
      <trkpt lat="41.317097777500749" lon="1.656805789098144">
        <ele>177.60000610351562</ele>
        <time>2018-12-29T07:18:33Z</time>
      </trkpt>
      <trkpt lat="41.317032147198915" lon="1.656704535707831">
        <ele>177.80000305175781</ele>
        <time>2018-12-29T07:18:35Z</time>
      </trkpt>
      <trkpt lat="41.316968444734812" lon="1.656600516289473">
        <ele>178</ele>
        <time>2018-12-29T07:18:37Z</time>
      </trkpt>
      <trkpt lat="41.316904490813613" lon="1.656497251242399">
        <ele>178</ele>
        <time>2018-12-29T07:18:39Z</time>
      </trkpt>
      <trkpt lat="41.316871214658022" lon="1.656445618718863">
        <ele>178</ele>
        <time>2018-12-29T07:18:40Z</time>
      </trkpt>
      <trkpt lat="41.316837100312114" lon="1.656394824385643">
        <ele>178</ele>
        <time>2018-12-29T07:18:41Z</time>
      </trkpt>
      <trkpt lat="41.316768871620297" lon="1.656292313709855">
        <ele>178.19999694824219</ele>
        <time>2018-12-29T07:18:43Z</time>
      </trkpt>
      <trkpt lat="41.316703073680401" lon="1.656189551576972">
        <ele>178.19999694824219</ele>
        <time>2018-12-29T07:18:45Z</time>
      </trkpt>
      <trkpt lat="41.316637527197599" lon="1.656088633462787">
        <ele>178.19999694824219</ele>
        <time>2018-12-29T07:18:47Z</time>
      </trkpt>
      <trkpt lat="41.316572651267052" lon="1.655984278768301">
        <ele>178.39999389648437</ele>
        <time>2018-12-29T07:18:49Z</time>
      </trkpt>
      <trkpt lat="41.316507691517472" lon="1.655882271006703">
        <ele>178.60000610351562</ele>
        <time>2018-12-29T07:18:51Z</time>
      </trkpt>
      <trkpt lat="41.316441306844354" lon="1.655778838321567">
        <ele>178.80000305175781</ele>
        <time>2018-12-29T07:18:53Z</time>
      </trkpt>
      <trkpt lat="41.316408617421985" lon="1.655726032331586">
        <ele>179</ele>
        <time>2018-12-29T07:18:54Z</time>
      </trkpt>
      <trkpt lat="41.316375927999616" lon="1.655673142522574">
        <ele>179</ele>
        <time>2018-12-29T07:18:55Z</time>
      </trkpt>
      <trkpt lat="41.316310716792941" lon="1.655570967122912">
        <ele>179.19999694824219</ele>
        <time>2018-12-29T07:18:57Z</time>
      </trkpt>
      <trkpt lat="41.316247181966901" lon="1.655471809208393">
        <ele>179.39999389648437</ele>
        <time>2018-12-29T07:18:59Z</time>
      </trkpt>
      <trkpt lat="41.316215666010976" lon="1.655420260503888">
        <ele>179.60000610351562</ele>
        <time>2018-12-29T07:19:00Z</time>
      </trkpt>
      <trkpt lat="41.316184150055051" lon="1.655369214713574">
        <ele>179.80000305175781</ele>
        <time>2018-12-29T07:19:01Z</time>
      </trkpt>
      <trkpt lat="41.316121872514486" lon="1.655269805341959">
        <ele>180</ele>
        <time>2018-12-29T07:19:03Z</time>
      </trkpt>
      <trkpt lat="41.316090691834688" lon="1.655220352113247">
        <ele>180</ele>
        <time>2018-12-29T07:19:04Z</time>
      </trkpt>
      <trkpt lat="41.316058337688446" lon="1.655169725418091">
        <ele>180.19999694824219</ele>
        <time>2018-12-29T07:19:05Z</time>
      </trkpt>
      <trkpt lat="41.315993713214993" lon="1.655068304389715">
        <ele>180.39999389648437</ele>
        <time>2018-12-29T07:19:07Z</time>
      </trkpt>
      <trkpt lat="41.315929843112826" lon="1.654966967180371">
        <ele>180.60000610351562</ele>
        <time>2018-12-29T07:19:09Z</time>
      </trkpt>
      <trkpt lat="41.315865470096469" lon="1.654866132885218">
        <ele>181</ele>
        <time>2018-12-29T07:19:11Z</time>
      </trkpt>
      <trkpt lat="41.31580151617527" lon="1.654765885323286">
        <ele>181</ele>
        <time>2018-12-29T07:19:13Z</time>
      </trkpt>
      <trkpt lat="41.315769832581282" lon="1.654716096818447">
        <ele>181.19999694824219</ele>
        <time>2018-12-29T07:19:14Z</time>
      </trkpt>
      <trkpt lat="41.315737813711166" lon="1.654666811227799">
        <ele>181.39999389648437</ele>
        <time>2018-12-29T07:19:15Z</time>
      </trkpt>
      <trkpt lat="41.315673859789968" lon="1.654566479846835">
        <ele>181.60000610351562</ele>
        <time>2018-12-29T07:19:17Z</time>
      </trkpt>
      <trkpt lat="41.315609067678452" lon="1.654464472085238">
        <ele>181.60000610351562</ele>
        <time>2018-12-29T07:19:19Z</time>
      </trkpt>
      <trkpt lat="41.315543185919523" lon="1.654360955581069">
        <ele>181.80000305175781</ele>
        <time>2018-12-29T07:19:21Z</time>
      </trkpt>
      <trkpt lat="41.315475711598992" lon="1.65425886400044">
        <ele>181.80000305175781</ele>
        <time>2018-12-29T07:19:23Z</time>
      </trkpt>
      <trkpt lat="41.315409243106842" lon="1.654154676944017">
        <ele>181.80000305175781</ele>
        <time>2018-12-29T07:19:25Z</time>
      </trkpt>
      <trkpt lat="41.315342606976628" lon="1.654048645868897">
        <ele>182</ele>
        <time>2018-12-29T07:19:27Z</time>
      </trkpt>
      <trkpt lat="41.31527379155159" lon="1.653944961726666">
        <ele>182</ele>
        <time>2018-12-29T07:19:29Z</time>
      </trkpt>
      <trkpt lat="41.315206736326218" lon="1.653837924823165">
        <ele>182</ele>
        <time>2018-12-29T07:19:31Z</time>
      </trkpt>
      <trkpt lat="41.31513842381537" lon="1.653734659776092">
        <ele>182</ele>
        <time>2018-12-29T07:19:33Z</time>
      </trkpt>
      <trkpt lat="41.315070614218712" lon="1.653632735833526">
        <ele>182.19999694824219</ele>
        <time>2018-12-29T07:19:35Z</time>
      </trkpt>
      <trkpt lat="41.315036499872804" lon="1.653586467728019">
        <ele>182.39999389648437</ele>
        <time>2018-12-29T07:19:36Z</time>
      </trkpt>
      <trkpt lat="41.315003894269466" lon="1.653538690879941">
        <ele>182.39999389648437</ele>
        <time>2018-12-29T07:19:37Z</time>
      </trkpt>
      <trkpt lat="41.314943544566631" lon="1.653437186032534">
        <ele>182.80000305175781</ele>
        <time>2018-12-29T07:19:39Z</time>
      </trkpt>
      <trkpt lat="41.314881937578321" lon="1.653335345908999">
        <ele>183</ele>
        <time>2018-12-29T07:19:41Z</time>
      </trkpt>
      <trkpt lat="41.314851008355618" lon="1.653283964842558">
        <ele>183</ele>
        <time>2018-12-29T07:19:42Z</time>
      </trkpt>
      <trkpt lat="41.314818318933249" lon="1.653232667595148">
        <ele>183</ele>
        <time>2018-12-29T07:19:43Z</time>
      </trkpt>
      <trkpt lat="41.314751515164971" lon="1.653132420033217">
        <ele>183</ele>
        <time>2018-12-29T07:19:45Z</time>
      </trkpt>
      <trkpt lat="41.31468697451055" lon="1.653029238805175">
        <ele>182.80000305175781</ele>
        <time>2018-12-29T07:19:47Z</time>
      </trkpt>
      <trkpt lat="41.314618661999702" lon="1.652931841090322">
        <ele>182.80000305175781</ele>
        <time>2018-12-29T07:19:49Z</time>
      </trkpt>
      <trkpt lat="41.314551858231425" lon="1.652830000966787">
        <ele>183</ele>
        <time>2018-12-29T07:19:51Z</time>
      </trkpt>
      <trkpt lat="41.314485054463148" lon="1.652726149186492">
        <ele>182.80000305175781</ele>
        <time>2018-12-29T07:19:53Z</time>
      </trkpt>
      <trkpt lat="41.314416993409395" lon="1.652621207758784">
        <ele>182.80000305175781</ele>
        <time>2018-12-29T07:19:55Z</time>
      </trkpt>
      <trkpt lat="41.314348597079515" lon="1.652514841407538">
        <ele>182.60000610351562</ele>
        <time>2018-12-29T07:19:57Z</time>
      </trkpt>
      <trkpt lat="41.314277937635779" lon="1.652409648522735">
        <ele>182.60000610351562</ele>
        <time>2018-12-29T07:19:59Z</time>
      </trkpt>
      <trkpt lat="41.314205266535282" lon="1.652297498658299">
        <ele>182.39999389648437</ele>
        <time>2018-12-29T07:20:01Z</time>
      </trkpt>
      <trkpt lat="41.314168637618423" lon="1.652237232774496">
        <ele>182.19999694824219</ele>
        <time>2018-12-29T07:20:02Z</time>
      </trkpt>
      <trkpt lat="41.314131421968341" lon="1.65217537432909">
        <ele>182.19999694824219</ele>
        <time>2018-12-29T07:20:03Z</time>
      </trkpt>
      <trkpt lat="41.314068138599396" lon="1.652044113725424">
        <ele>182</ele>
        <time>2018-12-29T07:20:05Z</time>
      </trkpt>
      <trkpt lat="41.314016254618764" lon="1.651901369914413">
        <ele>181.60000610351562</ele>
        <time>2018-12-29T07:20:07Z</time>
      </trkpt>
      <trkpt lat="41.313992869108915" lon="1.651825932785869">
        <ele>181.39999389648437</ele>
        <time>2018-12-29T07:20:08Z</time>
      </trkpt>
      <trkpt lat="41.313971076160669" lon="1.651750830933452">
        <ele>181.19999694824219</ele>
        <time>2018-12-29T07:20:09Z</time>
      </trkpt>
      <trkpt lat="41.313936961814761" lon="1.651607668027282">
        <ele>180.80000305175781</ele>
        <time>2018-12-29T07:20:11Z</time>
      </trkpt>
      <trkpt lat="41.31390368565917" lon="1.651486800983548">
        <ele>180.39999389648437</ele>
        <time>2018-12-29T07:20:13Z</time>
      </trkpt>
      <trkpt lat="41.313885245472193" lon="1.651357552036643">
        <ele>180.19999694824219</ele>
        <time>2018-12-29T07:20:15Z</time>
      </trkpt>
      <trkpt lat="41.313887927681208" lon="1.65129192173481">
        <ele>180.19999694824219</ele>
        <time>2018-12-29T07:20:16Z</time>
      </trkpt>
      <trkpt lat="41.313891867175698" lon="1.651226375252008">
        <ele>180</ele>
        <time>2018-12-29T07:20:17Z</time>
      </trkpt>
      <trkpt lat="41.313899913802743" lon="1.651092851534486">
        <ele>179.80000305175781</ele>
        <time>2018-12-29T07:20:19Z</time>
      </trkpt>
      <trkpt lat="41.313910055905581" lon="1.650954633951187">
        <ele>179.60000610351562</ele>
        <time>2018-12-29T07:20:21Z</time>
      </trkpt>
      <trkpt lat="41.313921790570021" lon="1.650809375569224">
        <ele>179.39999389648437</ele>
        <time>2018-12-29T07:20:23Z</time>
      </trkpt>
      <trkpt lat="41.313934279605746" lon="1.650661854073405">
        <ele>179.19999694824219</ele>
        <time>2018-12-29T07:20:25Z</time>
      </trkpt>
      <trkpt lat="41.313943080604076" lon="1.650516260415316">
        <ele>179.19999694824219</ele>
        <time>2018-12-29T07:20:27Z</time>
      </trkpt>
      <trkpt lat="41.313953222706914" lon="1.65036546997726">
        <ele>179</ele>
        <time>2018-12-29T07:20:29Z</time>
      </trkpt>
      <trkpt lat="41.313960682600737" lon="1.650212164968252">
        <ele>178.80000305175781</ele>
        <time>2018-12-29T07:20:31Z</time>
      </trkpt>
      <trkpt lat="41.313971411436796" lon="1.65005617775023">
        <ele>178.80000305175781</ele>
        <time>2018-12-29T07:20:33Z</time>
      </trkpt>
      <trkpt lat="41.313976440578699" lon="1.64997847750783">
        <ele>178.80000305175781</ele>
        <time>2018-12-29T07:20:34Z</time>
      </trkpt>
      <trkpt lat="41.313980799168348" lon="1.649900693446398">
        <ele>178.80000305175781</ele>
        <time>2018-12-29T07:20:35Z</time>
      </trkpt>
      <trkpt lat="41.313992533832788" lon="1.64974881336093">
        <ele>178.80000305175781</ele>
        <time>2018-12-29T07:20:37Z</time>
      </trkpt>
      <trkpt lat="41.314000496640801" lon="1.649596178904176">
        <ele>178.80000305175781</ele>
        <time>2018-12-29T07:20:39Z</time>
      </trkpt>
      <trkpt lat="41.314010974019766" lon="1.649445304647088">
        <ele>178.60000610351562</ele>
        <time>2018-12-29T07:20:41Z</time>
      </trkpt>
      <trkpt lat="41.31401457823813" lon="1.649290658533573">
        <ele>178.60000610351562</ele>
        <time>2018-12-29T07:20:43Z</time>
      </trkpt>
      <trkpt lat="41.314020780846477" lon="1.64913953281939">
        <ele>178.60000610351562</ele>
        <time>2018-12-29T07:20:45Z</time>
      </trkpt>
      <trkpt lat="41.314027151092887" lon="1.649063928052783">
        <ele>178.60000610351562</ele>
        <time>2018-12-29T07:20:46Z</time>
      </trkpt>
      <trkpt lat="41.314031844958663" lon="1.648989245295525">
        <ele>178.39999389648437</ele>
        <time>2018-12-29T07:20:47Z</time>
      </trkpt>
      <trkpt lat="41.314041651785374" lon="1.648836778476834">
        <ele>178.19999694824219</ele>
        <time>2018-12-29T07:20:49Z</time>
      </trkpt>
      <trkpt lat="41.314052045345306" lon="1.648686155676842">
        <ele>178</ele>
        <time>2018-12-29T07:20:51Z</time>
      </trkpt>
      <trkpt lat="41.314059002324939" lon="1.648533521220088">
        <ele>178</ele>
        <time>2018-12-29T07:20:53Z</time>
      </trkpt>
      <trkpt lat="41.314064618200064" lon="1.648379964753985">
        <ele>178</ele>
        <time>2018-12-29T07:20:55Z</time>
      </trkpt>
      <trkpt lat="41.314070150256157" lon="1.648228839039803">
        <ele>178</ele>
        <time>2018-12-29T07:20:57Z</time>
      </trkpt>
      <trkpt lat="41.314074508845806" lon="1.648153569549322">
        <ele>178</ele>
        <time>2018-12-29T07:20:58Z</time>
      </trkpt>
      <trkpt lat="41.314078280702233" lon="1.648078467696905">
        <ele>178</ele>
        <time>2018-12-29T07:20:59Z</time>
      </trkpt>
      <trkpt lat="41.314080879092216" lon="1.64792918600142">
        <ele>178</ele>
        <time>2018-12-29T07:21:01Z</time>
      </trkpt>
      <trkpt lat="41.314079957082868" lon="1.647778982296586">
        <ele>178</ele>
        <time>2018-12-29T07:21:03Z</time>
      </trkpt>
      <trkpt lat="41.314073586836457" lon="1.647626683115959">
        <ele>178</ele>
        <time>2018-12-29T07:21:05Z</time>
      </trkpt>
      <trkpt lat="41.314063780009747" lon="1.647471534088254">
        <ele>177.80000305175781</ele>
        <time>2018-12-29T07:21:07Z</time>
      </trkpt>
      <trkpt lat="41.314051961526275" lon="1.647314876317978">
        <ele>177.60000610351562</ele>
        <time>2018-12-29T07:21:09Z</time>
      </trkpt>
      <trkpt lat="41.314041903242469" lon="1.647156123071909">
        <ele>177.60000610351562</ele>
        <time>2018-12-29T07:21:11Z</time>
      </trkpt>
      <trkpt lat="41.314032096415758" lon="1.646995861083269">
        <ele>177.39999389648437</ele>
        <time>2018-12-29T07:21:13Z</time>
      </trkpt>
      <trkpt lat="41.314019607380033" lon="1.646835096180439">
        <ele>177.19999694824219</ele>
        <time>2018-12-29T07:21:15Z</time>
      </trkpt>
      <trkpt lat="41.314003262668848" lon="1.64667877368629">
        <ele>177.19999694824219</ele>
        <time>2018-12-29T07:21:17Z</time>
      </trkpt>
      <trkpt lat="41.313988175243139" lon="1.646524630486965">
        <ele>177</ele>
        <time>2018-12-29T07:21:19Z</time>
      </trkpt>
      <trkpt lat="41.31397551856935" lon="1.646372498944402">
        <ele>177</ele>
        <time>2018-12-29T07:21:21Z</time>
      </trkpt>
      <trkpt lat="41.313965208828449" lon="1.646221289411187">
        <ele>177</ele>
        <time>2018-12-29T07:21:23Z</time>
      </trkpt>
      <trkpt lat="41.313951294869184" lon="1.646074019372463">
        <ele>177</ele>
        <time>2018-12-29T07:21:25Z</time>
      </trkpt>
      <trkpt lat="41.313938302919269" lon="1.645925911143422">
        <ele>176.80000305175781</ele>
        <time>2018-12-29T07:21:27Z</time>
      </trkpt>
      <trkpt lat="41.313931681215763" lon="1.645850976929069">
        <ele>176.80000305175781</ele>
        <time>2018-12-29T07:21:28Z</time>
      </trkpt>
      <trkpt lat="41.313925310969353" lon="1.645772941410542">
        <ele>176.60000610351562</ele>
        <time>2018-12-29T07:21:29Z</time>
      </trkpt>
      <trkpt lat="41.313911732286215" lon="1.645616954192519">
        <ele>176.60000610351562</ele>
        <time>2018-12-29T07:21:31Z</time>
      </trkpt>
      <trkpt lat="41.313899075612426" lon="1.645455351099372">
        <ele>176.19999694824219</ele>
        <time>2018-12-29T07:21:33Z</time>
      </trkpt>
      <trkpt lat="41.313887089490891" lon="1.645286791026592">
        <ele>176</ele>
        <time>2018-12-29T07:21:35Z</time>
      </trkpt>
      <trkpt lat="41.313880383968353" lon="1.645199870690703">
        <ele>175.80000305175781</ele>
        <time>2018-12-29T07:21:36Z</time>
      </trkpt>
      <trkpt lat="41.313873259350657" lon="1.645111357793212">
        <ele>175.39999389648437</ele>
        <time>2018-12-29T07:21:37Z</time>
      </trkpt>
      <trkpt lat="41.313855741173029" lon="1.644930057227612">
        <ele>175</ele>
        <time>2018-12-29T07:21:39Z</time>
      </trkpt>
      <trkpt lat="41.313843000680208" lon="1.644837940111756">
        <ele>174.60000610351562</ele>
        <time>2018-12-29T07:21:40Z</time>
      </trkpt>
      <trkpt lat="41.313824895769358" lon="1.644744398072362">
        <ele>174.19999694824219</ele>
        <time>2018-12-29T07:21:41Z</time>
      </trkpt>
      <trkpt lat="41.313798660412431" lon="1.644648676738143">
        <ele>173.80000305175781</ele>
        <time>2018-12-29T07:21:42Z</time>
      </trkpt>
      <trkpt lat="41.313762869685888" lon="1.644554883241653">
        <ele>173.39999389648437</ele>
        <time>2018-12-29T07:21:43Z</time>
      </trkpt>
      <trkpt lat="41.313665807247162" lon="1.644374337047339">
        <ele>172.19999694824219</ele>
        <time>2018-12-29T07:21:45Z</time>
      </trkpt>
      <trkpt lat="41.313543347641826" lon="1.644209213554859">
        <ele>171.39999389648437</ele>
        <time>2018-12-29T07:21:47Z</time>
      </trkpt>
      <trkpt lat="41.313475454226136" lon="1.644126819446683">
        <ele>170.80000305175781</ele>
        <time>2018-12-29T07:21:48Z</time>
      </trkpt>
      <trkpt lat="41.313403956592083" lon="1.64404459297657">
        <ele>170.19999694824219</ele>
        <time>2018-12-29T07:21:49Z</time>
      </trkpt>
      <trkpt lat="41.313329357653856" lon="1.643961276859045">
        <ele>169.60000610351562</ele>
        <time>2018-12-29T07:21:50Z</time>
      </trkpt>
      <trkpt lat="41.313253585249186" lon="1.643876116722822">
        <ele>169.19999694824219</ele>
        <time>2018-12-29T07:21:51Z</time>
      </trkpt>
      <trkpt lat="41.313176387920976" lon="1.643789196386933">
        <ele>168.39999389648437</ele>
        <time>2018-12-29T07:21:52Z</time>
      </trkpt>
      <trkpt lat="41.313098100945354" lon="1.643700851127505">
        <ele>167.60000610351562</ele>
        <time>2018-12-29T07:21:53Z</time>
      </trkpt>
      <trkpt lat="41.313018724322319" lon="1.643611248582602">
        <ele>166.80000305175781</ele>
        <time>2018-12-29T07:21:54Z</time>
      </trkpt>
      <trkpt lat="41.312938174232841" lon="1.643520221114159">
        <ele>166.39999389648437</ele>
        <time>2018-12-29T07:21:55Z</time>
      </trkpt>
      <trkpt lat="41.312857791781425" lon="1.643428942188621">
        <ele>165.80000305175781</ele>
        <time>2018-12-29T07:21:56Z</time>
      </trkpt>
      <trkpt lat="41.31277640350163" lon="1.643334645777941">
        <ele>165.19999694824219</ele>
        <time>2018-12-29T07:21:57Z</time>
      </trkpt>
      <trkpt lat="41.31269627250731" lon="1.643242780119181">
        <ele>164.39999389648437</ele>
        <time>2018-12-29T07:21:58Z</time>
      </trkpt>
      <trkpt lat="41.312615973874927" lon="1.643149992451072">
        <ele>164</ele>
        <time>2018-12-29T07:21:59Z</time>
      </trkpt>
      <trkpt lat="41.312466775998473" lon="1.642944635823369">
        <ele>163</ele>
        <time>2018-12-29T07:22:01Z</time>
      </trkpt>
      <trkpt lat="41.312408102676272" lon="1.642824104055762">
        <ele>161.60000610351562</ele>
        <time>2018-12-29T07:22:02Z</time>
      </trkpt>
      <trkpt lat="41.312359068542719" lon="1.642695441842079">
        <ele>161</ele>
        <time>2018-12-29T07:22:03Z</time>
      </trkpt>
      <trkpt lat="41.312316237017512" lon="1.642565187066793">
        <ele>160.60000610351562</ele>
        <time>2018-12-29T07:22:04Z</time>
      </trkpt>
      <trkpt lat="41.312278266996145" lon="1.642434513196349">
        <ele>160</ele>
        <time>2018-12-29T07:22:05Z</time>
      </trkpt>
      <trkpt lat="41.312211127951741" lon="1.642179284244776">
        <ele>160</ele>
        <time>2018-12-29T07:22:07Z</time>
      </trkpt>
      <trkpt lat="41.312144408002496" lon="1.641934532672167">
        <ele>160.19999694824219</ele>
        <time>2018-12-29T07:22:09Z</time>
      </trkpt>
      <trkpt lat="41.312080873176455" lon="1.641700342297554">
        <ele>160.19999694824219</ele>
        <time>2018-12-29T07:22:11Z</time>
      </trkpt>
      <trkpt lat="41.312029575929046" lon="1.641479311510921">
        <ele>160.80000305175781</ele>
        <time>2018-12-29T07:22:13Z</time>
      </trkpt>
      <trkpt lat="41.31199462339282" lon="1.641277056187391">
        <ele>161.39999389648437</ele>
        <time>2018-12-29T07:22:15Z</time>
      </trkpt>
      <trkpt lat="41.311980038881302" lon="1.641183933243156">
        <ele>161.80000305175781</ele>
        <time>2018-12-29T07:22:16Z</time>
      </trkpt>
      <trkpt lat="41.311967214569449" lon="1.641098186373711">
        <ele>162.39999389648437</ele>
        <time>2018-12-29T07:22:17Z</time>
      </trkpt>
      <trkpt lat="41.31195749156177" lon="1.641015959903598">
        <ele>162.80000305175781</ele>
        <time>2018-12-29T07:22:18Z</time>
      </trkpt>
      <trkpt lat="41.311952713876963" lon="1.640934403985739">
        <ele>163.39999389648437</ele>
        <time>2018-12-29T07:22:19Z</time>
      </trkpt>
      <trkpt lat="41.311951875686646" lon="1.640856117010117">
        <ele>164</ele>
        <time>2018-12-29T07:22:20Z</time>
      </trkpt>
      <trkpt lat="41.311956737190485" lon="1.640781350433826">
        <ele>164.39999389648437</ele>
        <time>2018-12-29T07:22:21Z</time>
      </trkpt>
      <trkpt lat="41.311984565109015" lon="1.640644054859877">
        <ele>165.19999694824219</ele>
        <time>2018-12-29T07:22:23Z</time>
      </trkpt>
      <trkpt lat="41.311999652534723" lon="1.640577167272568">
        <ele>165.60000610351562</ele>
        <time>2018-12-29T07:22:24Z</time>
      </trkpt>
      <trkpt lat="41.312009040266275" lon="1.640510028228164">
        <ele>166</ele>
        <time>2018-12-29T07:22:25Z</time>
      </trkpt>
      <trkpt lat="41.312010297551751" lon="1.640443727374077">
        <ele>166.80000305175781</ele>
        <time>2018-12-29T07:22:26Z</time>
      </trkpt>
      <trkpt lat="41.312004430219531" lon="1.640378516167402">
        <ele>167.19999694824219</ele>
        <time>2018-12-29T07:22:27Z</time>
      </trkpt>
      <trkpt lat="41.311990432441235" lon="1.640315065160394">
        <ele>167.60000610351562</ele>
        <time>2018-12-29T07:22:28Z</time>
      </trkpt>
      <trkpt lat="41.311976937577128" lon="1.640251111239195">
        <ele>168</ele>
        <time>2018-12-29T07:22:29Z</time>
      </trkpt>
      <trkpt lat="41.311967801302671" lon="1.640185732394457">
        <ele>168.19999694824219</ele>
        <time>2018-12-29T07:22:30Z</time>
      </trkpt>
      <trkpt lat="41.311968471854925" lon="1.640119263902307">
        <ele>168.60000610351562</ele>
        <time>2018-12-29T07:22:31Z</time>
      </trkpt>
      <trkpt lat="41.311991438269615" lon="1.639991439878941">
        <ele>168.80000305175781</ele>
        <time>2018-12-29T07:22:33Z</time>
      </trkpt>
      <trkpt lat="41.312004178762436" lon="1.639928910881281">
        <ele>169</ele>
        <time>2018-12-29T07:22:34Z</time>
      </trkpt>
      <trkpt lat="41.312018679454923" lon="1.639868477359414">
        <ele>169</ele>
        <time>2018-12-29T07:22:35Z</time>
      </trkpt>
      <trkpt lat="41.312050363048911" lon="1.639754818752408">
        <ele>169.39999389648437</ele>
        <time>2018-12-29T07:22:37Z</time>
      </trkpt>
      <trkpt lat="41.312107443809509" lon="1.639658091589809">
        <ele>169.39999389648437</ele>
        <time>2018-12-29T07:22:39Z</time>
      </trkpt>
      <trkpt lat="41.312173577025533" lon="1.639569075778127">
        <ele>169.60000610351562</ele>
        <time>2018-12-29T07:22:41Z</time>
      </trkpt>
      <trkpt lat="41.312200482934713" lon="1.639515766873956">
        <ele>169.39999389648437</ele>
        <time>2018-12-29T07:22:42Z</time>
      </trkpt>
      <trkpt lat="41.312221605330706" lon="1.639456758275628">
        <ele>169.19999694824219</ele>
        <time>2018-12-29T07:22:43Z</time>
      </trkpt>
      <trkpt lat="41.312237028032541" lon="1.639393558725715">
        <ele>169.19999694824219</ele>
        <time>2018-12-29T07:22:44Z</time>
      </trkpt>
      <trkpt lat="41.31224968470633" lon="1.639328012242913">
        <ele>169</ele>
        <time>2018-12-29T07:22:45Z</time>
      </trkpt>
      <trkpt lat="41.312261251732707" lon="1.639261711388826">
        <ele>169.19999694824219</ele>
        <time>2018-12-29T07:22:46Z</time>
      </trkpt>
      <trkpt lat="41.312270723283291" lon="1.639194739982486">
        <ele>169</ele>
        <time>2018-12-29T07:22:47Z</time>
      </trkpt>
      <trkpt lat="41.31228681653738" lon="1.639128774404526">
        <ele>169</ele>
        <time>2018-12-29T07:22:48Z</time>
      </trkpt>
      <trkpt lat="41.312311459332705" lon="1.639066077768803">
        <ele>169</ele>
        <time>2018-12-29T07:22:49Z</time>
      </trkpt>
      <trkpt lat="41.312342388555408" lon="1.639005141332746">
        <ele>168.39999389648437</ele>
        <time>2018-12-29T07:22:50Z</time>
      </trkpt>
      <trkpt lat="41.312377173453569" lon="1.638943701982498">
        <ele>168</ele>
        <time>2018-12-29T07:22:51Z</time>
      </trkpt>
      <trkpt lat="41.312414724379778" lon="1.638879748061299">
        <ele>167.60000610351562</ele>
        <time>2018-12-29T07:22:52Z</time>
      </trkpt>
      <trkpt lat="41.312450431287289" lon="1.638814369216561">
        <ele>167.19999694824219</ele>
        <time>2018-12-29T07:22:53Z</time>
      </trkpt>
      <trkpt lat="41.312521593645215" lon="1.638681432232261">
        <ele>166.80000305175781</ele>
        <time>2018-12-29T07:22:55Z</time>
      </trkpt>
      <trkpt lat="41.312588648870587" lon="1.63854748941958">
        <ele>166.60000610351562</ele>
        <time>2018-12-29T07:22:57Z</time>
      </trkpt>
      <trkpt lat="41.312656290829182" lon="1.638423688709736">
        <ele>166.60000610351562</ele>
        <time>2018-12-29T07:22:59Z</time>
      </trkpt>
      <trkpt lat="41.312719322741032" lon="1.638307264074683">
        <ele>166.60000610351562</ele>
        <time>2018-12-29T07:23:01Z</time>
      </trkpt>
      <trkpt lat="41.31278176791966" lon="1.638196287676692">
        <ele>166.80000305175781</ele>
        <time>2018-12-29T07:23:03Z</time>
      </trkpt>
      <trkpt lat="41.312840860337019" lon="1.638090927153826">
        <ele>167</ele>
        <time>2018-12-29T07:23:05Z</time>
      </trkpt>
      <trkpt lat="41.312894755974412" lon="1.637988248839974">
        <ele>167.19999694824219</ele>
        <time>2018-12-29T07:23:07Z</time>
      </trkpt>
      <trkpt lat="41.312927110120654" lon="1.637939047068358">
        <ele>167.39999389648437</ele>
        <time>2018-12-29T07:23:08Z</time>
      </trkpt>
      <trkpt lat="41.312957620248199" lon="1.637887079268694">
        <ele>167.60000610351562</ele>
        <time>2018-12-29T07:23:09Z</time>
      </trkpt>
      <trkpt lat="41.312986286357045" lon="1.637836620211601">
        <ele>167.60000610351562</ele>
        <time>2018-12-29T07:23:10Z</time>
      </trkpt>
      <trkpt lat="41.313014617189765" lon="1.637785322964191">
        <ele>167.80000305175781</ele>
        <time>2018-12-29T07:23:11Z</time>
      </trkpt>
      <trkpt lat="41.313070943579078" lon="1.637684740126133">
        <ele>168</ele>
        <time>2018-12-29T07:23:13Z</time>
      </trkpt>
      <trkpt lat="41.313128611072898" lon="1.637583486735821">
        <ele>168.19999694824219</ele>
        <time>2018-12-29T07:23:15Z</time>
      </trkpt>
      <trkpt lat="41.313184853643179" lon="1.637480473145843">
        <ele>168.60000610351562</ele>
        <time>2018-12-29T07:23:17Z</time>
      </trkpt>
      <trkpt lat="41.313240341842175" lon="1.637377543374896">
        <ele>168.80000305175781</ele>
        <time>2018-12-29T07:23:19Z</time>
      </trkpt>
      <trkpt lat="41.313268588855863" lon="1.63732691667974">
        <ele>168.80000305175781</ele>
        <time>2018-12-29T07:23:20Z</time>
      </trkpt>
      <trkpt lat="41.313298093155026" lon="1.637278469279409">
        <ele>169</ele>
        <time>2018-12-29T07:23:21Z</time>
      </trkpt>
      <trkpt lat="41.313358526676893" lon="1.637178305536509">
        <ele>169</ele>
        <time>2018-12-29T07:23:23Z</time>
      </trkpt>
      <trkpt lat="41.313416194170713" lon="1.637073867022991">
        <ele>169</ele>
        <time>2018-12-29T07:23:25Z</time>
      </trkpt>
      <trkpt lat="41.313473526388407" lon="1.636967668309808">
        <ele>169.19999694824219</ele>
        <time>2018-12-29T07:23:27Z</time>
      </trkpt>
      <trkpt lat="41.3135342951864" lon="1.63686222396791">
        <ele>169.39999389648437</ele>
        <time>2018-12-29T07:23:29Z</time>
      </trkpt>
      <trkpt lat="41.31356262601912" lon="1.636808076873422">
        <ele>169.60000610351562</ele>
        <time>2018-12-29T07:23:30Z</time>
      </trkpt>
      <trkpt lat="41.313590873032808" lon="1.636755270883441">
        <ele>169.80000305175781</ele>
        <time>2018-12-29T07:23:31Z</time>
      </trkpt>
      <trkpt lat="41.313649462535977" lon="1.636653263121843">
        <ele>169.80000305175781</ele>
        <time>2018-12-29T07:23:33Z</time>
      </trkpt>
      <trkpt lat="41.313706878572702" lon="1.636550165712833">
        <ele>170</ele>
        <time>2018-12-29T07:23:35Z</time>
      </trkpt>
      <trkpt lat="41.313763875514269" lon="1.636446146294475">
        <ele>170.39999389648438</ele>
        <time>2018-12-29T07:23:37Z</time>
      </trkpt>
      <trkpt lat="41.313821543008089" lon="1.636340618133545">
        <ele>170.19999694824219</ele>
        <time>2018-12-29T07:23:39Z</time>
      </trkpt>
      <trkpt lat="41.313877617940307" lon="1.636236933991313">
        <ele>170.60000610351562</ele>
        <time>2018-12-29T07:23:41Z</time>
      </trkpt>
      <trkpt lat="41.313906870782375" lon="1.63618647493422">
        <ele>170.80000305175781</ele>
        <time>2018-12-29T07:23:42Z</time>
      </trkpt>
      <trkpt lat="41.313935536891222" lon="1.636136351153255">
        <ele>170.80000305175781</ele>
        <time>2018-12-29T07:23:43Z</time>
      </trkpt>
      <trkpt lat="41.313991863280535" lon="1.636036019772291">
        <ele>171</ele>
        <time>2018-12-29T07:23:45Z</time>
      </trkpt>
      <trkpt lat="41.314046764746308" lon="1.635935185477138">
        <ele>171.19999694824219</ele>
        <time>2018-12-29T07:23:47Z</time>
      </trkpt>
      <trkpt lat="41.314074927940965" lon="1.635884307324886">
        <ele>171.39999389648437</ele>
        <time>2018-12-29T07:23:48Z</time>
      </trkpt>
      <trkpt lat="41.314103091135621" lon="1.635832758620381">
        <ele>171.39999389648437</ele>
        <time>2018-12-29T07:23:49Z</time>
      </trkpt>
      <trkpt lat="41.314159585162997" lon="1.635728403925896">
        <ele>171.60000610351562</ele>
        <time>2018-12-29T07:23:51Z</time>
      </trkpt>
      <trkpt lat="41.314217336475849" lon="1.635630670934916">
        <ele>171.60000610351562</ele>
        <time>2018-12-29T07:23:53Z</time>
      </trkpt>
      <trkpt lat="41.314274165779352" lon="1.635531429201365">
        <ele>171.80000305175781</ele>
        <time>2018-12-29T07:23:55Z</time>
      </trkpt>
      <trkpt lat="41.314301323145628" lon="1.635480802506208">
        <ele>171.80000305175781</ele>
        <time>2018-12-29T07:23:56Z</time>
      </trkpt>
      <trkpt lat="41.314329570159316" lon="1.635430511087179">
        <ele>172</ele>
        <time>2018-12-29T07:23:57Z</time>
      </trkpt>
      <trkpt lat="41.314357900992036" lon="1.635380890220404">
        <ele>172</ele>
        <time>2018-12-29T07:23:58Z</time>
      </trkpt>
      <trkpt lat="41.314386818557978" lon="1.635330095887184">
        <ele>172</ele>
        <time>2018-12-29T07:23:59Z</time>
      </trkpt>
      <trkpt lat="41.314443815499544" lon="1.635226663202047">
        <ele>172.19999694824219</ele>
        <time>2018-12-29T07:24:01Z</time>
      </trkpt>
      <trkpt lat="41.314499974250793" lon="1.635124739259481">
        <ele>172.39999389648437</ele>
        <time>2018-12-29T07:24:03Z</time>
      </trkpt>
      <trkpt lat="41.314556216821074" lon="1.63502398878336">
        <ele>172.60000610351562</ele>
        <time>2018-12-29T07:24:05Z</time>
      </trkpt>
      <trkpt lat="41.314612375572324" lon="1.634925752878189">
        <ele>172.80000305175781</ele>
        <time>2018-12-29T07:24:07Z</time>
      </trkpt>
      <trkpt lat="41.31466937251389" lon="1.63482659496367">
        <ele>173</ele>
        <time>2018-12-29T07:24:09Z</time>
      </trkpt>
      <trkpt lat="41.31472553126514" lon="1.634724754840136">
        <ele>173.19999694824219</ele>
        <time>2018-12-29T07:24:11Z</time>
      </trkpt>
      <trkpt lat="41.314783282577991" lon="1.634622327983379">
        <ele>173.39999389648437</ele>
        <time>2018-12-29T07:24:13Z</time>
      </trkpt>
      <trkpt lat="41.314839608967304" lon="1.634521577507258">
        <ele>173.39999389648437</ele>
        <time>2018-12-29T07:24:15Z</time>
      </trkpt>
      <trkpt lat="41.314893336966634" lon="1.634422084316611">
        <ele>173.60000610351562</ele>
        <time>2018-12-29T07:24:17Z</time>
      </trkpt>
      <trkpt lat="41.314921164885163" lon="1.63437120616436">
        <ele>173.80000305175781</ele>
        <time>2018-12-29T07:24:18Z</time>
      </trkpt>
      <trkpt lat="41.314947819337249" lon="1.634319741278887">
        <ele>173.80000305175781</ele>
        <time>2018-12-29T07:24:19Z</time>
      </trkpt>
      <trkpt lat="41.314974054694176" lon="1.634268276393414">
        <ele>174</ele>
        <time>2018-12-29T07:24:20Z</time>
      </trkpt>
      <trkpt lat="41.314999619498849" lon="1.634216476231813">
        <ele>174</ele>
        <time>2018-12-29T07:24:21Z</time>
      </trkpt>
      <trkpt lat="41.315020741894841" lon="1.63416207768023">
        <ele>174.19999694824219</ele>
        <time>2018-12-29T07:24:22Z</time>
      </trkpt>
      <trkpt lat="41.315034739673138" lon="1.634103152900934">
        <ele>174.19999694824219</ele>
        <time>2018-12-29T07:24:23Z</time>
      </trkpt>
      <trkpt lat="41.315035410225391" lon="1.63404188118875">
        <ele>174.19999694824219</ele>
        <time>2018-12-29T07:24:24Z</time>
      </trkpt>
      <trkpt lat="41.315022837370634" lon="1.633980944752693">
        <ele>174.19999694824219</ele>
        <time>2018-12-29T07:24:25Z</time>
      </trkpt>
      <trkpt lat="41.314957458525896" lon="1.633870135992765">
        <ele>174</ele>
        <time>2018-12-29T07:24:27Z</time>
      </trkpt>
      <trkpt lat="41.314911441877484" lon="1.633811881765723">
        <ele>173.39999389648437</ele>
        <time>2018-12-29T07:24:28Z</time>
      </trkpt>
      <trkpt lat="41.314861485734582" lon="1.633747508749366">
        <ele>173</ele>
        <time>2018-12-29T07:24:29Z</time>
      </trkpt>
      <trkpt lat="41.314754532650113" lon="1.633599735796452">
        <ele>171.60000610351562</ele>
        <time>2018-12-29T07:24:31Z</time>
      </trkpt>
      <trkpt lat="41.314645232632756" lon="1.633432097733021">
        <ele>169.80000305175781</ele>
        <time>2018-12-29T07:24:33Z</time>
      </trkpt>
      <trkpt lat="41.31453501060605" lon="1.63325222209096">
        <ele>168.19999694824219</ele>
        <time>2018-12-29T07:24:35Z</time>
      </trkpt>
      <trkpt lat="41.314429314807057" lon="1.633056923747063">
        <ele>166.80000305175781</ele>
        <time>2018-12-29T07:24:37Z</time>
      </trkpt>
      <trkpt lat="41.314331581816077" lon="1.632852237671614">
        <ele>165.60000610351562</ele>
        <time>2018-12-29T07:24:39Z</time>
      </trkpt>
      <trkpt lat="41.314240051433444" lon="1.632641348987818">
        <ele>164.80000305175781</ele>
        <time>2018-12-29T07:24:41Z</time>
      </trkpt>
      <trkpt lat="41.314157489687204" lon="1.632420737296343">
        <ele>164.60000610351562</ele>
        <time>2018-12-29T07:24:43Z</time>
      </trkpt>
      <trkpt lat="41.314080795273185" lon="1.632205992937088">
        <ele>164</ele>
        <time>2018-12-29T07:24:45Z</time>
      </trkpt>
      <trkpt lat="41.314009800553322" lon="1.632001558318734">
        <ele>164.19999694824219</ele>
        <time>2018-12-29T07:24:47Z</time>
      </trkpt>
      <trkpt lat="41.313947439193726" lon="1.631809696555138">
        <ele>164.39999389648437</ele>
        <time>2018-12-29T07:24:49Z</time>
      </trkpt>
      <trkpt lat="41.313917264342308" lon="1.631719004362822">
        <ele>164.60000610351562</ele>
        <time>2018-12-29T07:24:50Z</time>
      </trkpt>
      <trkpt lat="41.31388952024281" lon="1.631629904732108">
        <ele>165</ele>
        <time>2018-12-29T07:24:51Z</time>
      </trkpt>
      <trkpt lat="41.313841072842479" lon="1.631461763754487">
        <ele>165.39999389648437</ele>
        <time>2018-12-29T07:24:53Z</time>
      </trkpt>
      <trkpt lat="41.31379472091794" lon="1.631304435431957">
        <ele>165.60000610351562</ele>
        <time>2018-12-29T07:24:55Z</time>
      </trkpt>
      <trkpt lat="41.313771419227123" lon="1.631229836493731">
        <ele>165.39999389648437</ele>
        <time>2018-12-29T07:24:56Z</time>
      </trkpt>
      <trkpt lat="41.313749039545655" lon="1.631156411021948">
        <ele>165.39999389648437</ele>
        <time>2018-12-29T07:24:57Z</time>
      </trkpt>
      <trkpt lat="41.313706124201417" lon="1.631012661382556">
        <ele>165.80000305175781</ele>
        <time>2018-12-29T07:24:59Z</time>
      </trkpt>
      <trkpt lat="41.313666393980384" lon="1.630873857066035">
        <ele>165.80000305175781</ele>
        <time>2018-12-29T07:25:01Z</time>
      </trkpt>
      <trkpt lat="41.313625071197748" lon="1.630731280893087">
        <ele>165.80000305175781</ele>
        <time>2018-12-29T07:25:03Z</time>
      </trkpt>
      <trkpt lat="41.31358316168189" lon="1.630577556788921">
        <ele>165.60000610351562</ele>
        <time>2018-12-29T07:25:05Z</time>
      </trkpt>
      <trkpt lat="41.313562290742993" lon="1.630493905395269">
        <ele>165.19999694824219</ele>
        <time>2018-12-29T07:25:06Z</time>
      </trkpt>
      <trkpt lat="41.313543766736984" lon="1.630406230688095">
        <ele>164.80000305175781</ele>
        <time>2018-12-29T07:25:07Z</time>
      </trkpt>
      <trkpt lat="41.313526248559356" lon="1.630316460505128">
        <ele>164.39999389648437</ele>
        <time>2018-12-29T07:25:08Z</time>
      </trkpt>
      <trkpt lat="41.31351032294333" lon="1.63022518157959">
        <ele>164</ele>
        <time>2018-12-29T07:25:09Z</time>
      </trkpt>
      <trkpt lat="41.313480567187071" lon="1.630040528252721">
        <ele>163.19999694824219</ele>
        <time>2018-12-29T07:25:11Z</time>
      </trkpt>
      <trkpt lat="41.313451565802097" lon="1.629854282364249">
        <ele>162.80000305175781</ele>
        <time>2018-12-29T07:25:13Z</time>
      </trkpt>
      <trkpt lat="41.313425749540329" lon="1.629680944606662">
        <ele>162.80000305175781</ele>
        <time>2018-12-29T07:25:15Z</time>
      </trkpt>
      <trkpt lat="41.313392892479897" lon="1.629526801407337">
        <ele>163.19999694824219</ele>
        <time>2018-12-29T07:25:17Z</time>
      </trkpt>
      <trkpt lat="41.313361208885908" lon="1.629375759512186">
        <ele>163.39999389648437</ele>
        <time>2018-12-29T07:25:19Z</time>
      </trkpt>
      <trkpt lat="41.31332952529192" lon="1.62922496907413">
        <ele>163.60000610351562</ele>
        <time>2018-12-29T07:25:21Z</time>
      </trkpt>
      <trkpt lat="41.313292225822806" lon="1.629073927178979">
        <ele>163.19999694824219</ele>
        <time>2018-12-29T07:25:23Z</time>
      </trkpt>
      <trkpt lat="41.313252411782742" lon="1.628923723474145">
        <ele>163</ele>
        <time>2018-12-29T07:25:25Z</time>
      </trkpt>
      <trkpt lat="41.313231205567718" lon="1.628850046545267">
        <ele>163</ele>
        <time>2018-12-29T07:25:26Z</time>
      </trkpt>
      <trkpt lat="41.313211256638169" lon="1.628778129816055">
        <ele>163</ele>
        <time>2018-12-29T07:25:27Z</time>
      </trkpt>
      <trkpt lat="41.313163060694933" lon="1.628636140376329">
        <ele>163</ele>
        <time>2018-12-29T07:25:29Z</time>
      </trkpt>
      <trkpt lat="41.313117044046521" lon="1.628497084602714">
        <ele>163.19999694824219</ele>
        <time>2018-12-29T07:25:31Z</time>
      </trkpt>
      <trkpt lat="41.313069518655539" lon="1.628364650532603">
        <ele>163.60000610351562</ele>
        <time>2018-12-29T07:25:33Z</time>
      </trkpt>
      <trkpt lat="41.313022579997778" lon="1.628237580880523">
        <ele>164</ele>
        <time>2018-12-29T07:25:35Z</time>
      </trkpt>
      <trkpt lat="41.312978072091937" lon="1.628113528713584">
        <ele>164.39999389648437</ele>
        <time>2018-12-29T07:25:37Z</time>
      </trkpt>
      <trkpt lat="41.31293180398643" lon="1.62799215875566">
        <ele>164.80000305175781</ele>
        <time>2018-12-29T07:25:39Z</time>
      </trkpt>
      <trkpt lat="41.312909508123994" lon="1.627930300310254">
        <ele>165</ele>
        <time>2018-12-29T07:25:40Z</time>
      </trkpt>
      <trkpt lat="41.312885032966733" lon="1.627870285883546">
        <ele>165</ele>
        <time>2018-12-29T07:25:41Z</time>
      </trkpt>
      <trkpt lat="41.312837842851877" lon="1.62774883210659">
        <ele>165.19999694824219</ele>
        <time>2018-12-29T07:25:43Z</time>
      </trkpt>
      <trkpt lat="41.312789563089609" lon="1.627627965062857">
        <ele>165.39999389648437</ele>
        <time>2018-12-29T07:25:45Z</time>
      </trkpt>
      <trkpt lat="41.312765590846539" lon="1.627568621188402">
        <ele>165.60000610351562</ele>
        <time>2018-12-29T07:25:46Z</time>
      </trkpt>
      <trkpt lat="41.312742875888944" lon="1.627508103847504">
        <ele>165.60000610351562</ele>
        <time>2018-12-29T07:25:47Z</time>
      </trkpt>
      <trkpt lat="41.312698451802135" lon="1.627387907356024">
        <ele>165.80000305175781</ele>
        <time>2018-12-29T07:25:49Z</time>
      </trkpt>
      <trkpt lat="41.312654195353389" lon="1.627271315082908">
        <ele>166.19999694824219</ele>
        <time>2018-12-29T07:25:51Z</time>
      </trkpt>
      <trkpt lat="41.312604155391455" lon="1.62715120241046">
        <ele>166.39999389648437</ele>
        <time>2018-12-29T07:25:53Z</time>
      </trkpt>
      <trkpt lat="41.312555205076933" lon="1.627030000090599">
        <ele>166.19999694824219</ele>
        <time>2018-12-29T07:25:55Z</time>
      </trkpt>
      <trkpt lat="41.312506338581443" lon="1.62690837867558">
        <ele>166.19999694824219</ele>
        <time>2018-12-29T07:25:57Z</time>
      </trkpt>
      <trkpt lat="41.312482031062245" lon="1.626848615705967">
        <ele>166.19999694824219</ele>
        <time>2018-12-29T07:25:58Z</time>
      </trkpt>
      <trkpt lat="41.312458226457238" lon="1.626787930727005">
        <ele>166.19999694824219</ele>
        <time>2018-12-29T07:25:59Z</time>
      </trkpt>
      <trkpt lat="41.312409276142716" lon="1.626662872731686">
        <ele>166.19999694824219</ele>
        <time>2018-12-29T07:26:01Z</time>
      </trkpt>
      <trkpt lat="41.312361415475607" lon="1.626538066193461">
        <ele>166.19999694824219</ele>
        <time>2018-12-29T07:26:03Z</time>
      </trkpt>
      <trkpt lat="41.312308944761753" lon="1.626414265483618">
        <ele>166.19999694824219</ele>
        <time>2018-12-29T07:26:05Z</time>
      </trkpt>
      <trkpt lat="41.312252031639218" lon="1.62629222497344">
        <ele>166</ele>
        <time>2018-12-29T07:26:07Z</time>
      </trkpt>
      <trkpt lat="41.312195956707001" lon="1.626170016825199">
        <ele>166.19999694824219</ele>
        <time>2018-12-29T07:26:09Z</time>
      </trkpt>
      <trkpt lat="41.312169721350074" lon="1.62610899657011">
        <ele>166.19999694824219</ele>
        <time>2018-12-29T07:26:10Z</time>
      </trkpt>
      <trkpt lat="41.312142899259925" lon="1.62604889832437">
        <ele>166.19999694824219</ele>
        <time>2018-12-29T07:26:11Z</time>
      </trkpt>
      <trkpt lat="41.312089171260595" lon="1.625928534194827">
        <ele>166</ele>
        <time>2018-12-29T07:26:13Z</time>
      </trkpt>
      <trkpt lat="41.312030414119363" lon="1.625810684636235">
        <ele>166</ele>
        <time>2018-12-29T07:26:15Z</time>
      </trkpt>
      <trkpt lat="41.311966544017196" lon="1.625690991058946">
        <ele>166.19999694824219</ele>
        <time>2018-12-29T07:26:17Z</time>
      </trkpt>
      <trkpt lat="41.311899740248919" lon="1.625574147328734">
        <ele>166.19999694824219</ele>
        <time>2018-12-29T07:26:19Z</time>
      </trkpt>
      <trkpt lat="41.311829583719373" lon="1.625460991635919">
        <ele>166.39999389648437</ele>
        <time>2018-12-29T07:26:21Z</time>
      </trkpt>
      <trkpt lat="41.311764540150762" lon="1.625350182875991">
        <ele>166.39999389648437</ele>
        <time>2018-12-29T07:26:23Z</time>
      </trkpt>
      <trkpt lat="41.311699412763119" lon="1.625243816524744">
        <ele>166.60000610351562</ele>
        <time>2018-12-29T07:26:25Z</time>
      </trkpt>
      <trkpt lat="41.311634453013539" lon="1.625136863440275">
        <ele>167</ele>
        <time>2018-12-29T07:26:27Z</time>
      </trkpt>
      <trkpt lat="41.311566894873977" lon="1.625029072165489">
        <ele>167.19999694824219</ele>
        <time>2018-12-29T07:26:29Z</time>
      </trkpt>
      <trkpt lat="41.311497744172812" lon="1.624925639480352">
        <ele>167.39999389648437</ele>
        <time>2018-12-29T07:26:31Z</time>
      </trkpt>
      <trkpt lat="41.311431359499693" lon="1.624825475737453">
        <ele>167.60000610351562</ele>
        <time>2018-12-29T07:26:33Z</time>
      </trkpt>
      <trkpt lat="41.311397412791848" lon="1.624778788536787">
        <ele>167.80000305175781</ele>
        <time>2018-12-29T07:26:34Z</time>
      </trkpt>
      <trkpt lat="41.311365645378828" lon="1.624734364449978">
        <ele>168.19999694824219</ele>
        <time>2018-12-29T07:26:35Z</time>
      </trkpt>
      <trkpt lat="41.311304960399866" lon="1.624648030847311">
        <ele>168.60000610351562</ele>
        <time>2018-12-29T07:26:37Z</time>
      </trkpt>
      <trkpt lat="41.311275288462639" lon="1.624603103846312">
        <ele>169</ele>
        <time>2018-12-29T07:26:38Z</time>
      </trkpt>
      <trkpt lat="41.311245951801538" lon="1.624558847397566">
        <ele>169</ele>
        <time>2018-12-29T07:26:39Z</time>
      </trkpt>
      <trkpt lat="41.311186691746116" lon="1.624474190175533">
        <ele>169.39999389648437</ele>
        <time>2018-12-29T07:26:41Z</time>
      </trkpt>
      <trkpt lat="41.311127934604883" lon="1.624390119686723">
        <ele>169.80000305175781</ele>
        <time>2018-12-29T07:26:43Z</time>
      </trkpt>
      <trkpt lat="41.311100525781512" lon="1.624348796904087">
        <ele>170.19999694824219</ele>
        <time>2018-12-29T07:26:44Z</time>
      </trkpt>
      <trkpt lat="41.31107454188168" lon="1.624308228492737">
        <ele>170.39999389648438</ele>
        <time>2018-12-29T07:26:45Z</time>
      </trkpt>
      <trkpt lat="41.311027351766825" lon="1.624230528250337">
        <ele>171</ele>
        <time>2018-12-29T07:26:47Z</time>
      </trkpt>
      <trkpt lat="41.311006145551801" lon="1.624188702553511">
        <ele>171.39999389648437</ele>
        <time>2018-12-29T07:26:48Z</time>
      </trkpt>
      <trkpt lat="41.310984017327428" lon="1.624145284295082">
        <ele>171.60000610351562</ele>
        <time>2018-12-29T07:26:49Z</time>
      </trkpt>
      <trkpt lat="41.31094160489738" lon="1.624060040339828">
        <ele>172.19999694824219</ele>
        <time>2018-12-29T07:26:51Z</time>
      </trkpt>
      <trkpt lat="41.310920901596546" lon="1.624019974842668">
        <ele>172.60000610351562</ele>
        <time>2018-12-29T07:26:52Z</time>
      </trkpt>
      <trkpt lat="41.310900533571839" lon="1.623981082811952">
        <ele>172.80000305175781</ele>
        <time>2018-12-29T07:26:53Z</time>
      </trkpt>
      <trkpt lat="41.310859965160489" lon="1.623907657340169">
        <ele>173.39999389648437</ele>
        <time>2018-12-29T07:26:55Z</time>
      </trkpt>
      <trkpt lat="41.310841189697385" lon="1.623871615156531">
        <ele>173.80000305175781</ele>
        <time>2018-12-29T07:26:56Z</time>
      </trkpt>
      <trkpt lat="41.310823671519756" lon="1.623837081715465">
        <ele>174.19999694824219</ele>
        <time>2018-12-29T07:26:57Z</time>
      </trkpt>
      <trkpt lat="41.310787461698055" lon="1.623758878558874">
        <ele>175</ele>
        <time>2018-12-29T07:26:59Z</time>
      </trkpt>
      <trkpt lat="41.310742618516088" lon="1.623677825555205">
        <ele>175.60000610351562</ele>
        <time>2018-12-29T07:27:01Z</time>
      </trkpt>
      <trkpt lat="41.31068998016417" lon="1.623597024008632">
        <ele>175.80000305175781</ele>
        <time>2018-12-29T07:27:03Z</time>
      </trkpt>
      <trkpt lat="41.310635330155492" lon="1.6235192399472">
        <ele>176</ele>
        <time>2018-12-29T07:27:05Z</time>
      </trkpt>
      <trkpt lat="41.310606580227613" lon="1.623481940478087">
        <ele>176</ele>
        <time>2018-12-29T07:27:06Z</time>
      </trkpt>
      <trkpt lat="41.310576070100069" lon="1.623446317389607">
        <ele>176.19999694824219</ele>
        <time>2018-12-29T07:27:07Z</time>
      </trkpt>
      <trkpt lat="41.310516893863678" lon="1.623369120061398">
        <ele>176.39999389648437</ele>
        <time>2018-12-29T07:27:09Z</time>
      </trkpt>
      <trkpt lat="41.310458807274699" lon="1.623289994895458">
        <ele>176.39999389648437</ele>
        <time>2018-12-29T07:27:11Z</time>
      </trkpt>
      <trkpt lat="41.310395775362849" lon="1.623215144500136">
        <ele>176.60000610351562</ele>
        <time>2018-12-29T07:27:13Z</time>
      </trkpt>
      <trkpt lat="41.310325702652335" lon="1.623139288276434">
        <ele>176.39999389648437</ele>
        <time>2018-12-29T07:27:15Z</time>
      </trkpt>
      <trkpt lat="41.310247331857681" lon="1.623063767328858">
        <ele>176.39999389648437</ele>
        <time>2018-12-29T07:27:17Z</time>
      </trkpt>
      <trkpt lat="41.31020131520927" lon="1.62302378565073">
        <ele>176.19999694824219</ele>
        <time>2018-12-29T07:27:18Z</time>
      </trkpt>
      <trkpt lat="41.310149179771543" lon="1.622982965782285">
        <ele>175.60000610351562</ele>
        <time>2018-12-29T07:27:19Z</time>
      </trkpt>
      <trkpt lat="41.310091428458691" lon="1.622939212247729">
        <ele>175</ele>
        <time>2018-12-29T07:27:20Z</time>
      </trkpt>
      <trkpt lat="41.31002982147038" lon="1.622890597209334">
        <ele>174.19999694824219</ele>
        <time>2018-12-29T07:27:21Z</time>
      </trkpt>
      <trkpt lat="41.309966035187244" lon="1.6228371206671">
        <ele>173.39999389648437</ele>
        <time>2018-12-29T07:27:22Z</time>
      </trkpt>
      <trkpt lat="41.309899399057031" lon="1.622780207544565">
        <ele>172.39999389648437</ele>
        <time>2018-12-29T07:27:23Z</time>
      </trkpt>
      <trkpt lat="41.309831254184246" lon="1.622720612213016">
        <ele>171.80000305175781</ele>
        <time>2018-12-29T07:27:24Z</time>
      </trkpt>
      <trkpt lat="41.309761768206954" lon="1.622659089043737">
        <ele>171.19999694824219</ele>
        <time>2018-12-29T07:27:25Z</time>
      </trkpt>
      <trkpt lat="41.309614079073071" lon="1.622545346617699">
        <ele>170.39999389648438</ele>
        <time>2018-12-29T07:27:27Z</time>
      </trkpt>
      <trkpt lat="41.309539899230003" lon="1.622496228665113">
        <ele>170.19999694824219</ele>
        <time>2018-12-29T07:27:28Z</time>
      </trkpt>
      <trkpt lat="41.309470999985933" lon="1.622444177046418">
        <ele>170</ele>
        <time>2018-12-29T07:27:29Z</time>
      </trkpt>
      <trkpt lat="41.309411069378257" lon="1.622382318601012">
        <ele>170</ele>
        <time>2018-12-29T07:27:30Z</time>
      </trkpt>
      <trkpt lat="41.309364214539528" lon="1.622312245890498">
        <ele>169.80000305175781</ele>
        <time>2018-12-29T07:27:31Z</time>
      </trkpt>
      <trkpt lat="41.309319538995624" lon="1.62224343046546">
        <ele>169.60000610351562</ele>
        <time>2018-12-29T07:27:32Z</time>
      </trkpt>
      <trkpt lat="41.309274192899466" lon="1.622177632525563">
        <ele>169.60000610351562</ele>
        <time>2018-12-29T07:27:33Z</time>
      </trkpt>
      <trkpt lat="41.309175789356232" lon="1.622054167091847">
        <ele>170.39999389648438</ele>
        <time>2018-12-29T07:27:35Z</time>
      </trkpt>
      <trkpt lat="41.309066992253065" lon="1.621938664466143">
        <ele>170.39999389648438</ele>
        <time>2018-12-29T07:27:37Z</time>
      </trkpt>
      <trkpt lat="41.309010749682784" lon="1.621884601190686">
        <ele>169.60000610351562</ele>
        <time>2018-12-29T07:27:38Z</time>
      </trkpt>
      <trkpt lat="41.308952327817678" lon="1.621828442439437">
        <ele>169.39999389648437</ele>
        <time>2018-12-29T07:27:39Z</time>
      </trkpt>
      <trkpt lat="41.30883757956326" lon="1.621707743033767">
        <ele>169.19999694824219</ele>
        <time>2018-12-29T07:27:41Z</time>
      </trkpt>
      <trkpt lat="41.308722076937556" lon="1.621591905131936">
        <ele>169.19999694824219</ele>
        <time>2018-12-29T07:27:43Z</time>
      </trkpt>
      <trkpt lat="41.308610681444407" lon="1.62147581577301">
        <ele>169</ele>
        <time>2018-12-29T07:27:45Z</time>
      </trkpt>
      <trkpt lat="41.308554606512189" lon="1.62142057903111">
        <ele>168.60000610351562</ele>
        <time>2018-12-29T07:27:46Z</time>
      </trkpt>
      <trkpt lat="41.308499034494162" lon="1.621365090832114">
        <ele>168.39999389648437</ele>
        <time>2018-12-29T07:27:47Z</time>
      </trkpt>
      <trkpt lat="41.308386046439409" lon="1.621250342577696">
        <ele>168</ele>
        <time>2018-12-29T07:27:49Z</time>
      </trkpt>
      <trkpt lat="41.308272639289498" lon="1.621131990104914">
        <ele>168</ele>
        <time>2018-12-29T07:27:51Z</time>
      </trkpt>
      <trkpt lat="41.308160154148936" lon="1.621009530499578">
        <ele>167.39999389648437</ele>
        <time>2018-12-29T07:27:53Z</time>
      </trkpt>
      <trkpt lat="41.308104833588004" lon="1.620947839692235">
        <ele>167.39999389648437</ele>
        <time>2018-12-29T07:27:54Z</time>
      </trkpt>
      <trkpt lat="41.308050686493516" lon="1.620884807780385">
        <ele>167.19999694824219</ele>
        <time>2018-12-29T07:27:55Z</time>
      </trkpt>
      <trkpt lat="41.307997712865472" lon="1.62081959657371">
        <ele>167.19999694824219</ele>
        <time>2018-12-29T07:27:56Z</time>
      </trkpt>
      <trkpt lat="41.307946415618062" lon="1.620754636824131">
        <ele>167</ele>
        <time>2018-12-29T07:27:57Z</time>
      </trkpt>
      <trkpt lat="41.307853376492858" lon="1.620622705668211">
        <ele>166.80000305175781</ele>
        <time>2018-12-29T07:27:59Z</time>
      </trkpt>
      <trkpt lat="41.30775673314929" lon="1.620496390387416">
        <ele>166.80000305175781</ele>
        <time>2018-12-29T07:28:01Z</time>
      </trkpt>
      <trkpt lat="41.307658413425088" lon="1.62036906927824">
        <ele>166.60000610351562</ele>
        <time>2018-12-29T07:28:03Z</time>
      </trkpt>
      <trkpt lat="41.307560428977013" lon="1.620239149779081">
        <ele>166.19999694824219</ele>
        <time>2018-12-29T07:28:05Z</time>
      </trkpt>
      <trkpt lat="41.307463953271508" lon="1.620109900832176">
        <ele>166.39999389648437</ele>
        <time>2018-12-29T07:28:07Z</time>
      </trkpt>
      <trkpt lat="41.307379212230444" lon="1.619971347972751">
        <ele>166.39999389648437</ele>
        <time>2018-12-29T07:28:09Z</time>
      </trkpt>
      <trkpt lat="41.307324646040797" lon="1.619810834527016">
        <ele>166.39999389648437</ele>
        <time>2018-12-29T07:28:11Z</time>
      </trkpt>
      <trkpt lat="41.307270750403404" lon="1.619654595851898">
        <ele>166.19999694824219</ele>
        <time>2018-12-29T07:28:13Z</time>
      </trkpt>
      <trkpt lat="41.307198749855161" lon="1.619519144296646">
        <ele>166.19999694824219</ele>
        <time>2018-12-29T07:28:15Z</time>
      </trkpt>
      <trkpt lat="41.307162372395396" lon="1.619455358013511">
        <ele>166.39999389648437</ele>
        <time>2018-12-29T07:28:16Z</time>
      </trkpt>
      <trkpt lat="41.307126749306917" lon="1.619391152635217">
        <ele>166.60000610351562</ele>
        <time>2018-12-29T07:28:17Z</time>
      </trkpt>
      <trkpt lat="41.307057933881879" lon="1.619267435744405">
        <ele>166.60000610351562</ele>
        <time>2018-12-29T07:28:19Z</time>
      </trkpt>
      <trkpt lat="41.306989872828126" lon="1.619145479053259">
        <ele>166.80000305175781</ele>
        <time>2018-12-29T07:28:21Z</time>
      </trkpt>
      <trkpt lat="41.306931031867862" lon="1.619022851809859">
        <ele>167</ele>
        <time>2018-12-29T07:28:23Z</time>
      </trkpt>
      <trkpt lat="41.306906640529633" lon="1.618959484621882">
        <ele>167</ele>
        <time>2018-12-29T07:28:24Z</time>
      </trkpt>
      <trkpt lat="41.306886775419116" lon="1.618894189596176">
        <ele>167.19999694824219</ele>
        <time>2018-12-29T07:28:25Z</time>
      </trkpt>
      <trkpt lat="41.306871855631471" lon="1.618824368342757">
        <ele>167.39999389648437</ele>
        <time>2018-12-29T07:28:26Z</time>
      </trkpt>
      <trkpt lat="41.306863809004426" lon="1.618752116337419">
        <ele>167.60000610351562</ele>
        <time>2018-12-29T07:28:27Z</time>
      </trkpt>
      <trkpt lat="41.306863557547331" lon="1.618602583184838">
        <ele>167.80000305175781</ele>
        <time>2018-12-29T07:28:29Z</time>
      </trkpt>
      <trkpt lat="41.306865569204092" lon="1.618528487160802">
        <ele>168</ele>
        <time>2018-12-29T07:28:30Z</time>
      </trkpt>
      <trkpt lat="41.306868251413107" lon="1.61845556460321">
        <ele>168</ele>
        <time>2018-12-29T07:28:31Z</time>
      </trkpt>
      <trkpt lat="41.306872442364693" lon="1.61831340752542">
        <ele>168.39999389648437</ele>
        <time>2018-12-29T07:28:33Z</time>
      </trkpt>
      <trkpt lat="41.306874118745327" lon="1.618242915719748">
        <ele>168.60000610351562</ele>
        <time>2018-12-29T07:28:34Z</time>
      </trkpt>
      <trkpt lat="41.306874202564359" lon="1.618173010647297">
        <ele>168.80000305175781</ele>
        <time>2018-12-29T07:28:35Z</time>
      </trkpt>
      <trkpt lat="41.306868167594075" lon="1.618031356483698">
        <ele>169</ele>
        <time>2018-12-29T07:28:37Z</time>
      </trkpt>
      <trkpt lat="41.30686255171895" lon="1.61796011030674">
        <ele>169.19999694824219</ele>
        <time>2018-12-29T07:28:38Z</time>
      </trkpt>
      <trkpt lat="41.306853415444493" lon="1.617889702320099">
        <ele>169.19999694824219</ele>
        <time>2018-12-29T07:28:39Z</time>
      </trkpt>
      <trkpt lat="41.306839166209102" lon="1.617819545790553">
        <ele>169.60000610351562</ele>
        <time>2018-12-29T07:28:40Z</time>
      </trkpt>
      <trkpt lat="41.306823492050171" lon="1.617748718708754">
        <ele>169.60000610351562</ele>
        <time>2018-12-29T07:28:41Z</time>
      </trkpt>
      <trkpt lat="41.306806979700923" lon="1.617676047608256">
        <ele>169.60000610351562</ele>
        <time>2018-12-29T07:28:42Z</time>
      </trkpt>
      <trkpt lat="41.30678778514266" lon="1.617602286860347">
        <ele>169.80000305175781</ele>
        <time>2018-12-29T07:28:43Z</time>
      </trkpt>
      <trkpt lat="41.306768506765366" lon="1.617528693750501">
        <ele>169.80000305175781</ele>
        <time>2018-12-29T07:28:44Z</time>
      </trkpt>
      <trkpt lat="41.306748725473881" lon="1.617457699030638">
        <ele>169.80000305175781</ele>
        <time>2018-12-29T07:28:45Z</time>
      </trkpt>
      <trkpt lat="41.306705726310611" lon="1.617320906370878">
        <ele>170.19999694824219</ele>
        <time>2018-12-29T07:28:47Z</time>
      </trkpt>
      <trkpt lat="41.306664906442165" lon="1.617185538634658">
        <ele>170.39999389648438</ele>
        <time>2018-12-29T07:28:49Z</time>
      </trkpt>
      <trkpt lat="41.306621236726642" lon="1.61705419421196">
        <ele>170.60000610351562</ele>
        <time>2018-12-29T07:28:51Z</time>
      </trkpt>
      <trkpt lat="41.306573459878564" lon="1.616922598332167">
        <ele>170.80000305175781</ele>
        <time>2018-12-29T07:28:53Z</time>
      </trkpt>
      <trkpt lat="41.306534064933658" lon="1.616793517023325">
        <ele>170.80000305175781</ele>
        <time>2018-12-29T07:28:55Z</time>
      </trkpt>
      <trkpt lat="41.30650439299643" lon="1.616672901436687">
        <ele>171</ele>
        <time>2018-12-29T07:28:57Z</time>
      </trkpt>
      <trkpt lat="41.306494167074561" lon="1.616610288619995">
        <ele>171</ele>
        <time>2018-12-29T07:28:58Z</time>
      </trkpt>
      <trkpt lat="41.30648578517139" lon="1.616545077413321">
        <ele>171</ele>
        <time>2018-12-29T07:28:59Z</time>
      </trkpt>
      <trkpt lat="41.30647555924952" lon="1.616407195106149">
        <ele>170.80000305175781</ele>
        <time>2018-12-29T07:29:01Z</time>
      </trkpt>
      <trkpt lat="41.306471284478903" lon="1.616270402446389">
        <ele>170.80000305175781</ele>
        <time>2018-12-29T07:29:03Z</time>
      </trkpt>
      <trkpt lat="41.306470781564713" lon="1.616206029430032">
        <ele>171</ele>
        <time>2018-12-29T07:29:04Z</time>
      </trkpt>
      <trkpt lat="41.306469272822142" lon="1.616144170984626">
        <ele>171</ele>
        <time>2018-12-29T07:29:05Z</time>
      </trkpt>
      <trkpt lat="41.306464243680239" lon="1.616027662530541">
        <ele>171.39999389648437</ele>
        <time>2018-12-29T07:29:07Z</time>
      </trkpt>
      <trkpt lat="41.306460220366716" lon="1.615920625627041">
        <ele>171.60000610351562</ele>
        <time>2018-12-29T07:29:09Z</time>
      </trkpt>
      <trkpt lat="41.306455777958035" lon="1.615873519331217">
        <ele>171.80000305175781</ele>
        <time>2018-12-29T07:29:10Z</time>
      </trkpt>
      <trkpt lat="41.30644965916872" lon="1.615836890414357">
        <ele>171.80000305175781</ele>
        <time>2018-12-29T07:29:11Z</time>
      </trkpt>
      <trkpt lat="41.306424764916301" lon="1.615788023918867">
        <ele>171.80000305175781</ele>
        <time>2018-12-29T07:29:13Z</time>
      </trkpt>
      <trkpt lat="41.306377658620477" lon="1.615768913179636">
        <ele>171.80000305175781</ele>
        <time>2018-12-29T07:29:15Z</time>
      </trkpt>
      <trkpt lat="41.306326948106289" lon="1.615763129666448">
        <ele>171.80000305175781</ele>
        <time>2018-12-29T07:29:17Z</time>
      </trkpt>
      <trkpt lat="41.306283781304955" lon="1.615697415545583">
        <ele>171.39999389648437</ele>
        <time>2018-12-29T07:29:19Z</time>
      </trkpt>
      <trkpt lat="41.306275231763721" lon="1.615597503259778">
        <ele>171.39999389648437</ele>
        <time>2018-12-29T07:29:21Z</time>
      </trkpt>
      <trkpt lat="41.306271627545357" lon="1.615544781088829">
        <ele>171.39999389648437</ele>
        <time>2018-12-29T07:29:22Z</time>
      </trkpt>
      <trkpt lat="41.306270873174071" lon="1.615490047261119">
        <ele>171.39999389648437</ele>
        <time>2018-12-29T07:29:23Z</time>
      </trkpt>
      <trkpt lat="41.306267017498612" lon="1.615378987044096">
        <ele>171.60000610351562</ele>
        <time>2018-12-29T07:29:25Z</time>
      </trkpt>
      <trkpt lat="41.306265341117978" lon="1.615265998989344">
        <ele>171.60000610351562</ele>
        <time>2018-12-29T07:29:27Z</time>
      </trkpt>
      <trkpt lat="41.306258551776409" lon="1.615152675658464">
        <ele>171.80000305175781</ele>
        <time>2018-12-29T07:29:29Z</time>
      </trkpt>
      <trkpt lat="41.306256204843521" lon="1.615095930173993">
        <ele>172</ele>
        <time>2018-12-29T07:29:30Z</time>
      </trkpt>
      <trkpt lat="41.306253354996443" lon="1.615038514137268">
        <ele>172</ele>
        <time>2018-12-29T07:29:31Z</time>
      </trkpt>
      <trkpt lat="41.306247739121318" lon="1.61492426879704">
        <ele>172.39999389648437</ele>
        <time>2018-12-29T07:29:33Z</time>
      </trkpt>
      <trkpt lat="41.306242290884256" lon="1.614811196923256">
        <ele>172.60000610351562</ele>
        <time>2018-12-29T07:29:35Z</time>
      </trkpt>
      <trkpt lat="41.306238267570734" lon="1.614699047058821">
        <ele>172.80000305175781</ele>
        <time>2018-12-29T07:29:37Z</time>
      </trkpt>
      <trkpt lat="41.306233908981085" lon="1.614587064832449">
        <ele>173.19999694824219</ele>
        <time>2018-12-29T07:29:39Z</time>
      </trkpt>
      <trkpt lat="41.306231310591102" lon="1.614528140053153">
        <ele>173.39999389648437</ele>
        <time>2018-12-29T07:29:40Z</time>
      </trkpt>
      <trkpt lat="41.306228125467896" lon="1.614468712359667">
        <ele>173.60000610351562</ele>
        <time>2018-12-29T07:29:41Z</time>
      </trkpt>
      <trkpt lat="41.306219659745693" lon="1.614348432049155">
        <ele>174</ele>
        <time>2018-12-29T07:29:43Z</time>
      </trkpt>
      <trkpt lat="41.306214043870568" lon="1.6142269782722">
        <ele>174.19999694824219</ele>
        <time>2018-12-29T07:29:45Z</time>
      </trkpt>
      <trkpt lat="41.306210020557046" lon="1.614106027409434">
        <ele>174.39999389648437</ele>
        <time>2018-12-29T07:29:47Z</time>
      </trkpt>
      <trkpt lat="41.306205745786428" lon="1.613983316347003">
        <ele>174.80000305175781</ele>
        <time>2018-12-29T07:29:49Z</time>
      </trkpt>
      <trkpt lat="41.306202644482255" lon="1.613920535892248">
        <ele>175.19999694824219</ele>
        <time>2018-12-29T07:29:50Z</time>
      </trkpt>
      <trkpt lat="41.306200716644526" lon="1.613860940560699">
        <ele>175.19999694824219</ele>
        <time>2018-12-29T07:29:51Z</time>
      </trkpt>
      <trkpt lat="41.306197196245193" lon="1.613740911707282">
        <ele>175.60000610351562</ele>
        <time>2018-12-29T07:29:53Z</time>
      </trkpt>
      <trkpt lat="41.3061916641891" lon="1.613623816519976">
        <ele>176.19999694824219</ele>
        <time>2018-12-29T07:29:55Z</time>
      </trkpt>
      <trkpt lat="41.306183114647865" lon="1.613505044952035">
        <ele>176.39999389648437</ele>
        <time>2018-12-29T07:29:57Z</time>
      </trkpt>
      <trkpt lat="41.306177750229836" lon="1.613445784896612">
        <ele>176.39999389648437</ele>
        <time>2018-12-29T07:29:58Z</time>
      </trkpt>
      <trkpt lat="41.306174648925662" lon="1.613385854288936">
        <ele>176.60000610351562</ele>
        <time>2018-12-29T07:29:59Z</time>
      </trkpt>
      <trkpt lat="41.306169452145696" lon="1.613265741616488">
        <ele>177</ele>
        <time>2018-12-29T07:30:01Z</time>
      </trkpt>
      <trkpt lat="41.306167189031839" lon="1.61320379935205">
        <ele>177.19999694824219</ele>
        <time>2018-12-29T07:30:02Z</time>
      </trkpt>
      <trkpt lat="41.306168027222157" lon="1.613142276182771">
        <ele>177.60000610351562</ele>
        <time>2018-12-29T07:30:03Z</time>
      </trkpt>
      <trkpt lat="41.306176409125328" lon="1.613021744415164">
        <ele>177.80000305175781</ele>
        <time>2018-12-29T07:30:05Z</time>
      </trkpt>
      <trkpt lat="41.306184371933341" lon="1.61289987154305">
        <ele>178.19999694824219</ele>
        <time>2018-12-29T07:30:07Z</time>
      </trkpt>
      <trkpt lat="41.306189149618149" lon="1.612775819376111">
        <ele>178.19999694824219</ele>
        <time>2018-12-29T07:30:09Z</time>
      </trkpt>
      <trkpt lat="41.306202225387096" lon="1.612648749724031">
        <ele>178.39999389648437</ele>
        <time>2018-12-29T07:30:11Z</time>
      </trkpt>
      <trkpt lat="41.30621655844152" lon="1.612517489120364">
        <ele>178.39999389648437</ele>
        <time>2018-12-29T07:30:13Z</time>
      </trkpt>
      <trkpt lat="41.306228376924992" lon="1.612384300678968">
        <ele>178.60000610351562</ele>
        <time>2018-12-29T07:30:15Z</time>
      </trkpt>
      <trkpt lat="41.306234830990434" lon="1.612318670377135">
        <ele>178.60000610351562</ele>
        <time>2018-12-29T07:30:16Z</time>
      </trkpt>
      <trkpt lat="41.306240614503622" lon="1.612253542989492">
        <ele>178.80000305175781</ele>
        <time>2018-12-29T07:30:17Z</time>
      </trkpt>
      <trkpt lat="41.30624832585454" lon="1.612123623490334">
        <ele>179</ele>
        <time>2018-12-29T07:30:19Z</time>
      </trkpt>
      <trkpt lat="41.306258216500282" lon="1.611991105601192">
        <ele>179.19999694824219</ele>
        <time>2018-12-29T07:30:21Z</time>
      </trkpt>
      <trkpt lat="41.306270705536008" lon="1.61185909062624">
        <ele>179.19999694824219</ele>
        <time>2018-12-29T07:30:23Z</time>
      </trkpt>
      <trkpt lat="41.306282104924321" lon="1.611732020974159">
        <ele>179.39999389648437</ele>
        <time>2018-12-29T07:30:25Z</time>
      </trkpt>
      <trkpt lat="41.306287301704288" lon="1.611668821424246">
        <ele>179.39999389648437</ele>
        <time>2018-12-29T07:30:26Z</time>
      </trkpt>
      <trkpt lat="41.306293169036508" lon="1.611605873331428">
        <ele>179.60000610351562</ele>
        <time>2018-12-29T07:30:27Z</time>
      </trkpt>
      <trkpt lat="41.306304400786757" lon="1.611479809507728">
        <ele>180</ele>
        <time>2018-12-29T07:30:29Z</time>
      </trkpt>
      <trkpt lat="41.30631479434669" lon="1.611357014626265">
        <ele>180.19999694824219</ele>
        <time>2018-12-29T07:30:31Z</time>
      </trkpt>
      <trkpt lat="41.30632015876472" lon="1.611294988542795">
        <ele>180.19999694824219</ele>
        <time>2018-12-29T07:30:32Z</time>
      </trkpt>
      <trkpt lat="41.306326193735003" lon="1.61123363301158">
        <ele>180.39999389648437</ele>
        <time>2018-12-29T07:30:33Z</time>
      </trkpt>
      <trkpt lat="41.30633776076138" lon="1.611112430691719">
        <ele>180.39999389648437</ele>
        <time>2018-12-29T07:30:35Z</time>
      </trkpt>
      <trkpt lat="41.306343544274569" lon="1.611051158979535">
        <ele>180.60000610351562</ele>
        <time>2018-12-29T07:30:36Z</time>
      </trkpt>
      <trkpt lat="41.306347148492932" lon="1.610989887267351">
        <ele>180.60000610351562</ele>
        <time>2018-12-29T07:30:37Z</time>
      </trkpt>
      <trkpt lat="41.306351842358708" lon="1.610873294994235">
        <ele>180.80000305175781</ele>
        <time>2018-12-29T07:30:39Z</time>
      </trkpt>
      <trkpt lat="41.306353770196438" lon="1.610756451264024">
        <ele>181</ele>
        <time>2018-12-29T07:30:41Z</time>
      </trkpt>
      <trkpt lat="41.306361397728324" lon="1.610634243115783">
        <ele>181.19999694824219</ele>
        <time>2018-12-29T07:30:43Z</time>
      </trkpt>
      <trkpt lat="41.306363744661212" lon="1.610571965575218">
        <ele>181.39999389648437</ele>
        <time>2018-12-29T07:30:44Z</time>
      </trkpt>
      <trkpt lat="41.306366343051195" lon="1.610513040795922">
        <ele>181.60000610351562</ele>
        <time>2018-12-29T07:30:45Z</time>
      </trkpt>
      <trkpt lat="41.306364247575402" lon="1.61045428365469">
        <ele>181.60000610351562</ele>
        <time>2018-12-29T07:30:46Z</time>
      </trkpt>
      <trkpt lat="41.306356200948358" lon="1.610397202894092">
        <ele>181.80000305175781</ele>
        <time>2018-12-29T07:30:47Z</time>
      </trkpt>
      <trkpt lat="41.306325439363718" lon="1.610291758552194">
        <ele>182</ele>
        <time>2018-12-29T07:30:49Z</time>
      </trkpt>
      <trkpt lat="41.306305574253201" lon="1.61023392342031">
        <ele>182</ele>
        <time>2018-12-29T07:30:50Z</time>
      </trkpt>
      <trkpt lat="41.306279087439179" lon="1.610172064974904">
        <ele>181.39999389648437</ele>
        <time>2018-12-29T07:30:51Z</time>
      </trkpt>
      <trkpt lat="41.306231897324324" lon="1.610024040564895">
        <ele>180.39999389648437</ele>
        <time>2018-12-29T07:30:53Z</time>
      </trkpt>
      <trkpt lat="41.306214714422822" lon="1.609946005046368">
        <ele>180</ele>
        <time>2018-12-29T07:30:54Z</time>
      </trkpt>
      <trkpt lat="41.306197615340352" lon="1.609867801889777">
        <ele>179.60000610351562</ele>
        <time>2018-12-29T07:30:55Z</time>
      </trkpt>
      <trkpt lat="41.306155202910304" lon="1.609709551557899">
        <ele>179</ele>
        <time>2018-12-29T07:30:57Z</time>
      </trkpt>
      <trkpt lat="41.306110611185431" lon="1.609540404751897">
        <ele>178.39999389648437</ele>
        <time>2018-12-29T07:30:59Z</time>
      </trkpt>
      <trkpt lat="41.306062079966068" lon="1.6093675699085">
        <ele>177.60000610351562</ele>
        <time>2018-12-29T07:31:01Z</time>
      </trkpt>
      <trkpt lat="41.306005669757724" lon="1.609186939895153">
        <ele>177</ele>
        <time>2018-12-29T07:31:03Z</time>
      </trkpt>
      <trkpt lat="41.305954121053219" lon="1.609002705663443">
        <ele>176.60000610351562</ele>
        <time>2018-12-29T07:31:05Z</time>
      </trkpt>
      <trkpt lat="41.30592679604888" lon="1.60890681669116">
        <ele>176.19999694824219</ele>
        <time>2018-12-29T07:31:06Z</time>
      </trkpt>
      <trkpt lat="41.305900728330016" lon="1.608810089528561">
        <ele>176</ele>
        <time>2018-12-29T07:31:07Z</time>
      </trkpt>
      <trkpt lat="41.305847084149718" lon="1.608618563041091">
        <ele>175.80000305175781</ele>
        <time>2018-12-29T07:31:09Z</time>
      </trkpt>
      <trkpt lat="41.305821686983109" lon="1.608523596078157">
        <ele>175.39999389648437</ele>
        <time>2018-12-29T07:31:10Z</time>
      </trkpt>
      <trkpt lat="41.305795786902308" lon="1.608431059867144">
        <ele>175.39999389648437</ele>
        <time>2018-12-29T07:31:11Z</time>
      </trkpt>
      <trkpt lat="41.30575044080615" lon="1.608248166739941">
        <ele>175.19999694824219</ele>
        <time>2018-12-29T07:31:13Z</time>
      </trkpt>
      <trkpt lat="41.305707860738039" lon="1.608064854517579">
        <ele>174.80000305175781</ele>
        <time>2018-12-29T07:31:15Z</time>
      </trkpt>
      <trkpt lat="41.305667040869594" lon="1.607884811237454">
        <ele>174.80000305175781</ele>
        <time>2018-12-29T07:31:17Z</time>
      </trkpt>
      <trkpt lat="41.305628567934036" lon="1.607706528156996">
        <ele>174.60000610351562</ele>
        <time>2018-12-29T07:31:19Z</time>
      </trkpt>
      <trkpt lat="41.305595375597477" lon="1.607536040246487">
        <ele>174.60000610351562</ele>
        <time>2018-12-29T07:31:21Z</time>
      </trkpt>
      <trkpt lat="41.305564697831869" lon="1.607367480173707">
        <ele>174.60000610351562</ele>
        <time>2018-12-29T07:31:23Z</time>
      </trkpt>
      <trkpt lat="41.305548939853907" lon="1.607283828780055">
        <ele>174.60000610351562</ele>
        <time>2018-12-29T07:31:24Z</time>
      </trkpt>
      <trkpt lat="41.305531170219183" lon="1.607201518490911">
        <ele>174.60000610351562</ele>
        <time>2018-12-29T07:31:25Z</time>
      </trkpt>
      <trkpt lat="41.305492362007499" lon="1.607038155198097">
        <ele>174.39999389648437</ele>
        <time>2018-12-29T07:31:27Z</time>
      </trkpt>
      <trkpt lat="41.30545187741518" lon="1.606880659237504">
        <ele>174.39999389648437</ele>
        <time>2018-12-29T07:31:29Z</time>
      </trkpt>
      <trkpt lat="41.305412063375115" lon="1.606722241267562">
        <ele>174.39999389648437</ele>
        <time>2018-12-29T07:31:31Z</time>
      </trkpt>
      <trkpt lat="41.305393036454916" lon="1.606643283739686">
        <ele>174.39999389648437</ele>
        <time>2018-12-29T07:31:32Z</time>
      </trkpt>
      <trkpt lat="41.305375769734383" lon="1.606566505506635">
        <ele>174.39999389648437</ele>
        <time>2018-12-29T07:31:33Z</time>
      </trkpt>
      <trkpt lat="41.305339811369777" lon="1.606416050344706">
        <ele>174.39999389648437</ele>
        <time>2018-12-29T07:31:35Z</time>
      </trkpt>
      <trkpt lat="41.305303769186139" lon="1.606268528848887">
        <ele>174.60000610351562</ele>
        <time>2018-12-29T07:31:37Z</time>
      </trkpt>
      <trkpt lat="41.305260686203837" lon="1.606125617399812">
        <ele>174.80000305175781</ele>
        <time>2018-12-29T07:31:39Z</time>
      </trkpt>
      <trkpt lat="41.305241910740733" lon="1.606059484183788">
        <ele>174.80000305175781</ele>
        <time>2018-12-29T07:31:40Z</time>
      </trkpt>
      <trkpt lat="41.305223973467946" lon="1.605990584939718">
        <ele>174.80000305175781</ele>
        <time>2018-12-29T07:31:41Z</time>
      </trkpt>
      <trkpt lat="41.305196564644575" lon="1.605841303244233">
        <ele>174.60000610351562</ele>
        <time>2018-12-29T07:31:43Z</time>
      </trkpt>
      <trkpt lat="41.305170496925712" lon="1.605689004063606">
        <ele>174.39999389648437</ele>
        <time>2018-12-29T07:31:45Z</time>
      </trkpt>
      <trkpt lat="41.305156582966447" lon="1.605613064020872">
        <ele>174.19999694824219</ele>
        <time>2018-12-29T07:31:46Z</time>
      </trkpt>
      <trkpt lat="41.305141663178802" lon="1.605534693226218">
        <ele>174.19999694824219</ele>
        <time>2018-12-29T07:31:47Z</time>
      </trkpt>
      <trkpt lat="41.305108219385147" lon="1.605374682694674">
        <ele>174</ele>
        <time>2018-12-29T07:31:49Z</time>
      </trkpt>
      <trkpt lat="41.305073518306017" lon="1.605218779295683">
        <ele>173.80000305175781</ele>
        <time>2018-12-29T07:31:51Z</time>
      </trkpt>
      <trkpt lat="41.305033201351762" lon="1.605066228657961">
        <ele>173.80000305175781</ele>
        <time>2018-12-29T07:31:53Z</time>
      </trkpt>
      <trkpt lat="41.305014593526721" lon="1.604989366605878">
        <ele>173.60000610351562</ele>
        <time>2018-12-29T07:31:54Z</time>
      </trkpt>
      <trkpt lat="41.304994057863951" lon="1.604916863143444">
        <ele>173.60000610351562</ele>
        <time>2018-12-29T07:31:55Z</time>
      </trkpt>
      <trkpt lat="41.304963380098343" lon="1.604853663593531">
        <ele>173.60000610351562</ele>
        <time>2018-12-29T07:31:56Z</time>
      </trkpt>
      <trkpt lat="41.304927254095674" lon="1.604795912280679">
        <ele>173.60000610351562</ele>
        <time>2018-12-29T07:31:57Z</time>
      </trkpt>
      <trkpt lat="41.304887942969799" lon="1.604738077148795">
        <ele>173.60000610351562</ele>
        <time>2018-12-29T07:31:58Z</time>
      </trkpt>
      <trkpt lat="41.304848799481988" lon="1.604678397998214">
        <ele>173.60000610351562</ele>
        <time>2018-12-29T07:31:59Z</time>
      </trkpt>
      <trkpt lat="41.304769171401858" lon="1.60456289537251">
        <ele>173.80000305175781</ele>
        <time>2018-12-29T07:32:01Z</time>
      </trkpt>
      <trkpt lat="41.304696500301361" lon="1.604458037763834">
        <ele>174</ele>
        <time>2018-12-29T07:32:03Z</time>
      </trkpt>
      <trkpt lat="41.304630450904369" lon="1.60436742939055">
        <ele>174.19999694824219</ele>
        <time>2018-12-29T07:32:05Z</time>
      </trkpt>
      <trkpt lat="41.304593570530415" lon="1.604328453540802">
        <ele>174.19999694824219</ele>
        <time>2018-12-29T07:32:06Z</time>
      </trkpt>
      <trkpt lat="41.304553840309381" lon="1.604286963120103">
        <ele>174.19999694824219</ele>
        <time>2018-12-29T07:32:07Z</time>
      </trkpt>
      <trkpt lat="41.304516959935427" lon="1.604239102452993">
        <ele>174.19999694824219</ele>
        <time>2018-12-29T07:32:08Z</time>
      </trkpt>
      <trkpt lat="41.304484270513058" lon="1.604186547920108">
        <ele>174.39999389648437</ele>
        <time>2018-12-29T07:32:09Z</time>
      </trkpt>
      <trkpt lat="41.30445166490972" lon="1.604132987558842">
        <ele>174.39999389648437</ele>
        <time>2018-12-29T07:32:10Z</time>
      </trkpt>
      <trkpt lat="41.304420148953795" lon="1.604076158255339">
        <ele>174.39999389648437</ele>
        <time>2018-12-29T07:32:11Z</time>
      </trkpt>
      <trkpt lat="41.304354434832931" lon="1.603967612609267">
        <ele>174.39999389648437</ele>
        <time>2018-12-29T07:32:13Z</time>
      </trkpt>
      <trkpt lat="41.304288385435939" lon="1.603853618726134">
        <ele>174.39999389648437</ele>
        <time>2018-12-29T07:32:15Z</time>
      </trkpt>
      <trkpt lat="41.304219905287027" lon="1.603739038109779">
        <ele>174.39999389648437</ele>
        <time>2018-12-29T07:32:17Z</time>
      </trkpt>
      <trkpt lat="41.304183276370168" lon="1.603684974834323">
        <ele>174.60000610351562</ele>
        <time>2018-12-29T07:32:18Z</time>
      </trkpt>
      <trkpt lat="41.304147820919752" lon="1.603631917387247">
        <ele>174.60000610351562</ele>
        <time>2018-12-29T07:32:19Z</time>
      </trkpt>
      <trkpt lat="41.304078921675682" lon="1.603527059778571">
        <ele>174.80000305175781</ele>
        <time>2018-12-29T07:32:21Z</time>
      </trkpt>
      <trkpt lat="41.30401723086834" lon="1.603423207998276">
        <ele>175</ele>
        <time>2018-12-29T07:32:23Z</time>
      </trkpt>
      <trkpt lat="41.30395227111876" lon="1.603324050083756">
        <ele>175.60000610351562</ele>
        <time>2018-12-29T07:32:25Z</time>
      </trkpt>
      <trkpt lat="41.303887059912086" lon="1.603226149454713">
        <ele>176</ele>
        <time>2018-12-29T07:32:27Z</time>
      </trkpt>
      <trkpt lat="41.30382084287703" lon="1.603125985711813">
        <ele>176.39999389648437</ele>
        <time>2018-12-29T07:32:29Z</time>
      </trkpt>
      <trkpt lat="41.303754458203912" lon="1.603027163073421">
        <ele>176.60000610351562</ele>
        <time>2018-12-29T07:32:31Z</time>
      </trkpt>
      <trkpt lat="41.303689917549491" lon="1.602932447567582">
        <ele>176.80000305175781</ele>
        <time>2018-12-29T07:32:33Z</time>
      </trkpt>
      <trkpt lat="41.30362487398088" lon="1.602841839194298">
        <ele>177.19999694824219</ele>
        <time>2018-12-29T07:32:35Z</time>
      </trkpt>
      <trkpt lat="41.30356133915484" lon="1.602748967707157">
        <ele>177.60000610351562</ele>
        <time>2018-12-29T07:32:37Z</time>
      </trkpt>
      <trkpt lat="41.303530661389232" lon="1.602703034877777">
        <ele>177.80000305175781</ele>
        <time>2018-12-29T07:32:38Z</time>
      </trkpt>
      <trkpt lat="41.303496714681387" lon="1.60265626385808">
        <ele>178</ele>
        <time>2018-12-29T07:32:39Z</time>
      </trkpt>
      <trkpt lat="41.303426977247" lon="1.602565655484796">
        <ele>178.39999389648437</ele>
        <time>2018-12-29T07:32:41Z</time>
      </trkpt>
      <trkpt lat="41.303360927850008" lon="1.602470856159926">
        <ele>178.80000305175781</ele>
        <time>2018-12-29T07:32:43Z</time>
      </trkpt>
      <trkpt lat="41.303328992798924" lon="1.602424252778292">
        <ele>179</ele>
        <time>2018-12-29T07:32:44Z</time>
      </trkpt>
      <trkpt lat="41.303299656137824" lon="1.602376224473119">
        <ele>179.19999694824219</ele>
        <time>2018-12-29T07:32:45Z</time>
      </trkpt>
      <trkpt lat="41.303240898996592" lon="1.602279245853424">
        <ele>179.60000610351562</ele>
        <time>2018-12-29T07:32:47Z</time>
      </trkpt>
      <trkpt lat="41.303211143240333" lon="1.602230379357934">
        <ele>179.60000610351562</ele>
        <time>2018-12-29T07:32:48Z</time>
      </trkpt>
      <trkpt lat="41.303182560950518" lon="1.602182351052761">
        <ele>179.80000305175781</ele>
        <time>2018-12-29T07:32:49Z</time>
      </trkpt>
      <trkpt lat="41.303154649212956" lon="1.602132227271795">
        <ele>180</ele>
        <time>2018-12-29T07:32:50Z</time>
      </trkpt>
      <trkpt lat="41.303103603422642" lon="1.602027118206024">
        <ele>180.80000305175781</ele>
        <time>2018-12-29T07:32:52Z</time>
      </trkpt>
      <trkpt lat="41.303063537925482" lon="1.601919746026397">
        <ele>181.19999694824219</ele>
        <time>2018-12-29T07:32:54Z</time>
      </trkpt>
      <trkpt lat="41.303033530712128" lon="1.601804913952947">
        <ele>181.60000610351562</ele>
        <time>2018-12-29T07:32:56Z</time>
      </trkpt>
      <trkpt lat="41.303016515448689" lon="1.60169024951756">
        <ele>182</ele>
        <time>2018-12-29T07:32:58Z</time>
      </trkpt>
      <trkpt lat="41.303008385002613" lon="1.601631995290518">
        <ele>182.19999694824219</ele>
        <time>2018-12-29T07:32:59Z</time>
      </trkpt>
      <trkpt lat="41.30299941636622" lon="1.601571310311556">
        <ele>182.39999389648437</ele>
        <time>2018-12-29T07:33:00Z</time>
      </trkpt>
      <trkpt lat="41.302984496578574" lon="1.601449269801378">
        <ele>182.80000305175781</ele>
        <time>2018-12-29T07:33:02Z</time>
      </trkpt>
      <trkpt lat="41.302978293970227" lon="1.601387662813067">
        <ele>182.60000610351562</ele>
        <time>2018-12-29T07:33:03Z</time>
      </trkpt>
      <trkpt lat="41.302971756085753" lon="1.601326642557979">
        <ele>182.60000610351562</ele>
        <time>2018-12-29T07:33:04Z</time>
      </trkpt>
      <trkpt lat="41.302957758307457" lon="1.601200411096215">
        <ele>183</ele>
        <time>2018-12-29T07:33:06Z</time>
      </trkpt>
      <trkpt lat="41.302950549870729" lon="1.601138468831778">
        <ele>183.19999694824219</ele>
        <time>2018-12-29T07:33:07Z</time>
      </trkpt>
      <trkpt lat="41.302943341434002" lon="1.601074011996388">
        <ele>183.19999694824219</ele>
        <time>2018-12-29T07:33:08Z</time>
      </trkpt>
      <trkpt lat="41.302929427474737" lon="1.600946607068181">
        <ele>183.19999694824219</ele>
        <time>2018-12-29T07:33:10Z</time>
      </trkpt>
      <trkpt lat="41.302919453009963" lon="1.600819537416101">
        <ele>183.60000610351562</ele>
        <time>2018-12-29T07:33:12Z</time>
      </trkpt>
      <trkpt lat="41.302906209602952" lon="1.60069196484983">
        <ele>183.80000305175781</ele>
        <time>2018-12-29T07:33:14Z</time>
      </trkpt>
      <trkpt lat="41.302896570414305" lon="1.600629603490233">
        <ele>184</ele>
        <time>2018-12-29T07:33:15Z</time>
      </trkpt>
      <trkpt lat="41.302887517958879" lon="1.600565565750003">
        <ele>184</ele>
        <time>2018-12-29T07:33:16Z</time>
      </trkpt>
      <trkpt lat="41.302876956760883" lon="1.600500270724297">
        <ele>184.19999694824219</ele>
        <time>2018-12-29T07:33:17Z</time>
      </trkpt>
      <trkpt lat="41.302863042801619" lon="1.600435562431812">
        <ele>184.19999694824219</ele>
        <time>2018-12-29T07:33:18Z</time>
      </trkpt>
      <trkpt lat="41.302830604836345" lon="1.60031134262681">
        <ele>184.60000610351562</ele>
        <time>2018-12-29T07:33:20Z</time>
      </trkpt>
      <trkpt lat="41.302811242640018" lon="1.600254848599434">
        <ele>184.80000305175781</ele>
        <time>2018-12-29T07:33:21Z</time>
      </trkpt>
      <trkpt lat="41.302788192406297" lon="1.600201204419136">
        <ele>185</ele>
        <time>2018-12-29T07:33:22Z</time>
      </trkpt>
      <trkpt lat="41.302723065018654" lon="1.600101375952363">
        <ele>185</ele>
        <time>2018-12-29T07:33:24Z</time>
      </trkpt>
      <trkpt lat="41.302685430273414" lon="1.600060220807791">
        <ele>185</ele>
        <time>2018-12-29T07:33:25Z</time>
      </trkpt>
      <trkpt lat="41.302647544071078" lon="1.600018311291933">
        <ele>185.19999694824219</ele>
        <time>2018-12-29T07:33:26Z</time>
      </trkpt>
      <trkpt lat="41.302612004801631" lon="1.599974473938346">
        <ele>185.39999389648437</ele>
        <time>2018-12-29T07:33:27Z</time>
      </trkpt>
      <trkpt lat="41.302575711160898" lon="1.599931474775076">
        <ele>185.39999389648437</ele>
        <time>2018-12-29T07:33:28Z</time>
      </trkpt>
      <trkpt lat="41.302502453327179" lon="1.599843967705965">
        <ele>185.60000610351562</ele>
        <time>2018-12-29T07:33:30Z</time>
      </trkpt>
      <trkpt lat="41.302433721721172" lon="1.599755203351378">
        <ele>186</ele>
        <time>2018-12-29T07:33:32Z</time>
      </trkpt>
      <trkpt lat="41.302373372018337" lon="1.599660236388445">
        <ele>186.19999694824219</ele>
        <time>2018-12-29T07:33:34Z</time>
      </trkpt>
      <trkpt lat="41.302311094477773" lon="1.59956568852067">
        <ele>186.39999389648437</ele>
        <time>2018-12-29T07:33:36Z</time>
      </trkpt>
      <trkpt lat="41.302283937111497" lon="1.599515145644546">
        <ele>186.39999389648437</ele>
        <time>2018-12-29T07:33:37Z</time>
      </trkpt>
      <trkpt lat="41.302257953211665" lon="1.599463345482945">
        <ele>186.60000610351562</ele>
        <time>2018-12-29T07:33:38Z</time>
      </trkpt>
      <trkpt lat="41.302208416163921" lon="1.599354967474937">
        <ele>186.80000305175781</ele>
        <time>2018-12-29T07:33:40Z</time>
      </trkpt>
      <trkpt lat="41.302168099209666" lon="1.599236950278282">
        <ele>187.19999694824219</ele>
        <time>2018-12-29T07:33:42Z</time>
      </trkpt>
      <trkpt lat="41.302137756720185" lon="1.599118849262595">
        <ele>187.60000610351562</ele>
        <time>2018-12-29T07:33:44Z</time>
      </trkpt>
      <trkpt lat="41.302111186087132" lon="1.59900326281786">
        <ele>187.80000305175781</ele>
        <time>2018-12-29T07:33:46Z</time>
      </trkpt>
      <trkpt lat="41.30208226852119" lon="1.598887424916029">
        <ele>188</ele>
        <time>2018-12-29T07:33:48Z</time>
      </trkpt>
      <trkpt lat="41.302046477794647" lon="1.598774017766118">
        <ele>188.60000610351562</ele>
        <time>2018-12-29T07:33:50Z</time>
      </trkpt>
      <trkpt lat="41.302014542743564" lon="1.5986592695117">
        <ele>188.80000305175781</ele>
        <time>2018-12-29T07:33:52Z</time>
      </trkpt>
      <trkpt lat="41.302000628784299" lon="1.59860210493207">
        <ele>189</ele>
        <time>2018-12-29T07:33:53Z</time>
      </trkpt>
      <trkpt lat="41.301988139748573" lon="1.598542677238584">
        <ele>189</ele>
        <time>2018-12-29T07:33:54Z</time>
      </trkpt>
      <trkpt lat="41.301967352628708" lon="1.598428515717387">
        <ele>189.39999389648437</ele>
        <time>2018-12-29T07:33:56Z</time>
      </trkpt>
      <trkpt lat="41.301962239667773" lon="1.598374620079994">
        <ele>189.80000305175781</ele>
        <time>2018-12-29T07:33:57Z</time>
      </trkpt>
      <trkpt lat="41.301955617964268" lon="1.598320724442601">
        <ele>190</ele>
        <time>2018-12-29T07:33:58Z</time>
      </trkpt>
      <trkpt lat="41.301943883299828" lon="1.598215531557798">
        <ele>190.60000610351562</ele>
        <time>2018-12-29T07:34:00Z</time>
      </trkpt>
      <trkpt lat="41.301937261596322" lon="1.598163060843945">
        <ele>190.80000305175781</ele>
        <time>2018-12-29T07:34:01Z</time>
      </trkpt>
      <trkpt lat="41.301928879693151" lon="1.598110254853964">
        <ele>191</ele>
        <time>2018-12-29T07:34:02Z</time>
      </trkpt>
      <trkpt lat="41.3019142113626" lon="1.5980064868927">
        <ele>191.80000305175781</ele>
        <time>2018-12-29T07:34:04Z</time>
      </trkpt>
      <trkpt lat="41.301905745640397" lon="1.597952842712402">
        <ele>192</ele>
        <time>2018-12-29T07:34:05Z</time>
      </trkpt>
      <trkpt lat="41.301900297403336" lon="1.597898192703724">
        <ele>192.19999694824219</ele>
        <time>2018-12-29T07:34:06Z</time>
      </trkpt>
      <trkpt lat="41.301891496405005" lon="1.597790233790875">
        <ele>192.80000305175781</ele>
        <time>2018-12-29T07:34:08Z</time>
      </trkpt>
      <trkpt lat="41.301887389272451" lon="1.59773625433445">
        <ele>193</ele>
        <time>2018-12-29T07:34:09Z</time>
      </trkpt>
      <trkpt lat="41.301881605759263" lon="1.597685124725103">
        <ele>193.19999694824219</ele>
        <time>2018-12-29T07:34:10Z</time>
      </trkpt>
      <trkpt lat="41.301875067874789" lon="1.597638018429279">
        <ele>193.39999389648437</ele>
        <time>2018-12-29T07:34:11Z</time>
      </trkpt>
      <trkpt lat="41.301868781447411" lon="1.597588816657662">
        <ele>193.80000305175781</ele>
        <time>2018-12-29T07:34:12Z</time>
      </trkpt>
      <trkpt lat="41.301858639344573" lon="1.597484461963177">
        <ele>194.39999389648437</ele>
        <time>2018-12-29T07:34:14Z</time>
      </trkpt>
      <trkpt lat="41.301846820861101" lon="1.597383711487055">
        <ele>194.80000305175781</ele>
        <time>2018-12-29T07:34:16Z</time>
      </trkpt>
      <trkpt lat="41.301842629909515" lon="1.597273824736476">
        <ele>195.39999389648437</ele>
        <time>2018-12-29T07:34:18Z</time>
      </trkpt>
      <trkpt lat="41.301841624081135" lon="1.597217163071036">
        <ele>195.80000305175781</ele>
        <time>2018-12-29T07:34:19Z</time>
      </trkpt>
      <trkpt lat="41.301839780062437" lon="1.597161507233977">
        <ele>196</ele>
        <time>2018-12-29T07:34:20Z</time>
      </trkpt>
      <trkpt lat="41.301821256056428" lon="1.597058745101094">
        <ele>196.80000305175781</ele>
        <time>2018-12-29T07:34:22Z</time>
      </trkpt>
      <trkpt lat="41.301793260499835" lon="1.596950618550181">
        <ele>197</ele>
        <time>2018-12-29T07:34:24Z</time>
      </trkpt>
      <trkpt lat="41.301775155588984" lon="1.596896639093757">
        <ele>197</ele>
        <time>2018-12-29T07:34:25Z</time>
      </trkpt>
      <trkpt lat="41.301755541935563" lon="1.596845090389252">
        <ele>197</ele>
        <time>2018-12-29T07:34:26Z</time>
      </trkpt>
      <trkpt lat="41.301712710410357" lon="1.596739729866386">
        <ele>197</ele>
        <time>2018-12-29T07:34:28Z</time>
      </trkpt>
      <trkpt lat="41.301667531952262" lon="1.596631519496441">
        <ele>197.19999694824219</ele>
        <time>2018-12-29T07:34:30Z</time>
      </trkpt>
      <trkpt lat="41.301644314080477" lon="1.596579635515809">
        <ele>197.19999694824219</ele>
        <time>2018-12-29T07:34:31Z</time>
      </trkpt>
      <trkpt lat="41.301621934399009" lon="1.596530182287097">
        <ele>197.19999694824219</ele>
        <time>2018-12-29T07:34:32Z</time>
      </trkpt>
      <trkpt lat="41.301574409008026" lon="1.596429599449039">
        <ele>197.19999694824219</ele>
        <time>2018-12-29T07:34:34Z</time>
      </trkpt>
      <trkpt lat="41.301523027941585" lon="1.596323736011982">
        <ele>196.80000305175781</ele>
        <time>2018-12-29T07:34:36Z</time>
      </trkpt>
      <trkpt lat="41.301499893888831" lon="1.596270259469748">
        <ele>196.60000610351562</ele>
        <time>2018-12-29T07:34:37Z</time>
      </trkpt>
      <trkpt lat="41.30147784948349" lon="1.596214100718498">
        <ele>196.60000610351562</ele>
        <time>2018-12-29T07:34:38Z</time>
      </trkpt>
      <trkpt lat="41.301459660753608" lon="1.596152577549219">
        <ele>196.60000610351562</ele>
        <time>2018-12-29T07:34:39Z</time>
      </trkpt>
      <trkpt lat="41.301443483680487" lon="1.596089377999306">
        <ele>196.60000610351562</ele>
        <time>2018-12-29T07:34:40Z</time>
      </trkpt>
      <trkpt lat="41.301432754844427" lon="1.596027603372932">
        <ele>196.39999389648437</ele>
        <time>2018-12-29T07:34:41Z</time>
      </trkpt>
      <trkpt lat="41.301424540579319" lon="1.595966666936874">
        <ele>196.39999389648437</ele>
        <time>2018-12-29T07:34:42Z</time>
      </trkpt>
      <trkpt lat="41.301414566114545" lon="1.595845296978951">
        <ele>196.39999389648437</ele>
        <time>2018-12-29T07:34:44Z</time>
      </trkpt>
      <trkpt lat="41.301414230838418" lon="1.595788383856416">
        <ele>196.60000610351562</ele>
        <time>2018-12-29T07:34:45Z</time>
      </trkpt>
      <trkpt lat="41.301415571942925" lon="1.595729626715183">
        <ele>196.80000305175781</ele>
        <time>2018-12-29T07:34:46Z</time>
      </trkpt>
      <trkpt lat="41.301423786208034" lon="1.595611274242401">
        <ele>196.80000305175781</ele>
        <time>2018-12-29T07:34:48Z</time>
      </trkpt>
      <trkpt lat="41.30143828690052" lon="1.595487222075462">
        <ele>196.80000305175781</ele>
        <time>2018-12-29T07:34:50Z</time>
      </trkpt>
      <trkpt lat="41.301457649096847" lon="1.595365097746253">
        <ele>197.19999694824219</ele>
        <time>2018-12-29T07:34:52Z</time>
      </trkpt>
      <trkpt lat="41.301486231386662" lon="1.595248505473137">
        <ele>197.39999389648437</ele>
        <time>2018-12-29T07:34:54Z</time>
      </trkpt>
      <trkpt lat="41.301519926637411" lon="1.59513384103775">
        <ele>197.60000610351562</ele>
        <time>2018-12-29T07:34:56Z</time>
      </trkpt>
      <trkpt lat="41.301539037376642" lon="1.595077263191342">
        <ele>197.80000305175781</ele>
        <time>2018-12-29T07:34:57Z</time>
      </trkpt>
      <trkpt lat="41.301555885002017" lon="1.595020433887839">
        <ele>197.80000305175781</ele>
        <time>2018-12-29T07:34:58Z</time>
      </trkpt>
      <trkpt lat="41.301573486998677" lon="1.594963436946273">
        <ele>198</ele>
        <time>2018-12-29T07:34:59Z</time>
      </trkpt>
      <trkpt lat="41.30159217864275" lon="1.594907529652119">
        <ele>198</ele>
        <time>2018-12-29T07:35:00Z</time>
      </trkpt>
      <trkpt lat="41.301624616608024" lon="1.594794122502208">
        <ele>198.19999694824219</ele>
        <time>2018-12-29T07:35:02Z</time>
      </trkpt>
      <trkpt lat="41.301655378192663" lon="1.594676859676838">
        <ele>198.39999389648437</ele>
        <time>2018-12-29T07:35:04Z</time>
      </trkpt>
      <trkpt lat="41.301682367920876" lon="1.594557585194707">
        <ele>198.80000305175781</ele>
        <time>2018-12-29T07:35:06Z</time>
      </trkpt>
      <trkpt lat="41.301698964089155" lon="1.594437891617417">
        <ele>198.80000305175781</ele>
        <time>2018-12-29T07:35:08Z</time>
      </trkpt>
      <trkpt lat="41.301717571914196" lon="1.594317778944969">
        <ele>199.19999694824219</ele>
        <time>2018-12-29T07:35:10Z</time>
      </trkpt>
      <trkpt lat="41.301736095920205" lon="1.594194564968348">
        <ele>199.19999694824219</ele>
        <time>2018-12-29T07:35:12Z</time>
      </trkpt>
      <trkpt lat="41.301758643239737" lon="1.594066573306918">
        <ele>199.39999389648437</ele>
        <time>2018-12-29T07:35:14Z</time>
      </trkpt>
      <trkpt lat="41.301776245236397" lon="1.593939168378711">
        <ele>199.80000305175781</ele>
        <time>2018-12-29T07:35:16Z</time>
      </trkpt>
      <trkpt lat="41.301783286035061" lon="1.593875549733639">
        <ele>199.80000305175781</ele>
        <time>2018-12-29T07:35:17Z</time>
      </trkpt>
      <trkpt lat="41.301787057891488" lon="1.593811847269535">
        <ele>200</ele>
        <time>2018-12-29T07:35:18Z</time>
      </trkpt>
      <trkpt lat="41.301787812262774" lon="1.593678658828139">
        <ele>200</ele>
        <time>2018-12-29T07:35:20Z</time>
      </trkpt>
      <trkpt lat="41.30178957246244" lon="1.593548152595758">
        <ele>200</ele>
        <time>2018-12-29T07:35:22Z</time>
      </trkpt>
      <trkpt lat="41.301788063719869" lon="1.593411024659872">
        <ele>199.80000305175781</ele>
        <time>2018-12-29T07:35:24Z</time>
      </trkpt>
      <trkpt lat="41.301778256893158" lon="1.59327507019043">
        <ele>199.80000305175781</ele>
        <time>2018-12-29T07:35:26Z</time>
      </trkpt>
      <trkpt lat="41.301771132275462" lon="1.593140289187431">
        <ele>199.80000305175781</ele>
        <time>2018-12-29T07:35:28Z</time>
      </trkpt>
      <trkpt lat="41.301766019314528" lon="1.593008944764733">
        <ele>199.80000305175781</ele>
        <time>2018-12-29T07:35:30Z</time>
      </trkpt>
      <trkpt lat="41.301759397611022" lon="1.592870643362403">
        <ele>199.80000305175781</ele>
        <time>2018-12-29T07:35:32Z</time>
      </trkpt>
      <trkpt lat="41.301756966859102" lon="1.592800738289952">
        <ele>199.60000610351562</ele>
        <time>2018-12-29T07:35:33Z</time>
      </trkpt>
      <trkpt lat="41.301755039021373" lon="1.592731503769755">
        <ele>199.60000610351562</ele>
        <time>2018-12-29T07:35:34Z</time>
      </trkpt>
      <trkpt lat="41.301746657118201" lon="1.592584401369095">
        <ele>199.60000610351562</ele>
        <time>2018-12-29T07:35:36Z</time>
      </trkpt>
      <trkpt lat="41.301726875826716" lon="1.59244048409164">
        <ele>199.19999694824219</ele>
        <time>2018-12-29T07:35:38Z</time>
      </trkpt>
      <trkpt lat="41.301712961867452" lon="1.592371165752411">
        <ele>199.19999694824219</ele>
        <time>2018-12-29T07:35:39Z</time>
      </trkpt>
      <trkpt lat="41.301699634641409" lon="1.592301847413182">
        <ele>199.39999389648437</ele>
        <time>2018-12-29T07:35:40Z</time>
      </trkpt>
      <trkpt lat="41.301673231646419" lon="1.592164048925042">
        <ele>199.60000610351562</ele>
        <time>2018-12-29T07:35:42Z</time>
      </trkpt>
      <trkpt lat="41.301649427041411" lon="1.592027172446251">
        <ele>199.80000305175781</ele>
        <time>2018-12-29T07:35:44Z</time>
      </trkpt>
      <trkpt lat="41.301624197512865" lon="1.591893564909697">
        <ele>200</ele>
        <time>2018-12-29T07:35:46Z</time>
      </trkpt>
      <trkpt lat="41.301602320745587" lon="1.591760376468301">
        <ele>200</ele>
        <time>2018-12-29T07:35:48Z</time>
      </trkpt>
      <trkpt lat="41.301579857245088" lon="1.591617967933416">
        <ele>199.60000610351562</ele>
        <time>2018-12-29T07:35:50Z</time>
      </trkpt>
      <trkpt lat="41.301549011841416" lon="1.59147790633142">
        <ele>199.39999389648437</ele>
        <time>2018-12-29T07:35:52Z</time>
      </trkpt>
      <trkpt lat="41.30149838514626" lon="1.591329127550125">
        <ele>199</ele>
        <time>2018-12-29T07:35:54Z</time>
      </trkpt>
      <trkpt lat="41.301468210294843" lon="1.591255366802216">
        <ele>198.80000305175781</ele>
        <time>2018-12-29T07:35:55Z</time>
      </trkpt>
      <trkpt lat="41.301437867805362" lon="1.591181354597211">
        <ele>198.60000610351562</ele>
        <time>2018-12-29T07:35:56Z</time>
      </trkpt>
      <trkpt lat="41.301375422626734" lon="1.591027965769172">
        <ele>198</ele>
        <time>2018-12-29T07:35:58Z</time>
      </trkpt>
      <trkpt lat="41.301341895014048" lon="1.590949427336454">
        <ele>197.60000610351562</ele>
        <time>2018-12-29T07:35:59Z</time>
      </trkpt>
      <trkpt lat="41.301309540867805" lon="1.590869296342135">
        <ele>197.39999389648437</ele>
        <time>2018-12-29T07:36:00Z</time>
      </trkpt>
      <trkpt lat="41.301239300519228" lon="1.590709621086717">
        <ele>197</ele>
        <time>2018-12-29T07:36:02Z</time>
      </trkpt>
      <trkpt lat="41.301204431802034" lon="1.590627562254667">
        <ele>196.39999389648437</ele>
        <time>2018-12-29T07:36:03Z</time>
      </trkpt>
      <trkpt lat="41.301169898360968" lon="1.59054365940392">
        <ele>196</ele>
        <time>2018-12-29T07:36:04Z</time>
      </trkpt>
      <trkpt lat="41.301111644133925" lon="1.590375769883394">
        <ele>195.80000305175781</ele>
        <time>2018-12-29T07:36:06Z</time>
      </trkpt>
      <trkpt lat="41.301066968590021" lon="1.590204611420631">
        <ele>195.80000305175781</ele>
        <time>2018-12-29T07:36:08Z</time>
      </trkpt>
      <trkpt lat="41.301050204783678" lon="1.590118864551187">
        <ele>195.60000610351562</ele>
        <time>2018-12-29T07:36:09Z</time>
      </trkpt>
      <trkpt lat="41.301033524796367" lon="1.590033117681742">
        <ele>195.60000610351562</ele>
        <time>2018-12-29T07:36:10Z</time>
      </trkpt>
      <trkpt lat="41.301001170650125" lon="1.589859779924154">
        <ele>195.39999389648437</ele>
        <time>2018-12-29T07:36:12Z</time>
      </trkpt>
      <trkpt lat="41.300968648865819" lon="1.589690549299121">
        <ele>195.39999389648437</ele>
        <time>2018-12-29T07:36:14Z</time>
      </trkpt>
      <trkpt lat="41.300936043262482" lon="1.589519893750548">
        <ele>195.19999694824219</ele>
        <time>2018-12-29T07:36:16Z</time>
      </trkpt>
      <trkpt lat="41.300896815955639" lon="1.589350998401642">
        <ele>194.80000305175781</ele>
        <time>2018-12-29T07:36:18Z</time>
      </trkpt>
      <trkpt lat="41.300857001915574" lon="1.589182019233704">
        <ele>194.60000610351562</ele>
        <time>2018-12-29T07:36:20Z</time>
      </trkpt>
      <trkpt lat="41.300813918933272" lon="1.589011363685131">
        <ele>194.39999389648437</ele>
        <time>2018-12-29T07:36:22Z</time>
      </trkpt>
      <trkpt lat="41.300767483189702" lon="1.588839450851083">
        <ele>194</ele>
        <time>2018-12-29T07:36:24Z</time>
      </trkpt>
      <trkpt lat="41.300725406035781" lon="1.588665191084147">
        <ele>194</ele>
        <time>2018-12-29T07:36:26Z</time>
      </trkpt>
      <trkpt lat="41.300680730491877" lon="1.588494535535574">
        <ele>193.60000610351562</ele>
        <time>2018-12-29T07:36:28Z</time>
      </trkpt>
      <trkpt lat="41.300631863996387" lon="1.588329495862126">
        <ele>193.60000610351562</ele>
        <time>2018-12-29T07:36:30Z</time>
      </trkpt>
      <trkpt lat="41.300578638911247" lon="1.588169736787677">
        <ele>193.60000610351562</ele>
        <time>2018-12-29T07:36:32Z</time>
      </trkpt>
      <trkpt lat="41.300517786294222" lon="1.588012659922242">
        <ele>193.39999389648437</ele>
        <time>2018-12-29T07:36:34Z</time>
      </trkpt>
      <trkpt lat="41.300488701090217" lon="1.587936971336603">
        <ele>193.19999694824219</ele>
        <time>2018-12-29T07:36:35Z</time>
      </trkpt>
      <trkpt lat="41.300462717190385" lon="1.587861115112901">
        <ele>193.19999694824219</ele>
        <time>2018-12-29T07:36:36Z</time>
      </trkpt>
      <trkpt lat="41.300413850694895" lon="1.587705379351974">
        <ele>193</ele>
        <time>2018-12-29T07:36:38Z</time>
      </trkpt>
      <trkpt lat="41.30037940107286" lon="1.587539585307241">
        <ele>192.80000305175781</ele>
        <time>2018-12-29T07:36:40Z</time>
      </trkpt>
      <trkpt lat="41.30036473274231" lon="1.587454928085208">
        <ele>192.80000305175781</ele>
        <time>2018-12-29T07:36:41Z</time>
      </trkpt>
      <trkpt lat="41.300355428829789" lon="1.587369851768017">
        <ele>192.60000610351562</ele>
        <time>2018-12-29T07:36:42Z</time>
      </trkpt>
      <trkpt lat="41.300337072461843" lon="1.587201878428459">
        <ele>192.39999389648437</ele>
        <time>2018-12-29T07:36:44Z</time>
      </trkpt>
      <trkpt lat="41.300318296998739" lon="1.587036335840821">
        <ele>192.19999694824219</ele>
        <time>2018-12-29T07:36:46Z</time>
      </trkpt>
      <trkpt lat="41.300304969772696" lon="1.586877666413784">
        <ele>192.19999694824219</ele>
        <time>2018-12-29T07:36:48Z</time>
      </trkpt>
      <trkpt lat="41.300298599526286" lon="1.58679929561913">
        <ele>192</ele>
        <time>2018-12-29T07:36:49Z</time>
      </trkpt>
      <trkpt lat="41.300288708880544" lon="1.586723858490586">
        <ele>192</ele>
        <time>2018-12-29T07:36:50Z</time>
      </trkpt>
      <trkpt lat="41.300260461866856" lon="1.586575079709292">
        <ele>192.19999694824219</ele>
        <time>2018-12-29T07:36:52Z</time>
      </trkpt>
      <trkpt lat="41.300219390541315" lon="1.586433844640851">
        <ele>192.19999694824219</ele>
        <time>2018-12-29T07:36:54Z</time>
      </trkpt>
      <trkpt lat="41.30019374191761" lon="1.586366202682257">
        <ele>192</ele>
        <time>2018-12-29T07:36:55Z</time>
      </trkpt>
      <trkpt lat="41.300164656713605" lon="1.586298812180758">
        <ele>192</ele>
        <time>2018-12-29T07:36:56Z</time>
      </trkpt>
      <trkpt lat="41.300104977563024" lon="1.586166964843869">
        <ele>191.39999389648437</ele>
        <time>2018-12-29T07:36:58Z</time>
      </trkpt>
      <trkpt lat="41.300039095804095" lon="1.586037883535028">
        <ele>191.60000610351562</ele>
        <time>2018-12-29T07:37:00Z</time>
      </trkpt>
      <trkpt lat="41.299974052235484" lon="1.585915591567755">
        <ele>190.80000305175781</ele>
        <time>2018-12-29T07:37:02Z</time>
      </trkpt>
      <trkpt lat="41.299903728067875" lon="1.585779637098312">
        <ele>189.39999389648437</ele>
        <time>2018-12-29T07:37:04Z</time>
      </trkpt>
      <trkpt lat="41.299821585416794" lon="1.585646197199822">
        <ele>188.19999694824219</ele>
        <time>2018-12-29T07:37:06Z</time>
      </trkpt>
      <trkpt lat="41.299733156338334" lon="1.585524575784802">
        <ele>187</ele>
        <time>2018-12-29T07:37:08Z</time>
      </trkpt>
      <trkpt lat="41.29964942112565" lon="1.585417957976461">
        <ele>185.60000610351562</ele>
        <time>2018-12-29T07:37:10Z</time>
      </trkpt>
      <trkpt lat="41.299567278474569" lon="1.585311004891992">
        <ele>184.60000610351562</ele>
        <time>2018-12-29T07:37:12Z</time>
      </trkpt>
      <trkpt lat="41.29950768314302" lon="1.585215954110026">
        <ele>183.60000610351562</ele>
        <time>2018-12-29T07:37:14Z</time>
      </trkpt>
      <trkpt lat="41.299489159137011" lon="1.58516482450068">
        <ele>182.60000610351562</ele>
        <time>2018-12-29T07:37:15Z</time>
      </trkpt>
      <trkpt lat="41.299493350088596" lon="1.585119897499681">
        <ele>182</ele>
        <time>2018-12-29T07:37:16Z</time>
      </trkpt>
      <trkpt lat="41.299523441120982" lon="1.585088716819882">
        <ele>181.39999389648437</ele>
        <time>2018-12-29T07:37:17Z</time>
      </trkpt>
      <trkpt lat="41.299560824409127" lon="1.585077904164791">
        <ele>181.19999694824219</ele>
        <time>2018-12-29T07:37:18Z</time>
      </trkpt>
      <trkpt lat="41.299631148576736" lon="1.585088465362787">
        <ele>180.80000305175781</ele>
        <time>2018-12-29T07:37:20Z</time>
      </trkpt>
      <trkpt lat="41.299699209630489" lon="1.585092153400183">
        <ele>180.39999389648437</ele>
        <time>2018-12-29T07:37:22Z</time>
      </trkpt>
      <trkpt lat="41.299759307876229" lon="1.585085112601519">
        <ele>180</ele>
        <time>2018-12-29T07:37:24Z</time>
      </trkpt>
      <trkpt lat="41.299820747226477" lon="1.585076479241252">
        <ele>179.80000305175781</ele>
        <time>2018-12-29T07:37:26Z</time>
      </trkpt>
      <trkpt lat="41.299841618165374" lon="1.585063906386495">
        <ele>179.80000305175781</ele>
        <time>2018-12-29T07:37:27Z</time>
      </trkpt>
      <trkpt lat="41.299861986190081" lon="1.585050998255611">
        <ele>179.60000610351562</ele>
        <time>2018-12-29T07:37:28Z</time>
      </trkpt>
      <trkpt lat="41.299899453297257" lon="1.585034737363458">
        <ele>179.39999389648437</ele>
        <time>2018-12-29T07:37:30Z</time>
      </trkpt>
      <trkpt lat="41.299938093870878" lon="1.585004813969135">
        <ele>179.39999389648437</ele>
        <time>2018-12-29T07:37:32Z</time>
      </trkpt>
      <trkpt lat="41.299979751929641" lon="1.584952510893345">
        <ele>179.60000610351562</ele>
        <time>2018-12-29T07:37:34Z</time>
      </trkpt>
      <trkpt lat="41.299989642575383" lon="1.584916552528739">
        <ele>179.60000610351562</ele>
        <time>2018-12-29T07:37:35Z</time>
      </trkpt>
      <trkpt lat="41.299999114125967" lon="1.584882438182831">
        <ele>179.80000305175781</ele>
        <time>2018-12-29T07:37:36Z</time>
      </trkpt>
      <trkpt lat="41.300022164359689" lon="1.584820998832583">
        <ele>180.39999389648437</ele>
        <time>2018-12-29T07:37:38Z</time>
      </trkpt>
      <trkpt lat="41.300048064440489" lon="1.584762912243605">
        <ele>181.60000610351562</ele>
        <time>2018-12-29T07:37:40Z</time>
      </trkpt>
      <trkpt lat="41.300075137987733" lon="1.584699461236596">
        <ele>182.19999694824219</ele>
        <time>2018-12-29T07:37:42Z</time>
      </trkpt>
      <trkpt lat="41.300110258162022" lon="1.584636177867651">
        <ele>182.80000305175781</ele>
        <time>2018-12-29T07:37:44Z</time>
      </trkpt>
      <trkpt lat="41.300116376951337" lon="1.584601057693362">
        <ele>183.19999694824219</ele>
        <time>2018-12-29T07:37:45Z</time>
      </trkpt>
      <trkpt lat="41.3001165445894" lon="1.584570715203881">
        <ele>183.60000610351562</ele>
        <time>2018-12-29T07:37:46Z</time>
      </trkpt>
      <trkpt lat="41.300104223191738" lon="1.584517238661647">
        <ele>184.19999694824219</ele>
        <time>2018-12-29T07:37:48Z</time>
      </trkpt>
      <trkpt lat="41.30006231367588" lon="1.584448758512735">
        <ele>184.39999389648437</ele>
        <time>2018-12-29T07:37:50Z</time>
      </trkpt>
      <trkpt lat="41.300039263442159" lon="1.584423696622253">
        <ele>184.39999389648437</ele>
        <time>2018-12-29T07:37:51Z</time>
      </trkpt>
      <trkpt lat="41.300014369189739" lon="1.584408776834607">
        <ele>184.39999389648437</ele>
        <time>2018-12-29T07:37:52Z</time>
      </trkpt>
      <trkpt lat="41.299958964809775" lon="1.584379272535443">
        <ele>185</ele>
        <time>2018-12-29T07:37:54Z</time>
      </trkpt>
      <trkpt lat="41.299929125234485" lon="1.584370387718082">
        <ele>185.19999694824219</ele>
        <time>2018-12-29T07:37:55Z</time>
      </trkpt>
      <trkpt lat="41.29990054294467" lon="1.58436150290072">
        <ele>185.60000610351562</ele>
        <time>2018-12-29T07:37:56Z</time>
      </trkpt>
      <trkpt lat="41.299840277060866" lon="1.584339458495379">
        <ele>185.80000305175781</ele>
        <time>2018-12-29T07:37:58Z</time>
      </trkpt>
      <trkpt lat="41.299774562940001" lon="1.584306349977851">
        <ele>186.39999389648437</ele>
        <time>2018-12-29T07:38:00Z</time>
      </trkpt>
      <trkpt lat="41.299704071134329" lon="1.584276091307402">
        <ele>187</ele>
        <time>2018-12-29T07:38:02Z</time>
      </trkpt>
      <trkpt lat="41.299667777493596" lon="1.584259746596217">
        <ele>187.60000610351562</ele>
        <time>2018-12-29T07:38:03Z</time>
      </trkpt>
      <trkpt lat="41.299634082242846" lon="1.584243988618255">
        <ele>187.80000305175781</ele>
        <time>2018-12-29T07:38:04Z</time>
      </trkpt>
      <trkpt lat="41.29956291988492" lon="1.584215993061662">
        <ele>188.19999694824219</ele>
        <time>2018-12-29T07:38:06Z</time>
      </trkpt>
      <trkpt lat="41.299499804154038" lon="1.584197552874684">
        <ele>188.80000305175781</ele>
        <time>2018-12-29T07:38:08Z</time>
      </trkpt>
      <trkpt lat="41.29943735897541" lon="1.584182130172849">
        <ele>189.39999389648437</ele>
        <time>2018-12-29T07:38:10Z</time>
      </trkpt>
      <trkpt lat="41.299374075606465" lon="1.584166204556823">
        <ele>189.80000305175781</ele>
        <time>2018-12-29T07:38:12Z</time>
      </trkpt>
      <trkpt lat="41.299318671226501" lon="1.584131419658661">
        <ele>190.39999389648437</ele>
        <time>2018-12-29T07:38:14Z</time>
      </trkpt>
      <trkpt lat="41.299263602122664" lon="1.584085319191217">
        <ele>190.60000610351562</ele>
        <time>2018-12-29T07:38:16Z</time>
      </trkpt>
      <trkpt lat="41.299236696213484" lon="1.584056317806244">
        <ele>190.80000305175781</ele>
        <time>2018-12-29T07:38:17Z</time>
      </trkpt>
      <trkpt lat="41.299211801961064" lon="1.584029914811254">
        <ele>190.80000305175781</ele>
        <time>2018-12-29T07:38:18Z</time>
      </trkpt>
      <trkpt lat="41.299190931022167" lon="1.584001081064344">
        <ele>191.19999694824219</ele>
        <time>2018-12-29T07:38:19Z</time>
      </trkpt>
      <trkpt lat="41.299168467521667" lon="1.583973169326782">
        <ele>191.39999389648437</ele>
        <time>2018-12-29T07:38:20Z</time>
      </trkpt>
      <trkpt lat="41.299113985151052" lon="1.583924135193229">
        <ele>192</ele>
        <time>2018-12-29T07:38:22Z</time>
      </trkpt>
      <trkpt lat="41.299081547185779" lon="1.583905108273029">
        <ele>192.19999694824219</ele>
        <time>2018-12-29T07:38:23Z</time>
      </trkpt>
      <trkpt lat="41.29904743283987" lon="1.583892116323113">
        <ele>192.39999389648437</ele>
        <time>2018-12-29T07:38:24Z</time>
      </trkpt>
      <trkpt lat="41.298966715112329" lon="1.583883902058005">
        <ele>192.19999694824219</ele>
        <time>2018-12-29T07:38:26Z</time>
      </trkpt>
      <trkpt lat="41.298888511955738" lon="1.583905527368188">
        <ele>192</ele>
        <time>2018-12-29T07:38:28Z</time>
      </trkpt>
      <trkpt lat="41.29880259744823" lon="1.583918184041977">
        <ele>192.19999694824219</ele>
        <time>2018-12-29T07:38:30Z</time>
      </trkpt>
      <trkpt lat="41.298718443140388" lon="1.583894966170192">
        <ele>192.19999694824219</ele>
        <time>2018-12-29T07:38:32Z</time>
      </trkpt>
      <trkpt lat="41.298681730404496" lon="1.583871580660343">
        <ele>192.19999694824219</ele>
        <time>2018-12-29T07:38:33Z</time>
      </trkpt>
      <trkpt lat="41.298648957163095" lon="1.583842663094401">
        <ele>192.39999389648437</ele>
        <time>2018-12-29T07:38:34Z</time>
      </trkpt>
      <trkpt lat="41.298601599410176" lon="1.583768064156175">
        <ele>192.60000610351562</ele>
        <time>2018-12-29T07:38:36Z</time>
      </trkpt>
      <trkpt lat="41.298578213900328" lon="1.58373118378222">
        <ele>192.80000305175781</ele>
        <time>2018-12-29T07:38:37Z</time>
      </trkpt>
      <trkpt lat="41.298552816733718" lon="1.583693632856011">
        <ele>192.80000305175781</ele>
        <time>2018-12-29T07:38:38Z</time>
      </trkpt>
      <trkpt lat="41.298510236665606" lon="1.58361878246069">
        <ele>193.39999389648437</ele>
        <time>2018-12-29T07:38:40Z</time>
      </trkpt>
      <trkpt lat="41.298461873084307" lon="1.583541836589575">
        <ele>193.80000305175781</ele>
        <time>2018-12-29T07:38:42Z</time>
      </trkpt>
      <trkpt lat="41.298417113721371" lon="1.583468075841665">
        <ele>194.39999389648437</ele>
        <time>2018-12-29T07:38:44Z</time>
      </trkpt>
      <trkpt lat="41.298369504511356" lon="1.583392303436995">
        <ele>194.60000610351562</ele>
        <time>2018-12-29T07:38:46Z</time>
      </trkpt>
      <trkpt lat="41.29831351339817" lon="1.583316111937165">
        <ele>194.60000610351562</ele>
        <time>2018-12-29T07:38:48Z</time>
      </trkpt>
      <trkpt lat="41.298256348818541" lon="1.583237824961543">
        <ele>194.60000610351562</ele>
        <time>2018-12-29T07:38:50Z</time>
      </trkpt>
      <trkpt lat="41.298193652182817" lon="1.583155933767557">
        <ele>194.60000610351562</ele>
        <time>2018-12-29T07:38:52Z</time>
      </trkpt>
      <trkpt lat="41.298161381855607" lon="1.583113186061382">
        <ele>194.60000610351562</ele>
        <time>2018-12-29T07:38:53Z</time>
      </trkpt>
      <trkpt lat="41.298128524795175" lon="1.583069432526827">
        <ele>194.60000610351562</ele>
        <time>2018-12-29T07:38:54Z</time>
      </trkpt>
      <trkpt lat="41.298062140122056" lon="1.582989301532507">
        <ele>194.60000610351562</ele>
        <time>2018-12-29T07:38:56Z</time>
      </trkpt>
      <trkpt lat="41.29799391143024" lon="1.582904476672411">
        <ele>194.39999389648437</ele>
        <time>2018-12-29T07:38:58Z</time>
      </trkpt>
      <trkpt lat="41.297924173995852" lon="1.582827027887106">
        <ele>194.39999389648437</ele>
        <time>2018-12-29T07:39:00Z</time>
      </trkpt>
      <trkpt lat="41.297887964174151" lon="1.582788974046707">
        <ele>194.39999389648437</ele>
        <time>2018-12-29T07:39:01Z</time>
      </trkpt>
      <trkpt lat="41.297850999981165" lon="1.58274857327342">
        <ele>194.39999389648437</ele>
        <time>2018-12-29T07:39:02Z</time>
      </trkpt>
      <trkpt lat="41.297773383557796" lon="1.582673722878099">
        <ele>194.39999389648437</ele>
        <time>2018-12-29T07:39:04Z</time>
      </trkpt>
      <trkpt lat="41.297700377181172" lon="1.582592753693461">
        <ele>194.39999389648437</ele>
        <time>2018-12-29T07:39:06Z</time>
      </trkpt>
      <trkpt lat="41.297626197338104" lon="1.582520166411996">
        <ele>194.39999389648437</ele>
        <time>2018-12-29T07:39:08Z</time>
      </trkpt>
      <trkpt lat="41.29759082570672" lon="1.582485968247056">
        <ele>194.39999389648437</ele>
        <time>2018-12-29T07:39:09Z</time>
      </trkpt>
      <trkpt lat="41.297553861513734" lon="1.582451518625021">
        <ele>194.39999389648437</ele>
        <time>2018-12-29T07:39:10Z</time>
      </trkpt>
      <trkpt lat="41.297476161271334" lon="1.582384211942554">
        <ele>194.39999389648437</ele>
        <time>2018-12-29T07:39:12Z</time>
      </trkpt>
      <trkpt lat="41.297394437715411" lon="1.582315731793642">
        <ele>194.39999389648437</ele>
        <time>2018-12-29T07:39:14Z</time>
      </trkpt>
      <trkpt lat="41.297315647825599" lon="1.582237193360925">
        <ele>194.39999389648437</ele>
        <time>2018-12-29T07:39:16Z</time>
      </trkpt>
      <trkpt lat="41.297234930098057" lon="1.582164270803332">
        <ele>194.39999389648437</ele>
        <time>2018-12-29T07:39:18Z</time>
      </trkpt>
      <trkpt lat="41.297153793275356" lon="1.582094365730882">
        <ele>194.39999389648437</ele>
        <time>2018-12-29T07:39:20Z</time>
      </trkpt>
      <trkpt lat="41.297072572633624" lon="1.582018677145243">
        <ele>194.39999389648437</ele>
        <time>2018-12-29T07:39:22Z</time>
      </trkpt>
      <trkpt lat="41.296987663954496" lon="1.581942653283477">
        <ele>194.39999389648437</ele>
        <time>2018-12-29T07:39:24Z</time>
      </trkpt>
      <trkpt lat="41.296902755275369" lon="1.581868724897504">
        <ele>194.39999389648437</ele>
        <time>2018-12-29T07:39:26Z</time>
      </trkpt>
      <trkpt lat="41.296860342845321" lon="1.581832934170961">
        <ele>194.39999389648437</ele>
        <time>2018-12-29T07:39:27Z</time>
      </trkpt>
      <trkpt lat="41.296819858253002" lon="1.581794964149594">
        <ele>194.19999694824219</ele>
        <time>2018-12-29T07:39:28Z</time>
      </trkpt>
      <trkpt lat="41.296736961230636" lon="1.581725142896175">
        <ele>194.39999389648437</ele>
        <time>2018-12-29T07:39:30Z</time>
      </trkpt>
      <trkpt lat="41.296655321493745" lon="1.58165205270052">
        <ele>194.39999389648437</ele>
        <time>2018-12-29T07:39:32Z</time>
      </trkpt>
      <trkpt lat="41.296576531603932" lon="1.58156898804009">
        <ele>194.19999694824219</ele>
        <time>2018-12-29T07:39:34Z</time>
      </trkpt>
      <trkpt lat="41.296537052839994" lon="1.581528671085835">
        <ele>194.39999389648437</ele>
        <time>2018-12-29T07:39:35Z</time>
      </trkpt>
      <trkpt lat="41.296501010656357" lon="1.581481229513884">
        <ele>194.60000610351562</ele>
        <time>2018-12-29T07:39:36Z</time>
      </trkpt>
      <trkpt lat="41.296430099755526" lon="1.581387184560299">
        <ele>194.60000610351562</ele>
        <time>2018-12-29T07:39:38Z</time>
      </trkpt>
      <trkpt lat="41.296356087550521" lon="1.581293810158968">
        <ele>194.39999389648437</ele>
        <time>2018-12-29T07:39:40Z</time>
      </trkpt>
      <trkpt lat="41.296319123357534" lon="1.58124309964478">
        <ele>194.39999389648437</ele>
        <time>2018-12-29T07:39:41Z</time>
      </trkpt>
      <trkpt lat="41.296283751726151" lon="1.581194903701544">
        <ele>194.60000610351562</ele>
        <time>2018-12-29T07:39:42Z</time>
      </trkpt>
      <trkpt lat="41.296210074797273" lon="1.581102283671498">
        <ele>194.60000610351562</ele>
        <time>2018-12-29T07:39:44Z</time>
      </trkpt>
      <trkpt lat="41.296137319877744" lon="1.581010082736611">
        <ele>194.60000610351562</ele>
        <time>2018-12-29T07:39:46Z</time>
      </trkpt>
      <trkpt lat="41.29606582224369" lon="1.580915953963995">
        <ele>194.60000610351562</ele>
        <time>2018-12-29T07:39:48Z</time>
      </trkpt>
      <trkpt lat="41.295994659885764" lon="1.580821238458157">
        <ele>194.80000305175781</ele>
        <time>2018-12-29T07:39:50Z</time>
      </trkpt>
      <trkpt lat="41.295920144766569" lon="1.580734150484204">
        <ele>194.80000305175781</ele>
        <time>2018-12-29T07:39:52Z</time>
      </trkpt>
      <trkpt lat="41.29584789276123" lon="1.580641362816095">
        <ele>194.80000305175781</ele>
        <time>2018-12-29T07:39:54Z</time>
      </trkpt>
      <trkpt lat="41.295775389298797" lon="1.580551844090223">
        <ele>195</ele>
        <time>2018-12-29T07:39:56Z</time>
      </trkpt>
      <trkpt lat="41.295701041817665" lon="1.580463331192732">
        <ele>195</ele>
        <time>2018-12-29T07:39:58Z</time>
      </trkpt>
      <trkpt lat="41.295627448707819" lon="1.580372639000416">
        <ele>195.39999389648437</ele>
        <time>2018-12-29T07:40:00Z</time>
      </trkpt>
      <trkpt lat="41.295551005750895" lon="1.580284964293242">
        <ele>195.39999389648437</ele>
        <time>2018-12-29T07:40:02Z</time>
      </trkpt>
      <trkpt lat="41.295514041557908" lon="1.580241713672876">
        <ele>195.60000610351562</ele>
        <time>2018-12-29T07:40:03Z</time>
      </trkpt>
      <trkpt lat="41.29547699354589" lon="1.58020181581378">
        <ele>195.60000610351562</ele>
        <time>2018-12-29T07:40:04Z</time>
      </trkpt>
      <trkpt lat="41.295401975512505" lon="1.580119673162699">
        <ele>195.80000305175781</ele>
        <time>2018-12-29T07:40:06Z</time>
      </trkpt>
      <trkpt lat="41.295365933328867" lon="1.580078518018127">
        <ele>196</ele>
        <time>2018-12-29T07:40:07Z</time>
      </trkpt>
      <trkpt lat="41.295331483706832" lon="1.580038368701935">
        <ele>196</ele>
        <time>2018-12-29T07:40:08Z</time>
      </trkpt>
      <trkpt lat="41.295270379632711" lon="1.579954298213124">
        <ele>196.39999389648437</ele>
        <time>2018-12-29T07:40:10Z</time>
      </trkpt>
      <trkpt lat="41.295214556157589" lon="1.579863438382745">
        <ele>197</ele>
        <time>2018-12-29T07:40:12Z</time>
      </trkpt>
      <trkpt lat="41.295166024938226" lon="1.579777020961046">
        <ele>197.39999389648437</ele>
        <time>2018-12-29T07:40:14Z</time>
      </trkpt>
      <trkpt lat="41.295122941955924" lon="1.579687753692269">
        <ele>198</ele>
        <time>2018-12-29T07:40:16Z</time>
      </trkpt>
      <trkpt lat="41.295086899772286" lon="1.579597312957048">
        <ele>198.80000305175781</ele>
        <time>2018-12-29T07:40:18Z</time>
      </trkpt>
      <trkpt lat="41.295069800689816" lon="1.579551883041859">
        <ele>199.19999694824219</ele>
        <time>2018-12-29T07:40:19Z</time>
      </trkpt>
      <trkpt lat="41.295054880902171" lon="1.579506117850542">
        <ele>199.60000610351562</ele>
        <time>2018-12-29T07:40:20Z</time>
      </trkpt>
      <trkpt lat="41.295042475685477" lon="1.579460520297289">
        <ele>199.80000305175781</ele>
        <time>2018-12-29T07:40:21Z</time>
      </trkpt>
      <trkpt lat="41.295032668858767" lon="1.579413581639528">
        <ele>200</ele>
        <time>2018-12-29T07:40:22Z</time>
      </trkpt>
      <trkpt lat="41.295022275298834" lon="1.579367984086275">
        <ele>200.19999694824219</ele>
        <time>2018-12-29T07:40:23Z</time>
      </trkpt>
      <trkpt lat="41.295011127367616" lon="1.579319452866912">
        <ele>200.60000610351562</ele>
        <time>2018-12-29T07:40:24Z</time>
      </trkpt>
      <trkpt lat="41.294991262257099" lon="1.579225575551391">
        <ele>201.19999694824219</ele>
        <time>2018-12-29T07:40:26Z</time>
      </trkpt>
      <trkpt lat="41.294970139861107" lon="1.579132955521345">
        <ele>202.19999694824219</ele>
        <time>2018-12-29T07:40:28Z</time>
      </trkpt>
      <trkpt lat="41.294961338862777" lon="1.57908626832068">
        <ele>202.60000610351562</ele>
        <time>2018-12-29T07:40:29Z</time>
      </trkpt>
      <trkpt lat="41.294950945302844" lon="1.579040084034205">
        <ele>203</ele>
        <time>2018-12-29T07:40:30Z</time>
      </trkpt>
      <trkpt lat="41.294933008030057" lon="1.578946122899652">
        <ele>203.39999389648437</ele>
        <time>2018-12-29T07:40:32Z</time>
      </trkpt>
      <trkpt lat="41.294925631955266" lon="1.578899687156081">
        <ele>203.80000305175781</ele>
        <time>2018-12-29T07:40:33Z</time>
      </trkpt>
      <trkpt lat="41.294916579499841" lon="1.578852329403162">
        <ele>204</ele>
        <time>2018-12-29T07:40:34Z</time>
      </trkpt>
      <trkpt lat="41.294896714389324" lon="1.578756775707007">
        <ele>204.60000610351562</ele>
        <time>2018-12-29T07:40:36Z</time>
      </trkpt>
      <trkpt lat="41.294887829571962" lon="1.578712267801166">
        <ele>205</ele>
        <time>2018-12-29T07:40:37Z</time>
      </trkpt>
      <trkpt lat="41.294878944754601" lon="1.578670274466276">
        <ele>205.39999389648437</ele>
        <time>2018-12-29T07:40:38Z</time>
      </trkpt>
      <trkpt lat="41.294868467375636" lon="1.578624760732055">
        <ele>206</ele>
        <time>2018-12-29T07:40:39Z</time>
      </trkpt>
      <trkpt lat="41.294858241453767" lon="1.578580252826214">
        <ele>206.19999694824219</ele>
        <time>2018-12-29T07:40:40Z</time>
      </trkpt>
      <trkpt lat="41.294836364686489" lon="1.578495344147086">
        <ele>206.60000610351562</ele>
        <time>2018-12-29T07:40:42Z</time>
      </trkpt>
      <trkpt lat="41.294816751033068" lon="1.578415632247925">
        <ele>207.19999694824219</ele>
        <time>2018-12-29T07:40:44Z</time>
      </trkpt>
      <trkpt lat="41.294808033853769" lon="1.578379590064287">
        <ele>207.39999389648437</ele>
        <time>2018-12-29T07:40:45Z</time>
      </trkpt>
      <trkpt lat="41.294801831245422" lon="1.578349750488997">
        <ele>207.60000610351562</ele>
        <time>2018-12-29T07:40:46Z</time>
      </trkpt>
      <trkpt lat="41.294792192056775" lon="1.578320916742086">
        <ele>208</ele>
        <time>2018-12-29T07:40:47Z</time>
      </trkpt>
      <trkpt lat="41.294781966134906" lon="1.578295854851604">
        <ele>208</ele>
        <time>2018-12-29T07:40:48Z</time>
      </trkpt>
      <trkpt lat="41.294766208156943" lon="1.57823852263391">
        <ele>208.19999694824219</ele>
        <time>2018-12-29T07:40:50Z</time>
      </trkpt>
      <trkpt lat="41.294763945043087" lon="1.578236427158117">
        <ele>208.39999389648437</ele>
        <time>2018-12-29T07:40:52Z</time>
      </trkpt>
      <trkpt lat="41.294827647507191" lon="1.578152440488339">
        <ele>208</ele>
        <time>2018-12-29T07:41:14Z</time>
      </trkpt>
      <trkpt lat="41.294852709397674" lon="1.578144310042262">
        <ele>207.80000305175781</ele>
        <time>2018-12-29T07:41:15Z</time>
      </trkpt>
      <trkpt lat="41.294878860935569" lon="1.578132323920727">
        <ele>207.39999389648437</ele>
        <time>2018-12-29T07:41:16Z</time>
      </trkpt>
      <trkpt lat="41.294942731037736" lon="1.578105669468641">
        <ele>207</ele>
        <time>2018-12-29T07:41:18Z</time>
      </trkpt>
      <trkpt lat="41.295019844546914" lon="1.578075578436256">
        <ele>206.60000610351562</ele>
        <time>2018-12-29T07:41:20Z</time>
      </trkpt>
      <trkpt lat="41.295060999691486" lon="1.578058646991849">
        <ele>206.60000610351562</ele>
        <time>2018-12-29T07:41:21Z</time>
      </trkpt>
      <trkpt lat="41.295105423778296" lon="1.578036015853286">
        <ele>206.39999389648437</ele>
        <time>2018-12-29T07:41:22Z</time>
      </trkpt>
      <trkpt lat="41.295149847865105" lon="1.578002655878663">
        <ele>206.19999694824219</ele>
        <time>2018-12-29T07:41:23Z</time>
      </trkpt>
      <trkpt lat="41.295193936675787" lon="1.577970050275326">
        <ele>206</ele>
        <time>2018-12-29T07:41:24Z</time>
      </trkpt>
      <trkpt lat="41.295290412381291" lon="1.577899474650621">
        <ele>205.60000610351562</ele>
        <time>2018-12-29T07:41:26Z</time>
      </trkpt>
      <trkpt lat="41.295342966914177" lon="1.577860666438937">
        <ele>205.19999694824219</ele>
        <time>2018-12-29T07:41:27Z</time>
      </trkpt>
      <trkpt lat="41.295391162857413" lon="1.577822025865316">
        <ele>205</ele>
        <time>2018-12-29T07:41:28Z</time>
      </trkpt>
      <trkpt lat="41.295490069314837" lon="1.577749270945787">
        <ele>204.39999389648437</ele>
        <time>2018-12-29T07:41:30Z</time>
      </trkpt>
      <trkpt lat="41.295534996315837" lon="1.577717754989862">
        <ele>204.19999694824219</ele>
        <time>2018-12-29T07:41:31Z</time>
      </trkpt>
      <trkpt lat="41.29558109678328" lon="1.577684814110398">
        <ele>204</ele>
        <time>2018-12-29T07:41:32Z</time>
      </trkpt>
      <trkpt lat="41.295625437051058" lon="1.57764969393611">
        <ele>203.80000305175781</ele>
        <time>2018-12-29T07:41:33Z</time>
      </trkpt>
      <trkpt lat="41.295668939128518" lon="1.57761842943728">
        <ele>203.80000305175781</ele>
        <time>2018-12-29T07:41:34Z</time>
      </trkpt>
      <trkpt lat="41.295752255246043" lon="1.577548021450639">
        <ele>203.80000305175781</ele>
        <time>2018-12-29T07:41:36Z</time>
      </trkpt>
      <trkpt lat="41.295834230259061" lon="1.577479373663664">
        <ele>204</ele>
        <time>2018-12-29T07:41:38Z</time>
      </trkpt>
      <trkpt lat="41.295919641852379" lon="1.577401170507073">
        <ele>204.19999694824219</ele>
        <time>2018-12-29T07:41:40Z</time>
      </trkpt>
      <trkpt lat="41.29600815474987" lon="1.577324643731117">
        <ele>204.19999694824219</ele>
        <time>2018-12-29T07:41:42Z</time>
      </trkpt>
      <trkpt lat="41.296101110056043" lon="1.57724903896451">
        <ele>204.39999389648437</ele>
        <time>2018-12-29T07:41:44Z</time>
      </trkpt>
      <trkpt lat="41.296192556619644" lon="1.577180977910757">
        <ele>204.39999389648437</ele>
        <time>2018-12-29T07:41:46Z</time>
      </trkpt>
      <trkpt lat="41.296281069517136" lon="1.577108222991228">
        <ele>204.39999389648437</ele>
        <time>2018-12-29T07:41:48Z</time>
      </trkpt>
      <trkpt lat="41.296367822214961" lon="1.577037060633302">
        <ele>204.60000610351562</ele>
        <time>2018-12-29T07:41:50Z</time>
      </trkpt>
      <trkpt lat="41.296450132504106" lon="1.57696221023798">
        <ele>204.80000305175781</ele>
        <time>2018-12-29T07:41:52Z</time>
      </trkpt>
      <trkpt lat="41.296531436964869" lon="1.576880319043994">
        <ele>205</ele>
        <time>2018-12-29T07:41:54Z</time>
      </trkpt>
      <trkpt lat="41.296617183834314" lon="1.576804546639323">
        <ele>205.19999694824219</ele>
        <time>2018-12-29T07:41:56Z</time>
      </trkpt>
      <trkpt lat="41.296660853549838" lon="1.576767582446337">
        <ele>205.39999389648437</ele>
        <time>2018-12-29T07:41:57Z</time>
      </trkpt>
      <trkpt lat="41.296703265979886" lon="1.576732462272048">
        <ele>205.39999389648437</ele>
        <time>2018-12-29T07:41:58Z</time>
      </trkpt>
      <trkpt lat="41.29678507335484" lon="1.576663730666041">
        <ele>205.60000610351562</ele>
        <time>2018-12-29T07:42:00Z</time>
      </trkpt>
      <trkpt lat="41.29686813801527" lon="1.576590221375227">
        <ele>206</ele>
        <time>2018-12-29T07:42:02Z</time>
      </trkpt>
      <trkpt lat="41.296949358657002" lon="1.5765121858567">
        <ele>206.19999694824219</ele>
        <time>2018-12-29T07:42:04Z</time>
      </trkpt>
      <trkpt lat="41.296992441639304" lon="1.576479244977236">
        <ele>206.60000610351562</ele>
        <time>2018-12-29T07:42:05Z</time>
      </trkpt>
      <trkpt lat="41.297033596783876" lon="1.576445214450359">
        <ele>206.80000305175781</ele>
        <time>2018-12-29T07:42:06Z</time>
      </trkpt>
      <trkpt lat="41.297072572633624" lon="1.576404729858041">
        <ele>207</ele>
        <time>2018-12-29T07:42:07Z</time>
      </trkpt>
      <trkpt lat="41.297112135216594" lon="1.576369190588594">
        <ele>207.19999694824219</ele>
        <time>2018-12-29T07:42:08Z</time>
      </trkpt>
      <trkpt lat="41.297194613143802" lon="1.57630205154419">
        <ele>207.60000610351562</ele>
        <time>2018-12-29T07:42:10Z</time>
      </trkpt>
      <trkpt lat="41.297273403033614" lon="1.576233906671405">
        <ele>207.80000305175781</ele>
        <time>2018-12-29T07:42:12Z</time>
      </trkpt>
      <trkpt lat="41.297352276742458" lon="1.576166935265064">
        <ele>208.39999389648437</ele>
        <time>2018-12-29T07:42:14Z</time>
      </trkpt>
      <trkpt lat="41.297391504049301" lon="1.576136173680425">
        <ele>208.60000610351562</ele>
        <time>2018-12-29T07:42:15Z</time>
      </trkpt>
      <trkpt lat="41.297430396080017" lon="1.576106920838356">
        <ele>208.60000610351562</ele>
        <time>2018-12-29T07:42:16Z</time>
      </trkpt>
      <trkpt lat="41.297509102150798" lon="1.576044224202633">
        <ele>208.80000305175781</ele>
        <time>2018-12-29T07:42:18Z</time>
      </trkpt>
      <trkpt lat="41.297589400783181" lon="1.575980940833688">
        <ele>209.19999694824219</ele>
        <time>2018-12-29T07:42:20Z</time>
      </trkpt>
      <trkpt lat="41.297670537605882" lon="1.575919082388282">
        <ele>209.19999694824219</ele>
        <time>2018-12-29T07:42:22Z</time>
      </trkpt>
      <trkpt lat="41.297756033018231" lon="1.575851105153561">
        <ele>209.39999389648437</ele>
        <time>2018-12-29T07:42:24Z</time>
      </trkpt>
      <trkpt lat="41.297844210639596" lon="1.575781367719173">
        <ele>209.19999694824219</ele>
        <time>2018-12-29T07:42:26Z</time>
      </trkpt>
      <trkpt lat="41.297937585040927" lon="1.575710708275437">
        <ele>209</ele>
        <time>2018-12-29T07:42:28Z</time>
      </trkpt>
      <trkpt lat="41.298037748783827" lon="1.575632505118847">
        <ele>208.60000610351562</ele>
        <time>2018-12-29T07:42:30Z</time>
      </trkpt>
      <trkpt lat="41.298142438754439" lon="1.575550362467766">
        <ele>208.19999694824219</ele>
        <time>2018-12-29T07:42:32Z</time>
      </trkpt>
      <trkpt lat="41.298198346048594" lon="1.575506860390306">
        <ele>208</ele>
        <time>2018-12-29T07:42:33Z</time>
      </trkpt>
      <trkpt lat="41.29825534299016" lon="1.575464615598321">
        <ele>207.80000305175781</ele>
        <time>2018-12-29T07:42:34Z</time>
      </trkpt>
      <trkpt lat="41.29831250756979" lon="1.575421113520861">
        <ele>207.39999389648437</ele>
        <time>2018-12-29T07:42:35Z</time>
      </trkpt>
      <trkpt lat="41.298370845615864" lon="1.575375096872449">
        <ele>207</ele>
        <time>2018-12-29T07:42:36Z</time>
      </trkpt>
      <trkpt lat="41.298489533364773" lon="1.575283901765943">
        <ele>206.60000610351562</ele>
        <time>2018-12-29T07:42:38Z</time>
      </trkpt>
      <trkpt lat="41.298549799248576" lon="1.575238136574626">
        <ele>206.19999694824219</ele>
        <time>2018-12-29T07:42:39Z</time>
      </trkpt>
      <trkpt lat="41.298610651865602" lon="1.575190611183643">
        <ele>206.19999694824219</ele>
        <time>2018-12-29T07:42:40Z</time>
      </trkpt>
      <trkpt lat="41.298671839758754" lon="1.575142247602344">
        <ele>206</ele>
        <time>2018-12-29T07:42:41Z</time>
      </trkpt>
      <trkpt lat="41.298732524737716" lon="1.5750995837152">
        <ele>205.80000305175781</ele>
        <time>2018-12-29T07:42:42Z</time>
      </trkpt>
      <trkpt lat="41.298854816704988" lon="1.575015094131231">
        <ele>205.80000305175781</ele>
        <time>2018-12-29T07:42:44Z</time>
      </trkpt>
      <trkpt lat="41.298970989882946" lon="1.574926748871803">
        <ele>205.80000305175781</ele>
        <time>2018-12-29T07:42:46Z</time>
      </trkpt>
      <trkpt lat="41.299081044271588" lon="1.574837481603026">
        <ele>206</ele>
        <time>2018-12-29T07:42:48Z</time>
      </trkpt>
      <trkpt lat="41.299188919365406" lon="1.574755003675818">
        <ele>206.19999694824219</ele>
        <time>2018-12-29T07:42:50Z</time>
      </trkpt>
      <trkpt lat="41.299292435869575" lon="1.57467445358634">
        <ele>206.60000610351562</ele>
        <time>2018-12-29T07:42:52Z</time>
      </trkpt>
      <trkpt lat="41.299395617097616" lon="1.574595244601369">
        <ele>206.80000305175781</ele>
        <time>2018-12-29T07:42:54Z</time>
      </trkpt>
      <trkpt lat="41.299497541040182" lon="1.574513772502542">
        <ele>207.19999694824219</ele>
        <time>2018-12-29T07:42:56Z</time>
      </trkpt>
      <trkpt lat="41.299547329545021" lon="1.574474629014731">
        <ele>207.39999389648437</ele>
        <time>2018-12-29T07:42:57Z</time>
      </trkpt>
      <trkpt lat="41.299595860764384" lon="1.574435820803046">
        <ele>207.60000610351562</ele>
        <time>2018-12-29T07:42:58Z</time>
      </trkpt>
      <trkpt lat="41.299693090841174" lon="1.574360383674502">
        <ele>208</ele>
        <time>2018-12-29T07:43:00Z</time>
      </trkpt>
      <trkpt lat="41.299785375595093" lon="1.574289388954639">
        <ele>208.60000610351562</ele>
        <time>2018-12-29T07:43:02Z</time>
      </trkpt>
      <trkpt lat="41.299875983968377" lon="1.574214203283191">
        <ele>209</ele>
        <time>2018-12-29T07:43:04Z</time>
      </trkpt>
      <trkpt lat="41.299962317571044" lon="1.574130635708571">
        <ele>209.39999389648437</ele>
        <time>2018-12-29T07:43:06Z</time>
      </trkpt>
      <trkpt lat="41.300004310905933" lon="1.574088810011745">
        <ele>209.60000610351562</ele>
        <time>2018-12-29T07:43:07Z</time>
      </trkpt>
      <trkpt lat="41.300045549869537" lon="1.57404606230557">
        <ele>209.80000305175781</ele>
        <time>2018-12-29T07:43:08Z</time>
      </trkpt>
      <trkpt lat="41.300118891522288" lon="1.573953693732619">
        <ele>210.39999389648437</ele>
        <time>2018-12-29T07:43:10Z</time>
      </trkpt>
      <trkpt lat="41.300180163234472" lon="1.573850931599736">
        <ele>210.80000305175781</ele>
        <time>2018-12-29T07:43:12Z</time>
      </trkpt>
      <trkpt lat="41.300228778272867" lon="1.573732662945986">
        <ele>210.80000305175781</ele>
        <time>2018-12-29T07:43:14Z</time>
      </trkpt>
      <trkpt lat="41.300270352512598" lon="1.573603916913271">
        <ele>210.80000305175781</ele>
        <time>2018-12-29T07:43:16Z</time>
      </trkpt>
      <trkpt lat="41.300303796306252" lon="1.573464777320623">
        <ele>210.80000305175781</ele>
        <time>2018-12-29T07:43:18Z</time>
      </trkpt>
      <trkpt lat="41.300335815176368" lon="1.57331507652998">
        <ele>210.60000610351562</ele>
        <time>2018-12-29T07:43:20Z</time>
      </trkpt>
      <trkpt lat="41.300360541790724" lon="1.573153305798769">
        <ele>210.19999694824219</ele>
        <time>2018-12-29T07:43:22Z</time>
      </trkpt>
      <trkpt lat="41.300375210121274" lon="1.572978794574738">
        <ele>209.60000610351562</ele>
        <time>2018-12-29T07:43:24Z</time>
      </trkpt>
      <trkpt lat="41.30038040690124" lon="1.572794644162059">
        <ele>209.19999694824219</ele>
        <time>2018-12-29T07:43:26Z</time>
      </trkpt>
      <trkpt lat="41.300379484891891" lon="1.572608985006809">
        <ele>208.60000610351562</ele>
        <time>2018-12-29T07:43:28Z</time>
      </trkpt>
      <trkpt lat="41.300373449921608" lon="1.572419302538037">
        <ele>208.19999694824219</ele>
        <time>2018-12-29T07:43:30Z</time>
      </trkpt>
      <trkpt lat="41.300370432436466" lon="1.572237918153405">
        <ele>208</ele>
        <time>2018-12-29T07:43:32Z</time>
      </trkpt>
      <trkpt lat="41.300367079675198" lon="1.572145381942391">
        <ele>208</ele>
        <time>2018-12-29T07:43:33Z</time>
      </trkpt>
      <trkpt lat="41.300361966714263" lon="1.572054354473949">
        <ele>208</ele>
        <time>2018-12-29T07:43:34Z</time>
      </trkpt>
      <trkpt lat="41.300360541790724" lon="1.571871126070619">
        <ele>207.80000305175781</ele>
        <time>2018-12-29T07:43:36Z</time>
      </trkpt>
      <trkpt lat="41.300357105210423" lon="1.571776578202844">
        <ele>207.39999389648437</ele>
        <time>2018-12-29T07:43:37Z</time>
      </trkpt>
      <trkpt lat="41.300352327525616" lon="1.571682365611196">
        <ele>207.19999694824219</ele>
        <time>2018-12-29T07:43:38Z</time>
      </trkpt>
      <trkpt lat="41.300342017784715" lon="1.571502992883325">
        <ele>206.39999389648437</ele>
        <time>2018-12-29T07:43:40Z</time>
      </trkpt>
      <trkpt lat="41.30034034140408" lon="1.571319680660963">
        <ele>206</ele>
        <time>2018-12-29T07:43:42Z</time>
      </trkpt>
      <trkpt lat="41.30033053457737" lon="1.571135949343443">
        <ele>205.80000305175781</ele>
        <time>2018-12-29T07:43:44Z</time>
      </trkpt>
      <trkpt lat="41.300328187644482" lon="1.570956325158477">
        <ele>206</ele>
        <time>2018-12-29T07:43:46Z</time>
      </trkpt>
      <trkpt lat="41.300327768549323" lon="1.570865046232939">
        <ele>205.80000305175781</ele>
        <time>2018-12-29T07:43:47Z</time>
      </trkpt>
      <trkpt lat="41.300323829054832" lon="1.570769492536783">
        <ele>205.60000610351562</ele>
        <time>2018-12-29T07:43:48Z</time>
      </trkpt>
      <trkpt lat="41.300321817398071" lon="1.570677543058991">
        <ele>205.19999694824219</ele>
        <time>2018-12-29T07:43:49Z</time>
      </trkpt>
      <trkpt lat="41.300318213179708" lon="1.570584755390883">
        <ele>205.19999694824219</ele>
        <time>2018-12-29T07:43:50Z</time>
      </trkpt>
      <trkpt lat="41.300313519313931" lon="1.570404712110758">
        <ele>205</ele>
        <time>2018-12-29T07:43:52Z</time>
      </trkpt>
      <trkpt lat="41.300310418009758" lon="1.570226512849331">
        <ele>205</ele>
        <time>2018-12-29T07:43:54Z</time>
      </trkpt>
      <trkpt lat="41.300306729972363" lon="1.570048229768872">
        <ele>205</ele>
        <time>2018-12-29T07:43:56Z</time>
      </trkpt>
      <trkpt lat="41.300304718315601" lon="1.569870952516794">
        <ele>204.60000610351562</ele>
        <time>2018-12-29T07:43:58Z</time>
      </trkpt>
      <trkpt lat="41.300320560112596" lon="1.569706415757537">
        <ele>204.60000610351562</ele>
        <time>2018-12-29T07:44:00Z</time>
      </trkpt>
      <trkpt lat="41.300327517092228" lon="1.569546237587929">
        <ele>204.60000610351562</ele>
        <time>2018-12-29T07:44:02Z</time>
      </trkpt>
      <trkpt lat="41.30032760091126" lon="1.569380695000291">
        <ele>204.60000610351562</ele>
        <time>2018-12-29T07:44:04Z</time>
      </trkpt>
      <trkpt lat="41.300340089946985" lon="1.569228228181601">
        <ele>204.60000610351562</ele>
        <time>2018-12-29T07:44:06Z</time>
      </trkpt>
      <trkpt lat="41.300353249534965" lon="1.569066625088453">
        <ele>204.19999694824219</ele>
        <time>2018-12-29T07:44:08Z</time>
      </trkpt>
      <trkpt lat="41.300367163494229" lon="1.568918097764254">
        <ele>204</ele>
        <time>2018-12-29T07:44:10Z</time>
      </trkpt>
      <trkpt lat="41.300332210958004" lon="1.568761439993978">
        <ele>203.80000305175781</ele>
        <time>2018-12-29T07:44:12Z</time>
      </trkpt>
      <trkpt lat="41.300256354734302" lon="1.568591957911849">
        <ele>203.60000610351562</ele>
        <time>2018-12-29T07:44:14Z</time>
      </trkpt>
      <trkpt lat="41.300217043608427" lon="1.568508222699165">
        <ele>203.39999389648437</ele>
        <time>2018-12-29T07:44:15Z</time>
      </trkpt>
      <trkpt lat="41.300179827958345" lon="1.56842683441937">
        <ele>203</ele>
        <time>2018-12-29T07:44:16Z</time>
      </trkpt>
      <trkpt lat="41.300094751641154" lon="1.568275541067123">
        <ele>202.39999389648437</ele>
        <time>2018-12-29T07:44:18Z</time>
      </trkpt>
      <trkpt lat="41.300047896802425" lon="1.56819867901504">
        <ele>202</ele>
        <time>2018-12-29T07:44:19Z</time>
      </trkpt>
      <trkpt lat="41.300000455230474" lon="1.568119218572974">
        <ele>201.60000610351562</ele>
        <time>2018-12-29T07:44:20Z</time>
      </trkpt>
      <trkpt lat="41.299961395561695" lon="1.568034309893847">
        <ele>201.39999389648437</ele>
        <time>2018-12-29T07:44:21Z</time>
      </trkpt>
      <trkpt lat="41.299927700310946" lon="1.567946635186672">
        <ele>201.19999694824219</ele>
        <time>2018-12-29T07:44:22Z</time>
      </trkpt>
      <trkpt lat="41.299876403063536" lon="1.567766759544611">
        <ele>201</ele>
        <time>2018-12-29T07:44:24Z</time>
      </trkpt>
      <trkpt lat="41.299860142171383" lon="1.567674893885851">
        <ele>201</ele>
        <time>2018-12-29T07:44:25Z</time>
      </trkpt>
      <trkpt lat="41.299846479669213" lon="1.567583363503218">
        <ele>201</ele>
        <time>2018-12-29T07:44:26Z</time>
      </trkpt>
      <trkpt lat="41.299835247918963" lon="1.567491833120585">
        <ele>201</ele>
        <time>2018-12-29T07:44:27Z</time>
      </trkpt>
      <trkpt lat="41.299824267625809" lon="1.567402398213744">
        <ele>201</ele>
        <time>2018-12-29T07:44:28Z</time>
      </trkpt>
      <trkpt lat="41.299802642315626" lon="1.567232497036457">
        <ele>201.39999389648437</ele>
        <time>2018-12-29T07:44:30Z</time>
      </trkpt>
      <trkpt lat="41.299784621223807" lon="1.56706603243947">
        <ele>201.80000305175781</ele>
        <time>2018-12-29T07:44:32Z</time>
      </trkpt>
      <trkpt lat="41.299777245149016" lon="1.566985482349992">
        <ele>202</ele>
        <time>2018-12-29T07:44:33Z</time>
      </trkpt>
      <trkpt lat="41.299767103046179" lon="1.566910967230797">
        <ele>202.19999694824219</ele>
        <time>2018-12-29T07:44:34Z</time>
      </trkpt>
      <trkpt lat="41.299748830497265" lon="1.566768642514944">
        <ele>202.60000610351562</ele>
        <time>2018-12-29T07:44:36Z</time>
      </trkpt>
      <trkpt lat="41.299728378653526" lon="1.566628916189075">
        <ele>202.80000305175781</ele>
        <time>2018-12-29T07:44:38Z</time>
      </trkpt>
      <trkpt lat="41.299719242379069" lon="1.566558759659529">
        <ele>203</ele>
        <time>2018-12-29T07:44:39Z</time>
      </trkpt>
      <trkpt lat="41.299710441380739" lon="1.566489189863205">
        <ele>203.19999694824219</ele>
        <time>2018-12-29T07:44:40Z</time>
      </trkpt>
      <trkpt lat="41.299696443602443" lon="1.566353654488921">
        <ele>203.60000610351562</ele>
        <time>2018-12-29T07:44:42Z</time>
      </trkpt>
      <trkpt lat="41.299673644825816" lon="1.566214850172401">
        <ele>203.60000610351562</ele>
        <time>2018-12-29T07:44:44Z</time>
      </trkpt>
      <trkpt lat="41.299652941524982" lon="1.566076129674912">
        <ele>203.60000610351562</ele>
        <time>2018-12-29T07:44:46Z</time>
      </trkpt>
      <trkpt lat="41.299629136919975" lon="1.565931793302298">
        <ele>203.80000305175781</ele>
        <time>2018-12-29T07:44:48Z</time>
      </trkpt>
      <trkpt lat="41.299617569893599" lon="1.565857278183103">
        <ele>204</ele>
        <time>2018-12-29T07:44:49Z</time>
      </trkpt>
      <trkpt lat="41.299604494124651" lon="1.565782595425844">
        <ele>204</ele>
        <time>2018-12-29T07:44:50Z</time>
      </trkpt>
      <trkpt lat="41.299579851329327" lon="1.565631721168757">
        <ele>204.39999389648437</ele>
        <time>2018-12-29T07:44:52Z</time>
      </trkpt>
      <trkpt lat="41.299555040895939" lon="1.565485373139381">
        <ele>204.19999694824219</ele>
        <time>2018-12-29T07:44:54Z</time>
      </trkpt>
      <trkpt lat="41.299531068652868" lon="1.56534262932837">
        <ele>204.19999694824219</ele>
        <time>2018-12-29T07:44:56Z</time>
      </trkpt>
      <trkpt lat="41.299510449171066" lon="1.565201980993152">
        <ele>204.60000610351562</ele>
        <time>2018-12-29T07:44:58Z</time>
      </trkpt>
      <trkpt lat="41.299486476927996" lon="1.565066948533058">
        <ele>205</ele>
        <time>2018-12-29T07:45:00Z</time>
      </trkpt>
      <trkpt lat="41.299462923780084" lon="1.564934011548758">
        <ele>205.39999389648437</ele>
        <time>2018-12-29T07:45:02Z</time>
      </trkpt>
      <trkpt lat="41.299453284591436" lon="1.564867962151766">
        <ele>205.60000610351562</ele>
        <time>2018-12-29T07:45:03Z</time>
      </trkpt>
      <trkpt lat="41.299443729221821" lon="1.564802164211869">
        <ele>205.80000305175781</ele>
        <time>2018-12-29T07:45:04Z</time>
      </trkpt>
      <trkpt lat="41.29942269064486" lon="1.564676268026233">
        <ele>206.39999389648437</ele>
        <time>2018-12-29T07:45:06Z</time>
      </trkpt>
      <trkpt lat="41.29941338673234" lon="1.564612984657288">
        <ele>206.60000610351562</ele>
        <time>2018-12-29T07:45:07Z</time>
      </trkpt>
      <trkpt lat="41.299402825534344" lon="1.564550874754787">
        <ele>206.80000305175781</ele>
        <time>2018-12-29T07:45:08Z</time>
      </trkpt>
      <trkpt lat="41.299383044242859" lon="1.564430091530085">
        <ele>207.19999694824219</ele>
        <time>2018-12-29T07:45:10Z</time>
      </trkpt>
      <trkpt lat="41.299364101141691" lon="1.564306626096368">
        <ele>207.60000610351562</ele>
        <time>2018-12-29T07:45:12Z</time>
      </trkpt>
      <trkpt lat="41.299352282658219" lon="1.564244767650962">
        <ele>207.80000305175781</ele>
        <time>2018-12-29T07:45:13Z</time>
      </trkpt>
      <trkpt lat="41.299340547993779" lon="1.564183495938778">
        <ele>208</ele>
        <time>2018-12-29T07:45:14Z</time>
      </trkpt>
      <trkpt lat="41.299317413941026" lon="1.56406338326633">
        <ele>208.80000305175781</ele>
        <time>2018-12-29T07:45:16Z</time>
      </trkpt>
      <trkpt lat="41.299309115856886" lon="1.564005045220256">
        <ele>209</ele>
        <time>2018-12-29T07:45:17Z</time>
      </trkpt>
      <trkpt lat="41.299301069229841" lon="1.563948802649975">
        <ele>209.19999694824219</ele>
        <time>2018-12-29T07:45:18Z</time>
      </trkpt>
      <trkpt lat="41.29927852191031" lon="1.563834054395556">
        <ele>209.80000305175781</ele>
        <time>2018-12-29T07:45:20Z</time>
      </trkpt>
      <trkpt lat="41.299267541617155" lon="1.563777728006244">
        <ele>210.19999694824219</ele>
        <time>2018-12-29T07:45:21Z</time>
      </trkpt>
      <trkpt lat="41.299257315695286" lon="1.563719306141138">
        <ele>210.39999389648437</ele>
        <time>2018-12-29T07:45:22Z</time>
      </trkpt>
      <trkpt lat="41.299235774204135" lon="1.563601791858673">
        <ele>210.80000305175781</ele>
        <time>2018-12-29T07:45:24Z</time>
      </trkpt>
      <trkpt lat="41.299223201349378" lon="1.563542783260346">
        <ele>211.19999694824219</ele>
        <time>2018-12-29T07:45:25Z</time>
      </trkpt>
      <trkpt lat="41.299211299046874" lon="1.563482014462352">
        <ele>211.39999389648437</ele>
        <time>2018-12-29T07:45:26Z</time>
      </trkpt>
      <trkpt lat="41.299186069518328" lon="1.563367182388902">
        <ele>211.80000305175781</ele>
        <time>2018-12-29T07:45:28Z</time>
      </trkpt>
      <trkpt lat="41.299159834161401" lon="1.563254613429308">
        <ele>212.19999694824219</ele>
        <time>2018-12-29T07:45:30Z</time>
      </trkpt>
      <trkpt lat="41.299134436994791" lon="1.563144642859697">
        <ele>212.80000305175781</ele>
        <time>2018-12-29T07:45:32Z</time>
      </trkpt>
      <trkpt lat="41.299105603247881" lon="1.563032660633326">
        <ele>213.19999694824219</ele>
        <time>2018-12-29T07:45:34Z</time>
      </trkpt>
      <trkpt lat="41.299092695116997" lon="1.562975160777569">
        <ele>213.39999389648437</ele>
        <time>2018-12-29T07:45:35Z</time>
      </trkpt>
      <trkpt lat="41.299079954624176" lon="1.562917493283749">
        <ele>213.60000610351562</ele>
        <time>2018-12-29T07:45:36Z</time>
      </trkpt>
      <trkpt lat="41.299056066200137" lon="1.562802577391267">
        <ele>214</ele>
        <time>2018-12-29T07:45:38Z</time>
      </trkpt>
      <trkpt lat="41.299038212746382" lon="1.562685901299119">
        <ele>214.19999694824219</ele>
        <time>2018-12-29T07:45:40Z</time>
      </trkpt>
      <trkpt lat="41.299031507223845" lon="1.562628233805299">
        <ele>214.39999389648437</ele>
        <time>2018-12-29T07:45:41Z</time>
      </trkpt>
      <trkpt lat="41.299031088128686" lon="1.562568303197622">
        <ele>214.39999389648437</ele>
        <time>2018-12-29T07:45:42Z</time>
      </trkpt>
      <trkpt lat="41.299041649326682" lon="1.562445508316159">
        <ele>214.39999389648437</ele>
        <time>2018-12-29T07:45:44Z</time>
      </trkpt>
      <trkpt lat="41.299057239666581" lon="1.562322713434696">
        <ele>214.39999389648437</ele>
        <time>2018-12-29T07:45:46Z</time>
      </trkpt>
      <trkpt lat="41.299080038443208" lon="1.562200505286455">
        <ele>214.60000610351562</ele>
        <time>2018-12-29T07:45:48Z</time>
      </trkpt>
      <trkpt lat="41.299107447266579" lon="1.562075950205326">
        <ele>214.80000305175781</ele>
        <time>2018-12-29T07:45:50Z</time>
      </trkpt>
      <trkpt lat="41.299142483621836" lon="1.561960782855749">
        <ele>215</ele>
        <time>2018-12-29T07:45:52Z</time>
      </trkpt>
      <trkpt lat="41.299175508320332" lon="1.561847124248743">
        <ele>215.19999694824219</ele>
        <time>2018-12-29T07:45:54Z</time>
      </trkpt>
      <trkpt lat="41.2992047611624" lon="1.561734639108181">
        <ele>215.39999389648437</ele>
        <time>2018-12-29T07:45:56Z</time>
      </trkpt>
      <trkpt lat="41.299238791689277" lon="1.561624333262444">
        <ele>215.60000610351562</ele>
        <time>2018-12-29T07:45:58Z</time>
      </trkpt>
      <trkpt lat="41.299272486940026" lon="1.561511512845755">
        <ele>215.80000305175781</ele>
        <time>2018-12-29T07:46:00Z</time>
      </trkpt>
      <trkpt lat="41.299303835257888" lon="1.561398692429066">
        <ele>216</ele>
        <time>2018-12-29T07:46:02Z</time>
      </trkpt>
      <trkpt lat="41.299331746995449" lon="1.561285872012377">
        <ele>216.39999389648437</ele>
        <time>2018-12-29T07:46:04Z</time>
      </trkpt>
      <trkpt lat="41.299362424761057" lon="1.561175817623735">
        <ele>216.60000610351562</ele>
        <time>2018-12-29T07:46:06Z</time>
      </trkpt>
      <trkpt lat="41.299399640411139" lon="1.561073223128915">
        <ele>217.19999694824219</ele>
        <time>2018-12-29T07:46:08Z</time>
      </trkpt>
      <trkpt lat="41.299432581290603" lon="1.56096744351089">
        <ele>217.39999389648437</ele>
        <time>2018-12-29T07:46:10Z</time>
      </trkpt>
      <trkpt lat="41.299445740878582" lon="1.56091220676899">
        <ele>217.60000610351562</ele>
        <time>2018-12-29T07:46:11Z</time>
      </trkpt>
      <trkpt lat="41.299462337046862" lon="1.560862334445119">
        <ele>217.80000305175781</ele>
        <time>2018-12-29T07:46:12Z</time>
      </trkpt>
      <trkpt lat="41.299493936821818" lon="1.560760326683521">
        <ele>218.39999389648437</ele>
        <time>2018-12-29T07:46:14Z</time>
      </trkpt>
      <trkpt lat="41.299522686749697" lon="1.560723362490535">
        <ele>218.60000610351562</ele>
        <time>2018-12-29T07:46:15Z</time>
      </trkpt>
      <trkpt lat="41.299561494961381" lon="1.560706431046128">
        <ele>218.80000305175781</ele>
        <time>2018-12-29T07:46:16Z</time>
      </trkpt>
      <trkpt lat="41.299600219354033" lon="1.560702072456479">
        <ele>219</ele>
        <time>2018-12-29T07:46:17Z</time>
      </trkpt>
      <trkpt lat="41.299636764451861" lon="1.560699976980686">
        <ele>219.39999389648437</ele>
        <time>2018-12-29T07:46:18Z</time>
      </trkpt>
      <trkpt lat="41.299669370055199" lon="1.560695702210069">
        <ele>219.80000305175781</ele>
        <time>2018-12-29T07:46:19Z</time>
      </trkpt>
      <trkpt lat="41.29970851354301" lon="1.560695534572005">
        <ele>220</ele>
        <time>2018-12-29T07:46:20Z</time>
      </trkpt>
      <trkpt lat="41.299781268462539" lon="1.560665192082524">
        <ele>220.39999389648437</ele>
        <time>2018-12-29T07:46:22Z</time>
      </trkpt>
      <trkpt lat="41.299851173534989" lon="1.560611547902226">
        <ele>220.60000610351562</ele>
        <time>2018-12-29T07:46:24Z</time>
      </trkpt>
      <trkpt lat="41.299916636198759" lon="1.56056527979672">
        <ele>220.80000305175781</ele>
        <time>2018-12-29T07:46:26Z</time>
      </trkpt>
      <trkpt lat="41.299984864890575" lon="1.560503588989377">
        <ele>221</ele>
        <time>2018-12-29T07:46:28Z</time>
      </trkpt>
      <trkpt lat="41.30001881159842" lon="1.560472324490547">
        <ele>221.19999694824219</ele>
        <time>2018-12-29T07:46:29Z</time>
      </trkpt>
      <trkpt lat="41.300051501020789" lon="1.56044508330524">
        <ele>221.19999694824219</ele>
        <time>2018-12-29T07:46:30Z</time>
      </trkpt>
      <trkpt lat="41.300119226798415" lon="1.560405353084207">
        <ele>221.39999389648437</ele>
        <time>2018-12-29T07:46:32Z</time>
      </trkpt>
      <trkpt lat="41.300152754411101" lon="1.560381297022104">
        <ele>221.39999389648437</ele>
        <time>2018-12-29T07:46:33Z</time>
      </trkpt>
      <trkpt lat="41.300189467146993" lon="1.560352127999067">
        <ele>221.60000610351562</ele>
        <time>2018-12-29T07:46:34Z</time>
      </trkpt>
      <trkpt lat="41.300263730809093" lon="1.560305943712592">
        <ele>222</ele>
        <time>2018-12-29T07:46:36Z</time>
      </trkpt>
      <trkpt lat="41.300301868468523" lon="1.560280881822109">
        <ele>222</ele>
        <time>2018-12-29T07:46:37Z</time>
      </trkpt>
      <trkpt lat="41.300337743014097" lon="1.5602589212358">
        <ele>222.19999694824219</ele>
        <time>2018-12-29T07:46:38Z</time>
      </trkpt>
      <trkpt lat="41.300409156829119" lon="1.560223214328289">
        <ele>222.39999389648437</ele>
        <time>2018-12-29T07:46:40Z</time>
      </trkpt>
      <trkpt lat="41.300492389127612" lon="1.560194296762347">
        <ele>222.39999389648437</ele>
        <time>2018-12-29T07:46:42Z</time>
      </trkpt>
      <trkpt lat="41.30056313239038" lon="1.560170073062182">
        <ele>222.39999389648437</ele>
        <time>2018-12-29T07:46:44Z</time>
      </trkpt>
      <trkpt lat="41.300644520670176" lon="1.5601553209126">
        <ele>222.60000610351562</ele>
        <time>2018-12-29T07:46:46Z</time>
      </trkpt>
      <trkpt lat="41.30072683095932" lon="1.560148699209094">
        <ele>222.80000305175781</ele>
        <time>2018-12-29T07:46:48Z</time>
      </trkpt>
      <trkpt lat="41.300811236724257" lon="1.560138892382383">
        <ele>223</ele>
        <time>2018-12-29T07:46:50Z</time>
      </trkpt>
      <trkpt lat="41.300851386040449" lon="1.560131516307592">
        <ele>223.19999694824219</ele>
        <time>2018-12-29T07:46:51Z</time>
      </trkpt>
      <trkpt lat="41.300891702994704" lon="1.560129085555673">
        <ele>223.60000610351562</ele>
        <time>2018-12-29T07:46:52Z</time>
      </trkpt>
      <trkpt lat="41.30096822977066" lon="1.56012212857604">
        <ele>223.80000305175781</ele>
        <time>2018-12-29T07:46:54Z</time>
      </trkpt>
      <trkpt lat="41.30100728943944" lon="1.560119446367025">
        <ele>224</ele>
        <time>2018-12-29T07:46:55Z</time>
      </trkpt>
      <trkpt lat="41.301047103479505" lon="1.560122380033135">
        <ele>224</ele>
        <time>2018-12-29T07:46:56Z</time>
      </trkpt>
      <trkpt lat="41.301120109856129" lon="1.560116680338979">
        <ele>224.19999694824219</ele>
        <time>2018-12-29T07:46:58Z</time>
      </trkpt>
      <trkpt lat="41.301156654953957" lon="1.560115590691567">
        <ele>224.39999389648437</ele>
        <time>2018-12-29T07:46:59Z</time>
      </trkpt>
      <trkpt lat="41.301196720451117" lon="1.560132186859846">
        <ele>224.60000610351562</ele>
        <time>2018-12-29T07:47:00Z</time>
      </trkpt>
      <trkpt lat="41.30123452283442" lon="1.560144424438477">
        <ele>224.60000610351562</ele>
        <time>2018-12-29T07:47:01Z</time>
      </trkpt>
      <trkpt lat="41.301277689635754" lon="1.560144340619445">
        <ele>224.60000610351562</ele>
        <time>2018-12-29T07:47:02Z</time>
      </trkpt>
      <trkpt lat="41.301362933591008" lon="1.560149285942316">
        <ele>225</ele>
        <time>2018-12-29T07:47:04Z</time>
      </trkpt>
      <trkpt lat="41.301442896947265" lon="1.560138473287225">
        <ele>225.19999694824219</ele>
        <time>2018-12-29T07:47:06Z</time>
      </trkpt>
      <trkpt lat="41.301477514207363" lon="1.560129001736641">
        <ele>225.39999389648437</ele>
        <time>2018-12-29T07:47:07Z</time>
      </trkpt>
      <trkpt lat="41.301516406238079" lon="1.560126235708594">
        <ele>225.60000610351562</ele>
        <time>2018-12-29T07:47:08Z</time>
      </trkpt>
      <trkpt lat="41.301586730405688" lon="1.560124978423119">
        <ele>225.60000610351562</ele>
        <time>2018-12-29T07:47:10Z</time>
      </trkpt>
      <trkpt lat="41.301639536395669" lon="1.560095557942987">
        <ele>225.80000305175781</ele>
        <time>2018-12-29T07:47:12Z</time>
      </trkpt>
      <trkpt lat="41.301652025431395" lon="1.560065047815442">
        <ele>226</ele>
        <time>2018-12-29T07:47:13Z</time>
      </trkpt>
      <trkpt lat="41.301658730953932" lon="1.560027999803424">
        <ele>226.19999694824219</ele>
        <time>2018-12-29T07:47:14Z</time>
      </trkpt>
      <trkpt lat="41.301665771752596" lon="1.559947449713945">
        <ele>226.80000305175781</ele>
        <time>2018-12-29T07:47:16Z</time>
      </trkpt>
      <trkpt lat="41.301664933562279" lon="1.559905456379056">
        <ele>227</ele>
        <time>2018-12-29T07:47:17Z</time>
      </trkpt>
      <trkpt lat="41.301666274666786" lon="1.559862541034818">
        <ele>227.19999694824219</ele>
        <time>2018-12-29T07:47:18Z</time>
      </trkpt>
      <trkpt lat="41.301673231646419" lon="1.55977763235569">
        <ele>227.39999389648437</ele>
        <time>2018-12-29T07:47:20Z</time>
      </trkpt>
      <trkpt lat="41.301675327122211" lon="1.559690712019801">
        <ele>227.60000610351562</ele>
        <time>2018-12-29T07:47:22Z</time>
      </trkpt>
      <trkpt lat="41.301677925512195" lon="1.55964913778007">
        <ele>228</ele>
        <time>2018-12-29T07:47:23Z</time>
      </trkpt>
      <trkpt lat="41.301681697368622" lon="1.559606557711959">
        <ele>228.19999694824219</ele>
        <time>2018-12-29T07:47:24Z</time>
      </trkpt>
      <trkpt lat="41.301684798672795" lon="1.559519888833165">
        <ele>228.39999389648437</ele>
        <time>2018-12-29T07:47:26Z</time>
      </trkpt>
      <trkpt lat="41.301686223596334" lon="1.559447553008795">
        <ele>228.80000305175781</ele>
        <time>2018-12-29T07:47:28Z</time>
      </trkpt>
      <trkpt lat="41.301685133948922" lon="1.55941553413868">
        <ele>229</ele>
        <time>2018-12-29T07:47:29Z</time>
      </trkpt>
      <trkpt lat="41.301681529730558" lon="1.559384604915977">
        <ele>229.19999694824219</ele>
        <time>2018-12-29T07:47:30Z</time>
      </trkpt>
      <trkpt lat="41.301692090928555" lon="1.559319226071239">
        <ele>229.19999694824219</ele>
        <time>2018-12-29T07:47:32Z</time>
      </trkpt>
      <trkpt lat="41.301717236638069" lon="1.559300282970071">
        <ele>229.39999389648437</ele>
        <time>2018-12-29T07:47:33Z</time>
      </trkpt>
      <trkpt lat="41.301746489480138" lon="1.559302629902959">
        <ele>229.60000610351562</ele>
        <time>2018-12-29T07:47:34Z</time>
      </trkpt>
      <trkpt lat="41.301777167245746" lon="1.559300534427166">
        <ele>229.80000305175781</ele>
        <time>2018-12-29T07:47:35Z</time>
      </trkpt>
      <trkpt lat="41.301807090640068" lon="1.559299025684595">
        <ele>229.80000305175781</ele>
        <time>2018-12-29T07:47:36Z</time>
      </trkpt>
      <trkpt lat="41.301839193329215" lon="1.559294247999787">
        <ele>230</ele>
        <time>2018-12-29T07:47:37Z</time>
      </trkpt>
      <trkpt lat="41.301871966570616" lon="1.559288799762726">
        <ele>230</ele>
        <time>2018-12-29T07:47:38Z</time>
      </trkpt>
      <trkpt lat="41.301939273253083" lon="1.55926801264286">
        <ele>230.39999389648437</ele>
        <time>2018-12-29T07:47:40Z</time>
      </trkpt>
      <trkpt lat="41.302007418125868" lon="1.559234485030174">
        <ele>230.80000305175781</ele>
        <time>2018-12-29T07:47:42Z</time>
      </trkpt>
      <trkpt lat="41.302041364833713" lon="1.559217721223831">
        <ele>230.80000305175781</ele>
        <time>2018-12-29T07:47:43Z</time>
      </trkpt>
      <trkpt lat="41.302074557170272" lon="1.559201711788774">
        <ele>230.80000305175781</ele>
        <time>2018-12-29T07:47:44Z</time>
      </trkpt>
      <trkpt lat="41.302139265462756" lon="1.559156700968742">
        <ele>231</ele>
        <time>2018-12-29T07:47:46Z</time>
      </trkpt>
      <trkpt lat="41.302201459184289" lon="1.559105822816491">
        <ele>231.19999694824219</ele>
        <time>2018-12-29T07:47:48Z</time>
      </trkpt>
      <trkpt lat="41.302265580743551" lon="1.559052094817162">
        <ele>231.60000610351562</ele>
        <time>2018-12-29T07:47:50Z</time>
      </trkpt>
      <trkpt lat="41.302297180518508" lon="1.559020578861237">
        <ele>231.60000610351562</ele>
        <time>2018-12-29T07:47:51Z</time>
      </trkpt>
      <trkpt lat="41.302327858284116" lon="1.558985374867916">
        <ele>231.80000305175781</ele>
        <time>2018-12-29T07:47:52Z</time>
      </trkpt>
      <trkpt lat="41.302395919337869" lon="1.558920415118337">
        <ele>231.80000305175781</ele>
        <time>2018-12-29T07:47:54Z</time>
      </trkpt>
      <trkpt lat="41.302466075867414" lon="1.558851599693298">
        <ele>232</ele>
        <time>2018-12-29T07:47:56Z</time>
      </trkpt>
      <trkpt lat="41.302535394206643" lon="1.558787478134036">
        <ele>232</ele>
        <time>2018-12-29T07:47:58Z</time>
      </trkpt>
      <trkpt lat="41.302568335086107" lon="1.558756129816175">
        <ele>232.19999694824219</ele>
        <time>2018-12-29T07:47:59Z</time>
      </trkpt>
      <trkpt lat="41.302599934861064" lon="1.558718075975776">
        <ele>232.39999389648437</ele>
        <time>2018-12-29T07:48:00Z</time>
      </trkpt>
      <trkpt lat="41.302662966772914" lon="1.558640627190471">
        <ele>232.60000610351562</ele>
        <time>2018-12-29T07:48:02Z</time>
      </trkpt>
      <trkpt lat="41.302723819389939" lon="1.558557478711009">
        <ele>232.80000305175781</ele>
        <time>2018-12-29T07:48:04Z</time>
      </trkpt>
      <trkpt lat="41.302783163264394" lon="1.558475168421865">
        <ele>233</ele>
        <time>2018-12-29T07:48:06Z</time>
      </trkpt>
      <trkpt lat="41.302815014496446" lon="1.558436276391149">
        <ele>233.19999694824219</ele>
        <time>2018-12-29T07:48:07Z</time>
      </trkpt>
      <trkpt lat="41.302847703918815" lon="1.558393444865942">
        <ele>233.19999694824219</ele>
        <time>2018-12-29T07:48:08Z</time>
      </trkpt>
      <trkpt lat="41.302879052236676" lon="1.558354636654258">
        <ele>233.19999694824219</ele>
        <time>2018-12-29T07:48:09Z</time>
      </trkpt>
      <trkpt lat="41.302909394726157" lon="1.558314152061939">
        <ele>233.19999694824219</ele>
        <time>2018-12-29T07:48:10Z</time>
      </trkpt>
      <trkpt lat="41.302969995886087" lon="1.558223208412528">
        <ele>233.39999389648437</ele>
        <time>2018-12-29T07:48:12Z</time>
      </trkpt>
      <trkpt lat="41.303029675036669" lon="1.55812949873507">
        <ele>233.60000610351562</ele>
        <time>2018-12-29T07:48:14Z</time>
      </trkpt>
      <trkpt lat="41.30309765227139" lon="1.558038471266627">
        <ele>233.80000305175781</ele>
        <time>2018-12-29T07:48:16Z</time>
      </trkpt>
      <trkpt lat="41.30313185043633" lon="1.557993292808533">
        <ele>233.80000305175781</ele>
        <time>2018-12-29T07:48:17Z</time>
      </trkpt>
      <trkpt lat="41.303165210410953" lon="1.557947108522058">
        <ele>233.80000305175781</ele>
        <time>2018-12-29T07:48:18Z</time>
      </trkpt>
      <trkpt lat="41.303225643932819" lon="1.557857757434249">
        <ele>233.80000305175781</ele>
        <time>2018-12-29T07:48:20Z</time>
      </trkpt>
      <trkpt lat="41.303287502378225" lon="1.557770250365138">
        <ele>234</ele>
        <time>2018-12-29T07:48:22Z</time>
      </trkpt>
      <trkpt lat="41.303348522633314" lon="1.557684671133757">
        <ele>234.19999694824219</ele>
        <time>2018-12-29T07:48:24Z</time>
      </trkpt>
      <trkpt lat="41.303409207612276" lon="1.557597080245614">
        <ele>234.39999389648437</ele>
        <time>2018-12-29T07:48:26Z</time>
      </trkpt>
      <trkpt lat="41.303474586457014" lon="1.557508651167154">
        <ele>234.80000305175781</ele>
        <time>2018-12-29T07:48:28Z</time>
      </trkpt>
      <trkpt lat="41.303538959473372" lon="1.55741561204195">
        <ele>234.80000305175781</ele>
        <time>2018-12-29T07:48:30Z</time>
      </trkpt>
      <trkpt lat="41.303600817918777" lon="1.55732567422092">
        <ele>234.80000305175781</ele>
        <time>2018-12-29T07:48:32Z</time>
      </trkpt>
      <trkpt lat="41.303660832345486" lon="1.557236155495048">
        <ele>235</ele>
        <time>2018-12-29T07:48:34Z</time>
      </trkpt>
      <trkpt lat="41.303722187876701" lon="1.557148648425937">
        <ele>235.19999694824219</ele>
        <time>2018-12-29T07:48:36Z</time>
      </trkpt>
      <trkpt lat="41.303786225616932" lon="1.557066170498729">
        <ele>235.19999694824219</ele>
        <time>2018-12-29T07:48:38Z</time>
      </trkpt>
      <trkpt lat="41.303818328306079" lon="1.557020405307412">
        <ele>235.39999389648437</ele>
        <time>2018-12-29T07:48:39Z</time>
      </trkpt>
      <trkpt lat="41.303850179538131" lon="1.556977070868015">
        <ele>235.39999389648437</ele>
        <time>2018-12-29T07:48:40Z</time>
      </trkpt>
      <trkpt lat="41.30391413345933" lon="1.556888557970524">
        <ele>235.60000610351562</ele>
        <time>2018-12-29T07:48:42Z</time>
      </trkpt>
      <trkpt lat="41.303976578637958" lon="1.556805828586221">
        <ele>235.60000610351562</ele>
        <time>2018-12-29T07:48:44Z</time>
      </trkpt>
      <trkpt lat="41.304036509245634" lon="1.556723853573203">
        <ele>235.80000305175781</ele>
        <time>2018-12-29T07:48:46Z</time>
      </trkpt>
      <trkpt lat="41.30409250035882" lon="1.556637352332473">
        <ele>235.80000305175781</ele>
        <time>2018-12-29T07:48:48Z</time>
      </trkpt>
      <trkpt lat="41.304158130660653" lon="1.55655269511044">
        <ele>236</ele>
        <time>2018-12-29T07:48:50Z</time>
      </trkpt>
      <trkpt lat="41.304223509505391" lon="1.556469043716788">
        <ele>236</ele>
        <time>2018-12-29T07:48:52Z</time>
      </trkpt>
      <trkpt lat="41.304289558902383" lon="1.556382207199931">
        <ele>236.39999389648437</ele>
        <time>2018-12-29T07:48:54Z</time>
      </trkpt>
      <trkpt lat="41.304349489510059" lon="1.556296292692423">
        <ele>236.60000610351562</ele>
        <time>2018-12-29T07:48:56Z</time>
      </trkpt>
      <trkpt lat="41.304409587755799" lon="1.556205935776234">
        <ele>236.80000305175781</ele>
        <time>2018-12-29T07:48:58Z</time>
      </trkpt>
      <trkpt lat="41.304472116753459" lon="1.556124882772565">
        <ele>236.80000305175781</ele>
        <time>2018-12-29T07:49:00Z</time>
      </trkpt>
      <trkpt lat="41.30450539290905" lon="1.556087164208293">
        <ele>236.80000305175781</ele>
        <time>2018-12-29T07:49:01Z</time>
      </trkpt>
      <trkpt lat="41.304541015997529" lon="1.556047601625323">
        <ele>237</ele>
        <time>2018-12-29T07:49:02Z</time>
      </trkpt>
      <trkpt lat="41.304581416770816" lon="1.556017510592938">
        <ele>237</ele>
        <time>2018-12-29T07:49:03Z</time>
      </trkpt>
      <trkpt lat="41.304625337943435" lon="1.555990856140852">
        <ele>237</ele>
        <time>2018-12-29T07:49:04Z</time>
      </trkpt>
      <trkpt lat="41.304712928831577" lon="1.555951964110136">
        <ele>237</ele>
        <time>2018-12-29T07:49:06Z</time>
      </trkpt>
      <trkpt lat="41.304756598547101" lon="1.555938133969903">
        <ele>237.19999694824219</ele>
        <time>2018-12-29T07:49:07Z</time>
      </trkpt>
      <trkpt lat="41.304800268262625" lon="1.555926650762558">
        <ele>237.19999694824219</ele>
        <time>2018-12-29T07:49:08Z</time>
      </trkpt>
      <trkpt lat="41.30484402179718" lon="1.555916927754879">
        <ele>237.39999389648437</ele>
        <time>2018-12-29T07:49:09Z</time>
      </trkpt>
      <trkpt lat="41.304888278245926" lon="1.555908378213644">
        <ele>237.39999389648437</ele>
        <time>2018-12-29T07:49:10Z</time>
      </trkpt>
      <trkpt lat="41.304977964609861" lon="1.55588423833251">
        <ele>237.60000610351562</ele>
        <time>2018-12-29T07:49:12Z</time>
      </trkpt>
      <trkpt lat="41.305069411173463" lon="1.555857919156551">
        <ele>237.80000305175781</ele>
        <time>2018-12-29T07:49:14Z</time>
      </trkpt>
      <trkpt lat="41.305160019546747" lon="1.555833276361227">
        <ele>238</ele>
        <time>2018-12-29T07:49:16Z</time>
      </trkpt>
      <trkpt lat="41.305247861891985" lon="1.555810561403632">
        <ele>238</ele>
        <time>2018-12-29T07:49:18Z</time>
      </trkpt>
      <trkpt lat="41.305335536599159" lon="1.555783152580261">
        <ele>238.19999694824219</ele>
        <time>2018-12-29T07:49:20Z</time>
      </trkpt>
      <trkpt lat="41.30537954159081" lon="1.555772004649043">
        <ele>238.39999389648437</ele>
        <time>2018-12-29T07:49:21Z</time>
      </trkpt>
      <trkpt lat="41.305423295125365" lon="1.555757923051715">
        <ele>238.39999389648437</ele>
        <time>2018-12-29T07:49:22Z</time>
      </trkpt>
      <trkpt lat="41.305468389764428" lon="1.555746691301465">
        <ele>238.60000610351562</ele>
        <time>2018-12-29T07:49:23Z</time>
      </trkpt>
      <trkpt lat="41.305513232946396" lon="1.555735794827342">
        <ele>238.60000610351562</ele>
        <time>2018-12-29T07:49:24Z</time>
      </trkpt>
      <trkpt lat="41.30560576915741" lon="1.555708302184939">
        <ele>238.60000610351562</ele>
        <time>2018-12-29T07:49:26Z</time>
      </trkpt>
      <trkpt lat="41.305698975920677" lon="1.555681312456727">
        <ele>238.80000305175781</ele>
        <time>2018-12-29T07:49:28Z</time>
      </trkpt>
      <trkpt lat="41.305787824094296" lon="1.555656502023339">
        <ele>239.19999694824219</ele>
        <time>2018-12-29T07:49:30Z</time>
      </trkpt>
      <trkpt lat="41.305876253172755" lon="1.555630099028349">
        <ele>239.39999389648437</ele>
        <time>2018-12-29T07:49:32Z</time>
      </trkpt>
      <trkpt lat="41.30592143163085" lon="1.555619956925511">
        <ele>239.39999389648437</ele>
        <time>2018-12-29T07:49:33Z</time>
      </trkpt>
      <trkpt lat="41.305965185165405" lon="1.555608557537198">
        <ele>239.60000610351562</ele>
        <time>2018-12-29T07:49:34Z</time>
      </trkpt>
      <trkpt lat="41.306052692234516" lon="1.555581651628017">
        <ele>239.60000610351562</ele>
        <time>2018-12-29T07:49:36Z</time>
      </trkpt>
      <trkpt lat="41.306139528751373" lon="1.555544100701809">
        <ele>239.80000305175781</ele>
        <time>2018-12-29T07:49:38Z</time>
      </trkpt>
      <trkpt lat="41.306229466572404" lon="1.555500347167254">
        <ele>240</ele>
        <time>2018-12-29T07:49:40Z</time>
      </trkpt>
      <trkpt lat="41.306316470727324" lon="1.555445278063417">
        <ele>240</ele>
        <time>2018-12-29T07:49:42Z</time>
      </trkpt>
      <trkpt lat="41.306401966139674" lon="1.555380905047059">
        <ele>240</ele>
        <time>2018-12-29T07:49:44Z</time>
      </trkpt>
      <trkpt lat="41.306487461552024" lon="1.555312508717179">
        <ele>240</ele>
        <time>2018-12-29T07:49:46Z</time>
      </trkpt>
      <trkpt lat="41.306575471535325" lon="1.555244363844395">
        <ele>240</ele>
        <time>2018-12-29T07:49:48Z</time>
      </trkpt>
      <trkpt lat="41.306663146242499" lon="1.555177979171276">
        <ele>240.19999694824219</ele>
        <time>2018-12-29T07:49:50Z</time>
      </trkpt>
      <trkpt lat="41.306748306378722" lon="1.555113857612014">
        <ele>240.39999389648437</ele>
        <time>2018-12-29T07:49:52Z</time>
      </trkpt>
      <trkpt lat="41.306833634153008" lon="1.555050741881132">
        <ele>240.60000610351562</ele>
        <time>2018-12-29T07:49:54Z</time>
      </trkpt>
      <trkpt lat="41.306914603337646" lon="1.554989805445075">
        <ele>240.80000305175781</ele>
        <time>2018-12-29T07:49:56Z</time>
      </trkpt>
      <trkpt lat="41.306995069608092" lon="1.554930042475462">
        <ele>241.19999694824219</ele>
        <time>2018-12-29T07:49:58Z</time>
      </trkpt>
      <trkpt lat="41.307070422917604" lon="1.554869525134563">
        <ele>241.80000305175781</ele>
        <time>2018-12-29T07:50:00Z</time>
      </trkpt>
      <trkpt lat="41.307141669094563" lon="1.554805655032396">
        <ele>242.19999694824219</ele>
        <time>2018-12-29T07:50:02Z</time>
      </trkpt>
      <trkpt lat="41.307216268032789" lon="1.554754609242082">
        <ele>243</ele>
        <time>2018-12-29T07:50:04Z</time>
      </trkpt>
      <trkpt lat="41.307285837829113" lon="1.554700043052435">
        <ele>243.60000610351562</ele>
        <time>2018-12-29T07:50:06Z</time>
      </trkpt>
      <trkpt lat="41.307348953559995" lon="1.55465142801404">
        <ele>244.19999694824219</ele>
        <time>2018-12-29T07:50:08Z</time>
      </trkpt>
      <trkpt lat="41.307411314919591" lon="1.554604237899184">
        <ele>244.60000610351562</ele>
        <time>2018-12-29T07:50:10Z</time>
      </trkpt>
      <trkpt lat="41.307469652965665" lon="1.554548246785998">
        <ele>245.19999694824219</ele>
        <time>2018-12-29T07:50:12Z</time>
      </trkpt>
      <trkpt lat="41.307534277439117" lon="1.55449896119535">
        <ele>245.60000610351562</ele>
        <time>2018-12-29T07:50:14Z</time>
      </trkpt>
      <trkpt lat="41.30759890191257" lon="1.554449424147606">
        <ele>246</ele>
        <time>2018-12-29T07:50:16Z</time>
      </trkpt>
      <trkpt lat="41.307664448395371" lon="1.554395193234086">
        <ele>246.39999389648437</ele>
        <time>2018-12-29T07:50:18Z</time>
      </trkpt>
      <trkpt lat="41.307728150859475" lon="1.554349428042769">
        <ele>246.80000305175781</ele>
        <time>2018-12-29T07:50:20Z</time>
      </trkpt>
      <trkpt lat="41.30779143422842" lon="1.55430106446147">
        <ele>247.19999694824219</ele>
        <time>2018-12-29T07:50:22Z</time>
      </trkpt>
      <trkpt lat="41.307852622121572" lon="1.554249851033092">
        <ele>247.60000610351562</ele>
        <time>2018-12-29T07:50:24Z</time>
      </trkpt>
      <trkpt lat="41.307915989309549" lon="1.554197296500206">
        <ele>248.19999694824219</ele>
        <time>2018-12-29T07:50:26Z</time>
      </trkpt>
      <trkpt lat="41.307979859411716" lon="1.554150357842445">
        <ele>248.80000305175781</ele>
        <time>2018-12-29T07:50:28Z</time>
      </trkpt>
      <trkpt lat="41.308047501370311" lon="1.554106855764985">
        <ele>249.19999694824219</ele>
        <time>2018-12-29T07:50:30Z</time>
      </trkpt>
      <trkpt lat="41.308110281825066" lon="1.554055055603385">
        <ele>249.60000610351562</ele>
        <time>2018-12-29T07:50:32Z</time>
      </trkpt>
      <trkpt lat="41.308141630142927" lon="1.554029323160648">
        <ele>250</ele>
        <time>2018-12-29T07:50:33Z</time>
      </trkpt>
      <trkpt lat="41.308172978460789" lon="1.554004512727261">
        <ele>250.19999694824219</ele>
        <time>2018-12-29T07:50:34Z</time>
      </trkpt>
      <trkpt lat="41.308233244344592" lon="1.553953383117914">
        <ele>250.60000610351562</ele>
        <time>2018-12-29T07:50:36Z</time>
      </trkpt>
      <trkpt lat="41.308263251557946" lon="1.5539282374084">
        <ele>250.80000305175781</ele>
        <time>2018-12-29T07:50:37Z</time>
      </trkpt>
      <trkpt lat="41.308295018970966" lon="1.553906025364995">
        <ele>251</ele>
        <time>2018-12-29T07:50:38Z</time>
      </trkpt>
      <trkpt lat="41.30832745693624" lon="1.553885573521256">
        <ele>251.19999694824219</ele>
        <time>2018-12-29T07:50:39Z</time>
      </trkpt>
      <trkpt lat="41.308359056711197" lon="1.55386327765882">
        <ele>251.19999694824219</ele>
        <time>2018-12-29T07:50:40Z</time>
      </trkpt>
      <trkpt lat="41.308420412242413" lon="1.553817428648472">
        <ele>251.80000305175781</ele>
        <time>2018-12-29T07:50:42Z</time>
      </trkpt>
      <trkpt lat="41.30847992375493" lon="1.55377040617168">
        <ele>252</ele>
        <time>2018-12-29T07:50:44Z</time>
      </trkpt>
      <trkpt lat="41.308509176596999" lon="1.553746685385704">
        <ele>252.39999389648437</ele>
        <time>2018-12-29T07:50:45Z</time>
      </trkpt>
      <trkpt lat="41.308539099991322" lon="1.553722126409411">
        <ele>252.60000610351562</ele>
        <time>2018-12-29T07:50:46Z</time>
      </trkpt>
      <trkpt lat="41.308598360046744" lon="1.553668398410082">
        <ele>253</ele>
        <time>2018-12-29T07:50:48Z</time>
      </trkpt>
      <trkpt lat="41.308660469949245" lon="1.5536243095994">
        <ele>253.19999694824219</ele>
        <time>2018-12-29T07:50:50Z</time>
      </trkpt>
      <trkpt lat="41.308689806610346" lon="1.553599247708917">
        <ele>253.39999389648437</ele>
        <time>2018-12-29T07:50:51Z</time>
      </trkpt>
      <trkpt lat="41.308719897642732" lon="1.553576197475195">
        <ele>253.80000305175781</ele>
        <time>2018-12-29T07:50:52Z</time>
      </trkpt>
      <trkpt lat="41.308778654783964" lon="1.553526744246483">
        <ele>254.39999389648437</ele>
        <time>2018-12-29T07:50:54Z</time>
      </trkpt>
      <trkpt lat="41.308838250115514" lon="1.553477710112929">
        <ele>255</ele>
        <time>2018-12-29T07:50:56Z</time>
      </trkpt>
      <trkpt lat="41.308896336704493" lon="1.553431022912264">
        <ele>255.39999389648437</ele>
        <time>2018-12-29T07:50:58Z</time>
      </trkpt>
      <trkpt lat="41.308921230956912" lon="1.553408559411764">
        <ele>255.60000610351562</ele>
        <time>2018-12-29T07:50:59Z</time>
      </trkpt>
      <trkpt lat="41.308947466313839" lon="1.553385425359011">
        <ele>255.80000305175781</ele>
        <time>2018-12-29T07:51:00Z</time>
      </trkpt>
      <trkpt lat="41.309000523760915" lon="1.553341336548328">
        <ele>256.20001220703125</ele>
        <time>2018-12-29T07:51:02Z</time>
      </trkpt>
      <trkpt lat="41.309055089950562" lon="1.553297499194741">
        <ele>256.60000610351562</ele>
        <time>2018-12-29T07:51:04Z</time>
      </trkpt>
      <trkpt lat="41.309113763272762" lon="1.553252236917615">
        <ele>257</ele>
        <time>2018-12-29T07:51:06Z</time>
      </trkpt>
      <trkpt lat="41.309141591191292" lon="1.553228935226798">
        <ele>257.20001220703125</ele>
        <time>2018-12-29T07:51:07Z</time>
      </trkpt>
      <trkpt lat="41.309169167652726" lon="1.55320554971695">
        <ele>257.39999389648437</ele>
        <time>2018-12-29T07:51:08Z</time>
      </trkpt>
      <trkpt lat="41.309221470728517" lon="1.553163388743997">
        <ele>257.79998779296875</ele>
        <time>2018-12-29T07:51:10Z</time>
      </trkpt>
      <trkpt lat="41.30927830003202" lon="1.553123826161027">
        <ele>258.20001220703125</ele>
        <time>2018-12-29T07:51:12Z</time>
      </trkpt>
      <trkpt lat="41.309333620592952" lon="1.553082168102264">
        <ele>258.39999389648437</ele>
        <time>2018-12-29T07:51:14Z</time>
      </trkpt>
      <trkpt lat="41.309383325278759" lon="1.553038079291582">
        <ele>259</ele>
        <time>2018-12-29T07:51:16Z</time>
      </trkpt>
      <trkpt lat="41.30943370051682" lon="1.552995247766376">
        <ele>259.39999389648438</ele>
        <time>2018-12-29T07:51:18Z</time>
      </trkpt>
      <trkpt lat="41.30947913043201" lon="1.552949817851186">
        <ele>260</ele>
        <time>2018-12-29T07:51:20Z</time>
      </trkpt>
      <trkpt lat="41.309525733813643" lon="1.552904052659869">
        <ele>260.39999389648437</ele>
        <time>2018-12-29T07:51:22Z</time>
      </trkpt>
      <trkpt lat="41.309568732976913" lon="1.552859209477902">
        <ele>260.60000610351562</ele>
        <time>2018-12-29T07:51:24Z</time>
      </trkpt>
      <trkpt lat="41.309592453762889" lon="1.552834315225482">
        <ele>260.79998779296875</ele>
        <time>2018-12-29T07:51:25Z</time>
      </trkpt>
      <trkpt lat="41.309620030224323" lon="1.552811684086919">
        <ele>260.79998779296875</ele>
        <time>2018-12-29T07:51:26Z</time>
      </trkpt>
      <trkpt lat="41.309641152620316" lon="1.552783604711294">
        <ele>261</ele>
        <time>2018-12-29T07:51:27Z</time>
      </trkpt>
      <trkpt lat="41.309665711596608" lon="1.552754184231162">
        <ele>261.20001220703125</ele>
        <time>2018-12-29T07:51:28Z</time>
      </trkpt>
      <trkpt lat="41.309706028550863" lon="1.552698947489262">
        <ele>261.60000610351562</ele>
        <time>2018-12-29T07:51:30Z</time>
      </trkpt>
      <trkpt lat="41.309729078784585" lon="1.552672376856208">
        <ele>261.79998779296875</ele>
        <time>2018-12-29T07:51:31Z</time>
      </trkpt>
      <trkpt lat="41.309752967208624" lon="1.552647985517979">
        <ele>262</ele>
        <time>2018-12-29T07:51:32Z</time>
      </trkpt>
      <trkpt lat="41.309776017442346" lon="1.55262166634202">
        <ele>262.20001220703125</ele>
        <time>2018-12-29T07:51:33Z</time>
      </trkpt>
      <trkpt lat="41.309797558933496" lon="1.552597107365727">
        <ele>262.20001220703125</ele>
        <time>2018-12-29T07:51:34Z</time>
      </trkpt>
      <trkpt lat="41.309839300811291" lon="1.552554275840521">
        <ele>262.60000610351562</ele>
        <time>2018-12-29T07:51:36Z</time>
      </trkpt>
      <trkpt lat="41.309885568916798" lon="1.552501888945699">
        <ele>263</ele>
        <time>2018-12-29T07:51:38Z</time>
      </trkpt>
      <trkpt lat="41.309907278046012" lon="1.552477581426501">
        <ele>263.20001220703125</ele>
        <time>2018-12-29T07:51:39Z</time>
      </trkpt>
      <trkpt lat="41.309925718232989" lon="1.552453944459558">
        <ele>263.20001220703125</ele>
        <time>2018-12-29T07:51:40Z</time>
      </trkpt>
      <trkpt lat="41.309960754588246" lon="1.552405413240194">
        <ele>263.60000610351562</ele>
        <time>2018-12-29T07:51:42Z</time>
      </trkpt>
      <trkpt lat="41.310000400990248" lon="1.552361827343702">
        <ele>264</ele>
        <time>2018-12-29T07:51:44Z</time>
      </trkpt>
      <trkpt lat="41.310040047392249" lon="1.552319414913654">
        <ele>264.39999389648437</ele>
        <time>2018-12-29T07:51:46Z</time>
      </trkpt>
      <trkpt lat="41.310056056827307" lon="1.552299214527011">
        <ele>264.39999389648437</ele>
        <time>2018-12-29T07:51:47Z</time>
      </trkpt>
      <trkpt lat="41.310077011585236" lon="1.552274571731687">
        <ele>264.39999389648437</ele>
        <time>2018-12-29T07:51:48Z</time>
      </trkpt>
      <trkpt lat="41.310115233063698" lon="1.552225034683943">
        <ele>264.60000610351562</ele>
        <time>2018-12-29T07:51:50Z</time>
      </trkpt>
      <trkpt lat="41.310156136751175" lon="1.552174156531692">
        <ele>264.79998779296875</ele>
        <time>2018-12-29T07:51:52Z</time>
      </trkpt>
      <trkpt lat="41.310197208076715" lon="1.552127217873931">
        <ele>265.20001220703125</ele>
        <time>2018-12-29T07:51:54Z</time>
      </trkpt>
      <trkpt lat="41.310217073187232" lon="1.552104586735368">
        <ele>265.39999389648438</ele>
        <time>2018-12-29T07:51:55Z</time>
      </trkpt>
      <trkpt lat="41.310234591364861" lon="1.552080782130361">
        <ele>265.39999389648438</ele>
        <time>2018-12-29T07:51:56Z</time>
      </trkpt>
      <trkpt lat="41.310272309929132" lon="1.552039459347725">
        <ele>265.79998779296875</ele>
        <time>2018-12-29T07:51:58Z</time>
      </trkpt>
      <trkpt lat="41.310308435931802" lon="1.551996376365423">
        <ele>266.20001220703125</ele>
        <time>2018-12-29T07:52:00Z</time>
      </trkpt>
      <trkpt lat="41.310345232486725" lon="1.55195421539247">
        <ele>266.60000610351562</ele>
        <time>2018-12-29T07:52:02Z</time>
      </trkpt>
      <trkpt lat="41.310383370146155" lon="1.551909372210503">
        <ele>267</ele>
        <time>2018-12-29T07:52:04Z</time>
      </trkpt>
      <trkpt lat="41.310421591624618" lon="1.551861930638552">
        <ele>267.20001220703125</ele>
        <time>2018-12-29T07:52:06Z</time>
      </trkpt>
      <trkpt lat="41.310456125065684" lon="1.551822032779455">
        <ele>267.39999389648437</ele>
        <time>2018-12-29T07:52:08Z</time>
      </trkpt>
      <trkpt lat="41.310472805052996" lon="1.551799820736051">
        <ele>267.60000610351562</ele>
        <time>2018-12-29T07:52:09Z</time>
      </trkpt>
      <trkpt lat="41.310490993782878" lon="1.55177777633071">
        <ele>267.79998779296875</ele>
        <time>2018-12-29T07:52:10Z</time>
      </trkpt>
      <trkpt lat="41.310525443404913" lon="1.551737040281296">
        <ele>268</ele>
        <time>2018-12-29T07:52:12Z</time>
      </trkpt>
      <trkpt lat="41.310559641569853" lon="1.551692867651582">
        <ele>268.20001220703125</ele>
        <time>2018-12-29T07:52:14Z</time>
      </trkpt>
      <trkpt lat="41.310597863048315" lon="1.551648611202836">
        <ele>268.60000610351562</ele>
        <time>2018-12-29T07:52:16Z</time>
      </trkpt>
      <trkpt lat="41.310613369569182" lon="1.55162681825459">
        <ele>268.60000610351562</ele>
        <time>2018-12-29T07:52:17Z</time>
      </trkpt>
      <trkpt lat="41.31063524633646" lon="1.551610054448247">
        <ele>268.79998779296875</ele>
        <time>2018-12-29T07:52:18Z</time>
      </trkpt>
      <trkpt lat="41.310668271034956" lon="1.551571916788817">
        <ele>269</ele>
        <time>2018-12-29T07:52:20Z</time>
      </trkpt>
      <trkpt lat="41.310704313218594" lon="1.55152908526361">
        <ele>269.39999389648437</ele>
        <time>2018-12-29T07:52:22Z</time>
      </trkpt>
      <trkpt lat="41.310737086459994" lon="1.551478039473295">
        <ele>269.39999389648437</ele>
        <time>2018-12-29T07:52:24Z</time>
      </trkpt>
      <trkpt lat="41.310775894671679" lon="1.551433280110359">
        <ele>269.79998779296875</ele>
        <time>2018-12-29T07:52:26Z</time>
      </trkpt>
      <trkpt lat="41.310815876349807" lon="1.551389694213867">
        <ele>270.20001220703125</ele>
        <time>2018-12-29T07:52:28Z</time>
      </trkpt>
      <trkpt lat="41.310854600742459" lon="1.551350131630898">
        <ele>270.39999389648437</ele>
        <time>2018-12-29T07:52:30Z</time>
      </trkpt>
      <trkpt lat="41.310874633491039" lon="1.551332361996174">
        <ele>270.39999389648437</ele>
        <time>2018-12-29T07:52:31Z</time>
      </trkpt>
      <trkpt lat="41.310892319306731" lon="1.55130922794342">
        <ele>270.60000610351562</ele>
        <time>2018-12-29T07:52:32Z</time>
      </trkpt>
      <trkpt lat="41.310908831655979" lon="1.551284585148096">
        <ele>270.79998779296875</ele>
        <time>2018-12-29T07:52:33Z</time>
      </trkpt>
      <trkpt lat="41.310925679281354" lon="1.551261283457279">
        <ele>271</ele>
        <time>2018-12-29T07:52:34Z</time>
      </trkpt>
      <trkpt lat="41.310963816940784" lon="1.551212919875979">
        <ele>271.20001220703125</ele>
        <time>2018-12-29T07:52:36Z</time>
      </trkpt>
      <trkpt lat="41.31100807338953" lon="1.551163801923394">
        <ele>271.39999389648437</ele>
        <time>2018-12-29T07:52:38Z</time>
      </trkpt>
      <trkpt lat="41.3110476359725" lon="1.551114516332746">
        <ele>271.79998779296875</ele>
        <time>2018-12-29T07:52:40Z</time>
      </trkpt>
      <trkpt lat="41.311086276546121" lon="1.551070930436254">
        <ele>272</ele>
        <time>2018-12-29T07:52:42Z</time>
      </trkpt>
      <trkpt lat="41.311123659834266" lon="1.551027009263635">
        <ele>272.39999389648437</ele>
        <time>2018-12-29T07:52:44Z</time>
      </trkpt>
      <trkpt lat="41.311161294579506" lon="1.550980405882001">
        <ele>272.79998779296875</ele>
        <time>2018-12-29T07:52:46Z</time>
      </trkpt>
      <trkpt lat="41.311200521886349" lon="1.550928689539433">
        <ele>273</ele>
        <time>2018-12-29T07:52:48Z</time>
      </trkpt>
      <trkpt lat="41.31124502979219" lon="1.550885187461972">
        <ele>273.39999389648437</ele>
        <time>2018-12-29T07:52:50Z</time>
      </trkpt>
      <trkpt lat="41.311287945136428" lon="1.550843613222241">
        <ele>273.79998779296875</ele>
        <time>2018-12-29T07:52:52Z</time>
      </trkpt>
      <trkpt lat="41.311327340081334" lon="1.550793740898371">
        <ele>274.20001220703125</ele>
        <time>2018-12-29T07:52:54Z</time>
      </trkpt>
      <trkpt lat="41.311366818845272" lon="1.550746886059642">
        <ele>274.39999389648437</ele>
        <time>2018-12-29T07:52:56Z</time>
      </trkpt>
      <trkpt lat="41.311403531581163" lon="1.550695588812232">
        <ele>274.79998779296875</ele>
        <time>2018-12-29T07:52:58Z</time>
      </trkpt>
      <trkpt lat="41.31142096593976" lon="1.550668682903051">
        <ele>275</ele>
        <time>2018-12-29T07:52:59Z</time>
      </trkpt>
      <trkpt lat="41.311437394469976" lon="1.550639932975173">
        <ele>275.20001220703125</ele>
        <time>2018-12-29T07:53:00Z</time>
      </trkpt>
      <trkpt lat="41.311476454138756" lon="1.550582349300385">
        <ele>275.39999389648437</ele>
        <time>2018-12-29T07:53:02Z</time>
      </trkpt>
      <trkpt lat="41.311513837426901" lon="1.550523340702057">
        <ele>275.79998779296875</ele>
        <time>2018-12-29T07:53:04Z</time>
      </trkpt>
      <trkpt lat="41.3115294277668" lon="1.550493501126766">
        <ele>276</ele>
        <time>2018-12-29T07:53:05Z</time>
      </trkpt>
      <trkpt lat="41.31154309026897" lon="1.550464918836951">
        <ele>276.20001220703125</ele>
        <time>2018-12-29T07:53:06Z</time>
      </trkpt>
      <trkpt lat="41.311572343111038" lon="1.550411358475685">
        <ele>276.39999389648438</ele>
        <time>2018-12-29T07:53:08Z</time>
      </trkpt>
      <trkpt lat="41.311602350324392" lon="1.550345895811915">
        <ele>276.60000610351562</ele>
        <time>2018-12-29T07:53:10Z</time>
      </trkpt>
      <trkpt lat="41.311631519347429" lon="1.550278337672353">
        <ele>277</ele>
        <time>2018-12-29T07:53:12Z</time>
      </trkpt>
      <trkpt lat="41.311662700027227" lon="1.550217065960169">
        <ele>277.20001220703125</ele>
        <time>2018-12-29T07:53:14Z</time>
      </trkpt>
      <trkpt lat="41.311695892363787" lon="1.550159230828285">
        <ele>277.60000610351562</ele>
        <time>2018-12-29T07:53:16Z</time>
      </trkpt>
      <trkpt lat="41.311709387227893" lon="1.550129558891058">
        <ele>278</ele>
        <time>2018-12-29T07:53:17Z</time>
      </trkpt>
      <trkpt lat="41.311722295358777" lon="1.550099886953831">
        <ele>278</ele>
        <time>2018-12-29T07:53:18Z</time>
      </trkpt>
      <trkpt lat="41.311750961467624" lon="1.550039201974869">
        <ele>278.20001220703125</ele>
        <time>2018-12-29T07:53:20Z</time>
      </trkpt>
      <trkpt lat="41.311765713617206" lon="1.550011122599244">
        <ele>278.39999389648437</ele>
        <time>2018-12-29T07:53:21Z</time>
      </trkpt>
      <trkpt lat="41.311780884861946" lon="1.549980780109763">
        <ele>278.39999389648437</ele>
        <time>2018-12-29T07:53:22Z</time>
      </trkpt>
      <trkpt lat="41.311814077198505" lon="1.549926549196243">
        <ele>278.79998779296875</ele>
        <time>2018-12-29T07:53:24Z</time>
      </trkpt>
      <trkpt lat="41.311845425516367" lon="1.549864271655679">
        <ele>279</ele>
        <time>2018-12-29T07:53:26Z</time>
      </trkpt>
      <trkpt lat="41.311859088018537" lon="1.549834432080388">
        <ele>279.20001220703125</ele>
        <time>2018-12-29T07:53:27Z</time>
      </trkpt>
      <trkpt lat="41.311874175444245" lon="1.549803502857685">
        <ele>279.39999389648438</ele>
        <time>2018-12-29T07:53:28Z</time>
      </trkpt>
      <trkpt lat="41.311902338638902" lon="1.549742734059691">
        <ele>279.60000610351562</ele>
        <time>2018-12-29T07:53:30Z</time>
      </trkpt>
      <trkpt lat="41.311932764947414" lon="1.549681797623634">
        <ele>279.79998779296875</ele>
        <time>2018-12-29T07:53:32Z</time>
      </trkpt>
      <trkpt lat="41.311961347237229" lon="1.549617256969214">
        <ele>280</ele>
        <time>2018-12-29T07:53:34Z</time>
      </trkpt>
      <trkpt lat="41.31197601556778" lon="1.549585657194257">
        <ele>280.20001220703125</ele>
        <time>2018-12-29T07:53:35Z</time>
      </trkpt>
      <trkpt lat="41.311993533745408" lon="1.549554476514459">
        <ele>280.20001220703125</ele>
        <time>2018-12-29T07:53:36Z</time>
      </trkpt>
      <trkpt lat="41.312009207904339" lon="1.549523379653692">
        <ele>280.39999389648437</ele>
        <time>2018-12-29T07:53:37Z</time>
      </trkpt>
      <trkpt lat="41.312023876234889" lon="1.54949102550745">
        <ele>280.60000610351562</ele>
        <time>2018-12-29T07:53:38Z</time>
      </trkpt>
      <trkpt lat="41.31205128505826" lon="1.549429753795266">
        <ele>281.20001220703125</ele>
        <time>2018-12-29T07:53:40Z</time>
      </trkpt>
      <trkpt lat="41.3120820466429" lon="1.549372421577573">
        <ele>281.39999389648437</ele>
        <time>2018-12-29T07:53:42Z</time>
      </trkpt>
      <trkpt lat="41.312096128240228" lon="1.549340737983584">
        <ele>281.39999389648437</ele>
        <time>2018-12-29T07:53:43Z</time>
      </trkpt>
      <trkpt lat="41.312108198180795" lon="1.549308048561215">
        <ele>281.60000610351562</ele>
        <time>2018-12-29T07:53:44Z</time>
      </trkpt>
      <trkpt lat="41.31212362088263" lon="1.54927653260529">
        <ele>281.79998779296875</ele>
        <time>2018-12-29T07:53:45Z</time>
      </trkpt>
      <trkpt lat="41.312138959765434" lon="1.549246190115809">
        <ele>282.20001220703125</ele>
        <time>2018-12-29T07:53:46Z</time>
      </trkpt>
      <trkpt lat="41.312172235921025" lon="1.549189276993275">
        <ele>282.60000610351562</ele>
        <time>2018-12-29T07:53:48Z</time>
      </trkpt>
      <trkpt lat="41.312204925343394" lon="1.54912599362433">
        <ele>282.79998779296875</ele>
        <time>2018-12-29T07:53:50Z</time>
      </trkpt>
      <trkpt lat="41.312235351651907" lon="1.549070337787271">
        <ele>283.39999389648437</ele>
        <time>2018-12-29T07:53:52Z</time>
      </trkpt>
      <trkpt lat="41.312264185398817" lon="1.549005629494786">
        <ele>283.79998779296875</ele>
        <time>2018-12-29T07:53:54Z</time>
      </trkpt>
      <trkpt lat="41.31229167804122" lon="1.548943938687444">
        <ele>284.20001220703125</ele>
        <time>2018-12-29T07:53:56Z</time>
      </trkpt>
      <trkpt lat="41.312323193997145" lon="1.548885433003306">
        <ele>284.20001220703125</ele>
        <time>2018-12-29T07:53:58Z</time>
      </trkpt>
      <trkpt lat="41.312356386333704" lon="1.54882843606174">
        <ele>284.39999389648437</ele>
        <time>2018-12-29T07:54:00Z</time>
      </trkpt>
      <trkpt lat="41.312387231737375" lon="1.548769678920507">
        <ele>284.79998779296875</ele>
        <time>2018-12-29T07:54:02Z</time>
      </trkpt>
      <trkpt lat="41.31241774186492" lon="1.548702036961913">
        <ele>285.39999389648438</ele>
        <time>2018-12-29T07:54:04Z</time>
      </trkpt>
      <trkpt lat="41.312451856210828" lon="1.548640513792634">
        <ele>285.79998779296875</ele>
        <time>2018-12-29T07:54:06Z</time>
      </trkpt>
      <trkpt lat="41.31248077377677" lon="1.548578068614006">
        <ele>286</ele>
        <time>2018-12-29T07:54:08Z</time>
      </trkpt>
      <trkpt lat="41.312495358288288" lon="1.54854261316359">
        <ele>286.20001220703125</ele>
        <time>2018-12-29T07:54:09Z</time>
      </trkpt>
      <trkpt lat="41.312512373551726" lon="1.548509337007999">
        <ele>286.39999389648437</ele>
        <time>2018-12-29T07:54:10Z</time>
      </trkpt>
      <trkpt lat="41.312545733526349" lon="1.548444293439388">
        <ele>286.60000610351562</ele>
        <time>2018-12-29T07:54:12Z</time>
      </trkpt>
      <trkpt lat="41.312581691890955" lon="1.548380423337221">
        <ele>287</ele>
        <time>2018-12-29T07:54:14Z</time>
      </trkpt>
      <trkpt lat="41.312601054087281" lon="1.548349158838391">
        <ele>287</ele>
        <time>2018-12-29T07:54:15Z</time>
      </trkpt>
      <trkpt lat="41.31262150593102" lon="1.548317894339562">
        <ele>287.20001220703125</ele>
        <time>2018-12-29T07:54:16Z</time>
      </trkpt>
      <trkpt lat="41.312660984694958" lon="1.548263663426042">
        <ele>287.20001220703125</ele>
        <time>2018-12-29T07:54:18Z</time>
      </trkpt>
      <trkpt lat="41.312703061848879" lon="1.54820985160768">
        <ele>287.79998779296875</ele>
        <time>2018-12-29T07:54:20Z</time>
      </trkpt>
      <trkpt lat="41.312724938616157" lon="1.54818395152688">
        <ele>288.39999389648437</ele>
        <time>2018-12-29T07:54:21Z</time>
      </trkpt>
      <trkpt lat="41.312746899202466" lon="1.548158973455429">
        <ele>288.39999389648437</ele>
        <time>2018-12-29T07:54:22Z</time>
      </trkpt>
      <trkpt lat="41.312791490927339" lon="1.548104658722878">
        <ele>288.60000610351562</ele>
        <time>2018-12-29T07:54:24Z</time>
      </trkpt>
      <trkpt lat="41.312834825366735" lon="1.548054032027721">
        <ele>289</ele>
        <time>2018-12-29T07:54:26Z</time>
      </trkpt>
      <trkpt lat="41.312881261110306" lon="1.548006171360612">
        <ele>289.20001220703125</ele>
        <time>2018-12-29T07:54:28Z</time>
      </trkpt>
      <trkpt lat="41.312903976067901" lon="1.547981780022383">
        <ele>289.60000610351562</ele>
        <time>2018-12-29T07:54:29Z</time>
      </trkpt>
      <trkpt lat="41.312922164797783" lon="1.547958981245756">
        <ele>289.79998779296875</ele>
        <time>2018-12-29T07:54:30Z</time>
      </trkpt>
      <trkpt lat="41.312955860048532" lon="1.547905504703522">
        <ele>290.20001220703125</ele>
        <time>2018-12-29T07:54:32Z</time>
      </trkpt>
      <trkpt lat="41.313002966344357" lon="1.547854375094175">
        <ele>290.60000610351562</ele>
        <time>2018-12-29T07:54:34Z</time>
      </trkpt>
      <trkpt lat="41.313026351854205" lon="1.547829564660788">
        <ele>290.79998779296875</ele>
        <time>2018-12-29T07:54:35Z</time>
      </trkpt>
      <trkpt lat="41.313050743192434" lon="1.54780425131321">
        <ele>291.20001220703125</ele>
        <time>2018-12-29T07:54:36Z</time>
      </trkpt>
      <trkpt lat="41.313095921650529" lon="1.547749768942595">
        <ele>291.39999389648437</ele>
        <time>2018-12-29T07:54:38Z</time>
      </trkpt>
      <trkpt lat="41.313141938298941" lon="1.547694532200694">
        <ele>291.60000610351562</ele>
        <time>2018-12-29T07:54:40Z</time>
      </trkpt>
      <trkpt lat="41.313162390142679" lon="1.547668045386672">
        <ele>291.79998779296875</ele>
        <time>2018-12-29T07:54:41Z</time>
      </trkpt>
      <trkpt lat="41.313184015452862" lon="1.547642564401031">
        <ele>292</ele>
        <time>2018-12-29T07:54:42Z</time>
      </trkpt>
      <trkpt lat="41.313208239153028" lon="1.547613395377994">
        <ele>292.20001220703125</ele>
        <time>2018-12-29T07:54:43Z</time>
      </trkpt>
      <trkpt lat="41.313230115920305" lon="1.547585651278496">
        <ele>292.20001220703125</ele>
        <time>2018-12-29T07:54:44Z</time>
      </trkpt>
      <trkpt lat="41.313277138397098" lon="1.547531001269817">
        <ele>292.60000610351562</ele>
        <time>2018-12-29T07:54:46Z</time>
      </trkpt>
      <trkpt lat="41.313326843082905" lon="1.5474783629179">
        <ele>292.79998779296875</ele>
        <time>2018-12-29T07:54:48Z</time>
      </trkpt>
      <trkpt lat="41.313373865559697" lon="1.547422036528587">
        <ele>293</ele>
        <time>2018-12-29T07:54:50Z</time>
      </trkpt>
      <trkpt lat="41.313421642407775" lon="1.547369481995702">
        <ele>293.20001220703125</ele>
        <time>2018-12-29T07:54:52Z</time>
      </trkpt>
      <trkpt lat="41.313467072322965" lon="1.547313071787357">
        <ele>293.79998779296875</ele>
        <time>2018-12-29T07:54:54Z</time>
      </trkpt>
      <trkpt lat="41.313506718724966" lon="1.547255655750632">
        <ele>294</ele>
        <time>2018-12-29T07:54:56Z</time>
      </trkpt>
      <trkpt lat="41.313551058992743" lon="1.547204107046127">
        <ele>294.20001220703125</ele>
        <time>2018-12-29T07:54:58Z</time>
      </trkpt>
      <trkpt lat="41.313597830012441" lon="1.547153228893876">
        <ele>294.79998779296875</ele>
        <time>2018-12-29T07:55:00Z</time>
      </trkpt>
      <trkpt lat="41.313649211078882" lon="1.547099333256483">
        <ele>295</ele>
        <time>2018-12-29T07:55:02Z</time>
      </trkpt>
      <trkpt lat="41.313702017068863" lon="1.54705130495131">
        <ele>295.20001220703125</ele>
        <time>2018-12-29T07:55:04Z</time>
      </trkpt>
      <trkpt lat="41.313756834715605" lon="1.547012412920594">
        <ele>295.60000610351562</ele>
        <time>2018-12-29T07:55:06Z</time>
      </trkpt>
      <trkpt lat="41.313826153054833" lon="1.546998079866171">
        <ele>296</ele>
        <time>2018-12-29T07:55:08Z</time>
      </trkpt>
      <trkpt lat="41.313857920467854" lon="1.546996654942632">
        <ele>296.20001220703125</ele>
        <time>2018-12-29T07:55:09Z</time>
      </trkpt>
      <trkpt lat="41.313889939337969" lon="1.547002019360662">
        <ele>296.39999389648438</ele>
        <time>2018-12-29T07:55:10Z</time>
      </trkpt>
      <trkpt lat="41.31395447999239" lon="1.547012077644467">
        <ele>296.60000610351562</ele>
        <time>2018-12-29T07:55:12Z</time>
      </trkpt>
      <trkpt lat="41.314013404771686" lon="1.547030853107572">
        <ele>297</ele>
        <time>2018-12-29T07:55:14Z</time>
      </trkpt>
      <trkpt lat="41.314048022031784" lon="1.547039905562997">
        <ele>297.20001220703125</ele>
        <time>2018-12-29T07:55:15Z</time>
      </trkpt>
      <trkpt lat="41.314082639291883" lon="1.547049880027771">
        <ele>297.20001220703125</ele>
        <time>2018-12-29T07:55:16Z</time>
      </trkpt>
      <trkpt lat="41.314154136925936" lon="1.547077288851142">
        <ele>297.60000610351562</ele>
        <time>2018-12-29T07:55:18Z</time>
      </trkpt>
      <trkpt lat="41.314224293455482" lon="1.547103440389037">
        <ele>297.79998779296875</ele>
        <time>2018-12-29T07:55:20Z</time>
      </trkpt>
      <trkpt lat="41.314289085566998" lon="1.547126406803727">
        <ele>298</ele>
        <time>2018-12-29T07:55:22Z</time>
      </trkpt>
      <trkpt lat="41.314352033659816" lon="1.54714266769588">
        <ele>298.20001220703125</ele>
        <time>2018-12-29T07:55:24Z</time>
      </trkpt>
      <trkpt lat="41.314385812729597" lon="1.547152725979686">
        <ele>298.39999389648437</ele>
        <time>2018-12-29T07:55:25Z</time>
      </trkpt>
      <trkpt lat="41.314420094713569" lon="1.547159347683191">
        <ele>298.60000610351562</ele>
        <time>2018-12-29T07:55:26Z</time>
      </trkpt>
      <trkpt lat="41.31448807194829" lon="1.547163454815745">
        <ele>299</ele>
        <time>2018-12-29T07:55:28Z</time>
      </trkpt>
      <trkpt lat="41.31455454044044" lon="1.547148954123259">
        <ele>299.20001220703125</ele>
        <time>2018-12-29T07:55:30Z</time>
      </trkpt>
      <trkpt lat="41.314620170742273" lon="1.547121796756983">
        <ele>299.39999389648438</ele>
        <time>2018-12-29T07:55:32Z</time>
      </trkpt>
      <trkpt lat="41.314686136320233" lon="1.547093465924263">
        <ele>299.39999389648438</ele>
        <time>2018-12-29T07:55:34Z</time>
      </trkpt>
      <trkpt lat="41.314752856269479" lon="1.547065805643797">
        <ele>299.60000610351562</ele>
        <time>2018-12-29T07:55:36Z</time>
      </trkpt>
      <trkpt lat="41.314817816019058" lon="1.547034038230777">
        <ele>299.79998779296875</ele>
        <time>2018-12-29T07:55:38Z</time>
      </trkpt>
      <trkpt lat="41.314881267026067" lon="1.546999672427774">
        <ele>300.20001220703125</ele>
        <time>2018-12-29T07:55:40Z</time>
      </trkpt>
      <trkpt lat="41.314911860972643" lon="1.546984585002065">
        <ele>300.39999389648437</ele>
        <time>2018-12-29T07:55:41Z</time>
      </trkpt>
      <trkpt lat="41.314942371100187" lon="1.546964971348643">
        <ele>300.60000610351562</ele>
        <time>2018-12-29T07:55:42Z</time>
      </trkpt>
      <trkpt lat="41.315004145726562" lon="1.546925324946642">
        <ele>301</ele>
        <time>2018-12-29T07:55:44Z</time>
      </trkpt>
      <trkpt lat="41.315061058849096" lon="1.546873776242137">
        <ele>301.20001220703125</ele>
        <time>2018-12-29T07:55:46Z</time>
      </trkpt>
      <trkpt lat="41.315112356096506" lon="1.546817952767015">
        <ele>301.39999389648437</ele>
        <time>2018-12-29T07:55:48Z</time>
      </trkpt>
      <trkpt lat="41.315130293369293" lon="1.546784760430455">
        <ele>301.60000610351562</ele>
        <time>2018-12-29T07:55:49Z</time>
      </trkpt>
      <trkpt lat="41.315150409936905" lon="1.546748466789722">
        <ele>301.79998779296875</ele>
        <time>2018-12-29T07:55:50Z</time>
      </trkpt>
      <trkpt lat="41.315184105187654" lon="1.546667832881212">
        <ele>302</ele>
        <time>2018-12-29T07:55:52Z</time>
      </trkpt>
      <trkpt lat="41.315204976126552" lon="1.546588456258178">
        <ele>302.20001220703125</ele>
        <time>2018-12-29T07:55:54Z</time>
      </trkpt>
      <trkpt lat="41.315208077430725" lon="1.546541769057512">
        <ele>302.39999389648438</ele>
        <time>2018-12-29T07:55:55Z</time>
      </trkpt>
      <trkpt lat="41.315212519839406" lon="1.546495920047164">
        <ele>302.39999389648438</ele>
        <time>2018-12-29T07:55:56Z</time>
      </trkpt>
      <trkpt lat="41.315231211483479" lon="1.54639701358974">
        <ele>302.20001220703125</ele>
        <time>2018-12-29T07:55:58Z</time>
      </trkpt>
      <trkpt lat="41.315253926441073" lon="1.546297771856189">
        <ele>302.39999389648438</ele>
        <time>2018-12-29T07:56:00Z</time>
      </trkpt>
      <trkpt lat="41.315285861492157" lon="1.546204816550016">
        <ele>302.79998779296875</ele>
        <time>2018-12-29T07:56:02Z</time>
      </trkpt>
      <trkpt lat="41.315303714945912" lon="1.546159638091922">
        <ele>302.79998779296875</ele>
        <time>2018-12-29T07:56:03Z</time>
      </trkpt>
      <trkpt lat="41.315320562571287" lon="1.546112280339003">
        <ele>303</ele>
        <time>2018-12-29T07:56:04Z</time>
      </trkpt>
      <trkpt lat="41.315354509279132" lon="1.546021336689591">
        <ele>303.20001220703125</ele>
        <time>2018-12-29T07:56:06Z</time>
      </trkpt>
      <trkpt lat="41.31538568995893" lon="1.545927878469229">
        <ele>303.20001220703125</ele>
        <time>2018-12-29T07:56:08Z</time>
      </trkpt>
      <trkpt lat="41.315419217571616" lon="1.545838862657547">
        <ele>303.39999389648437</ele>
        <time>2018-12-29T07:56:10Z</time>
      </trkpt>
      <trkpt lat="41.315454756841063" lon="1.545743560418487">
        <ele>303.39999389648437</ele>
        <time>2018-12-29T07:56:12Z</time>
      </trkpt>
      <trkpt lat="41.315471855923533" lon="1.545696621760726">
        <ele>303.39999389648437</ele>
        <time>2018-12-29T07:56:13Z</time>
      </trkpt>
      <trkpt lat="41.315488535910845" lon="1.545646665617824">
        <ele>303.39999389648437</ele>
        <time>2018-12-29T07:56:14Z</time>
      </trkpt>
      <trkpt lat="41.315522063523531" lon="1.54555362649262">
        <ele>303.60000610351562</ele>
        <time>2018-12-29T07:56:16Z</time>
      </trkpt>
      <trkpt lat="41.315539162606001" lon="1.545508280396462">
        <ele>303.79998779296875</ele>
        <time>2018-12-29T07:56:17Z</time>
      </trkpt>
      <trkpt lat="41.315554836764932" lon="1.545461928471923">
        <ele>303.79998779296875</ele>
        <time>2018-12-29T07:56:18Z</time>
      </trkpt>
      <trkpt lat="41.315587358549237" lon="1.545375175774097">
        <ele>304.20001220703125</ele>
        <time>2018-12-29T07:56:20Z</time>
      </trkpt>
      <trkpt lat="41.31562122143805" lon="1.545290099456906">
        <ele>304.39999389648437</ele>
        <time>2018-12-29T07:56:22Z</time>
      </trkpt>
      <trkpt lat="41.315638404339552" lon="1.545243244618177">
        <ele>304.39999389648437</ele>
        <time>2018-12-29T07:56:23Z</time>
      </trkpt>
      <trkpt lat="41.315655838698149" lon="1.545196054503322">
        <ele>304.39999389648437</ele>
        <time>2018-12-29T07:56:24Z</time>
      </trkpt>
      <trkpt lat="41.315692970529199" lon="1.545100836083293">
        <ele>304.60000610351562</ele>
        <time>2018-12-29T07:56:26Z</time>
      </trkpt>
      <trkpt lat="41.315723229199648" lon="1.545005952939391">
        <ele>304.79998779296875</ele>
        <time>2018-12-29T07:56:28Z</time>
      </trkpt>
      <trkpt lat="41.315754242241383" lon="1.544917775318027">
        <ele>305.20001220703125</ele>
        <time>2018-12-29T07:56:30Z</time>
      </trkpt>
      <trkpt lat="41.315794978290796" lon="1.544839236885309">
        <ele>305.39999389648437</ele>
        <time>2018-12-29T07:56:32Z</time>
      </trkpt>
      <trkpt lat="41.315848706290126" lon="1.544765643775463">
        <ele>305.60000610351562</ele>
        <time>2018-12-29T07:56:34Z</time>
      </trkpt>
      <trkpt lat="41.31588215008378" lon="1.544737983494997">
        <ele>306</ele>
        <time>2018-12-29T07:56:35Z</time>
      </trkpt>
      <trkpt lat="41.315910816192627" lon="1.54470881447196">
        <ele>306.20001220703125</ele>
        <time>2018-12-29T07:56:36Z</time>
      </trkpt>
      <trkpt lat="41.315973680466413" lon="1.544645363464952">
        <ele>306.60000610351562</ele>
        <time>2018-12-29T07:56:38Z</time>
      </trkpt>
      <trkpt lat="41.316037299111485" lon="1.544582918286324">
        <ele>306.60000610351562</ele>
        <time>2018-12-29T07:56:40Z</time>
      </trkpt>
      <trkpt lat="41.31609714590013" lon="1.544524831697345">
        <ele>306.79998779296875</ele>
        <time>2018-12-29T07:56:42Z</time>
      </trkpt>
      <trkpt lat="41.316155567765236" lon="1.544466242194176">
        <ele>307</ele>
        <time>2018-12-29T07:56:44Z</time>
      </trkpt>
      <trkpt lat="41.316218432039022" lon="1.544404970481992">
        <ele>307.20001220703125</ele>
        <time>2018-12-29T07:56:46Z</time>
      </trkpt>
      <trkpt lat="41.316280290484428" lon="1.544335568323731">
        <ele>307.39999389648437</ele>
        <time>2018-12-29T07:56:48Z</time>
      </trkpt>
      <trkpt lat="41.316344328224659" lon="1.544269351288676">
        <ele>307.79998779296875</ele>
        <time>2018-12-29T07:56:50Z</time>
      </trkpt>
      <trkpt lat="41.316403755918145" lon="1.544203050434589">
        <ele>308</ele>
        <time>2018-12-29T07:56:52Z</time>
      </trkpt>
      <trkpt lat="41.316432505846024" lon="1.544169774278998">
        <ele>308.39999389648437</ele>
        <time>2018-12-29T07:56:53Z</time>
      </trkpt>
      <trkpt lat="41.316460249945521" lon="1.544137168675661">
        <ele>308.39999389648437</ele>
        <time>2018-12-29T07:56:54Z</time>
      </trkpt>
      <trkpt lat="41.316520683467388" lon="1.544085452333093">
        <ele>308.60000610351562</ele>
        <time>2018-12-29T07:56:56Z</time>
      </trkpt>
      <trkpt lat="41.316588828340173" lon="1.54404086060822">
        <ele>308.60000610351562</ele>
        <time>2018-12-29T07:56:58Z</time>
      </trkpt>
      <trkpt lat="41.316668288782239" lon="1.54401739127934">
        <ele>308.79998779296875</ele>
        <time>2018-12-29T07:57:00Z</time>
      </trkpt>
      <trkpt lat="41.316739115864038" lon="1.544012194499373">
        <ele>309.20001220703125</ele>
        <time>2018-12-29T07:57:02Z</time>
      </trkpt>
      <trkpt lat="41.316774822771549" lon="1.544003812596202">
        <ele>309.60000610351562</ele>
        <time>2018-12-29T07:57:03Z</time>
      </trkpt>
      <trkpt lat="41.316810697317123" lon="1.543992329388857">
        <ele>309.79998779296875</ele>
        <time>2018-12-29T07:57:04Z</time>
      </trkpt>
      <trkpt lat="41.316877836361527" lon="1.543948156759143">
        <ele>310.20001220703125</ele>
        <time>2018-12-29T07:57:06Z</time>
      </trkpt>
      <trkpt lat="41.316940784454346" lon="1.543891914188862">
        <ele>310.20001220703125</ele>
        <time>2018-12-29T07:57:08Z</time>
      </trkpt>
      <trkpt lat="41.316971713677049" lon="1.543860817328095">
        <ele>310.39999389648437</ele>
        <time>2018-12-29T07:57:09Z</time>
      </trkpt>
      <trkpt lat="41.317001469433308" lon="1.543827373534441">
        <ele>310.39999389648437</ele>
        <time>2018-12-29T07:57:10Z</time>
      </trkpt>
      <trkpt lat="41.317051006481051" lon="1.543753109872341">
        <ele>310.60000610351562</ele>
        <time>2018-12-29T07:57:12Z</time>
      </trkpt>
      <trkpt lat="41.317093586549163" lon="1.54367633163929">
        <ele>311</ele>
        <time>2018-12-29T07:57:14Z</time>
      </trkpt>
      <trkpt lat="41.317110517993569" lon="1.543635847046971">
        <ele>311.20001220703125</ele>
        <time>2018-12-29T07:57:15Z</time>
      </trkpt>
      <trkpt lat="41.317129209637642" lon="1.543593686074019">
        <ele>311.39999389648437</ele>
        <time>2018-12-29T07:57:16Z</time>
      </trkpt>
      <trkpt lat="41.317163407802582" lon="1.543512549251318">
        <ele>311.79998779296875</ele>
        <time>2018-12-29T07:57:18Z</time>
      </trkpt>
      <trkpt lat="41.317197605967522" lon="1.543425042182207">
        <ele>312</ele>
        <time>2018-12-29T07:57:20Z</time>
      </trkpt>
      <trkpt lat="41.317225433886051" lon="1.543337535113096">
        <ele>312.39999389648437</ele>
        <time>2018-12-29T07:57:22Z</time>
      </trkpt>
      <trkpt lat="41.317255944013596" lon="1.543250111863017">
        <ele>312.79998779296875</ele>
        <time>2018-12-29T07:57:24Z</time>
      </trkpt>
      <trkpt lat="41.317280251532793" lon="1.543162856251001">
        <ele>313.20001220703125</ele>
        <time>2018-12-29T07:57:26Z</time>
      </trkpt>
      <trkpt lat="41.317304559051991" lon="1.543075013905764">
        <ele>313.39999389648438</ele>
        <time>2018-12-29T07:57:28Z</time>
      </trkpt>
      <trkpt lat="41.317324340343475" lon="1.542988177388907">
        <ele>313.79998779296875</ele>
        <time>2018-12-29T07:57:30Z</time>
      </trkpt>
      <trkpt lat="41.317333308979869" lon="1.542944675311446">
        <ele>314</ele>
        <time>2018-12-29T07:57:31Z</time>
      </trkpt>
      <trkpt lat="41.317345630377531" lon="1.542902681976557">
        <ele>314.20001220703125</ele>
        <time>2018-12-29T07:57:32Z</time>
      </trkpt>
      <trkpt lat="41.317366668954492" lon="1.542815007269383">
        <ele>314.60000610351562</ele>
        <time>2018-12-29T07:57:34Z</time>
      </trkpt>
      <trkpt lat="41.317392904311419" lon="1.542727500200272">
        <ele>315</ele>
        <time>2018-12-29T07:57:36Z</time>
      </trkpt>
      <trkpt lat="41.317413523793221" lon="1.542643429711461">
        <ele>315.20001220703125</ele>
        <time>2018-12-29T07:57:38Z</time>
      </trkpt>
      <trkpt lat="41.317436406388879" lon="1.542559526860714">
        <ele>315.60000610351562</ele>
        <time>2018-12-29T07:57:40Z</time>
      </trkpt>
      <trkpt lat="41.317453421652317" lon="1.54246942140162">
        <ele>316</ele>
        <time>2018-12-29T07:57:42Z</time>
      </trkpt>
      <trkpt lat="41.317476136609912" lon="1.542384428903461">
        <ele>316.39999389648438</ele>
        <time>2018-12-29T07:57:44Z</time>
      </trkpt>
      <trkpt lat="41.317494241520762" lon="1.542293820530176">
        <ele>316.60000610351562</ele>
        <time>2018-12-29T07:57:46Z</time>
      </trkpt>
      <trkpt lat="41.317506143823266" lon="1.542207151651382">
        <ele>317</ele>
        <time>2018-12-29T07:57:48Z</time>
      </trkpt>
      <trkpt lat="41.317507652565837" lon="1.542161135002971">
        <ele>317.20001220703125</ele>
        <time>2018-12-29T07:57:49Z</time>
      </trkpt>
      <trkpt lat="41.317511592060328" lon="1.542117297649384">
        <ele>317.39999389648437</ele>
        <time>2018-12-29T07:57:50Z</time>
      </trkpt>
      <trkpt lat="41.317508574575186" lon="1.542026773095131">
        <ele>317.79998779296875</ele>
        <time>2018-12-29T07:57:52Z</time>
      </trkpt>
      <trkpt lat="41.317502120509744" lon="1.5419368352741">
        <ele>318.20001220703125</ele>
        <time>2018-12-29T07:57:54Z</time>
      </trkpt>
      <trkpt lat="41.317499522119761" lon="1.541893668472767">
        <ele>318.20001220703125</ele>
        <time>2018-12-29T07:57:55Z</time>
      </trkpt>
      <trkpt lat="41.317496923729777" lon="1.541849495843053">
        <ele>318.39999389648437</ele>
        <time>2018-12-29T07:57:56Z</time>
      </trkpt>
      <trkpt lat="41.317484602332115" lon="1.541763162240386">
        <ele>318.79998779296875</ele>
        <time>2018-12-29T07:57:58Z</time>
      </trkpt>
      <trkpt lat="41.317473705857992" lon="1.541681187227368">
        <ele>319</ele>
        <time>2018-12-29T07:58:00Z</time>
      </trkpt>
      <trkpt lat="41.317465743049979" lon="1.541592422872782">
        <ele>319.39999389648438</ele>
        <time>2018-12-29T07:58:02Z</time>
      </trkpt>
      <trkpt lat="41.317459205165505" lon="1.541495863348246">
        <ele>319.60000610351562</ele>
        <time>2018-12-29T07:58:04Z</time>
      </trkpt>
      <trkpt lat="41.317461300641298" lon="1.541404500603676">
        <ele>320</ele>
        <time>2018-12-29T07:58:06Z</time>
      </trkpt>
      <trkpt lat="41.317465575411916" lon="1.541313473135233">
        <ele>320.39999389648437</ele>
        <time>2018-12-29T07:58:08Z</time>
      </trkpt>
      <trkpt lat="41.317470520734787" lon="1.541271228343248">
        <ele>320.60000610351562</ele>
        <time>2018-12-29T07:58:09Z</time>
      </trkpt>
      <trkpt lat="41.3174784835428" lon="1.541229821741581">
        <ele>320.79998779296875</ele>
        <time>2018-12-29T07:58:10Z</time>
      </trkpt>
      <trkpt lat="41.317488122731447" lon="1.541146757081151">
        <ele>321</ele>
        <time>2018-12-29T07:58:12Z</time>
      </trkpt>
      <trkpt lat="41.31749901920557" lon="1.541060088202357">
        <ele>321.39999389648437</ele>
        <time>2018-12-29T07:58:14Z</time>
      </trkpt>
      <trkpt lat="41.317499354481697" lon="1.54101574793458">
        <ele>321.60000610351562</ele>
        <time>2018-12-29T07:58:15Z</time>
      </trkpt>
      <trkpt lat="41.317502623423934" lon="1.540972664952278">
        <ele>321.60000610351562</ele>
        <time>2018-12-29T07:58:16Z</time>
      </trkpt>
      <trkpt lat="41.317511759698391" lon="1.540884654968977">
        <ele>322</ele>
        <time>2018-12-29T07:58:18Z</time>
      </trkpt>
      <trkpt lat="41.31752148270607" lon="1.540798069909215">
        <ele>322.20001220703125</ele>
        <time>2018-12-29T07:58:20Z</time>
      </trkpt>
      <trkpt lat="41.317528607323766" lon="1.540712071582675">
        <ele>322.60000610351562</ele>
        <time>2018-12-29T07:58:22Z</time>
      </trkpt>
      <trkpt lat="41.31753271445632" lon="1.540628168731928">
        <ele>323</ele>
        <time>2018-12-29T07:58:24Z</time>
      </trkpt>
      <trkpt lat="41.317533887922764" lon="1.540543427690864">
        <ele>323.20001220703125</ele>
        <time>2018-12-29T07:58:26Z</time>
      </trkpt>
      <trkpt lat="41.31754101254046" lon="1.540461033582687">
        <ele>323.60000610351562</ele>
        <time>2018-12-29T07:58:28Z</time>
      </trkpt>
      <trkpt lat="41.317540258169174" lon="1.540418956428766">
        <ele>323.79998779296875</ele>
        <time>2018-12-29T07:58:29Z</time>
      </trkpt>
      <trkpt lat="41.317537827417254" lon="1.540379226207733">
        <ele>324</ele>
        <time>2018-12-29T07:58:30Z</time>
      </trkpt>
      <trkpt lat="41.317540090531111" lon="1.540341088548303">
        <ele>324.20001220703125</ele>
        <time>2018-12-29T07:58:31Z</time>
      </trkpt>
      <trkpt lat="41.317538497969508" lon="1.540300352498889">
        <ele>324.39999389648437</ele>
        <time>2018-12-29T07:58:32Z</time>
      </trkpt>
      <trkpt lat="41.317537911236286" lon="1.540220389142633">
        <ele>324.60000610351562</ele>
        <time>2018-12-29T07:58:34Z</time>
      </trkpt>
      <trkpt lat="41.317534307017922" lon="1.540136486291885">
        <ele>325</ele>
        <time>2018-12-29T07:58:36Z</time>
      </trkpt>
      <trkpt lat="41.317523326724768" lon="1.540053840726614">
        <ele>325.39999389648437</ele>
        <time>2018-12-29T07:58:38Z</time>
      </trkpt>
      <trkpt lat="41.317521817982197" lon="1.540011009201407">
        <ele>325.60000610351562</ele>
        <time>2018-12-29T07:58:39Z</time>
      </trkpt>
      <trkpt lat="41.317520476877689" lon="1.539970440790057">
        <ele>325.60000610351562</ele>
        <time>2018-12-29T07:58:40Z</time>
      </trkpt>
      <trkpt lat="41.317515531554818" lon="1.539887208491564">
        <ele>325.79998779296875</ele>
        <time>2018-12-29T07:58:42Z</time>
      </trkpt>
      <trkpt lat="41.31751318462193" lon="1.539847310632467">
        <ele>326</ele>
        <time>2018-12-29T07:58:43Z</time>
      </trkpt>
      <trkpt lat="41.317509664222598" lon="1.539804479107261">
        <ele>326.20001220703125</ele>
        <time>2018-12-29T07:58:44Z</time>
      </trkpt>
      <trkpt lat="41.317507987841964" lon="1.539724599570036">
        <ele>326.60000610351562</ele>
        <time>2018-12-29T07:58:46Z</time>
      </trkpt>
      <trkpt lat="41.317503461614251" lon="1.539648408070207">
        <ele>326.79998779296875</ele>
        <time>2018-12-29T07:58:48Z</time>
      </trkpt>
      <trkpt lat="41.317503713071346" lon="1.539610773324966">
        <ele>327</ele>
        <time>2018-12-29T07:58:49Z</time>
      </trkpt>
      <trkpt lat="41.317502204328775" lon="1.539571294561029">
        <ele>327.39999389648437</ele>
        <time>2018-12-29T07:58:50Z</time>
      </trkpt>
      <trkpt lat="41.317493403330445" lon="1.539488397538662">
        <ele>327.60000610351562</ele>
        <time>2018-12-29T07:58:52Z</time>
      </trkpt>
      <trkpt lat="41.317491894587874" lon="1.539409775286913">
        <ele>327.79998779296875</ele>
        <time>2018-12-29T07:58:54Z</time>
      </trkpt>
      <trkpt lat="41.317489799112082" lon="1.539369458332658">
        <ele>328</ele>
        <time>2018-12-29T07:58:55Z</time>
      </trkpt>
      <trkpt lat="41.317484686151147" lon="1.539329644292593">
        <ele>328.20001220703125</ele>
        <time>2018-12-29T07:58:56Z</time>
      </trkpt>
      <trkpt lat="41.317474544048309" lon="1.539245573803783">
        <ele>328.60000610351562</ele>
        <time>2018-12-29T07:58:58Z</time>
      </trkpt>
      <trkpt lat="41.317467167973518" lon="1.539161084219813">
        <ele>329</ele>
        <time>2018-12-29T07:59:00Z</time>
      </trkpt>
      <trkpt lat="41.317463982850313" lon="1.539119007065892">
        <ele>329.20001220703125</ele>
        <time>2018-12-29T07:59:01Z</time>
      </trkpt>
      <trkpt lat="41.317459624260664" lon="1.539076510816813">
        <ele>329.20001220703125</ele>
        <time>2018-12-29T07:59:02Z</time>
      </trkpt>
      <trkpt lat="41.317453840747476" lon="1.538996547460556">
        <ele>329.60000610351562</ele>
        <time>2018-12-29T07:59:04Z</time>
      </trkpt>
      <trkpt lat="41.317446380853653" lon="1.538913985714316">
        <ele>330</ele>
        <time>2018-12-29T07:59:06Z</time>
      </trkpt>
      <trkpt lat="41.317443698644638" lon="1.538876267150044">
        <ele>330.20001220703125</ele>
        <time>2018-12-29T07:59:07Z</time>
      </trkpt>
      <trkpt lat="41.317443950101733" lon="1.538836285471916">
        <ele>330.39999389648438</ele>
        <time>2018-12-29T07:59:08Z</time>
      </trkpt>
      <trkpt lat="41.317446129396558" lon="1.538757244125009">
        <ele>330.60000610351562</ele>
        <time>2018-12-29T07:59:10Z</time>
      </trkpt>
      <trkpt lat="41.317450990900397" lon="1.53871726244688">
        <ele>330.60000610351562</ele>
        <time>2018-12-29T07:59:11Z</time>
      </trkpt>
      <trkpt lat="41.317461803555489" lon="1.538676861673594">
        <ele>330.60000610351562</ele>
        <time>2018-12-29T07:59:12Z</time>
      </trkpt>
      <trkpt lat="41.317490972578526" lon="1.538596898317337">
        <ele>331.20001220703125</ele>
        <time>2018-12-29T07:59:14Z</time>
      </trkpt>
      <trkpt lat="41.317508658394217" lon="1.538562197238207">
        <ele>331.39999389648437</ele>
        <time>2018-12-29T07:59:15Z</time>
      </trkpt>
      <trkpt lat="41.317530954256654" lon="1.538530932739377">
        <ele>331.60000610351562</ele>
        <time>2018-12-29T07:59:16Z</time>
      </trkpt>
      <trkpt lat="41.317579988390207" lon="1.538474941626191">
        <ele>332.20001220703125</ele>
        <time>2018-12-29T07:59:18Z</time>
      </trkpt>
      <trkpt lat="41.317630782723427" lon="1.538429176434875">
        <ele>332.39999389648437</ele>
        <time>2018-12-29T07:59:20Z</time>
      </trkpt>
      <trkpt lat="41.317685851827264" lon="1.538387769833207">
        <ele>333</ele>
        <time>2018-12-29T07:59:22Z</time>
      </trkpt>
      <trkpt lat="41.317732874304056" lon="1.538334712386131">
        <ele>333.20001220703125</ele>
        <time>2018-12-29T07:59:24Z</time>
      </trkpt>
      <trkpt lat="41.3177824113518" lon="1.538291294127703">
        <ele>334</ele>
        <time>2018-12-29T07:59:26Z</time>
      </trkpt>
      <trkpt lat="41.317833289504051" lon="1.538241170346737">
        <ele>334.20001220703125</ele>
        <time>2018-12-29T07:59:28Z</time>
      </trkpt>
      <trkpt lat="41.317888693884015" lon="1.538193142041564">
        <ele>334.60000610351562</ele>
        <time>2018-12-29T07:59:30Z</time>
      </trkpt>
      <trkpt lat="41.317942254245281" lon="1.538141258060932">
        <ele>334.79998779296875</ele>
        <time>2018-12-29T07:59:32Z</time>
      </trkpt>
      <trkpt lat="41.317966310307384" lon="1.538114603608847">
        <ele>335</ele>
        <time>2018-12-29T07:59:33Z</time>
      </trkpt>
      <trkpt lat="41.317990450188518" lon="1.538086524233222">
        <ele>335</ele>
        <time>2018-12-29T07:59:34Z</time>
      </trkpt>
      <trkpt lat="41.318038227036595" lon="1.538032125681639">
        <ele>335.39999389648437</ele>
        <time>2018-12-29T07:59:36Z</time>
      </trkpt>
      <trkpt lat="41.3180829025805" lon="1.537974793463945">
        <ele>336</ele>
        <time>2018-12-29T07:59:38Z</time>
      </trkpt>
      <trkpt lat="41.318105366080999" lon="1.537945456802845">
        <ele>336.20001220703125</ele>
        <time>2018-12-29T07:59:39Z</time>
      </trkpt>
      <trkpt lat="41.318126656115055" lon="1.53791687451303">
        <ele>336.39999389648438</ele>
        <time>2018-12-29T07:59:40Z</time>
      </trkpt>
      <trkpt lat="41.318170577287674" lon="1.537860715761781">
        <ele>336.60000610351562</ele>
        <time>2018-12-29T07:59:42Z</time>
      </trkpt>
      <trkpt lat="41.318214582279325" lon="1.537800785154104">
        <ele>336.79998779296875</ele>
        <time>2018-12-29T07:59:44Z</time>
      </trkpt>
      <trkpt lat="41.318253139033914" lon="1.537735490128398">
        <ele>337.20001220703125</ele>
        <time>2018-12-29T07:59:46Z</time>
      </trkpt>
      <trkpt lat="41.318294713273644" lon="1.537668853998184">
        <ele>337.60000610351562</ele>
        <time>2018-12-29T07:59:48Z</time>
      </trkpt>
      <trkpt lat="41.318334527313709" lon="1.53760171495378">
        <ele>337.79998779296875</ele>
        <time>2018-12-29T07:59:50Z</time>
      </trkpt>
      <trkpt lat="41.318375011906028" lon="1.537532564252615">
        <ele>338</ele>
        <time>2018-12-29T07:59:52Z</time>
      </trkpt>
      <trkpt lat="41.318394625559449" lon="1.537500964477658">
        <ele>338.20001220703125</ele>
        <time>2018-12-29T07:59:53Z</time>
      </trkpt>
      <trkpt lat="41.318415161222219" lon="1.53746978379786">
        <ele>338.39999389648437</ele>
        <time>2018-12-29T07:59:54Z</time>
      </trkpt>
      <trkpt lat="41.318452460691333" lon="1.537405410781503">
        <ele>338.79998779296875</ele>
        <time>2018-12-29T07:59:56Z</time>
      </trkpt>
      <trkpt lat="41.318492693826556" lon="1.537341875955463">
        <ele>339</ele>
        <time>2018-12-29T07:59:58Z</time>
      </trkpt>
      <trkpt lat="41.318512391299009" lon="1.537308348342776">
        <ele>339.20001220703125</ele>
        <time>2018-12-29T07:59:59Z</time>
      </trkpt>
      <trkpt lat="41.318531585857272" lon="1.537273479625583">
        <ele>339.20001220703125</ele>
        <time>2018-12-29T08:00:00Z</time>
      </trkpt>
      <trkpt lat="41.318565448746085" lon="1.53720198199153">
        <ele>340</ele>
        <time>2018-12-29T08:00:02Z</time>
      </trkpt>
      <trkpt lat="41.318594114854932" lon="1.537132747471333">
        <ele>340.20001220703125</ele>
        <time>2018-12-29T08:00:04Z</time>
      </trkpt>
      <trkpt lat="41.318608783185482" lon="1.53709402307868">
        <ele>340.39999389648437</ele>
        <time>2018-12-29T08:00:05Z</time>
      </trkpt>
      <trkpt lat="41.318621942773461" lon="1.537055298686028">
        <ele>340.60000610351562</ele>
        <time>2018-12-29T08:00:06Z</time>
      </trkpt>
      <trkpt lat="41.318640802055597" lon="1.53697868809104">
        <ele>341</ele>
        <time>2018-12-29T08:00:08Z</time>
      </trkpt>
      <trkpt lat="41.318659409880638" lon="1.53690685518086">
        <ele>341</ele>
        <time>2018-12-29T08:00:10Z</time>
      </trkpt>
      <trkpt lat="41.318675922229886" lon="1.536829238757491">
        <ele>341.20001220703125</ele>
        <time>2018-12-29T08:00:12Z</time>
      </trkpt>
      <trkpt lat="41.318682292476296" lon="1.536790682002902">
        <ele>341.39999389648437</ele>
        <time>2018-12-29T08:00:13Z</time>
      </trkpt>
      <trkpt lat="41.318687740713358" lon="1.536753633990884">
        <ele>341.60000610351562</ele>
        <time>2018-12-29T08:00:14Z</time>
      </trkpt>
      <trkpt lat="41.318702325224876" lon="1.536681046709418">
        <ele>342</ele>
        <time>2018-12-29T08:00:16Z</time>
      </trkpt>
      <trkpt lat="41.318724453449249" lon="1.536607621237636">
        <ele>342.39999389648437</ele>
        <time>2018-12-29T08:00:18Z</time>
      </trkpt>
      <trkpt lat="41.318741636350751" lon="1.536571914330125">
        <ele>342.60000610351562</ele>
        <time>2018-12-29T08:00:19Z</time>
      </trkpt>
      <trkpt lat="41.318763177841902" lon="1.536538805812597">
        <ele>342.60000610351562</ele>
        <time>2018-12-29T08:00:20Z</time>
      </trkpt>
      <trkpt lat="41.318816738203168" lon="1.536490274593234">
        <ele>343.20001220703125</ele>
        <time>2018-12-29T08:00:22Z</time>
      </trkpt>
      <trkpt lat="41.318848337978125" lon="1.536477282643318">
        <ele>343.39999389648437</ele>
        <time>2018-12-29T08:00:23Z</time>
      </trkpt>
      <trkpt lat="41.318879937753081" lon="1.536467978730798">
        <ele>343.79998779296875</ele>
        <time>2018-12-29T08:00:24Z</time>
      </trkpt>
      <trkpt lat="41.318942215293646" lon="1.536458255723119">
        <ele>344.39999389648437</ele>
        <time>2018-12-29T08:00:26Z</time>
      </trkpt>
      <trkpt lat="41.319000972434878" lon="1.536443335935473">
        <ele>344.79998779296875</ele>
        <time>2018-12-29T08:00:28Z</time>
      </trkpt>
      <trkpt lat="41.31905822083354" lon="1.536423889920116">
        <ele>345.39999389648437</ele>
        <time>2018-12-29T08:00:30Z</time>
      </trkpt>
      <trkpt lat="41.319122342392802" lon="1.536408048123121">
        <ele>345.79998779296875</ele>
        <time>2018-12-29T08:00:32Z</time>
      </trkpt>
      <trkpt lat="41.319186128675938" lon="1.536389105021954">
        <ele>346.39999389648437</ele>
        <time>2018-12-29T08:00:34Z</time>
      </trkpt>
      <trkpt lat="41.319246226921678" lon="1.536363288760185">
        <ele>346.79998779296875</ele>
        <time>2018-12-29T08:00:36Z</time>
      </trkpt>
      <trkpt lat="41.319273803383112" lon="1.53634887188673">
        <ele>347</ele>
        <time>2018-12-29T08:00:37Z</time>
      </trkpt>
      <trkpt lat="41.31929961964488" lon="1.536331688985229">
        <ele>347.20001220703125</ele>
        <time>2018-12-29T08:00:38Z</time>
      </trkpt>
      <trkpt lat="41.319349659606814" lon="1.536289695650339">
        <ele>347.60000610351562</ele>
        <time>2018-12-29T08:00:40Z</time>
      </trkpt>
      <trkpt lat="41.31940028630197" lon="1.536242086440325">
        <ele>347.60000610351562</ele>
        <time>2018-12-29T08:00:42Z</time>
      </trkpt>
      <trkpt lat="41.319448733702302" lon="1.536192130297422">
        <ele>347.79998779296875</ele>
        <time>2018-12-29T08:00:44Z</time>
      </trkpt>
      <trkpt lat="41.319472873583436" lon="1.536166230216622">
        <ele>348</ele>
        <time>2018-12-29T08:00:45Z</time>
      </trkpt>
      <trkpt lat="41.319493409246206" lon="1.536137312650681">
        <ele>348.20001220703125</ele>
        <time>2018-12-29T08:00:46Z</time>
      </trkpt>
      <trkpt lat="41.319524925202131" lon="1.536072688177228">
        <ele>348.60000610351562</ele>
        <time>2018-12-29T08:00:48Z</time>
      </trkpt>
      <trkpt lat="41.319545041769743" lon="1.535999262705445">
        <ele>348.79998779296875</ele>
        <time>2018-12-29T08:00:50Z</time>
      </trkpt>
      <trkpt lat="41.319555267691612" lon="1.535919215530157">
        <ele>349</ele>
        <time>2018-12-29T08:00:52Z</time>
      </trkpt>
      <trkpt lat="41.319555938243866" lon="1.535880155861378">
        <ele>349.39999389648437</ele>
        <time>2018-12-29T08:00:53Z</time>
      </trkpt>
      <trkpt lat="41.319553172215819" lon="1.53584017418325">
        <ele>349.60000610351562</ele>
        <time>2018-12-29T08:00:54Z</time>
      </trkpt>
      <trkpt lat="41.31954487413168" lon="1.535762557759881">
        <ele>349.60000610351562</ele>
        <time>2018-12-29T08:00:56Z</time>
      </trkpt>
      <trkpt lat="41.319539258256555" lon="1.535682342946529">
        <ele>349.79998779296875</ele>
        <time>2018-12-29T08:00:58Z</time>
      </trkpt>
      <trkpt lat="41.319527942687273" lon="1.53559978120029">
        <ele>350</ele>
        <time>2018-12-29T08:01:00Z</time>
      </trkpt>
      <trkpt lat="41.31952048279345" lon="1.535516632720828">
        <ele>350.20001220703125</ele>
        <time>2018-12-29T08:01:02Z</time>
      </trkpt>
      <trkpt lat="41.319519896060228" lon="1.5354732144624">
        <ele>350.39999389648438</ele>
        <time>2018-12-29T08:01:03Z</time>
      </trkpt>
      <trkpt lat="41.319524757564068" lon="1.535433484241366">
        <ele>350.60000610351562</ele>
        <time>2018-12-29T08:01:04Z</time>
      </trkpt>
      <trkpt lat="41.319550657644868" lon="1.535361232236028">
        <ele>351</ele>
        <time>2018-12-29T08:01:06Z</time>
      </trkpt>
      <trkpt lat="41.319572702050209" lon="1.535334913060069">
        <ele>351.20001220703125</ele>
        <time>2018-12-29T08:01:07Z</time>
      </trkpt>
      <trkpt lat="41.319599356502295" lon="1.535315383225679">
        <ele>351.20001220703125</ele>
        <time>2018-12-29T08:01:08Z</time>
      </trkpt>
      <trkpt lat="41.319628860801458" lon="1.535301133990288">
        <ele>351.39999389648437</ele>
        <time>2018-12-29T08:01:09Z</time>
      </trkpt>
      <trkpt lat="41.319658700376749" lon="1.535296607762575">
        <ele>351.60000610351562</ele>
        <time>2018-12-29T08:01:10Z</time>
      </trkpt>
      <trkpt lat="41.319688875228167" lon="1.535296607762575">
        <ele>351.79998779296875</ele>
        <time>2018-12-29T08:01:11Z</time>
      </trkpt>
      <trkpt lat="41.319718044251204" lon="1.535301553085446">
        <ele>352</ele>
        <time>2018-12-29T08:01:12Z</time>
      </trkpt>
      <trkpt lat="41.319773532450199" lon="1.535335667431355">
        <ele>352.60000610351562</ele>
        <time>2018-12-29T08:01:14Z</time>
      </trkpt>
      <trkpt lat="41.319822398945689" lon="1.535387383773923">
        <ele>353</ele>
        <time>2018-12-29T08:01:16Z</time>
      </trkpt>
      <trkpt lat="41.319870259612799" lon="1.535443542525172">
        <ele>353.60000610351562</ele>
        <time>2018-12-29T08:01:18Z</time>
      </trkpt>
      <trkpt lat="41.319893728941679" lon="1.535472124814987">
        <ele>353.79998779296875</ele>
        <time>2018-12-29T08:01:19Z</time>
      </trkpt>
      <trkpt lat="41.319916779175401" lon="1.535498443990946">
        <ele>354</ele>
        <time>2018-12-29T08:01:20Z</time>
      </trkpt>
      <trkpt lat="41.319963047280908" lon="1.535543873906136">
        <ele>354.20001220703125</ele>
        <time>2018-12-29T08:01:22Z</time>
      </trkpt>
      <trkpt lat="41.32000763900578" lon="1.535590644925833">
        <ele>354.79998779296875</ele>
        <time>2018-12-29T08:01:24Z</time>
      </trkpt>
      <trkpt lat="41.320031611248851" lon="1.535614365711808">
        <ele>354.79998779296875</ele>
        <time>2018-12-29T08:01:25Z</time>
      </trkpt>
      <trkpt lat="41.320056086406112" lon="1.535640098154545">
        <ele>355</ele>
        <time>2018-12-29T08:01:26Z</time>
      </trkpt>
      <trkpt lat="41.320105623453856" lon="1.535686450079083">
        <ele>355.39999389648437</ele>
        <time>2018-12-29T08:01:28Z</time>
      </trkpt>
      <trkpt lat="41.320160608738661" lon="1.53572391718626">
        <ele>355.79998779296875</ele>
        <time>2018-12-29T08:01:30Z</time>
      </trkpt>
      <trkpt lat="41.320189191028476" lon="1.535738250240684">
        <ele>355.79998779296875</ele>
        <time>2018-12-29T08:01:31Z</time>
      </trkpt>
      <trkpt lat="41.320217940956354" lon="1.535749398171902">
        <ele>356</ele>
        <time>2018-12-29T08:01:32Z</time>
      </trkpt>
      <trkpt lat="41.320248618721962" lon="1.53576004318893">
        <ele>356</ele>
        <time>2018-12-29T08:01:33Z</time>
      </trkpt>
      <trkpt lat="41.320281308144331" lon="1.535769514739513">
        <ele>356.20001220703125</ele>
        <time>2018-12-29T08:01:34Z</time>
      </trkpt>
      <trkpt lat="41.320343585684896" lon="1.535780495032668">
        <ele>356.20001220703125</ele>
        <time>2018-12-29T08:01:36Z</time>
      </trkpt>
      <trkpt lat="41.320405779406428" lon="1.535791559144855">
        <ele>356.39999389648438</ele>
        <time>2018-12-29T08:01:38Z</time>
      </trkpt>
      <trkpt lat="41.32047182880342" lon="1.535802204161882">
        <ele>356.60000610351562</ele>
        <time>2018-12-29T08:01:40Z</time>
      </trkpt>
      <trkpt lat="41.320506781339645" lon="1.535808406770229">
        <ele>356.60000610351562</ele>
        <time>2018-12-29T08:01:41Z</time>
      </trkpt>
      <trkpt lat="41.320541650056839" lon="1.535813268274069">
        <ele>356.79998779296875</ele>
        <time>2018-12-29T08:01:42Z</time>
      </trkpt>
      <trkpt lat="41.320606023073196" lon="1.53581527993083">
        <ele>356.79998779296875</ele>
        <time>2018-12-29T08:01:44Z</time>
      </trkpt>
      <trkpt lat="41.320668132975698" lon="1.53582064434886">
        <ele>357</ele>
        <time>2018-12-29T08:01:46Z</time>
      </trkpt>
      <trkpt lat="41.320734936743975" lon="1.535830032080412">
        <ele>357.20001220703125</ele>
        <time>2018-12-29T08:01:48Z</time>
      </trkpt>
      <trkpt lat="41.320768212899566" lon="1.535837827250361">
        <ele>357.39999389648437</ele>
        <time>2018-12-29T08:01:49Z</time>
      </trkpt>
      <trkpt lat="41.320802830159664" lon="1.535845538601279">
        <ele>357.60000610351562</ele>
        <time>2018-12-29T08:01:50Z</time>
      </trkpt>
      <trkpt lat="41.32086762227118" lon="1.535862553864718">
        <ele>357.79998779296875</ele>
        <time>2018-12-29T08:01:52Z</time>
      </trkpt>
      <trkpt lat="41.320932330563664" lon="1.535884933546186">
        <ele>358</ele>
        <time>2018-12-29T08:01:54Z</time>
      </trkpt>
      <trkpt lat="41.320989998057485" lon="1.535925334319472">
        <ele>358.20001220703125</ele>
        <time>2018-12-29T08:01:56Z</time>
      </trkpt>
      <trkpt lat="41.321014724671841" lon="1.535955928266048">
        <ele>358.39999389648437</ele>
        <time>2018-12-29T08:01:57Z</time>
      </trkpt>
      <trkpt lat="41.321037271991372" lon="1.535992892459035">
        <ele>358.39999389648437</ele>
        <time>2018-12-29T08:01:58Z</time>
      </trkpt>
      <trkpt lat="41.32106308825314" lon="1.536085763946176">
        <ele>358.60000610351562</ele>
        <time>2018-12-29T08:02:00Z</time>
      </trkpt>
      <trkpt lat="41.321061244234443" lon="1.536135384812951">
        <ele>358.60000610351562</ele>
        <time>2018-12-29T08:02:01Z</time>
      </trkpt>
      <trkpt lat="41.321052946150303" lon="1.536182826384902">
        <ele>358.60000610351562</ele>
        <time>2018-12-29T08:02:02Z</time>
      </trkpt>
      <trkpt lat="41.321031237021089" lon="1.536265555769205">
        <ele>359</ele>
        <time>2018-12-29T08:02:04Z</time>
      </trkpt>
      <trkpt lat="41.320988992229104" lon="1.536331856623292">
        <ele>359.39999389648437</ele>
        <time>2018-12-29T08:02:06Z</time>
      </trkpt>
      <trkpt lat="41.320926547050476" lon="1.536374352872372">
        <ele>359.60000610351562</ele>
        <time>2018-12-29T08:02:08Z</time>
      </trkpt>
      <trkpt lat="41.320860078558326" lon="1.536392709240317">
        <ele>360</ele>
        <time>2018-12-29T08:02:10Z</time>
      </trkpt>
      <trkpt lat="41.320827221497893" lon="1.536403689533472">
        <ele>360.39999389648437</ele>
        <time>2018-12-29T08:02:11Z</time>
      </trkpt>
      <trkpt lat="41.320793693885207" lon="1.536411317065358">
        <ele>360.60000610351562</ele>
        <time>2018-12-29T08:02:12Z</time>
      </trkpt>
      <trkpt lat="41.320728901773691" lon="1.536420872434974">
        <ele>360.79998779296875</ele>
        <time>2018-12-29T08:02:14Z</time>
      </trkpt>
      <trkpt lat="41.320667713880539" lon="1.536434283480048">
        <ele>361.20001220703125</ele>
        <time>2018-12-29T08:02:16Z</time>
      </trkpt>
      <trkpt lat="41.320636449381709" lon="1.536446856334806">
        <ele>361.39999389648437</ele>
        <time>2018-12-29T08:02:17Z</time>
      </trkpt>
      <trkpt lat="41.320603424683213" lon="1.536464793607593">
        <ele>361.60000610351562</ele>
        <time>2018-12-29T08:02:18Z</time>
      </trkpt>
      <trkpt lat="41.320545170456171" lon="1.536514749750495">
        <ele>361.79998779296875</ele>
        <time>2018-12-29T08:02:20Z</time>
      </trkpt>
      <trkpt lat="41.320501668378711" lon="1.536586917936802">
        <ele>362.20001220703125</ele>
        <time>2018-12-29T08:02:22Z</time>
      </trkpt>
      <trkpt lat="41.320485742762685" lon="1.536625055596232">
        <ele>362.39999389648437</ele>
        <time>2018-12-29T08:02:23Z</time>
      </trkpt>
      <trkpt lat="41.320474175736308" lon="1.536663277074695">
        <ele>362.60000610351562</ele>
        <time>2018-12-29T08:02:24Z</time>
      </trkpt>
      <trkpt lat="41.320456909015775" lon="1.536734607070684">
        <ele>363</ele>
        <time>2018-12-29T08:02:26Z</time>
      </trkpt>
      <trkpt lat="41.320447521284223" lon="1.536810463294387">
        <ele>363.20001220703125</ele>
        <time>2018-12-29T08:02:28Z</time>
      </trkpt>
      <trkpt lat="41.320439474657178" lon="1.536893779411912">
        <ele>363.60000610351562</ele>
        <time>2018-12-29T08:02:30Z</time>
      </trkpt>
      <trkpt lat="41.320434361696243" lon="1.536934515461326">
        <ele>363.79998779296875</ele>
        <time>2018-12-29T08:02:31Z</time>
      </trkpt>
      <trkpt lat="41.320428159087896" lon="1.536974161863327">
        <ele>364</ele>
        <time>2018-12-29T08:02:32Z</time>
      </trkpt>
      <trkpt lat="41.320409132167697" lon="1.537044486030936">
        <ele>364.20001220703125</ele>
        <time>2018-12-29T08:02:34Z</time>
      </trkpt>
      <trkpt lat="41.320376107469201" lon="1.537099303677678">
        <ele>364.60000610351562</ele>
        <time>2018-12-29T08:02:36Z</time>
      </trkpt>
      <trkpt lat="41.320355739444494" lon="1.537122018635273">
        <ele>364.79998779296875</ele>
        <time>2018-12-29T08:02:37Z</time>
      </trkpt>
      <trkpt lat="41.320332437753677" lon="1.537145404145122">
        <ele>365</ele>
        <time>2018-12-29T08:02:38Z</time>
      </trkpt>
      <trkpt lat="41.320278123021126" lon="1.537184463813901">
        <ele>365.39999389648437</ele>
        <time>2018-12-29T08:02:40Z</time>
      </trkpt>
      <trkpt lat="41.320217773318291" lon="1.537222601473332">
        <ele>365.60000610351562</ele>
        <time>2018-12-29T08:02:42Z</time>
      </trkpt>
      <trkpt lat="41.320157926529646" lon="1.537256464362145">
        <ele>366</ele>
        <time>2018-12-29T08:02:44Z</time>
      </trkpt>
      <trkpt lat="41.320104282349348" lon="1.537282699719071">
        <ele>366.20001220703125</ele>
        <time>2018-12-29T08:02:46Z</time>
      </trkpt>
      <trkpt lat="41.320046531036496" lon="1.537313209846616">
        <ele>366.60000610351562</ele>
        <time>2018-12-29T08:02:48Z</time>
      </trkpt>
      <trkpt lat="41.319988612085581" lon="1.537354532629252">
        <ele>366.79998779296875</ele>
        <time>2018-12-29T08:02:50Z</time>
      </trkpt>
      <trkpt lat="41.319962544366717" lon="1.537380265071988">
        <ele>367.20001220703125</ele>
        <time>2018-12-29T08:02:51Z</time>
      </trkpt>
      <trkpt lat="41.319938404485583" lon="1.537411110475659">
        <ele>367.39999389648438</ele>
        <time>2018-12-29T08:02:52Z</time>
      </trkpt>
      <trkpt lat="41.319895656779408" lon="1.537478249520063">
        <ele>368</ele>
        <time>2018-12-29T08:02:54Z</time>
      </trkpt>
      <trkpt lat="41.319858944043517" lon="1.537551674991846">
        <ele>368.20001220703125</ele>
        <time>2018-12-29T08:02:56Z</time>
      </trkpt>
      <trkpt lat="41.319840587675571" lon="1.537585202604532">
        <ele>368.39999389648437</ele>
        <time>2018-12-29T08:02:57Z</time>
      </trkpt>
      <trkpt lat="41.31982147693634" lon="1.537620993331075">
        <ele>368.60000610351562</ele>
        <time>2018-12-29T08:02:58Z</time>
      </trkpt>
      <trkpt lat="41.319785434752703" lon="1.537694167345762">
        <ele>368.79998779296875</ele>
        <time>2018-12-29T08:03:00Z</time>
      </trkpt>
      <trkpt lat="41.319755678996444" lon="1.537773376330733">
        <ele>369</ele>
        <time>2018-12-29T08:03:02Z</time>
      </trkpt>
      <trkpt lat="41.31973153911531" lon="1.537864822894335">
        <ele>369.20001220703125</ele>
        <time>2018-12-29T08:03:04Z</time>
      </trkpt>
      <trkpt lat="41.319732377305627" lon="1.537960963323712">
        <ele>369.20001220703125</ele>
        <time>2018-12-29T08:03:06Z</time>
      </trkpt>
      <trkpt lat="41.319761630147696" lon="1.538052326068282">
        <ele>369.20001220703125</ele>
        <time>2018-12-29T08:03:08Z</time>
      </trkpt>
      <trkpt lat="41.319806892424822" lon="1.538124997168779">
        <ele>369.60000610351562</ele>
        <time>2018-12-29T08:03:10Z</time>
      </trkpt>
      <trkpt lat="41.319862464442849" lon="1.538170259445906">
        <ele>369.79998779296875</ele>
        <time>2018-12-29T08:03:12Z</time>
      </trkpt>
      <trkpt lat="41.319892220199108" lon="1.538190040737391">
        <ele>370</ele>
        <time>2018-12-29T08:03:13Z</time>
      </trkpt>
      <trkpt lat="41.319923065602779" lon="1.538207558915019">
        <ele>370</ele>
        <time>2018-12-29T08:03:14Z</time>
      </trkpt>
      <trkpt lat="41.319993054494262" lon="1.53823496773839">
        <ele>370.20001220703125</ele>
        <time>2018-12-29T08:03:16Z</time>
      </trkpt>
      <trkpt lat="41.320029851049185" lon="1.538237482309341">
        <ele>370.20001220703125</ele>
        <time>2018-12-29T08:03:17Z</time>
      </trkpt>
      <trkpt lat="41.320066982880235" lon="1.538233710452914">
        <ele>370.20001220703125</ele>
        <time>2018-12-29T08:03:18Z</time>
      </trkpt>
      <trkpt lat="41.320141330361366" lon="1.538217198103666">
        <ele>370.60000610351562</ele>
        <time>2018-12-29T08:03:20Z</time>
      </trkpt>
      <trkpt lat="41.320212073624134" lon="1.538195069879293">
        <ele>370.60000610351562</ele>
        <time>2018-12-29T08:03:22Z</time>
      </trkpt>
      <trkpt lat="41.320277536287904" lon="1.538171349093318">
        <ele>371</ele>
        <time>2018-12-29T08:03:24Z</time>
      </trkpt>
      <trkpt lat="41.320343082770705" lon="1.538147879764438">
        <ele>371.39999389648437</ele>
        <time>2018-12-29T08:03:26Z</time>
      </trkpt>
      <trkpt lat="41.320376778021455" lon="1.538139330223203">
        <ele>371.60000610351562</ele>
        <time>2018-12-29T08:03:27Z</time>
      </trkpt>
      <trkpt lat="41.320410305634141" lon="1.53813187032938">
        <ele>371.79998779296875</ele>
        <time>2018-12-29T08:03:28Z</time>
      </trkpt>
      <trkpt lat="41.320476271212101" lon="1.538114938884974">
        <ele>372</ele>
        <time>2018-12-29T08:03:30Z</time>
      </trkpt>
      <trkpt lat="41.320541147142649" lon="1.538092894479632">
        <ele>372.39999389648437</ele>
        <time>2018-12-29T08:03:32Z</time>
      </trkpt>
      <trkpt lat="41.320573585107923" lon="1.538082165643573">
        <ele>372.60000610351562</ele>
        <time>2018-12-29T08:03:33Z</time>
      </trkpt>
      <trkpt lat="41.320606442168355" lon="1.538070682436228">
        <ele>372.60000610351562</ele>
        <time>2018-12-29T08:03:34Z</time>
      </trkpt>
      <trkpt lat="41.320670396089554" lon="1.538049476221204">
        <ele>373</ele>
        <time>2018-12-29T08:03:36Z</time>
      </trkpt>
      <trkpt lat="41.32073518820107" lon="1.538032963871956">
        <ele>373.39999389648438</ele>
        <time>2018-12-29T08:03:38Z</time>
      </trkpt>
      <trkpt lat="41.320767290890217" lon="1.538021396845579">
        <ele>373.60000610351562</ele>
        <time>2018-12-29T08:03:39Z</time>
      </trkpt>
      <trkpt lat="41.320800231769681" lon="1.538010248914361">
        <ele>373.79998779296875</ele>
        <time>2018-12-29T08:03:40Z</time>
      </trkpt>
      <trkpt lat="41.320866532623768" lon="1.537986528128386">
        <ele>374</ele>
        <time>2018-12-29T08:03:42Z</time>
      </trkpt>
      <trkpt lat="41.320929145440459" lon="1.537963394075632">
        <ele>374.39999389648437</ele>
        <time>2018-12-29T08:03:44Z</time>
      </trkpt>
      <trkpt lat="41.320996284484863" lon="1.537938583642244">
        <ele>374.60000610351562</ele>
        <time>2018-12-29T08:03:46Z</time>
      </trkpt>
      <trkpt lat="41.321030734106898" lon="1.537927854806185">
        <ele>374.79998779296875</ele>
        <time>2018-12-29T08:03:47Z</time>
      </trkpt>
      <trkpt lat="41.321064010262489" lon="1.537918718531728">
        <ele>375</ele>
        <time>2018-12-29T08:03:48Z</time>
      </trkpt>
      <trkpt lat="41.321135088801384" lon="1.537903379648924">
        <ele>375.39999389648437</ele>
        <time>2018-12-29T08:03:50Z</time>
      </trkpt>
      <trkpt lat="41.321195522323251" lon="1.537888459861279">
        <ele>375.79998779296875</ele>
        <time>2018-12-29T08:03:52Z</time>
      </trkpt>
      <trkpt lat="41.321247490122914" lon="1.537871779873967">
        <ele>376.39999389648438</ele>
        <time>2018-12-29T08:03:54Z</time>
      </trkpt>
      <trkpt lat="41.321302140131593" lon="1.537841102108359">
        <ele>376.79998779296875</ele>
        <time>2018-12-29T08:03:56Z</time>
      </trkpt>
      <trkpt lat="41.321362908929586" lon="1.537816794589162">
        <ele>376.79998779296875</ele>
        <time>2018-12-29T08:03:58Z</time>
      </trkpt>
      <trkpt lat="41.321426276117563" lon="1.537799527868629">
        <ele>376.79998779296875</ele>
        <time>2018-12-29T08:04:00Z</time>
      </trkpt>
      <trkpt lat="41.321492241695523" lon="1.537780500948429">
        <ele>377.39999389648437</ele>
        <time>2018-12-29T08:04:02Z</time>
      </trkpt>
      <trkpt lat="41.321522668004036" lon="1.537765832617879">
        <ele>377.60000610351562</ele>
        <time>2018-12-29T08:04:03Z</time>
      </trkpt>
      <trkpt lat="41.321551669389009" lon="1.537749068811536">
        <ele>377.60000610351562</ele>
        <time>2018-12-29T08:04:04Z</time>
      </trkpt>
      <trkpt lat="41.321581089869142" lon="1.537731299176812">
        <ele>378</ele>
        <time>2018-12-29T08:04:05Z</time>
      </trkpt>
      <trkpt lat="41.321611013263464" lon="1.537712104618549">
        <ele>378</ele>
        <time>2018-12-29T08:04:06Z</time>
      </trkpt>
      <trkpt lat="41.321671446785331" lon="1.537670865654945">
        <ele>378.20001220703125</ele>
        <time>2018-12-29T08:04:08Z</time>
      </trkpt>
      <trkpt lat="41.321734730154276" lon="1.537635494023562">
        <ele>378.60000610351562</ele>
        <time>2018-12-29T08:04:10Z</time>
      </trkpt>
      <trkpt lat="41.32176524028182" lon="1.537617305293679">
        <ele>378.79998779296875</ele>
        <time>2018-12-29T08:04:11Z</time>
      </trkpt>
      <trkpt lat="41.321795918047428" lon="1.537598110735416">
        <ele>379</ele>
        <time>2018-12-29T08:04:12Z</time>
      </trkpt>
      <trkpt lat="41.321856854483485" lon="1.537553770467639">
        <ele>379.39999389648437</ele>
        <time>2018-12-29T08:04:14Z</time>
      </trkpt>
      <trkpt lat="41.321910666301847" lon="1.537505574524403">
        <ele>379.79998779296875</ele>
        <time>2018-12-29T08:04:16Z</time>
      </trkpt>
      <trkpt lat="41.321965819224715" lon="1.537455199286342">
        <ele>380.20001220703125</ele>
        <time>2018-12-29T08:04:18Z</time>
      </trkpt>
      <trkpt lat="41.322018457576632" lon="1.537397028878331">
        <ele>380.39999389648437</ele>
        <time>2018-12-29T08:04:20Z</time>
      </trkpt>
      <trkpt lat="41.322036981582642" lon="1.537363920360804">
        <ele>380.60000610351562</ele>
        <time>2018-12-29T08:04:21Z</time>
      </trkpt>
      <trkpt lat="41.32205156609416" lon="1.537333745509386">
        <ele>380.79998779296875</ele>
        <time>2018-12-29T08:04:22Z</time>
      </trkpt>
      <trkpt lat="41.322086853906512" lon="1.537286136299372">
        <ele>381.39999389648437</ele>
        <time>2018-12-29T08:04:24Z</time>
      </trkpt>
      <trkpt lat="41.322119794785976" lon="1.53723232448101">
        <ele>381.60000610351562</ele>
        <time>2018-12-29T08:04:26Z</time>
      </trkpt>
      <trkpt lat="41.322133122012019" lon="1.53716828674078">
        <ele>381.79998779296875</ele>
        <time>2018-12-29T08:04:28Z</time>
      </trkpt>
      <trkpt lat="41.322129182517529" lon="1.537091508507729">
        <ele>382.20001220703125</ele>
        <time>2018-12-29T08:04:30Z</time>
      </trkpt>
      <trkpt lat="41.322125159204006" lon="1.537057477980852">
        <ele>382.39999389648437</ele>
        <time>2018-12-29T08:04:31Z</time>
      </trkpt>
      <trkpt lat="41.322120046243072" lon="1.537020010873675">
        <ele>382.39999389648437</ele>
        <time>2018-12-29T08:04:32Z</time>
      </trkpt>
      <trkpt lat="41.322102276608348" lon="1.53695622459054">
        <ele>382.60000610351562</ele>
        <time>2018-12-29T08:04:34Z</time>
      </trkpt>
      <trkpt lat="41.322085596621037" lon="1.536891264840961">
        <ele>382.79998779296875</ele>
        <time>2018-12-29T08:04:36Z</time>
      </trkpt>
      <trkpt lat="41.322075622156262" lon="1.536819934844971">
        <ele>383.20001220703125</ele>
        <time>2018-12-29T08:04:38Z</time>
      </trkpt>
      <trkpt lat="41.322072939947248" lon="1.536780288442969">
        <ele>383.39999389648437</ele>
        <time>2018-12-29T08:04:39Z</time>
      </trkpt>
      <trkpt lat="41.322069503366947" lon="1.536742905154824">
        <ele>383.39999389648437</ele>
        <time>2018-12-29T08:04:40Z</time>
      </trkpt>
      <trkpt lat="41.322058523073792" lon="1.536667300388217">
        <ele>383.60000610351562</ele>
        <time>2018-12-29T08:04:42Z</time>
      </trkpt>
      <trkpt lat="41.322050308808684" lon="1.53659462928772">
        <ele>383.79998779296875</ele>
        <time>2018-12-29T08:04:44Z</time>
      </trkpt>
      <trkpt lat="41.322048213332891" lon="1.536561017856002">
        <ele>384</ele>
        <time>2018-12-29T08:04:45Z</time>
      </trkpt>
      <trkpt lat="41.322045782580972" lon="1.536526652052999">
        <ele>384.20001220703125</ele>
        <time>2018-12-29T08:04:46Z</time>
      </trkpt>
      <trkpt lat="41.322042346000671" lon="1.536460518836975">
        <ele>384.39999389648437</ele>
        <time>2018-12-29T08:04:48Z</time>
      </trkpt>
      <trkpt lat="41.322047375142574" lon="1.536394972354174">
        <ele>384.20001220703125</ele>
        <time>2018-12-29T08:04:50Z</time>
      </trkpt>
      <trkpt lat="41.322065899148583" lon="1.536339651793242">
        <ele>384.39999389648437</ele>
        <time>2018-12-29T08:04:52Z</time>
      </trkpt>
      <trkpt lat="41.322075622156262" lon="1.536310063675046">
        <ele>384.60000610351562</ele>
        <time>2018-12-29T08:04:53Z</time>
      </trkpt>
      <trkpt lat="41.322087608277798" lon="1.536281397566199">
        <ele>384.79998779296875</ele>
        <time>2018-12-29T08:04:54Z</time>
      </trkpt>
      <trkpt lat="41.322116609662771" lon="1.53621886856854">
        <ele>385</ele>
        <time>2018-12-29T08:04:56Z</time>
      </trkpt>
      <trkpt lat="41.322155753150582" lon="1.536152986809611">
        <ele>385.39999389648437</ele>
        <time>2018-12-29T08:04:58Z</time>
      </trkpt>
      <trkpt lat="41.322178803384304" lon="1.536120045930147">
        <ele>385.39999389648437</ele>
        <time>2018-12-29T08:04:59Z</time>
      </trkpt>
      <trkpt lat="41.322202607989311" lon="1.536086266860366">
        <ele>385.60000610351562</ele>
        <time>2018-12-29T08:05:00Z</time>
      </trkpt>
      <trkpt lat="41.322248205542564" lon="1.536019630730152">
        <ele>385.79998779296875</ele>
        <time>2018-12-29T08:05:02Z</time>
      </trkpt>
      <trkpt lat="41.322294725105166" lon="1.535953497514129">
        <ele>386.20001220703125</ele>
        <time>2018-12-29T08:05:04Z</time>
      </trkpt>
      <trkpt lat="41.322314087301493" lon="1.535916281864047">
        <ele>386.60000610351562</ele>
        <time>2018-12-29T08:05:05Z</time>
      </trkpt>
      <trkpt lat="41.322332946583629" lon="1.535878563299775">
        <ele>386.79998779296875</ele>
        <time>2018-12-29T08:05:06Z</time>
      </trkpt>
      <trkpt lat="41.322349710389972" lon="1.535838497802615">
        <ele>387</ele>
        <time>2018-12-29T08:05:07Z</time>
      </trkpt>
      <trkpt lat="41.322363959625363" lon="1.53579717501998">
        <ele>387</ele>
        <time>2018-12-29T08:05:08Z</time>
      </trkpt>
      <trkpt lat="41.322382818907499" lon="1.535707656294107">
        <ele>387.39999389648438</ele>
        <time>2018-12-29T08:05:10Z</time>
      </trkpt>
      <trkpt lat="41.322387680411339" lon="1.535658538341522">
        <ele>387.60000610351562</ele>
        <time>2018-12-29T08:05:11Z</time>
      </trkpt>
      <trkpt lat="41.322392961010337" lon="1.535610342398286">
        <ele>387.79998779296875</ele>
        <time>2018-12-29T08:05:12Z</time>
      </trkpt>
      <trkpt lat="41.32239849306643" lon="1.535558626055718">
        <ele>387.79998779296875</ele>
        <time>2018-12-29T08:05:13Z</time>
      </trkpt>
      <trkpt lat="41.322405869141221" lon="1.535513196140528">
        <ele>388</ele>
        <time>2018-12-29T08:05:14Z</time>
      </trkpt>
      <trkpt lat="41.322422130033374" lon="1.535420576110482">
        <ele>388.39999389648437</ele>
        <time>2018-12-29T08:05:16Z</time>
      </trkpt>
      <trkpt lat="41.322444593533874" lon="1.535329967737198">
        <ele>388.60000610351562</ele>
        <time>2018-12-29T08:05:18Z</time>
      </trkpt>
      <trkpt lat="41.322458339855075" lon="1.535288225859404">
        <ele>388.79998779296875</ele>
        <time>2018-12-29T08:05:19Z</time>
      </trkpt>
      <trkpt lat="41.322474349290133" lon="1.535247405990958">
        <ele>388.79998779296875</ele>
        <time>2018-12-29T08:05:20Z</time>
      </trkpt>
      <trkpt lat="41.322491867467761" lon="1.535207591950893">
        <ele>389.20001220703125</ele>
        <time>2018-12-29T08:05:21Z</time>
      </trkpt>
      <trkpt lat="41.322509804740548" lon="1.535170124843717">
        <ele>389.39999389648437</ele>
        <time>2018-12-29T08:05:22Z</time>
      </trkpt>
      <trkpt lat="41.322555653750896" lon="1.53511212207377">
        <ele>389.60000610351562</ele>
        <time>2018-12-29T08:05:24Z</time>
      </trkpt>
      <trkpt lat="41.322582475841045" lon="1.535087814554572">
        <ele>390</ele>
        <time>2018-12-29T08:05:25Z</time>
      </trkpt>
      <trkpt lat="41.322610136121511" lon="1.535063926130533">
        <ele>390.20001220703125</ele>
        <time>2018-12-29T08:05:26Z</time>
      </trkpt>
      <trkpt lat="41.322638215497136" lon="1.53503886424005">
        <ele>390.39999389648438</ele>
        <time>2018-12-29T08:05:27Z</time>
      </trkpt>
      <trkpt lat="41.3226677197963" lon="1.535016400739551">
        <ele>390.60000610351562</ele>
        <time>2018-12-29T08:05:28Z</time>
      </trkpt>
      <trkpt lat="41.322725806385279" lon="1.534975580871105">
        <ele>391</ele>
        <time>2018-12-29T08:05:30Z</time>
      </trkpt>
      <trkpt lat="41.322753885760903" lon="1.534951692447066">
        <ele>391.20001220703125</ele>
        <time>2018-12-29T08:05:31Z</time>
      </trkpt>
      <trkpt lat="41.322780791670084" lon="1.534926630556583">
        <ele>391.60000610351562</ele>
        <time>2018-12-29T08:05:32Z</time>
      </trkpt>
      <trkpt lat="41.32283141836524" lon="1.534873489290476">
        <ele>392</ele>
        <time>2018-12-29T08:05:34Z</time>
      </trkpt>
      <trkpt lat="41.322867376729846" lon="1.534803248941898">
        <ele>392.20001220703125</ele>
        <time>2018-12-29T08:05:36Z</time>
      </trkpt>
      <trkpt lat="41.322877183556557" lon="1.534763518720865">
        <ele>392.20001220703125</ele>
        <time>2018-12-29T08:05:37Z</time>
      </trkpt>
      <trkpt lat="41.322880536317825" lon="1.534720016643405">
        <ele>392.39999389648437</ele>
        <time>2018-12-29T08:05:38Z</time>
      </trkpt>
      <trkpt lat="41.322868969291449" lon="1.534635024145246">
        <ele>393</ele>
        <time>2018-12-29T08:05:40Z</time>
      </trkpt>
      <trkpt lat="41.322850864380598" lon="1.534597892314196">
        <ele>393.60000610351562</ele>
        <time>2018-12-29T08:05:41Z</time>
      </trkpt>
      <trkpt lat="41.322830077260733" lon="1.534566795453429">
        <ele>394</ele>
        <time>2018-12-29T08:05:42Z</time>
      </trkpt>
      <trkpt lat="41.322773667052388" lon="1.534516252577305">
        <ele>394.39999389648437</ele>
        <time>2018-12-29T08:05:44Z</time>
      </trkpt>
      <trkpt lat="41.322742905467749" lon="1.534496052190661">
        <ele>394.60000610351562</ele>
        <time>2018-12-29T08:05:45Z</time>
      </trkpt>
      <trkpt lat="41.322713987901807" lon="1.53447987511754">
        <ele>394.60000610351562</ele>
        <time>2018-12-29T08:05:46Z</time>
      </trkpt>
      <trkpt lat="41.32268289104104" lon="1.534467721357942">
        <ele>394.79998779296875</ele>
        <time>2018-12-29T08:05:47Z</time>
      </trkpt>
      <trkpt lat="41.322654476389289" lon="1.534458668902516">
        <ele>395</ele>
        <time>2018-12-29T08:05:48Z</time>
      </trkpt>
      <trkpt lat="41.32259982638061" lon="1.534438887611032">
        <ele>395.20001220703125</ele>
        <time>2018-12-29T08:05:50Z</time>
      </trkpt>
      <trkpt lat="41.322550876066089" lon="1.534422878175974">
        <ele>395.60000610351562</ele>
        <time>2018-12-29T08:05:52Z</time>
      </trkpt>
      <trkpt lat="41.322497818619013" lon="1.534402845427394">
        <ele>395.79998779296875</ele>
        <time>2018-12-29T08:05:54Z</time>
      </trkpt>
      <trkpt lat="41.322438139468431" lon="1.534386500716209">
        <ele>396</ele>
        <time>2018-12-29T08:05:56Z</time>
      </trkpt>
      <trkpt lat="41.322375945746899" lon="1.534375688061118">
        <ele>396.39999389648437</ele>
        <time>2018-12-29T08:05:58Z</time>
      </trkpt>
      <trkpt lat="41.322318697348237" lon="1.534370575100184">
        <ele>396.79998779296875</ele>
        <time>2018-12-29T08:06:00Z</time>
      </trkpt>
      <trkpt lat="41.322260107845068" lon="1.534366803243756">
        <ele>397</ele>
        <time>2018-12-29T08:06:02Z</time>
      </trkpt>
      <trkpt lat="41.32219816558063" lon="1.534367725253105">
        <ele>397.39999389648437</ele>
        <time>2018-12-29T08:06:04Z</time>
      </trkpt>
      <trkpt lat="41.322135217487812" lon="1.534363953396678">
        <ele>398</ele>
        <time>2018-12-29T08:06:06Z</time>
      </trkpt>
      <trkpt lat="41.32206866517663" lon="1.534370072185993">
        <ele>398.60000610351562</ele>
        <time>2018-12-29T08:06:08Z</time>
      </trkpt>
      <trkpt lat="41.322003034874797" lon="1.534387087449431">
        <ele>398.79998779296875</ele>
        <time>2018-12-29T08:06:10Z</time>
      </trkpt>
      <trkpt lat="41.321971770375967" lon="1.534399492666125">
        <ele>398.79998779296875</ele>
        <time>2018-12-29T08:06:11Z</time>
      </trkpt>
      <trkpt lat="41.321942266076803" lon="1.534413155168295">
        <ele>399</ele>
        <time>2018-12-29T08:06:12Z</time>
      </trkpt>
      <trkpt lat="41.321911085397005" lon="1.534426817670465">
        <ele>399.20001220703125</ele>
        <time>2018-12-29T08:06:13Z</time>
      </trkpt>
      <trkpt lat="41.321879820898175" lon="1.534440731629729">
        <ele>399.39999389648437</ele>
        <time>2018-12-29T08:06:14Z</time>
      </trkpt>
      <trkpt lat="41.32181603461504" lon="1.534469565376639">
        <ele>399.79998779296875</ele>
        <time>2018-12-29T08:06:16Z</time>
      </trkpt>
      <trkpt lat="41.321751410141587" lon="1.534501668065786">
        <ele>400</ele>
        <time>2018-12-29T08:06:18Z</time>
      </trkpt>
      <trkpt lat="41.321718217805028" lon="1.534518264234066">
        <ele>400.20001220703125</ele>
        <time>2018-12-29T08:06:19Z</time>
      </trkpt>
      <trkpt lat="41.321685528382659" lon="1.534532178193331">
        <ele>400.39999389648437</ele>
        <time>2018-12-29T08:06:20Z</time>
      </trkpt>
      <trkpt lat="41.321622915565968" lon="1.534563275054097">
        <ele>400.60000610351562</ele>
        <time>2018-12-29T08:06:22Z</time>
      </trkpt>
      <trkpt lat="41.321561308577657" lon="1.534603759646416">
        <ele>401</ele>
        <time>2018-12-29T08:06:24Z</time>
      </trkpt>
      <trkpt lat="41.321500539779663" lon="1.534638963639736">
        <ele>401.39999389648437</ele>
        <time>2018-12-29T08:06:26Z</time>
      </trkpt>
      <trkpt lat="41.321437256410718" lon="1.534669557586312">
        <ele>401.79998779296875</ele>
        <time>2018-12-29T08:06:28Z</time>
      </trkpt>
      <trkpt lat="41.321371123194695" lon="1.534699313342571">
        <ele>402.20001220703125</ele>
        <time>2018-12-29T08:06:30Z</time>
      </trkpt>
      <trkpt lat="41.32133960723877" lon="1.534712305292487">
        <ele>402.39999389648437</ele>
        <time>2018-12-29T08:06:31Z</time>
      </trkpt>
      <trkpt lat="41.321305744349957" lon="1.534724291414022">
        <ele>402.60000610351562</ele>
        <time>2018-12-29T08:06:32Z</time>
      </trkpt>
      <trkpt lat="41.321234246715903" lon="1.534736780449748">
        <ele>402.79998779296875</ele>
        <time>2018-12-29T08:06:34Z</time>
      </trkpt>
      <trkpt lat="41.321197701618075" lon="1.534733427688479">
        <ele>403</ele>
        <time>2018-12-29T08:06:35Z</time>
      </trkpt>
      <trkpt lat="41.321162078529596" lon="1.534724626690149">
        <ele>403</ele>
        <time>2018-12-29T08:06:36Z</time>
      </trkpt>
      <trkpt lat="41.321096029132605" lon="1.534687830135226">
        <ele>403.39999389648437</ele>
        <time>2018-12-29T08:06:38Z</time>
      </trkpt>
      <trkpt lat="41.321040540933609" lon="1.534621026366949">
        <ele>403.60000610351562</ele>
        <time>2018-12-29T08:06:40Z</time>
      </trkpt>
      <trkpt lat="41.321011791005731" lon="1.534531507641077">
        <ele>404</ele>
        <time>2018-12-29T08:06:42Z</time>
      </trkpt>
      <trkpt lat="41.321021346375346" lon="1.534431679174304">
        <ele>404.20001220703125</ele>
        <time>2018-12-29T08:06:44Z</time>
      </trkpt>
      <trkpt lat="41.321061747148633" lon="1.534345680847764">
        <ele>404.39999389648438</ele>
        <time>2018-12-29T08:06:46Z</time>
      </trkpt>
      <trkpt lat="41.321089575067163" lon="1.534315254539251">
        <ele>404.60000610351562</ele>
        <time>2018-12-29T08:06:47Z</time>
      </trkpt>
      <trkpt lat="41.321116229519248" lon="1.534289522096515">
        <ele>405</ele>
        <time>2018-12-29T08:06:48Z</time>
      </trkpt>
      <trkpt lat="41.321174148470163" lon="1.534245433285832">
        <ele>405.60000610351562</ele>
        <time>2018-12-29T08:06:50Z</time>
      </trkpt>
      <trkpt lat="41.321202563121915" lon="1.534225903451443">
        <ele>405.79998779296875</ele>
        <time>2018-12-29T08:06:51Z</time>
      </trkpt>
      <trkpt lat="41.321232486516237" lon="1.534208888188005">
        <ele>405.79998779296875</ele>
        <time>2018-12-29T08:06:52Z</time>
      </trkpt>
      <trkpt lat="41.321289148181677" lon="1.534176450222731">
        <ele>406.39999389648437</ele>
        <time>2018-12-29T08:06:54Z</time>
      </trkpt>
      <trkpt lat="41.321338769048452" lon="1.534145353361964">
        <ele>406.79998779296875</ele>
        <time>2018-12-29T08:06:56Z</time>
      </trkpt>
      <trkpt lat="41.321391658857465" lon="1.534124566242099">
        <ele>406.79998779296875</ele>
        <time>2018-12-29T08:06:58Z</time>
      </trkpt>
      <trkpt lat="41.32144907489419" lon="1.534110484644771">
        <ele>407.20001220703125</ele>
        <time>2018-12-29T08:07:00Z</time>
      </trkpt>
      <trkpt lat="41.321504227817059" lon="1.53410118073225">
        <ele>407.79998779296875</ele>
        <time>2018-12-29T08:07:02Z</time>
      </trkpt>
      <trkpt lat="41.321532055735588" lon="1.534095564857125">
        <ele>408</ele>
        <time>2018-12-29T08:07:03Z</time>
      </trkpt>
      <trkpt lat="41.321561308577657" lon="1.534089948982">
        <ele>408</ele>
        <time>2018-12-29T08:07:04Z</time>
      </trkpt>
      <trkpt lat="41.32162056863308" lon="1.534083243459463">
        <ele>408.20001220703125</ele>
        <time>2018-12-29T08:07:06Z</time>
      </trkpt>
      <trkpt lat="41.321679493412375" lon="1.534071592614055">
        <ele>408.60000610351562</ele>
        <time>2018-12-29T08:07:08Z</time>
      </trkpt>
      <trkpt lat="41.32174227386713" lon="1.534058433026075">
        <ele>408.79998779296875</ele>
        <time>2018-12-29T08:07:10Z</time>
      </trkpt>
      <trkpt lat="41.321773370727897" lon="1.534052900969982">
        <ele>409</ele>
        <time>2018-12-29T08:07:11Z</time>
      </trkpt>
      <trkpt lat="41.321804719045758" lon="1.534046279266477">
        <ele>409.20001220703125</ele>
        <time>2018-12-29T08:07:12Z</time>
      </trkpt>
      <trkpt lat="41.321870852261782" lon="1.534034628421068">
        <ele>409.20001220703125</ele>
        <time>2018-12-29T08:07:14Z</time>
      </trkpt>
      <trkpt lat="41.321938578039408" lon="1.534023815765977">
        <ele>409.60000610351562</ele>
        <time>2018-12-29T08:07:16Z</time>
      </trkpt>
      <trkpt lat="41.322005214169621" lon="1.534010320901871">
        <ele>410</ele>
        <time>2018-12-29T08:07:18Z</time>
      </trkpt>
      <trkpt lat="41.32207210175693" lon="1.533995736390352">
        <ele>410.20001220703125</ele>
        <time>2018-12-29T08:07:20Z</time>
      </trkpt>
      <trkpt lat="41.322138402611017" lon="1.533986432477832">
        <ele>410.60000610351562</ele>
        <time>2018-12-29T08:07:22Z</time>
      </trkpt>
      <trkpt lat="41.32220596075058" lon="1.533978972584009">
        <ele>411</ele>
        <time>2018-12-29T08:07:24Z</time>
      </trkpt>
      <trkpt lat="41.322241667658091" lon="1.533977715298533">
        <ele>411.20001220703125</ele>
        <time>2018-12-29T08:07:25Z</time>
      </trkpt>
      <trkpt lat="41.322278212755919" lon="1.533979056403041">
        <ele>411.39999389648437</ele>
        <time>2018-12-29T08:07:26Z</time>
      </trkpt>
      <trkpt lat="41.322346860542893" lon="1.533981319516897">
        <ele>411.79998779296875</ele>
        <time>2018-12-29T08:07:28Z</time>
      </trkpt>
      <trkpt lat="41.322378292679787" lon="1.533983834087849">
        <ele>411.79998779296875</ele>
        <time>2018-12-29T08:07:29Z</time>
      </trkpt>
      <trkpt lat="41.322410143911839" lon="1.533985761925578">
        <ele>412.20001220703125</ele>
        <time>2018-12-29T08:07:30Z</time>
      </trkpt>
      <trkpt lat="41.322442749515176" lon="1.533987019211054">
        <ele>412.39999389648437</ele>
        <time>2018-12-29T08:07:31Z</time>
      </trkpt>
      <trkpt lat="41.322478204965591" lon="1.533991377800703">
        <ele>412.39999389648437</ele>
        <time>2018-12-29T08:07:32Z</time>
      </trkpt>
      <trkpt lat="41.322544338181615" lon="1.533999340608716">
        <ele>412.79998779296875</ele>
        <time>2018-12-29T08:07:34Z</time>
      </trkpt>
      <trkpt lat="41.322607537731528" lon="1.534011410549283">
        <ele>413.20001220703125</ele>
        <time>2018-12-29T08:07:36Z</time>
      </trkpt>
      <trkpt lat="41.322639640420675" lon="1.534016942605376">
        <ele>413.60000610351562</ele>
        <time>2018-12-29T08:07:37Z</time>
      </trkpt>
      <trkpt lat="41.322670402005315" lon="1.534019624814391">
        <ele>413.79998779296875</ele>
        <time>2018-12-29T08:07:38Z</time>
      </trkpt>
      <trkpt lat="41.322732511907816" lon="1.534030437469482">
        <ele>414</ele>
        <time>2018-12-29T08:07:40Z</time>
      </trkpt>
      <trkpt lat="41.322792777791619" lon="1.53404057957232">
        <ele>414.39999389648437</ele>
        <time>2018-12-29T08:07:42Z</time>
      </trkpt>
      <trkpt lat="41.32282211445272" lon="1.534048961475492">
        <ele>414.60000610351562</ele>
        <time>2018-12-29T08:07:43Z</time>
      </trkpt>
      <trkpt lat="41.322849942371249" lon="1.534059019759297">
        <ele>414.79998779296875</ele>
        <time>2018-12-29T08:07:44Z</time>
      </trkpt>
      <trkpt lat="41.322878357023001" lon="1.534069664776325">
        <ele>415</ele>
        <time>2018-12-29T08:07:45Z</time>
      </trkpt>
      <trkpt lat="41.322906520217657" lon="1.534082153812051">
        <ele>415.20001220703125</ele>
        <time>2018-12-29T08:07:46Z</time>
      </trkpt>
      <trkpt lat="41.322962092235684" lon="1.534109059721232">
        <ele>415.60000610351562</ele>
        <time>2018-12-29T08:07:48Z</time>
      </trkpt>
      <trkpt lat="41.322986567392945" lon="1.534124650061131">
        <ele>415.79998779296875</ele>
        <time>2018-12-29T08:07:49Z</time>
      </trkpt>
      <trkpt lat="41.323010539636016" lon="1.534139988943934">
        <ele>415.79998779296875</ele>
        <time>2018-12-29T08:07:50Z</time>
      </trkpt>
      <trkpt lat="41.32306694984436" lon="1.534171923995018">
        <ele>416</ele>
        <time>2018-12-29T08:07:52Z</time>
      </trkpt>
      <trkpt lat="41.323096537962556" lon="1.534192794933915">
        <ele>416.20001220703125</ele>
        <time>2018-12-29T08:07:53Z</time>
      </trkpt>
      <trkpt lat="41.323126126080751" lon="1.534213582053781">
        <ele>416.39999389648437</ele>
        <time>2018-12-29T08:07:54Z</time>
      </trkpt>
      <trkpt lat="41.323180356994271" lon="1.534258257597685">
        <ele>416.60000610351562</ele>
        <time>2018-12-29T08:07:56Z</time>
      </trkpt>
      <trkpt lat="41.323206927627325" lon="1.534278374165297">
        <ele>416.79998779296875</ele>
        <time>2018-12-29T08:07:57Z</time>
      </trkpt>
      <trkpt lat="41.32323500700295" lon="1.534299496561289">
        <ele>417.20001220703125</ele>
        <time>2018-12-29T08:07:58Z</time>
      </trkpt>
      <trkpt lat="41.323289154097438" lon="1.534343585371971">
        <ele>417.60000610351562</ele>
        <time>2018-12-29T08:08:00Z</time>
      </trkpt>
      <trkpt lat="41.323337266221642" lon="1.534385830163956">
        <ele>417.79998779296875</ele>
        <time>2018-12-29T08:08:02Z</time>
      </trkpt>
      <trkpt lat="41.323379594832659" lon="1.534430254250765">
        <ele>418</ele>
        <time>2018-12-29T08:08:04Z</time>
      </trkpt>
      <trkpt lat="41.323415888473392" lon="1.534483144059777">
        <ele>418.39999389648437</ele>
        <time>2018-12-29T08:08:06Z</time>
      </trkpt>
      <trkpt lat="41.323451176285744" lon="1.534543409943581">
        <ele>418.60000610351562</ele>
        <time>2018-12-29T08:08:08Z</time>
      </trkpt>
      <trkpt lat="41.323480680584908" lon="1.534611638635397">
        <ele>418.79998779296875</ele>
        <time>2018-12-29T08:08:10Z</time>
      </trkpt>
      <trkpt lat="41.32350767031312" lon="1.534680286422372">
        <ele>419.39999389648437</ele>
        <time>2018-12-29T08:08:12Z</time>
      </trkpt>
      <trkpt lat="41.323526278138161" lon="1.534750359132886">
        <ele>419.60000610351562</ele>
        <time>2018-12-29T08:08:14Z</time>
      </trkpt>
      <trkpt lat="41.323532396927476" lon="1.534783719107509">
        <ele>419.79998779296875</ele>
        <time>2018-12-29T08:08:15Z</time>
      </trkpt>
      <trkpt lat="41.323535162955523" lon="1.534818168729544">
        <ele>420</ele>
        <time>2018-12-29T08:08:16Z</time>
      </trkpt>
      <trkpt lat="41.323531307280064" lon="1.534890839830041">
        <ele>420.20001220703125</ele>
        <time>2018-12-29T08:08:18Z</time>
      </trkpt>
      <trkpt lat="41.323514627292752" lon="1.534968204796314">
        <ele>420.60000610351562</ele>
        <time>2018-12-29T08:08:20Z</time>
      </trkpt>
      <trkpt lat="41.323502473533154" lon="1.535003995522857">
        <ele>420.60000610351562</ele>
        <time>2018-12-29T08:08:21Z</time>
      </trkpt>
      <trkpt lat="41.323487050831318" lon="1.535037355497479">
        <ele>420.79998779296875</ele>
        <time>2018-12-29T08:08:22Z</time>
      </trkpt>
      <trkpt lat="41.323471292853355" lon="1.535068955272436">
        <ele>421</ele>
        <time>2018-12-29T08:08:23Z</time>
      </trkpt>
      <trkpt lat="41.323455534875393" lon="1.535099968314171">
        <ele>421.20001220703125</ele>
        <time>2018-12-29T08:08:24Z</time>
      </trkpt>
      <trkpt lat="41.323423683643341" lon="1.535160904750228">
        <ele>421.60000610351562</ele>
        <time>2018-12-29T08:08:26Z</time>
      </trkpt>
      <trkpt lat="41.323387725278735" lon="1.535227373242378">
        <ele>421.79998779296875</ele>
        <time>2018-12-29T08:08:28Z</time>
      </trkpt>
      <trkpt lat="41.323368698358536" lon="1.535262912511826">
        <ele>421.79998779296875</ele>
        <time>2018-12-29T08:08:29Z</time>
      </trkpt>
      <trkpt lat="41.323350258171558" lon="1.535297697409987">
        <ele>422.20001220703125</ele>
        <time>2018-12-29T08:08:30Z</time>
      </trkpt>
      <trkpt lat="41.323312958702445" lon="1.535363662987948">
        <ele>422.60000610351562</ele>
        <time>2018-12-29T08:08:32Z</time>
      </trkpt>
      <trkpt lat="41.323276665061712" lon="1.535432394593954">
        <ele>422.79998779296875</ele>
        <time>2018-12-29T08:08:34Z</time>
      </trkpt>
      <trkpt lat="41.323241544887424" lon="1.535501629114151">
        <ele>423.39999389648437</ele>
        <time>2018-12-29T08:08:36Z</time>
      </trkpt>
      <trkpt lat="41.323205921798944" lon="1.535572791472077">
        <ele>423.79998779296875</ele>
        <time>2018-12-29T08:08:38Z</time>
      </trkpt>
      <trkpt lat="41.32318714633584" lon="1.535610761493444">
        <ele>424</ele>
        <time>2018-12-29T08:08:39Z</time>
      </trkpt>
      <trkpt lat="41.323170801624656" lon="1.535649904981256">
        <ele>424.20001220703125</ele>
        <time>2018-12-29T08:08:40Z</time>
      </trkpt>
      <trkpt lat="41.323157558217645" lon="1.535690892487764">
        <ele>424.39999389648438</ele>
        <time>2018-12-29T08:08:41Z</time>
      </trkpt>
      <trkpt lat="41.32314900867641" lon="1.535733891651034">
        <ele>424.60000610351562</ele>
        <time>2018-12-29T08:08:42Z</time>
      </trkpt>
      <trkpt lat="41.323138615116477" lon="1.535823661834002">
        <ele>424.79998779296875</ele>
        <time>2018-12-29T08:08:44Z</time>
      </trkpt>
      <trkpt lat="41.323135429993272" lon="1.535869929939508">
        <ele>425</ele>
        <time>2018-12-29T08:08:45Z</time>
      </trkpt>
      <trkpt lat="41.323130652308464" lon="1.535914689302445">
        <ele>425</ele>
        <time>2018-12-29T08:08:46Z</time>
      </trkpt>
      <trkpt lat="41.323123276233673" lon="1.536008315160871">
        <ele>425.20001220703125</ele>
        <time>2018-12-29T08:08:48Z</time>
      </trkpt>
      <trkpt lat="41.323126461356878" lon="1.536099007353187">
        <ele>425.39999389648437</ele>
        <time>2018-12-29T08:08:50Z</time>
      </trkpt>
      <trkpt lat="41.323144063353539" lon="1.536188358440995">
        <ele>426</ele>
        <time>2018-12-29T08:08:52Z</time>
      </trkpt>
      <trkpt lat="41.32317490875721" lon="1.536272261291742">
        <ele>426.20001220703125</ele>
        <time>2018-12-29T08:08:54Z</time>
      </trkpt>
      <trkpt lat="41.323193851858377" lon="1.536310818046331">
        <ele>426.60000610351562</ele>
        <time>2018-12-29T08:08:55Z</time>
      </trkpt>
      <trkpt lat="41.323215896263719" lon="1.536347279325128">
        <ele>426.79998779296875</ele>
        <time>2018-12-29T08:08:56Z</time>
      </trkpt>
      <trkpt lat="41.323241461068392" lon="1.536377035081387">
        <ele>427</ele>
        <time>2018-12-29T08:08:57Z</time>
      </trkpt>
      <trkpt lat="41.323270797729492" lon="1.536402013152838">
        <ele>427</ele>
        <time>2018-12-29T08:08:58Z</time>
      </trkpt>
      <trkpt lat="41.323331315070391" lon="1.536434618756175">
        <ele>427.39999389648438</ele>
        <time>2018-12-29T08:09:00Z</time>
      </trkpt>
      <trkpt lat="41.323395436629653" lon="1.53644073754549">
        <ele>427.39999389648438</ele>
        <time>2018-12-29T08:09:02Z</time>
      </trkpt>
      <trkpt lat="41.323428712785244" lon="1.536437468603253">
        <ele>427.60000610351562</ele>
        <time>2018-12-29T08:09:03Z</time>
      </trkpt>
      <trkpt lat="41.323460312560201" lon="1.536431265994906">
        <ele>427.79998779296875</ele>
        <time>2018-12-29T08:09:04Z</time>
      </trkpt>
      <trkpt lat="41.323515633121133" lon="1.536391787230969">
        <ele>428</ele>
        <time>2018-12-29T08:09:06Z</time>
      </trkpt>
      <trkpt lat="41.323539353907108" lon="1.53636303730309">
        <ele>428</ele>
        <time>2018-12-29T08:09:07Z</time>
      </trkpt>
      <trkpt lat="41.323559805750847" lon="1.536331856623292">
        <ele>428.20001220703125</ele>
        <time>2018-12-29T08:09:08Z</time>
      </trkpt>
      <trkpt lat="41.323597272858024" lon="1.536261029541493">
        <ele>428.39999389648437</ele>
        <time>2018-12-29T08:09:10Z</time>
      </trkpt>
      <trkpt lat="41.323631219565868" lon="1.536182323470712">
        <ele>428.39999389648437</ele>
        <time>2018-12-29T08:09:12Z</time>
      </trkpt>
      <trkpt lat="41.323659382760525" lon="1.536108311265707">
        <ele>428.60000610351562</ele>
        <time>2018-12-29T08:09:14Z</time>
      </trkpt>
      <trkpt lat="41.323692994192243" lon="1.53603513725102">
        <ele>428.60000610351562</ele>
        <time>2018-12-29T08:09:16Z</time>
      </trkpt>
      <trkpt lat="41.323730209842324" lon="1.535965902730823">
        <ele>429.39999389648437</ele>
        <time>2018-12-29T08:09:18Z</time>
      </trkpt>
      <trkpt lat="41.323772203177214" lon="1.535895746201277">
        <ele>429.60000610351562</ele>
        <time>2018-12-29T08:09:20Z</time>
      </trkpt>
      <trkpt lat="41.323818219825625" lon="1.53583480976522">
        <ele>430</ele>
        <time>2018-12-29T08:09:22Z</time>
      </trkpt>
      <trkpt lat="41.323867421597242" lon="1.535782003775239">
        <ele>430.20001220703125</ele>
        <time>2018-12-29T08:09:24Z</time>
      </trkpt>
      <trkpt lat="41.323922574520111" lon="1.535746799781919">
        <ele>430.39999389648437</ele>
        <time>2018-12-29T08:09:26Z</time>
      </trkpt>
      <trkpt lat="41.323984516784549" lon="1.535718636587262">
        <ele>431</ele>
        <time>2018-12-29T08:09:28Z</time>
      </trkpt>
      <trkpt lat="41.324014104902744" lon="1.535704052075744">
        <ele>431.20001220703125</ele>
        <time>2018-12-29T08:09:29Z</time>
      </trkpt>
      <trkpt lat="41.324044782668352" lon="1.535689970478416">
        <ele>431.20001220703125</ele>
        <time>2018-12-29T08:09:30Z</time>
      </trkpt>
      <trkpt lat="41.324102114886045" lon="1.535667004063726">
        <ele>431.60000610351562</ele>
        <time>2018-12-29T08:09:32Z</time>
      </trkpt>
      <trkpt lat="41.324162883684039" lon="1.535650240257382">
        <ele>432</ele>
        <time>2018-12-29T08:09:34Z</time>
      </trkpt>
      <trkpt lat="41.324229435995221" lon="1.535645127296448">
        <ele>432.39999389648437</ele>
        <time>2018-12-29T08:09:36Z</time>
      </trkpt>
      <trkpt lat="41.324294898658991" lon="1.535649318248034">
        <ele>432.60000610351562</ele>
        <time>2018-12-29T08:09:38Z</time>
      </trkpt>
      <trkpt lat="41.324358517304063" lon="1.535664238035679">
        <ele>433</ele>
        <time>2018-12-29T08:09:40Z</time>
      </trkpt>
      <trkpt lat="41.324420124292374" lon="1.535687623545528">
        <ele>433.79998779296875</ele>
        <time>2018-12-29T08:09:42Z</time>
      </trkpt>
      <trkpt lat="41.324478797614574" lon="1.535716876387596">
        <ele>434</ele>
        <time>2018-12-29T08:09:44Z</time>
      </trkpt>
      <trkpt lat="41.324508553370833" lon="1.535734394565225">
        <ele>434.39999389648437</ele>
        <time>2018-12-29T08:09:45Z</time>
      </trkpt>
      <trkpt lat="41.32453721947968" lon="1.535753505304456">
        <ele>434.60000610351562</ele>
        <time>2018-12-29T08:09:46Z</time>
      </trkpt>
      <trkpt lat="41.324597233906388" lon="1.535791391506791">
        <ele>435</ele>
        <time>2018-12-29T08:09:48Z</time>
      </trkpt>
      <trkpt lat="41.324626570567489" lon="1.535812010988593">
        <ele>435.20001220703125</ele>
        <time>2018-12-29T08:09:49Z</time>
      </trkpt>
      <trkpt lat="41.324654649943113" lon="1.535830702632666">
        <ele>435.39999389648437</ele>
        <time>2018-12-29T08:09:50Z</time>
      </trkpt>
      <trkpt lat="41.324709132313728" lon="1.535868756473064">
        <ele>435.79998779296875</ele>
        <time>2018-12-29T08:09:52Z</time>
      </trkpt>
      <trkpt lat="41.324764285236597" lon="1.53590421192348">
        <ele>436.20001220703125</ele>
        <time>2018-12-29T08:09:54Z</time>
      </trkpt>
      <trkpt lat="41.324792113155127" lon="1.535921981558204">
        <ele>436.39999389648437</ele>
        <time>2018-12-29T08:09:55Z</time>
      </trkpt>
      <trkpt lat="41.32482061162591" lon="1.535941679030657">
        <ele>436.39999389648437</ele>
        <time>2018-12-29T08:09:56Z</time>
      </trkpt>
      <trkpt lat="41.324876938015223" lon="1.535987025126815">
        <ele>436.79998779296875</ele>
        <time>2018-12-29T08:09:58Z</time>
      </trkpt>
      <trkpt lat="41.324928486719728" lon="1.536029605194926">
        <ele>437.20001220703125</ele>
        <time>2018-12-29T08:10:00Z</time>
      </trkpt>
      <trkpt lat="41.324951620772481" lon="1.53604980558157">
        <ele>437.39999389648437</ele>
        <time>2018-12-29T08:10:01Z</time>
      </trkpt>
      <trkpt lat="41.324973497539759" lon="1.536070257425308">
        <ele>437.60000610351562</ele>
        <time>2018-12-29T08:10:02Z</time>
      </trkpt>
      <trkpt lat="41.32501607760787" lon="1.536111077293754">
        <ele>438</ele>
        <time>2018-12-29T08:10:04Z</time>
      </trkpt>
      <trkpt lat="41.325060836970806" lon="1.536160027608275">
        <ele>438.60000610351562</ele>
        <time>2018-12-29T08:10:06Z</time>
      </trkpt>
      <trkpt lat="41.325105177238584" lon="1.536210989579558">
        <ele>438.60000610351562</ele>
        <time>2018-12-29T08:10:08Z</time>
      </trkpt>
      <trkpt lat="41.325145829468966" lon="1.536268908530474">
        <ele>439</ele>
        <time>2018-12-29T08:10:10Z</time>
      </trkpt>
      <trkpt lat="41.325182458385825" lon="1.536327665671706">
        <ele>439.39999389648437</ele>
        <time>2018-12-29T08:10:12Z</time>
      </trkpt>
      <trkpt lat="41.325202407315373" lon="1.536358175799251">
        <ele>439.60000610351562</ele>
        <time>2018-12-29T08:10:13Z</time>
      </trkpt>
      <trkpt lat="41.325221350416541" lon="1.53638893738389">
        <ele>439.60000610351562</ele>
        <time>2018-12-29T08:10:14Z</time>
      </trkpt>
      <trkpt lat="41.325258985161781" lon="1.536451214924455">
        <ele>440</ele>
        <time>2018-12-29T08:10:16Z</time>
      </trkpt>
      <trkpt lat="41.32529360242188" lon="1.536516258493066">
        <ele>440.39999389648437</ele>
        <time>2018-12-29T08:10:18Z</time>
      </trkpt>
      <trkpt lat="41.32532344199717" lon="1.536580882966518">
        <ele>440.60000610351562</ele>
        <time>2018-12-29T08:10:20Z</time>
      </trkpt>
      <trkpt lat="41.325358226895332" lon="1.536646177992225">
        <ele>441</ele>
        <time>2018-12-29T08:10:22Z</time>
      </trkpt>
      <trkpt lat="41.325388569384813" lon="1.53671340085566">
        <ele>441.20001220703125</ele>
        <time>2018-12-29T08:10:24Z</time>
      </trkpt>
      <trkpt lat="41.325422013178468" lon="1.53677542693913">
        <ele>441.60000610351562</ele>
        <time>2018-12-29T08:10:26Z</time>
      </trkpt>
      <trkpt lat="41.325439028441906" lon="1.536806523799896">
        <ele>441.79998779296875</ele>
        <time>2018-12-29T08:10:27Z</time>
      </trkpt>
      <trkpt lat="41.325455624610186" lon="1.536839799955487">
        <ele>441.79998779296875</ele>
        <time>2018-12-29T08:10:28Z</time>
      </trkpt>
      <trkpt lat="41.325471131131053" lon="1.536873914301395">
        <ele>442</ele>
        <time>2018-12-29T08:10:29Z</time>
      </trkpt>
      <trkpt lat="41.325484458357096" lon="1.53690978884697">
        <ele>442.39999389648437</ele>
        <time>2018-12-29T08:10:30Z</time>
      </trkpt>
      <trkpt lat="41.325503066182137" lon="1.536982459947467">
        <ele>442.60000610351562</ele>
        <time>2018-12-29T08:10:32Z</time>
      </trkpt>
      <trkpt lat="41.32550859823823" lon="1.537020346149802">
        <ele>442.79998779296875</ele>
        <time>2018-12-29T08:10:33Z</time>
      </trkpt>
      <trkpt lat="41.325511280447245" lon="1.537056220695376">
        <ele>443</ele>
        <time>2018-12-29T08:10:34Z</time>
      </trkpt>
      <trkpt lat="41.325517985969782" lon="1.537130903452635">
        <ele>443.20001220703125</ele>
        <time>2018-12-29T08:10:36Z</time>
      </trkpt>
      <trkpt lat="41.325525110587478" lon="1.53720198199153">
        <ele>443.79998779296875</ele>
        <time>2018-12-29T08:10:38Z</time>
      </trkpt>
      <trkpt lat="41.325531899929047" lon="1.537277586758137">
        <ele>444</ele>
        <time>2018-12-29T08:10:40Z</time>
      </trkpt>
      <trkpt lat="41.32554329931736" lon="1.537353191524744">
        <ele>444.39999389648438</ele>
        <time>2018-12-29T08:10:42Z</time>
      </trkpt>
      <trkpt lat="41.325561488047242" lon="1.537429383024573">
        <ele>444.79998779296875</ele>
        <time>2018-12-29T08:10:44Z</time>
      </trkpt>
      <trkpt lat="41.325573641806841" lon="1.537463748827577">
        <ele>445</ele>
        <time>2018-12-29T08:10:45Z</time>
      </trkpt>
      <trkpt lat="41.325587220489979" lon="1.537496522068977">
        <ele>445.20001220703125</ele>
        <time>2018-12-29T08:10:46Z</time>
      </trkpt>
      <trkpt lat="41.325624771416187" lon="1.53755335137248">
        <ele>445.60000610351562</ele>
        <time>2018-12-29T08:10:48Z</time>
      </trkpt>
      <trkpt lat="41.325664669275284" lon="1.537609677761793">
        <ele>446</ele>
        <time>2018-12-29T08:10:50Z</time>
      </trkpt>
      <trkpt lat="41.325707919895649" lon="1.537660388275981">
        <ele>446.20001220703125</ele>
        <time>2018-12-29T08:10:52Z</time>
      </trkpt>
      <trkpt lat="41.325757121667266" lon="1.537713026627898">
        <ele>446.79998779296875</ele>
        <time>2018-12-29T08:10:54Z</time>
      </trkpt>
      <trkpt lat="41.325801713392138" lon="1.53776390478015">
        <ele>447</ele>
        <time>2018-12-29T08:10:56Z</time>
      </trkpt>
      <trkpt lat="41.325849741697311" lon="1.537810591980815">
        <ele>447.39999389648438</ele>
        <time>2018-12-29T08:10:58Z</time>
      </trkpt>
      <trkpt lat="41.325874552130699" lon="1.537830960005522">
        <ele>447.39999389648438</ele>
        <time>2018-12-29T08:10:59Z</time>
      </trkpt>
      <trkpt lat="41.325899697840214" lon="1.537850825116038">
        <ele>447.60000610351562</ele>
        <time>2018-12-29T08:11:00Z</time>
      </trkpt>
      <trkpt lat="41.325949318706989" lon="1.537889046594501">
        <ele>448</ele>
        <time>2018-12-29T08:11:02Z</time>
      </trkpt>
      <trkpt lat="41.326002543792129" lon="1.537923412397504">
        <ele>448.39999389648437</ele>
        <time>2018-12-29T08:11:04Z</time>
      </trkpt>
      <trkpt lat="41.32605392485857" lon="1.537954341620207">
        <ele>448.79998779296875</ele>
        <time>2018-12-29T08:11:06Z</time>
      </trkpt>
      <trkpt lat="41.326081333681941" lon="1.537967165932059">
        <ele>449</ele>
        <time>2018-12-29T08:11:07Z</time>
      </trkpt>
      <trkpt lat="41.326109748333693" lon="1.53797646984458">
        <ele>449.20001220703125</ele>
        <time>2018-12-29T08:11:08Z</time>
      </trkpt>
      <trkpt lat="41.326168589293957" lon="1.53798284009099">
        <ele>449.39999389648437</ele>
        <time>2018-12-29T08:11:10Z</time>
      </trkpt>
      <trkpt lat="41.326226675882936" lon="1.537983510643244">
        <ele>449.39999389648437</ele>
        <time>2018-12-29T08:11:12Z</time>
      </trkpt>
      <trkpt lat="41.326258610934019" lon="1.537983007729054">
        <ele>449.79998779296875</ele>
        <time>2018-12-29T08:11:13Z</time>
      </trkpt>
      <trkpt lat="41.326289037242532" lon="1.537979487329722">
        <ele>449.79998779296875</ele>
        <time>2018-12-29T08:11:14Z</time>
      </trkpt>
      <trkpt lat="41.326319882646203" lon="1.537975464016199">
        <ele>450.20001220703125</ele>
        <time>2018-12-29T08:11:15Z</time>
      </trkpt>
      <trkpt lat="41.326351063326001" lon="1.537974122911692">
        <ele>450.20001220703125</ele>
        <time>2018-12-29T08:11:16Z</time>
      </trkpt>
      <trkpt lat="41.326411496847868" lon="1.537969009950757">
        <ele>450.60000610351562</ele>
        <time>2018-12-29T08:11:18Z</time>
      </trkpt>
      <trkpt lat="41.326470924541354" lon="1.537959454581142">
        <ele>450.79998779296875</ele>
        <time>2018-12-29T08:11:20Z</time>
      </trkpt>
      <trkpt lat="41.326529597863555" lon="1.537951156497002">
        <ele>451.20001220703125</ele>
        <time>2018-12-29T08:11:22Z</time>
      </trkpt>
      <trkpt lat="41.326587935909629" lon="1.537948809564114">
        <ele>451.60000610351562</ele>
        <time>2018-12-29T08:11:24Z</time>
      </trkpt>
      <trkpt lat="41.326646273955703" lon="1.537944786250591">
        <ele>452</ele>
        <time>2018-12-29T08:11:26Z</time>
      </trkpt>
      <trkpt lat="41.326702265068889" lon="1.537938667461276">
        <ele>452.39999389648437</ele>
        <time>2018-12-29T08:11:28Z</time>
      </trkpt>
      <trkpt lat="41.326731601729989" lon="1.537934308871627">
        <ele>452.39999389648437</ele>
        <time>2018-12-29T08:11:29Z</time>
      </trkpt>
      <trkpt lat="41.326760770753026" lon="1.537931626662612">
        <ele>452.60000610351562</ele>
        <time>2018-12-29T08:11:30Z</time>
      </trkpt>
      <trkpt lat="41.326818773522973" lon="1.537935985252261">
        <ele>453</ele>
        <time>2018-12-29T08:11:32Z</time>
      </trkpt>
      <trkpt lat="41.326876105740666" lon="1.537951407954097">
        <ele>453.20001220703125</ele>
        <time>2018-12-29T08:11:34Z</time>
      </trkpt>
      <trkpt lat="41.326903011649847" lon="1.537964064627886">
        <ele>453.39999389648437</ele>
        <time>2018-12-29T08:11:35Z</time>
      </trkpt>
      <trkpt lat="41.326928408816457" lon="1.537981331348419">
        <ele>453.60000610351562</ele>
        <time>2018-12-29T08:11:36Z</time>
      </trkpt>
      <trkpt lat="41.326971240341663" lon="1.538030197843909">
        <ele>454</ele>
        <time>2018-12-29T08:11:38Z</time>
      </trkpt>
      <trkpt lat="41.327006695792079" lon="1.538092056289315">
        <ele>454.20001220703125</ele>
        <time>2018-12-29T08:11:40Z</time>
      </trkpt>
      <trkpt lat="41.327020358294249" lon="1.538126841187477">
        <ele>454.60000610351562</ele>
        <time>2018-12-29T08:11:41Z</time>
      </trkpt>
      <trkpt lat="41.327030751854181" lon="1.538165397942066">
        <ele>455</ele>
        <time>2018-12-29T08:11:42Z</time>
      </trkpt>
      <trkpt lat="41.327042570337653" lon="1.53824427165091">
        <ele>455.20001220703125</ele>
        <time>2018-12-29T08:11:44Z</time>
      </trkpt>
      <trkpt lat="41.327042318880558" lon="1.538327839225531">
        <ele>455.60000610351562</ele>
        <time>2018-12-29T08:11:46Z</time>
      </trkpt>
      <trkpt lat="41.327041229233146" lon="1.538367820903659">
        <ele>455.79998779296875</ele>
        <time>2018-12-29T08:11:47Z</time>
      </trkpt>
      <trkpt lat="41.327038882300258" lon="1.538408389315009">
        <ele>456</ele>
        <time>2018-12-29T08:11:48Z</time>
      </trkpt>
      <trkpt lat="41.327031925320625" lon="1.538481647148728">
        <ele>456.39999389648437</ele>
        <time>2018-12-29T08:11:50Z</time>
      </trkpt>
      <trkpt lat="41.327031003311276" lon="1.538518946617842">
        <ele>456.60000610351562</ele>
        <time>2018-12-29T08:11:51Z</time>
      </trkpt>
      <trkpt lat="41.327029829844832" lon="1.538558257743716">
        <ele>456.79998779296875</ele>
        <time>2018-12-29T08:11:52Z</time>
      </trkpt>
      <trkpt lat="41.327029075473547" lon="1.53863562270999">
        <ele>457.20001220703125</ele>
        <time>2018-12-29T08:11:54Z</time>
      </trkpt>
      <trkpt lat="41.327028572559357" lon="1.538712987676263">
        <ele>457.60000610351562</ele>
        <time>2018-12-29T08:11:56Z</time>
      </trkpt>
      <trkpt lat="41.327026477083564" lon="1.538751795887947">
        <ele>457.60000610351562</ele>
        <time>2018-12-29T08:11:57Z</time>
      </trkpt>
      <trkpt lat="41.327023208141327" lon="1.538791861385107">
        <ele>457.79998779296875</ele>
        <time>2018-12-29T08:11:58Z</time>
      </trkpt>
      <trkpt lat="41.327017759904265" lon="1.538867382332683">
        <ele>458.20001220703125</ele>
        <time>2018-12-29T08:12:00Z</time>
      </trkpt>
      <trkpt lat="41.327012982219458" lon="1.538942651823163">
        <ele>458.39999389648438</ele>
        <time>2018-12-29T08:12:02Z</time>
      </trkpt>
      <trkpt lat="41.327003426849842" lon="1.539021357893944">
        <ele>458.79998779296875</ele>
        <time>2018-12-29T08:12:04Z</time>
      </trkpt>
      <trkpt lat="41.32700233720243" lon="1.539060501381755">
        <ele>458.79998779296875</ele>
        <time>2018-12-29T08:12:05Z</time>
      </trkpt>
      <trkpt lat="41.327001415193081" lon="1.539099058136344">
        <ele>459.20001220703125</ele>
        <time>2018-12-29T08:12:06Z</time>
      </trkpt>
      <trkpt lat="41.326993368566036" lon="1.539177931845188">
        <ele>459.60000610351562</ele>
        <time>2018-12-29T08:12:08Z</time>
      </trkpt>
      <trkpt lat="41.326991943642497" lon="1.539218500256538">
        <ele>459.79998779296875</ele>
        <time>2018-12-29T08:12:09Z</time>
      </trkpt>
      <trkpt lat="41.326992362737656" lon="1.539257057011128">
        <ele>460</ele>
        <time>2018-12-29T08:12:10Z</time>
      </trkpt>
      <trkpt lat="41.326993871480227" lon="1.539293937385082">
        <ele>460</ele>
        <time>2018-12-29T08:12:11Z</time>
      </trkpt>
      <trkpt lat="41.326998313888907" lon="1.539331488311291">
        <ele>460</ele>
        <time>2018-12-29T08:12:12Z</time>
      </trkpt>
      <trkpt lat="41.327016334980726" lon="1.539403907954693">
        <ele>460.60000610351562</ele>
        <time>2018-12-29T08:12:14Z</time>
      </trkpt>
      <trkpt lat="41.327043576166034" lon="1.539474399760366">
        <ele>461</ele>
        <time>2018-12-29T08:12:16Z</time>
      </trkpt>
      <trkpt lat="41.327061094343662" lon="1.539506753906608">
        <ele>461.20001220703125</ele>
        <time>2018-12-29T08:12:17Z</time>
      </trkpt>
      <trkpt lat="41.327080456539989" lon="1.539535755291581">
        <ele>461.39999389648438</ele>
        <time>2018-12-29T08:12:18Z</time>
      </trkpt>
      <trkpt lat="41.327129658311605" lon="1.539576491340995">
        <ele>461.60000610351562</ele>
        <time>2018-12-29T08:12:20Z</time>
      </trkpt>
      <trkpt lat="41.327185230329633" lon="1.539588728919625">
        <ele>462</ele>
        <time>2018-12-29T08:12:22Z</time>
      </trkpt>
      <trkpt lat="41.327214147895575" lon="1.539590237662196">
        <ele>462</ele>
        <time>2018-12-29T08:12:23Z</time>
      </trkpt>
      <trkpt lat="41.327243149280548" lon="1.539586465805769">
        <ele>462.20001220703125</ele>
        <time>2018-12-29T08:12:24Z</time>
      </trkpt>
      <trkpt lat="41.327300481498241" lon="1.539569366723299">
        <ele>462.60000610351562</ele>
        <time>2018-12-29T08:12:26Z</time>
      </trkpt>
      <trkpt lat="41.327361250296235" lon="1.539550758898258">
        <ele>462.60000610351562</ele>
        <time>2018-12-29T08:12:28Z</time>
      </trkpt>
      <trkpt lat="41.32742109708488" lon="1.539532486349344">
        <ele>463.20001220703125</ele>
        <time>2018-12-29T08:12:30Z</time>
      </trkpt>
      <trkpt lat="41.327478094026446" lon="1.539506586268544">
        <ele>463.60000610351562</ele>
        <time>2018-12-29T08:12:32Z</time>
      </trkpt>
      <trkpt lat="41.327533582225442" lon="1.539486469700933">
        <ele>463.79998779296875</ele>
        <time>2018-12-29T08:12:34Z</time>
      </trkpt>
      <trkpt lat="41.327592758461833" lon="1.539471885189414">
        <ele>464.20001220703125</ele>
        <time>2018-12-29T08:12:36Z</time>
      </trkpt>
      <trkpt lat="41.327623436227441" lon="1.539466939866543">
        <ele>464.39999389648438</ele>
        <time>2018-12-29T08:12:37Z</time>
      </trkpt>
      <trkpt lat="41.327653862535954" lon="1.539462832733989">
        <ele>464.39999389648438</ele>
        <time>2018-12-29T08:12:38Z</time>
      </trkpt>
      <trkpt lat="41.327714463695884" lon="1.539450846612454">
        <ele>464.79998779296875</ele>
        <time>2018-12-29T08:12:40Z</time>
      </trkpt>
      <trkpt lat="41.327773807570338" lon="1.539436345919967">
        <ele>465</ele>
        <time>2018-12-29T08:12:42Z</time>
      </trkpt>
      <trkpt lat="41.327831894159317" lon="1.539422096684575">
        <ele>465.39999389648437</ele>
        <time>2018-12-29T08:12:44Z</time>
      </trkpt>
      <trkpt lat="41.327887298539281" lon="1.539402483031154">
        <ele>465.79998779296875</ele>
        <time>2018-12-29T08:12:46Z</time>
      </trkpt>
      <trkpt lat="41.327914455905557" lon="1.53938957490027">
        <ele>465.79998779296875</ele>
        <time>2018-12-29T08:12:47Z</time>
      </trkpt>
      <trkpt lat="41.327941613271832" lon="1.53937398456037">
        <ele>466</ele>
        <time>2018-12-29T08:12:48Z</time>
      </trkpt>
      <trkpt lat="41.327996766194701" lon="1.539334338158369">
        <ele>466.20001220703125</ele>
        <time>2018-12-29T08:12:50Z</time>
      </trkpt>
      <trkpt lat="41.328048063442111" lon="1.539277508854866">
        <ele>466.39999389648437</ele>
        <time>2018-12-29T08:12:52Z</time>
      </trkpt>
      <trkpt lat="41.328071868047118" lon="1.539244735613465">
        <ele>466.39999389648437</ele>
        <time>2018-12-29T08:12:53Z</time>
      </trkpt>
      <trkpt lat="41.328092068433762" lon="1.539210537448525">
        <ele>466.79998779296875</ele>
        <time>2018-12-29T08:12:54Z</time>
      </trkpt>
      <trkpt lat="41.328130960464478" lon="1.539138285443187">
        <ele>466.79998779296875</ele>
        <time>2018-12-29T08:12:56Z</time>
      </trkpt>
      <trkpt lat="41.328169098123908" lon="1.539066955447197">
        <ele>467.20001220703125</ele>
        <time>2018-12-29T08:12:58Z</time>
      </trkpt>
      <trkpt lat="41.328200781717896" lon="1.53898942284286">
        <ele>467.39999389648437</ele>
        <time>2018-12-29T08:13:00Z</time>
      </trkpt>
      <trkpt lat="41.32821561768651" lon="1.538951452821493">
        <ele>467.39999389648437</ele>
        <time>2018-12-29T08:13:01Z</time>
      </trkpt>
      <trkpt lat="41.32823321968317" lon="1.538914991542697">
        <ele>467.60000610351562</ele>
        <time>2018-12-29T08:13:02Z</time>
      </trkpt>
      <trkpt lat="41.328265154734254" lon="1.538837039843202">
        <ele>468</ele>
        <time>2018-12-29T08:13:04Z</time>
      </trkpt>
      <trkpt lat="41.328294072300196" lon="1.538757160305977">
        <ele>468.20001220703125</ele>
        <time>2018-12-29T08:13:06Z</time>
      </trkpt>
      <trkpt lat="41.328316535800695" lon="1.538672922179103">
        <ele>468.39999389648437</ele>
        <time>2018-12-29T08:13:08Z</time>
      </trkpt>
      <trkpt lat="41.328337406739593" lon="1.538585750386119">
        <ele>468.60000610351562</ele>
        <time>2018-12-29T08:13:10Z</time>
      </trkpt>
      <trkpt lat="41.32834997959435" lon="1.538542583584786">
        <ele>468.60000610351562</ele>
        <time>2018-12-29T08:13:11Z</time>
      </trkpt>
      <trkpt lat="41.328360708430409" lon="1.538501512259245">
        <ele>468.79998779296875</ele>
        <time>2018-12-29T08:13:12Z</time>
      </trkpt>
      <trkpt lat="41.328383004292846" lon="1.53842406347394">
        <ele>469</ele>
        <time>2018-12-29T08:13:14Z</time>
      </trkpt>
      <trkpt lat="41.328403875231743" lon="1.538344351574779">
        <ele>469.39999389648437</ele>
        <time>2018-12-29T08:13:16Z</time>
      </trkpt>
      <trkpt lat="41.328416364267468" lon="1.538304286077619">
        <ele>469.60000610351562</ele>
        <time>2018-12-29T08:13:17Z</time>
      </trkpt>
      <trkpt lat="41.328427847474813" lon="1.538264388218522">
        <ele>469.79998779296875</ele>
        <time>2018-12-29T08:13:18Z</time>
      </trkpt>
      <trkpt lat="41.328449975699186" lon="1.538184927776456">
        <ele>470</ele>
        <time>2018-12-29T08:13:20Z</time>
      </trkpt>
      <trkpt lat="41.328469170257449" lon="1.538103874772787">
        <ele>470.20001220703125</ele>
        <time>2018-12-29T08:13:22Z</time>
      </trkpt>
      <trkpt lat="41.328489119186997" lon="1.538025001063943">
        <ele>470.60000610351562</ele>
        <time>2018-12-29T08:13:24Z</time>
      </trkpt>
      <trkpt lat="41.328512169420719" lon="1.537945540621877">
        <ele>470.79998779296875</ele>
        <time>2018-12-29T08:13:26Z</time>
      </trkpt>
      <trkpt lat="41.328534968197346" lon="1.537862056866288">
        <ele>471</ele>
        <time>2018-12-29T08:13:28Z</time>
      </trkpt>
      <trkpt lat="41.32855718024075" lon="1.537781003862619">
        <ele>471.39999389648437</ele>
        <time>2018-12-29T08:13:30Z</time>
      </trkpt>
      <trkpt lat="41.328578470274806" lon="1.537698525935412">
        <ele>471.39999389648437</ele>
        <time>2018-12-29T08:13:32Z</time>
      </trkpt>
      <trkpt lat="41.328599844127893" lon="1.537612779065967">
        <ele>471.79998779296875</ele>
        <time>2018-12-29T08:13:34Z</time>
      </trkpt>
      <trkpt lat="41.328609986230731" lon="1.537572629749775">
        <ele>471.79998779296875</ele>
        <time>2018-12-29T08:13:35Z</time>
      </trkpt>
      <trkpt lat="41.328623061999679" lon="1.537532480433583">
        <ele>472</ele>
        <time>2018-12-29T08:13:36Z</time>
      </trkpt>
      <trkpt lat="41.328644352033734" lon="1.537451762706041">
        <ele>472</ele>
        <time>2018-12-29T08:13:38Z</time>
      </trkpt>
      <trkpt lat="41.328666731715202" lon="1.537366267293692">
        <ele>472.39999389648437</ele>
        <time>2018-12-29T08:13:40Z</time>
      </trkpt>
      <trkpt lat="41.328690033406019" lon="1.537280771881342">
        <ele>472.79998779296875</ele>
        <time>2018-12-29T08:13:42Z</time>
      </trkpt>
      <trkpt lat="41.328704031184316" lon="1.537238527089357">
        <ele>473</ele>
        <time>2018-12-29T08:13:43Z</time>
      </trkpt>
      <trkpt lat="41.328716771677136" lon="1.537197958678007">
        <ele>473</ele>
        <time>2018-12-29T08:13:44Z</time>
      </trkpt>
      <trkpt lat="41.328744264319539" lon="1.537117157131434">
        <ele>473.20001220703125</ele>
        <time>2018-12-29T08:13:46Z</time>
      </trkpt>
      <trkpt lat="41.328783575445414" lon="1.537045072764158">
        <ele>473.39999389648437</ele>
        <time>2018-12-29T08:13:48Z</time>
      </trkpt>
      <trkpt lat="41.328831352293491" lon="1.536982292309403">
        <ele>473.79998779296875</ele>
        <time>2018-12-29T08:13:50Z</time>
      </trkpt>
      <trkpt lat="41.328854989260435" lon="1.536953039467335">
        <ele>473.79998779296875</ele>
        <time>2018-12-29T08:13:51Z</time>
      </trkpt>
      <trkpt lat="41.328878290951252" lon="1.536926468834281">
        <ele>473.79998779296875</ele>
        <time>2018-12-29T08:13:52Z</time>
      </trkpt>
      <trkpt lat="41.328923469409347" lon="1.536876428872347">
        <ele>474</ele>
        <time>2018-12-29T08:13:54Z</time>
      </trkpt>
      <trkpt lat="41.328968815505505" lon="1.536829574033618">
        <ele>474.79998779296875</ele>
        <time>2018-12-29T08:13:56Z</time>
      </trkpt>
      <trkpt lat="41.329012317582965" lon="1.536778109148145">
        <ele>475</ele>
        <time>2018-12-29T08:13:58Z</time>
      </trkpt>
      <trkpt lat="41.329034278169274" lon="1.536752125248313">
        <ele>475.20001220703125</ele>
        <time>2018-12-29T08:13:59Z</time>
      </trkpt>
      <trkpt lat="41.32905799895525" lon="1.536726476624608">
        <ele>475.20001220703125</ele>
        <time>2018-12-29T08:14:00Z</time>
      </trkpt>
      <trkpt lat="41.329105440527201" lon="1.536680376157165">
        <ele>475.79998779296875</ele>
        <time>2018-12-29T08:14:02Z</time>
      </trkpt>
      <trkpt lat="41.329154139384627" lon="1.536637041717768">
        <ele>476</ele>
        <time>2018-12-29T08:14:04Z</time>
      </trkpt>
      <trkpt lat="41.32917869836092" lon="1.536615081131458">
        <ele>476.20001220703125</ele>
        <time>2018-12-29T08:14:05Z</time>
      </trkpt>
      <trkpt lat="41.329202838242054" lon="1.536596473306418">
        <ele>476.60000610351562</ele>
        <time>2018-12-29T08:14:06Z</time>
      </trkpt>
      <trkpt lat="41.329253129661083" lon="1.536554982885718">
        <ele>476.79998779296875</ele>
        <time>2018-12-29T08:14:08Z</time>
      </trkpt>
      <trkpt lat="41.329278610646725" lon="1.536536207422614">
        <ele>477</ele>
        <time>2018-12-29T08:14:09Z</time>
      </trkpt>
      <trkpt lat="41.329306354746222" lon="1.536521287634969">
        <ele>477.20001220703125</ele>
        <time>2018-12-29T08:14:10Z</time>
      </trkpt>
      <trkpt lat="41.329333763569593" lon="1.536505445837975">
        <ele>477.39999389648437</ele>
        <time>2018-12-29T08:14:11Z</time>
      </trkpt>
      <trkpt lat="41.329362010583282" lon="1.536492286249995">
        <ele>477.60000610351562</ele>
        <time>2018-12-29T08:14:12Z</time>
      </trkpt>
      <trkpt lat="41.329419258981943" lon="1.536471918225288">
        <ele>478</ele>
        <time>2018-12-29T08:14:14Z</time>
      </trkpt>
      <trkpt lat="41.329473657533526" lon="1.53645196929574">
        <ele>478.20001220703125</ele>
        <time>2018-12-29T08:14:16Z</time>
      </trkpt>
      <trkpt lat="41.329500982537866" lon="1.5364436712116">
        <ele>478.39999389648438</ele>
        <time>2018-12-29T08:14:17Z</time>
      </trkpt>
      <trkpt lat="41.329528978094459" lon="1.536433110013604">
        <ele>478.60000610351562</ele>
        <time>2018-12-29T08:14:18Z</time>
      </trkpt>
      <trkpt lat="41.3295837957412" lon="1.536407377570868">
        <ele>479</ele>
        <time>2018-12-29T08:14:20Z</time>
      </trkpt>
      <trkpt lat="41.329634003341198" lon="1.536372508853674">
        <ele>479.39999389648437</ele>
        <time>2018-12-29T08:14:22Z</time>
      </trkpt>
      <trkpt lat="41.329656969755888" lon="1.536354571580887">
        <ele>479.79998779296875</ele>
        <time>2018-12-29T08:14:23Z</time>
      </trkpt>
      <trkpt lat="41.329681947827339" lon="1.536337388679385">
        <ele>480</ele>
        <time>2018-12-29T08:14:24Z</time>
      </trkpt>
      <trkpt lat="41.329708099365234" lon="1.536317439749837">
        <ele>480.20001220703125</ele>
        <time>2018-12-29T08:14:25Z</time>
      </trkpt>
      <trkpt lat="41.329731065779924" lon="1.536292210221291">
        <ele>480.39999389648437</ele>
        <time>2018-12-29T08:14:26Z</time>
      </trkpt>
      <trkpt lat="41.329774232581258" lon="1.53623353689909">
        <ele>480.60000610351562</ele>
        <time>2018-12-29T08:14:28Z</time>
      </trkpt>
      <trkpt lat="41.329813543707132" lon="1.536167319864035">
        <ele>480.60000610351562</ele>
        <time>2018-12-29T08:14:30Z</time>
      </trkpt>
      <trkpt lat="41.329830223694444" lon="1.536132702603936">
        <ele>480.60000610351562</ele>
        <time>2018-12-29T08:14:31Z</time>
      </trkpt>
      <trkpt lat="41.329846400767565" lon="1.536098336800933">
        <ele>480.60000610351562</ele>
        <time>2018-12-29T08:14:32Z</time>
      </trkpt>
      <trkpt lat="41.329876240342855" lon="1.536027928814292">
        <ele>481</ele>
        <time>2018-12-29T08:14:34Z</time>
      </trkpt>
      <trkpt lat="41.329908510670066" lon="1.535957185551524">
        <ele>481.20001220703125</ele>
        <time>2018-12-29T08:14:36Z</time>
      </trkpt>
      <trkpt lat="41.329936170950532" lon="1.535893818363547">
        <ele>481.39999389648438</ele>
        <time>2018-12-29T08:14:38Z</time>
      </trkpt>
      <trkpt lat="41.329963747411966" lon="1.53582944534719">
        <ele>481.79998779296875</ele>
        <time>2018-12-29T08:14:40Z</time>
      </trkpt>
      <trkpt lat="41.329974811524153" lon="1.535795498639345">
        <ele>482</ele>
        <time>2018-12-29T08:14:41Z</time>
      </trkpt>
      <trkpt lat="41.329984702169895" lon="1.535759204998612">
        <ele>482.39999389648437</ele>
        <time>2018-12-29T08:14:42Z</time>
      </trkpt>
      <trkpt lat="41.329997861757874" lon="1.535685108974576">
        <ele>482.79998779296875</ele>
        <time>2018-12-29T08:14:44Z</time>
      </trkpt>
      <trkpt lat="41.33000984787941" lon="1.535604810342193">
        <ele>483</ele>
        <time>2018-12-29T08:14:46Z</time>
      </trkpt>
      <trkpt lat="41.330019403249025" lon="1.535523673519492">
        <ele>483.20001220703125</ele>
        <time>2018-12-29T08:14:48Z</time>
      </trkpt>
      <trkpt lat="41.330020828172565" lon="1.535446643829346">
        <ele>483.60000610351562</ele>
        <time>2018-12-29T08:14:50Z</time>
      </trkpt>
      <trkpt lat="41.330017391592264" lon="1.535367099568248">
        <ele>483.79998779296875</ele>
        <time>2018-12-29T08:14:52Z</time>
      </trkpt>
      <trkpt lat="41.330015044659376" lon="1.535327369347215">
        <ele>484.20001220703125</ele>
        <time>2018-12-29T08:14:53Z</time>
      </trkpt>
      <trkpt lat="41.330013452097774" lon="1.535287220031023">
        <ele>484.20001220703125</ele>
        <time>2018-12-29T08:14:54Z</time>
      </trkpt>
      <trkpt lat="41.330013452097774" lon="1.535206586122513">
        <ele>484.39999389648437</ele>
        <time>2018-12-29T08:14:56Z</time>
      </trkpt>
      <trkpt lat="41.330019235610962" lon="1.535126371309161">
        <ele>484.60000610351562</ele>
        <time>2018-12-29T08:14:58Z</time>
      </trkpt>
      <trkpt lat="41.330025941133499" lon="1.535050766542554">
        <ele>484.79998779296875</ele>
        <time>2018-12-29T08:15:00Z</time>
      </trkpt>
      <trkpt lat="41.330036921426654" lon="1.53497826308012">
        <ele>485.20001220703125</ele>
        <time>2018-12-29T08:15:02Z</time>
      </trkpt>
      <trkpt lat="41.330050500109792" lon="1.534904502332211">
        <ele>485.60000610351562</ele>
        <time>2018-12-29T08:15:04Z</time>
      </trkpt>
      <trkpt lat="41.330055361613631" lon="1.534866699948907">
        <ele>485.79998779296875</ele>
        <time>2018-12-29T08:15:05Z</time>
      </trkpt>
      <trkpt lat="41.330061228945851" lon="1.534828478470445">
        <ele>486</ele>
        <time>2018-12-29T08:15:06Z</time>
      </trkpt>
      <trkpt lat="41.330066593363881" lon="1.5347910951823">
        <ele>486.20001220703125</ele>
        <time>2018-12-29T08:15:07Z</time>
      </trkpt>
      <trkpt lat="41.330072209239006" lon="1.534755639731884">
        <ele>486.60000610351562</ele>
        <time>2018-12-29T08:15:08Z</time>
      </trkpt>
      <trkpt lat="41.330086374655366" lon="1.534682214260101">
        <ele>486.79998779296875</ele>
        <time>2018-12-29T08:15:10Z</time>
      </trkpt>
      <trkpt lat="41.33010271936655" lon="1.534617925062776">
        <ele>487</ele>
        <time>2018-12-29T08:15:12Z</time>
      </trkpt>
      <trkpt lat="41.330109676346183" lon="1.534584481269121">
        <ele>487.39999389648437</ele>
        <time>2018-12-29T08:15:13Z</time>
      </trkpt>
      <trkpt lat="41.330116046592593" lon="1.534548941999674">
        <ele>487.60000610351562</ele>
        <time>2018-12-29T08:15:14Z</time>
      </trkpt>
      <trkpt lat="41.330120572820306" lon="1.534513821825385">
        <ele>487.79998779296875</ele>
        <time>2018-12-29T08:15:15Z</time>
      </trkpt>
      <trkpt lat="41.330121997743845" lon="1.534479539841414">
        <ele>488</ele>
        <time>2018-12-29T08:15:16Z</time>
      </trkpt>
      <trkpt lat="41.330116465687752" lon="1.534407120198011">
        <ele>488.39999389648437</ele>
        <time>2018-12-29T08:15:18Z</time>
      </trkpt>
      <trkpt lat="41.330097354948521" lon="1.534333862364292">
        <ele>488.79998779296875</ele>
        <time>2018-12-29T08:15:20Z</time>
      </trkpt>
      <trkpt lat="41.330079166218638" lon="1.534308381378651">
        <ele>489</ele>
        <time>2018-12-29T08:15:21Z</time>
      </trkpt>
      <trkpt lat="41.330056954175234" lon="1.534289103001356">
        <ele>489</ele>
        <time>2018-12-29T08:15:22Z</time>
      </trkpt>
      <trkpt lat="41.330000879243016" lon="1.534273847937584">
        <ele>489.39999389648437</ele>
        <time>2018-12-29T08:15:24Z</time>
      </trkpt>
      <trkpt lat="41.329971123486757" lon="1.534279379993677">
        <ele>489.39999389648437</ele>
        <time>2018-12-29T08:15:25Z</time>
      </trkpt>
      <trkpt lat="41.329942876473069" lon="1.534296730533242">
        <ele>489.60000610351562</ele>
        <time>2018-12-29T08:15:26Z</time>
      </trkpt>
      <trkpt lat="41.329893004149199" lon="1.534354565665126">
        <ele>489.79998779296875</ele>
        <time>2018-12-29T08:15:28Z</time>
      </trkpt>
      <trkpt lat="41.329871043562889" lon="1.5343870036304">
        <ele>490</ele>
        <time>2018-12-29T08:15:29Z</time>
      </trkpt>
      <trkpt lat="41.329851932823658" lon="1.534422459080815">
        <ele>490</ele>
        <time>2018-12-29T08:15:30Z</time>
      </trkpt>
      <trkpt lat="41.329826284199953" lon="1.534499656409025">
        <ele>490.39999389648437</ele>
        <time>2018-12-29T08:15:32Z</time>
      </trkpt>
      <trkpt lat="41.329819075763226" lon="1.534540727734566">
        <ele>490.60000610351562</ele>
        <time>2018-12-29T08:15:33Z</time>
      </trkpt>
      <trkpt lat="41.329813040792942" lon="1.534583223983645">
        <ele>490.60000610351562</ele>
        <time>2018-12-29T08:15:34Z</time>
      </trkpt>
      <trkpt lat="41.329799713566899" lon="1.53466897085309">
        <ele>490.79998779296875</ele>
        <time>2018-12-29T08:15:36Z</time>
      </trkpt>
      <trkpt lat="41.329791666939855" lon="1.53475496917963">
        <ele>491</ele>
        <time>2018-12-29T08:15:38Z</time>
      </trkpt>
      <trkpt lat="41.329785464331508" lon="1.534839877858758">
        <ele>491.20001220703125</ele>
        <time>2018-12-29T08:15:40Z</time>
      </trkpt>
      <trkpt lat="41.329777166247368" lon="1.534921601414681">
        <ele>491.60000610351562</ele>
        <time>2018-12-29T08:15:42Z</time>
      </trkpt>
      <trkpt lat="41.329764761030674" lon="1.535002151504159">
        <ele>492</ele>
        <time>2018-12-29T08:15:44Z</time>
      </trkpt>
      <trkpt lat="41.329740369692445" lon="1.535077840089798">
        <ele>492.39999389648437</ele>
        <time>2018-12-29T08:15:46Z</time>
      </trkpt>
      <trkpt lat="41.329701896756887" lon="1.535146906971932">
        <ele>492.79998779296875</ele>
        <time>2018-12-29T08:15:48Z</time>
      </trkpt>
      <trkpt lat="41.329678427428007" lon="1.535174399614334">
        <ele>492.79998779296875</ele>
        <time>2018-12-29T08:15:49Z</time>
      </trkpt>
      <trkpt lat="41.329650934785604" lon="1.535196779295802">
        <ele>493</ele>
        <time>2018-12-29T08:15:50Z</time>
      </trkpt>
      <trkpt lat="41.329589411616325" lon="1.535224188119173">
        <ele>493.20001220703125</ele>
        <time>2018-12-29T08:15:52Z</time>
      </trkpt>
      <trkpt lat="41.329524787142873" lon="1.535220500081778">
        <ele>493.60000610351562</ele>
        <time>2018-12-29T08:15:54Z</time>
      </trkpt>
      <trkpt lat="41.329455468803644" lon="1.535197617486119">
        <ele>493.79998779296875</ele>
        <time>2018-12-29T08:15:56Z</time>
      </trkpt>
      <trkpt lat="41.329389922320843" lon="1.535161323845387">
        <ele>494</ele>
        <time>2018-12-29T08:15:58Z</time>
      </trkpt>
      <trkpt lat="41.329328315332532" lon="1.535117570310831">
        <ele>494.20001220703125</ele>
        <time>2018-12-29T08:16:00Z</time>
      </trkpt>
      <trkpt lat="41.329264529049397" lon="1.535073146224022">
        <ele>494.39999389648437</ele>
        <time>2018-12-29T08:16:02Z</time>
      </trkpt>
      <trkpt lat="41.329198982566595" lon="1.535025872290134">
        <ele>494.39999389648437</ele>
        <time>2018-12-29T08:16:04Z</time>
      </trkpt>
      <trkpt lat="41.329132430255413" lon="1.534981448203325">
        <ele>494.79998779296875</ele>
        <time>2018-12-29T08:16:06Z</time>
      </trkpt>
      <trkpt lat="41.329099992290139" lon="1.534960912540555">
        <ele>494.79998779296875</ele>
        <time>2018-12-29T08:16:07Z</time>
      </trkpt>
      <trkpt lat="41.329067554324865" lon="1.534938868135214">
        <ele>495</ele>
        <time>2018-12-29T08:16:08Z</time>
      </trkpt>
      <trkpt lat="41.329002594575286" lon="1.534892600029707">
        <ele>495.20001220703125</ele>
        <time>2018-12-29T08:16:10Z</time>
      </trkpt>
      <trkpt lat="41.32897300645709" lon="1.534868376329541">
        <ele>495.20001220703125</ele>
        <time>2018-12-29T08:16:11Z</time>
      </trkpt>
      <trkpt lat="41.328944927081466" lon="1.5348428953439">
        <ele>495.20001220703125</ele>
        <time>2018-12-29T08:16:12Z</time>
      </trkpt>
      <trkpt lat="41.328893126919866" lon="1.534787071868777">
        <ele>495.60000610351562</ele>
        <time>2018-12-29T08:16:14Z</time>
      </trkpt>
      <trkpt lat="41.328847026452422" lon="1.534721441566944">
        <ele>495.60000610351562</ele>
        <time>2018-12-29T08:16:16Z</time>
      </trkpt>
      <trkpt lat="41.328804865479469" lon="1.534650698304176">
        <ele>495.79998779296875</ele>
        <time>2018-12-29T08:16:18Z</time>
      </trkpt>
      <trkpt lat="41.328777372837067" lon="1.534572495147586">
        <ele>496.20001220703125</ele>
        <time>2018-12-29T08:16:20Z</time>
      </trkpt>
      <trkpt lat="41.32875507697463" lon="1.534494459629059">
        <ele>496.39999389648437</ele>
        <time>2018-12-29T08:16:22Z</time>
      </trkpt>
      <trkpt lat="41.328734792768955" lon="1.534414915367961">
        <ele>496.60000610351562</ele>
        <time>2018-12-29T08:16:24Z</time>
      </trkpt>
      <trkpt lat="41.328715933486819" lon="1.534336796030402">
        <ele>497</ele>
        <time>2018-12-29T08:16:26Z</time>
      </trkpt>
      <trkpt lat="41.328693721443415" lon="1.534262532368302">
        <ele>497.20001220703125</ele>
        <time>2018-12-29T08:16:28Z</time>
      </trkpt>
      <trkpt lat="41.328670084476471" lon="1.534191537648439">
        <ele>497.60000610351562</ele>
        <time>2018-12-29T08:16:30Z</time>
      </trkpt>
      <trkpt lat="41.328654745593667" lon="1.534114256501198">
        <ele>498</ele>
        <time>2018-12-29T08:16:32Z</time>
      </trkpt>
      <trkpt lat="41.328640496358275" lon="1.534032616764307">
        <ele>498.20001220703125</ele>
        <time>2018-12-29T08:16:34Z</time>
      </trkpt>
      <trkpt lat="41.328632952645421" lon="1.533951899036765">
        <ele>498.60000610351562</ele>
        <time>2018-12-29T08:16:36Z</time>
      </trkpt>
      <trkpt lat="41.328644184395671" lon="1.533874617889524">
        <ele>498.79998779296875</ele>
        <time>2018-12-29T08:16:38Z</time>
      </trkpt>
      <trkpt lat="41.328657427802682" lon="1.533842766657472">
        <ele>499</ele>
        <time>2018-12-29T08:16:39Z</time>
      </trkpt>
      <trkpt lat="41.328675281256437" lon="1.533814016729593">
        <ele>499.20001220703125</ele>
        <time>2018-12-29T08:16:40Z</time>
      </trkpt>
      <trkpt lat="41.328719705343246" lon="1.533765820786357">
        <ele>499.79998779296875</ele>
        <time>2018-12-29T08:16:42Z</time>
      </trkpt>
      <trkpt lat="41.328744599595666" lon="1.533745285123587">
        <ele>500.20001220703125</ele>
        <time>2018-12-29T08:16:43Z</time>
      </trkpt>
      <trkpt lat="41.328773433342576" lon="1.533728772774339">
        <ele>500.39999389648438</ele>
        <time>2018-12-29T08:16:44Z</time>
      </trkpt>
      <trkpt lat="41.328832441940904" lon="1.533697759732604">
        <ele>500.60000610351562</ele>
        <time>2018-12-29T08:16:46Z</time>
      </trkpt>
      <trkpt lat="41.328891953453422" lon="1.533665740862489">
        <ele>501</ele>
        <time>2018-12-29T08:16:48Z</time>
      </trkpt>
      <trkpt lat="41.328946352005005" lon="1.533632129430771">
        <ele>501.20001220703125</ele>
        <time>2018-12-29T08:16:50Z</time>
      </trkpt>
      <trkpt lat="41.329001085832715" lon="1.533600697293878">
        <ele>501.60000610351562</ele>
        <time>2018-12-29T08:16:52Z</time>
      </trkpt>
      <trkpt lat="41.32902966812253" lon="1.533585861325264">
        <ele>501.60000610351562</ele>
        <time>2018-12-29T08:16:53Z</time>
      </trkpt>
      <trkpt lat="41.32905799895525" lon="1.533572617918253">
        <ele>502</ele>
        <time>2018-12-29T08:16:54Z</time>
      </trkpt>
      <trkpt lat="41.329114744439721" lon="1.533537246286869">
        <ele>502.39999389648437</ele>
        <time>2018-12-29T08:16:56Z</time>
      </trkpt>
      <trkpt lat="41.329171657562256" lon="1.533498605713248">
        <ele>502.60000610351562</ele>
        <time>2018-12-29T08:16:58Z</time>
      </trkpt>
      <trkpt lat="41.329227648675442" lon="1.53346641920507">
        <ele>502.79998779296875</ele>
        <time>2018-12-29T08:17:00Z</time>
      </trkpt>
      <trkpt lat="41.329254386946559" lon="1.533449487760663">
        <ele>503</ele>
        <time>2018-12-29T08:17:01Z</time>
      </trkpt>
      <trkpt lat="41.329280035570264" lon="1.533431550487876">
        <ele>503.20001220703125</ele>
        <time>2018-12-29T08:17:02Z</time>
      </trkpt>
      <trkpt lat="41.329306103289127" lon="1.533414619043469">
        <ele>503.39999389648437</ele>
        <time>2018-12-29T08:17:03Z</time>
      </trkpt>
      <trkpt lat="41.329331919550896" lon="1.533398106694222">
        <ele>503.39999389648437</ele>
        <time>2018-12-29T08:17:04Z</time>
      </trkpt>
      <trkpt lat="41.329382043331861" lon="1.533362567424774">
        <ele>503.60000610351562</ele>
        <time>2018-12-29T08:17:06Z</time>
      </trkpt>
      <trkpt lat="41.32943669334054" lon="1.533326860517263">
        <ele>504</ele>
        <time>2018-12-29T08:17:08Z</time>
      </trkpt>
      <trkpt lat="41.329493103548884" lon="1.533293416723609">
        <ele>504.39999389648437</ele>
        <time>2018-12-29T08:17:10Z</time>
      </trkpt>
      <trkpt lat="41.329546747729182" lon="1.533254943788052">
        <ele>504.79998779296875</ele>
        <time>2018-12-29T08:17:12Z</time>
      </trkpt>
      <trkpt lat="41.32959796115756" lon="1.533222757279873">
        <ele>505.20001220703125</ele>
        <time>2018-12-29T08:17:14Z</time>
      </trkpt>
      <trkpt lat="41.329623442143202" lon="1.533208088949323">
        <ele>505.60000610351562</ele>
        <time>2018-12-29T08:17:15Z</time>
      </trkpt>
      <trkpt lat="41.329649593681097" lon="1.533192917704582">
        <ele>505.79998779296875</ele>
        <time>2018-12-29T08:17:16Z</time>
      </trkpt>
      <trkpt lat="41.329701729118824" lon="1.533158719539642">
        <ele>506.20001220703125</ele>
        <time>2018-12-29T08:17:18Z</time>
      </trkpt>
      <trkpt lat="41.329727964475751" lon="1.53314346447587">
        <ele>506.39999389648438</ele>
        <time>2018-12-29T08:17:19Z</time>
      </trkpt>
      <trkpt lat="41.329755540937185" lon="1.533129215240479">
        <ele>506.60000610351562</ele>
        <time>2018-12-29T08:17:20Z</time>
      </trkpt>
      <trkpt lat="41.329782446846366" lon="1.533117480576038">
        <ele>507</ele>
        <time>2018-12-29T08:17:21Z</time>
      </trkpt>
      <trkpt lat="41.329807760193944" lon="1.533111445605755">
        <ele>507.39999389648437</ele>
        <time>2018-12-29T08:17:22Z</time>
      </trkpt>
      <trkpt lat="41.329858554527164" lon="1.533099627122283">
        <ele>507.79998779296875</ele>
        <time>2018-12-29T08:17:24Z</time>
      </trkpt>
      <trkpt lat="41.329909013584256" lon="1.533099543303251">
        <ele>508</ele>
        <time>2018-12-29T08:17:26Z</time>
      </trkpt>
      <trkpt lat="41.329933237284422" lon="1.53310289606452">
        <ele>508</ele>
        <time>2018-12-29T08:17:27Z</time>
      </trkpt>
      <trkpt lat="41.329958466812968" lon="1.533103985711932">
        <ele>508.20001220703125</ele>
        <time>2018-12-29T08:17:28Z</time>
      </trkpt>
      <trkpt lat="41.330008590593934" lon="1.533107506111264">
        <ele>508.39999389648437</ele>
        <time>2018-12-29T08:17:30Z</time>
      </trkpt>
      <trkpt lat="41.330062067136168" lon="1.533116055652499">
        <ele>509</ele>
        <time>2018-12-29T08:17:32Z</time>
      </trkpt>
      <trkpt lat="41.330087799578905" lon="1.533121755346656">
        <ele>509.20001220703125</ele>
        <time>2018-12-29T08:17:33Z</time>
      </trkpt>
      <trkpt lat="41.330114286392927" lon="1.533128963783383">
        <ele>509.60000610351563</ele>
        <time>2018-12-29T08:17:34Z</time>
      </trkpt>
      <trkpt lat="41.330139767378569" lon="1.533135753124952">
        <ele>509.60000610351563</ele>
        <time>2018-12-29T08:17:35Z</time>
      </trkpt>
      <trkpt lat="41.330165499821305" lon="1.53314346447587">
        <ele>509.79998779296875</ele>
        <time>2018-12-29T08:17:36Z</time>
      </trkpt>
      <trkpt lat="41.330218305811286" lon="1.533155869692564">
        <ele>510.20001220703125</ele>
        <time>2018-12-29T08:17:38Z</time>
      </trkpt>
      <trkpt lat="41.330245211720467" lon="1.533163078129292">
        <ele>510.39999389648437</ele>
        <time>2018-12-29T08:17:39Z</time>
      </trkpt>
      <trkpt lat="41.330271027982235" lon="1.533170538023114">
        <ele>510.60000610351562</ele>
        <time>2018-12-29T08:17:40Z</time>
      </trkpt>
      <trkpt lat="41.330321822315454" lon="1.533188307657838">
        <ele>511</ele>
        <time>2018-12-29T08:17:42Z</time>
      </trkpt>
      <trkpt lat="41.330368677154183" lon="1.533213034272194">
        <ele>511.39999389648438</ele>
        <time>2018-12-29T08:17:44Z</time>
      </trkpt>
      <trkpt lat="41.330391895025969" lon="1.533227954059839">
        <ele>511.39999389648438</ele>
        <time>2018-12-29T08:17:45Z</time>
      </trkpt>
      <trkpt lat="41.330416454002261" lon="1.533245472237468">
        <ele>511.60000610351562</ele>
        <time>2018-12-29T08:17:46Z</time>
      </trkpt>
      <trkpt lat="41.33045987226069" lon="1.533286375924945">
        <ele>512</ele>
        <time>2018-12-29T08:17:48Z</time>
      </trkpt>
      <trkpt lat="41.330503709614277" lon="1.533334404230118">
        <ele>512.4000244140625</ele>
        <time>2018-12-29T08:17:50Z</time>
      </trkpt>
      <trkpt lat="41.330542517825961" lon="1.533388216048479">
        <ele>512.5999755859375</ele>
        <time>2018-12-29T08:17:52Z</time>
      </trkpt>
      <trkpt lat="41.330559784546494" lon="1.53341855853796">
        <ele>512.5999755859375</ele>
        <time>2018-12-29T08:17:53Z</time>
      </trkpt>
      <trkpt lat="41.330576799809933" lon="1.533448817208409">
        <ele>513</ele>
        <time>2018-12-29T08:17:54Z</time>
      </trkpt>
      <trkpt lat="41.330607980489731" lon="1.533505897969008">
        <ele>513.20001220703125</ele>
        <time>2018-12-29T08:17:56Z</time>
      </trkpt>
      <trkpt lat="41.330638993531466" lon="1.533567002043128">
        <ele>513.5999755859375</ele>
        <time>2018-12-29T08:17:58Z</time>
      </trkpt>
      <trkpt lat="41.330670341849327" lon="1.53362818993628">
        <ele>514</ele>
        <time>2018-12-29T08:18:00Z</time>
      </trkpt>
      <trkpt lat="41.330705964937806" lon="1.533685773611069">
        <ele>514.4000244140625</ele>
        <time>2018-12-29T08:18:02Z</time>
      </trkpt>
      <trkpt lat="41.330724321305752" lon="1.533714691177011">
        <ele>514.5999755859375</ele>
        <time>2018-12-29T08:18:03Z</time>
      </trkpt>
      <trkpt lat="41.330742929130793" lon="1.533743189647794">
        <ele>514.5999755859375</ele>
        <time>2018-12-29T08:18:04Z</time>
      </trkpt>
      <trkpt lat="41.330786347389221" lon="1.533787529915571">
        <ele>515.20001220703125</ele>
        <time>2018-12-29T08:18:06Z</time>
      </trkpt>
      <trkpt lat="41.330830436199903" lon="1.533830361440778">
        <ele>515.4000244140625</ele>
        <time>2018-12-29T08:18:08Z</time>
      </trkpt>
      <trkpt lat="41.330876285210252" lon="1.533872103318572">
        <ele>515.79998779296875</ele>
        <time>2018-12-29T08:18:10Z</time>
      </trkpt>
      <trkpt lat="41.330900341272354" lon="1.533887609839439">
        <ele>515.79998779296875</ele>
        <time>2018-12-29T08:18:11Z</time>
      </trkpt>
      <trkpt lat="41.330925403162837" lon="1.533898422494531">
        <ele>515.79998779296875</ele>
        <time>2018-12-29T08:18:12Z</time>
      </trkpt>
      <trkpt lat="41.330976532772183" lon="1.533919461071491">
        <ele>516</ele>
        <time>2018-12-29T08:18:14Z</time>
      </trkpt>
      <trkpt lat="41.331027746200562" lon="1.533933961763978">
        <ele>516.4000244140625</ele>
        <time>2018-12-29T08:18:16Z</time>
      </trkpt>
      <trkpt lat="41.331053730100393" lon="1.533937817439437">
        <ele>516.79998779296875</ele>
        <time>2018-12-29T08:18:17Z</time>
      </trkpt>
      <trkpt lat="41.331081390380859" lon="1.533938739448786">
        <ele>517</ele>
        <time>2018-12-29T08:18:18Z</time>
      </trkpt>
      <trkpt lat="41.331108715385199" lon="1.533936141058803">
        <ele>517.20001220703125</ele>
        <time>2018-12-29T08:18:19Z</time>
      </trkpt>
      <trkpt lat="41.331135788932443" lon="1.533930357545614">
        <ele>517.20001220703125</ele>
        <time>2018-12-29T08:18:20Z</time>
      </trkpt>
      <trkpt lat="41.33119085803628" lon="1.533914096653462">
        <ele>517.4000244140625</ele>
        <time>2018-12-29T08:18:22Z</time>
      </trkpt>
      <trkpt lat="41.331239892169833" lon="1.533885765820742">
        <ele>517.5999755859375</ele>
        <time>2018-12-29T08:18:24Z</time>
      </trkpt>
      <trkpt lat="41.331265373155475" lon="1.533870091661811">
        <ele>517.79998779296875</ele>
        <time>2018-12-29T08:18:25Z</time>
      </trkpt>
      <trkpt lat="41.33128909394145" lon="1.533851902931929">
        <ele>518</ele>
        <time>2018-12-29T08:18:26Z</time>
      </trkpt>
      <trkpt lat="41.331334859132767" lon="1.533817453309894">
        <ele>518</ele>
        <time>2018-12-29T08:18:28Z</time>
      </trkpt>
      <trkpt lat="41.33138045668602" lon="1.5337791480124">
        <ele>518.5999755859375</ele>
        <time>2018-12-29T08:18:30Z</time>
      </trkpt>
      <trkpt lat="41.331427646800876" lon="1.533739753067493">
        <ele>518.79998779296875</ele>
        <time>2018-12-29T08:18:32Z</time>
      </trkpt>
      <trkpt lat="41.331473244354129" lon="1.533694574609399">
        <ele>518.79998779296875</ele>
        <time>2018-12-29T08:18:34Z</time>
      </trkpt>
      <trkpt lat="41.331519344821572" lon="1.533656353130937">
        <ele>519.4000244140625</ele>
        <time>2018-12-29T08:18:36Z</time>
      </trkpt>
      <trkpt lat="41.331563768908381" lon="1.533620059490204">
        <ele>519.79998779296875</ele>
        <time>2018-12-29T08:18:38Z</time>
      </trkpt>
      <trkpt lat="41.331583885475993" lon="1.533599272370338">
        <ele>520</ele>
        <time>2018-12-29T08:18:39Z</time>
      </trkpt>
      <trkpt lat="41.331604421138763" lon="1.533578904345632">
        <ele>520</ele>
        <time>2018-12-29T08:18:40Z</time>
      </trkpt>
      <trkpt lat="41.33164968341589" lon="1.533540263772011">
        <ele>520.4000244140625</ele>
        <time>2018-12-29T08:18:42Z</time>
      </trkpt>
      <trkpt lat="41.331697963178158" lon="1.533502461388707">
        <ele>520.5999755859375</ele>
        <time>2018-12-29T08:18:44Z</time>
      </trkpt>
      <trkpt lat="41.331720678135753" lon="1.533485613763332">
        <ele>520.5999755859375</ele>
        <time>2018-12-29T08:18:45Z</time>
      </trkpt>
      <trkpt lat="41.33174205198884" lon="1.533470693975687">
        <ele>520.79998779296875</ele>
        <time>2018-12-29T08:18:46Z</time>
      </trkpt>
      <trkpt lat="41.33178454823792" lon="1.533441441133618">
        <ele>521</ele>
        <time>2018-12-29T08:18:48Z</time>
      </trkpt>
      <trkpt lat="41.331828804686666" lon="1.533411266282201">
        <ele>521.20001220703125</ele>
        <time>2018-12-29T08:18:50Z</time>
      </trkpt>
      <trkpt lat="41.331874653697014" lon="1.533383689820766">
        <ele>521.5999755859375</ele>
        <time>2018-12-29T08:18:52Z</time>
      </trkpt>
      <trkpt lat="41.331921676173806" lon="1.533356867730618">
        <ele>522</ele>
        <time>2018-12-29T08:18:54Z</time>
      </trkpt>
      <trkpt lat="41.33196827955544" lon="1.533327866345644">
        <ele>522.4000244140625</ele>
        <time>2018-12-29T08:18:56Z</time>
      </trkpt>
      <trkpt lat="41.332016307860613" lon="1.533303139731288">
        <ele>522.5999755859375</ele>
        <time>2018-12-29T08:18:58Z</time>
      </trkpt>
      <trkpt lat="41.332069868221879" lon="1.533281095325947">
        <ele>522.79998779296875</ele>
        <time>2018-12-29T08:19:00Z</time>
      </trkpt>
      <trkpt lat="41.332125524058938" lon="1.53326609171927">
        <ele>523</ele>
        <time>2018-12-29T08:19:02Z</time>
      </trkpt>
      <trkpt lat="41.332153771072626" lon="1.533258631825447">
        <ele>523.20001220703125</ele>
        <time>2018-12-29T08:19:03Z</time>
      </trkpt>
      <trkpt lat="41.332183191552758" lon="1.53324848972261">
        <ele>523.4000244140625</ele>
        <time>2018-12-29T08:19:04Z</time>
      </trkpt>
      <trkpt lat="41.332238847389817" lon="1.533239604905248">
        <ele>523.5999755859375</ele>
        <time>2018-12-29T08:19:06Z</time>
      </trkpt>
      <trkpt lat="41.332296179607511" lon="1.533228289335966">
        <ele>524.20001220703125</ele>
        <time>2018-12-29T08:19:08Z</time>
      </trkpt>
      <trkpt lat="41.332354098558426" lon="1.533218650147319">
        <ele>524.5999755859375</ele>
        <time>2018-12-29T08:19:10Z</time>
      </trkpt>
      <trkpt lat="41.332385363057256" lon="1.533213788643479">
        <ele>524.5999755859375</ele>
        <time>2018-12-29T08:19:11Z</time>
      </trkpt>
      <trkpt lat="41.332414196804166" lon="1.533208591863513">
        <ele>525</ele>
        <time>2018-12-29T08:19:12Z</time>
      </trkpt>
      <trkpt lat="41.332475217059255" lon="1.53320356272161">
        <ele>525.20001220703125</ele>
        <time>2018-12-29T08:19:14Z</time>
      </trkpt>
      <trkpt lat="41.332535902038217" lon="1.533193252980709">
        <ele>525.5999755859375</ele>
        <time>2018-12-29T08:19:16Z</time>
      </trkpt>
      <trkpt lat="41.332591725513339" lon="1.533181434497237">
        <ele>526.4000244140625</ele>
        <time>2018-12-29T08:19:18Z</time>
      </trkpt>
      <trkpt lat="41.332645788788795" lon="1.533163161948323">
        <ele>526.79998779296875</ele>
        <time>2018-12-29T08:19:20Z</time>
      </trkpt>
      <trkpt lat="41.332698678597808" lon="1.533138602972031">
        <ele>527</ele>
        <time>2018-12-29T08:19:22Z</time>
      </trkpt>
      <trkpt lat="41.332753412425518" lon="1.533113960176706">
        <ele>527.20001220703125</ele>
        <time>2018-12-29T08:19:24Z</time>
      </trkpt>
      <trkpt lat="41.332806553691626" lon="1.533092334866524">
        <ele>527.4000244140625</ele>
        <time>2018-12-29T08:19:26Z</time>
      </trkpt>
      <trkpt lat="41.33285072632134" lon="1.533068865537643">
        <ele>527.79998779296875</ele>
        <time>2018-12-29T08:19:28Z</time>
      </trkpt>
      <trkpt lat="41.332899676635861" lon="1.533054364845157">
        <ele>528.20001220703125</ele>
        <time>2018-12-29T08:19:30Z</time>
      </trkpt>
      <trkpt lat="41.332953656092286" lon="1.533042630180717">
        <ele>528.5999755859375</ele>
        <time>2018-12-29T08:19:32Z</time>
      </trkpt>
      <trkpt lat="41.333006797358394" lon="1.533035757020116">
        <ele>529</ele>
        <time>2018-12-29T08:19:34Z</time>
      </trkpt>
      <trkpt lat="41.333034625276923" lon="1.533031901344657">
        <ele>529.20001220703125</ele>
        <time>2018-12-29T08:19:35Z</time>
      </trkpt>
      <trkpt lat="41.333062537014484" lon="1.533031230792403">
        <ele>529.4000244140625</ele>
        <time>2018-12-29T08:19:36Z</time>
      </trkpt>
      <trkpt lat="41.333112576976418" lon="1.533031733706594">
        <ele>529.5999755859375</ele>
        <time>2018-12-29T08:19:38Z</time>
      </trkpt>
      <trkpt lat="41.333138812333345" lon="1.533033410087228">
        <ele>529.79998779296875</ele>
        <time>2018-12-29T08:19:39Z</time>
      </trkpt>
      <trkpt lat="41.333163538947701" lon="1.533032571896911">
        <ele>530</ele>
        <time>2018-12-29T08:19:40Z</time>
      </trkpt>
      <trkpt lat="41.333190193399787" lon="1.533031230792403">
        <ele>530.20001220703125</ele>
        <time>2018-12-29T08:19:41Z</time>
      </trkpt>
      <trkpt lat="41.333218021318316" lon="1.533032152801752">
        <ele>530.5999755859375</ele>
        <time>2018-12-29T08:19:42Z</time>
      </trkpt>
      <trkpt lat="41.333245849236846" lon="1.533029973506928">
        <ele>530.79998779296875</ele>
        <time>2018-12-29T08:19:43Z</time>
      </trkpt>
      <trkpt lat="41.333273509517312" lon="1.533024106174707">
        <ele>530.79998779296875</ele>
        <time>2018-12-29T08:19:44Z</time>
      </trkpt>
      <trkpt lat="41.333333859220147" lon="1.533023854717612">
        <ele>531.20001220703125</ele>
        <time>2018-12-29T08:19:46Z</time>
      </trkpt>
      <trkpt lat="41.33338968269527" lon="1.533024525269866">
        <ele>531.79998779296875</ele>
        <time>2018-12-29T08:19:48Z</time>
      </trkpt>
      <trkpt lat="41.333415163680911" lon="1.533023100346327">
        <ele>531.79998779296875</ele>
        <time>2018-12-29T08:19:49Z</time>
      </trkpt>
      <trkpt lat="41.333441650494933" lon="1.533022597432137">
        <ele>532</ele>
        <time>2018-12-29T08:19:50Z</time>
      </trkpt>
      <trkpt lat="41.333498563617468" lon="1.533026369288564">
        <ele>532.20001220703125</ele>
        <time>2018-12-29T08:19:52Z</time>
      </trkpt>
      <trkpt lat="41.333557236939669" lon="1.53302569873631">
        <ele>532.4000244140625</ele>
        <time>2018-12-29T08:19:54Z</time>
      </trkpt>
      <trkpt lat="41.33361691609025" lon="1.53302326798439">
        <ele>532.4000244140625</ele>
        <time>2018-12-29T08:19:56Z</time>
      </trkpt>
      <trkpt lat="41.33364281617105" lon="1.533022513613105">
        <ele>532.5999755859375</ele>
        <time>2018-12-29T08:19:57Z</time>
      </trkpt>
      <trkpt lat="41.333671314641833" lon="1.533020837232471">
        <ele>532.5999755859375</ele>
        <time>2018-12-29T08:19:58Z</time>
      </trkpt>
      <trkpt lat="41.333699226379395" lon="1.533021172508597">
        <ele>532.79998779296875</ele>
        <time>2018-12-29T08:19:59Z</time>
      </trkpt>
      <trkpt lat="41.33372588083148" lon="1.533021340146661">
        <ele>533</ele>
        <time>2018-12-29T08:20:00Z</time>
      </trkpt>
      <trkpt lat="41.33377818390727" lon="1.533020166680217">
        <ele>533.4000244140625</ele>
        <time>2018-12-29T08:20:02Z</time>
      </trkpt>
      <trkpt lat="41.333831995725632" lon="1.533018993213773">
        <ele>533.79998779296875</ele>
        <time>2018-12-29T08:20:04Z</time>
      </trkpt>
      <trkpt lat="41.333885053172708" lon="1.533009437844157">
        <ele>534.20001220703125</ele>
        <time>2018-12-29T08:20:06Z</time>
      </trkpt>
      <trkpt lat="41.333939954638481" lon="1.532995020970702">
        <ele>534.5999755859375</ele>
        <time>2018-12-29T08:20:08Z</time>
      </trkpt>
      <trkpt lat="41.333993766456842" lon="1.532985968515277">
        <ele>535</ele>
        <time>2018-12-29T08:20:10Z</time>
      </trkpt>
      <trkpt lat="41.334019750356674" lon="1.532979933544993">
        <ele>535.20001220703125</ele>
        <time>2018-12-29T08:20:11Z</time>
      </trkpt>
      <trkpt lat="41.334045231342316" lon="1.532970294356346">
        <ele>535.4000244140625</ele>
        <time>2018-12-29T08:20:12Z</time>
      </trkpt>
      <trkpt lat="41.334065347909927" lon="1.532964678481221">
        <ele>535.5999755859375</ele>
        <time>2018-12-29T08:20:13Z</time>
      </trkpt>
      <trkpt lat="41.334088649600744" lon="1.532963840290904">
        <ele>535.5999755859375</ele>
        <time>2018-12-29T08:20:14Z</time>
      </trkpt>
      <trkpt lat="41.334134582430124" lon="1.532961158081889">
        <ele>536.20001220703125</ele>
        <time>2018-12-29T08:20:16Z</time>
      </trkpt>
      <trkpt lat="41.33415880613029" lon="1.532959984615445">
        <ele>536.4000244140625</ele>
        <time>2018-12-29T08:20:17Z</time>
      </trkpt>
      <trkpt lat="41.33418370038271" lon="1.532958475872874">
        <ele>536.5999755859375</ele>
        <time>2018-12-29T08:20:18Z</time>
      </trkpt>
      <trkpt lat="41.334230890497565" lon="1.532948836684227">
        <ele>536.5999755859375</ele>
        <time>2018-12-29T08:20:20Z</time>
      </trkpt>
      <trkpt lat="41.334282523021102" lon="1.532941963523626">
        <ele>537</ele>
        <time>2018-12-29T08:20:22Z</time>
      </trkpt>
      <trkpt lat="41.334335496649146" lon="1.532935090363026">
        <ele>537.4000244140625</ele>
        <time>2018-12-29T08:20:24Z</time>
      </trkpt>
      <trkpt lat="41.334362989291549" lon="1.532933497801423">
        <ele>537.5999755859375</ele>
        <time>2018-12-29T08:20:25Z</time>
      </trkpt>
      <trkpt lat="41.334388135001063" lon="1.532930312678218">
        <ele>537.5999755859375</ele>
        <time>2018-12-29T08:20:26Z</time>
      </trkpt>
      <trkpt lat="41.334437755867839" lon="1.532920338213444">
        <ele>538</ele>
        <time>2018-12-29T08:20:28Z</time>
      </trkpt>
      <trkpt lat="41.334488550201058" lon="1.532907178625464">
        <ele>538.5999755859375</ele>
        <time>2018-12-29T08:20:30Z</time>
      </trkpt>
      <trkpt lat="41.334539009258151" lon="1.532898042351008">
        <ele>538.79998779296875</ele>
        <time>2018-12-29T08:20:32Z</time>
      </trkpt>
      <trkpt lat="41.334588378667831" lon="1.532886726781726">
        <ele>539.20001220703125</ele>
        <time>2018-12-29T08:20:34Z</time>
      </trkpt>
      <trkpt lat="41.334636323153973" lon="1.532877841964364">
        <ele>539.5999755859375</ele>
        <time>2018-12-29T08:20:36Z</time>
      </trkpt>
      <trkpt lat="41.334688542410731" lon="1.532869879156351">
        <ele>540</ele>
        <time>2018-12-29T08:20:38Z</time>
      </trkpt>
      <trkpt lat="41.334738414734602" lon="1.532860659062862">
        <ele>540.20001220703125</ele>
        <time>2018-12-29T08:20:40Z</time>
      </trkpt>
      <trkpt lat="41.334784431383014" lon="1.532836770638824">
        <ele>540.5999755859375</ele>
        <time>2018-12-29T08:20:42Z</time>
      </trkpt>
      <trkpt lat="41.334831370040774" lon="1.532813804224134">
        <ele>541</ele>
        <time>2018-12-29T08:20:44Z</time>
      </trkpt>
      <trkpt lat="41.334876045584679" lon="1.53277700766921">
        <ele>541.4000244140625</ele>
        <time>2018-12-29T08:20:46Z</time>
      </trkpt>
      <trkpt lat="41.334914015606046" lon="1.532728224992752">
        <ele>541.5999755859375</ele>
        <time>2018-12-29T08:20:48Z</time>
      </trkpt>
      <trkpt lat="41.334955422207713" lon="1.532679945230484">
        <ele>541.79998779296875</ele>
        <time>2018-12-29T08:20:50Z</time>
      </trkpt>
      <trkpt lat="41.334995990619063" lon="1.532636610791087">
        <ele>542</ele>
        <time>2018-12-29T08:20:52Z</time>
      </trkpt>
      <trkpt lat="41.335032535716891" lon="1.53259034268558">
        <ele>542.4000244140625</ele>
        <time>2018-12-29T08:20:54Z</time>
      </trkpt>
      <trkpt lat="41.335062542930245" lon="1.532541224732995">
        <ele>542.79998779296875</ele>
        <time>2018-12-29T08:20:56Z</time>
      </trkpt>
      <trkpt lat="41.335076708346605" lon="1.532514318823814">
        <ele>543</ele>
        <time>2018-12-29T08:20:57Z</time>
      </trkpt>
      <trkpt lat="41.335093136876822" lon="1.53248674236238">
        <ele>543</ele>
        <time>2018-12-29T08:20:58Z</time>
      </trkpt>
      <trkpt lat="41.335122808814049" lon="1.532437540590763">
        <ele>543.4000244140625</ele>
        <time>2018-12-29T08:21:00Z</time>
      </trkpt>
      <trkpt lat="41.335154743865132" lon="1.532387165352702">
        <ele>543.5999755859375</ele>
        <time>2018-12-29T08:21:02Z</time>
      </trkpt>
      <trkpt lat="41.335187098011374" lon="1.532332599163055">
        <ele>543.79998779296875</ele>
        <time>2018-12-29T08:21:04Z</time>
      </trkpt>
      <trkpt lat="41.335203526541591" lon="1.532304603606463">
        <ele>544</ele>
        <time>2018-12-29T08:21:05Z</time>
      </trkpt>
      <trkpt lat="41.335219368338585" lon="1.53227761387825">
        <ele>544.4000244140625</ele>
        <time>2018-12-29T08:21:06Z</time>
      </trkpt>
      <trkpt lat="41.33525088429451" lon="1.532224304974079">
        <ele>544.5999755859375</ele>
        <time>2018-12-29T08:21:08Z</time>
      </trkpt>
      <trkpt lat="41.335283406078815" lon="1.532172588631511">
        <ele>544.79998779296875</ele>
        <time>2018-12-29T08:21:10Z</time>
      </trkpt>
      <trkpt lat="41.33531391620636" lon="1.532120034098625">
        <ele>545</ele>
        <time>2018-12-29T08:21:12Z</time>
      </trkpt>
      <trkpt lat="41.335329255089164" lon="1.532093547284603">
        <ele>545.20001220703125</ele>
        <time>2018-12-29T08:21:13Z</time>
      </trkpt>
      <trkpt lat="41.335343923419714" lon="1.532066809013486">
        <ele>545.4000244140625</ele>
        <time>2018-12-29T08:21:14Z</time>
      </trkpt>
      <trkpt lat="41.335375523194671" lon="1.532019451260567">
        <ele>545.5999755859375</ele>
        <time>2018-12-29T08:21:16Z</time>
      </trkpt>
      <trkpt lat="41.335407122969627" lon="1.531970333307982">
        <ele>545.79998779296875</ele>
        <time>2018-12-29T08:21:18Z</time>
      </trkpt>
      <trkpt lat="41.335421958938241" lon="1.531945187598467">
        <ele>546.20001220703125</ele>
        <time>2018-12-29T08:21:19Z</time>
      </trkpt>
      <trkpt lat="41.335436794906855" lon="1.531916605308652">
        <ele>546.4000244140625</ele>
        <time>2018-12-29T08:21:20Z</time>
      </trkpt>
      <trkpt lat="41.335469568148255" lon="1.531861536204815">
        <ele>546.79998779296875</ele>
        <time>2018-12-29T08:21:22Z</time>
      </trkpt>
      <trkpt lat="41.3355069514364" lon="1.531810238957405">
        <ele>547</ele>
        <time>2018-12-29T08:21:24Z</time>
      </trkpt>
      <trkpt lat="41.335522877052426" lon="1.531782746315002">
        <ele>547.20001220703125</ele>
        <time>2018-12-29T08:21:25Z</time>
      </trkpt>
      <trkpt lat="41.335540730506182" lon="1.531756762415171">
        <ele>547.4000244140625</ele>
        <time>2018-12-29T08:21:26Z</time>
      </trkpt>
      <trkpt lat="41.335575431585312" lon="1.531702782958746">
        <ele>547.5999755859375</ele>
        <time>2018-12-29T08:21:28Z</time>
      </trkpt>
      <trkpt lat="41.33561004884541" lon="1.531649893149734">
        <ele>548</ele>
        <time>2018-12-29T08:21:30Z</time>
      </trkpt>
      <trkpt lat="41.335643576458097" lon="1.531601445749402">
        <ele>548.20001220703125</ele>
        <time>2018-12-29T08:21:32Z</time>
      </trkpt>
      <trkpt lat="41.335661094635725" lon="1.531580993905664">
        <ele>548.4000244140625</ele>
        <time>2018-12-29T08:21:33Z</time>
      </trkpt>
      <trkpt lat="41.335676433518529" lon="1.531556518748403">
        <ele>548.5999755859375</ele>
        <time>2018-12-29T08:21:34Z</time>
      </trkpt>
      <trkpt lat="41.335693448781967" lon="1.531533049419522">
        <ele>548.79998779296875</ele>
        <time>2018-12-29T08:21:35Z</time>
      </trkpt>
      <trkpt lat="41.335712978616357" lon="1.531508909538388">
        <ele>549</ele>
        <time>2018-12-29T08:21:36Z</time>
      </trkpt>
      <trkpt lat="41.335730748251081" lon="1.531484685838223">
        <ele>549</ele>
        <time>2018-12-29T08:21:37Z</time>
      </trkpt>
      <trkpt lat="41.335765868425369" lon="1.531439675018191">
        <ele>549.20001220703125</ele>
        <time>2018-12-29T08:21:39Z</time>
      </trkpt>
      <trkpt lat="41.335801323875785" lon="1.531394831836224">
        <ele>549.5999755859375</ele>
        <time>2018-12-29T08:21:41Z</time>
      </trkpt>
      <trkpt lat="41.335831666365266" lon="1.531345546245575">
        <ele>550.20001220703125</ele>
        <time>2018-12-29T08:21:43Z</time>
      </trkpt>
      <trkpt lat="41.335861338302493" lon="1.531295506283641">
        <ele>550.4000244140625</ele>
        <time>2018-12-29T08:21:45Z</time>
      </trkpt>
      <trkpt lat="41.335875168442726" lon="1.531269857659936">
        <ele>550.5999755859375</ele>
        <time>2018-12-29T08:21:46Z</time>
      </trkpt>
      <trkpt lat="41.335887908935547" lon="1.531242532655597">
        <ele>550.5999755859375</ele>
        <time>2018-12-29T08:21:47Z</time>
      </trkpt>
      <trkpt lat="41.335914060473442" lon="1.531184781342745">
        <ele>550.79998779296875</ele>
        <time>2018-12-29T08:21:49Z</time>
      </trkpt>
      <trkpt lat="41.335938284173608" lon="1.531124347820878">
        <ele>551</ele>
        <time>2018-12-29T08:21:51Z</time>
      </trkpt>
      <trkpt lat="41.335960580036044" lon="1.531060310080648">
        <ele>551.4000244140625</ele>
        <time>2018-12-29T08:21:53Z</time>
      </trkpt>
      <trkpt lat="41.335969716310501" lon="1.531028291210532">
        <ele>551.4000244140625</ele>
        <time>2018-12-29T08:21:54Z</time>
      </trkpt>
      <trkpt lat="41.335976589471102" lon="1.530996020883322">
        <ele>551.5999755859375</ele>
        <time>2018-12-29T08:21:55Z</time>
      </trkpt>
      <trkpt lat="41.335985390469432" lon="1.530927456915379">
        <ele>552</ele>
        <time>2018-12-29T08:21:57Z</time>
      </trkpt>
      <trkpt lat="41.335993437096477" lon="1.530858809128404">
        <ele>552.20001220703125</ele>
        <time>2018-12-29T08:21:59Z</time>
      </trkpt>
      <trkpt lat="41.336005507037044" lon="1.530791670084">
        <ele>552.5999755859375</ele>
        <time>2018-12-29T08:22:01Z</time>
      </trkpt>
      <trkpt lat="41.336012799292803" lon="1.530758813023567">
        <ele>552.5999755859375</ele>
        <time>2018-12-29T08:22:02Z</time>
      </trkpt>
      <trkpt lat="41.336018331348896" lon="1.530725536867976">
        <ele>552.5999755859375</ele>
        <time>2018-12-29T08:22:03Z</time>
      </trkpt>
      <trkpt lat="41.336029395461082" lon="1.530659822747111">
        <ele>552.79998779296875</ele>
        <time>2018-12-29T08:22:05Z</time>
      </trkpt>
      <trkpt lat="41.336042806506157" lon="1.530591677874327">
        <ele>553</ele>
        <time>2018-12-29T08:22:07Z</time>
      </trkpt>
      <trkpt lat="41.336056049913168" lon="1.530522862449288">
        <ele>553.20001220703125</ele>
        <time>2018-12-29T08:22:09Z</time>
      </trkpt>
      <trkpt lat="41.336068622767925" lon="1.53045111335814">
        <ele>553.20001220703125</ele>
        <time>2018-12-29T08:22:11Z</time>
      </trkpt>
      <trkpt lat="41.336083207279444" lon="1.530383303761482">
        <ele>553.4000244140625</ele>
        <time>2018-12-29T08:22:13Z</time>
      </trkpt>
      <trkpt lat="41.336103240028024" lon="1.530320942401886">
        <ele>553.5999755859375</ele>
        <time>2018-12-29T08:22:15Z</time>
      </trkpt>
      <trkpt lat="41.336128218099475" lon="1.530263526365161">
        <ele>553.79998779296875</ele>
        <time>2018-12-29T08:22:17Z</time>
      </trkpt>
      <trkpt lat="41.336155710741878" lon="1.530211474746466">
        <ele>554.20001220703125</ele>
        <time>2018-12-29T08:22:19Z</time>
      </trkpt>
      <trkpt lat="41.336171803995967" lon="1.530186161398888">
        <ele>554.4000244140625</ele>
        <time>2018-12-29T08:22:20Z</time>
      </trkpt>
      <trkpt lat="41.33618856780231" lon="1.530160512775183">
        <ele>554.4000244140625</ele>
        <time>2018-12-29T08:22:21Z</time>
      </trkpt>
      <trkpt lat="41.336226454004645" lon="1.530119357630611">
        <ele>554.79998779296875</ele>
        <time>2018-12-29T08:22:23Z</time>
      </trkpt>
      <trkpt lat="41.336267860606313" lon="1.530080968514085">
        <ele>555</ele>
        <time>2018-12-29T08:22:25Z</time>
      </trkpt>
      <trkpt lat="41.336311614140868" lon="1.530043920502067">
        <ele>555.20001220703125</ele>
        <time>2018-12-29T08:22:27Z</time>
      </trkpt>
      <trkpt lat="41.336332987993956" lon="1.53002749197185">
        <ele>555.20001220703125</ele>
        <time>2018-12-29T08:22:28Z</time>
      </trkpt>
      <trkpt lat="41.336355870589614" lon="1.530014919117093">
        <ele>555.4000244140625</ele>
        <time>2018-12-29T08:22:29Z</time>
      </trkpt>
      <trkpt lat="41.336400713771582" lon="1.529985833913088">
        <ele>555.79998779296875</ele>
        <time>2018-12-29T08:22:31Z</time>
      </trkpt>
      <trkpt lat="41.336423512548208" lon="1.529970830306411">
        <ele>556</ele>
        <time>2018-12-29T08:22:32Z</time>
      </trkpt>
      <trkpt lat="41.336446227505803" lon="1.529956078156829">
        <ele>556</ele>
        <time>2018-12-29T08:22:33Z</time>
      </trkpt>
      <trkpt lat="41.336494842544198" lon="1.529930597171187">
        <ele>556.4000244140625</ele>
        <time>2018-12-29T08:22:35Z</time>
      </trkpt>
      <trkpt lat="41.336538847535849" lon="1.529903104528785">
        <ele>556.5999755859375</ele>
        <time>2018-12-29T08:22:37Z</time>
      </trkpt>
      <trkpt lat="41.336588300764561" lon="1.529883071780205">
        <ele>557</ele>
        <time>2018-12-29T08:22:39Z</time>
      </trkpt>
      <trkpt lat="41.336637334898114" lon="1.52986329048872">
        <ele>557.4000244140625</ele>
        <time>2018-12-29T08:22:41Z</time>
      </trkpt>
      <trkpt lat="41.33666105568409" lon="1.52985256165266">
        <ele>557.5999755859375</ele>
        <time>2018-12-29T08:22:42Z</time>
      </trkpt>
      <trkpt lat="41.33668402209878" lon="1.529844347387552">
        <ele>557.79998779296875</ele>
        <time>2018-12-29T08:22:43Z</time>
      </trkpt>
      <trkpt lat="41.336733475327492" lon="1.52983546257019">
        <ele>558</ele>
        <time>2018-12-29T08:22:45Z</time>
      </trkpt>
      <trkpt lat="41.336782425642014" lon="1.52983202598989">
        <ele>558.4000244140625</ele>
        <time>2018-12-29T08:22:47Z</time>
      </trkpt>
      <trkpt lat="41.336832717061043" lon="1.529828002676368">
        <ele>558.4000244140625</ele>
        <time>2018-12-29T08:22:49Z</time>
      </trkpt>
      <trkpt lat="41.336856354027987" lon="1.529824733734131">
        <ele>558.5999755859375</ele>
        <time>2018-12-29T08:22:50Z</time>
      </trkpt>
      <trkpt lat="41.336880158632994" lon="1.529821967706084">
        <ele>558.79998779296875</ele>
        <time>2018-12-29T08:22:51Z</time>
      </trkpt>
      <trkpt lat="41.336927181109786" lon="1.529814675450325">
        <ele>559.20001220703125</ele>
        <time>2018-12-29T08:22:53Z</time>
      </trkpt>
      <trkpt lat="41.336974035948515" lon="1.529805371537805">
        <ele>559.79998779296875</ele>
        <time>2018-12-29T08:22:55Z</time>
      </trkpt>
      <trkpt lat="41.337021645158529" lon="1.529796486720443">
        <ele>560.20001220703125</ele>
        <time>2018-12-29T08:22:57Z</time>
      </trkpt>
      <trkpt lat="41.337069002911448" lon="1.529790703207254">
        <ele>560.4000244140625</ele>
        <time>2018-12-29T08:22:59Z</time>
      </trkpt>
      <trkpt lat="41.337117534130812" lon="1.529784835875034">
        <ele>560.5999755859375</ele>
        <time>2018-12-29T08:23:01Z</time>
      </trkpt>
      <trkpt lat="41.337166568264365" lon="1.529773185029626">
        <ele>560.79998779296875</ele>
        <time>2018-12-29T08:23:03Z</time>
      </trkpt>
      <trkpt lat="41.337212836369872" lon="1.529755918309093">
        <ele>561.4000244140625</ele>
        <time>2018-12-29T08:23:05Z</time>
      </trkpt>
      <trkpt lat="41.337259775027633" lon="1.529729012399912">
        <ele>561.79998779296875</ele>
        <time>2018-12-29T08:23:07Z</time>
      </trkpt>
      <trkpt lat="41.337302187457681" lon="1.529688443988562">
        <ele>562</ele>
        <time>2018-12-29T08:23:09Z</time>
      </trkpt>
      <trkpt lat="41.337339906021953" lon="1.529645025730133">
        <ele>562.20001220703125</ele>
        <time>2018-12-29T08:23:11Z</time>
      </trkpt>
      <trkpt lat="41.337373768910766" lon="1.529597081243992">
        <ele>562.5999755859375</ele>
        <time>2018-12-29T08:23:13Z</time>
      </trkpt>
      <trkpt lat="41.337398830801249" lon="1.529545364901424">
        <ele>562.79998779296875</ele>
        <time>2018-12-29T08:23:15Z</time>
      </trkpt>
      <trkpt lat="41.337420120835304" lon="1.529486104846001">
        <ele>563</ele>
        <time>2018-12-29T08:23:17Z</time>
      </trkpt>
      <trkpt lat="41.337438225746155" lon="1.52942156419158">
        <ele>563.4000244140625</ele>
        <time>2018-12-29T08:23:19Z</time>
      </trkpt>
      <trkpt lat="41.337445015087724" lon="1.529387449845672">
        <ele>563.5999755859375</ele>
        <time>2018-12-29T08:23:20Z</time>
      </trkpt>
      <trkpt lat="41.337450882419944" lon="1.529351240023971">
        <ele>563.5999755859375</ele>
        <time>2018-12-29T08:23:21Z</time>
      </trkpt>
      <trkpt lat="41.33745901286602" lon="1.529277143999934">
        <ele>564</ele>
        <time>2018-12-29T08:23:23Z</time>
      </trkpt>
      <trkpt lat="41.33746731095016" lon="1.529202461242676">
        <ele>564.20001220703125</ele>
        <time>2018-12-29T08:23:25Z</time>
      </trkpt>
      <trkpt lat="41.337477369233966" lon="1.529127610847354">
        <ele>564.4000244140625</ele>
        <time>2018-12-29T08:23:27Z</time>
      </trkpt>
      <trkpt lat="41.337484074756503" lon="1.529090227559209">
        <ele>564.5999755859375</ele>
        <time>2018-12-29T08:23:28Z</time>
      </trkpt>
      <trkpt lat="41.337489690631628" lon="1.529051586985588">
        <ele>564.79998779296875</ele>
        <time>2018-12-29T08:23:29Z</time>
      </trkpt>
      <trkpt lat="41.337499665096402" lon="1.528974557295442">
        <ele>565.20001220703125</ele>
        <time>2018-12-29T08:23:31Z</time>
      </trkpt>
      <trkpt lat="41.337509974837303" lon="1.528896354138851">
        <ele>565.4000244140625</ele>
        <time>2018-12-29T08:23:33Z</time>
      </trkpt>
      <trkpt lat="41.337514165788889" lon="1.528857294470072">
        <ele>565.5999755859375</ele>
        <time>2018-12-29T08:23:34Z</time>
      </trkpt>
      <trkpt lat="41.337516261264682" lon="1.528817815706134">
        <ele>565.79998779296875</ele>
        <time>2018-12-29T08:23:35Z</time>
      </trkpt>
      <trkpt lat="41.337521122768521" lon="1.528738271445036">
        <ele>566.20001220703125</ele>
        <time>2018-12-29T08:23:37Z</time>
      </trkpt>
      <trkpt lat="41.337514920160174" lon="1.528659565374255">
        <ele>566.5999755859375</ele>
        <time>2018-12-29T08:23:39Z</time>
      </trkpt>
      <trkpt lat="41.337499748915434" lon="1.528574908152223">
        <ele>566.79998779296875</ele>
        <time>2018-12-29T08:23:41Z</time>
      </trkpt>
      <trkpt lat="41.337488684803247" lon="1.528531322255731">
        <ele>566.79998779296875</ele>
        <time>2018-12-29T08:23:42Z</time>
      </trkpt>
      <trkpt lat="41.3374756090343" lon="1.528489580377936">
        <ele>567</ele>
        <time>2018-12-29T08:23:43Z</time>
      </trkpt>
      <trkpt lat="41.33744727820158" lon="1.528410874307156">
        <ele>567.20001220703125</ele>
        <time>2018-12-29T08:23:45Z</time>
      </trkpt>
      <trkpt lat="41.337412158027291" lon="1.528333928436041">
        <ele>567.4000244140625</ele>
        <time>2018-12-29T08:23:47Z</time>
      </trkpt>
      <trkpt lat="41.337375529110432" lon="1.528256898745894">
        <ele>567.79998779296875</ele>
        <time>2018-12-29T08:23:49Z</time>
      </trkpt>
      <trkpt lat="41.337357256561518" lon="1.528218509629369">
        <ele>567.79998779296875</ele>
        <time>2018-12-29T08:23:50Z</time>
      </trkpt>
      <trkpt lat="41.337335798889399" lon="1.528182718902826">
        <ele>567.79998779296875</ele>
        <time>2018-12-29T08:23:51Z</time>
      </trkpt>
      <trkpt lat="41.337294727563858" lon="1.528107030317187">
        <ele>568</ele>
        <time>2018-12-29T08:23:53Z</time>
      </trkpt>
      <trkpt lat="41.337253907695413" lon="1.528027821332216">
        <ele>568.4000244140625</ele>
        <time>2018-12-29T08:23:55Z</time>
      </trkpt>
      <trkpt lat="41.337214009836316" lon="1.527950624004006">
        <ele>568.4000244140625</ele>
        <time>2018-12-29T08:23:57Z</time>
      </trkpt>
      <trkpt lat="41.337194731459022" lon="1.52791022323072">
        <ele>568.4000244140625</ele>
        <time>2018-12-29T08:23:58Z</time>
      </trkpt>
      <trkpt lat="41.337176794186234" lon="1.527869990095496">
        <ele>568.4000244140625</ele>
        <time>2018-12-29T08:23:59Z</time>
      </trkpt>
      <trkpt lat="41.337137734517455" lon="1.527794469147921">
        <ele>568.5999755859375</ele>
        <time>2018-12-29T08:24:01Z</time>
      </trkpt>
      <trkpt lat="41.337096998468041" lon="1.527718026190996">
        <ele>568.5999755859375</ele>
        <time>2018-12-29T08:24:03Z</time>
      </trkpt>
      <trkpt lat="41.337058274075389" lon="1.527640493586659">
        <ele>568.79998779296875</ele>
        <time>2018-12-29T08:24:05Z</time>
      </trkpt>
      <trkpt lat="41.337040504440665" lon="1.527603026479483">
        <ele>568.79998779296875</ele>
        <time>2018-12-29T08:24:06Z</time>
      </trkpt>
      <trkpt lat="41.337031787261367" lon="1.527563463896513">
        <ele>569</ele>
        <time>2018-12-29T08:24:07Z</time>
      </trkpt>
      <trkpt lat="41.337028937414289" lon="1.5275002643466">
        <ele>569.20001220703125</ele>
        <time>2018-12-29T08:24:09Z</time>
      </trkpt>
      <trkpt lat="41.3370265904814" lon="1.527473693713546">
        <ele>569.4000244140625</ele>
        <time>2018-12-29T08:24:10Z</time>
      </trkpt>
      <trkpt lat="41.337024830281734" lon="1.527453325688839">
        <ele>569.5999755859375</ele>
        <time>2018-12-29T08:24:11Z</time>
      </trkpt>
      <trkpt lat="41.337017035111785" lon="1.527436561882496">
        <ele>569.79998779296875</ele>
        <time>2018-12-29T08:24:12Z</time>
      </trkpt>
      <trkpt lat="41.337009659036994" lon="1.527421893551946">
        <ele>570</ele>
        <time>2018-12-29T08:24:13Z</time>
      </trkpt>
      <trkpt lat="41.336989710107446" lon="1.527405213564634">
        <ele>570</ele>
        <time>2018-12-29T08:24:15Z</time>
      </trkpt>
      <trkpt lat="41.33697722107172" lon="1.527398005127907">
        <ele>570</ele>
        <time>2018-12-29T08:24:17Z</time>
      </trkpt>
      <trkpt lat="41.336941011250019" lon="1.527402028441429">
        <ele>569.20001220703125</ele>
        <time>2018-12-29T08:28:02Z</time>
      </trkpt>
      <trkpt lat="41.336932377889752" lon="1.527391467243433">
        <ele>569.20001220703125</ele>
        <time>2018-12-29T08:28:03Z</time>
      </trkpt>
      <trkpt lat="41.336923576891422" lon="1.527376715093851">
        <ele>569.20001220703125</ele>
        <time>2018-12-29T08:28:04Z</time>
      </trkpt>
      <trkpt lat="41.336906645447016" lon="1.527333715930581">
        <ele>569.20001220703125</ele>
        <time>2018-12-29T08:28:06Z</time>
      </trkpt>
      <trkpt lat="41.336884098127484" lon="1.527281161397696">
        <ele>569.20001220703125</ele>
        <time>2018-12-29T08:28:08Z</time>
      </trkpt>
      <trkpt lat="41.336871441453695" lon="1.527250818908215">
        <ele>569.20001220703125</ele>
        <time>2018-12-29T08:28:09Z</time>
      </trkpt>
      <trkpt lat="41.336861466988921" lon="1.527217794209719">
        <ele>569.20001220703125</ele>
        <time>2018-12-29T08:28:10Z</time>
      </trkpt>
      <trkpt lat="41.336838835850358" lon="1.527160126715899">
        <ele>569.20001220703125</ele>
        <time>2018-12-29T08:28:12Z</time>
      </trkpt>
      <trkpt lat="41.336813103407621" lon="1.527108326554298">
        <ele>569.5999755859375</ele>
        <time>2018-12-29T08:28:14Z</time>
      </trkpt>
      <trkpt lat="41.336791729554534" lon="1.527057867497206">
        <ele>569.79998779296875</ele>
        <time>2018-12-29T08:28:16Z</time>
      </trkpt>
      <trkpt lat="41.336760213598609" lon="1.527010509744287">
        <ele>569.79998779296875</ele>
        <time>2018-12-29T08:28:18Z</time>
      </trkpt>
      <trkpt lat="41.336726183071733" lon="1.526961140334606">
        <ele>569.79998779296875</ele>
        <time>2018-12-29T08:28:20Z</time>
      </trkpt>
      <trkpt lat="41.336696175858378" lon="1.526903472840786">
        <ele>570</ele>
        <time>2018-12-29T08:28:22Z</time>
      </trkpt>
      <trkpt lat="41.336671616882086" lon="1.526845386251807">
        <ele>570.20001220703125</ele>
        <time>2018-12-29T08:28:24Z</time>
      </trkpt>
      <trkpt lat="41.336636748164892" lon="1.526789143681526">
        <ele>570.4000244140625</ele>
        <time>2018-12-29T08:28:26Z</time>
      </trkpt>
      <trkpt lat="41.336601376533508" lon="1.526724603027105">
        <ele>570.4000244140625</ele>
        <time>2018-12-29T08:28:28Z</time>
      </trkpt>
      <trkpt lat="41.336583774536848" lon="1.526688141748309">
        <ele>570.5999755859375</ele>
        <time>2018-12-29T08:28:29Z</time>
      </trkpt>
      <trkpt lat="41.336568687111139" lon="1.526650590822101">
        <ele>570.5999755859375</ele>
        <time>2018-12-29T08:28:30Z</time>
      </trkpt>
      <trkpt lat="41.336545888334513" lon="1.526572220027447">
        <ele>570.79998779296875</ele>
        <time>2018-12-29T08:28:32Z</time>
      </trkpt>
      <trkpt lat="41.336528789252043" lon="1.526492005214095">
        <ele>570.79998779296875</ele>
        <time>2018-12-29T08:28:34Z</time>
      </trkpt>
      <trkpt lat="41.336529040709138" lon="1.526450850069523">
        <ele>570.79998779296875</ele>
        <time>2018-12-29T08:28:35Z</time>
      </trkpt>
      <trkpt lat="41.33653205819428" lon="1.526407264173031">
        <ele>570.79998779296875</ele>
        <time>2018-12-29T08:28:36Z</time>
      </trkpt>
      <trkpt lat="41.336548989638686" lon="1.526320511475205">
        <ele>571</ele>
        <time>2018-12-29T08:28:38Z</time>
      </trkpt>
      <trkpt lat="41.33656625635922" lon="1.526232752948999">
        <ele>571.20001220703125</ele>
        <time>2018-12-29T08:28:40Z</time>
      </trkpt>
      <trkpt lat="41.336574554443359" lon="1.52618732303381">
        <ele>571.20001220703125</ele>
        <time>2018-12-29T08:28:41Z</time>
      </trkpt>
      <trkpt lat="41.336585870012641" lon="1.526140887290239">
        <ele>571.4000244140625</ele>
        <time>2018-12-29T08:28:42Z</time>
      </trkpt>
      <trkpt lat="41.336604142561555" lon="1.526038711890578">
        <ele>571.4000244140625</ele>
        <time>2018-12-29T08:28:44Z</time>
      </trkpt>
      <trkpt lat="41.336625935509801" lon="1.525932513177395">
        <ele>571.4000244140625</ele>
        <time>2018-12-29T08:28:46Z</time>
      </trkpt>
      <trkpt lat="41.336652841418982" lon="1.525825392454863">
        <ele>571.4000244140625</ele>
        <time>2018-12-29T08:28:48Z</time>
      </trkpt>
      <trkpt lat="41.33666499517858" lon="1.525770574808121">
        <ele>571.5999755859375</ele>
        <time>2018-12-29T08:28:49Z</time>
      </trkpt>
      <trkpt lat="41.336679914966226" lon="1.525717014446855">
        <ele>571.4000244140625</ele>
        <time>2018-12-29T08:28:50Z</time>
      </trkpt>
      <trkpt lat="41.336706234142184" lon="1.525607379153371">
        <ele>571.4000244140625</ele>
        <time>2018-12-29T08:28:52Z</time>
      </trkpt>
      <trkpt lat="41.336729116737843" lon="1.52549740858376">
        <ele>571.4000244140625</ele>
        <time>2018-12-29T08:28:54Z</time>
      </trkpt>
      <trkpt lat="41.336754765361547" lon="1.525391880422831">
        <ele>571.79998779296875</ele>
        <time>2018-12-29T08:28:56Z</time>
      </trkpt>
      <trkpt lat="41.336778989061713" lon="1.525277802720666">
        <ele>571.79998779296875</ele>
        <time>2018-12-29T08:28:58Z</time>
      </trkpt>
      <trkpt lat="41.336806062608957" lon="1.525159785524011">
        <ele>571.79998779296875</ele>
        <time>2018-12-29T08:29:00Z</time>
      </trkpt>
      <trkpt lat="41.336835063993931" lon="1.525042019784451">
        <ele>571.5999755859375</ele>
        <time>2018-12-29T08:29:02Z</time>
      </trkpt>
      <trkpt lat="41.336863813921809" lon="1.524920985102654">
        <ele>571.4000244140625</ele>
        <time>2018-12-29T08:29:04Z</time>
      </trkpt>
      <trkpt lat="41.336898598819971" lon="1.524797435849905">
        <ele>571.20001220703125</ele>
        <time>2018-12-29T08:29:06Z</time>
      </trkpt>
      <trkpt lat="41.336921816691756" lon="1.524735828861594">
        <ele>571</ele>
        <time>2018-12-29T08:29:07Z</time>
      </trkpt>
      <trkpt lat="41.336947465315461" lon="1.524676149711013">
        <ele>570.79998779296875</ele>
        <time>2018-12-29T08:29:08Z</time>
      </trkpt>
      <trkpt lat="41.336979232728481" lon="1.524620661512017">
        <ele>570.5999755859375</ele>
        <time>2018-12-29T08:29:09Z</time>
      </trkpt>
      <trkpt lat="41.337014771997929" lon="1.524568274617195">
        <ele>570.5999755859375</ele>
        <time>2018-12-29T08:29:10Z</time>
      </trkpt>
      <trkpt lat="41.337095322087407" lon="1.524475822225213">
        <ele>570.4000244140625</ele>
        <time>2018-12-29T08:29:12Z</time>
      </trkpt>
      <trkpt lat="41.33713748306036" lon="1.524432320147753">
        <ele>570.20001220703125</ele>
        <time>2018-12-29T08:29:13Z</time>
      </trkpt>
      <trkpt lat="41.337179224938154" lon="1.524388566613197">
        <ele>570.20001220703125</ele>
        <time>2018-12-29T08:29:14Z</time>
      </trkpt>
      <trkpt lat="41.337264887988567" lon="1.524303155019879">
        <ele>570.20001220703125</ele>
        <time>2018-12-29T08:29:16Z</time>
      </trkpt>
      <trkpt lat="41.337351473048329" lon="1.524215647950769">
        <ele>570.20001220703125</ele>
        <time>2018-12-29T08:29:18Z</time>
      </trkpt>
      <trkpt lat="41.337440740317106" lon="1.524132415652275">
        <ele>569.79998779296875</ele>
        <time>2018-12-29T08:29:20Z</time>
      </trkpt>
      <trkpt lat="41.337529337033629" lon="1.524048177525401">
        <ele>569.79998779296875</ele>
        <time>2018-12-29T08:29:22Z</time>
      </trkpt>
      <trkpt lat="41.337575521320105" lon="1.524008614942431">
        <ele>569.79998779296875</ele>
        <time>2018-12-29T08:29:23Z</time>
      </trkpt>
      <trkpt lat="41.337622376158834" lon="1.523971818387508">
        <ele>569.79998779296875</ele>
        <time>2018-12-29T08:29:24Z</time>
      </trkpt>
      <trkpt lat="41.337723545730114" lon="1.523905517533422">
        <ele>569.5999755859375</ele>
        <time>2018-12-29T08:29:26Z</time>
      </trkpt>
      <trkpt lat="41.337831756100059" lon="1.523853046819568">
        <ele>569.5999755859375</ele>
        <time>2018-12-29T08:29:28Z</time>
      </trkpt>
      <trkpt lat="41.337887076660991" lon="1.523834187537432">
        <ele>569.4000244140625</ele>
        <time>2018-12-29T08:29:29Z</time>
      </trkpt>
      <trkpt lat="41.337943905964494" lon="1.523814741522074">
        <ele>569.4000244140625</ele>
        <time>2018-12-29T08:29:30Z</time>
      </trkpt>
      <trkpt lat="41.338056894019246" lon="1.523776352405548">
        <ele>569.20001220703125</ele>
        <time>2018-12-29T08:29:32Z</time>
      </trkpt>
      <trkpt lat="41.338174743577838" lon="1.523733269423246">
        <ele>569</ele>
        <time>2018-12-29T08:29:34Z</time>
      </trkpt>
      <trkpt lat="41.338237775489688" lon="1.523714829236269">
        <ele>568.5999755859375</ele>
        <time>2018-12-29T08:29:35Z</time>
      </trkpt>
      <trkpt lat="41.338300807401538" lon="1.52369580231607">
        <ele>568.20001220703125</ele>
        <time>2018-12-29T08:29:36Z</time>
      </trkpt>
      <trkpt lat="41.33836249820888" lon="1.523674093186855">
        <ele>568</ele>
        <time>2018-12-29T08:29:37Z</time>
      </trkpt>
      <trkpt lat="41.338422847911716" lon="1.523654982447624">
        <ele>568</ele>
        <time>2018-12-29T08:29:38Z</time>
      </trkpt>
      <trkpt lat="41.338539188727736" lon="1.523615419864655">
        <ele>567.79998779296875</ele>
        <time>2018-12-29T08:29:40Z</time>
      </trkpt>
      <trkpt lat="41.338653350248933" lon="1.523575270548463">
        <ele>567.79998779296875</ele>
        <time>2018-12-29T08:29:42Z</time>
      </trkpt>
      <trkpt lat="41.338769439607859" lon="1.523533277213574">
        <ele>568.20001220703125</ele>
        <time>2018-12-29T08:29:44Z</time>
      </trkpt>
      <trkpt lat="41.338891396299005" lon="1.523496396839619">
        <ele>568.20001220703125</ele>
        <time>2018-12-29T08:29:46Z</time>
      </trkpt>
      <trkpt lat="41.338952584192157" lon="1.523477286100388">
        <ele>568.20001220703125</ele>
        <time>2018-12-29T08:29:47Z</time>
      </trkpt>
      <trkpt lat="41.339012682437897" lon="1.52345641516149">
        <ele>568</ele>
        <time>2018-12-29T08:29:48Z</time>
      </trkpt>
      <trkpt lat="41.339129442349076" lon="1.523416517302394">
        <ele>568</ele>
        <time>2018-12-29T08:29:50Z</time>
      </trkpt>
      <trkpt lat="41.339243268594146" lon="1.523384163156152">
        <ele>568</ele>
        <time>2018-12-29T08:29:52Z</time>
      </trkpt>
      <trkpt lat="41.339353574439883" lon="1.523350300267339">
        <ele>568</ele>
        <time>2018-12-29T08:29:54Z</time>
      </trkpt>
      <trkpt lat="41.339459856972098" lon="1.523314006626606">
        <ele>568</ele>
        <time>2018-12-29T08:29:56Z</time>
      </trkpt>
      <trkpt lat="41.339567061513662" lon="1.523281652480364">
        <ele>568</ele>
        <time>2018-12-29T08:29:58Z</time>
      </trkpt>
      <trkpt lat="41.339673008769751" lon="1.523244939744473">
        <ele>568</ele>
        <time>2018-12-29T08:30:00Z</time>
      </trkpt>
      <trkpt lat="41.339776776731014" lon="1.523207304999232">
        <ele>568</ele>
        <time>2018-12-29T08:30:02Z</time>
      </trkpt>
      <trkpt lat="41.339875515550375" lon="1.523160031065345">
        <ele>568</ele>
        <time>2018-12-29T08:30:04Z</time>
      </trkpt>
      <trkpt lat="41.339924465864897" lon="1.523127760738134">
        <ele>568</ele>
        <time>2018-12-29T08:30:05Z</time>
      </trkpt>
      <trkpt lat="41.339971488341689" lon="1.523090545088053">
        <ele>568</ele>
        <time>2018-12-29T08:30:06Z</time>
      </trkpt>
      <trkpt lat="41.340065114200115" lon="1.523015275597572">
        <ele>567.5999755859375</ele>
        <time>2018-12-29T08:30:08Z</time>
      </trkpt>
      <trkpt lat="41.34011129848659" lon="1.522975210100412">
        <ele>567.4000244140625</ele>
        <time>2018-12-29T08:30:09Z</time>
      </trkpt>
      <trkpt lat="41.340159494429827" lon="1.522937575355172">
        <ele>567.4000244140625</ele>
        <time>2018-12-29T08:30:10Z</time>
      </trkpt>
      <trkpt lat="41.340252701193094" lon="1.522859036922455">
        <ele>567.20001220703125</ele>
        <time>2018-12-29T08:30:12Z</time>
      </trkpt>
      <trkpt lat="41.340347919613123" lon="1.522777983918786">
        <ele>567</ele>
        <time>2018-12-29T08:30:14Z</time>
      </trkpt>
      <trkpt lat="41.340440455824137" lon="1.522699696943164">
        <ele>566.79998779296875</ele>
        <time>2018-12-29T08:30:16Z</time>
      </trkpt>
      <trkpt lat="41.340488400310278" lon="1.522659379988909">
        <ele>566.79998779296875</ele>
        <time>2018-12-29T08:30:17Z</time>
      </trkpt>
      <trkpt lat="41.340535506606102" lon="1.522623589262366">
        <ele>566.79998779296875</ele>
        <time>2018-12-29T08:30:18Z</time>
      </trkpt>
      <trkpt lat="41.340582948178053" lon="1.522583859041333">
        <ele>566.5999755859375</ele>
        <time>2018-12-29T08:30:19Z</time>
      </trkpt>
      <trkpt lat="41.34063458070159" lon="1.522548655048013">
        <ele>566.5999755859375</ele>
        <time>2018-12-29T08:30:20Z</time>
      </trkpt>
      <trkpt lat="41.340734828263521" lon="1.522481767460704">
        <ele>566.4000244140625</ele>
        <time>2018-12-29T08:30:22Z</time>
      </trkpt>
      <trkpt lat="41.340787382796407" lon="1.522453101351857">
        <ele>566.4000244140625</ele>
        <time>2018-12-29T08:30:23Z</time>
      </trkpt>
      <trkpt lat="41.340840607881546" lon="1.522427620366216">
        <ele>566.4000244140625</ele>
        <time>2018-12-29T08:30:24Z</time>
      </trkpt>
      <trkpt lat="41.340949321165681" lon="1.522381184622645">
        <ele>566.4000244140625</ele>
        <time>2018-12-29T08:30:26Z</time>
      </trkpt>
      <trkpt lat="41.341065494343638" lon="1.522341873496771">
        <ele>566.20001220703125</ele>
        <time>2018-12-29T08:30:28Z</time>
      </trkpt>
      <trkpt lat="41.341195497661829" lon="1.522303652018309">
        <ele>565.4000244140625</ele>
        <time>2018-12-29T08:30:30Z</time>
      </trkpt>
      <trkpt lat="41.341339750215411" lon="1.522280853241682">
        <ele>564.20001220703125</ele>
        <time>2018-12-29T08:30:32Z</time>
      </trkpt>
      <trkpt lat="41.341415522620082" lon="1.522284792736173">
        <ele>563.79998779296875</ele>
        <time>2018-12-29T08:30:33Z</time>
      </trkpt>
      <trkpt lat="41.341489534825087" lon="1.52229736559093">
        <ele>563.4000244140625</ele>
        <time>2018-12-29T08:30:34Z</time>
      </trkpt>
      <trkpt lat="41.341561703011394" lon="1.522319996729493">
        <ele>563.20001220703125</ele>
        <time>2018-12-29T08:30:35Z</time>
      </trkpt>
      <trkpt lat="41.341634290292859" lon="1.522344639524818">
        <ele>562.79998779296875</ele>
        <time>2018-12-29T08:30:36Z</time>
      </trkpt>
      <trkpt lat="41.341783907264471" lon="1.522401217371225">
        <ele>562.20001220703125</ele>
        <time>2018-12-29T08:30:38Z</time>
      </trkpt>
      <trkpt lat="41.341858925297856" lon="1.5224370919168">
        <ele>562</ele>
        <time>2018-12-29T08:30:39Z</time>
      </trkpt>
      <trkpt lat="41.341936457902193" lon="1.522468943148851">
        <ele>561.5999755859375</ele>
        <time>2018-12-29T08:30:40Z</time>
      </trkpt>
      <trkpt lat="41.342013319954276" lon="1.522504314780235">
        <ele>561.20001220703125</ele>
        <time>2018-12-29T08:30:41Z</time>
      </trkpt>
      <trkpt lat="41.342090852558613" lon="1.522544883191586">
        <ele>560.79998779296875</ele>
        <time>2018-12-29T08:30:42Z</time>
      </trkpt>
      <trkpt lat="41.342165619134903" lon="1.522597521543503">
        <ele>560.4000244140625</ele>
        <time>2018-12-29T08:30:43Z</time>
      </trkpt>
      <trkpt lat="41.342238960787654" lon="1.522649489343166">
        <ele>560</ele>
        <time>2018-12-29T08:30:44Z</time>
      </trkpt>
      <trkpt lat="41.342311799526215" lon="1.522704977542162">
        <ele>559.5999755859375</ele>
        <time>2018-12-29T08:30:45Z</time>
      </trkpt>
      <trkpt lat="41.342381788417697" lon="1.52275912463665">
        <ele>559.20001220703125</ele>
        <time>2018-12-29T08:30:46Z</time>
      </trkpt>
      <trkpt lat="41.342523442581296" lon="1.52283975854516">
        <ele>558.79998779296875</ele>
        <time>2018-12-29T08:30:48Z</time>
      </trkpt>
      <trkpt lat="41.342667108401656" lon="1.522823413833976">
        <ele>558.79998779296875</ele>
        <time>2018-12-29T08:30:50Z</time>
      </trkpt>
      <trkpt lat="41.342730727046728" lon="1.522772451862693">
        <ele>558.5999755859375</ele>
        <time>2018-12-29T08:30:51Z</time>
      </trkpt>
      <trkpt lat="41.342781353741884" lon="1.522702127695084">
        <ele>558.20001220703125</ele>
        <time>2018-12-29T08:30:52Z</time>
      </trkpt>
      <trkpt lat="41.342826532199979" lon="1.522619817405939">
        <ele>558</ele>
        <time>2018-12-29T08:30:53Z</time>
      </trkpt>
      <trkpt lat="41.342866010963917" lon="1.522531388327479">
        <ele>557.4000244140625</ele>
        <time>2018-12-29T08:30:54Z</time>
      </trkpt>
      <trkpt lat="41.342906914651394" lon="1.522439187392592">
        <ele>557</ele>
        <time>2018-12-29T08:30:55Z</time>
      </trkpt>
      <trkpt lat="41.342948069795966" lon="1.522345142439008">
        <ele>556.20001220703125</ele>
        <time>2018-12-29T08:30:56Z</time>
      </trkpt>
      <trkpt lat="41.343042114749551" lon="1.522154035046697">
        <ele>555.20001220703125</ele>
        <time>2018-12-29T08:30:58Z</time>
      </trkpt>
      <trkpt lat="41.343088801950216" lon="1.522056804969907">
        <ele>554.79998779296875</ele>
        <time>2018-12-29T08:30:59Z</time>
      </trkpt>
      <trkpt lat="41.343136075884104" lon="1.521958988159895">
        <ele>554.4000244140625</ele>
        <time>2018-12-29T08:31:00Z</time>
      </trkpt>
      <trkpt lat="41.343226181343198" lon="1.521765701472759">
        <ele>554</ele>
        <time>2018-12-29T08:31:02Z</time>
      </trkpt>
      <trkpt lat="41.343270437791944" lon="1.521668471395969">
        <ele>553.5999755859375</ele>
        <time>2018-12-29T08:31:03Z</time>
      </trkpt>
      <trkpt lat="41.343312934041023" lon="1.521576186642051">
        <ele>553.20001220703125</ele>
        <time>2018-12-29T08:31:04Z</time>
      </trkpt>
      <trkpt lat="41.343403710052371" lon="1.521401759237051">
        <ele>552.5999755859375</ele>
        <time>2018-12-29T08:31:06Z</time>
      </trkpt>
      <trkpt lat="41.343455342575908" lon="1.521314838901162">
        <ele>552.4000244140625</ele>
        <time>2018-12-29T08:31:07Z</time>
      </trkpt>
      <trkpt lat="41.343511752784252" lon="1.521233282983303">
        <ele>552</ele>
        <time>2018-12-29T08:31:08Z</time>
      </trkpt>
      <trkpt lat="41.343572689220309" lon="1.521153319627047">
        <ele>551.5999755859375</ele>
        <time>2018-12-29T08:31:09Z</time>
      </trkpt>
      <trkpt lat="41.343637062236667" lon="1.521077044308186">
        <ele>551.20001220703125</ele>
        <time>2018-12-29T08:31:10Z</time>
      </trkpt>
      <trkpt lat="41.343773603439331" lon="1.520927762612701">
        <ele>550.4000244140625</ele>
        <time>2018-12-29T08:31:12Z</time>
      </trkpt>
      <trkpt lat="41.343907965347171" lon="1.520787449553609">
        <ele>549.4000244140625</ele>
        <time>2018-12-29T08:31:14Z</time>
      </trkpt>
      <trkpt lat="41.343974014744163" lon="1.520736906677485">
        <ele>549.20001220703125</ele>
        <time>2018-12-29T08:31:15Z</time>
      </trkpt>
      <trkpt lat="41.344041069969535" lon="1.520703630521894">
        <ele>548.79998779296875</ele>
        <time>2018-12-29T08:31:16Z</time>
      </trkpt>
      <trkpt lat="41.344112819060683" lon="1.520692734047771">
        <ele>548.5999755859375</ele>
        <time>2018-12-29T08:31:17Z</time>
      </trkpt>
      <trkpt lat="41.344188926741481" lon="1.520704720169306">
        <ele>548.20001220703125</ele>
        <time>2018-12-29T08:31:18Z</time>
      </trkpt>
      <trkpt lat="41.344340303912759" lon="1.520768757909536">
        <ele>547.20001220703125</ele>
        <time>2018-12-29T08:31:20Z</time>
      </trkpt>
      <trkpt lat="41.344417249783874" lon="1.520804883912206">
        <ele>546.79998779296875</ele>
        <time>2018-12-29T08:31:21Z</time>
      </trkpt>
      <trkpt lat="41.344495117664337" lon="1.520844530314207">
        <ele>546.20001220703125</ele>
        <time>2018-12-29T08:31:22Z</time>
      </trkpt>
      <trkpt lat="41.344575248658657" lon="1.520884679630399">
        <ele>545.5999755859375</ele>
        <time>2018-12-29T08:31:23Z</time>
      </trkpt>
      <trkpt lat="41.344652865082026" lon="1.520925750955939">
        <ele>545</ele>
        <time>2018-12-29T08:31:24Z</time>
      </trkpt>
      <trkpt lat="41.344798039644957" lon="1.520970845595002">
        <ele>544.79998779296875</ele>
        <time>2018-12-29T08:31:26Z</time>
      </trkpt>
      <trkpt lat="41.344925779849291" lon="1.520910076797009">
        <ele>544.4000244140625</ele>
        <time>2018-12-29T08:31:28Z</time>
      </trkpt>
      <trkpt lat="41.344974478706717" lon="1.520845284685493">
        <ele>544</ele>
        <time>2018-12-29T08:31:29Z</time>
      </trkpt>
      <trkpt lat="41.345012364909053" lon="1.52076649479568">
        <ele>543.5999755859375</ele>
        <time>2018-12-29T08:31:30Z</time>
      </trkpt>
      <trkpt lat="41.345046730712056" lon="1.520686279982328">
        <ele>543</ele>
        <time>2018-12-29T08:31:31Z</time>
      </trkpt>
      <trkpt lat="41.345082353800535" lon="1.520600030198693">
        <ele>542.5999755859375</ele>
        <time>2018-12-29T08:31:32Z</time>
      </trkpt>
      <trkpt lat="41.345158712938428" lon="1.520425770431757">
        <ele>541.79998779296875</ele>
        <time>2018-12-29T08:31:34Z</time>
      </trkpt>
      <trkpt lat="41.345231467857957" lon="1.520248241722584">
        <ele>541.4000244140625</ele>
        <time>2018-12-29T08:31:36Z</time>
      </trkpt>
      <trkpt lat="41.345313778147101" lon="1.52006627060473">
        <ele>541.20001220703125</ele>
        <time>2018-12-29T08:31:38Z</time>
      </trkpt>
      <trkpt lat="41.345350909978151" lon="1.519979601725936">
        <ele>541</ele>
        <time>2018-12-29T08:31:39Z</time>
      </trkpt>
      <trkpt lat="41.345394412055612" lon="1.519899973645806">
        <ele>540.79998779296875</ele>
        <time>2018-12-29T08:31:40Z</time>
      </trkpt>
      <trkpt lat="41.3454519957304" lon="1.519833169877529">
        <ele>540.5999755859375</ele>
        <time>2018-12-29T08:31:41Z</time>
      </trkpt>
      <trkpt lat="41.345521649345756" lon="1.519780280068517">
        <ele>540</ele>
        <time>2018-12-29T08:31:42Z</time>
      </trkpt>
      <trkpt lat="41.345600271597505" lon="1.519753709435463">
        <ele>539.5999755859375</ele>
        <time>2018-12-29T08:31:43Z</time>
      </trkpt>
      <trkpt lat="41.345683084800839" lon="1.519749853760004">
        <ele>539</ele>
        <time>2018-12-29T08:31:44Z</time>
      </trkpt>
      <trkpt lat="41.345848878845572" lon="1.519792098551989">
        <ele>538</ele>
        <time>2018-12-29T08:31:46Z</time>
      </trkpt>
      <trkpt lat="41.345930099487305" lon="1.519827805459499">
        <ele>537.4000244140625</ele>
        <time>2018-12-29T08:31:47Z</time>
      </trkpt>
      <trkpt lat="41.346012493595481" lon="1.519865691661835">
        <ele>537.20001220703125</ele>
        <time>2018-12-29T08:31:48Z</time>
      </trkpt>
      <trkpt lat="41.346182646229863" lon="1.519943475723267">
        <ele>536.4000244140625</ele>
        <time>2018-12-29T08:31:50Z</time>
      </trkpt>
      <trkpt lat="41.346270572394133" lon="1.519983289763331">
        <ele>535.79998779296875</ele>
        <time>2018-12-29T08:31:51Z</time>
      </trkpt>
      <trkpt lat="41.346359001472592" lon="1.520025115460157">
        <ele>535.20001220703125</ele>
        <time>2018-12-29T08:31:52Z</time>
      </trkpt>
      <trkpt lat="41.3465416431427" lon="1.520106000825763">
        <ele>534.20001220703125</ele>
        <time>2018-12-29T08:31:54Z</time>
      </trkpt>
      <trkpt lat="41.346734091639519" lon="1.520158806815743">
        <ele>533.20001220703125</ele>
        <time>2018-12-29T08:31:56Z</time>
      </trkpt>
      <trkpt lat="41.346826376393437" lon="1.520173558965325">
        <ele>532.79998779296875</ele>
        <time>2018-12-29T08:31:57Z</time>
      </trkpt>
      <trkpt lat="41.346920002251863" lon="1.520175905898213">
        <ele>532.20001220703125</ele>
        <time>2018-12-29T08:31:58Z</time>
      </trkpt>
      <trkpt lat="41.347013879567385" lon="1.520161908119917">
        <ele>531.79998779296875</ele>
        <time>2018-12-29T08:31:59Z</time>
      </trkpt>
      <trkpt lat="41.347109768539667" lon="1.520140366628766">
        <ele>531.4000244140625</ele>
        <time>2018-12-29T08:32:00Z</time>
      </trkpt>
      <trkpt lat="41.347203142940998" lon="1.520109940320253">
        <ele>531</ele>
        <time>2018-12-29T08:32:01Z</time>
      </trkpt>
      <trkpt lat="41.347296936437488" lon="1.520072892308235">
        <ele>530.20001220703125</ele>
        <time>2018-12-29T08:32:02Z</time>
      </trkpt>
      <trkpt lat="41.347389975562692" lon="1.520031066611409">
        <ele>529.4000244140625</ele>
        <time>2018-12-29T08:32:03Z</time>
      </trkpt>
      <trkpt lat="41.34748175740242" lon="1.519985552877188">
        <ele>528.79998779296875</ele>
        <time>2018-12-29T08:32:04Z</time>
      </trkpt>
      <trkpt lat="41.34767035022378" lon="1.519902404397726">
        <ele>527.79998779296875</ele>
        <time>2018-12-29T08:32:06Z</time>
      </trkpt>
      <trkpt lat="41.347860284149647" lon="1.519824955612421">
        <ele>526.4000244140625</ele>
        <time>2018-12-29T08:32:08Z</time>
      </trkpt>
      <trkpt lat="41.348046027123928" lon="1.519743483513594">
        <ele>526</ele>
        <time>2018-12-29T08:32:10Z</time>
      </trkpt>
      <trkpt lat="41.348214922472835" lon="1.519665531814098">
        <ele>525.5999755859375</ele>
        <time>2018-12-29T08:32:12Z</time>
      </trkpt>
      <trkpt lat="41.348289018496871" lon="1.519612893462181">
        <ele>525.4000244140625</ele>
        <time>2018-12-29T08:32:13Z</time>
      </trkpt>
      <trkpt lat="41.348352301865816" lon="1.519536953419447">
        <ele>525.20001220703125</ele>
        <time>2018-12-29T08:32:14Z</time>
      </trkpt>
      <trkpt lat="41.348442155867815" lon="1.519339559599757">
        <ele>524.4000244140625</ele>
        <time>2018-12-29T08:32:16Z</time>
      </trkpt>
      <trkpt lat="41.348508708178997" lon="1.519121127203107">
        <ele>523.4000244140625</ele>
        <time>2018-12-29T08:32:18Z</time>
      </trkpt>
      <trkpt lat="41.348570650443435" lon="1.518906047567725">
        <ele>522.4000244140625</ele>
        <time>2018-12-29T08:32:20Z</time>
      </trkpt>
      <trkpt lat="41.348604764789343" lon="1.518798004835844">
        <ele>522.20001220703125</ele>
        <time>2018-12-29T08:32:21Z</time>
      </trkpt>
      <trkpt lat="41.348640136420727" lon="1.518688620999456">
        <ele>522</ele>
        <time>2018-12-29T08:32:22Z</time>
      </trkpt>
      <trkpt lat="41.348710376769304" lon="1.518467674031854">
        <ele>521.20001220703125</ele>
        <time>2018-12-29T08:32:24Z</time>
      </trkpt>
      <trkpt lat="41.348743066191673" lon="1.51835560798645">
        <ele>520.79998779296875</ele>
        <time>2018-12-29T08:32:25Z</time>
      </trkpt>
      <trkpt lat="41.348776845261455" lon="1.51824320666492">
        <ele>520.4000244140625</ele>
        <time>2018-12-29T08:32:26Z</time>
      </trkpt>
      <trkpt lat="41.348849097266793" lon="1.518012871965766">
        <ele>519.79998779296875</ele>
        <time>2018-12-29T08:32:28Z</time>
      </trkpt>
      <trkpt lat="41.348880948498845" lon="1.517901225015521">
        <ele>519.4000244140625</ele>
        <time>2018-12-29T08:32:29Z</time>
      </trkpt>
      <trkpt lat="41.348912296816707" lon="1.517800809815526">
        <ele>518.79998779296875</ele>
        <time>2018-12-29T08:32:30Z</time>
      </trkpt>
      <trkpt lat="41.348950853571296" lon="1.517706932500005">
        <ele>518.4000244140625</ele>
        <time>2018-12-29T08:32:31Z</time>
      </trkpt>
      <trkpt lat="41.349000642076135" lon="1.517625041306019">
        <ele>517.5999755859375</ele>
        <time>2018-12-29T08:32:32Z</time>
      </trkpt>
      <trkpt lat="41.349064260721207" lon="1.517552705481648">
        <ele>517.20001220703125</ele>
        <time>2018-12-29T08:32:33Z</time>
      </trkpt>
      <trkpt lat="41.349134165793657" lon="1.517492355778813">
        <ele>517</ele>
        <time>2018-12-29T08:32:34Z</time>
      </trkpt>
      <trkpt lat="41.349283196032047" lon="1.517388923093677">
        <ele>515.79998779296875</ele>
        <time>2018-12-29T08:32:36Z</time>
      </trkpt>
      <trkpt lat="41.349358297884464" lon="1.517342068254948">
        <ele>515.4000244140625</ele>
        <time>2018-12-29T08:32:37Z</time>
      </trkpt>
      <trkpt lat="41.349434740841389" lon="1.51729378849268">
        <ele>515</ele>
        <time>2018-12-29T08:32:38Z</time>
      </trkpt>
      <trkpt lat="41.349512692540884" lon="1.517243999987841">
        <ele>514.79998779296875</ele>
        <time>2018-12-29T08:32:39Z</time>
      </trkpt>
      <trkpt lat="41.349590476602316" lon="1.517192032188177">
        <ele>514.4000244140625</ele>
        <time>2018-12-29T08:32:40Z</time>
      </trkpt>
      <trkpt lat="41.349743362516165" lon="1.517083821818233">
        <ele>513.5999755859375</ele>
        <time>2018-12-29T08:32:42Z</time>
      </trkpt>
      <trkpt lat="41.349903708323836" lon="1.516977204009891">
        <ele>512.79998779296875</ele>
        <time>2018-12-29T08:32:44Z</time>
      </trkpt>
      <trkpt lat="41.349984928965569" lon="1.516924984753132">
        <ele>512.20001220703125</ele>
        <time>2018-12-29T08:32:45Z</time>
      </trkpt>
      <trkpt lat="41.350066987797618" lon="1.516868574544787">
        <ele>512</ele>
        <time>2018-12-29T08:32:46Z</time>
      </trkpt>
      <trkpt lat="41.350230099633336" lon="1.516753155738115">
        <ele>511.20001220703125</ele>
        <time>2018-12-29T08:32:48Z</time>
      </trkpt>
      <trkpt lat="41.350314170122147" lon="1.516697751358151">
        <ele>510.60000610351562</ele>
        <time>2018-12-29T08:32:49Z</time>
      </trkpt>
      <trkpt lat="41.350395726040006" lon="1.516638491302729">
        <ele>510.20001220703125</ele>
        <time>2018-12-29T08:32:50Z</time>
      </trkpt>
      <trkpt lat="41.350558586418629" lon="1.516512678936124">
        <ele>509.39999389648437</ele>
        <time>2018-12-29T08:32:52Z</time>
      </trkpt>
      <trkpt lat="41.350717423483729" lon="1.516375383362174">
        <ele>508.20001220703125</ele>
        <time>2018-12-29T08:32:54Z</time>
      </trkpt>
      <trkpt lat="41.350877685472369" lon="1.516235321760178">
        <ele>507</ele>
        <time>2018-12-29T08:32:56Z</time>
      </trkpt>
      <trkpt lat="41.351039707660675" lon="1.516094170510769">
        <ele>506.39999389648438</ele>
        <time>2018-12-29T08:32:58Z</time>
      </trkpt>
      <trkpt lat="41.351196449249983" lon="1.515949750319123">
        <ele>505.60000610351562</ele>
        <time>2018-12-29T08:33:00Z</time>
      </trkpt>
      <trkpt lat="41.351346736773849" lon="1.51580055244267">
        <ele>504.79998779296875</ele>
        <time>2018-12-29T08:33:02Z</time>
      </trkpt>
      <trkpt lat="41.351420246064663" lon="1.515722265467048">
        <ele>504.60000610351562</ele>
        <time>2018-12-29T08:33:03Z</time>
      </trkpt>
      <trkpt lat="41.351494258269668" lon="1.515643559396267">
        <ele>504</ele>
        <time>2018-12-29T08:33:04Z</time>
      </trkpt>
      <trkpt lat="41.351567599922419" lon="1.515561416745186">
        <ele>503.39999389648437</ele>
        <time>2018-12-29T08:33:05Z</time>
      </trkpt>
      <trkpt lat="41.351639181375504" lon="1.515477346256375">
        <ele>503</ele>
        <time>2018-12-29T08:33:06Z</time>
      </trkpt>
      <trkpt lat="41.351777315139771" lon="1.51530803181231">
        <ele>502.39999389648437</ele>
        <time>2018-12-29T08:33:08Z</time>
      </trkpt>
      <trkpt lat="41.351913856342435" lon="1.515134274959564">
        <ele>501.60000610351562</ele>
        <time>2018-12-29T08:33:10Z</time>
      </trkpt>
      <trkpt lat="41.351978145539761" lon="1.515039307996631">
        <ele>501</ele>
        <time>2018-12-29T08:33:11Z</time>
      </trkpt>
      <trkpt lat="41.352040506899357" lon="1.514942329376936">
        <ele>500.60000610351562</ele>
        <time>2018-12-29T08:33:12Z</time>
      </trkpt>
      <trkpt lat="41.352104377001524" lon="1.514845434576273">
        <ele>500</ele>
        <time>2018-12-29T08:33:13Z</time>
      </trkpt>
      <trkpt lat="41.35216573253274" lon="1.514745270833373">
        <ele>499.60000610351562</ele>
        <time>2018-12-29T08:33:14Z</time>
      </trkpt>
      <trkpt lat="41.352224908769131" lon="1.514641251415014">
        <ele>499</ele>
        <time>2018-12-29T08:33:15Z</time>
      </trkpt>
      <trkpt lat="41.352282827720046" lon="1.514534465968609">
        <ele>498.60000610351562</ele>
        <time>2018-12-29T08:33:16Z</time>
      </trkpt>
      <trkpt lat="41.352397575974464" lon="1.514316536486149">
        <ele>497.60000610351562</ele>
        <time>2018-12-29T08:33:18Z</time>
      </trkpt>
      <trkpt lat="41.352454740554094" lon="1.514205643907189">
        <ele>497.20001220703125</ele>
        <time>2018-12-29T08:33:19Z</time>
      </trkpt>
      <trkpt lat="41.352514335885644" lon="1.514092152938247">
        <ele>496</ele>
        <time>2018-12-29T08:33:20Z</time>
      </trkpt>
      <trkpt lat="41.352627659216523" lon="1.513872547075152">
        <ele>495.20001220703125</ele>
        <time>2018-12-29T08:33:22Z</time>
      </trkpt>
      <trkpt lat="41.352680549025536" lon="1.513769282028079">
        <ele>494.79998779296875</ele>
        <time>2018-12-29T08:33:23Z</time>
      </trkpt>
      <trkpt lat="41.352730253711343" lon="1.513666603714228">
        <ele>494.39999389648437</ele>
        <time>2018-12-29T08:33:24Z</time>
      </trkpt>
      <trkpt lat="41.352813066914678" lon="1.513447836041451">
        <ele>493.60000610351562</ele>
        <time>2018-12-29T08:33:26Z</time>
      </trkpt>
      <trkpt lat="41.352844415232539" lon="1.513347085565329">
        <ele>493.20001220703125</ele>
        <time>2018-12-29T08:33:27Z</time>
      </trkpt>
      <trkpt lat="41.352870985865593" lon="1.513255890458822">
        <ele>493</ele>
        <time>2018-12-29T08:33:28Z</time>
      </trkpt>
      <trkpt lat="41.352907363325357" lon="1.513094203546643">
        <ele>492.60000610351562</ele>
        <time>2018-12-29T08:33:30Z</time>
      </trkpt>
      <trkpt lat="41.352917840704322" lon="1.513018598780036">
        <ele>492.39999389648437</ele>
        <time>2018-12-29T08:33:31Z</time>
      </trkpt>
      <trkpt lat="41.35293141938746" lon="1.512939305976033">
        <ele>492.39999389648437</ele>
        <time>2018-12-29T08:33:32Z</time>
      </trkpt>
      <trkpt lat="41.352952960878611" lon="1.512775523588061">
        <ele>491.79998779296875</ele>
        <time>2018-12-29T08:33:34Z</time>
      </trkpt>
      <trkpt lat="41.352957151830196" lon="1.512691788375378">
        <ele>491.39999389648437</ele>
        <time>2018-12-29T08:33:35Z</time>
      </trkpt>
      <trkpt lat="41.352958409115672" lon="1.512605287134647">
        <ele>491.20001220703125</ele>
        <time>2018-12-29T08:33:36Z</time>
      </trkpt>
      <trkpt lat="41.352956146001816" lon="1.512523563578725">
        <ele>491.20001220703125</ele>
        <time>2018-12-29T08:33:37Z</time>
      </trkpt>
      <trkpt lat="41.352950781583786" lon="1.51244661770761">
        <ele>491.20001220703125</ele>
        <time>2018-12-29T08:33:38Z</time>
      </trkpt>
      <trkpt lat="41.35293485596776" lon="1.512287948280573">
        <ele>490.79998779296875</ele>
        <time>2018-12-29T08:33:40Z</time>
      </trkpt>
      <trkpt lat="41.352911219000816" lon="1.512131122872233">
        <ele>490.60000610351562</ele>
        <time>2018-12-29T08:33:42Z</time>
      </trkpt>
      <trkpt lat="41.352896885946393" lon="1.512052165344358">
        <ele>490.60000610351562</ele>
        <time>2018-12-29T08:33:43Z</time>
      </trkpt>
      <trkpt lat="41.352885235100985" lon="1.511974548920989">
        <ele>490.60000610351562</ele>
        <time>2018-12-29T08:33:44Z</time>
      </trkpt>
      <trkpt lat="41.352877104654908" lon="1.511897016316652">
        <ele>490.39999389648437</ele>
        <time>2018-12-29T08:33:45Z</time>
      </trkpt>
      <trkpt lat="41.352867046371102" lon="1.511821243911982">
        <ele>490.20001220703125</ele>
        <time>2018-12-29T08:33:46Z</time>
      </trkpt>
      <trkpt lat="41.35284785181284" lon="1.511672548949719">
        <ele>490.20001220703125</ele>
        <time>2018-12-29T08:33:48Z</time>
      </trkpt>
      <trkpt lat="41.352829914540052" lon="1.511526787653565">
        <ele>490.20001220703125</ele>
        <time>2018-12-29T08:33:50Z</time>
      </trkpt>
      <trkpt lat="41.352820778265595" lon="1.51145470328629">
        <ele>490.20001220703125</ele>
        <time>2018-12-29T08:33:51Z</time>
      </trkpt>
      <trkpt lat="41.352809546515346" lon="1.511382283642888">
        <ele>490</ele>
        <time>2018-12-29T08:33:52Z</time>
      </trkpt>
      <trkpt lat="41.352793117985129" lon="1.51123384013772">
        <ele>489.79998779296875</ele>
        <time>2018-12-29T08:33:54Z</time>
      </trkpt>
      <trkpt lat="41.352773420512676" lon="1.511083636432886">
        <ele>489.60000610351562</ele>
        <time>2018-12-29T08:33:56Z</time>
      </trkpt>
      <trkpt lat="41.35275162756443" lon="1.510940389707685">
        <ele>489.39999389648437</ele>
        <time>2018-12-29T08:33:58Z</time>
      </trkpt>
      <trkpt lat="41.352741317823529" lon="1.510871322825551">
        <ele>489.20001220703125</ele>
        <time>2018-12-29T08:33:59Z</time>
      </trkpt>
      <trkpt lat="41.352732935920358" lon="1.510801836848259">
        <ele>489.20001220703125</ele>
        <time>2018-12-29T08:34:00Z</time>
      </trkpt>
      <trkpt lat="41.352713573724031" lon="1.510666804388166">
        <ele>489.39999389648437</ele>
        <time>2018-12-29T08:34:02Z</time>
      </trkpt>
      <trkpt lat="41.352698234841228" lon="1.510530849918723">
        <ele>489.20001220703125</ele>
        <time>2018-12-29T08:34:04Z</time>
      </trkpt>
      <trkpt lat="41.352678202092648" lon="1.510395649820566">
        <ele>489</ele>
        <time>2018-12-29T08:34:06Z</time>
      </trkpt>
      <trkpt lat="41.352659594267607" lon="1.510263634845614">
        <ele>489</ele>
        <time>2018-12-29T08:34:08Z</time>
      </trkpt>
      <trkpt lat="41.352652469649911" lon="1.510196747258306">
        <ele>489</ele>
        <time>2018-12-29T08:34:09Z</time>
      </trkpt>
      <trkpt lat="41.352642411366105" lon="1.510132374241948">
        <ele>489</ele>
        <time>2018-12-29T08:34:10Z</time>
      </trkpt>
      <trkpt lat="41.352621708065271" lon="1.510004801675677">
        <ele>488.79998779296875</ele>
        <time>2018-12-29T08:34:12Z</time>
      </trkpt>
      <trkpt lat="41.352603435516357" lon="1.50986666791141">
        <ele>488.60000610351562</ele>
        <time>2018-12-29T08:34:14Z</time>
      </trkpt>
      <trkpt lat="41.352586168795824" lon="1.509732557460666">
        <ele>488.39999389648437</ele>
        <time>2018-12-29T08:34:16Z</time>
      </trkpt>
      <trkpt lat="41.352571165189147" lon="1.509593669325113">
        <ele>488.20001220703125</ele>
        <time>2018-12-29T08:34:18Z</time>
      </trkpt>
      <trkpt lat="41.35254685766995" lon="1.509459223598242">
        <ele>488.20001220703125</ele>
        <time>2018-12-29T08:34:20Z</time>
      </trkpt>
      <trkpt lat="41.352530345320702" lon="1.509330309927464">
        <ele>487.79998779296875</ele>
        <time>2018-12-29T08:34:22Z</time>
      </trkpt>
      <trkpt lat="41.352509055286646" lon="1.509206090122461">
        <ele>487.79998779296875</ele>
        <time>2018-12-29T08:34:24Z</time>
      </trkpt>
      <trkpt lat="41.352494219318032" lon="1.509086061269045">
        <ele>487.60000610351562</ele>
        <time>2018-12-29T08:34:26Z</time>
      </trkpt>
      <trkpt lat="41.352478880435228" lon="1.508959159255028">
        <ele>487.39999389648437</ele>
        <time>2018-12-29T08:34:28Z</time>
      </trkpt>
      <trkpt lat="41.352470247074962" lon="1.508895289152861">
        <ele>487.20001220703125</ele>
        <time>2018-12-29T08:34:29Z</time>
      </trkpt>
      <trkpt lat="41.352464631199837" lon="1.508829826489091">
        <ele>487.20001220703125</ele>
        <time>2018-12-29T08:34:30Z</time>
      </trkpt>
      <trkpt lat="41.352473180741072" lon="1.508703511208296">
        <ele>486.60000610351562</ele>
        <time>2018-12-29T08:34:32Z</time>
      </trkpt>
      <trkpt lat="41.352515006437898" lon="1.508571915328503">
        <ele>486.39999389648437</ele>
        <time>2018-12-29T08:34:34Z</time>
      </trkpt>
      <trkpt lat="41.352551635354757" lon="1.508513242006302">
        <ele>486.20001220703125</ele>
        <time>2018-12-29T08:34:35Z</time>
      </trkpt>
      <trkpt lat="41.352593712508678" lon="1.508460436016321">
        <ele>486</ele>
        <time>2018-12-29T08:34:36Z</time>
      </trkpt>
      <trkpt lat="41.352693205699325" lon="1.508372845128179">
        <ele>485.39999389648437</ele>
        <time>2018-12-29T08:34:38Z</time>
      </trkpt>
      <trkpt lat="41.35274869389832" lon="1.508343005552888">
        <ele>485.20001220703125</ele>
        <time>2018-12-29T08:34:39Z</time>
      </trkpt>
      <trkpt lat="41.352804433554411" lon="1.508319117128849">
        <ele>485</ele>
        <time>2018-12-29T08:34:40Z</time>
      </trkpt>
      <trkpt lat="41.352861346676946" lon="1.508293133229017">
        <ele>484.79998779296875</ele>
        <time>2018-12-29T08:34:41Z</time>
      </trkpt>
      <trkpt lat="41.352910464629531" lon="1.508261617273092">
        <ele>485</ele>
        <time>2018-12-29T08:34:42Z</time>
      </trkpt>
      <trkpt lat="41.352955894544721" lon="1.508219875395298">
        <ele>485</ele>
        <time>2018-12-29T08:34:43Z</time>
      </trkpt>
      <trkpt lat="41.352986404672265" lon="1.508161118254066">
        <ele>485</ele>
        <time>2018-12-29T08:34:44Z</time>
      </trkpt>
      <trkpt lat="41.353009790182114" lon="1.508037317544222">
        <ele>484.79998779296875</ele>
        <time>2018-12-29T08:34:46Z</time>
      </trkpt>
      <trkpt lat="41.353002665564418" lon="1.507920473814011">
        <ele>485</ele>
        <time>2018-12-29T08:34:48Z</time>
      </trkpt>
      <trkpt lat="41.352997636422515" lon="1.507803210988641">
        <ele>485.60000610351562</ele>
        <time>2018-12-29T08:34:50Z</time>
      </trkpt>
      <trkpt lat="41.352991266176105" lon="1.507747303694487">
        <ele>485.79998779296875</ele>
        <time>2018-12-29T08:34:51Z</time>
      </trkpt>
      <trkpt lat="41.352985566481948" lon="1.507694330066443">
        <ele>486.20001220703125</ele>
        <time>2018-12-29T08:34:52Z</time>
      </trkpt>
      <trkpt lat="41.35298615321517" lon="1.507643954828382">
        <ele>486.20001220703125</ele>
        <time>2018-12-29T08:34:53Z</time>
      </trkpt>
      <trkpt lat="41.352987326681614" lon="1.507597519084811">
        <ele>486.39999389648437</ele>
        <time>2018-12-29T08:34:54Z</time>
      </trkpt>
      <trkpt lat="41.352982297539711" lon="1.507486710324884">
        <ele>487.20001220703125</ele>
        <time>2018-12-29T08:34:56Z</time>
      </trkpt>
      <trkpt lat="41.352981459349394" lon="1.507431054487824">
        <ele>487.20001220703125</ele>
        <time>2018-12-29T08:34:57Z</time>
      </trkpt>
      <trkpt lat="41.352980202063918" lon="1.507379841059446">
        <ele>487.39999389648437</ele>
        <time>2018-12-29T08:34:58Z</time>
      </trkpt>
      <trkpt lat="41.352978525683284" lon="1.507280096411705">
        <ele>487.79998779296875</ele>
        <time>2018-12-29T08:35:00Z</time>
      </trkpt>
      <trkpt lat="41.352971652522683" lon="1.507184291258454">
        <ele>488.20001220703125</ele>
        <time>2018-12-29T08:35:02Z</time>
      </trkpt>
      <trkpt lat="41.352968299761415" lon="1.507137687876821">
        <ele>488.39999389648437</ele>
        <time>2018-12-29T08:35:03Z</time>
      </trkpt>
      <trkpt lat="41.352968718856573" lon="1.507092257961631">
        <ele>488.60000610351562</ele>
        <time>2018-12-29T08:35:04Z</time>
      </trkpt>
      <trkpt lat="41.35296855121851" lon="1.507047414779663">
        <ele>488.79998779296875</ele>
        <time>2018-12-29T08:35:05Z</time>
      </trkpt>
      <trkpt lat="41.352964947000146" lon="1.506999051198363">
        <ele>488.79998779296875</ele>
        <time>2018-12-29T08:35:06Z</time>
      </trkpt>
      <trkpt lat="41.352961678057909" lon="1.506905006244779">
        <ele>489.20001220703125</ele>
        <time>2018-12-29T08:35:08Z</time>
      </trkpt>
      <trkpt lat="41.352956062182784" lon="1.506862007081509">
        <ele>489.39999389648437</ele>
        <time>2018-12-29T08:35:09Z</time>
      </trkpt>
      <trkpt lat="41.352950781583786" lon="1.506818672642112">
        <ele>489.79998779296875</ele>
        <time>2018-12-29T08:35:10Z</time>
      </trkpt>
      <trkpt lat="41.352936448529363" lon="1.506730746477842">
        <ele>490.20001220703125</ele>
        <time>2018-12-29T08:35:12Z</time>
      </trkpt>
      <trkpt lat="41.352923791855574" lon="1.50664608925581">
        <ele>490.39999389648437</ele>
        <time>2018-12-29T08:35:14Z</time>
      </trkpt>
      <trkpt lat="41.352918511256576" lon="1.506604515016079">
        <ele>490.60000610351562</ele>
        <time>2018-12-29T08:35:15Z</time>
      </trkpt>
      <trkpt lat="41.352912057191133" lon="1.506563108414412">
        <ele>490.60000610351562</ele>
        <time>2018-12-29T08:35:16Z</time>
      </trkpt>
      <trkpt lat="41.3528982270509" lon="1.506479540839791">
        <ele>491</ele>
        <time>2018-12-29T08:35:18Z</time>
      </trkpt>
      <trkpt lat="41.352883223444223" lon="1.506403014063835">
        <ele>491.60000610351562</ele>
        <time>2018-12-29T08:35:20Z</time>
      </trkpt>
      <trkpt lat="41.352875931188464" lon="1.50636320002377">
        <ele>491.79998779296875</ele>
        <time>2018-12-29T08:35:21Z</time>
      </trkpt>
      <trkpt lat="41.352866711094975" lon="1.50632313452661">
        <ele>492</ele>
        <time>2018-12-29T08:35:22Z</time>
      </trkpt>
      <trkpt lat="41.352860508486629" lon="1.506286589428783">
        <ele>492</ele>
        <time>2018-12-29T08:35:23Z</time>
      </trkpt>
      <trkpt lat="41.35285371914506" lon="1.506247697398067">
        <ele>492.20001220703125</ele>
        <time>2018-12-29T08:35:24Z</time>
      </trkpt>
      <trkpt lat="41.352841313928366" lon="1.506175026297569">
        <ele>492.39999389648437</ele>
        <time>2018-12-29T08:35:26Z</time>
      </trkpt>
      <trkpt lat="41.352827651426196" lon="1.506099170073867">
        <ele>492.79998779296875</ele>
        <time>2018-12-29T08:35:28Z</time>
      </trkpt>
      <trkpt lat="41.352810887619853" lon="1.506017614156008">
        <ele>493.20001220703125</ele>
        <time>2018-12-29T08:35:30Z</time>
      </trkpt>
      <trkpt lat="41.352797225117683" lon="1.505939997732639">
        <ele>493.60000610351562</ele>
        <time>2018-12-29T08:35:32Z</time>
      </trkpt>
      <trkpt lat="41.352793117985129" lon="1.505900770425797">
        <ele>493.79998779296875</ele>
        <time>2018-12-29T08:35:33Z</time>
      </trkpt>
      <trkpt lat="41.352783478796482" lon="1.505862800404429">
        <ele>494</ele>
        <time>2018-12-29T08:35:34Z</time>
      </trkpt>
      <trkpt lat="41.352769983932376" lon="1.505787447094917">
        <ele>494.39999389648437</ele>
        <time>2018-12-29T08:35:36Z</time>
      </trkpt>
      <trkpt lat="41.352757327258587" lon="1.505712596699596">
        <ele>494.79998779296875</ele>
        <time>2018-12-29T08:35:38Z</time>
      </trkpt>
      <trkpt lat="41.352749699726701" lon="1.505675381049514">
        <ele>495.20001220703125</ele>
        <time>2018-12-29T08:35:39Z</time>
      </trkpt>
      <trkpt lat="41.352743832394481" lon="1.505634896457195">
        <ele>495.39999389648438</ele>
        <time>2018-12-29T08:35:40Z</time>
      </trkpt>
      <trkpt lat="41.352728325873613" lon="1.505557699128985">
        <ele>495.79998779296875</ele>
        <time>2018-12-29T08:35:42Z</time>
      </trkpt>
      <trkpt lat="41.352712400257587" lon="1.505484106019139">
        <ele>496.39999389648437</ele>
        <time>2018-12-29T08:35:44Z</time>
      </trkpt>
      <trkpt lat="41.352694295346737" lon="1.505411937832832">
        <ele>497</ele>
        <time>2018-12-29T08:35:46Z</time>
      </trkpt>
      <trkpt lat="41.35267686098814" lon="1.505343038588762">
        <ele>497.20001220703125</ele>
        <time>2018-12-29T08:35:48Z</time>
      </trkpt>
      <trkpt lat="41.352665796875954" lon="1.505309510976076">
        <ele>497.60000610351562</ele>
        <time>2018-12-29T08:35:49Z</time>
      </trkpt>
      <trkpt lat="41.352650374174118" lon="1.505277911201119">
        <ele>497.79998779296875</ele>
        <time>2018-12-29T08:35:50Z</time>
      </trkpt>
      <trkpt lat="41.352620618417859" lon="1.505209598690271">
        <ele>498.20001220703125</ele>
        <time>2018-12-29T08:35:52Z</time>
      </trkpt>
      <trkpt lat="41.352581474930048" lon="1.505150254815817">
        <ele>498.60000610351562</ele>
        <time>2018-12-29T08:35:54Z</time>
      </trkpt>
      <trkpt lat="41.35254492983222" lon="1.505084875971079">
        <ele>498.79998779296875</ele>
        <time>2018-12-29T08:35:56Z</time>
      </trkpt>
      <trkpt lat="41.352505199611187" lon="1.505030980333686">
        <ele>499</ele>
        <time>2018-12-29T08:35:58Z</time>
      </trkpt>
      <trkpt lat="41.352465385571122" lon="1.504975911229849">
        <ele>499.20001220703125</ele>
        <time>2018-12-29T08:36:00Z</time>
      </trkpt>
      <trkpt lat="41.35242766700685" lon="1.504915058612824">
        <ele>499.60000610351562</ele>
        <time>2018-12-29T08:36:02Z</time>
      </trkpt>
      <trkpt lat="41.352407718077302" lon="1.504886392503977">
        <ele>499.60000610351562</ele>
        <time>2018-12-29T08:36:03Z</time>
      </trkpt>
      <trkpt lat="41.352387769147754" lon="1.504855044186115">
        <ele>499.79998779296875</ele>
        <time>2018-12-29T08:36:04Z</time>
      </trkpt>
      <trkpt lat="41.352350050583482" lon="1.504794107750058">
        <ele>500</ele>
        <time>2018-12-29T08:36:06Z</time>
      </trkpt>
      <trkpt lat="41.352311410009861" lon="1.504737613722682">
        <ele>500.60000610351562</ele>
        <time>2018-12-29T08:36:08Z</time>
      </trkpt>
      <trkpt lat="41.352291880175471" lon="1.504710288718343">
        <ele>500.79998779296875</ele>
        <time>2018-12-29T08:36:09Z</time>
      </trkpt>
      <trkpt lat="41.352273439988494" lon="1.504680700600147">
        <ele>501</ele>
        <time>2018-12-29T08:36:10Z</time>
      </trkpt>
      <trkpt lat="41.352235889062285" lon="1.504623116925359">
        <ele>501.39999389648438</ele>
        <time>2018-12-29T08:36:12Z</time>
      </trkpt>
      <trkpt lat="41.352216107770801" lon="1.504595037549734">
        <ele>501.39999389648438</ele>
        <time>2018-12-29T08:36:13Z</time>
      </trkpt>
      <trkpt lat="41.352196494117379" lon="1.504563940688968">
        <ele>501.79998779296875</ele>
        <time>2018-12-29T08:36:14Z</time>
      </trkpt>
      <trkpt lat="41.35217553935945" lon="1.504533430561423">
        <ele>502</ele>
        <time>2018-12-29T08:36:15Z</time>
      </trkpt>
      <trkpt lat="41.352154249325395" lon="1.504504093900323">
        <ele>502</ele>
        <time>2018-12-29T08:36:16Z</time>
      </trkpt>
      <trkpt lat="41.352116782218218" lon="1.504442067816854">
        <ele>502.39999389648437</ele>
        <time>2018-12-29T08:36:18Z</time>
      </trkpt>
      <trkpt lat="41.352079063653946" lon="1.504389513283968">
        <ele>502.79998779296875</ele>
        <time>2018-12-29T08:36:20Z</time>
      </trkpt>
      <trkpt lat="41.352062383666635" lon="1.504357159137726">
        <ele>503</ele>
        <time>2018-12-29T08:36:21Z</time>
      </trkpt>
      <trkpt lat="41.352042937651277" lon="1.504328157752752">
        <ele>503.20001220703125</ele>
        <time>2018-12-29T08:36:22Z</time>
      </trkpt>
      <trkpt lat="41.352007063105702" lon="1.504271915182471">
        <ele>503.60000610351562</ele>
        <time>2018-12-29T08:36:24Z</time>
      </trkpt>
      <trkpt lat="41.351969763636589" lon="1.504212403669953">
        <ele>504</ele>
        <time>2018-12-29T08:36:26Z</time>
      </trkpt>
      <trkpt lat="41.351929949596524" lon="1.504155490547419">
        <ele>504.39999389648437</ele>
        <time>2018-12-29T08:36:28Z</time>
      </trkpt>
      <trkpt lat="41.351893236860633" lon="1.504099331796169">
        <ele>504.60000610351562</ele>
        <time>2018-12-29T08:36:30Z</time>
      </trkpt>
      <trkpt lat="41.351858535781503" lon="1.504041245207191">
        <ele>505</ele>
        <time>2018-12-29T08:36:32Z</time>
      </trkpt>
      <trkpt lat="41.351819559931755" lon="1.503989193588495">
        <ele>505.60000610351562</ele>
        <time>2018-12-29T08:36:34Z</time>
      </trkpt>
      <trkpt lat="41.35178167372942" lon="1.503935465589166">
        <ele>505.79998779296875</ele>
        <time>2018-12-29T08:36:36Z</time>
      </trkpt>
      <trkpt lat="41.35174797847867" lon="1.503878133371472">
        <ele>506.20001220703125</ele>
        <time>2018-12-29T08:36:38Z</time>
      </trkpt>
      <trkpt lat="41.351715205237269" lon="1.503826752305031">
        <ele>506.60000610351562</ele>
        <time>2018-12-29T08:36:40Z</time>
      </trkpt>
      <trkpt lat="41.351679163053632" lon="1.503770342096686">
        <ele>507</ele>
        <time>2018-12-29T08:36:42Z</time>
      </trkpt>
      <trkpt lat="41.351643037050962" lon="1.503717284649611">
        <ele>507.20001220703125</ele>
        <time>2018-12-29T08:36:44Z</time>
      </trkpt>
      <trkpt lat="41.351606491953135" lon="1.50366397574544">
        <ele>507.60000610351562</ele>
        <time>2018-12-29T08:36:46Z</time>
      </trkpt>
      <trkpt lat="41.351565336808562" lon="1.503609409555793">
        <ele>507.79998779296875</ele>
        <time>2018-12-29T08:36:48Z</time>
      </trkpt>
      <trkpt lat="41.351529965177178" lon="1.503550568595529">
        <ele>508.20001220703125</ele>
        <time>2018-12-29T08:36:50Z</time>
      </trkpt>
      <trkpt lat="41.351511105895042" lon="1.503524417057633">
        <ele>508.39999389648437</ele>
        <time>2018-12-29T08:36:51Z</time>
      </trkpt>
      <trkpt lat="41.35149484500289" lon="1.503496421501041">
        <ele>508.39999389648437</ele>
        <time>2018-12-29T08:36:52Z</time>
      </trkpt>
      <trkpt lat="41.351457294076681" lon="1.503438334912062">
        <ele>508.79998779296875</ele>
        <time>2018-12-29T08:36:54Z</time>
      </trkpt>
      <trkpt lat="41.351418737322092" lon="1.503378236666322">
        <ele>509.39999389648437</ele>
        <time>2018-12-29T08:36:56Z</time>
      </trkpt>
      <trkpt lat="41.351395435631275" lon="1.503347139805555">
        <ele>509.39999389648437</ele>
        <time>2018-12-29T08:36:57Z</time>
      </trkpt>
      <trkpt lat="41.35137565433979" lon="1.503316964954138">
        <ele>509.39999389648437</ele>
        <time>2018-12-29T08:36:58Z</time>
      </trkpt>
      <trkpt lat="41.351334415376186" lon="1.50325208902359">
        <ele>509.79998779296875</ele>
        <time>2018-12-29T08:37:00Z</time>
      </trkpt>
      <trkpt lat="41.351295355707407" lon="1.503188721835613">
        <ele>510.20001220703125</ele>
        <time>2018-12-29T08:37:02Z</time>
      </trkpt>
      <trkpt lat="41.351257637143135" lon="1.503135245293379">
        <ele>510.39999389648437</ele>
        <time>2018-12-29T08:37:04Z</time>
      </trkpt>
      <trkpt lat="41.351222600787878" lon="1.503084199503064">
        <ele>510.79998779296875</ele>
        <time>2018-12-29T08:37:06Z</time>
      </trkpt>
      <trkpt lat="41.351187312975526" lon="1.503021502867341">
        <ele>511.20001220703125</ele>
        <time>2018-12-29T08:37:08Z</time>
      </trkpt>
      <trkpt lat="41.351149342954159" lon="1.502964003011584">
        <ele>511.39999389648438</ele>
        <time>2018-12-29T08:37:10Z</time>
      </trkpt>
      <trkpt lat="41.351106930524111" lon="1.502908263355494">
        <ele>511.60000610351562</ele>
        <time>2018-12-29T08:37:12Z</time>
      </trkpt>
      <trkpt lat="41.35108882561326" lon="1.502885548397899">
        <ele>511.79998779296875</ele>
        <time>2018-12-29T08:37:13Z</time>
      </trkpt>
      <trkpt lat="41.351068960502744" lon="1.502860989421606">
        <ele>512</ele>
        <time>2018-12-29T08:37:14Z</time>
      </trkpt>
      <trkpt lat="41.351026799529791" lon="1.502815978601575">
        <ele>512</ele>
        <time>2018-12-29T08:37:16Z</time>
      </trkpt>
      <trkpt lat="41.350978268310428" lon="1.502770129591227">
        <ele>512.20001220703125</ele>
        <time>2018-12-29T08:37:18Z</time>
      </trkpt>
      <trkpt lat="41.350924875587225" lon="1.502731069922447">
        <ele>512.4000244140625</ele>
        <time>2018-12-29T08:37:20Z</time>
      </trkpt>
      <trkpt lat="41.350894281640649" lon="1.50270919315517">
        <ele>512.5999755859375</ele>
        <time>2018-12-29T08:37:21Z</time>
      </trkpt>
      <trkpt lat="41.350861256942153" lon="1.502688992768526">
        <ele>512.5999755859375</ele>
        <time>2018-12-29T08:37:22Z</time>
      </trkpt>
      <trkpt lat="41.350824628025293" lon="1.502668289467692">
        <ele>512.79998779296875</ele>
        <time>2018-12-29T08:37:23Z</time>
      </trkpt>
      <trkpt lat="41.350788753479719" lon="1.50264766998589">
        <ele>512.79998779296875</ele>
        <time>2018-12-29T08:37:24Z</time>
      </trkpt>
      <trkpt lat="41.35071306489408" lon="1.50260022841394">
        <ele>512.79998779296875</ele>
        <time>2018-12-29T08:37:26Z</time>
      </trkpt>
      <trkpt lat="41.350638214498758" lon="1.50254599750042">
        <ele>512.79998779296875</ele>
        <time>2018-12-29T08:37:28Z</time>
      </trkpt>
      <trkpt lat="41.350570069625974" lon="1.502490090206265">
        <ele>513</ele>
        <time>2018-12-29T08:37:30Z</time>
      </trkpt>
      <trkpt lat="41.35050393640995" lon="1.502435021102428">
        <ele>513.4000244140625</ele>
        <time>2018-12-29T08:37:32Z</time>
      </trkpt>
      <trkpt lat="41.350443754345179" lon="1.502383053302765">
        <ele>513.79998779296875</ele>
        <time>2018-12-29T08:37:34Z</time>
      </trkpt>
      <trkpt lat="41.350382650271058" lon="1.502332258969545">
        <ele>514</ele>
        <time>2018-12-29T08:37:36Z</time>
      </trkpt>
      <trkpt lat="41.350353062152863" lon="1.502307616174221">
        <ele>514.20001220703125</ele>
        <time>2018-12-29T08:37:37Z</time>
      </trkpt>
      <trkpt lat="41.35032313875854" lon="1.502278866246343">
        <ele>514.4000244140625</ele>
        <time>2018-12-29T08:37:38Z</time>
      </trkpt>
      <trkpt lat="41.350265722721815" lon="1.502228323370218">
        <ele>514.79998779296875</ele>
        <time>2018-12-29T08:37:40Z</time>
      </trkpt>
      <trkpt lat="41.350210653617978" lon="1.502187671139836">
        <ele>515.4000244140625</ele>
        <time>2018-12-29T08:37:42Z</time>
      </trkpt>
      <trkpt lat="41.350185256451368" lon="1.502167638391256">
        <ele>515.5999755859375</ele>
        <time>2018-12-29T08:37:43Z</time>
      </trkpt>
      <trkpt lat="41.350158434361219" lon="1.502148946747184">
        <ele>516.20001220703125</ele>
        <time>2018-12-29T08:37:44Z</time>
      </trkpt>
      <trkpt lat="41.350101102143526" lon="1.502113491296768">
        <ele>516.5999755859375</ele>
        <time>2018-12-29T08:37:46Z</time>
      </trkpt>
      <trkpt lat="41.350043518468738" lon="1.502077700570226">
        <ele>516.79998779296875</ele>
        <time>2018-12-29T08:37:48Z</time>
      </trkpt>
      <trkpt lat="41.349987611174583" lon="1.502028498798609">
        <ele>517.20001220703125</ele>
        <time>2018-12-29T08:37:50Z</time>
      </trkpt>
      <trkpt lat="41.349931284785271" lon="1.501983320340514">
        <ele>517.5999755859375</ele>
        <time>2018-12-29T08:37:52Z</time>
      </trkpt>
      <trkpt lat="41.349904127418995" lon="1.501963958144188">
        <ele>518</ele>
        <time>2018-12-29T08:37:53Z</time>
      </trkpt>
      <trkpt lat="41.34988090954721" lon="1.501943003386259">
        <ele>518.20001220703125</ele>
        <time>2018-12-29T08:37:54Z</time>
      </trkpt>
      <trkpt lat="41.349853584542871" lon="1.501923305913806">
        <ele>518.4000244140625</ele>
        <time>2018-12-29T08:37:55Z</time>
      </trkpt>
      <trkpt lat="41.349826008081436" lon="1.501907212659717">
        <ele>518.5999755859375</ele>
        <time>2018-12-29T08:37:56Z</time>
      </trkpt>
      <trkpt lat="41.349769178777933" lon="1.501864800229669">
        <ele>519</ele>
        <time>2018-12-29T08:37:58Z</time>
      </trkpt>
      <trkpt lat="41.349717294797301" lon="1.501815598458052">
        <ele>519.4000244140625</ele>
        <time>2018-12-29T08:38:00Z</time>
      </trkpt>
      <trkpt lat="41.349662225693464" lon="1.501774778589606">
        <ele>519.79998779296875</ele>
        <time>2018-12-29T08:38:02Z</time>
      </trkpt>
      <trkpt lat="41.349607408046722" lon="1.501734461635351">
        <ele>520.20001220703125</ele>
        <time>2018-12-29T08:38:04Z</time>
      </trkpt>
      <trkpt lat="41.349580585956573" lon="1.50171241723001">
        <ele>520.4000244140625</ele>
        <time>2018-12-29T08:38:05Z</time>
      </trkpt>
      <trkpt lat="41.349550914019346" lon="1.501690121367574">
        <ele>520.5999755859375</ele>
        <time>2018-12-29T08:38:06Z</time>
      </trkpt>
      <trkpt lat="41.349523337557912" lon="1.501666065305471">
        <ele>520.79998779296875</ele>
        <time>2018-12-29T08:38:07Z</time>
      </trkpt>
      <trkpt lat="41.349495006725192" lon="1.501645529642701">
        <ele>521.20001220703125</ele>
        <time>2018-12-29T08:38:08Z</time>
      </trkpt>
      <trkpt lat="41.34942845441401" lon="1.501601524651051">
        <ele>521.4000244140625</ele>
        <time>2018-12-29T08:38:10Z</time>
      </trkpt>
      <trkpt lat="41.349370619282126" lon="1.501556932926178">
        <ele>522</ele>
        <time>2018-12-29T08:38:12Z</time>
      </trkpt>
      <trkpt lat="41.349317226558924" lon="1.501510748639703">
        <ele>522.4000244140625</ele>
        <time>2018-12-29T08:38:14Z</time>
      </trkpt>
      <trkpt lat="41.349289733916521" lon="1.501487446948886">
        <ele>522.5999755859375</ele>
        <time>2018-12-29T08:38:15Z</time>
      </trkpt>
      <trkpt lat="41.349264001473784" lon="1.501468839123845">
        <ele>522.79998779296875</ele>
        <time>2018-12-29T08:38:16Z</time>
      </trkpt>
      <trkpt lat="41.349208764731884" lon="1.501430282369256">
        <ele>523.4000244140625</ele>
        <time>2018-12-29T08:38:18Z</time>
      </trkpt>
      <trkpt lat="41.349146571010351" lon="1.501395246013999">
        <ele>523.5999755859375</ele>
        <time>2018-12-29T08:38:20Z</time>
      </trkpt>
      <trkpt lat="41.349086137488484" lon="1.50135425850749">
        <ele>524</ele>
        <time>2018-12-29T08:38:22Z</time>
      </trkpt>
      <trkpt lat="41.349026039242744" lon="1.501311929896474">
        <ele>524.20001220703125</ele>
        <time>2018-12-29T08:38:24Z</time>
      </trkpt>
      <trkpt lat="41.348967449739575" lon="1.501264655962586">
        <ele>524.5999755859375</ele>
        <time>2018-12-29T08:38:26Z</time>
      </trkpt>
      <trkpt lat="41.348939621821046" lon="1.501242108643055">
        <ele>524.79998779296875</ele>
        <time>2018-12-29T08:38:27Z</time>
      </trkpt>
      <trkpt lat="41.348913721740246" lon="1.501218723133206">
        <ele>525</ele>
        <time>2018-12-29T08:38:28Z</time>
      </trkpt>
      <trkpt lat="41.348853874951601" lon="1.501177400350571">
        <ele>525.4000244140625</ele>
        <time>2018-12-29T08:38:30Z</time>
      </trkpt>
      <trkpt lat="41.348797548562288" lon="1.501131970435381">
        <ele>525.79998779296875</ele>
        <time>2018-12-29T08:38:32Z</time>
      </trkpt>
      <trkpt lat="41.348767373710871" lon="1.50110992603004">
        <ele>526</ele>
        <time>2018-12-29T08:38:33Z</time>
      </trkpt>
      <trkpt lat="41.348737198859453" lon="1.501089474186301">
        <ele>526.20001220703125</ele>
        <time>2018-12-29T08:38:34Z</time>
      </trkpt>
      <trkpt lat="41.348678860813379" lon="1.501048235222697">
        <ele>526.5999755859375</ele>
        <time>2018-12-29T08:38:36Z</time>
      </trkpt>
      <trkpt lat="41.348624126985669" lon="1.501004816964269">
        <ele>527</ele>
        <time>2018-12-29T08:38:38Z</time>
      </trkpt>
      <trkpt lat="41.348565788939595" lon="1.500962153077126">
        <ele>527.20001220703125</ele>
        <time>2018-12-29T08:38:40Z</time>
      </trkpt>
      <trkpt lat="41.348509965464473" lon="1.500918064266443">
        <ele>527.5999755859375</ele>
        <time>2018-12-29T08:38:42Z</time>
      </trkpt>
      <trkpt lat="41.348458249121904" lon="1.500873304903507">
        <ele>528</ele>
        <time>2018-12-29T08:38:44Z</time>
      </trkpt>
      <trkpt lat="41.348431594669819" lon="1.500850087031722">
        <ele>528</ele>
        <time>2018-12-29T08:38:45Z</time>
      </trkpt>
      <trkpt lat="41.348409969359636" lon="1.500825276598334">
        <ele>528</ele>
        <time>2018-12-29T08:38:46Z</time>
      </trkpt>
      <trkpt lat="41.348355654627085" lon="1.500765681266785">
        <ele>528</ele>
        <time>2018-12-29T08:38:48Z</time>
      </trkpt>
      <trkpt lat="41.348302680999041" lon="1.500693177804351">
        <ele>528</ele>
        <time>2018-12-29T08:38:50Z</time>
      </trkpt>
      <trkpt lat="41.348237637430429" lon="1.500607598572969">
        <ele>527.79998779296875</ele>
        <time>2018-12-29T08:38:52Z</time>
      </trkpt>
      <trkpt lat="41.348171001300216" lon="1.500506177544594">
        <ele>527.4000244140625</ele>
        <time>2018-12-29T08:38:54Z</time>
      </trkpt>
      <trkpt lat="41.348142754286528" lon="1.500443480908871">
        <ele>527.20001220703125</ele>
        <time>2018-12-29T08:38:55Z</time>
      </trkpt>
      <trkpt lat="41.348120458424091" lon="1.50037307292223">
        <ele>526.5999755859375</ele>
        <time>2018-12-29T08:38:56Z</time>
      </trkpt>
      <trkpt lat="41.348080225288868" lon="1.500228568911552">
        <ele>526.4000244140625</ele>
        <time>2018-12-29T08:38:58Z</time>
      </trkpt>
      <trkpt lat="41.348044853657484" lon="1.50007551535964">
        <ele>526</ele>
        <time>2018-12-29T08:39:00Z</time>
      </trkpt>
      <trkpt lat="41.348005458712578" lon="1.499912990257144">
        <ele>525.4000244140625</ele>
        <time>2018-12-29T08:39:02Z</time>
      </trkpt>
      <trkpt lat="41.347959442064166" lon="1.499746609479189">
        <ele>524.79998779296875</ele>
        <time>2018-12-29T08:39:04Z</time>
      </trkpt>
      <trkpt lat="41.347916526719928" lon="1.49958006106317">
        <ele>524.5999755859375</ele>
        <time>2018-12-29T08:39:06Z</time>
      </trkpt>
      <trkpt lat="41.347878472879529" lon="1.499420888721943">
        <ele>524.5999755859375</ele>
        <time>2018-12-29T08:39:08Z</time>
      </trkpt>
      <trkpt lat="41.347862631082535" lon="1.499275043606758">
        <ele>524.79998779296875</ele>
        <time>2018-12-29T08:39:10Z</time>
      </trkpt>
      <trkpt lat="41.347861373797059" lon="1.499132048338652">
        <ele>524.79998779296875</ele>
        <time>2018-12-29T08:39:12Z</time>
      </trkpt>
      <trkpt lat="41.347862798720598" lon="1.498993411660194">
        <ele>525.20001220703125</ele>
        <time>2018-12-29T08:39:14Z</time>
      </trkpt>
      <trkpt lat="41.347873443737626" lon="1.49885393679142">
        <ele>525.5999755859375</ele>
        <time>2018-12-29T08:39:16Z</time>
      </trkpt>
      <trkpt lat="41.347885429859161" lon="1.498716892674565">
        <ele>525.79998779296875</ele>
        <time>2018-12-29T08:39:18Z</time>
      </trkpt>
      <trkpt lat="41.34789171628654" lon="1.498651430010796">
        <ele>525.79998779296875</ele>
        <time>2018-12-29T08:39:19Z</time>
      </trkpt>
      <trkpt lat="41.347900601103902" lon="1.498590242117643">
        <ele>526</ele>
        <time>2018-12-29T08:39:20Z</time>
      </trkpt>
      <trkpt lat="41.347922561690211" lon="1.498469291254878">
        <ele>526.20001220703125</ele>
        <time>2018-12-29T08:39:22Z</time>
      </trkpt>
      <trkpt lat="41.347938990220428" lon="1.498412545770407">
        <ele>526.4000244140625</ele>
        <time>2018-12-29T08:39:23Z</time>
      </trkpt>
      <trkpt lat="41.347954412922263" lon="1.498362757265568">
        <ele>526.5999755859375</ele>
        <time>2018-12-29T08:39:24Z</time>
      </trkpt>
      <trkpt lat="41.347972098737955" lon="1.498319506645203">
        <ele>526.79998779296875</ele>
        <time>2018-12-29T08:39:25Z</time>
      </trkpt>
      <trkpt lat="41.347987940534949" lon="1.498275250196457">
        <ele>527</ele>
        <time>2018-12-29T08:39:26Z</time>
      </trkpt>
      <trkpt lat="41.34802314452827" lon="1.498180702328682">
        <ele>527.20001220703125</ele>
        <time>2018-12-29T08:39:28Z</time>
      </trkpt>
      <trkpt lat="41.348062288016081" lon="1.498082298785448">
        <ele>527.4000244140625</ele>
        <time>2018-12-29T08:39:30Z</time>
      </trkpt>
      <trkpt lat="41.348109645769" lon="1.497974507510662">
        <ele>527.4000244140625</ele>
        <time>2018-12-29T08:39:32Z</time>
      </trkpt>
      <trkpt lat="41.348150381818414" lon="1.497863614931703">
        <ele>527.4000244140625</ele>
        <time>2018-12-29T08:39:34Z</time>
      </trkpt>
      <trkpt lat="41.348188435658813" lon="1.4977618586272">
        <ele>527.5999755859375</ele>
        <time>2018-12-29T08:39:36Z</time>
      </trkpt>
      <trkpt lat="41.348204696550965" lon="1.497709304094315">
        <ele>527.5999755859375</ele>
        <time>2018-12-29T08:39:37Z</time>
      </trkpt>
      <trkpt lat="41.348221292719245" lon="1.497657671570778">
        <ele>527.79998779296875</ele>
        <time>2018-12-29T08:39:38Z</time>
      </trkpt>
      <trkpt lat="41.348254987969995" lon="1.497556921094656">
        <ele>527.79998779296875</ele>
        <time>2018-12-29T08:39:40Z</time>
      </trkpt>
      <trkpt lat="41.348293796181679" lon="1.497460613027215">
        <ele>528.20001220703125</ele>
        <time>2018-12-29T08:39:42Z</time>
      </trkpt>
      <trkpt lat="41.348327156156301" lon="1.497360281646252">
        <ele>528.5999755859375</ele>
        <time>2018-12-29T08:39:44Z</time>
      </trkpt>
      <trkpt lat="41.348350122570992" lon="1.497254502028227">
        <ele>528.5999755859375</ele>
        <time>2018-12-29T08:39:46Z</time>
      </trkpt>
      <trkpt lat="41.348376190289855" lon="1.497150985524058">
        <ele>528.5999755859375</ele>
        <time>2018-12-29T08:39:48Z</time>
      </trkpt>
      <trkpt lat="41.34839354082942" lon="1.497043361887336">
        <ele>528.79998779296875</ele>
        <time>2018-12-29T08:39:50Z</time>
      </trkpt>
      <trkpt lat="41.348403850570321" lon="1.496940096840262">
        <ele>529</ele>
        <time>2018-12-29T08:39:52Z</time>
      </trkpt>
      <trkpt lat="41.348397312685847" lon="1.496833646669984">
        <ele>529.20001220703125</ele>
        <time>2018-12-29T08:39:54Z</time>
      </trkpt>
      <trkpt lat="41.34838230907917" lon="1.496728453785181">
        <ele>529.5999755859375</ele>
        <time>2018-12-29T08:39:56Z</time>
      </trkpt>
      <trkpt lat="41.34837300516665" lon="1.496679503470659">
        <ele>529.79998779296875</ele>
        <time>2018-12-29T08:39:57Z</time>
      </trkpt>
      <trkpt lat="41.348365126177669" lon="1.496631726622582">
        <ele>530</ele>
        <time>2018-12-29T08:39:58Z</time>
      </trkpt>
      <trkpt lat="41.348347943276167" lon="1.496537681668997">
        <ele>530.4000244140625</ele>
        <time>2018-12-29T08:40:00Z</time>
      </trkpt>
      <trkpt lat="41.348335538059473" lon="1.496492084115744">
        <ele>530.5999755859375</ele>
        <time>2018-12-29T08:40:01Z</time>
      </trkpt>
      <trkpt lat="41.348325647413731" lon="1.49644548073411">
        <ele>530.79998779296875</ele>
        <time>2018-12-29T08:40:02Z</time>
      </trkpt>
      <trkpt lat="41.348316511139274" lon="1.496401224285364">
        <ele>531</ele>
        <time>2018-12-29T08:40:03Z</time>
      </trkpt>
      <trkpt lat="41.348305698484182" lon="1.496355626732111">
        <ele>531</ele>
        <time>2018-12-29T08:40:04Z</time>
      </trkpt>
      <trkpt lat="41.348288180306554" lon="1.496262419968844">
        <ele>531.4000244140625</ele>
        <time>2018-12-29T08:40:06Z</time>
      </trkpt>
      <trkpt lat="41.348258759826422" lon="1.49617575109005">
        <ele>532.20001220703125</ele>
        <time>2018-12-29T08:40:08Z</time>
      </trkpt>
      <trkpt lat="41.348242834210396" lon="1.496132416650653">
        <ele>532.20001220703125</ele>
        <time>2018-12-29T08:40:09Z</time>
      </trkpt>
      <trkpt lat="41.348229926079512" lon="1.4960868190974">
        <ele>532.4000244140625</ele>
        <time>2018-12-29T08:40:10Z</time>
      </trkpt>
      <trkpt lat="41.348206708207726" lon="1.495998222380877">
        <ele>533</ele>
        <time>2018-12-29T08:40:12Z</time>
      </trkpt>
      <trkpt lat="41.348189106211066" lon="1.4959158282727">
        <ele>533.4000244140625</ele>
        <time>2018-12-29T08:40:14Z</time>
      </trkpt>
      <trkpt lat="41.348176784813404" lon="1.495829578489065">
        <ele>534</ele>
        <time>2018-12-29T08:40:16Z</time>
      </trkpt>
      <trkpt lat="41.348154069855809" lon="1.495746513828635">
        <ele>534.4000244140625</ele>
        <time>2018-12-29T08:40:18Z</time>
      </trkpt>
      <trkpt lat="41.348130768164992" lon="1.495656911283732">
        <ele>535</ele>
        <time>2018-12-29T08:40:20Z</time>
      </trkpt>
      <trkpt lat="41.348108723759651" lon="1.495566470548511">
        <ele>535.4000244140625</ele>
        <time>2018-12-29T08:40:22Z</time>
      </trkpt>
      <trkpt lat="41.348091876134276" lon="1.495478460565209">
        <ele>536</ele>
        <time>2018-12-29T08:40:24Z</time>
      </trkpt>
      <trkpt lat="41.348084164783359" lon="1.495434371754527">
        <ele>536</ele>
        <time>2018-12-29T08:40:25Z</time>
      </trkpt>
      <trkpt lat="41.348073268309236" lon="1.49539003148675">
        <ele>536.4000244140625</ele>
        <time>2018-12-29T08:40:26Z</time>
      </trkpt>
      <trkpt lat="41.348063545301557" lon="1.495345020666719">
        <ele>536.4000244140625</ele>
        <time>2018-12-29T08:40:27Z</time>
      </trkpt>
      <trkpt lat="41.348051559180021" lon="1.495298333466053">
        <ele>536.79998779296875</ele>
        <time>2018-12-29T08:40:28Z</time>
      </trkpt>
      <trkpt lat="41.348023060709238" lon="1.495208730921149">
        <ele>537.4000244140625</ele>
        <time>2018-12-29T08:40:30Z</time>
      </trkpt>
      <trkpt lat="41.348009901121259" lon="1.495164977386594">
        <ele>537.5999755859375</ele>
        <time>2018-12-29T08:40:31Z</time>
      </trkpt>
      <trkpt lat="41.347998585551977" lon="1.495121642947197">
        <ele>538</ele>
        <time>2018-12-29T08:40:32Z</time>
      </trkpt>
      <trkpt lat="41.347971092909575" lon="1.495040841400623">
        <ele>538.5999755859375</ele>
        <time>2018-12-29T08:40:34Z</time>
      </trkpt>
      <trkpt lat="41.347954161465168" lon="1.495002536103129">
        <ele>538.79998779296875</ele>
        <time>2018-12-29T08:40:35Z</time>
      </trkpt>
      <trkpt lat="41.347939325496554" lon="1.494967835023999">
        <ele>539</ele>
        <time>2018-12-29T08:40:36Z</time>
      </trkpt>
      <trkpt lat="41.347904875874519" lon="1.494900109246373">
        <ele>539.5999755859375</ele>
        <time>2018-12-29T08:40:38Z</time>
      </trkpt>
      <trkpt lat="41.347884256392717" lon="1.494859540835023">
        <ele>539.79998779296875</ele>
        <time>2018-12-29T08:40:39Z</time>
      </trkpt>
      <trkpt lat="41.3478575181216" lon="1.494817547500134">
        <ele>540</ele>
        <time>2018-12-29T08:40:40Z</time>
      </trkpt>
      <trkpt lat="41.347807729616761" lon="1.494751581922174">
        <ele>540.20001220703125</ele>
        <time>2018-12-29T08:40:42Z</time>
      </trkpt>
      <trkpt lat="41.347757941111922" lon="1.494694417342544">
        <ele>540.79998779296875</ele>
        <time>2018-12-29T08:40:44Z</time>
      </trkpt>
      <trkpt lat="41.347715361043811" lon="1.494620740413666">
        <ele>541.20001220703125</ele>
        <time>2018-12-29T08:40:46Z</time>
      </trkpt>
      <trkpt lat="41.347683258354664" lon="1.494545387104154">
        <ele>541.79998779296875</ele>
        <time>2018-12-29T08:40:48Z</time>
      </trkpt>
      <trkpt lat="41.347669763490558" lon="1.494499370455742">
        <ele>542</ele>
        <time>2018-12-29T08:40:49Z</time>
      </trkpt>
      <trkpt lat="41.347655262798071" lon="1.494450503960252">
        <ele>542.20001220703125</ele>
        <time>2018-12-29T08:40:50Z</time>
      </trkpt>
      <trkpt lat="41.347624752670527" lon="1.494353022426367">
        <ele>542.5999755859375</ele>
        <time>2018-12-29T08:40:52Z</time>
      </trkpt>
      <trkpt lat="41.347598936408758" lon="1.49426375515759">
        <ele>543</ele>
        <time>2018-12-29T08:40:54Z</time>
      </trkpt>
      <trkpt lat="41.347588794305921" lon="1.494220672175288">
        <ele>543.20001220703125</ele>
        <time>2018-12-29T08:40:55Z</time>
      </trkpt>
      <trkpt lat="41.347579574212432" lon="1.494175745174289">
        <ele>543.4000244140625</ele>
        <time>2018-12-29T08:40:56Z</time>
      </trkpt>
      <trkpt lat="41.347569683566689" lon="1.494081364944577">
        <ele>543.79998779296875</ele>
        <time>2018-12-29T08:40:58Z</time>
      </trkpt>
      <trkpt lat="41.347554512321949" lon="1.493982709944248">
        <ele>543.5999755859375</ele>
        <time>2018-12-29T08:41:00Z</time>
      </trkpt>
      <trkpt lat="41.347534563392401" lon="1.493874248117209">
        <ele>543.4000244140625</ele>
        <time>2018-12-29T08:41:02Z</time>
      </trkpt>
      <trkpt lat="41.347511010244489" lon="1.493757739663124">
        <ele>543</ele>
        <time>2018-12-29T08:41:04Z</time>
      </trkpt>
      <trkpt lat="41.347483601421118" lon="1.493627401068807">
        <ele>542.5999755859375</ele>
        <time>2018-12-29T08:41:06Z</time>
      </trkpt>
      <trkpt lat="41.347461137920618" lon="1.493486166000366">
        <ele>542</ele>
        <time>2018-12-29T08:41:08Z</time>
      </trkpt>
      <trkpt lat="41.347435489296913" lon="1.493335207924247">
        <ele>541.5999755859375</ele>
        <time>2018-12-29T08:41:10Z</time>
      </trkpt>
      <trkpt lat="41.347411014139652" lon="1.493168575689197">
        <ele>541</ele>
        <time>2018-12-29T08:41:12Z</time>
      </trkpt>
      <trkpt lat="41.347379833459854" lon="1.493001440539956">
        <ele>540.4000244140625</ele>
        <time>2018-12-29T08:41:14Z</time>
      </trkpt>
      <trkpt lat="41.347347730770707" lon="1.492828521877527">
        <ele>540.20001220703125</ele>
        <time>2018-12-29T08:41:16Z</time>
      </trkpt>
      <trkpt lat="41.347318645566702" lon="1.492649484425783">
        <ele>539.79998779296875</ele>
        <time>2018-12-29T08:41:18Z</time>
      </trkpt>
      <trkpt lat="41.347286207601428" lon="1.492467680945993">
        <ele>539.20001220703125</ele>
        <time>2018-12-29T08:41:20Z</time>
      </trkpt>
      <trkpt lat="41.347255362197757" lon="1.49227992631495">
        <ele>538.79998779296875</ele>
        <time>2018-12-29T08:41:22Z</time>
      </trkpt>
      <trkpt lat="41.347237592563033" lon="1.492085633799434">
        <ele>538.4000244140625</ele>
        <time>2018-12-29T08:41:24Z</time>
      </trkpt>
      <trkpt lat="41.347238682210445" lon="1.491991840302944">
        <ele>538</ele>
        <time>2018-12-29T08:41:25Z</time>
      </trkpt>
      <trkpt lat="41.347240693867207" lon="1.491893185302615">
        <ele>538</ele>
        <time>2018-12-29T08:41:26Z</time>
      </trkpt>
      <trkpt lat="41.347245806828141" lon="1.491697551682591">
        <ele>537.79998779296875</ele>
        <time>2018-12-29T08:41:28Z</time>
      </trkpt>
      <trkpt lat="41.347245052456856" lon="1.491599651053548">
        <ele>537.4000244140625</ele>
        <time>2018-12-29T08:41:29Z</time>
      </trkpt>
      <trkpt lat="41.347242034971714" lon="1.491503594443202">
        <ele>537</ele>
        <time>2018-12-29T08:41:30Z</time>
      </trkpt>
      <trkpt lat="41.347225941717625" lon="1.491319611668587">
        <ele>537</ele>
        <time>2018-12-29T08:41:32Z</time>
      </trkpt>
      <trkpt lat="41.347195180132985" lon="1.49114484898746">
        <ele>537.20001220703125</ele>
        <time>2018-12-29T08:41:34Z</time>
      </trkpt>
      <trkpt lat="41.347154192626476" lon="1.490984251722693">
        <ele>537.20001220703125</ele>
        <time>2018-12-29T08:41:36Z</time>
      </trkpt>
      <trkpt lat="41.347119743004441" lon="1.490822313353419">
        <ele>537.4000244140625</ele>
        <time>2018-12-29T08:41:38Z</time>
      </trkpt>
      <trkpt lat="41.34710406884551" lon="1.490741679444909">
        <ele>537.4000244140625</ele>
        <time>2018-12-29T08:41:39Z</time>
      </trkpt>
      <trkpt lat="41.347088310867548" lon="1.490659955888987">
        <ele>537.4000244140625</ele>
        <time>2018-12-29T08:41:40Z</time>
      </trkpt>
      <trkpt lat="41.347056124359369" lon="1.490505309775472">
        <ele>537.4000244140625</ele>
        <time>2018-12-29T08:41:42Z</time>
      </trkpt>
      <trkpt lat="41.34702242910862" lon="1.490358710289002">
        <ele>537.79998779296875</ele>
        <time>2018-12-29T08:41:44Z</time>
      </trkpt>
      <trkpt lat="41.346992338076234" lon="1.490220241248608">
        <ele>537.79998779296875</ele>
        <time>2018-12-29T08:41:46Z</time>
      </trkpt>
      <trkpt lat="41.346978424116969" lon="1.490148073062301">
        <ele>538</ele>
        <time>2018-12-29T08:41:47Z</time>
      </trkpt>
      <trkpt lat="41.346965851262212" lon="1.490083280950785">
        <ele>538.20001220703125</ele>
        <time>2018-12-29T08:41:48Z</time>
      </trkpt>
      <trkpt lat="41.346940621733665" lon="1.489960821345449">
        <ele>538.4000244140625</ele>
        <time>2018-12-29T08:41:50Z</time>
      </trkpt>
      <trkpt lat="41.346912290900946" lon="1.489839619025588">
        <ele>538.79998779296875</ele>
        <time>2018-12-29T08:41:52Z</time>
      </trkpt>
      <trkpt lat="41.346900975331664" lon="1.489782202988863">
        <ele>539</ele>
        <time>2018-12-29T08:41:53Z</time>
      </trkpt>
      <trkpt lat="41.346890917047858" lon="1.489720847457647">
        <ele>539</ele>
        <time>2018-12-29T08:41:54Z</time>
      </trkpt>
      <trkpt lat="41.34686510078609" lon="1.489596292376518">
        <ele>539.4000244140625</ele>
        <time>2018-12-29T08:41:56Z</time>
      </trkpt>
      <trkpt lat="41.346837189048529" lon="1.489473497495055">
        <ele>539.79998779296875</ele>
        <time>2018-12-29T08:41:58Z</time>
      </trkpt>
      <trkpt lat="41.346824616193771" lon="1.489413063973188">
        <ele>539.79998779296875</ele>
        <time>2018-12-29T08:41:59Z</time>
      </trkpt>
      <trkpt lat="41.346812546253204" lon="1.489349864423275">
        <ele>540</ele>
        <time>2018-12-29T08:42:00Z</time>
      </trkpt>
      <trkpt lat="41.34679963812232" lon="1.489294208586216">
        <ele>540.20001220703125</ele>
        <time>2018-12-29T08:42:01Z</time>
      </trkpt>
      <trkpt lat="41.346786143258214" lon="1.489236289635301">
        <ele>540.20001220703125</ele>
        <time>2018-12-29T08:42:02Z</time>
      </trkpt>
      <trkpt lat="41.346760243177414" lon="1.489123050123453">
        <ele>540.5999755859375</ele>
        <time>2018-12-29T08:42:04Z</time>
      </trkpt>
      <trkpt lat="41.346735432744026" lon="1.489006541669369">
        <ele>541</ele>
        <time>2018-12-29T08:42:06Z</time>
      </trkpt>
      <trkpt lat="41.34670827537775" lon="1.488896235823631">
        <ele>541.20001220703125</ele>
        <time>2018-12-29T08:42:08Z</time>
      </trkpt>
      <trkpt lat="41.346676759421825" lon="1.488794647157192">
        <ele>541.4000244140625</ele>
        <time>2018-12-29T08:42:10Z</time>
      </trkpt>
      <trkpt lat="41.346658654510975" lon="1.488744439557195">
        <ele>541.5999755859375</ele>
        <time>2018-12-29T08:42:11Z</time>
      </trkpt>
      <trkpt lat="41.346635855734348" lon="1.488694148138166">
        <ele>541.5999755859375</ele>
        <time>2018-12-29T08:42:12Z</time>
      </trkpt>
      <trkpt lat="41.346589084714651" lon="1.488590212538838">
        <ele>541.5999755859375</ele>
        <time>2018-12-29T08:42:14Z</time>
      </trkpt>
      <trkpt lat="41.346531165763736" lon="1.488485019654036">
        <ele>541.4000244140625</ele>
        <time>2018-12-29T08:42:16Z</time>
      </trkpt>
      <trkpt lat="41.346470145508647" lon="1.488378150388598">
        <ele>541.20001220703125</ele>
        <time>2018-12-29T08:42:18Z</time>
      </trkpt>
      <trkpt lat="41.346411053091288" lon="1.488276226446033">
        <ele>541.20001220703125</ele>
        <time>2018-12-29T08:42:20Z</time>
      </trkpt>
      <trkpt lat="41.346366042271256" lon="1.488169776275754">
        <ele>541.20001220703125</ele>
        <time>2018-12-29T08:42:22Z</time>
      </trkpt>
      <trkpt lat="41.346334610134363" lon="1.488046729937196">
        <ele>541.4000244140625</ele>
        <time>2018-12-29T08:42:24Z</time>
      </trkpt>
      <trkpt lat="41.346325306221843" lon="1.487982524558902">
        <ele>541.4000244140625</ele>
        <time>2018-12-29T08:42:25Z</time>
      </trkpt>
      <trkpt lat="41.346317427232862" lon="1.487918319180608">
        <ele>541.4000244140625</ele>
        <time>2018-12-29T08:42:26Z</time>
      </trkpt>
      <trkpt lat="41.34630024433136" lon="1.487792590633035">
        <ele>541.20001220703125</ele>
        <time>2018-12-29T08:42:28Z</time>
      </trkpt>
      <trkpt lat="41.3462826423347" lon="1.487661832943559">
        <ele>541.20001220703125</ele>
        <time>2018-12-29T08:42:30Z</time>
      </trkpt>
      <trkpt lat="41.346271159127355" lon="1.487531745806336">
        <ele>541.4000244140625</ele>
        <time>2018-12-29T08:42:32Z</time>
      </trkpt>
      <trkpt lat="41.34625531733036" lon="1.487397216260433">
        <ele>541.20001220703125</ele>
        <time>2018-12-29T08:42:34Z</time>
      </trkpt>
      <trkpt lat="41.346224891021848" lon="1.487260926514864">
        <ele>541.20001220703125</ele>
        <time>2018-12-29T08:42:36Z</time>
      </trkpt>
      <trkpt lat="41.346198823302984" lon="1.487198648974299">
        <ele>541.20001220703125</ele>
        <time>2018-12-29T08:42:37Z</time>
      </trkpt>
      <trkpt lat="41.346165044233203" lon="1.48714005947113">
        <ele>541.20001220703125</ele>
        <time>2018-12-29T08:42:38Z</time>
      </trkpt>
      <trkpt lat="41.346086002886295" lon="1.487044673413038">
        <ele>541.4000244140625</ele>
        <time>2018-12-29T08:42:40Z</time>
      </trkpt>
      <trkpt lat="41.346046356484294" lon="1.487000919878483">
        <ele>541.4000244140625</ele>
        <time>2018-12-29T08:42:41Z</time>
      </trkpt>
      <trkpt lat="41.346009979024529" lon="1.486962363123894">
        <ele>541.5999755859375</ele>
        <time>2018-12-29T08:42:42Z</time>
      </trkpt>
      <trkpt lat="41.345974607393146" lon="1.486921375617385">
        <ele>541.79998779296875</ele>
        <time>2018-12-29T08:42:43Z</time>
      </trkpt>
      <trkpt lat="41.345938732847571" lon="1.486882735043764">
        <ele>542</ele>
        <time>2018-12-29T08:42:44Z</time>
      </trkpt>
      <trkpt lat="41.345867989584804" lon="1.48681266233325">
        <ele>542.20001220703125</ele>
        <time>2018-12-29T08:42:46Z</time>
      </trkpt>
      <trkpt lat="41.345801269635558" lon="1.486744182184339">
        <ele>542.5999755859375</ele>
        <time>2018-12-29T08:42:48Z</time>
      </trkpt>
      <trkpt lat="41.345734633505344" lon="1.486671259626746">
        <ele>543</ele>
        <time>2018-12-29T08:42:50Z</time>
      </trkpt>
      <trkpt lat="41.345667745918036" lon="1.486600013449788">
        <ele>543.5999755859375</ele>
        <time>2018-12-29T08:42:52Z</time>
      </trkpt>
      <trkpt lat="41.345597924664617" lon="1.486528431996703">
        <ele>544</ele>
        <time>2018-12-29T08:42:54Z</time>
      </trkpt>
      <trkpt lat="41.345562636852264" lon="1.486493311822414">
        <ele>544.20001220703125</ele>
        <time>2018-12-29T08:42:55Z</time>
      </trkpt>
      <trkpt lat="41.345529444515705" lon="1.486452994868159">
        <ele>544.4000244140625</ele>
        <time>2018-12-29T08:42:56Z</time>
      </trkpt>
      <trkpt lat="41.345464400947094" lon="1.486378144472837">
        <ele>544.79998779296875</ele>
        <time>2018-12-29T08:42:58Z</time>
      </trkpt>
      <trkpt lat="41.345433807000518" lon="1.486341180279851">
        <ele>545</ele>
        <time>2018-12-29T08:42:59Z</time>
      </trkpt>
      <trkpt lat="41.345404302701354" lon="1.486298767849803">
        <ele>545.4000244140625</ele>
        <time>2018-12-29T08:43:00Z</time>
      </trkpt>
      <trkpt lat="41.345380917191505" lon="1.48624973371625">
        <ele>545.4000244140625</ele>
        <time>2018-12-29T08:43:01Z</time>
      </trkpt>
      <trkpt lat="41.345361890271306" lon="1.486201537773013">
        <ele>545.5999755859375</ele>
        <time>2018-12-29T08:43:02Z</time>
      </trkpt>
      <trkpt lat="41.345332134515047" lon="1.486102379858494">
        <ele>545.79998779296875</ele>
        <time>2018-12-29T08:43:04Z</time>
      </trkpt>
      <trkpt lat="41.345312856137753" lon="1.485993666574359">
        <ele>546</ele>
        <time>2018-12-29T08:43:06Z</time>
      </trkpt>
      <trkpt lat="41.345304390415549" lon="1.485877577215433">
        <ele>546.4000244140625</ele>
        <time>2018-12-29T08:43:08Z</time>
      </trkpt>
      <trkpt lat="41.34528880007565" lon="1.485762996599078">
        <ele>546.4000244140625</ele>
        <time>2018-12-29T08:43:10Z</time>
      </trkpt>
      <trkpt lat="41.345275891944766" lon="1.485652104020119">
        <ele>546.5999755859375</ele>
        <time>2018-12-29T08:43:12Z</time>
      </trkpt>
      <trkpt lat="41.345269270241261" lon="1.485542049631476">
        <ele>547</ele>
        <time>2018-12-29T08:43:14Z</time>
      </trkpt>
      <trkpt lat="41.345255523920059" lon="1.485427301377058">
        <ele>547.20001220703125</ele>
        <time>2018-12-29T08:43:16Z</time>
      </trkpt>
      <trkpt lat="41.345251752063632" lon="1.485370472073555">
        <ele>547.4000244140625</ele>
        <time>2018-12-29T08:43:17Z</time>
      </trkpt>
      <trkpt lat="41.345257703214884" lon="1.48531598970294">
        <ele>547.4000244140625</ele>
        <time>2018-12-29T08:43:18Z</time>
      </trkpt>
      <trkpt lat="41.345270946621895" lon="1.48521775379777">
        <ele>547.79998779296875</ele>
        <time>2018-12-29T08:43:20Z</time>
      </trkpt>
      <trkpt lat="41.3452965952456" lon="1.485121948644519">
        <ele>548.4000244140625</ele>
        <time>2018-12-29T08:43:22Z</time>
      </trkpt>
      <trkpt lat="41.34532785974443" lon="1.485037207603455">
        <ele>548.79998779296875</ele>
        <time>2018-12-29T08:43:24Z</time>
      </trkpt>
      <trkpt lat="41.345366667956114" lon="1.484951041638851">
        <ele>549.20001220703125</ele>
        <time>2018-12-29T08:43:26Z</time>
      </trkpt>
      <trkpt lat="41.34540849365294" lon="1.484866384416819">
        <ele>549.5999755859375</ele>
        <time>2018-12-29T08:43:28Z</time>
      </trkpt>
      <trkpt lat="41.345429616048932" lon="1.484821876510978">
        <ele>549.79998779296875</ele>
        <time>2018-12-29T08:43:29Z</time>
      </trkpt>
      <trkpt lat="41.345451073721051" lon="1.484776698052883">
        <ele>550</ele>
        <time>2018-12-29T08:43:30Z</time>
      </trkpt>
      <trkpt lat="41.345484517514706" lon="1.484681311994791">
        <ele>550.20001220703125</ele>
        <time>2018-12-29T08:43:32Z</time>
      </trkpt>
      <trkpt lat="41.345512513071299" lon="1.484583662822843">
        <ele>550.4000244140625</ele>
        <time>2018-12-29T08:43:34Z</time>
      </trkpt>
      <trkpt lat="41.345524918287992" lon="1.484537227079272">
        <ele>550.5999755859375</ele>
        <time>2018-12-29T08:43:35Z</time>
      </trkpt>
      <trkpt lat="41.345537323504686" lon="1.484488947317004">
        <ele>550.79998779296875</ele>
        <time>2018-12-29T08:43:36Z</time>
      </trkpt>
      <trkpt lat="41.345547549426556" lon="1.484440583735704">
        <ele>551</ele>
        <time>2018-12-29T08:43:37Z</time>
      </trkpt>
      <trkpt lat="41.345556182786822" lon="1.484394818544388">
        <ele>551</ele>
        <time>2018-12-29T08:43:38Z</time>
      </trkpt>
      <trkpt lat="41.345568671822548" lon="1.484301779419184">
        <ele>551.4000244140625</ele>
        <time>2018-12-29T08:43:40Z</time>
      </trkpt>
      <trkpt lat="41.345574036240578" lon="1.484252577647567">
        <ele>551.5999755859375</ele>
        <time>2018-12-29T08:43:41Z</time>
      </trkpt>
      <trkpt lat="41.3455780595541" lon="1.484199687838554">
        <ele>551.79998779296875</ele>
        <time>2018-12-29T08:43:42Z</time>
      </trkpt>
      <trkpt lat="41.34558929130435" lon="1.484089884907007">
        <ele>552</ele>
        <time>2018-12-29T08:43:44Z</time>
      </trkpt>
      <trkpt lat="41.345603624358773" lon="1.483995923772454">
        <ele>552.5999755859375</ele>
        <time>2018-12-29T08:43:46Z</time>
      </trkpt>
      <trkpt lat="41.345612592995167" lon="1.483947476372123">
        <ele>552.79998779296875</ele>
        <time>2018-12-29T08:43:47Z</time>
      </trkpt>
      <trkpt lat="41.345621393993497" lon="1.483906572684646">
        <ele>552.79998779296875</ele>
        <time>2018-12-29T08:43:48Z</time>
      </trkpt>
      <trkpt lat="41.345644779503345" lon="1.483828872442246">
        <ele>553.20001220703125</ele>
        <time>2018-12-29T08:43:50Z</time>
      </trkpt>
      <trkpt lat="41.345659699290991" lon="1.483788890764117">
        <ele>553.5999755859375</ele>
        <time>2018-12-29T08:43:51Z</time>
      </trkpt>
      <trkpt lat="41.345673613250256" lon="1.483748992905021">
        <ele>553.79998779296875</ele>
        <time>2018-12-29T08:43:52Z</time>
      </trkpt>
      <trkpt lat="41.345699680969119" lon="1.483670873567462">
        <ele>554.4000244140625</ele>
        <time>2018-12-29T08:43:54Z</time>
      </trkpt>
      <trkpt lat="41.345734968781471" lon="1.483598034828901">
        <ele>554.79998779296875</ele>
        <time>2018-12-29T08:43:56Z</time>
      </trkpt>
      <trkpt lat="41.34577352553606" lon="1.483522430062294">
        <ele>555.20001220703125</ele>
        <time>2018-12-29T08:43:58Z</time>
      </trkpt>
      <trkpt lat="41.345788361504674" lon="1.483482532203198">
        <ele>555.4000244140625</ele>
        <time>2018-12-29T08:43:59Z</time>
      </trkpt>
      <trkpt lat="41.345804370939732" lon="1.483442885801196">
        <ele>555.5999755859375</ele>
        <time>2018-12-29T08:44:00Z</time>
      </trkpt>
      <trkpt lat="41.345834042876959" lon="1.483367532491684">
        <ele>556</ele>
        <time>2018-12-29T08:44:02Z</time>
      </trkpt>
      <trkpt lat="41.345863798633218" lon="1.483298465609551">
        <ele>556.4000244140625</ele>
        <time>2018-12-29T08:44:04Z</time>
      </trkpt>
      <trkpt lat="41.34589422494173" lon="1.483223112300038">
        <ele>557</ele>
        <time>2018-12-29T08:44:06Z</time>
      </trkpt>
      <trkpt lat="41.345908055081964" lon="1.483187405392528">
        <ele>557</ele>
        <time>2018-12-29T08:44:07Z</time>
      </trkpt>
      <trkpt lat="41.345920041203499" lon="1.483150776475668">
        <ele>557.4000244140625</ele>
        <time>2018-12-29T08:44:08Z</time>
      </trkpt>
      <trkpt lat="41.345946108922362" lon="1.483076931908727">
        <ele>557.79998779296875</ele>
        <time>2018-12-29T08:44:10Z</time>
      </trkpt>
      <trkpt lat="41.345955077558756" lon="1.483036698773503">
        <ele>558.20001220703125</ele>
        <time>2018-12-29T08:44:11Z</time>
      </trkpt>
      <trkpt lat="41.345960358157754" lon="1.482992861419916">
        <ele>558.4000244140625</ele>
        <time>2018-12-29T08:44:12Z</time>
      </trkpt>
      <trkpt lat="41.345965303480625" lon="1.482903677970171">
        <ele>558.5999755859375</ele>
        <time>2018-12-29T08:44:14Z</time>
      </trkpt>
      <trkpt lat="41.345962285995483" lon="1.482857912778854">
        <ele>558.79998779296875</ele>
        <time>2018-12-29T08:44:15Z</time>
      </trkpt>
      <trkpt lat="41.345953987911344" lon="1.482809046283364">
        <ele>559</ele>
        <time>2018-12-29T08:44:16Z</time>
      </trkpt>
      <trkpt lat="41.345947282388806" lon="1.482769064605236">
        <ele>559.20001220703125</ele>
        <time>2018-12-29T08:44:17Z</time>
      </trkpt>
      <trkpt lat="41.345938900485635" lon="1.482728496193886">
        <ele>559.4000244140625</ele>
        <time>2018-12-29T08:44:18Z</time>
      </trkpt>
      <trkpt lat="41.345916101709008" lon="1.482646353542805">
        <ele>559.79998779296875</ele>
        <time>2018-12-29T08:44:20Z</time>
      </trkpt>
      <trkpt lat="41.345904618501663" lon="1.482606623321772">
        <ele>560</ele>
        <time>2018-12-29T08:44:21Z</time>
      </trkpt>
      <trkpt lat="41.345890033990145" lon="1.482567312195897">
        <ele>560.20001220703125</ele>
        <time>2018-12-29T08:44:22Z</time>
      </trkpt>
      <trkpt lat="41.345878718420863" lon="1.482529090717435">
        <ele>560.4000244140625</ele>
        <time>2018-12-29T08:44:23Z</time>
      </trkpt>
      <trkpt lat="41.345865475013852" lon="1.482491120696068">
        <ele>560.4000244140625</ele>
        <time>2018-12-29T08:44:24Z</time>
      </trkpt>
      <trkpt lat="41.345839155837893" lon="1.482419455423951">
        <ele>561</ele>
        <time>2018-12-29T08:44:26Z</time>
      </trkpt>
      <trkpt lat="41.345814093947411" lon="1.482348879799247">
        <ele>561.4000244140625</ele>
        <time>2018-12-29T08:44:28Z</time>
      </trkpt>
      <trkpt lat="41.345805376768112" lon="1.482315771281719">
        <ele>561.5999755859375</ele>
        <time>2018-12-29T08:44:29Z</time>
      </trkpt>
      <trkpt lat="41.345792217180133" lon="1.482279226183891">
        <ele>561.5999755859375</ele>
        <time>2018-12-29T08:44:30Z</time>
      </trkpt>
      <trkpt lat="41.345764389261603" lon="1.48220781236887">
        <ele>562</ele>
        <time>2018-12-29T08:44:32Z</time>
      </trkpt>
      <trkpt lat="41.345743769779801" lon="1.482126507908106">
        <ele>562.5999755859375</ele>
        <time>2018-12-29T08:44:34Z</time>
      </trkpt>
      <trkpt lat="41.345732286572456" lon="1.482088537886739">
        <ele>562.79998779296875</ele>
        <time>2018-12-29T08:44:35Z</time>
      </trkpt>
      <trkpt lat="41.345719713717699" lon="1.482052411884069">
        <ele>563</ele>
        <time>2018-12-29T08:44:36Z</time>
      </trkpt>
      <trkpt lat="41.345710577443242" lon="1.482014609500766">
        <ele>563.20001220703125</ele>
        <time>2018-12-29T08:44:37Z</time>
      </trkpt>
      <trkpt lat="41.34569875895977" lon="1.481978902593255">
        <ele>563.4000244140625</ele>
        <time>2018-12-29T08:44:38Z</time>
      </trkpt>
      <trkpt lat="41.345674451440573" lon="1.481912434101105">
        <ele>563.5999755859375</ele>
        <time>2018-12-29T08:44:40Z</time>
      </trkpt>
      <trkpt lat="41.34566456079483" lon="1.481875889003277">
        <ele>563.79998779296875</ele>
        <time>2018-12-29T08:44:41Z</time>
      </trkpt>
      <trkpt lat="41.34565768763423" lon="1.481839260086417">
        <ele>564</ele>
        <time>2018-12-29T08:44:42Z</time>
      </trkpt>
      <trkpt lat="41.34565039537847" lon="1.481762817129493">
        <ele>564.4000244140625</ele>
        <time>2018-12-29T08:44:44Z</time>
      </trkpt>
      <trkpt lat="41.345651652663946" lon="1.481723338365555">
        <ele>564.5999755859375</ele>
        <time>2018-12-29T08:44:45Z</time>
      </trkpt>
      <trkpt lat="41.345657184720039" lon="1.48167815990746">
        <ele>564.5999755859375</ele>
        <time>2018-12-29T08:44:46Z</time>
      </trkpt>
      <trkpt lat="41.345666153356433" lon="1.48158386349678">
        <ele>564.5999755859375</ele>
        <time>2018-12-29T08:44:48Z</time>
      </trkpt>
      <trkpt lat="41.345678474754095" lon="1.481494093313813">
        <ele>564.79998779296875</ele>
        <time>2018-12-29T08:44:50Z</time>
      </trkpt>
      <trkpt lat="41.345690125599504" lon="1.481450088322163">
        <ele>564.79998779296875</ele>
        <time>2018-12-29T08:44:51Z</time>
      </trkpt>
      <trkpt lat="41.34569632820785" lon="1.481406418606639">
        <ele>564.5999755859375</ele>
        <time>2018-12-29T08:44:52Z</time>
      </trkpt>
      <trkpt lat="41.34571929462254" lon="1.481315642595291">
        <ele>564.79998779296875</ele>
        <time>2018-12-29T08:44:54Z</time>
      </trkpt>
      <trkpt lat="41.345753408968449" lon="1.481226375326514">
        <ele>564.5999755859375</ele>
        <time>2018-12-29T08:44:56Z</time>
      </trkpt>
      <trkpt lat="41.34579305537045" lon="1.481139957904816">
        <ele>564.5999755859375</ele>
        <time>2018-12-29T08:44:58Z</time>
      </trkpt>
      <trkpt lat="41.34583605453372" lon="1.481055300682783">
        <ele>564.5999755859375</ele>
        <time>2018-12-29T08:45:00Z</time>
      </trkpt>
      <trkpt lat="41.34585851803422" lon="1.481011966243386">
        <ele>564.79998779296875</ele>
        <time>2018-12-29T08:45:01Z</time>
      </trkpt>
      <trkpt lat="41.345880730077624" lon="1.48097307421267">
        <ele>565</ele>
        <time>2018-12-29T08:45:02Z</time>
      </trkpt>
      <trkpt lat="41.345920879393816" lon="1.480883052572608">
        <ele>565</ele>
        <time>2018-12-29T08:45:04Z</time>
      </trkpt>
      <trkpt lat="41.345955580472946" lon="1.480794455856085">
        <ele>565.4000244140625</ele>
        <time>2018-12-29T08:45:06Z</time>
      </trkpt>
      <trkpt lat="41.345997741445899" lon="1.480709882453084">
        <ele>565.79998779296875</ele>
        <time>2018-12-29T08:45:08Z</time>
      </trkpt>
      <trkpt lat="41.346022635698318" lon="1.48066570982337">
        <ele>566</ele>
        <time>2018-12-29T08:45:09Z</time>
      </trkpt>
      <trkpt lat="41.34604811668396" lon="1.480619944632053">
        <ele>566.20001220703125</ele>
        <time>2018-12-29T08:45:10Z</time>
      </trkpt>
      <trkpt lat="41.346097569912672" lon="1.480530174449086">
        <ele>566.20001220703125</ele>
        <time>2018-12-29T08:45:12Z</time>
      </trkpt>
      <trkpt lat="41.346155153587461" lon="1.480444679036737">
        <ele>566.20001220703125</ele>
        <time>2018-12-29T08:45:14Z</time>
      </trkpt>
      <trkpt lat="41.346185160800815" lon="1.480394974350929">
        <ele>566.20001220703125</ele>
        <time>2018-12-29T08:45:15Z</time>
      </trkpt>
      <trkpt lat="41.346213910728693" lon="1.480343928560615">
        <ele>566</ele>
        <time>2018-12-29T08:45:16Z</time>
      </trkpt>
      <trkpt lat="41.34627535007894" lon="1.480227923020721">
        <ele>565.79998779296875</ele>
        <time>2018-12-29T08:45:18Z</time>
      </trkpt>
      <trkpt lat="41.346343914046884" lon="1.480113426223397">
        <ele>565.4000244140625</ele>
        <time>2018-12-29T08:45:20Z</time>
      </trkpt>
      <trkpt lat="41.346418261528015" lon="1.480011167004705">
        <ele>565.20001220703125</ele>
        <time>2018-12-29T08:45:22Z</time>
      </trkpt>
      <trkpt lat="41.346461344510317" lon="1.47996841929853">
        <ele>565</ele>
        <time>2018-12-29T08:45:23Z</time>
      </trkpt>
      <trkpt lat="41.346503673121333" lon="1.479926342144609">
        <ele>565</ele>
        <time>2018-12-29T08:45:24Z</time>
      </trkpt>
      <trkpt lat="41.346593527123332" lon="1.479852078482509">
        <ele>565</ele>
        <time>2018-12-29T08:45:26Z</time>
      </trkpt>
      <trkpt lat="41.346675083041191" lon="1.479788878932595">
        <ele>565.20001220703125</ele>
        <time>2018-12-29T08:45:28Z</time>
      </trkpt>
      <trkpt lat="41.346714226529002" lon="1.479761386290193">
        <ele>565.4000244140625</ele>
        <time>2018-12-29T08:45:29Z</time>
      </trkpt>
      <trkpt lat="41.346746413037181" lon="1.479729702696204">
        <ele>565.5999755859375</ele>
        <time>2018-12-29T08:45:30Z</time>
      </trkpt>
      <trkpt lat="41.346807014197111" lon="1.47967672906816">
        <ele>566</ele>
        <time>2018-12-29T08:45:32Z</time>
      </trkpt>
      <trkpt lat="41.346869040280581" lon="1.479628868401051">
        <ele>566.79998779296875</ele>
        <time>2018-12-29T08:45:34Z</time>
      </trkpt>
      <trkpt lat="41.346898125484586" lon="1.479608751833439">
        <ele>567</ele>
        <time>2018-12-29T08:45:35Z</time>
      </trkpt>
      <trkpt lat="41.346930060535669" lon="1.479582684114575">
        <ele>567.4000244140625</ele>
        <time>2018-12-29T08:45:36Z</time>
      </trkpt>
      <trkpt lat="41.346994852647185" lon="1.479532057419419">
        <ele>567.4000244140625</ele>
        <time>2018-12-29T08:45:38Z</time>
      </trkpt>
      <trkpt lat="41.347059812396765" lon="1.479485537856817">
        <ele>567.5999755859375</ele>
        <time>2018-12-29T08:45:40Z</time>
      </trkpt>
      <trkpt lat="41.34712066501379" lon="1.479431139305234">
        <ele>568</ele>
        <time>2018-12-29T08:45:42Z</time>
      </trkpt>
      <trkpt lat="41.347150672227144" lon="1.479400796815753">
        <ele>568.20001220703125</ele>
        <time>2018-12-29T08:45:43Z</time>
      </trkpt>
      <trkpt lat="41.347180008888245" lon="1.479367688298225">
        <ele>568.4000244140625</ele>
        <time>2018-12-29T08:45:44Z</time>
      </trkpt>
      <trkpt lat="41.347232982516289" lon="1.479287557303906">
        <ele>568.5999755859375</ele>
        <time>2018-12-29T08:45:46Z</time>
      </trkpt>
      <trkpt lat="41.347270617261529" lon="1.479192757979035">
        <ele>568.4000244140625</ele>
        <time>2018-12-29T08:45:48Z</time>
      </trkpt>
      <trkpt lat="41.347284531220794" lon="1.479091420769692">
        <ele>568.5999755859375</ele>
        <time>2018-12-29T08:45:50Z</time>
      </trkpt>
      <trkpt lat="41.347292074933648" lon="1.478993687778711">
        <ele>568.5999755859375</ele>
        <time>2018-12-29T08:45:52Z</time>
      </trkpt>
      <trkpt lat="41.347300540655851" lon="1.478946916759014">
        <ele>568.79998779296875</ele>
        <time>2018-12-29T08:45:53Z</time>
      </trkpt>
      <trkpt lat="41.347311018034816" lon="1.478901067748666">
        <ele>569</ele>
        <time>2018-12-29T08:45:54Z</time>
      </trkpt>
      <trkpt lat="41.347321830689907" lon="1.478859493508935">
        <ele>569.20001220703125</ele>
        <time>2018-12-29T08:45:55Z</time>
      </trkpt>
      <trkpt lat="41.347336666658521" lon="1.478823618963361">
        <ele>569.5999755859375</ele>
        <time>2018-12-29T08:45:56Z</time>
      </trkpt>
      <trkpt lat="41.347378576174378" lon="1.478746505454183">
        <ele>570.20001220703125</ele>
        <time>2018-12-29T08:45:58Z</time>
      </trkpt>
      <trkpt lat="41.347402380779386" lon="1.478713816031814">
        <ele>570.20001220703125</ele>
        <time>2018-12-29T08:45:59Z</time>
      </trkpt>
      <trkpt lat="41.347432807087898" lon="1.478686910122633">
        <ele>570.20001220703125</ele>
        <time>2018-12-29T08:46:00Z</time>
      </trkpt>
      <trkpt lat="41.347495671361685" lon="1.478636534884572">
        <ele>570.5999755859375</ele>
        <time>2018-12-29T08:46:02Z</time>
      </trkpt>
      <trkpt lat="41.347561804577708" lon="1.478596804663539">
        <ele>570.79998779296875</ele>
        <time>2018-12-29T08:46:04Z</time>
      </trkpt>
      <trkpt lat="41.347627099603415" lon="1.478555984795094">
        <ele>571</ele>
        <time>2018-12-29T08:46:06Z</time>
      </trkpt>
      <trkpt lat="41.347693568095565" lon="1.478512650355697">
        <ele>571.5999755859375</ele>
        <time>2018-12-29T08:46:08Z</time>
      </trkpt>
      <trkpt lat="41.347755007445812" lon="1.478458335623145">
        <ele>571.79998779296875</ele>
        <time>2018-12-29T08:46:10Z</time>
      </trkpt>
      <trkpt lat="41.34779741987586" lon="1.478384742513299">
        <ele>572.20001220703125</ele>
        <time>2018-12-29T08:46:12Z</time>
      </trkpt>
      <trkpt lat="41.347829103469849" lon="1.478294553235173">
        <ele>572.5999755859375</ele>
        <time>2018-12-29T08:46:14Z</time>
      </trkpt>
      <trkpt lat="41.347846454009414" lon="1.478204028680921">
        <ele>572.5999755859375</ele>
        <time>2018-12-29T08:46:16Z</time>
      </trkpt>
      <trkpt lat="41.347850058227777" lon="1.478159269317985">
        <ele>572.79998779296875</ele>
        <time>2018-12-29T08:46:17Z</time>
      </trkpt>
      <trkpt lat="41.347851315513253" lon="1.478114007040858">
        <ele>573</ele>
        <time>2018-12-29T08:46:18Z</time>
      </trkpt>
      <trkpt lat="41.347859865054488" lon="1.478021638467908">
        <ele>573.4000244140625</ele>
        <time>2018-12-29T08:46:20Z</time>
      </trkpt>
      <trkpt lat="41.347862295806408" lon="1.477976711466909">
        <ele>573.79998779296875</ele>
        <time>2018-12-29T08:46:21Z</time>
      </trkpt>
      <trkpt lat="41.347861457616091" lon="1.477931533008814">
        <ele>573.79998779296875</ele>
        <time>2018-12-29T08:46:22Z</time>
      </trkpt>
      <trkpt lat="41.34786531329155" lon="1.477841511368752">
        <ele>574.4000244140625</ele>
        <time>2018-12-29T08:46:24Z</time>
      </trkpt>
      <trkpt lat="41.347868414595723" lon="1.477795913815498">
        <ele>574.5999755859375</ele>
        <time>2018-12-29T08:46:25Z</time>
      </trkpt>
      <trkpt lat="41.347871934995055" lon="1.477750400081277">
        <ele>574.5999755859375</ele>
        <time>2018-12-29T08:46:26Z</time>
      </trkpt>
      <trkpt lat="41.347891464829445" lon="1.477662222459912">
        <ele>574.5999755859375</ele>
        <time>2018-12-29T08:46:28Z</time>
      </trkpt>
      <trkpt lat="41.347908228635788" lon="1.477572955191135">
        <ele>574.79998779296875</ele>
        <time>2018-12-29T08:46:30Z</time>
      </trkpt>
      <trkpt lat="41.347927004098892" lon="1.477483352646232">
        <ele>575.20001220703125</ele>
        <time>2018-12-29T08:46:32Z</time>
      </trkpt>
      <trkpt lat="41.347956256940961" lon="1.477395091205835">
        <ele>575.20001220703125</ele>
        <time>2018-12-29T08:46:34Z</time>
      </trkpt>
      <trkpt lat="41.347978636622429" lon="1.477309931069613">
        <ele>575.5999755859375</ele>
        <time>2018-12-29T08:46:36Z</time>
      </trkpt>
      <trkpt lat="41.347996154800057" lon="1.477223932743073">
        <ele>575.79998779296875</ele>
        <time>2018-12-29T08:46:38Z</time>
      </trkpt>
      <trkpt lat="41.348006213083863" lon="1.477178754284978">
        <ele>576</ele>
        <time>2018-12-29T08:46:39Z</time>
      </trkpt>
      <trkpt lat="41.348020546138287" lon="1.477134581655264">
        <ele>576.20001220703125</ele>
        <time>2018-12-29T08:46:40Z</time>
      </trkpt>
      <trkpt lat="41.348055163398385" lon="1.477042632177472">
        <ele>576.20001220703125</ele>
        <time>2018-12-29T08:46:42Z</time>
      </trkpt>
      <trkpt lat="41.348078716546297" lon="1.476944563910365">
        <ele>576</ele>
        <time>2018-12-29T08:46:44Z</time>
      </trkpt>
      <trkpt lat="41.348105622455478" lon="1.47684657946229">
        <ele>576.20001220703125</ele>
        <time>2018-12-29T08:46:46Z</time>
      </trkpt>
      <trkpt lat="41.348130768164992" lon="1.476764185354114">
        <ele>576.5999755859375</ele>
        <time>2018-12-29T08:46:48Z</time>
      </trkpt>
      <trkpt lat="41.348157171159983" lon="1.476675923913717">
        <ele>576.79998779296875</ele>
        <time>2018-12-29T08:46:50Z</time>
      </trkpt>
      <trkpt lat="41.348193380981684" lon="1.47658372297883">
        <ele>577</ele>
        <time>2018-12-29T08:46:52Z</time>
      </trkpt>
      <trkpt lat="41.348236799240112" lon="1.476496048271656">
        <ele>577</ele>
        <time>2018-12-29T08:46:54Z</time>
      </trkpt>
      <trkpt lat="41.348289102315903" lon="1.476412899792194">
        <ele>577</ele>
        <time>2018-12-29T08:46:56Z</time>
      </trkpt>
      <trkpt lat="41.348336627706885" lon="1.476331343874335">
        <ele>576.79998779296875</ele>
        <time>2018-12-29T08:46:58Z</time>
      </trkpt>
      <trkpt lat="41.348385326564312" lon="1.476257331669331">
        <ele>576.79998779296875</ele>
        <time>2018-12-29T08:47:00Z</time>
      </trkpt>
      <trkpt lat="41.348426146432757" lon="1.47618399001658">
        <ele>576.4000244140625</ele>
        <time>2018-12-29T08:47:02Z</time>
      </trkpt>
      <trkpt lat="41.348439725115895" lon="1.476076282560825">
        <ele>576.20001220703125</ele>
        <time>2018-12-29T08:47:04Z</time>
      </trkpt>
      <trkpt lat="41.34843067266047" lon="1.47601249627769">
        <ele>575.79998779296875</ele>
        <time>2018-12-29T08:47:05Z</time>
      </trkpt>
      <trkpt lat="41.348410723730922" lon="1.475947201251984">
        <ele>575.4000244140625</ele>
        <time>2018-12-29T08:47:06Z</time>
      </trkpt>
      <trkpt lat="41.348376190289855" lon="1.475890120491386">
        <ele>575</ele>
        <time>2018-12-29T08:47:07Z</time>
      </trkpt>
      <trkpt lat="41.348333107307553" lon="1.475853743031621">
        <ele>575</ele>
        <time>2018-12-29T08:47:08Z</time>
      </trkpt>
      <trkpt lat="41.348248282447457" lon="1.475819125771523">
        <ele>575.4000244140625</ele>
        <time>2018-12-29T08:47:10Z</time>
      </trkpt>
      <trkpt lat="41.348165888339281" lon="1.475809989497066">
        <ele>576</ele>
        <time>2018-12-29T08:47:12Z</time>
      </trkpt>
      <trkpt lat="41.348128169775009" lon="1.475823149085045">
        <ele>576.5999755859375</ele>
        <time>2018-12-29T08:47:13Z</time>
      </trkpt>
      <trkpt lat="41.348095647990704" lon="1.475848630070686">
        <ele>577</ele>
        <time>2018-12-29T08:47:14Z</time>
      </trkpt>
      <trkpt lat="41.3480319455266" lon="1.475901352241635">
        <ele>577.5999755859375</ele>
        <time>2018-12-29T08:47:16Z</time>
      </trkpt>
      <trkpt lat="41.347968997433782" lon="1.475951559841633">
        <ele>578</ele>
        <time>2018-12-29T08:47:18Z</time>
      </trkpt>
      <trkpt lat="41.347901187837124" lon="1.475986260920763">
        <ele>578.4000244140625</ele>
        <time>2018-12-29T08:47:20Z</time>
      </trkpt>
      <trkpt lat="41.347831534221768" lon="1.475999923422933">
        <ele>579</ele>
        <time>2018-12-29T08:47:22Z</time>
      </trkpt>
      <trkpt lat="41.347799515351653" lon="1.476002773270011">
        <ele>579.20001220703125</ele>
        <time>2018-12-29T08:47:23Z</time>
      </trkpt>
      <trkpt lat="41.347766239196062" lon="1.476001180708408">
        <ele>579.4000244140625</ele>
        <time>2018-12-29T08:47:24Z</time>
      </trkpt>
      <trkpt lat="41.347701698541641" lon="1.475992128252983">
        <ele>579.79998779296875</ele>
        <time>2018-12-29T08:47:26Z</time>
      </trkpt>
      <trkpt lat="41.347638918086886" lon="1.475977962836623">
        <ele>580</ele>
        <time>2018-12-29T08:47:28Z</time>
      </trkpt>
      <trkpt lat="41.347610419616103" lon="1.475966479629278">
        <ele>580.20001220703125</ele>
        <time>2018-12-29T08:47:29Z</time>
      </trkpt>
      <trkpt lat="41.347583262249827" lon="1.475945943966508">
        <ele>580.20001220703125</ele>
        <time>2018-12-29T08:47:30Z</time>
      </trkpt>
      <trkpt lat="41.347527019679546" lon="1.475906716659665">
        <ele>580.5999755859375</ele>
        <time>2018-12-29T08:47:32Z</time>
      </trkpt>
      <trkpt lat="41.347474046051502" lon="1.475854413583875">
        <ele>581</ele>
        <time>2018-12-29T08:47:34Z</time>
      </trkpt>
      <trkpt lat="41.347422497346997" lon="1.475795321166515">
        <ele>581.20001220703125</ele>
        <time>2018-12-29T08:47:36Z</time>
      </trkpt>
      <trkpt lat="41.347395172342658" lon="1.475763050839305">
        <ele>581.20001220703125</ele>
        <time>2018-12-29T08:47:37Z</time>
      </trkpt>
      <trkpt lat="41.347370529547334" lon="1.475730277597904">
        <ele>581.4000244140625</ele>
        <time>2018-12-29T08:47:38Z</time>
      </trkpt>
      <trkpt lat="41.347323339432478" lon="1.475663222372532">
        <ele>582</ele>
        <time>2018-12-29T08:47:40Z</time>
      </trkpt>
      <trkpt lat="41.347299367189407" lon="1.475630952045322">
        <ele>582.20001220703125</ele>
        <time>2018-12-29T08:47:41Z</time>
      </trkpt>
      <trkpt lat="41.347276484593749" lon="1.475597759708762">
        <ele>582.4000244140625</ele>
        <time>2018-12-29T08:47:42Z</time>
      </trkpt>
      <trkpt lat="41.347253182902932" lon="1.475564315915108">
        <ele>582.5999755859375</ele>
        <time>2018-12-29T08:47:43Z</time>
      </trkpt>
      <trkpt lat="41.34722912684083" lon="1.475530955940485">
        <ele>582.79998779296875</ele>
        <time>2018-12-29T08:47:44Z</time>
      </trkpt>
      <trkpt lat="41.347178583964705" lon="1.475468929857016">
        <ele>582.79998779296875</ele>
        <time>2018-12-29T08:47:46Z</time>
      </trkpt>
      <trkpt lat="41.347130890935659" lon="1.475399192422628">
        <ele>583.20001220703125</ele>
        <time>2018-12-29T08:47:48Z</time>
      </trkpt>
      <trkpt lat="41.347105829045177" lon="1.475365245714784">
        <ele>583.20001220703125</ele>
        <time>2018-12-29T08:47:49Z</time>
      </trkpt>
      <trkpt lat="41.347081605345011" lon="1.475332137197256">
        <ele>583.4000244140625</ele>
        <time>2018-12-29T08:47:50Z</time>
      </trkpt>
      <trkpt lat="41.347033996134996" lon="1.475267596542835">
        <ele>583.5999755859375</ele>
        <time>2018-12-29T08:47:52Z</time>
      </trkpt>
      <trkpt lat="41.34698236361146" lon="1.47520674392581">
        <ele>583.79998779296875</ele>
        <time>2018-12-29T08:47:54Z</time>
      </trkpt>
      <trkpt lat="41.346929306164384" lon="1.475151842460036">
        <ele>584.20001220703125</ele>
        <time>2018-12-29T08:47:56Z</time>
      </trkpt>
      <trkpt lat="41.346900975331664" lon="1.475125523284078">
        <ele>584.20001220703125</ele>
        <time>2018-12-29T08:47:57Z</time>
      </trkpt>
      <trkpt lat="41.346872560679913" lon="1.475099371746182">
        <ele>584.4000244140625</ele>
        <time>2018-12-29T08:47:58Z</time>
      </trkpt>
      <trkpt lat="41.346809864044189" lon="1.475059809163213">
        <ele>584.79998779296875</ele>
        <time>2018-12-29T08:48:00Z</time>
      </trkpt>
      <trkpt lat="41.346751945093274" lon="1.475015971809626">
        <ele>585.20001220703125</ele>
        <time>2018-12-29T08:48:02Z</time>
      </trkpt>
      <trkpt lat="41.34672436863184" lon="1.474994430318475">
        <ele>585.5999755859375</ele>
        <time>2018-12-29T08:48:03Z</time>
      </trkpt>
      <trkpt lat="41.346696875989437" lon="1.474970793351531">
        <ele>585.79998779296875</ele>
        <time>2018-12-29T08:48:04Z</time>
      </trkpt>
      <trkpt lat="41.346634095534682" lon="1.47493458352983">
        <ele>586</ele>
        <time>2018-12-29T08:48:06Z</time>
      </trkpt>
      <trkpt lat="41.346572572365403" lon="1.474892590194941">
        <ele>586.20001220703125</ele>
        <time>2018-12-29T08:48:08Z</time>
      </trkpt>
      <trkpt lat="41.346540469676256" lon="1.474870713427663">
        <ele>586.5999755859375</ele>
        <time>2018-12-29T08:48:09Z</time>
      </trkpt>
      <trkpt lat="41.346508199349046" lon="1.474850093945861">
        <ele>586.79998779296875</ele>
        <time>2018-12-29T08:48:10Z</time>
      </trkpt>
      <trkpt lat="41.346476599574089" lon="1.474827462807298">
        <ele>587</ele>
        <time>2018-12-29T08:48:11Z</time>
      </trkpt>
      <trkpt lat="41.346446508541703" lon="1.474804496392608">
        <ele>587</ele>
        <time>2018-12-29T08:48:12Z</time>
      </trkpt>
      <trkpt lat="41.346384650096297" lon="1.474757473915815">
        <ele>587.4000244140625</ele>
        <time>2018-12-29T08:48:14Z</time>
      </trkpt>
      <trkpt lat="41.346320025622845" lon="1.47471422329545">
        <ele>587.5999755859375</ele>
        <time>2018-12-29T08:48:16Z</time>
      </trkpt>
      <trkpt lat="41.346291191875935" lon="1.474694442003965">
        <ele>587.79998779296875</ele>
        <time>2018-12-29T08:48:17Z</time>
      </trkpt>
      <trkpt lat="41.346262106671929" lon="1.474673738703132">
        <ele>588</ele>
        <time>2018-12-29T08:48:18Z</time>
      </trkpt>
      <trkpt lat="41.346232099458575" lon="1.474654963240027">
        <ele>588.20001220703125</ele>
        <time>2018-12-29T08:48:19Z</time>
      </trkpt>
      <trkpt lat="41.346203433349729" lon="1.47463551722467">
        <ele>588.4000244140625</ele>
        <time>2018-12-29T08:48:20Z</time>
      </trkpt>
      <trkpt lat="41.346143586561084" lon="1.474595200270414">
        <ele>588.79998779296875</ele>
        <time>2018-12-29T08:48:22Z</time>
      </trkpt>
      <trkpt lat="41.3460857514292" lon="1.474556224420667">
        <ele>589.20001220703125</ele>
        <time>2018-12-29T08:48:24Z</time>
      </trkpt>
      <trkpt lat="41.346029257401824" lon="1.474508531391621">
        <ele>589.5999755859375</ele>
        <time>2018-12-29T08:48:26Z</time>
      </trkpt>
      <trkpt lat="41.345969410613179" lon="1.47446402348578">
        <ele>590</ele>
        <time>2018-12-29T08:48:28Z</time>
      </trkpt>
      <trkpt lat="41.345914592966437" lon="1.474416330456734">
        <ele>590.4000244140625</ele>
        <time>2018-12-29T08:48:30Z</time>
      </trkpt>
      <trkpt lat="41.345868743956089" lon="1.4743662904948">
        <ele>590.79998779296875</ele>
        <time>2018-12-29T08:48:32Z</time>
      </trkpt>
      <trkpt lat="41.345842340961099" lon="1.474338127300143">
        <ele>591</ele>
        <time>2018-12-29T08:48:33Z</time>
      </trkpt>
      <trkpt lat="41.345820548012853" lon="1.474308371543884">
        <ele>591.20001220703125</ele>
        <time>2018-12-29T08:48:34Z</time>
      </trkpt>
      <trkpt lat="41.345779225230217" lon="1.47425145842135">
        <ele>591.5999755859375</ele>
        <time>2018-12-29T08:48:36Z</time>
      </trkpt>
      <trkpt lat="41.345739243552089" lon="1.4741952996701">
        <ele>592</ele>
        <time>2018-12-29T08:48:38Z</time>
      </trkpt>
      <trkpt lat="41.345718372613192" lon="1.474166214466095">
        <ele>592.4000244140625</ele>
        <time>2018-12-29T08:48:39Z</time>
      </trkpt>
      <trkpt lat="41.345696495845914" lon="1.474135369062424">
        <ele>592.5999755859375</ele>
        <time>2018-12-29T08:48:40Z</time>
      </trkpt>
      <trkpt lat="41.345649808645248" lon="1.47407116368413">
        <ele>593</ele>
        <time>2018-12-29T08:48:42Z</time>
      </trkpt>
      <trkpt lat="41.345609910786152" lon="1.474001677706838">
        <ele>593.4000244140625</ele>
        <time>2018-12-29T08:48:44Z</time>
      </trkpt>
      <trkpt lat="41.345584094524384" lon="1.473927246406674">
        <ele>593.5999755859375</ele>
        <time>2018-12-29T08:48:46Z</time>
      </trkpt>
      <trkpt lat="41.345567917451262" lon="1.473847618326545">
        <ele>594.20001220703125</ele>
        <time>2018-12-29T08:48:48Z</time>
      </trkpt>
      <trkpt lat="41.345550650730729" lon="1.473776204511523">
        <ele>594.5999755859375</ele>
        <time>2018-12-29T08:48:50Z</time>
      </trkpt>
      <trkpt lat="41.345539167523384" lon="1.473701354116201">
        <ele>595</ele>
        <time>2018-12-29T08:48:52Z</time>
      </trkpt>
      <trkpt lat="41.345532713457942" lon="1.473663132637739">
        <ele>595.20001220703125</ele>
        <time>2018-12-29T08:48:53Z</time>
      </trkpt>
      <trkpt lat="41.345524499192834" lon="1.473625833168626">
        <ele>595.4000244140625</ele>
        <time>2018-12-29T08:48:54Z</time>
      </trkpt>
      <trkpt lat="41.345513602718711" lon="1.473586689680815">
        <ele>595.5999755859375</ele>
        <time>2018-12-29T08:48:55Z</time>
      </trkpt>
      <trkpt lat="41.345501616597176" lon="1.473548803478479">
        <ele>595.79998779296875</ele>
        <time>2018-12-29T08:48:56Z</time>
      </trkpt>
      <trkpt lat="41.345478231087327" lon="1.473478395491839">
        <ele>596.5999755859375</ele>
        <time>2018-12-29T08:48:58Z</time>
      </trkpt>
      <trkpt lat="41.345456521958113" lon="1.47341201081872">
        <ele>596.79998779296875</ele>
        <time>2018-12-29T08:49:00Z</time>
      </trkpt>
      <trkpt lat="41.345436573028564" lon="1.473348727449775">
        <ele>597.20001220703125</ele>
        <time>2018-12-29T08:49:02Z</time>
      </trkpt>
      <trkpt lat="41.345405392348766" lon="1.473285108804703">
        <ele>597.5999755859375</ele>
        <time>2018-12-29T08:49:04Z</time>
      </trkpt>
      <trkpt lat="41.345367506146431" lon="1.473224759101868">
        <ele>598.20001220703125</ele>
        <time>2018-12-29T08:49:06Z</time>
      </trkpt>
      <trkpt lat="41.345344791188836" lon="1.473197434097529">
        <ele>598.20001220703125</ele>
        <time>2018-12-29T08:49:07Z</time>
      </trkpt>
      <trkpt lat="41.345321489498019" lon="1.473166923969984">
        <ele>598.5999755859375</ele>
        <time>2018-12-29T08:49:08Z</time>
      </trkpt>
      <trkpt lat="41.345300702378154" lon="1.473138257861137">
        <ele>598.79998779296875</ele>
        <time>2018-12-29T08:49:09Z</time>
      </trkpt>
      <trkpt lat="41.345279915258288" lon="1.47311101667583">
        <ele>598.79998779296875</ele>
        <time>2018-12-29T08:49:10Z</time>
      </trkpt>
      <trkpt lat="41.345234652981162" lon="1.473062066361308">
        <ele>599.20001220703125</ele>
        <time>2018-12-29T08:49:12Z</time>
      </trkpt>
      <trkpt lat="41.345187462866306" lon="1.473019737750292">
        <ele>599.5999755859375</ele>
        <time>2018-12-29T08:49:14Z</time>
      </trkpt>
      <trkpt lat="41.345163658261299" lon="1.472999788820744">
        <ele>599.79998779296875</ele>
        <time>2018-12-29T08:49:15Z</time>
      </trkpt>
      <trkpt lat="41.345139099285007" lon="1.472977912053466">
        <ele>600</ele>
        <time>2018-12-29T08:49:16Z</time>
      </trkpt>
      <trkpt lat="41.345087299123406" lon="1.472938098013401">
        <ele>600.20001220703125</ele>
        <time>2018-12-29T08:49:18Z</time>
      </trkpt>
      <trkpt lat="41.345034074038267" lon="1.472898703068495">
        <ele>600.4000244140625</ele>
        <time>2018-12-29T08:49:20Z</time>
      </trkpt>
      <trkpt lat="41.344991242513061" lon="1.472856206819415">
        <ele>601</ele>
        <time>2018-12-29T08:49:22Z</time>
      </trkpt>
      <trkpt lat="41.344950087368488" lon="1.472813291475177">
        <ele>601.20001220703125</ele>
        <time>2018-12-29T08:49:24Z</time>
      </trkpt>
      <trkpt lat="41.34490423835814" lon="1.472767191007733">
        <ele>601.4000244140625</ele>
        <time>2018-12-29T08:49:26Z</time>
      </trkpt>
      <trkpt lat="41.344854282215238" lon="1.472720839083195">
        <ele>601.5999755859375</ele>
        <time>2018-12-29T08:49:28Z</time>
      </trkpt>
      <trkpt lat="41.344804912805557" lon="1.472669038921595">
        <ele>601.79998779296875</ele>
        <time>2018-12-29T08:49:30Z</time>
      </trkpt>
      <trkpt lat="41.344781275838614" lon="1.472646156325936">
        <ele>602</ele>
        <time>2018-12-29T08:49:31Z</time>
      </trkpt>
      <trkpt lat="41.344758477061987" lon="1.472623189911246">
        <ele>602</ele>
        <time>2018-12-29T08:49:32Z</time>
      </trkpt>
      <trkpt lat="41.34471271187067" lon="1.472577257081866">
        <ele>602.4000244140625</ele>
        <time>2018-12-29T08:49:34Z</time>
      </trkpt>
      <trkpt lat="41.344665857031941" lon="1.472527552396059">
        <ele>602.4000244140625</ele>
        <time>2018-12-29T08:49:36Z</time>
      </trkpt>
      <trkpt lat="41.34462084621191" lon="1.472474746406078">
        <ele>602.79998779296875</ele>
        <time>2018-12-29T08:49:38Z</time>
      </trkpt>
      <trkpt lat="41.344575248658657" lon="1.472433172166348">
        <ele>603.20001220703125</ele>
        <time>2018-12-29T08:49:40Z</time>
      </trkpt>
      <trkpt lat="41.344530824571848" lon="1.472393861040473">
        <ele>603.4000244140625</ele>
        <time>2018-12-29T08:49:42Z</time>
      </trkpt>
      <trkpt lat="41.344510121271014" lon="1.472370978444815">
        <ele>603.5999755859375</ele>
        <time>2018-12-29T08:49:43Z</time>
      </trkpt>
      <trkpt lat="41.3444918487221" lon="1.472350107505918">
        <ele>604</ele>
        <time>2018-12-29T08:49:44Z</time>
      </trkpt>
      <trkpt lat="41.344473324716091" lon="1.472330829128623">
        <ele>604.20001220703125</ele>
        <time>2018-12-29T08:49:45Z</time>
      </trkpt>
      <trkpt lat="41.344453794881701" lon="1.472312388941646">
        <ele>604.4000244140625</ele>
        <time>2018-12-29T08:49:46Z</time>
      </trkpt>
      <trkpt lat="41.344415238127112" lon="1.472269641235471">
        <ele>604.79998779296875</ele>
        <time>2018-12-29T08:49:48Z</time>
      </trkpt>
      <trkpt lat="41.344394451007247" lon="1.47224466316402">
        <ele>605</ele>
        <time>2018-12-29T08:49:49Z</time>
      </trkpt>
      <trkpt lat="41.344375256448984" lon="1.472217589616776">
        <ele>605.4000244140625</ele>
        <time>2018-12-29T08:49:50Z</time>
      </trkpt>
      <trkpt lat="41.344340555369854" lon="1.472160592675209">
        <ele>605.79998779296875</ele>
        <time>2018-12-29T08:49:52Z</time>
      </trkpt>
      <trkpt lat="41.344309207051992" lon="1.472094208002091">
        <ele>606.20001220703125</ele>
        <time>2018-12-29T08:49:54Z</time>
      </trkpt>
      <trkpt lat="41.344301076605916" lon="1.472061267122626">
        <ele>606.4000244140625</ele>
        <time>2018-12-29T08:49:55Z</time>
      </trkpt>
      <trkpt lat="41.344295125454664" lon="1.472027404233813">
        <ele>606.4000244140625</ele>
        <time>2018-12-29T08:49:56Z</time>
      </trkpt>
      <trkpt lat="41.344286911189556" lon="1.471954984590411">
        <ele>607</ele>
        <time>2018-12-29T08:49:58Z</time>
      </trkpt>
      <trkpt lat="41.34429001249373" lon="1.471883067861199">
        <ele>607.20001220703125</ele>
        <time>2018-12-29T08:50:00Z</time>
      </trkpt>
      <trkpt lat="41.344301830977201" lon="1.471811570227146">
        <ele>607.4000244140625</ele>
        <time>2018-12-29T08:50:02Z</time>
      </trkpt>
      <trkpt lat="41.34431591257453" lon="1.471738060936332">
        <ele>607.5999755859375</ele>
        <time>2018-12-29T08:50:04Z</time>
      </trkpt>
      <trkpt lat="41.344334352761507" lon="1.471665808930993">
        <ele>607.79998779296875</ele>
        <time>2018-12-29T08:50:06Z</time>
      </trkpt>
      <trkpt lat="41.344353128224611" lon="1.471594981849194">
        <ele>608</ele>
        <time>2018-12-29T08:50:08Z</time>
      </trkpt>
      <trkpt lat="41.344360085204244" lon="1.471557598561049">
        <ele>608.20001220703125</ele>
        <time>2018-12-29T08:50:09Z</time>
      </trkpt>
      <trkpt lat="41.344364611431956" lon="1.471519879996777">
        <ele>608.4000244140625</ele>
        <time>2018-12-29T08:50:10Z</time>
      </trkpt>
      <trkpt lat="41.344368634745479" lon="1.471445951610804">
        <ele>608.79998779296875</ele>
        <time>2018-12-29T08:50:12Z</time>
      </trkpt>
      <trkpt lat="41.344360671937466" lon="1.471370095387101">
        <ele>609.20001220703125</ele>
        <time>2018-12-29T08:50:14Z</time>
      </trkpt>
      <trkpt lat="41.344349943101406" lon="1.471293903887272">
        <ele>609.5999755859375</ele>
        <time>2018-12-29T08:50:16Z</time>
      </trkpt>
      <trkpt lat="41.344339214265347" lon="1.471216371282935">
        <ele>609.79998779296875</ele>
        <time>2018-12-29T08:50:18Z</time>
      </trkpt>
      <trkpt lat="41.34432815015316" lon="1.471141437068582">
        <ele>610.20001220703125</ele>
        <time>2018-12-29T08:50:20Z</time>
      </trkpt>
      <trkpt lat="41.344313398003578" lon="1.47106759250164">
        <ele>610.5999755859375</ele>
        <time>2018-12-29T08:50:22Z</time>
      </trkpt>
      <trkpt lat="41.344293029978871" lon="1.470991736277938">
        <ele>611</ele>
        <time>2018-12-29T08:50:24Z</time>
      </trkpt>
      <trkpt lat="41.344269309192896" lon="1.470921831205487">
        <ele>611.5999755859375</ele>
        <time>2018-12-29T08:50:26Z</time>
      </trkpt>
      <trkpt lat="41.344256065785885" lon="1.470890901982784">
        <ele>611.5999755859375</ele>
        <time>2018-12-29T08:50:27Z</time>
      </trkpt>
      <trkpt lat="41.344242570921779" lon="1.470861230045557">
        <ele>611.79998779296875</ele>
        <time>2018-12-29T08:50:28Z</time>
      </trkpt>
      <trkpt lat="41.344211138784885" lon="1.470808340236545">
        <ele>612.4000244140625</ele>
        <time>2018-12-29T08:50:30Z</time>
      </trkpt>
      <trkpt lat="41.34419085457921" lon="1.470783026888967">
        <ele>612.5999755859375</ele>
        <time>2018-12-29T08:50:31Z</time>
      </trkpt>
      <trkpt lat="41.344169313088059" lon="1.470758970826864">
        <ele>612.79998779296875</ele>
        <time>2018-12-29T08:50:32Z</time>
      </trkpt>
      <trkpt lat="41.344121117144823" lon="1.470718318596482">
        <ele>613.4000244140625</ele>
        <time>2018-12-29T08:50:34Z</time>
      </trkpt>
      <trkpt lat="41.344066299498081" lon="1.470678756013513">
        <ele>613.5999755859375</ele>
        <time>2018-12-29T08:50:36Z</time>
      </trkpt>
      <trkpt lat="41.34401055984199" lon="1.470651682466269">
        <ele>614</ele>
        <time>2018-12-29T08:50:38Z</time>
      </trkpt>
      <trkpt lat="41.343953059986234" lon="1.470629638060927">
        <ele>614.5999755859375</ele>
        <time>2018-12-29T08:50:40Z</time>
      </trkpt>
      <trkpt lat="41.343901511281729" lon="1.470598708838224">
        <ele>615</ele>
        <time>2018-12-29T08:50:42Z</time>
      </trkpt>
      <trkpt lat="41.343875527381897" lon="1.470583621412516">
        <ele>615</ele>
        <time>2018-12-29T08:50:43Z</time>
      </trkpt>
      <trkpt lat="41.343849878758192" lon="1.470569623634219">
        <ele>615.20001220703125</ele>
        <time>2018-12-29T08:50:44Z</time>
      </trkpt>
      <trkpt lat="41.343798162415624" lon="1.470542466267943">
        <ele>615.79998779296875</ele>
        <time>2018-12-29T08:50:46Z</time>
      </trkpt>
      <trkpt lat="41.343771675601602" lon="1.470525451004505">
        <ele>616.20001220703125</ele>
        <time>2018-12-29T08:50:47Z</time>
      </trkpt>
      <trkpt lat="41.343747032806277" lon="1.470505250617862">
        <ele>616.4000244140625</ele>
        <time>2018-12-29T08:50:48Z</time>
      </trkpt>
      <trkpt lat="41.343698166310787" lon="1.470462754368782">
        <ele>616.5999755859375</ele>
        <time>2018-12-29T08:50:50Z</time>
      </trkpt>
      <trkpt lat="41.343652652576566" lon="1.470415396615863">
        <ele>617</ele>
        <time>2018-12-29T08:50:52Z</time>
      </trkpt>
      <trkpt lat="41.343605546280742" lon="1.47036250680685">
        <ele>617.20001220703125</ele>
        <time>2018-12-29T08:50:54Z</time>
      </trkpt>
      <trkpt lat="41.343556512147188" lon="1.470316657796502">
        <ele>617.5999755859375</ele>
        <time>2018-12-29T08:50:56Z</time>
      </trkpt>
      <trkpt lat="41.343506053090096" lon="1.470278017222881">
        <ele>618</ele>
        <time>2018-12-29T08:50:58Z</time>
      </trkpt>
      <trkpt lat="41.343481158837676" lon="1.470261756330729">
        <ele>618.20001220703125</ele>
        <time>2018-12-29T08:50:59Z</time>
      </trkpt>
      <trkpt lat="41.343456180766225" lon="1.470247339457274">
        <ele>618.4000244140625</ele>
        <time>2018-12-29T08:51:00Z</time>
      </trkpt>
      <trkpt lat="41.343401530757546" lon="1.470220182090998">
        <ele>618.5999755859375</ele>
        <time>2018-12-29T08:51:02Z</time>
      </trkpt>
      <trkpt lat="41.343342941254377" lon="1.470197299495339">
        <ele>618.5999755859375</ele>
        <time>2018-12-29T08:51:04Z</time>
      </trkpt>
      <trkpt lat="41.343284016475081" lon="1.470168633386493">
        <ele>619</ele>
        <time>2018-12-29T08:51:06Z</time>
      </trkpt>
      <trkpt lat="41.343221990391612" lon="1.470132088288665">
        <ele>619.20001220703125</ele>
        <time>2018-12-29T08:51:08Z</time>
      </trkpt>
      <trkpt lat="41.34319307282567" lon="1.470109708607197">
        <ele>619.4000244140625</ele>
        <time>2018-12-29T08:51:09Z</time>
      </trkpt>
      <trkpt lat="41.343165831640363" lon="1.470087915658951">
        <ele>619.4000244140625</ele>
        <time>2018-12-29T08:51:10Z</time>
      </trkpt>
      <trkpt lat="41.343114785850048" lon="1.470036031678319">
        <ele>619.79998779296875</ele>
        <time>2018-12-29T08:51:12Z</time>
      </trkpt>
      <trkpt lat="41.343091567978263" lon="1.470007533207536">
        <ele>619.79998779296875</ele>
        <time>2018-12-29T08:51:13Z</time>
      </trkpt>
      <trkpt lat="41.343068266287446" lon="1.469977609813213">
        <ele>620</ele>
        <time>2018-12-29T08:51:14Z</time>
      </trkpt>
      <trkpt lat="41.343024345114827" lon="1.469915667548776">
        <ele>620.4000244140625</ele>
        <time>2018-12-29T08:51:16Z</time>
      </trkpt>
      <trkpt lat="41.342987883836031" lon="1.469855820760131">
        <ele>620.79998779296875</ele>
        <time>2018-12-29T08:51:18Z</time>
      </trkpt>
      <trkpt lat="41.342967348173261" lon="1.469826148822904">
        <ele>620.79998779296875</ele>
        <time>2018-12-29T08:51:19Z</time>
      </trkpt>
      <trkpt lat="41.342946561053395" lon="1.469798656180501">
        <ele>621</ele>
        <time>2018-12-29T08:51:20Z</time>
      </trkpt>
      <trkpt lat="41.34292677976191" lon="1.46977175027132">
        <ele>621.4000244140625</ele>
        <time>2018-12-29T08:51:21Z</time>
      </trkpt>
      <trkpt lat="41.34290523827076" lon="1.469744928181171">
        <ele>621.5999755859375</ele>
        <time>2018-12-29T08:51:22Z</time>
      </trkpt>
      <trkpt lat="41.342860898002982" lon="1.469691535457969">
        <ele>622</ele>
        <time>2018-12-29T08:51:24Z</time>
      </trkpt>
      <trkpt lat="41.342817563563585" lon="1.469632610678673">
        <ele>622.4000244140625</ele>
        <time>2018-12-29T08:51:26Z</time>
      </trkpt>
      <trkpt lat="41.342799123376608" lon="1.469602268189192">
        <ele>622.5999755859375</ele>
        <time>2018-12-29T08:51:27Z</time>
      </trkpt>
      <trkpt lat="41.342781605198979" lon="1.469570165500045">
        <ele>622.79998779296875</ele>
        <time>2018-12-29T08:51:28Z</time>
      </trkpt>
      <trkpt lat="41.342744724825025" lon="1.469508642330766">
        <ele>623.20001220703125</ele>
        <time>2018-12-29T08:51:30Z</time>
      </trkpt>
      <trkpt lat="41.34272544644773" lon="1.469483161345124">
        <ele>623.4000244140625</ele>
        <time>2018-12-29T08:51:31Z</time>
      </trkpt>
      <trkpt lat="41.342706922441721" lon="1.469458350911737">
        <ele>623.79998779296875</ele>
        <time>2018-12-29T08:51:32Z</time>
      </trkpt>
      <trkpt lat="41.342669203877449" lon="1.469410071149468">
        <ele>624.4000244140625</ele>
        <time>2018-12-29T08:51:34Z</time>
      </trkpt>
      <trkpt lat="41.342648332938552" lon="1.469384841620922">
        <ele>624.5999755859375</ele>
        <time>2018-12-29T08:51:35Z</time>
      </trkpt>
      <trkpt lat="41.342626875266433" lon="1.469357097521424">
        <ele>624.79998779296875</ele>
        <time>2018-12-29T08:51:36Z</time>
      </trkpt>
      <trkpt lat="41.342585468664765" lon="1.469307225197554">
        <ele>625.20001220703125</ele>
        <time>2018-12-29T08:51:38Z</time>
      </trkpt>
      <trkpt lat="41.342541882768273" lon="1.469256263226271">
        <ele>625.5999755859375</ele>
        <time>2018-12-29T08:51:40Z</time>
      </trkpt>
      <trkpt lat="41.342517826706171" lon="1.469233045354486">
        <ele>625.79998779296875</ele>
        <time>2018-12-29T08:51:41Z</time>
      </trkpt>
      <trkpt lat="41.342496117576957" lon="1.469211503863335">
        <ele>626</ele>
        <time>2018-12-29T08:51:42Z</time>
      </trkpt>
      <trkpt lat="41.34247331880033" lon="1.469191471114755">
        <ele>626.20001220703125</ele>
        <time>2018-12-29T08:51:43Z</time>
      </trkpt>
      <trkpt lat="41.342449933290482" lon="1.469174204394221">
        <ele>626.4000244140625</ele>
        <time>2018-12-29T08:51:44Z</time>
      </trkpt>
      <trkpt lat="41.342424787580967" lon="1.4691580273211">
        <ele>627</ele>
        <time>2018-12-29T08:51:45Z</time>
      </trkpt>
      <trkpt lat="41.342400899156928" lon="1.469144029542804">
        <ele>627.4000244140625</ele>
        <time>2018-12-29T08:51:46Z</time>
      </trkpt>
      <trkpt lat="41.34235605597496" lon="1.469114776700735">
        <ele>628</ele>
        <time>2018-12-29T08:51:48Z</time>
      </trkpt>
      <trkpt lat="41.342334095388651" lon="1.46910035982728">
        <ele>628</ele>
        <time>2018-12-29T08:51:49Z</time>
      </trkpt>
      <trkpt lat="41.342311464250088" lon="1.469086781144142">
        <ele>628.20001220703125</ele>
        <time>2018-12-29T08:51:50Z</time>
      </trkpt>
      <trkpt lat="41.342262346297503" lon="1.469068676233292">
        <ele>628.5999755859375</ele>
        <time>2018-12-29T08:51:52Z</time>
      </trkpt>
      <trkpt lat="41.342210294678807" lon="1.469056187197566">
        <ele>629</ele>
        <time>2018-12-29T08:51:54Z</time>
      </trkpt>
      <trkpt lat="41.342183472588658" lon="1.469050152227283">
        <ele>629.20001220703125</ele>
        <time>2018-12-29T08:51:55Z</time>
      </trkpt>
      <trkpt lat="41.3421571534127" lon="1.469047386199236">
        <ele>629.4000244140625</ele>
        <time>2018-12-29T08:51:56Z</time>
      </trkpt>
      <trkpt lat="41.34213225916028" lon="1.469047386199236">
        <ele>629.5999755859375</ele>
        <time>2018-12-29T08:51:57Z</time>
      </trkpt>
      <trkpt lat="41.34210585616529" lon="1.469043027609587">
        <ele>629.79998779296875</ele>
        <time>2018-12-29T08:51:58Z</time>
      </trkpt>
      <trkpt lat="41.342056822031736" lon="1.469021150842309">
        <ele>630.20001220703125</ele>
        <time>2018-12-29T08:52:00Z</time>
      </trkpt>
      <trkpt lat="41.342032849788666" lon="1.469012349843979">
        <ele>630.4000244140625</ele>
        <time>2018-12-29T08:52:01Z</time>
      </trkpt>
      <trkpt lat="41.342008206993341" lon="1.469008410349488">
        <ele>630.5999755859375</ele>
        <time>2018-12-29T08:52:02Z</time>
      </trkpt>
      <trkpt lat="41.341960681602359" lon="1.468995502218604">
        <ele>631.20001220703125</ele>
        <time>2018-12-29T08:52:04Z</time>
      </trkpt>
      <trkpt lat="41.341937128454447" lon="1.468986449763179">
        <ele>631.4000244140625</ele>
        <time>2018-12-29T08:52:05Z</time>
      </trkpt>
      <trkpt lat="41.341913659125566" lon="1.468980079516769">
        <ele>631.5999755859375</ele>
        <time>2018-12-29T08:52:06Z</time>
      </trkpt>
      <trkpt lat="41.341865127906203" lon="1.468977145850658">
        <ele>632.20001220703125</ele>
        <time>2018-12-29T08:52:08Z</time>
      </trkpt>
      <trkpt lat="41.341840149834752" lon="1.468973876908422">
        <ele>632.4000244140625</ele>
        <time>2018-12-29T08:52:09Z</time>
      </trkpt>
      <trkpt lat="41.341815926134586" lon="1.468961890786886">
        <ele>632.79998779296875</ele>
        <time>2018-12-29T08:52:10Z</time>
      </trkpt>
      <trkpt lat="41.341770412400365" lon="1.468929788097739">
        <ele>633.4000244140625</ele>
        <time>2018-12-29T08:52:12Z</time>
      </trkpt>
      <trkpt lat="41.341746523976326" lon="1.468915455043316">
        <ele>633.5999755859375</ele>
        <time>2018-12-29T08:52:13Z</time>
      </trkpt>
      <trkpt lat="41.341725569218397" lon="1.468902630731463">
        <ele>633.79998779296875</ele>
        <time>2018-12-29T08:52:14Z</time>
      </trkpt>
      <trkpt lat="41.341688353568316" lon="1.468863235786557">
        <ele>634.5999755859375</ele>
        <time>2018-12-29T08:52:16Z</time>
      </trkpt>
      <trkpt lat="41.341673601418734" lon="1.468840520828962">
        <ele>634.79998779296875</ele>
        <time>2018-12-29T08:52:17Z</time>
      </trkpt>
      <trkpt lat="41.341655580326915" lon="1.468813698738813">
        <ele>635.20001220703125</ele>
        <time>2018-12-29T08:52:18Z</time>
      </trkpt>
      <trkpt lat="41.3416269980371" lon="1.468756617978215">
        <ele>635.4000244140625</ele>
        <time>2018-12-29T08:52:20Z</time>
      </trkpt>
      <trkpt lat="41.341604618355632" lon="1.468696016818285">
        <ele>635.79998779296875</ele>
        <time>2018-12-29T08:52:22Z</time>
      </trkpt>
      <trkpt lat="41.341597409918904" lon="1.468671290203929">
        <ele>636</ele>
        <time>2018-12-29T08:52:23Z</time>
      </trkpt>
      <trkpt lat="41.341591542586684" lon="1.468644132837653">
        <ele>636</ele>
        <time>2018-12-29T08:52:24Z</time>
      </trkpt>
      <trkpt lat="41.341578885912895" lon="1.468578753992915">
        <ele>636.20001220703125</ele>
        <time>2018-12-29T08:52:26Z</time>
      </trkpt>
      <trkpt lat="41.341563630849123" lon="1.468511195853353">
        <ele>636</ele>
        <time>2018-12-29T08:52:28Z</time>
      </trkpt>
      <trkpt lat="41.341547872871161" lon="1.46843533962965">
        <ele>635.79998779296875</ele>
        <time>2018-12-29T08:52:30Z</time>
      </trkpt>
      <trkpt lat="41.341524654999375" lon="1.468343893066049">
        <ele>635.4000244140625</ele>
        <time>2018-12-29T08:52:32Z</time>
      </trkpt>
      <trkpt lat="41.341509148478508" lon="1.468258062377572">
        <ele>635</ele>
        <time>2018-12-29T08:52:34Z</time>
      </trkpt>
      <trkpt lat="41.341500515118241" lon="1.468215901404619">
        <ele>634.79998779296875</ele>
        <time>2018-12-29T08:52:35Z</time>
      </trkpt>
      <trkpt lat="41.341491546481848" lon="1.468170890584588">
        <ele>634.5999755859375</ele>
        <time>2018-12-29T08:52:36Z</time>
      </trkpt>
      <trkpt lat="41.341474279761314" lon="1.468077097088099">
        <ele>634</ele>
        <time>2018-12-29T08:52:38Z</time>
      </trkpt>
      <trkpt lat="41.341466400772333" lon="1.46802588365972">
        <ele>633.5999755859375</ele>
        <time>2018-12-29T08:52:39Z</time>
      </trkpt>
      <trkpt lat="41.341457096859813" lon="1.467972239479423">
        <ele>633.4000244140625</ele>
        <time>2018-12-29T08:52:40Z</time>
      </trkpt>
      <trkpt lat="41.34143739938736" lon="1.467859586700797">
        <ele>632.79998779296875</ele>
        <time>2018-12-29T08:52:42Z</time>
      </trkpt>
      <trkpt lat="41.34142859838903" lon="1.467803176492453">
        <ele>632.5999755859375</ele>
        <time>2018-12-29T08:52:43Z</time>
      </trkpt>
      <trkpt lat="41.341420970857143" lon="1.467749616131187">
        <ele>632.20001220703125</ele>
        <time>2018-12-29T08:52:44Z</time>
      </trkpt>
      <trkpt lat="41.341405212879181" lon="1.467632101848722">
        <ele>631.5999755859375</ele>
        <time>2018-12-29T08:52:46Z</time>
      </trkpt>
      <trkpt lat="41.341399680823088" lon="1.467567561194301">
        <ele>631</ele>
        <time>2018-12-29T08:52:47Z</time>
      </trkpt>
      <trkpt lat="41.341396663337946" lon="1.467496734112501">
        <ele>630.5999755859375</ele>
        <time>2018-12-29T08:52:48Z</time>
      </trkpt>
      <trkpt lat="41.341394819319248" lon="1.467422638088465">
        <ele>630.20001220703125</ele>
        <time>2018-12-29T08:52:49Z</time>
      </trkpt>
      <trkpt lat="41.341392137110233" lon="1.467344183474779">
        <ele>629.5999755859375</ele>
        <time>2018-12-29T08:52:50Z</time>
      </trkpt>
      <trkpt lat="41.341391215100884" lon="1.467184256762266">
        <ele>628.4000244140625</ele>
        <time>2018-12-29T08:52:52Z</time>
      </trkpt>
      <trkpt lat="41.341391215100884" lon="1.467020977288485">
        <ele>627.4000244140625</ele>
        <time>2018-12-29T08:52:54Z</time>
      </trkpt>
      <trkpt lat="41.34139146655798" lon="1.466940008103848">
        <ele>627</ele>
        <time>2018-12-29T08:52:55Z</time>
      </trkpt>
      <trkpt lat="41.341391550377011" lon="1.466860044747591">
        <ele>626.4000244140625</ele>
        <time>2018-12-29T08:52:56Z</time>
      </trkpt>
      <trkpt lat="41.341390125453472" lon="1.466781087219715">
        <ele>625.5999755859375</ele>
        <time>2018-12-29T08:52:57Z</time>
      </trkpt>
      <trkpt lat="41.341388365253806" lon="1.466704057529569">
        <ele>625.20001220703125</ele>
        <time>2018-12-29T08:52:58Z</time>
      </trkpt>
      <trkpt lat="41.341393142938614" lon="1.466545974835753">
        <ele>624.4000244140625</ele>
        <time>2018-12-29T08:53:00Z</time>
      </trkpt>
      <trkpt lat="41.341405715793371" lon="1.466464754194021">
        <ele>624</ele>
        <time>2018-12-29T08:53:01Z</time>
      </trkpt>
      <trkpt lat="41.341424575075507" lon="1.466381689533591">
        <ele>623.4000244140625</ele>
        <time>2018-12-29T08:53:02Z</time>
      </trkpt>
      <trkpt lat="41.341472016647458" lon="1.466199131682515">
        <ele>621.79998779296875</ele>
        <time>2018-12-29T08:53:04Z</time>
      </trkpt>
      <trkpt lat="41.341502610594034" lon="1.466102991253138">
        <ele>621.20001220703125</ele>
        <time>2018-12-29T08:53:05Z</time>
      </trkpt>
      <trkpt lat="41.341537227854133" lon="1.466004922986031">
        <ele>620.79998779296875</ele>
        <time>2018-12-29T08:53:06Z</time>
      </trkpt>
      <trkpt lat="41.341619119048119" lon="1.46580358967185">
        <ele>619.5999755859375</ele>
        <time>2018-12-29T08:53:08Z</time>
      </trkpt>
      <trkpt lat="41.341724479570985" lon="1.465601669624448">
        <ele>618.20001220703125</ele>
        <time>2018-12-29T08:53:10Z</time>
      </trkpt>
      <trkpt lat="41.341835791245103" lon="1.465421123430133">
        <ele>616.5999755859375</ele>
        <time>2018-12-29T08:53:12Z</time>
      </trkpt>
      <trkpt lat="41.341896979138255" lon="1.465349458158016">
        <ele>615.5999755859375</ele>
        <time>2018-12-29T08:53:13Z</time>
      </trkpt>
      <trkpt lat="41.341963112354279" lon="1.46529640071094">
        <ele>614.79998779296875</ele>
        <time>2018-12-29T08:53:14Z</time>
      </trkpt>
      <trkpt lat="41.342029748484492" lon="1.465267231687903">
        <ele>614</ele>
        <time>2018-12-29T08:53:15Z</time>
      </trkpt>
      <trkpt lat="41.342097725719213" lon="1.465264549478889">
        <ele>613.4000244140625</ele>
        <time>2018-12-29T08:53:16Z</time>
      </trkpt>
      <trkpt lat="41.342165535315871" lon="1.465290449559689">
        <ele>612.4000244140625</ele>
        <time>2018-12-29T08:53:17Z</time>
      </trkpt>
      <trkpt lat="41.342232003808022" lon="1.465318193659186">
        <ele>611.5999755859375</ele>
        <time>2018-12-29T08:53:18Z</time>
      </trkpt>
      <trkpt lat="41.342298807576299" lon="1.465320708230138">
        <ele>610.79998779296875</ele>
        <time>2018-12-29T08:53:19Z</time>
      </trkpt>
      <trkpt lat="41.342364689335227" lon="1.465298915281892">
        <ele>610.4000244140625</ele>
        <time>2018-12-29T08:53:20Z</time>
      </trkpt>
      <trkpt lat="41.342416489496827" lon="1.46525289863348">
        <ele>609.5999755859375</ele>
        <time>2018-12-29T08:53:21Z</time>
      </trkpt>
      <trkpt lat="41.342454794794321" lon="1.465184167027473">
        <ele>609.20001220703125</ele>
        <time>2018-12-29T08:53:22Z</time>
      </trkpt>
      <trkpt lat="41.342525286599994" lon="1.464999346062541">
        <ele>608.20001220703125</ele>
        <time>2018-12-29T08:53:24Z</time>
      </trkpt>
      <trkpt lat="41.34257105179131" lon="1.464918125420809">
        <ele>607.5999755859375</ele>
        <time>2018-12-29T08:53:25Z</time>
      </trkpt>
      <trkpt lat="41.34261405095458" lon="1.464845789596438">
        <ele>606.79998779296875</ele>
        <time>2018-12-29T08:53:26Z</time>
      </trkpt>
      <trkpt lat="41.342640621587634" lon="1.464772447943687">
        <ele>606.4000244140625</ele>
        <time>2018-12-29T08:53:27Z</time>
      </trkpt>
      <trkpt lat="41.342640370130539" lon="1.464700447395444">
        <ele>606</ele>
        <time>2018-12-29T08:53:28Z</time>
      </trkpt>
      <trkpt lat="41.342613212764263" lon="1.464639427140355">
        <ele>605.5999755859375</ele>
        <time>2018-12-29T08:53:29Z</time>
      </trkpt>
      <trkpt lat="41.342574404552579" lon="1.46458494476974">
        <ele>605.20001220703125</ele>
        <time>2018-12-29T08:53:30Z</time>
      </trkpt>
      <trkpt lat="41.342528304085135" lon="1.464539263397455">
        <ele>604.79998779296875</ele>
        <time>2018-12-29T08:53:31Z</time>
      </trkpt>
      <trkpt lat="41.342474073171616" lon="1.46447598002851">
        <ele>604.4000244140625</ele>
        <time>2018-12-29T08:53:32Z</time>
      </trkpt>
      <trkpt lat="41.342380279675126" lon="1.464311862364411">
        <ele>603</ele>
        <time>2018-12-29T08:53:34Z</time>
      </trkpt>
      <trkpt lat="41.342337867245078" lon="1.464096028357744">
        <ele>601.4000244140625</ele>
        <time>2018-12-29T08:53:36Z</time>
      </trkpt>
      <trkpt lat="41.34232915006578" lon="1.463976502418518">
        <ele>600.79998779296875</ele>
        <time>2018-12-29T08:53:37Z</time>
      </trkpt>
      <trkpt lat="41.342316158115864" lon="1.463855216279626">
        <ele>600.20001220703125</ele>
        <time>2018-12-29T08:53:38Z</time>
      </trkpt>
      <trkpt lat="41.342290425673127" lon="1.463733091950417">
        <ele>599.5999755859375</ele>
        <time>2018-12-29T08:53:39Z</time>
      </trkpt>
      <trkpt lat="41.342252120375633" lon="1.463626641780138">
        <ele>598.79998779296875</ele>
        <time>2018-12-29T08:53:40Z</time>
      </trkpt>
      <trkpt lat="41.342185065150261" lon="1.463431678712368">
        <ele>597.79998779296875</ele>
        <time>2018-12-29T08:53:42Z</time>
      </trkpt>
      <trkpt lat="41.342179030179977" lon="1.46332866512239">
        <ele>597.79998779296875</ele>
        <time>2018-12-29T08:53:43Z</time>
      </trkpt>
      <trkpt lat="41.342189339920878" lon="1.463226322084665">
        <ele>597.79998779296875</ele>
        <time>2018-12-29T08:53:44Z</time>
      </trkpt>
      <trkpt lat="41.34219529107213" lon="1.463005291298032">
        <ele>597.20001220703125</ele>
        <time>2018-12-29T08:53:46Z</time>
      </trkpt>
      <trkpt lat="41.342181544750929" lon="1.462889285758138">
        <ele>596.5999755859375</ele>
        <time>2018-12-29T08:53:47Z</time>
      </trkpt>
      <trkpt lat="41.342156147584319" lon="1.462772777304053">
        <ele>596</ele>
        <time>2018-12-29T08:53:48Z</time>
      </trkpt>
      <trkpt lat="41.342126810923219" lon="1.462653754279017">
        <ele>595.20001220703125</ele>
        <time>2018-12-29T08:53:49Z</time>
      </trkpt>
      <trkpt lat="41.342096216976643" lon="1.46253121085465">
        <ele>594.4000244140625</ele>
        <time>2018-12-29T08:53:50Z</time>
      </trkpt>
      <trkpt lat="41.34206579066813" lon="1.462406655773521">
        <ele>593.79998779296875</ele>
        <time>2018-12-29T08:53:51Z</time>
      </trkpt>
      <trkpt lat="41.34203645400703" lon="1.46227715536952">
        <ele>593</ele>
        <time>2018-12-29T08:53:52Z</time>
      </trkpt>
      <trkpt lat="41.3420120626688" lon="1.462142625823617">
        <ele>592.4000244140625</ele>
        <time>2018-12-29T08:53:53Z</time>
      </trkpt>
      <trkpt lat="41.341995969414711" lon="1.461998289451003">
        <ele>591.5999755859375</ele>
        <time>2018-12-29T08:53:54Z</time>
      </trkpt>
      <trkpt lat="41.341984570026398" lon="1.461850348860025">
        <ele>590.79998779296875</ele>
        <time>2018-12-29T08:53:55Z</time>
      </trkpt>
      <trkpt lat="41.341969147324562" lon="1.461699642241001">
        <ele>589.4000244140625</ele>
        <time>2018-12-29T08:53:56Z</time>
      </trkpt>
      <trkpt lat="41.341939391568303" lon="1.461555976420641">
        <ele>588.4000244140625</ele>
        <time>2018-12-29T08:53:57Z</time>
      </trkpt>
      <trkpt lat="41.341901002451777" lon="1.461424883455038">
        <ele>587.20001220703125</ele>
        <time>2018-12-29T08:53:58Z</time>
      </trkpt>
      <trkpt lat="41.341813327744603" lon="1.461213743314147">
        <ele>586</ele>
        <time>2018-12-29T08:54:00Z</time>
      </trkpt>
      <trkpt lat="41.341784158721566" lon="1.461116513237357">
        <ele>586</ele>
        <time>2018-12-29T08:54:01Z</time>
      </trkpt>
      <trkpt lat="41.341774184256792" lon="1.461015176028013">
        <ele>585.79998779296875</ele>
        <time>2018-12-29T08:54:02Z</time>
      </trkpt>
      <trkpt lat="41.341787092387676" lon="1.460911743342876">
        <ele>585.5999755859375</ele>
        <time>2018-12-29T08:54:03Z</time>
      </trkpt>
      <trkpt lat="41.341811735183001" lon="1.460809148848057">
        <ele>585.20001220703125</ele>
        <time>2018-12-29T08:54:04Z</time>
      </trkpt>
      <trkpt lat="41.341836880892515" lon="1.460702531039715">
        <ele>584.79998779296875</ele>
        <time>2018-12-29T08:54:05Z</time>
      </trkpt>
      <trkpt lat="41.341848196461797" lon="1.460591722279787">
        <ele>584.4000244140625</ele>
        <time>2018-12-29T08:54:06Z</time>
      </trkpt>
      <trkpt lat="41.341845011338592" lon="1.460478650406003">
        <ele>583.79998779296875</ele>
        <time>2018-12-29T08:54:07Z</time>
      </trkpt>
      <trkpt lat="41.341829923912883" lon="1.460365410894156">
        <ele>583.5999755859375</ele>
        <time>2018-12-29T08:54:08Z</time>
      </trkpt>
      <trkpt lat="41.341772088780999" lon="1.460135914385319">
        <ele>582.20001220703125</ele>
        <time>2018-12-29T08:54:10Z</time>
      </trkpt>
      <trkpt lat="41.341703608632088" lon="1.459887474775314">
        <ele>580.4000244140625</ele>
        <time>2018-12-29T08:54:12Z</time>
      </trkpt>
      <trkpt lat="41.341679133474827" lon="1.459754956886172">
        <ele>579.4000244140625</ele>
        <time>2018-12-29T08:54:13Z</time>
      </trkpt>
      <trkpt lat="41.341666225343943" lon="1.45961313508451">
        <ele>578.20001220703125</ele>
        <time>2018-12-29T08:54:14Z</time>
      </trkpt>
      <trkpt lat="41.341661950573325" lon="1.459462428465486">
        <ele>577</ele>
        <time>2018-12-29T08:54:15Z</time>
      </trkpt>
      <trkpt lat="41.341670164838433" lon="1.459306022152305">
        <ele>575.79998779296875</ele>
        <time>2018-12-29T08:54:16Z</time>
      </trkpt>
      <trkpt lat="41.341684833168983" lon="1.459150370210409">
        <ele>574.79998779296875</ele>
        <time>2018-12-29T08:54:17Z</time>
      </trkpt>
      <trkpt lat="41.341695478186011" lon="1.458993628621101">
        <ele>574</ele>
        <time>2018-12-29T08:54:18Z</time>
      </trkpt>
      <trkpt lat="41.341697908937931" lon="1.458837725222111">
        <ele>573.20001220703125</ele>
        <time>2018-12-29T08:54:19Z</time>
      </trkpt>
      <trkpt lat="41.341695310547948" lon="1.458684839308262">
        <ele>572.5999755859375</ele>
        <time>2018-12-29T08:54:20Z</time>
      </trkpt>
      <trkpt lat="41.341696986928582" lon="1.45853036083281">
        <ele>572</ele>
        <time>2018-12-29T08:54:21Z</time>
      </trkpt>
      <trkpt lat="41.34170226752758" lon="1.458376972004771">
        <ele>571.5999755859375</ele>
        <time>2018-12-29T08:54:22Z</time>
      </trkpt>
      <trkpt lat="41.341712577268481" lon="1.458074301481247">
        <ele>571</ele>
        <time>2018-12-29T08:54:24Z</time>
      </trkpt>
      <trkpt lat="41.341731268912554" lon="1.457925774157047">
        <ele>570.5999755859375</ele>
        <time>2018-12-29T08:54:25Z</time>
      </trkpt>
      <trkpt lat="41.341751972213387" lon="1.4577866345644">
        <ele>570</ele>
        <time>2018-12-29T08:54:26Z</time>
      </trkpt>
      <trkpt lat="41.341775860637426" lon="1.457668533548713">
        <ele>569.5999755859375</ele>
        <time>2018-12-29T08:54:27Z</time>
      </trkpt>
      <trkpt lat="41.341802850365639" lon="1.45757163874805">
        <ele>569.20001220703125</ele>
        <time>2018-12-29T08:54:28Z</time>
      </trkpt>
      <trkpt lat="41.341841323301196" lon="1.45748564042151">
        <ele>569</ele>
        <time>2018-12-29T08:54:29Z</time>
      </trkpt>
      <trkpt lat="41.341891949996352" lon="1.457411712035537">
        <ele>568.5999755859375</ele>
        <time>2018-12-29T08:54:30Z</time>
      </trkpt>
      <trkpt lat="41.341950623318553" lon="1.457363264635205">
        <ele>568.4000244140625</ele>
        <time>2018-12-29T08:54:31Z</time>
      </trkpt>
      <trkpt lat="41.342019774019718" lon="1.45734348334372">
        <ele>568</ele>
        <time>2018-12-29T08:54:32Z</time>
      </trkpt>
      <trkpt lat="41.342096971347928" lon="1.457333341240883">
        <ele>566.79998779296875</ele>
        <time>2018-12-29T08:54:33Z</time>
      </trkpt>
      <trkpt lat="41.342176180332899" lon="1.457329653203487">
        <ele>566.20001220703125</ele>
        <time>2018-12-29T08:54:34Z</time>
      </trkpt>
      <trkpt lat="41.342257568612695" lon="1.457332503050566">
        <ele>565.5999755859375</ele>
        <time>2018-12-29T08:54:35Z</time>
      </trkpt>
      <trkpt lat="41.342338202521205" lon="1.457348261028528">
        <ele>565.20001220703125</ele>
        <time>2018-12-29T08:54:36Z</time>
      </trkpt>
      <trkpt lat="41.342476587742567" lon="1.457418669015169">
        <ele>564.79998779296875</ele>
        <time>2018-12-29T08:54:38Z</time>
      </trkpt>
      <trkpt lat="41.342540457844734" lon="1.457462171092629">
        <ele>565</ele>
        <time>2018-12-29T08:54:39Z</time>
      </trkpt>
      <trkpt lat="41.342596365138888" lon="1.457505505532026">
        <ele>565.5999755859375</ele>
        <time>2018-12-29T08:54:40Z</time>
      </trkpt>
      <trkpt lat="41.342688482254744" lon="1.457583960145712">
        <ele>566.4000244140625</ele>
        <time>2018-12-29T08:54:42Z</time>
      </trkpt>
      <trkpt lat="41.342727541923523" lon="1.457626959308982">
        <ele>566.79998779296875</ele>
        <time>2018-12-29T08:54:43Z</time>
      </trkpt>
      <trkpt lat="41.342764925211668" lon="1.457668952643871">
        <ele>567</ele>
        <time>2018-12-29T08:54:44Z</time>
      </trkpt>
      <trkpt lat="41.34282904677093" lon="1.457752855494618">
        <ele>567.20001220703125</ele>
        <time>2018-12-29T08:54:46Z</time>
      </trkpt>
      <trkpt lat="41.342892916873097" lon="1.457843631505966">
        <ele>567</ele>
        <time>2018-12-29T08:54:48Z</time>
      </trkpt>
      <trkpt lat="41.342931473627687" lon="1.457893839105964">
        <ele>566.79998779296875</ele>
        <time>2018-12-29T08:54:49Z</time>
      </trkpt>
      <trkpt lat="41.342973969876766" lon="1.457951087504625">
        <ele>566.5999755859375</ele>
        <time>2018-12-29T08:54:50Z</time>
      </trkpt>
      <trkpt lat="41.343062231317163" lon="1.458076313138008">
        <ele>566</ele>
        <time>2018-12-29T08:54:52Z</time>
      </trkpt>
      <trkpt lat="41.343113025650382" lon="1.458141272887588">
        <ele>565.5999755859375</ele>
        <time>2018-12-29T08:54:53Z</time>
      </trkpt>
      <trkpt lat="41.343168932944536" lon="1.458208411931992">
        <ele>565.20001220703125</ele>
        <time>2018-12-29T08:54:54Z</time>
      </trkpt>
      <trkpt lat="41.343285106122494" lon="1.458320310339332">
        <ele>564.4000244140625</ele>
        <time>2018-12-29T08:54:56Z</time>
      </trkpt>
      <trkpt lat="41.343432292342186" lon="1.45835685543716">
        <ele>563.5999755859375</ele>
        <time>2018-12-29T08:54:58Z</time>
      </trkpt>
      <trkpt lat="41.343505801633" lon="1.458332631736994">
        <ele>563.20001220703125</ele>
        <time>2018-12-29T08:54:59Z</time>
      </trkpt>
      <trkpt lat="41.343561206012964" lon="1.458286112174392">
        <ele>562.79998779296875</ele>
        <time>2018-12-29T08:55:00Z</time>
      </trkpt>
      <trkpt lat="41.343604791909456" lon="1.458142530173063">
        <ele>562</ele>
        <time>2018-12-29T08:55:02Z</time>
      </trkpt>
      <trkpt lat="41.343602277338505" lon="1.45798453129828">
        <ele>561.4000244140625</ele>
        <time>2018-12-29T08:55:04Z</time>
      </trkpt>
      <trkpt lat="41.343595823273063" lon="1.457898784428835">
        <ele>561.20001220703125</ele>
        <time>2018-12-29T08:55:05Z</time>
      </trkpt>
      <trkpt lat="41.343592638149858" lon="1.45781203173101">
        <ele>561</ele>
        <time>2018-12-29T08:55:06Z</time>
      </trkpt>
      <trkpt lat="41.343574281781912" lon="1.457612961530685">
        <ele>560.20001220703125</ele>
        <time>2018-12-29T08:55:08Z</time>
      </trkpt>
      <trkpt lat="41.34356296621263" lon="1.457507768645883">
        <ele>559.79998779296875</ele>
        <time>2018-12-29T08:55:09Z</time>
      </trkpt>
      <trkpt lat="41.34354586713016" lon="1.457401905208826">
        <ele>559.4000244140625</ele>
        <time>2018-12-29T08:55:10Z</time>
      </trkpt>
      <trkpt lat="41.343524577096105" lon="1.45729897543788">
        <ele>559</ele>
        <time>2018-12-29T08:55:11Z</time>
      </trkpt>
      <trkpt lat="41.343502616509795" lon="1.457200320437551">
        <ele>558.79998779296875</ele>
        <time>2018-12-29T08:55:12Z</time>
      </trkpt>
      <trkpt lat="41.343459198251367" lon="1.457006447017193">
        <ele>559</ele>
        <time>2018-12-29T08:55:14Z</time>
      </trkpt>
      <trkpt lat="41.343410415574908" lon="1.456819698214531">
        <ele>559.4000244140625</ele>
        <time>2018-12-29T08:55:16Z</time>
      </trkpt>
      <trkpt lat="41.343367248773575" lon="1.456637224182487">
        <ele>559.5999755859375</ele>
        <time>2018-12-29T08:55:18Z</time>
      </trkpt>
      <trkpt lat="41.343320226296782" lon="1.456466987729073">
        <ele>559.79998779296875</ele>
        <time>2018-12-29T08:55:20Z</time>
      </trkpt>
      <trkpt lat="41.343278652057052" lon="1.45630463026464">
        <ele>559.5999755859375</ele>
        <time>2018-12-29T08:55:22Z</time>
      </trkpt>
      <trkpt lat="41.343254847452044" lon="1.456226427108049">
        <ele>559.79998779296875</ele>
        <time>2018-12-29T08:55:23Z</time>
      </trkpt>
      <trkpt lat="41.343224672600627" lon="1.456153085455298">
        <ele>559.79998779296875</ele>
        <time>2018-12-29T08:55:24Z</time>
      </trkpt>
      <trkpt lat="41.343162646517158" lon="1.456009922549129">
        <ele>559.5999755859375</ele>
        <time>2018-12-29T08:55:26Z</time>
      </trkpt>
      <trkpt lat="41.343099782243371" lon="1.455848319455981">
        <ele>559</ele>
        <time>2018-12-29T08:55:28Z</time>
      </trkpt>
      <trkpt lat="41.343062650412321" lon="1.455764668062329">
        <ele>558.5999755859375</ele>
        <time>2018-12-29T08:55:29Z</time>
      </trkpt>
      <trkpt lat="41.343026189133525" lon="1.455671964213252">
        <ele>558</ele>
        <time>2018-12-29T08:55:30Z</time>
      </trkpt>
      <trkpt lat="41.342999115586281" lon="1.455574482679367">
        <ele>557.79998779296875</ele>
        <time>2018-12-29T08:55:31Z</time>
      </trkpt>
      <trkpt lat="41.342984028160572" lon="1.455470379441977">
        <ele>557.20001220703125</ele>
        <time>2018-12-29T08:55:32Z</time>
      </trkpt>
      <trkpt lat="41.342996433377266" lon="1.455256389454007">
        <ele>556.20001220703125</ele>
        <time>2018-12-29T08:55:34Z</time>
      </trkpt>
      <trkpt lat="41.343011856079102" lon="1.45514901727438">
        <ele>555.79998779296875</ele>
        <time>2018-12-29T08:55:35Z</time>
      </trkpt>
      <trkpt lat="41.343028787523508" lon="1.455040639266372">
        <ele>555.4000244140625</ele>
        <time>2018-12-29T08:55:36Z</time>
      </trkpt>
      <trkpt lat="41.343062650412321" lon="1.454824218526483">
        <ele>555</ele>
        <time>2018-12-29T08:55:38Z</time>
      </trkpt>
      <trkpt lat="41.34308603592217" lon="1.45461006090045">
        <ele>554.79998779296875</ele>
        <time>2018-12-29T08:55:40Z</time>
      </trkpt>
      <trkpt lat="41.343092825263739" lon="1.454503694549203">
        <ele>554.5999755859375</ele>
        <time>2018-12-29T08:55:41Z</time>
      </trkpt>
      <trkpt lat="41.343094166368246" lon="1.45439900457859">
        <ele>554.5999755859375</ele>
        <time>2018-12-29T08:55:42Z</time>
      </trkpt>
      <trkpt lat="41.343082180246711" lon="1.45418836735189">
        <ele>554.5999755859375</ele>
        <time>2018-12-29T08:55:44Z</time>
      </trkpt>
      <trkpt lat="41.343069104477763" lon="1.454080156981945">
        <ele>554</ele>
        <time>2018-12-29T08:55:45Z</time>
      </trkpt>
      <trkpt lat="41.343053681775928" lon="1.453970856964588">
        <ele>553.5999755859375</ele>
        <time>2018-12-29T08:55:46Z</time>
      </trkpt>
      <trkpt lat="41.343019902706146" lon="1.453738007694483">
        <ele>552.4000244140625</ele>
        <time>2018-12-29T08:55:48Z</time>
      </trkpt>
      <trkpt lat="41.342984531074762" lon="1.453491412103176">
        <ele>551</ele>
        <time>2018-12-29T08:55:50Z</time>
      </trkpt>
      <trkpt lat="41.342944046482444" lon="1.453229896724224">
        <ele>549.79998779296875</ele>
        <time>2018-12-29T08:55:52Z</time>
      </trkpt>
      <trkpt lat="41.342875733971596" lon="1.452976008877158">
        <ele>548.20001220703125</ele>
        <time>2018-12-29T08:55:54Z</time>
      </trkpt>
      <trkpt lat="41.342808930203319" lon="1.452708877623081">
        <ele>546.4000244140625</ele>
        <time>2018-12-29T08:55:56Z</time>
      </trkpt>
      <trkpt lat="41.342756627127528" lon="1.452469155192375">
        <ele>545</ele>
        <time>2018-12-29T08:55:58Z</time>
      </trkpt>
      <trkpt lat="41.342711532488465" lon="1.45222800783813">
        <ele>544</ele>
        <time>2018-12-29T08:56:00Z</time>
      </trkpt>
      <trkpt lat="41.342680435627699" lon="1.452117701992393">
        <ele>543.5999755859375</ele>
        <time>2018-12-29T08:56:01Z</time>
      </trkpt>
      <trkpt lat="41.342645650729537" lon="1.452010916545987">
        <ele>543</ele>
        <time>2018-12-29T08:56:02Z</time>
      </trkpt>
      <trkpt lat="41.342615475878119" lon="1.451903628185391">
        <ele>542.4000244140625</ele>
        <time>2018-12-29T08:56:03Z</time>
      </trkpt>
      <trkpt lat="41.342591755092144" lon="1.451796758919954">
        <ele>541.79998779296875</ele>
        <time>2018-12-29T08:56:04Z</time>
      </trkpt>
      <trkpt lat="41.342580942437053" lon="1.451687961816788">
        <ele>540.79998779296875</ele>
        <time>2018-12-29T08:56:05Z</time>
      </trkpt>
      <trkpt lat="41.342582367360592" lon="1.451572962105274">
        <ele>540</ele>
        <time>2018-12-29T08:56:06Z</time>
      </trkpt>
      <trkpt lat="41.342592677101493" lon="1.451461566612124">
        <ele>539</ele>
        <time>2018-12-29T08:56:07Z</time>
      </trkpt>
      <trkpt lat="41.342611536383629" lon="1.451361319050193">
        <ele>538.4000244140625</ele>
        <time>2018-12-29T08:56:08Z</time>
      </trkpt>
      <trkpt lat="41.342638023197651" lon="1.451266268268228">
        <ele>537</ele>
        <time>2018-12-29T08:56:09Z</time>
      </trkpt>
      <trkpt lat="41.342657972127199" lon="1.451173396781087">
        <ele>536.5999755859375</ele>
        <time>2018-12-29T08:56:10Z</time>
      </trkpt>
      <trkpt lat="41.342638190835714" lon="1.450983043760061">
        <ele>535.5999755859375</ele>
        <time>2018-12-29T08:56:12Z</time>
      </trkpt>
      <trkpt lat="41.342575578019023" lon="1.450790259987116">
        <ele>534.20001220703125</ele>
        <time>2018-12-29T08:56:14Z</time>
      </trkpt>
      <trkpt lat="41.342549175024033" lon="1.450683558359742">
        <ele>533.5999755859375</ele>
        <time>2018-12-29T08:56:15Z</time>
      </trkpt>
      <trkpt lat="41.342521850019693" lon="1.450575431808829">
        <ele>533</ele>
        <time>2018-12-29T08:56:16Z</time>
      </trkpt>
      <trkpt lat="41.342441635206342" lon="1.45035021007061">
        <ele>531.4000244140625</ele>
        <time>2018-12-29T08:56:18Z</time>
      </trkpt>
      <trkpt lat="41.342332838103175" lon="1.450121300294995">
        <ele>529.5999755859375</ele>
        <time>2018-12-29T08:56:20Z</time>
      </trkpt>
      <trkpt lat="41.342209707945585" lon="1.449894150719047">
        <ele>527.79998779296875</ele>
        <time>2018-12-29T08:56:22Z</time>
      </trkpt>
      <trkpt lat="41.342102671042085" lon="1.449697427451611">
        <ele>526.20001220703125</ele>
        <time>2018-12-29T08:56:24Z</time>
      </trkpt>
      <trkpt lat="41.342021115124226" lon="1.449508834630251">
        <ele>525.20001220703125</ele>
        <time>2018-12-29T08:56:26Z</time>
      </trkpt>
      <trkpt lat="41.341988844797015" lon="1.44932066090405">
        <ele>524.20001220703125</ele>
        <time>2018-12-29T08:56:28Z</time>
      </trkpt>
      <trkpt lat="41.341994209215045" lon="1.449228459969163">
        <ele>523.79998779296875</ele>
        <time>2018-12-29T08:56:29Z</time>
      </trkpt>
      <trkpt lat="41.342008793726563" lon="1.449141539633274">
        <ele>523.5999755859375</ele>
        <time>2018-12-29T08:56:30Z</time>
      </trkpt>
      <trkpt lat="41.342013403773308" lon="1.449067611247301">
        <ele>523.4000244140625</ele>
        <time>2018-12-29T08:56:31Z</time>
      </trkpt>
      <trkpt lat="41.342011475935578" lon="1.449001226574183">
        <ele>523.20001220703125</ele>
        <time>2018-12-29T08:56:32Z</time>
      </trkpt>
      <trkpt lat="41.341959340497851" lon="1.448892429471016">
        <ele>522.20001220703125</ele>
        <time>2018-12-29T08:56:34Z</time>
      </trkpt>
      <trkpt lat="41.341871833428741" lon="1.448845574632287">
        <ele>521.20001220703125</ele>
        <time>2018-12-29T08:56:36Z</time>
      </trkpt>
      <trkpt lat="41.341814585030079" lon="1.448840713128448">
        <ele>520.79998779296875</ele>
        <time>2018-12-29T08:56:37Z</time>
      </trkpt>
      <trkpt lat="41.341752642765641" lon="1.448831576853991">
        <ele>520.4000244140625</ele>
        <time>2018-12-29T08:56:38Z</time>
      </trkpt>
      <trkpt lat="41.341621801257133" lon="1.448777765035629">
        <ele>519.20001220703125</ele>
        <time>2018-12-29T08:56:40Z</time>
      </trkpt>
      <trkpt lat="41.341557009145617" lon="1.448727305978537">
        <ele>518.5999755859375</ele>
        <time>2018-12-29T08:56:41Z</time>
      </trkpt>
      <trkpt lat="41.341496743261814" lon="1.448668967932463">
        <ele>518</ele>
        <time>2018-12-29T08:56:42Z</time>
      </trkpt>
      <trkpt lat="41.341437567025423" lon="1.448605516925454">
        <ele>517.5999755859375</ele>
        <time>2018-12-29T08:56:43Z</time>
      </trkpt>
      <trkpt lat="41.341375205665827" lon="1.448539132252336">
        <ele>517.20001220703125</ele>
        <time>2018-12-29T08:56:44Z</time>
      </trkpt>
      <trkpt lat="41.341309659183025" lon="1.4484753459692">
        <ele>516.79998779296875</ele>
        <time>2018-12-29T08:56:45Z</time>
      </trkpt>
      <trkpt lat="41.341245034709573" lon="1.448407368734479">
        <ele>516.4000244140625</ele>
        <time>2018-12-29T08:56:46Z</time>
      </trkpt>
      <trkpt lat="41.341188456863165" lon="1.448328411206603">
        <ele>516</ele>
        <time>2018-12-29T08:56:47Z</time>
      </trkpt>
      <trkpt lat="41.34114621207118" lon="1.448237551376224">
        <ele>515.79998779296875</ele>
        <time>2018-12-29T08:56:48Z</time>
      </trkpt>
      <trkpt lat="41.341116456314921" lon="1.448135627433658">
        <ele>515.5999755859375</ele>
        <time>2018-12-29T08:56:49Z</time>
      </trkpt>
      <trkpt lat="41.341093992814422" lon="1.448026746511459">
        <ele>515.20001220703125</ele>
        <time>2018-12-29T08:56:50Z</time>
      </trkpt>
      <trkpt lat="41.341071696951985" lon="1.447916692122817">
        <ele>515</ele>
        <time>2018-12-29T08:56:51Z</time>
      </trkpt>
      <trkpt lat="41.341049652546644" lon="1.447807308286429">
        <ele>514.5999755859375</ele>
        <time>2018-12-29T08:56:52Z</time>
      </trkpt>
      <trkpt lat="41.341034900397062" lon="1.447696918621659">
        <ele>514.20001220703125</ele>
        <time>2018-12-29T08:56:53Z</time>
      </trkpt>
      <trkpt lat="41.341032553464174" lon="1.447584852576256">
        <ele>513.5999755859375</ele>
        <time>2018-12-29T08:56:54Z</time>
      </trkpt>
      <trkpt lat="41.341036912053823" lon="1.447469936683774">
        <ele>513</ele>
        <time>2018-12-29T08:56:55Z</time>
      </trkpt>
      <trkpt lat="41.3410416059196" lon="1.447354685515165">
        <ele>512.79998779296875</ele>
        <time>2018-12-29T08:56:56Z</time>
      </trkpt>
      <trkpt lat="41.341037666425109" lon="1.447235830128193">
        <ele>512.4000244140625</ele>
        <time>2018-12-29T08:56:57Z</time>
      </trkpt>
      <trkpt lat="41.341024674475193" lon="1.44711596891284">
        <ele>511.60000610351562</ele>
        <time>2018-12-29T08:56:58Z</time>
      </trkpt>
      <trkpt lat="41.341003552079201" lon="1.44699920900166">
        <ele>511</ele>
        <time>2018-12-29T08:56:59Z</time>
      </trkpt>
      <trkpt lat="41.340976478531957" lon="1.446887897327542">
        <ele>510.79998779296875</ele>
        <time>2018-12-29T08:57:00Z</time>
      </trkpt>
      <trkpt lat="41.340947896242142" lon="1.446778932586312">
        <ele>510.60000610351562</ele>
        <time>2018-12-29T08:57:01Z</time>
      </trkpt>
      <trkpt lat="41.340924929827452" lon="1.446671979501844">
        <ele>510.79998779296875</ele>
        <time>2018-12-29T08:57:02Z</time>
      </trkpt>
      <trkpt lat="41.340911937877536" lon="1.446563685312867">
        <ele>511</ele>
        <time>2018-12-29T08:57:03Z</time>
      </trkpt>
      <trkpt lat="41.340912021696568" lon="1.446452625095844">
        <ele>510.79998779296875</ele>
        <time>2018-12-29T08:57:04Z</time>
      </trkpt>
      <trkpt lat="41.340925684198737" lon="1.446342822164297">
        <ele>510.39999389648437</ele>
        <time>2018-12-29T08:57:05Z</time>
      </trkpt>
      <trkpt lat="41.340953512117267" lon="1.446237545460463">
        <ele>510</ele>
        <time>2018-12-29T08:57:06Z</time>
      </trkpt>
      <trkpt lat="41.340998522937298" lon="1.446138303726912">
        <ele>509.60000610351563</ele>
        <time>2018-12-29T08:57:07Z</time>
      </trkpt>
      <trkpt lat="41.341052837669849" lon="1.446044845506549">
        <ele>509.20001220703125</ele>
        <time>2018-12-29T08:57:08Z</time>
      </trkpt>
      <trkpt lat="41.341110169887543" lon="1.445951387286186">
        <ele>509</ele>
        <time>2018-12-29T08:57:09Z</time>
      </trkpt>
      <trkpt lat="41.341163143515587" lon="1.445853151381016">
        <ele>508.60000610351562</ele>
        <time>2018-12-29T08:57:10Z</time>
      </trkpt>
      <trkpt lat="41.341211088001728" lon="1.445747455582023">
        <ele>508.20001220703125</ele>
        <time>2018-12-29T08:57:11Z</time>
      </trkpt>
      <trkpt lat="41.341256434097886" lon="1.445639077574015">
        <ele>507.60000610351562</ele>
        <time>2018-12-29T08:57:12Z</time>
      </trkpt>
      <trkpt lat="41.3413006067276" lon="1.445529609918594">
        <ele>507</ele>
        <time>2018-12-29T08:57:13Z</time>
      </trkpt>
      <trkpt lat="41.341342935338616" lon="1.445421986281872">
        <ele>506.60000610351562</ele>
        <time>2018-12-29T08:57:14Z</time>
      </trkpt>
      <trkpt lat="41.341433376073837" lon="1.445240937173367">
        <ele>506.39999389648438</ele>
        <time>2018-12-29T08:57:16Z</time>
      </trkpt>
      <trkpt lat="41.341490959748626" lon="1.445175390690565">
        <ele>506.79998779296875</ele>
        <time>2018-12-29T08:57:17Z</time>
      </trkpt>
      <trkpt lat="41.341550638899207" lon="1.445118729025126">
        <ele>507.20001220703125</ele>
        <time>2018-12-29T08:57:18Z</time>
      </trkpt>
      <trkpt lat="41.341675948351622" lon="1.445023929700255">
        <ele>507.79998779296875</ele>
        <time>2018-12-29T08:57:20Z</time>
      </trkpt>
      <trkpt lat="41.3418048620224" lon="1.444960730150342">
        <ele>508.20001220703125</ele>
        <time>2018-12-29T08:57:22Z</time>
      </trkpt>
      <trkpt lat="41.341951545327902" lon="1.4449542760849">
        <ele>507.79998779296875</ele>
        <time>2018-12-29T08:57:24Z</time>
      </trkpt>
      <trkpt lat="41.342025976628065" lon="1.444967016577721">
        <ele>507.60000610351562</ele>
        <time>2018-12-29T08:57:25Z</time>
      </trkpt>
      <trkpt lat="41.342095378786325" lon="1.444994928315282">
        <ele>507.39999389648437</ele>
        <time>2018-12-29T08:57:26Z</time>
      </trkpt>
      <trkpt lat="41.342223957180977" lon="1.445060558617115">
        <ele>507.39999389648437</ele>
        <time>2018-12-29T08:57:28Z</time>
      </trkpt>
      <trkpt lat="41.342338034883142" lon="1.445044968277216">
        <ele>507.39999389648437</ele>
        <time>2018-12-29T08:57:30Z</time>
      </trkpt>
      <trkpt lat="41.342386733740568" lon="1.444993754848838">
        <ele>507.39999389648437</ele>
        <time>2018-12-29T08:57:31Z</time>
      </trkpt>
      <trkpt lat="41.342432582750916" lon="1.444935835897923">
        <ele>507.60000610351562</ele>
        <time>2018-12-29T08:57:32Z</time>
      </trkpt>
      <trkpt lat="41.342489579692483" lon="1.44481454975903">
        <ele>507.79998779296875</ele>
        <time>2018-12-29T08:57:34Z</time>
      </trkpt>
      <trkpt lat="41.342499889433384" lon="1.444751098752022">
        <ele>508.20001220703125</ele>
        <time>2018-12-29T08:57:35Z</time>
      </trkpt>
      <trkpt lat="41.34249871596694" lon="1.444685636088252">
        <ele>508.39999389648437</ele>
        <time>2018-12-29T08:57:36Z</time>
      </trkpt>
      <trkpt lat="41.342488406226039" lon="1.444544484838843">
        <ele>509</ele>
        <time>2018-12-29T08:57:38Z</time>
      </trkpt>
      <trkpt lat="41.342474659904838" lon="1.444473993033171">
        <ele>509.39999389648437</ele>
        <time>2018-12-29T08:57:39Z</time>
      </trkpt>
      <trkpt lat="41.342459823936224" lon="1.444409284740686">
        <ele>509.79998779296875</ele>
        <time>2018-12-29T08:57:40Z</time>
      </trkpt>
      <trkpt lat="41.342422440648079" lon="1.444291519001126">
        <ele>510.39999389648437</ele>
        <time>2018-12-29T08:57:42Z</time>
      </trkpt>
      <trkpt lat="41.342400396242738" lon="1.44423846155405">
        <ele>510.79998779296875</ele>
        <time>2018-12-29T08:57:43Z</time>
      </trkpt>
      <trkpt lat="41.342374496161938" lon="1.444187415763736">
        <ele>511.20001220703125</ele>
        <time>2018-12-29T08:57:44Z</time>
      </trkpt>
      <trkpt lat="41.342322193086147" lon="1.444081133231521">
        <ele>512.20001220703125</ele>
        <time>2018-12-29T08:57:46Z</time>
      </trkpt>
      <trkpt lat="41.342262849211693" lon="1.443978790193796">
        <ele>512.79998779296875</ele>
        <time>2018-12-29T08:57:48Z</time>
      </trkpt>
      <trkpt lat="41.342194955796003" lon="1.443882817402482">
        <ele>513.5999755859375</ele>
        <time>2018-12-29T08:57:50Z</time>
      </trkpt>
      <trkpt lat="41.342159919440746" lon="1.443833950906992">
        <ele>513.79998779296875</ele>
        <time>2018-12-29T08:57:51Z</time>
      </trkpt>
      <trkpt lat="41.342124799266458" lon="1.443787598982453">
        <ele>514</ele>
        <time>2018-12-29T08:57:52Z</time>
      </trkpt>
      <trkpt lat="41.342054726555943" lon="1.443696320056915">
        <ele>514.5999755859375</ele>
        <time>2018-12-29T08:57:54Z</time>
      </trkpt>
      <trkpt lat="41.342021198943257" lon="1.443651309236884">
        <ele>514.5999755859375</ele>
        <time>2018-12-29T08:57:55Z</time>
      </trkpt>
      <trkpt lat="41.341987336054444" lon="1.443605460226536">
        <ele>514.5999755859375</ele>
        <time>2018-12-29T08:57:56Z</time>
      </trkpt>
      <trkpt lat="41.341919358819723" lon="1.443505464121699">
        <ele>514.79998779296875</ele>
        <time>2018-12-29T08:57:58Z</time>
      </trkpt>
      <trkpt lat="41.341847525909543" lon="1.443405468016863">
        <ele>515</ele>
        <time>2018-12-29T08:58:00Z</time>
      </trkpt>
      <trkpt lat="41.341779213398695" lon="1.443308824673295">
        <ele>515.20001220703125</ele>
        <time>2018-12-29T08:58:02Z</time>
      </trkpt>
      <trkpt lat="41.341710817068815" lon="1.443216539919376">
        <ele>515.5999755859375</ele>
        <time>2018-12-29T08:58:04Z</time>
      </trkpt>
      <trkpt lat="41.341676199808717" lon="1.443169601261616">
        <ele>515.5999755859375</ele>
        <time>2018-12-29T08:58:05Z</time>
      </trkpt>
      <trkpt lat="41.341641331091523" lon="1.443122662603855">
        <ele>515.5999755859375</ele>
        <time>2018-12-29T08:58:06Z</time>
      </trkpt>
      <trkpt lat="41.341572012752295" lon="1.44302761182189">
        <ele>516</ele>
        <time>2018-12-29T08:58:08Z</time>
      </trkpt>
      <trkpt lat="41.341501185670495" lon="1.442930130288005">
        <ele>516.20001220703125</ele>
        <time>2018-12-29T08:58:10Z</time>
      </trkpt>
      <trkpt lat="41.34143547154963" lon="1.442837174981833">
        <ele>516.5999755859375</ele>
        <time>2018-12-29T08:58:12Z</time>
      </trkpt>
      <trkpt lat="41.341367829591036" lon="1.442746315151453">
        <ele>516.79998779296875</ele>
        <time>2018-12-29T08:58:14Z</time>
      </trkpt>
      <trkpt lat="41.341290632262826" lon="1.442661490291357">
        <ele>517</ele>
        <time>2018-12-29T08:58:16Z</time>
      </trkpt>
      <trkpt lat="41.341210752725601" lon="1.44258295185864">
        <ele>517</ele>
        <time>2018-12-29T08:58:18Z</time>
      </trkpt>
      <trkpt lat="41.341169597581029" lon="1.442544814199209">
        <ele>517</ele>
        <time>2018-12-29T08:58:19Z</time>
      </trkpt>
      <trkpt lat="41.341127352789044" lon="1.442510616034269">
        <ele>517.20001220703125</ele>
        <time>2018-12-29T08:58:20Z</time>
      </trkpt>
      <trkpt lat="41.341046970337629" lon="1.44245152361691">
        <ele>517.4000244140625</ele>
        <time>2018-12-29T08:58:22Z</time>
      </trkpt>
      <trkpt lat="41.340970192104578" lon="1.44239779561758">
        <ele>517.79998779296875</ele>
        <time>2018-12-29T08:58:24Z</time>
      </trkpt>
      <trkpt lat="41.340896934270859" lon="1.442345743998885">
        <ele>518.20001220703125</ele>
        <time>2018-12-29T08:58:26Z</time>
      </trkpt>
      <trkpt lat="41.340823089703918" lon="1.442300146445632">
        <ele>518.79998779296875</ele>
        <time>2018-12-29T08:58:28Z</time>
      </trkpt>
      <trkpt lat="41.340788975358009" lon="1.442279107868671">
        <ele>519</ele>
        <time>2018-12-29T08:58:29Z</time>
      </trkpt>
      <trkpt lat="41.340756034478545" lon="1.442255135625601">
        <ele>519.20001220703125</ele>
        <time>2018-12-29T08:58:30Z</time>
      </trkpt>
      <trkpt lat="41.340693002566695" lon="1.442213226109743">
        <ele>520</ele>
        <time>2018-12-29T08:58:32Z</time>
      </trkpt>
      <trkpt lat="41.34066148661077" lon="1.442194702103734">
        <ele>520.20001220703125</ele>
        <time>2018-12-29T08:58:33Z</time>
      </trkpt>
      <trkpt lat="41.340631982311606" lon="1.442175507545471">
        <ele>520.79998779296875</ele>
        <time>2018-12-29T08:58:34Z</time>
      </trkpt>
      <trkpt lat="41.340572386980057" lon="1.442131754010916">
        <ele>521.4000244140625</ele>
        <time>2018-12-29T08:58:36Z</time>
      </trkpt>
      <trkpt lat="41.340512288734317" lon="1.442083138972521">
        <ele>521.79998779296875</ele>
        <time>2018-12-29T08:58:38Z</time>
      </trkpt>
      <trkpt lat="41.340452609583735" lon="1.44203863106668">
        <ele>522.4000244140625</ele>
        <time>2018-12-29T08:58:40Z</time>
      </trkpt>
      <trkpt lat="41.340417992323637" lon="1.442017508670688">
        <ele>522.5999755859375</ele>
        <time>2018-12-29T08:58:41Z</time>
      </trkpt>
      <trkpt lat="41.340383877977729" lon="1.441995715722442">
        <ele>522.79998779296875</ele>
        <time>2018-12-29T08:58:42Z</time>
      </trkpt>
      <trkpt lat="41.340323276817799" lon="1.441953387111425">
        <ele>523.4000244140625</ele>
        <time>2018-12-29T08:58:44Z</time>
      </trkpt>
      <trkpt lat="41.340262088924646" lon="1.441910387948155">
        <ele>523.79998779296875</ele>
        <time>2018-12-29T08:58:46Z</time>
      </trkpt>
      <trkpt lat="41.340203667059541" lon="1.441862778738141">
        <ele>524.20001220703125</ele>
        <time>2018-12-29T08:58:48Z</time>
      </trkpt>
      <trkpt lat="41.340143904089928" lon="1.441819025203586">
        <ele>524.5999755859375</ele>
        <time>2018-12-29T08:58:50Z</time>
      </trkpt>
      <trkpt lat="41.340113477781415" lon="1.441796142607927">
        <ele>524.79998779296875</ele>
        <time>2018-12-29T08:58:51Z</time>
      </trkpt>
      <trkpt lat="41.340087158605456" lon="1.441770326346159">
        <ele>525.20001220703125</ele>
        <time>2018-12-29T08:58:52Z</time>
      </trkpt>
      <trkpt lat="41.3400365319103" lon="1.441709054633975">
        <ele>525.5999755859375</ele>
        <time>2018-12-29T08:58:54Z</time>
      </trkpt>
      <trkpt lat="41.339987330138683" lon="1.441645016893745">
        <ele>525.79998779296875</ele>
        <time>2018-12-29T08:58:56Z</time>
      </trkpt>
      <trkpt lat="41.339964447543025" lon="1.441609729081392">
        <ele>526</ele>
        <time>2018-12-29T08:58:57Z</time>
      </trkpt>
      <trkpt lat="41.339940978214145" lon="1.441574273630977">
        <ele>526.5999755859375</ele>
        <time>2018-12-29T08:58:58Z</time>
      </trkpt>
      <trkpt lat="41.339895715937018" lon="1.441498501226306">
        <ele>526.79998779296875</ele>
        <time>2018-12-29T08:59:00Z</time>
      </trkpt>
      <trkpt lat="41.339846346527338" lon="1.441420884802938">
        <ele>527.20001220703125</ele>
        <time>2018-12-29T08:59:02Z</time>
      </trkpt>
      <trkpt lat="41.339805107563734" lon="1.441347878426313">
        <ele>527.5999755859375</ele>
        <time>2018-12-29T08:59:04Z</time>
      </trkpt>
      <trkpt lat="41.339787002652884" lon="1.441310243681073">
        <ele>527.79998779296875</ele>
        <time>2018-12-29T08:59:05Z</time>
      </trkpt>
      <trkpt lat="41.339769065380096" lon="1.441270764917135">
        <ele>527.79998779296875</ele>
        <time>2018-12-29T08:59:06Z</time>
      </trkpt>
      <trkpt lat="41.339738387614489" lon="1.441185856238008">
        <ele>527.79998779296875</ele>
        <time>2018-12-29T08:59:08Z</time>
      </trkpt>
      <trkpt lat="41.339718271046877" lon="1.441088458523154">
        <ele>528</ele>
        <time>2018-12-29T08:59:10Z</time>
      </trkpt>
      <trkpt lat="41.339694214984775" lon="1.440986283123493">
        <ele>528.20001220703125</ele>
        <time>2018-12-29T08:59:12Z</time>
      </trkpt>
      <trkpt lat="41.339673092588782" lon="1.440879330039024">
        <ele>528</ele>
        <time>2018-12-29T08:59:14Z</time>
      </trkpt>
      <trkpt lat="41.339651299640536" lon="1.440763073042035">
        <ele>527.79998779296875</ele>
        <time>2018-12-29T08:59:16Z</time>
      </trkpt>
      <trkpt lat="41.339625148102641" lon="1.440639523789287">
        <ele>527.5999755859375</ele>
        <time>2018-12-29T08:59:18Z</time>
      </trkpt>
      <trkpt lat="41.339602433145046" lon="1.440506586804986">
        <ele>527</ele>
        <time>2018-12-29T08:59:20Z</time>
      </trkpt>
      <trkpt lat="41.339575443416834" lon="1.440370297059417">
        <ele>526.79998779296875</ele>
        <time>2018-12-29T08:59:22Z</time>
      </trkpt>
      <trkpt lat="41.339539401233196" lon="1.440229816362262">
        <ele>526.5999755859375</ele>
        <time>2018-12-29T08:59:24Z</time>
      </trkpt>
      <trkpt lat="41.339511489495635" lon="1.440103417262435">
        <ele>526.4000244140625</ele>
        <time>2018-12-29T08:59:26Z</time>
      </trkpt>
      <trkpt lat="41.339486427605152" lon="1.439970899373293">
        <ele>526.20001220703125</ele>
        <time>2018-12-29T08:59:28Z</time>
      </trkpt>
      <trkpt lat="41.339475195854902" lon="1.43990334123373">
        <ele>526</ele>
        <time>2018-12-29T08:59:29Z</time>
      </trkpt>
      <trkpt lat="41.339461114257574" lon="1.439836286008358">
        <ele>525.79998779296875</ele>
        <time>2018-12-29T08:59:30Z</time>
      </trkpt>
      <trkpt lat="41.339429095387459" lon="1.439696224406362">
        <ele>525.5999755859375</ele>
        <time>2018-12-29T08:59:32Z</time>
      </trkpt>
      <trkpt lat="41.33939447812736" lon="1.439550211653113">
        <ele>525.20001220703125</ele>
        <time>2018-12-29T08:59:34Z</time>
      </trkpt>
      <trkpt lat="41.339347455650568" lon="1.439401600509882">
        <ele>524.79998779296875</ele>
        <time>2018-12-29T08:59:36Z</time>
      </trkpt>
      <trkpt lat="41.339282412081957" lon="1.439241673797369">
        <ele>524.20001220703125</ele>
        <time>2018-12-29T08:59:38Z</time>
      </trkpt>
      <trkpt lat="41.339245950803161" lon="1.439156429842114">
        <ele>523.5999755859375</ele>
        <time>2018-12-29T08:59:39Z</time>
      </trkpt>
      <trkpt lat="41.339207561686635" lon="1.439064145088196">
        <ele>523.20001220703125</ele>
        <time>2018-12-29T08:59:40Z</time>
      </trkpt>
      <trkpt lat="41.33912960998714" lon="1.438862727954984">
        <ele>522</ele>
        <time>2018-12-29T08:59:42Z</time>
      </trkpt>
      <trkpt lat="41.339088706299663" lon="1.438755858689547">
        <ele>521.4000244140625</ele>
        <time>2018-12-29T08:59:43Z</time>
      </trkpt>
      <trkpt lat="41.339046210050583" lon="1.438644714653492">
        <ele>520.5999755859375</ele>
        <time>2018-12-29T08:59:44Z</time>
      </trkpt>
      <trkpt lat="41.338953925296664" lon="1.438423851504922">
        <ele>518.79998779296875</ele>
        <time>2018-12-29T08:59:46Z</time>
      </trkpt>
      <trkpt lat="41.338856108486652" lon="1.438197875395417">
        <ele>517.4000244140625</ele>
        <time>2018-12-29T08:59:48Z</time>
      </trkpt>
      <trkpt lat="41.338754938915372" lon="1.437961338087916">
        <ele>515.79998779296875</ele>
        <time>2018-12-29T08:59:50Z</time>
      </trkpt>
      <trkpt lat="41.338650165125728" lon="1.437717005610466">
        <ele>515</ele>
        <time>2018-12-29T08:59:52Z</time>
      </trkpt>
      <trkpt lat="41.338596353307366" lon="1.437595216557384">
        <ele>514.4000244140625</ele>
        <time>2018-12-29T08:59:53Z</time>
      </trkpt>
      <trkpt lat="41.338540278375149" lon="1.43747191876173">
        <ele>514</ele>
        <time>2018-12-29T08:59:54Z</time>
      </trkpt>
      <trkpt lat="41.338482946157455" lon="1.43734828568995">
        <ele>513.4000244140625</ele>
        <time>2018-12-29T08:59:55Z</time>
      </trkpt>
      <trkpt lat="41.338424608111382" lon="1.437224317342043">
        <ele>512.5999755859375</ele>
        <time>2018-12-29T08:59:56Z</time>
      </trkpt>
      <trkpt lat="41.338366772979498" lon="1.437098504975438">
        <ele>512</ele>
        <time>2018-12-29T08:59:57Z</time>
      </trkpt>
      <trkpt lat="41.338309189304709" lon="1.436968836933374">
        <ele>511.39999389648438</ele>
        <time>2018-12-29T08:59:58Z</time>
      </trkpt>
      <trkpt lat="41.338249761611223" lon="1.43683816306293">
        <ele>510.60000610351562</ele>
        <time>2018-12-29T08:59:59Z</time>
      </trkpt>
      <trkpt lat="41.338189411908388" lon="1.436706315726042">
        <ele>509.79998779296875</ele>
        <time>2018-12-29T09:00:00Z</time>
      </trkpt>
      <trkpt lat="41.33812990039587" lon="1.436573043465614">
        <ele>509</ele>
        <time>2018-12-29T09:00:01Z</time>
      </trkpt>
      <trkpt lat="41.338066952303052" lon="1.436439184471965">
        <ele>508.20001220703125</ele>
        <time>2018-12-29T09:00:02Z</time>
      </trkpt>
      <trkpt lat="41.338002998381853" lon="1.436304654926062">
        <ele>507.60000610351562</ele>
        <time>2018-12-29T09:00:03Z</time>
      </trkpt>
      <trkpt lat="41.337933260947466" lon="1.436174483969808">
        <ele>506.79998779296875</ele>
        <time>2018-12-29T09:00:04Z</time>
      </trkpt>
      <trkpt lat="41.337857907637954" lon="1.436054203659296">
        <ele>506.20001220703125</ele>
        <time>2018-12-29T09:00:05Z</time>
      </trkpt>
      <trkpt lat="41.337774004787207" lon="1.435939706861973">
        <ele>505.20001220703125</ele>
        <time>2018-12-29T09:00:06Z</time>
      </trkpt>
      <trkpt lat="41.337687755003572" lon="1.435827054083347">
        <ele>504.39999389648437</ele>
        <time>2018-12-29T09:00:07Z</time>
      </trkpt>
      <trkpt lat="41.337600834667683" lon="1.435717334970832">
        <ele>503.79998779296875</ele>
        <time>2018-12-29T09:00:08Z</time>
      </trkpt>
      <trkpt lat="41.337514081969857" lon="1.435601329430938">
        <ele>503.39999389648437</ele>
        <time>2018-12-29T09:00:09Z</time>
      </trkpt>
      <trkpt lat="41.337426323443651" lon="1.435482474043965">
        <ele>502.20001220703125</ele>
        <time>2018-12-29T09:00:10Z</time>
      </trkpt>
      <trkpt lat="41.337250890210271" lon="1.435247026383877">
        <ele>501</ele>
        <time>2018-12-29T09:00:12Z</time>
      </trkpt>
      <trkpt lat="41.337068164721131" lon="1.435017446056008">
        <ele>499.60000610351562</ele>
        <time>2018-12-29T09:00:14Z</time>
      </trkpt>
      <trkpt lat="41.336875548586249" lon="1.434790212661028">
        <ele>497.79998779296875</ele>
        <time>2018-12-29T09:00:16Z</time>
      </trkpt>
      <trkpt lat="41.336778318509459" lon="1.434676386415958">
        <ele>497</ele>
        <time>2018-12-29T09:00:17Z</time>
      </trkpt>
      <trkpt lat="41.33668159134686" lon="1.434564320370555">
        <ele>496.20001220703125</ele>
        <time>2018-12-29T09:00:18Z</time>
      </trkpt>
      <trkpt lat="41.336488639935851" lon="1.434339601546526">
        <ele>494.39999389648437</ele>
        <time>2018-12-29T09:00:20Z</time>
      </trkpt>
      <trkpt lat="41.336296945810318" lon="1.434111865237355">
        <ele>493.20001220703125</ele>
        <time>2018-12-29T09:00:22Z</time>
      </trkpt>
      <trkpt lat="41.336106676608324" lon="1.433880692347884">
        <ele>492.20001220703125</ele>
        <time>2018-12-29T09:00:24Z</time>
      </trkpt>
      <trkpt lat="41.33601020090282" lon="1.433765860274434">
        <ele>491.60000610351562</ele>
        <time>2018-12-29T09:00:25Z</time>
      </trkpt>
      <trkpt lat="41.335910959169269" lon="1.433653458952904">
        <ele>490.79998779296875</ele>
        <time>2018-12-29T09:00:26Z</time>
      </trkpt>
      <trkpt lat="41.335811130702496" lon="1.433541560545564">
        <ele>490</ele>
        <time>2018-12-29T09:00:27Z</time>
      </trkpt>
      <trkpt lat="41.335709961131215" lon="1.433431673794985">
        <ele>489.20001220703125</ele>
        <time>2018-12-29T09:00:28Z</time>
      </trkpt>
      <trkpt lat="41.335605857893825" lon="1.433323211967945">
        <ele>488.60000610351562</ele>
        <time>2018-12-29T09:00:29Z</time>
      </trkpt>
      <trkpt lat="41.335500162094831" lon="1.433214079588652">
        <ele>488</ele>
        <time>2018-12-29T09:00:30Z</time>
      </trkpt>
      <trkpt lat="41.335395472124219" lon="1.433103522285819">
        <ele>487</ele>
        <time>2018-12-29T09:00:31Z</time>
      </trkpt>
      <trkpt lat="41.33529094979167" lon="1.432993384078145">
        <ele>486</ele>
        <time>2018-12-29T09:00:32Z</time>
      </trkpt>
      <trkpt lat="41.335183074697852" lon="1.432882994413376">
        <ele>485</ele>
        <time>2018-12-29T09:00:33Z</time>
      </trkpt>
      <trkpt lat="41.335077043622732" lon="1.43277226947248">
        <ele>483</ele>
        <time>2018-12-29T09:00:34Z</time>
      </trkpt>
      <trkpt lat="41.334867496043444" lon="1.432549143210053">
        <ele>481.39999389648438</ele>
        <time>2018-12-29T09:00:36Z</time>
      </trkpt>
      <trkpt lat="41.334761045873165" lon="1.432441435754299">
        <ele>480.39999389648437</ele>
        <time>2018-12-29T09:00:37Z</time>
      </trkpt>
      <trkpt lat="41.334656607359648" lon="1.432334734126926">
        <ele>479.60000610351562</ele>
        <time>2018-12-29T09:00:38Z</time>
      </trkpt>
      <trkpt lat="41.334444712847471" lon="1.432125857099891">
        <ele>478.20001220703125</ele>
        <time>2018-12-29T09:00:40Z</time>
      </trkpt>
      <trkpt lat="41.334230722859502" lon="1.431923350319266">
        <ele>477</ele>
        <time>2018-12-29T09:00:42Z</time>
      </trkpt>
      <trkpt lat="41.33402151055634" lon="1.431721262633801">
        <ele>476</ele>
        <time>2018-12-29T09:00:44Z</time>
      </trkpt>
      <trkpt lat="41.333919335156679" lon="1.431621182709932">
        <ele>475.39999389648437</ele>
        <time>2018-12-29T09:00:45Z</time>
      </trkpt>
      <trkpt lat="41.333819339051843" lon="1.431520767509937">
        <ele>474.79998779296875</ele>
        <time>2018-12-29T09:00:46Z</time>
      </trkpt>
      <trkpt lat="41.333620185032487" lon="1.431327983736992">
        <ele>474.39999389648437</ele>
        <time>2018-12-29T09:00:48Z</time>
      </trkpt>
      <trkpt lat="41.333430167287588" lon="1.431144000962377">
        <ele>474</ele>
        <time>2018-12-29T09:00:50Z</time>
      </trkpt>
      <trkpt lat="41.333336122334003" lon="1.431052386760712">
        <ele>473.39999389648437</ele>
        <time>2018-12-29T09:00:51Z</time>
      </trkpt>
      <trkpt lat="41.333241071552038" lon="1.430961862206459">
        <ele>472.39999389648437</ele>
        <time>2018-12-29T09:00:52Z</time>
      </trkpt>
      <trkpt lat="41.333142835646868" lon="1.430868236348033">
        <ele>471.39999389648437</ele>
        <time>2018-12-29T09:00:53Z</time>
      </trkpt>
      <trkpt lat="41.333043845370412" lon="1.43077184446156">
        <ele>470.60000610351562</ele>
        <time>2018-12-29T09:00:54Z</time>
      </trkpt>
      <trkpt lat="41.332944603636861" lon="1.430676793679595">
        <ele>469.79998779296875</ele>
        <time>2018-12-29T09:00:55Z</time>
      </trkpt>
      <trkpt lat="41.332844523712993" lon="1.43058417364955">
        <ele>468.79998779296875</ele>
        <time>2018-12-29T09:00:56Z</time>
      </trkpt>
      <trkpt lat="41.332647548988461" lon="1.430397760123015">
        <ele>466.39999389648437</ele>
        <time>2018-12-29T09:00:58Z</time>
      </trkpt>
      <trkpt lat="41.332550821825862" lon="1.43030421808362">
        <ele>466</ele>
        <time>2018-12-29T09:00:59Z</time>
      </trkpt>
      <trkpt lat="41.332454178482294" lon="1.430209670215845">
        <ele>465.60000610351562</ele>
        <time>2018-12-29T09:01:00Z</time>
      </trkpt>
      <trkpt lat="41.332355020567775" lon="1.430118475109339">
        <ele>465.20001220703125</ele>
        <time>2018-12-29T09:01:01Z</time>
      </trkpt>
      <trkpt lat="41.332251420244575" lon="1.430033817887306">
        <ele>464.79998779296875</ele>
        <time>2018-12-29T09:01:02Z</time>
      </trkpt>
      <trkpt lat="41.33214270696044" lon="1.429957626387477">
        <ele>464</ele>
        <time>2018-12-29T09:01:03Z</time>
      </trkpt>
      <trkpt lat="41.332032568752766" lon="1.429884033277631">
        <ele>463.39999389648437</ele>
        <time>2018-12-29T09:01:04Z</time>
      </trkpt>
      <trkpt lat="41.331922765821218" lon="1.42981412820518">
        <ele>462.79998779296875</ele>
        <time>2018-12-29T09:01:05Z</time>
      </trkpt>
      <trkpt lat="41.331812124699354" lon="1.429744642227888">
        <ele>462.60000610351562</ele>
        <time>2018-12-29T09:01:06Z</time>
      </trkpt>
      <trkpt lat="41.331591261550784" lon="1.429607765749097">
        <ele>462</ele>
        <time>2018-12-29T09:01:08Z</time>
      </trkpt>
      <trkpt lat="41.331481961533427" lon="1.429540878161788">
        <ele>461.79998779296875</ele>
        <time>2018-12-29T09:01:09Z</time>
      </trkpt>
      <trkpt lat="41.331373667344451" lon="1.429473487660289">
        <ele>461.60000610351562</ele>
        <time>2018-12-29T09:01:10Z</time>
      </trkpt>
      <trkpt lat="41.331158755347133" lon="1.42934356816113">
        <ele>461</ele>
        <time>2018-12-29T09:01:12Z</time>
      </trkpt>
      <trkpt lat="41.33105012588203" lon="1.429279614239931">
        <ele>460.79998779296875</ele>
        <time>2018-12-29T09:01:13Z</time>
      </trkpt>
      <trkpt lat="41.330938898026943" lon="1.429212978109717">
        <ele>460.20001220703125</ele>
        <time>2018-12-29T09:01:14Z</time>
      </trkpt>
      <trkpt lat="41.330712838098407" lon="1.429074509069324">
        <ele>459.20001220703125</ele>
        <time>2018-12-29T09:01:16Z</time>
      </trkpt>
      <trkpt lat="41.330484095960855" lon="1.428933776915073">
        <ele>457.79998779296875</ele>
        <time>2018-12-29T09:01:18Z</time>
      </trkpt>
      <trkpt lat="41.330254767090082" lon="1.428799079731107">
        <ele>456.39999389648437</ele>
        <time>2018-12-29T09:01:20Z</time>
      </trkpt>
      <trkpt lat="41.330142701044679" lon="1.428735461086035">
        <ele>456</ele>
        <time>2018-12-29T09:01:21Z</time>
      </trkpt>
      <trkpt lat="41.330034239217639" lon="1.428667400032282">
        <ele>455.20001220703125</ele>
        <time>2018-12-29T09:01:22Z</time>
      </trkpt>
      <trkpt lat="41.329930387437344" lon="1.428584838286042">
        <ele>454.79998779296875</ele>
        <time>2018-12-29T09:01:23Z</time>
      </trkpt>
      <trkpt lat="41.329831229522824" lon="1.428488362580538">
        <ele>454</ele>
        <time>2018-12-29T09:01:24Z</time>
      </trkpt>
      <trkpt lat="41.329735675826669" lon="1.428381241858006">
        <ele>453.20001220703125</ele>
        <time>2018-12-29T09:01:25Z</time>
      </trkpt>
      <trkpt lat="41.329641295596957" lon="1.428269175812602">
        <ele>452.20001220703125</ele>
        <time>2018-12-29T09:01:26Z</time>
      </trkpt>
      <trkpt lat="41.329449685290456" lon="1.428039763122797">
        <ele>450.60000610351562</ele>
        <time>2018-12-29T09:01:28Z</time>
      </trkpt>
      <trkpt lat="41.329250866547227" lon="1.427806913852692">
        <ele>449</ele>
        <time>2018-12-29T09:01:30Z</time>
      </trkpt>
      <trkpt lat="41.329047773033381" lon="1.42757766880095">
        <ele>447.20001220703125</ele>
        <time>2018-12-29T09:01:32Z</time>
      </trkpt>
      <trkpt lat="41.328947274014354" lon="1.427462920546532">
        <ele>446.60000610351562</ele>
        <time>2018-12-29T09:01:33Z</time>
      </trkpt>
      <trkpt lat="41.328847529366612" lon="1.427348256111145">
        <ele>445.79998779296875</ele>
        <time>2018-12-29T09:01:34Z</time>
      </trkpt>
      <trkpt lat="41.328648123890162" lon="1.427119765430689">
        <ele>444</ele>
        <time>2018-12-29T09:01:36Z</time>
      </trkpt>
      <trkpt lat="41.328449053689837" lon="1.426892867311835">
        <ele>442.79998779296875</ele>
        <time>2018-12-29T09:01:38Z</time>
      </trkpt>
      <trkpt lat="41.328254174441099" lon="1.426657335832715">
        <ele>441.60000610351562</ele>
        <time>2018-12-29T09:01:40Z</time>
      </trkpt>
      <trkpt lat="41.328082429245114" lon="1.426400346681476">
        <ele>439.79998779296875</ele>
        <time>2018-12-29T09:01:42Z</time>
      </trkpt>
      <trkpt lat="41.327936835587025" lon="1.426113517954946">
        <ele>438</ele>
        <time>2018-12-29T09:01:44Z</time>
      </trkpt>
      <trkpt lat="41.327809430658817" lon="1.425812607631087">
        <ele>435.79998779296875</ele>
        <time>2018-12-29T09:01:46Z</time>
      </trkpt>
      <trkpt lat="41.327693089842796" lon="1.425525695085526">
        <ele>434.39999389648437</ele>
        <time>2018-12-29T09:01:48Z</time>
      </trkpt>
      <trkpt lat="41.327576665207744" lon="1.425297539681196">
        <ele>433</ele>
        <time>2018-12-29T09:01:50Z</time>
      </trkpt>
      <trkpt lat="41.327434591948986" lon="1.425152029842138">
        <ele>432</ele>
        <time>2018-12-29T09:01:52Z</time>
      </trkpt>
      <trkpt lat="41.327349683269858" lon="1.425130236893892">
        <ele>431.60000610351562</ele>
        <time>2018-12-29T09:01:53Z</time>
      </trkpt>
      <trkpt lat="41.327264858409762" lon="1.425144569948316">
        <ele>431</ele>
        <time>2018-12-29T09:01:54Z</time>
      </trkpt>
      <trkpt lat="41.32709763944149" lon="1.425195448100567">
        <ele>430.20001220703125</ele>
        <time>2018-12-29T09:01:56Z</time>
      </trkpt>
      <trkpt lat="41.326933773234487" lon="1.425187820568681">
        <ele>430.60000610351562</ele>
        <time>2018-12-29T09:01:58Z</time>
      </trkpt>
      <trkpt lat="41.326855653896928" lon="1.425157394260168">
        <ele>431</ele>
        <time>2018-12-29T09:01:59Z</time>
      </trkpt>
      <trkpt lat="41.326779713854194" lon="1.425117328763008">
        <ele>431.20001220703125</ele>
        <time>2018-12-29T09:02:00Z</time>
      </trkpt>
      <trkpt lat="41.326704109087586" lon="1.425071898847818">
        <ele>431.39999389648437</ele>
        <time>2018-12-29T09:02:01Z</time>
      </trkpt>
      <trkpt lat="41.326628923416138" lon="1.425024373456836">
        <ele>431.20001220703125</ele>
        <time>2018-12-29T09:02:02Z</time>
      </trkpt>
      <trkpt lat="41.326479557901621" lon="1.424934519454837">
        <ele>431.39999389648437</ele>
        <time>2018-12-29T09:02:04Z</time>
      </trkpt>
      <trkpt lat="41.326335137709975" lon="1.424845671281219">
        <ele>431.60000610351562</ele>
        <time>2018-12-29T09:02:06Z</time>
      </trkpt>
      <trkpt lat="41.326189041137695" lon="1.424762103706598">
        <ele>431.79998779296875</ele>
        <time>2018-12-29T09:02:08Z</time>
      </trkpt>
      <trkpt lat="41.326047973707318" lon="1.424678368493915">
        <ele>431.79998779296875</ele>
        <time>2018-12-29T09:02:10Z</time>
      </trkpt>
      <trkpt lat="41.325905313715339" lon="1.424594465643168">
        <ele>432</ele>
        <time>2018-12-29T09:02:12Z</time>
      </trkpt>
      <trkpt lat="41.325763491913676" lon="1.424509305506945">
        <ele>432.39999389648437</ele>
        <time>2018-12-29T09:02:14Z</time>
      </trkpt>
      <trkpt lat="41.325628459453583" lon="1.424422552809119">
        <ele>432.79998779296875</ele>
        <time>2018-12-29T09:02:16Z</time>
      </trkpt>
      <trkpt lat="41.325499378144741" lon="1.424326999112964">
        <ele>433</ele>
        <time>2018-12-29T09:02:18Z</time>
      </trkpt>
      <trkpt lat="41.325371135026217" lon="1.424227841198444">
        <ele>433</ele>
        <time>2018-12-29T09:02:20Z</time>
      </trkpt>
      <trkpt lat="41.32524574175477" lon="1.424130946397781">
        <ele>433.20001220703125</ele>
        <time>2018-12-29T09:02:22Z</time>
      </trkpt>
      <trkpt lat="41.325118253007531" lon="1.424038074910641">
        <ele>433.20001220703125</ele>
        <time>2018-12-29T09:02:24Z</time>
      </trkpt>
      <trkpt lat="41.324995877221227" lon="1.42393933609128">
        <ele>433.20001220703125</ele>
        <time>2018-12-29T09:02:26Z</time>
      </trkpt>
      <trkpt lat="41.324887918308377" lon="1.423814110457897">
        <ele>433.39999389648437</ele>
        <time>2018-12-29T09:02:28Z</time>
      </trkpt>
      <trkpt lat="41.324808709323406" lon="1.423649154603481">
        <ele>433.60000610351562</ele>
        <time>2018-12-29T09:02:30Z</time>
      </trkpt>
      <trkpt lat="41.32478591054678" lon="1.423556869849563">
        <ele>433.39999389648437</ele>
        <time>2018-12-29T09:02:31Z</time>
      </trkpt>
      <trkpt lat="41.324777277186513" lon="1.423459388315678">
        <ele>433.39999389648437</ele>
        <time>2018-12-29T09:02:32Z</time>
      </trkpt>
      <trkpt lat="41.324802339076996" lon="1.423267191275954">
        <ele>433.60000610351562</ele>
        <time>2018-12-29T09:02:34Z</time>
      </trkpt>
      <trkpt lat="41.324858330190182" lon="1.42308815382421">
        <ele>433.79998779296875</ele>
        <time>2018-12-29T09:02:36Z</time>
      </trkpt>
      <trkpt lat="41.324919434264302" lon="1.42292152158916">
        <ele>433.79998779296875</ele>
        <time>2018-12-29T09:02:38Z</time>
      </trkpt>
      <trkpt lat="41.3249471783638" lon="1.422839798033238">
        <ele>434.20001220703125</ele>
        <time>2018-12-29T09:02:39Z</time>
      </trkpt>
      <trkpt lat="41.324974335730076" lon="1.422761343419552">
        <ele>434.39999389648437</ele>
        <time>2018-12-29T09:02:40Z</time>
      </trkpt>
      <trkpt lat="41.325024208053946" lon="1.422614576295018">
        <ele>434.79998779296875</ele>
        <time>2018-12-29T09:02:42Z</time>
      </trkpt>
      <trkpt lat="41.32507081143558" lon="1.422469150274992">
        <ele>435.39999389648437</ele>
        <time>2018-12-29T09:02:44Z</time>
      </trkpt>
      <trkpt lat="41.325094448402524" lon="1.422402262687683">
        <ele>435.79998779296875</ele>
        <time>2018-12-29T09:02:45Z</time>
      </trkpt>
      <trkpt lat="41.325118504464626" lon="1.422338979318738">
        <ele>436</ele>
        <time>2018-12-29T09:02:46Z</time>
      </trkpt>
      <trkpt lat="41.325164269655943" lon="1.422214759513736">
        <ele>436.39999389648437</ele>
        <time>2018-12-29T09:02:48Z</time>
      </trkpt>
      <trkpt lat="41.325206262990832" lon="1.422093557193875">
        <ele>436.79998779296875</ele>
        <time>2018-12-29T09:02:50Z</time>
      </trkpt>
      <trkpt lat="41.325252950191498" lon="1.421972271054983">
        <ele>437.20001220703125</ele>
        <time>2018-12-29T09:02:52Z</time>
      </trkpt>
      <trkpt lat="41.325273653492332" lon="1.421914519742131">
        <ele>437.20001220703125</ele>
        <time>2018-12-29T09:02:53Z</time>
      </trkpt>
      <trkpt lat="41.325291842222214" lon="1.421856014057994">
        <ele>437.39999389648437</ele>
        <time>2018-12-29T09:02:54Z</time>
      </trkpt>
      <trkpt lat="41.325304917991161" lon="1.421793904155493">
        <ele>437.60000610351562</ele>
        <time>2018-12-29T09:02:55Z</time>
      </trkpt>
      <trkpt lat="41.325313048437238" lon="1.421736404299736">
        <ele>438</ele>
        <time>2018-12-29T09:02:56Z</time>
      </trkpt>
      <trkpt lat="41.32531899958849" lon="1.421624254435301">
        <ele>438.60000610351562</ele>
        <time>2018-12-29T09:02:58Z</time>
      </trkpt>
      <trkpt lat="41.325318329036236" lon="1.421501878648996">
        <ele>438.60000610351562</ele>
        <time>2018-12-29T09:03:00Z</time>
      </trkpt>
      <trkpt lat="41.325308522209525" lon="1.421375814825296">
        <ele>438.60000610351562</ele>
        <time>2018-12-29T09:03:02Z</time>
      </trkpt>
      <trkpt lat="41.325301816686988" lon="1.421312196180224">
        <ele>438.79998779296875</ele>
        <time>2018-12-29T09:03:03Z</time>
      </trkpt>
      <trkpt lat="41.32529410533607" lon="1.421251846477389">
        <ele>438.79998779296875</ele>
        <time>2018-12-29T09:03:04Z</time>
      </trkpt>
      <trkpt lat="41.325284382328391" lon="1.421134499832988">
        <ele>439.20001220703125</ele>
        <time>2018-12-29T09:03:06Z</time>
      </trkpt>
      <trkpt lat="41.325272982940078" lon="1.421032575890422">
        <ele>439.60000610351562</ele>
        <time>2018-12-29T09:03:08Z</time>
      </trkpt>
      <trkpt lat="41.325256554409862" lon="1.420940710231662">
        <ele>439.79998779296875</ele>
        <time>2018-12-29T09:03:10Z</time>
      </trkpt>
      <trkpt lat="41.325223362073302" lon="1.420860746875405">
        <ele>440</ele>
        <time>2018-12-29T09:03:12Z</time>
      </trkpt>
      <trkpt lat="41.325202826410532" lon="1.420825542882085">
        <ele>440.20001220703125</ele>
        <time>2018-12-29T09:03:13Z</time>
      </trkpt>
      <trkpt lat="41.325180865824223" lon="1.420793021097779">
        <ele>440.20001220703125</ele>
        <time>2018-12-29T09:03:14Z</time>
      </trkpt>
      <trkpt lat="41.325158569961786" lon="1.420763432979584">
        <ele>440.39999389648437</ele>
        <time>2018-12-29T09:03:15Z</time>
      </trkpt>
      <trkpt lat="41.325133759528399" lon="1.420738119632006">
        <ele>440.39999389648437</ele>
        <time>2018-12-29T09:03:16Z</time>
      </trkpt>
      <trkpt lat="41.325076511129737" lon="1.420693611726165">
        <ele>440.60000610351562</ele>
        <time>2018-12-29T09:03:18Z</time>
      </trkpt>
      <trkpt lat="41.325009455904365" lon="1.420635776594281">
        <ele>440.60000610351562</ele>
        <time>2018-12-29T09:03:20Z</time>
      </trkpt>
      <trkpt lat="41.324968803673983" lon="1.420599147677422">
        <ele>440.39999389648437</ele>
        <time>2018-12-29T09:03:21Z</time>
      </trkpt>
      <trkpt lat="41.324925385415554" lon="1.420553885400295">
        <ele>439.60000610351562</ele>
        <time>2018-12-29T09:03:22Z</time>
      </trkpt>
      <trkpt lat="41.324883475899696" lon="1.420503342524171">
        <ele>439</ele>
        <time>2018-12-29T09:03:23Z</time>
      </trkpt>
      <trkpt lat="41.324842656031251" lon="1.420446345582604">
        <ele>438.39999389648437</ele>
        <time>2018-12-29T09:03:24Z</time>
      </trkpt>
      <trkpt lat="41.324759759008884" lon="1.42031516879797">
        <ele>437.60000610351562</ele>
        <time>2018-12-29T09:03:26Z</time>
      </trkpt>
      <trkpt lat="41.324664959684014" lon="1.4201685693115">
        <ele>436.60000610351562</ele>
        <time>2018-12-29T09:03:28Z</time>
      </trkpt>
      <trkpt lat="41.324612321332097" lon="1.42009137198329">
        <ele>436</ele>
        <time>2018-12-29T09:03:29Z</time>
      </trkpt>
      <trkpt lat="41.324558174237609" lon="1.420009145513177">
        <ele>435.39999389648437</ele>
        <time>2018-12-29T09:03:30Z</time>
      </trkpt>
      <trkpt lat="41.324503188952804" lon="1.419925661757588">
        <ele>434.79998779296875</ele>
        <time>2018-12-29T09:03:31Z</time>
      </trkpt>
      <trkpt lat="41.324445018544793" lon="1.419841339811683">
        <ele>434</ele>
        <time>2018-12-29T09:03:32Z</time>
      </trkpt>
      <trkpt lat="41.324385926127434" lon="1.419752575457096">
        <ele>433.20001220703125</ele>
        <time>2018-12-29T09:03:33Z</time>
      </trkpt>
      <trkpt lat="41.324326079338789" lon="1.419662134721875">
        <ele>432.39999389648437</ele>
        <time>2018-12-29T09:03:34Z</time>
      </trkpt>
      <trkpt lat="41.324263215065002" lon="1.419572113081813">
        <ele>431.79998779296875</ele>
        <time>2018-12-29T09:03:35Z</time>
      </trkpt>
      <trkpt lat="41.324194148182869" lon="1.419487036764622">
        <ele>431.20001220703125</ele>
        <time>2018-12-29T09:03:36Z</time>
      </trkpt>
      <trkpt lat="41.324118208140135" lon="1.419405564665794">
        <ele>430.60000610351562</ele>
        <time>2018-12-29T09:03:37Z</time>
      </trkpt>
      <trkpt lat="41.324037993326783" lon="1.419326020404697">
        <ele>430.20001220703125</ele>
        <time>2018-12-29T09:03:38Z</time>
      </trkpt>
      <trkpt lat="41.323871528729796" lon="1.419176151975989">
        <ele>429</ele>
        <time>2018-12-29T09:03:40Z</time>
      </trkpt>
      <trkpt lat="41.323701459914446" lon="1.419030055403709">
        <ele>427.79998779296875</ele>
        <time>2018-12-29T09:03:42Z</time>
      </trkpt>
      <trkpt lat="41.323614539578557" lon="1.418956881389022">
        <ele>427.39999389648438</ele>
        <time>2018-12-29T09:03:43Z</time>
      </trkpt>
      <trkpt lat="41.323527367785573" lon="1.418882198631764">
        <ele>427</ele>
        <time>2018-12-29T09:03:44Z</time>
      </trkpt>
      <trkpt lat="41.32343977689743" lon="1.418802654370666">
        <ele>426.20001220703125</ele>
        <time>2018-12-29T09:03:45Z</time>
      </trkpt>
      <trkpt lat="41.323352018371224" lon="1.418719757348299">
        <ele>425</ele>
        <time>2018-12-29T09:03:46Z</time>
      </trkpt>
      <trkpt lat="41.323186308145523" lon="1.418531415984035">
        <ele>424</ele>
        <time>2018-12-29T09:03:48Z</time>
      </trkpt>
      <trkpt lat="41.323113134130836" lon="1.418428989127278">
        <ele>423.39999389648437</ele>
        <time>2018-12-29T09:03:49Z</time>
      </trkpt>
      <trkpt lat="41.323049264028668" lon="1.418316503986716">
        <ele>422.79998779296875</ele>
        <time>2018-12-29T09:03:50Z</time>
      </trkpt>
      <trkpt lat="41.322929654270411" lon="1.418087175115943">
        <ele>421.79998779296875</ele>
        <time>2018-12-29T09:03:52Z</time>
      </trkpt>
      <trkpt lat="41.322871902957559" lon="1.417970415204763">
        <ele>421.39999389648437</ele>
        <time>2018-12-29T09:03:53Z</time>
      </trkpt>
      <trkpt lat="41.322815073654056" lon="1.417852733284235">
        <ele>421.20001220703125</ele>
        <time>2018-12-29T09:03:54Z</time>
      </trkpt>
      <trkpt lat="41.322701498866081" lon="1.417619632557035">
        <ele>420.79998779296875</ele>
        <time>2018-12-29T09:03:56Z</time>
      </trkpt>
      <trkpt lat="41.32264475338161" lon="1.417504046112299">
        <ele>420.39999389648437</ele>
        <time>2018-12-29T09:03:57Z</time>
      </trkpt>
      <trkpt lat="41.322584738954902" lon="1.417387370020151">
        <ele>420</ele>
        <time>2018-12-29T09:03:58Z</time>
      </trkpt>
      <trkpt lat="41.322470074519515" lon="1.417160807177424">
        <ele>418.79998779296875</ele>
        <time>2018-12-29T09:04:00Z</time>
      </trkpt>
      <trkpt lat="41.322357337921858" lon="1.416930975392461">
        <ele>417.60000610351562</ele>
        <time>2018-12-29T09:04:02Z</time>
      </trkpt>
      <trkpt lat="41.322295479476452" lon="1.41682050190866">
        <ele>417</ele>
        <time>2018-12-29T09:04:03Z</time>
      </trkpt>
      <trkpt lat="41.322233537212014" lon="1.416702987626195">
        <ele>416.39999389648437</ele>
        <time>2018-12-29T09:04:04Z</time>
      </trkpt>
      <trkpt lat="41.322106467559934" lon="1.416460247710347">
        <ele>415</ele>
        <time>2018-12-29T09:04:06Z</time>
      </trkpt>
      <trkpt lat="41.321976212784648" lon="1.416210718452931">
        <ele>413.20001220703125</ele>
        <time>2018-12-29T09:04:08Z</time>
      </trkpt>
      <trkpt lat="41.321914186701179" lon="1.416085828095675">
        <ele>412.20001220703125</ele>
        <time>2018-12-29T09:04:09Z</time>
      </trkpt>
      <trkpt lat="41.321852747350931" lon="1.415958506986499">
        <ele>410.79998779296875</ele>
        <time>2018-12-29T09:04:10Z</time>
      </trkpt>
      <trkpt lat="41.321721654385328" lon="1.415706379339099">
        <ele>409.60000610351562</ele>
        <time>2018-12-29T09:04:12Z</time>
      </trkpt>
      <trkpt lat="41.321595925837755" lon="1.415462717413902">
        <ele>408.20001220703125</ele>
        <time>2018-12-29T09:04:14Z</time>
      </trkpt>
      <trkpt lat="41.321476316079497" lon="1.415228191763163">
        <ele>407</ele>
        <time>2018-12-29T09:04:16Z</time>
      </trkpt>
      <trkpt lat="41.321360897272825" lon="1.414994420483708">
        <ele>405.79998779296875</ele>
        <time>2018-12-29T09:04:18Z</time>
      </trkpt>
      <trkpt lat="41.321299709379673" lon="1.414889059960842">
        <ele>405.20001220703125</ele>
        <time>2018-12-29T09:04:19Z</time>
      </trkpt>
      <trkpt lat="41.321236174553633" lon="1.41479417681694">
        <ele>404.60000610351562</ele>
        <time>2018-12-29T09:04:20Z</time>
      </trkpt>
      <trkpt lat="41.321098962798715" lon="1.414609104394913">
        <ele>403.60000610351562</ele>
        <time>2018-12-29T09:04:22Z</time>
      </trkpt>
      <trkpt lat="41.32094825617969" lon="1.414436269551516">
        <ele>402.39999389648437</ele>
        <time>2018-12-29T09:04:24Z</time>
      </trkpt>
      <trkpt lat="41.320797298103571" lon="1.414261674508452">
        <ele>401.39999389648437</ele>
        <time>2018-12-29T09:04:26Z</time>
      </trkpt>
      <trkpt lat="41.320718256756663" lon="1.414175257086754">
        <ele>401</ele>
        <time>2018-12-29T09:04:27Z</time>
      </trkpt>
      <trkpt lat="41.320642232894897" lon="1.414085067808628">
        <ele>400.60000610351562</ele>
        <time>2018-12-29T09:04:28Z</time>
      </trkpt>
      <trkpt lat="41.320499153807759" lon="1.413920782506466">
        <ele>400.20001220703125</ele>
        <time>2018-12-29T09:04:30Z</time>
      </trkpt>
      <trkpt lat="41.32043469697237" lon="1.41384425573051">
        <ele>400.39999389648437</ele>
        <time>2018-12-29T09:04:31Z</time>
      </trkpt>
      <trkpt lat="41.320372251793742" lon="1.413769656792283">
        <ele>400.60000610351562</ele>
        <time>2018-12-29T09:04:32Z</time>
      </trkpt>
      <trkpt lat="41.320252558216453" lon="1.413628337904811">
        <ele>400.79998779296875</ele>
        <time>2018-12-29T09:04:34Z</time>
      </trkpt>
      <trkpt lat="41.320138061419129" lon="1.413495149463415">
        <ele>401.39999389648437</ele>
        <time>2018-12-29T09:04:36Z</time>
      </trkpt>
      <trkpt lat="41.320085590705276" lon="1.41342943534255">
        <ele>401.60000610351562</ele>
        <time>2018-12-29T09:04:37Z</time>
      </trkpt>
      <trkpt lat="41.320033371448517" lon="1.413368750363588">
        <ele>401.79998779296875</ele>
        <time>2018-12-29T09:04:38Z</time>
      </trkpt>
      <trkpt lat="41.319928262382746" lon="1.413254337385297">
        <ele>401.79998779296875</ele>
        <time>2018-12-29T09:04:40Z</time>
      </trkpt>
      <trkpt lat="41.319826254621148" lon="1.413139589130878">
        <ele>402</ele>
        <time>2018-12-29T09:04:42Z</time>
      </trkpt>
      <trkpt lat="41.319728437811136" lon="1.413023080676794">
        <ele>402.20001220703125</ele>
        <time>2018-12-29T09:04:44Z</time>
      </trkpt>
      <trkpt lat="41.319635482504964" lon="1.412896933034062">
        <ele>402.20001220703125</ele>
        <time>2018-12-29T09:04:46Z</time>
      </trkpt>
      <trkpt lat="41.319546801969409" lon="1.412772294133902">
        <ele>402.39999389648437</ele>
        <time>2018-12-29T09:04:48Z</time>
      </trkpt>
      <trkpt lat="41.319460887461901" lon="1.412643883377314">
        <ele>402.79998779296875</ele>
        <time>2018-12-29T09:04:50Z</time>
      </trkpt>
      <trkpt lat="41.319393329322338" lon="1.412510024383664">
        <ele>403.20001220703125</ele>
        <time>2018-12-29T09:04:52Z</time>
      </trkpt>
      <trkpt lat="41.319330465048552" lon="1.412375662475824">
        <ele>403.60000610351562</ele>
        <time>2018-12-29T09:04:54Z</time>
      </trkpt>
      <trkpt lat="41.319264834746718" lon="1.412234343588352">
        <ele>403.60000610351562</ele>
        <time>2018-12-29T09:04:56Z</time>
      </trkpt>
      <trkpt lat="41.319197276607156" lon="1.412084558978677">
        <ele>403.20001220703125</ele>
        <time>2018-12-29T09:04:58Z</time>
      </trkpt>
      <trkpt lat="41.319124940782785" lon="1.411932595074177">
        <ele>403</ele>
        <time>2018-12-29T09:05:00Z</time>
      </trkpt>
      <trkpt lat="41.319051431491971" lon="1.411786498501897">
        <ele>403.20001220703125</ele>
        <time>2018-12-29T09:05:02Z</time>
      </trkpt>
      <trkpt lat="41.318980939686298" lon="1.411645263433456">
        <ele>403.20001220703125</ele>
        <time>2018-12-29T09:05:04Z</time>
      </trkpt>
      <trkpt lat="41.318946490064263" lon="1.411573430523276">
        <ele>403.20001220703125</ele>
        <time>2018-12-29T09:05:05Z</time>
      </trkpt>
      <trkpt lat="41.318913968279958" lon="1.411498077213764">
        <ele>403</ele>
        <time>2018-12-29T09:05:06Z</time>
      </trkpt>
      <trkpt lat="41.318860491737723" lon="1.411337312310934">
        <ele>402.39999389648437</ele>
        <time>2018-12-29T09:05:08Z</time>
      </trkpt>
      <trkpt lat="41.318824952468276" lon="1.411166405305266">
        <ele>402.20001220703125</ele>
        <time>2018-12-29T09:05:10Z</time>
      </trkpt>
      <trkpt lat="41.31881196051836" lon="1.411078562960029">
        <ele>402</ele>
        <time>2018-12-29T09:05:11Z</time>
      </trkpt>
      <trkpt lat="41.318799471482635" lon="1.410992313176394">
        <ele>401.79998779296875</ele>
        <time>2018-12-29T09:05:12Z</time>
      </trkpt>
      <trkpt lat="41.318780276924372" lon="1.410818975418806">
        <ele>401.79998779296875</ele>
        <time>2018-12-29T09:05:14Z</time>
      </trkpt>
      <trkpt lat="41.318758903071284" lon="1.41064714640379">
        <ele>401.79998779296875</ele>
        <time>2018-12-29T09:05:16Z</time>
      </trkpt>
      <trkpt lat="41.318732248619199" lon="1.41046928241849">
        <ele>401.60000610351562</ele>
        <time>2018-12-29T09:05:18Z</time>
      </trkpt>
      <trkpt lat="41.318712215870619" lon="1.410287395119667">
        <ele>401.39999389648437</ele>
        <time>2018-12-29T09:05:20Z</time>
      </trkpt>
      <trkpt lat="41.318689500913024" lon="1.410097293555737">
        <ele>400.79998779296875</ele>
        <time>2018-12-29T09:05:22Z</time>
      </trkpt>
      <trkpt lat="41.318668294698" lon="1.40990786254406">
        <ele>400.60000610351562</ele>
        <time>2018-12-29T09:05:24Z</time>
      </trkpt>
      <trkpt lat="41.31864532828331" lon="1.409717593342066">
        <ele>400.39999389648437</ele>
        <time>2018-12-29T09:05:26Z</time>
      </trkpt>
      <trkpt lat="41.318621607497334" lon="1.409530593082309">
        <ele>400</ele>
        <time>2018-12-29T09:05:28Z</time>
      </trkpt>
      <trkpt lat="41.318604424595833" lon="1.409365134313703">
        <ele>400</ele>
        <time>2018-12-29T09:05:30Z</time>
      </trkpt>
      <trkpt lat="41.318584810942411" lon="1.409204704686999">
        <ele>399.79998779296875</ele>
        <time>2018-12-29T09:05:32Z</time>
      </trkpt>
      <trkpt lat="41.318567879498005" lon="1.409128932282329">
        <ele>399.79998779296875</ele>
        <time>2018-12-29T09:05:33Z</time>
      </trkpt>
      <trkpt lat="41.318539129570127" lon="1.409058943390846">
        <ele>399.60000610351562</ele>
        <time>2018-12-29T09:05:34Z</time>
      </trkpt>
      <trkpt lat="41.318451706320047" lon="1.408934639766812">
        <ele>399.39999389648437</ele>
        <time>2018-12-29T09:05:36Z</time>
      </trkpt>
      <trkpt lat="41.318401163443923" lon="1.408875966444612">
        <ele>399.20001220703125</ele>
        <time>2018-12-29T09:05:37Z</time>
      </trkpt>
      <trkpt lat="41.31834777072072" lon="1.408815532922745">
        <ele>398.79998779296875</ele>
        <time>2018-12-29T09:05:38Z</time>
      </trkpt>
      <trkpt lat="41.318294294178486" lon="1.408749902620912">
        <ele>398.39999389648437</ele>
        <time>2018-12-29T09:05:39Z</time>
      </trkpt>
      <trkpt lat="41.318238554522395" lon="1.40868041664362">
        <ele>398</ele>
        <time>2018-12-29T09:05:40Z</time>
      </trkpt>
      <trkpt lat="41.318116011098027" lon="1.408538343384862">
        <ele>397</ele>
        <time>2018-12-29T09:05:42Z</time>
      </trkpt>
      <trkpt lat="41.31799254566431" lon="1.408391995355487">
        <ele>395.60000610351562</ele>
        <time>2018-12-29T09:05:44Z</time>
      </trkpt>
      <trkpt lat="41.317937644198537" lon="1.408325945958495">
        <ele>394.79998779296875</ele>
        <time>2018-12-29T09:05:45Z</time>
      </trkpt>
      <trkpt lat="41.317883664742112" lon="1.408260483294725">
        <ele>394</ele>
        <time>2018-12-29T09:05:46Z</time>
      </trkpt>
      <trkpt lat="41.317775957286358" lon="1.408134251832962">
        <ele>393.79998779296875</ele>
        <time>2018-12-29T09:05:48Z</time>
      </trkpt>
      <trkpt lat="41.317668417468667" lon="1.408007349818945">
        <ele>394.20001220703125</ele>
        <time>2018-12-29T09:05:50Z</time>
      </trkpt>
      <trkpt lat="41.317562302574515" lon="1.407880112528801">
        <ele>394.60000610351562</ele>
        <time>2018-12-29T09:05:52Z</time>
      </trkpt>
      <trkpt lat="41.317461719736457" lon="1.407760502770543">
        <ele>395.20001220703125</ele>
        <time>2018-12-29T09:05:54Z</time>
      </trkpt>
      <trkpt lat="41.317371865734458" lon="1.407646927982569">
        <ele>395.39999389648437</ele>
        <time>2018-12-29T09:05:56Z</time>
      </trkpt>
      <trkpt lat="41.317331297323108" lon="1.407592697069049">
        <ele>395.60000610351562</ele>
        <time>2018-12-29T09:05:57Z</time>
      </trkpt>
      <trkpt lat="41.31729282438755" lon="1.407546093687415">
        <ele>395.79998779296875</ele>
        <time>2018-12-29T09:05:58Z</time>
      </trkpt>
      <trkpt lat="41.317213531583548" lon="1.407453557476401">
        <ele>395.79998779296875</ele>
        <time>2018-12-29T09:06:00Z</time>
      </trkpt>
      <trkpt lat="41.3171296287328" lon="1.407364038750529">
        <ele>395.79998779296875</ele>
        <time>2018-12-29T09:06:02Z</time>
      </trkpt>
      <trkpt lat="41.317038014531136" lon="1.407285081222653">
        <ele>395.60000610351562</ele>
        <time>2018-12-29T09:06:04Z</time>
      </trkpt>
      <trkpt lat="41.316928127780557" lon="1.407233197242022">
        <ele>395.79998779296875</ele>
        <time>2018-12-29T09:06:06Z</time>
      </trkpt>
      <trkpt lat="41.31680415943265" lon="1.407187851145864">
        <ele>395.39999389648437</ele>
        <time>2018-12-29T09:06:08Z</time>
      </trkpt>
      <trkpt lat="41.316668540239334" lon="1.407146863639355">
        <ele>394</ele>
        <time>2018-12-29T09:06:10Z</time>
      </trkpt>
      <trkpt lat="41.31651590578258" lon="1.407096488401294">
        <ele>392.79998779296875</ele>
        <time>2018-12-29T09:06:12Z</time>
      </trkpt>
      <trkpt lat="41.316435355693102" lon="1.407068911939859">
        <ele>392</ele>
        <time>2018-12-29T09:06:13Z</time>
      </trkpt>
      <trkpt lat="41.316351871937513" lon="1.407040162011981">
        <ele>391.60000610351562</ele>
        <time>2018-12-29T09:06:14Z</time>
      </trkpt>
      <trkpt lat="41.316184988245368" lon="1.406982159242034">
        <ele>390.60000610351562</ele>
        <time>2018-12-29T09:06:16Z</time>
      </trkpt>
      <trkpt lat="41.31609957665205" lon="1.406954163685441">
        <ele>390</ele>
        <time>2018-12-29T09:06:17Z</time>
      </trkpt>
      <trkpt lat="41.316014584153891" lon="1.406928095966578">
        <ele>389.79998779296875</ele>
        <time>2018-12-29T09:06:18Z</time>
      </trkpt>
      <trkpt lat="41.315848957747221" lon="1.406870344653726">
        <ele>389.39999389648437</ele>
        <time>2018-12-29T09:06:20Z</time>
      </trkpt>
      <trkpt lat="41.31577025167644" lon="1.406843522563577">
        <ele>389</ele>
        <time>2018-12-29T09:06:21Z</time>
      </trkpt>
      <trkpt lat="41.315693892538548" lon="1.406816700473428">
        <ele>389</ele>
        <time>2018-12-29T09:06:22Z</time>
      </trkpt>
      <trkpt lat="41.315545700490475" lon="1.406759032979608">
        <ele>389</ele>
        <time>2018-12-29T09:06:24Z</time>
      </trkpt>
      <trkpt lat="41.315404297783971" lon="1.406690469011664">
        <ele>388.79998779296875</ele>
        <time>2018-12-29T09:06:26Z</time>
      </trkpt>
      <trkpt lat="41.315267840400338" lon="1.406598184257746">
        <ele>388.79998779296875</ele>
        <time>2018-12-29T09:06:28Z</time>
      </trkpt>
      <trkpt lat="41.31511646322906" lon="1.406487626954913">
        <ele>388</ele>
        <time>2018-12-29T09:06:30Z</time>
      </trkpt>
      <trkpt lat="41.314953770488501" lon="1.406368184834719">
        <ele>386.60000610351562</ele>
        <time>2018-12-29T09:06:32Z</time>
      </trkpt>
      <trkpt lat="41.31487020291388" lon="1.406306326389313">
        <ele>385.39999389648437</ele>
        <time>2018-12-29T09:06:33Z</time>
      </trkpt>
      <trkpt lat="41.314788060262799" lon="1.406245306134224">
        <ele>383.60000610351562</ele>
        <time>2018-12-29T09:06:34Z</time>
      </trkpt>
      <trkpt lat="41.314626540988684" lon="1.406129049137235">
        <ele>382.20001220703125</ele>
        <time>2018-12-29T09:06:36Z</time>
      </trkpt>
      <trkpt lat="41.314475331455469" lon="1.406018156558275">
        <ele>380.20001220703125</ele>
        <time>2018-12-29T09:06:38Z</time>
      </trkpt>
      <trkpt lat="41.314344489946961" lon="1.40589670278132">
        <ele>378.60000610351562</ele>
        <time>2018-12-29T09:06:40Z</time>
      </trkpt>
      <trkpt lat="41.314254635944963" lon="1.405728226527572">
        <ele>377.39999389648437</ele>
        <time>2018-12-29T09:06:42Z</time>
      </trkpt>
      <trkpt lat="41.314233848825097" lon="1.405628398060799">
        <ele>376.79998779296875</ele>
        <time>2018-12-29T09:06:43Z</time>
      </trkpt>
      <trkpt lat="41.314218509942293" lon="1.405522869899869">
        <ele>376.39999389648438</ele>
        <time>2018-12-29T09:06:44Z</time>
      </trkpt>
      <trkpt lat="41.314198561012745" lon="1.405428322032094">
        <ele>376</ele>
        <time>2018-12-29T09:06:45Z</time>
      </trkpt>
      <trkpt lat="41.314169056713581" lon="1.405335702002049">
        <ele>375.60000610351562</ele>
        <time>2018-12-29T09:06:46Z</time>
      </trkpt>
      <trkpt lat="41.314129577949643" lon="1.405261689797044">
        <ele>375.20001220703125</ele>
        <time>2018-12-29T09:06:47Z</time>
      </trkpt>
      <trkpt lat="41.314073922112584" lon="1.405208213254809">
        <ele>374.79998779296875</ele>
        <time>2018-12-29T09:06:48Z</time>
      </trkpt>
      <trkpt lat="41.314006531611085" lon="1.405181894078851">
        <ele>374.60000610351562</ele>
        <time>2018-12-29T09:06:49Z</time>
      </trkpt>
      <trkpt lat="41.313929418101907" lon="1.405178625136614">
        <ele>374.39999389648437</ele>
        <time>2018-12-29T09:06:50Z</time>
      </trkpt>
      <trkpt lat="41.313846185803413" lon="1.405176864936948">
        <ele>374.20001220703125</ele>
        <time>2018-12-29T09:06:51Z</time>
      </trkpt>
      <trkpt lat="41.313758343458176" lon="1.405162028968334">
        <ele>373.60000610351562</ele>
        <time>2018-12-29T09:06:52Z</time>
      </trkpt>
      <trkpt lat="41.313669076189399" lon="1.40512271784246">
        <ele>372.79998779296875</ele>
        <time>2018-12-29T09:06:53Z</time>
      </trkpt>
      <trkpt lat="41.313591543585062" lon="1.405057674273849">
        <ele>371.79998779296875</ele>
        <time>2018-12-29T09:06:54Z</time>
      </trkpt>
      <trkpt lat="41.313535217195749" lon="1.404973603785038">
        <ele>370.79998779296875</ele>
        <time>2018-12-29T09:06:55Z</time>
      </trkpt>
      <trkpt lat="41.313503868877888" lon="1.404880313202739">
        <ele>369.79998779296875</ele>
        <time>2018-12-29T09:06:56Z</time>
      </trkpt>
      <trkpt lat="41.31349372677505" lon="1.404782580211759">
        <ele>369.20001220703125</ele>
        <time>2018-12-29T09:06:57Z</time>
      </trkpt>
      <trkpt lat="41.313508227467537" lon="1.404693564400077">
        <ele>369.20001220703125</ele>
        <time>2018-12-29T09:06:58Z</time>
      </trkpt>
      <trkpt lat="41.313541671261191" lon="1.404619552195072">
        <ele>369.20001220703125</ele>
        <time>2018-12-29T09:06:59Z</time>
      </trkpt>
      <trkpt lat="41.313592968508601" lon="1.404566746205092">
        <ele>369.20001220703125</ele>
        <time>2018-12-29T09:07:00Z</time>
      </trkpt>
      <trkpt lat="41.313716853037477" lon="1.40449482947588">
        <ele>368.79998779296875</ele>
        <time>2018-12-29T09:07:02Z</time>
      </trkpt>
      <trkpt lat="41.31378591991961" lon="1.40446063131094">
        <ele>368.39999389648437</ele>
        <time>2018-12-29T09:07:03Z</time>
      </trkpt>
      <trkpt lat="41.313859345391393" lon="1.404425427317619">
        <ele>367.60000610351562</ele>
        <time>2018-12-29T09:07:04Z</time>
      </trkpt>
      <trkpt lat="41.314012482762337" lon="1.404350157827139">
        <ele>366.39999389648437</ele>
        <time>2018-12-29T09:07:06Z</time>
      </trkpt>
      <trkpt lat="41.314085153862834" lon="1.40430967323482">
        <ele>366</ele>
        <time>2018-12-29T09:07:07Z</time>
      </trkpt>
      <trkpt lat="41.314150616526604" lon="1.404268685728312">
        <ele>365.60000610351562</ele>
        <time>2018-12-29T09:07:08Z</time>
      </trkpt>
      <trkpt lat="41.314205853268504" lon="1.404217975214124">
        <ele>365.20001220703125</ele>
        <time>2018-12-29T09:07:09Z</time>
      </trkpt>
      <trkpt lat="41.314245415851474" lon="1.404150417074561">
        <ele>364.60000610351562</ele>
        <time>2018-12-29T09:07:10Z</time>
      </trkpt>
      <trkpt lat="41.314274501055479" lon="1.40398420393467">
        <ele>364</ele>
        <time>2018-12-29T09:07:12Z</time>
      </trkpt>
      <trkpt lat="41.314268633723259" lon="1.403886890038848">
        <ele>363.60000610351562</ele>
        <time>2018-12-29T09:07:13Z</time>
      </trkpt>
      <trkpt lat="41.314255641773343" lon="1.403784463182092">
        <ele>362.79998779296875</ele>
        <time>2018-12-29T09:07:14Z</time>
      </trkpt>
      <trkpt lat="41.314239716157317" lon="1.403681365773082">
        <ele>362</ele>
        <time>2018-12-29T09:07:15Z</time>
      </trkpt>
      <trkpt lat="41.31422814913094" lon="1.403583632782102">
        <ele>361</ele>
        <time>2018-12-29T09:07:16Z</time>
      </trkpt>
      <trkpt lat="41.314214821904898" lon="1.403496796265245">
        <ele>360.39999389648437</ele>
        <time>2018-12-29T09:07:17Z</time>
      </trkpt>
      <trkpt lat="41.314191939309239" lon="1.403416162356734">
        <ele>360</ele>
        <time>2018-12-29T09:07:18Z</time>
      </trkpt>
      <trkpt lat="41.314093871042132" lon="1.403293367475271">
        <ele>359.79998779296875</ele>
        <time>2018-12-29T09:07:20Z</time>
      </trkpt>
      <trkpt lat="41.313939727842808" lon="1.403254391625524">
        <ele>358.20001220703125</ele>
        <time>2018-12-29T09:07:22Z</time>
      </trkpt>
      <trkpt lat="41.31385968066752" lon="1.403237376362085">
        <ele>357.39999389648437</ele>
        <time>2018-12-29T09:07:23Z</time>
      </trkpt>
      <trkpt lat="41.313789440318942" lon="1.403200579807162">
        <ele>356.60000610351562</ele>
        <time>2018-12-29T09:07:24Z</time>
      </trkpt>
      <trkpt lat="41.313687348738313" lon="1.403069151565433">
        <ele>355.20001220703125</ele>
        <time>2018-12-29T09:07:26Z</time>
      </trkpt>
      <trkpt lat="41.313649378716946" lon="1.402892796322703">
        <ele>353.79998779296875</ele>
        <time>2018-12-29T09:07:28Z</time>
      </trkpt>
      <trkpt lat="41.31366178393364" lon="1.40280076302588">
        <ele>353.20001220703125</ele>
        <time>2018-12-29T09:07:29Z</time>
      </trkpt>
      <trkpt lat="41.313689528033137" lon="1.402714177966118">
        <ele>352.79998779296875</ele>
        <time>2018-12-29T09:07:30Z</time>
      </trkpt>
      <trkpt lat="41.313733113929629" lon="1.402629436925054">
        <ele>352.60000610351562</ele>
        <time>2018-12-29T09:07:31Z</time>
      </trkpt>
      <trkpt lat="41.313781896606088" lon="1.402548467740417">
        <ele>351.60000610351562</ele>
        <time>2018-12-29T09:07:32Z</time>
      </trkpt>
      <trkpt lat="41.313840318471193" lon="1.402470683678985">
        <ele>351</ele>
        <time>2018-12-29T09:07:33Z</time>
      </trkpt>
      <trkpt lat="41.313900835812092" lon="1.402393067255616">
        <ele>350.20001220703125</ele>
        <time>2018-12-29T09:07:34Z</time>
      </trkpt>
      <trkpt lat="41.313960934057832" lon="1.402311930432916">
        <ele>349.79998779296875</ele>
        <time>2018-12-29T09:07:35Z</time>
      </trkpt>
      <trkpt lat="41.314012985676527" lon="1.402229284867644">
        <ele>349.20001220703125</ele>
        <time>2018-12-29T09:07:36Z</time>
      </trkpt>
      <trkpt lat="41.31405464373529" lon="1.402141526341438">
        <ele>348.79998779296875</ele>
        <time>2018-12-29T09:07:37Z</time>
      </trkpt>
      <trkpt lat="41.314083645120263" lon="1.402050834149122">
        <ele>348.39999389648437</ele>
        <time>2018-12-29T09:07:38Z</time>
      </trkpt>
      <trkpt lat="41.314084315672517" lon="1.401864588260651">
        <ele>347.79998779296875</ele>
        <time>2018-12-29T09:07:40Z</time>
      </trkpt>
      <trkpt lat="41.314002675935626" lon="1.401696782559156">
        <ele>348.39999389648437</ele>
        <time>2018-12-29T09:07:42Z</time>
      </trkpt>
      <trkpt lat="41.313949702307582" lon="1.401617657393217">
        <ele>348.39999389648437</ele>
        <time>2018-12-29T09:07:43Z</time>
      </trkpt>
      <trkpt lat="41.313889352604747" lon="1.401549093425274">
        <ele>347.79998779296875</ele>
        <time>2018-12-29T09:07:44Z</time>
      </trkpt>
      <trkpt lat="41.313750045374036" lon="1.401501735672355">
        <ele>347.79998779296875</ele>
        <time>2018-12-29T09:07:46Z</time>
      </trkpt>
      <trkpt lat="41.313605289906263" lon="1.401548255234957">
        <ele>347.20001220703125</ele>
        <time>2018-12-29T09:07:48Z</time>
      </trkpt>
      <trkpt lat="41.313531948253512" lon="1.401573065668345">
        <ele>347</ele>
        <time>2018-12-29T09:07:49Z</time>
      </trkpt>
      <trkpt lat="41.31346145644784" lon="1.401576334610581">
        <ele>346.79998779296875</ele>
        <time>2018-12-29T09:07:50Z</time>
      </trkpt>
      <trkpt lat="41.31333639845252" lon="1.401512129232287">
        <ele>347</ele>
        <time>2018-12-29T09:07:52Z</time>
      </trkpt>
      <trkpt lat="41.313253417611122" lon="1.40137055888772">
        <ele>346.20001220703125</ele>
        <time>2018-12-29T09:07:54Z</time>
      </trkpt>
      <trkpt lat="41.313234977424145" lon="1.401279950514436">
        <ele>345.60000610351562</ele>
        <time>2018-12-29T09:07:55Z</time>
      </trkpt>
      <trkpt lat="41.313241012394428" lon="1.401188503950834">
        <ele>345</ele>
        <time>2018-12-29T09:07:56Z</time>
      </trkpt>
      <trkpt lat="41.313264230266213" lon="1.401115413755179">
        <ele>344.20001220703125</ele>
        <time>2018-12-29T09:07:57Z</time>
      </trkpt>
      <trkpt lat="41.313305217772722" lon="1.401058500632644">
        <ele>343.60000610351562</ele>
        <time>2018-12-29T09:07:58Z</time>
      </trkpt>
      <trkpt lat="41.31342533044517" lon="1.401013908907771">
        <ele>342.20001220703125</ele>
        <time>2018-12-29T09:08:00Z</time>
      </trkpt>
      <trkpt lat="41.313564805313945" lon="1.401067217811942">
        <ele>340.60000610351562</ele>
        <time>2018-12-29T09:08:02Z</time>
      </trkpt>
      <trkpt lat="41.313640577718616" lon="1.401098901405931">
        <ele>340.20001220703125</ele>
        <time>2018-12-29T09:08:03Z</time>
      </trkpt>
      <trkpt lat="41.313722636550665" lon="1.401125807315111">
        <ele>339.79998779296875</ele>
        <time>2018-12-29T09:08:04Z</time>
      </trkpt>
      <trkpt lat="41.3138088863343" lon="1.401137374341488">
        <ele>339.39999389648438</ele>
        <time>2018-12-29T09:08:05Z</time>
      </trkpt>
      <trkpt lat="41.313898907974362" lon="1.401131171733141">
        <ele>338.60000610351562</ele>
        <time>2018-12-29T09:08:06Z</time>
      </trkpt>
      <trkpt lat="41.3139867503196" lon="1.401101164519787">
        <ele>337.60000610351562</ele>
        <time>2018-12-29T09:08:07Z</time>
      </trkpt>
      <trkpt lat="41.314074173569679" lon="1.401054980233312">
        <ele>336.39999389648438</ele>
        <time>2018-12-29T09:08:08Z</time>
      </trkpt>
      <trkpt lat="41.314162937924266" lon="1.401004353538156">
        <ele>335.39999389648437</ele>
        <time>2018-12-29T09:08:09Z</time>
      </trkpt>
      <trkpt lat="41.314243404194713" lon="1.400953726843">
        <ele>334.39999389648437</ele>
        <time>2018-12-29T09:08:10Z</time>
      </trkpt>
      <trkpt lat="41.314394026994705" lon="1.40087217092514">
        <ele>333.79998779296875</ele>
        <time>2018-12-29T09:08:12Z</time>
      </trkpt>
      <trkpt lat="41.314470553770661" lon="1.400865381583571">
        <ele>333.39999389648438</ele>
        <time>2018-12-29T09:08:13Z</time>
      </trkpt>
      <trkpt lat="41.314547164365649" lon="1.400882145389915">
        <ele>333.20001220703125</ele>
        <time>2018-12-29T09:08:14Z</time>
      </trkpt>
      <trkpt lat="41.314700385555625" lon="1.400938052684069">
        <ele>332.79998779296875</ele>
        <time>2018-12-29T09:08:16Z</time>
      </trkpt>
      <trkpt lat="41.314777163788676" lon="1.400941321626306">
        <ele>332.39999389648437</ele>
        <time>2018-12-29T09:08:17Z</time>
      </trkpt>
      <trkpt lat="41.314848158508539" lon="1.400915253907442">
        <ele>332.20001220703125</ele>
        <time>2018-12-29T09:08:18Z</time>
      </trkpt>
      <trkpt lat="41.314902557060122" lon="1.400856245309115">
        <ele>332</ele>
        <time>2018-12-29T09:08:19Z</time>
      </trkpt>
      <trkpt lat="41.314936000853777" lon="1.400776952505112">
        <ele>332</ele>
        <time>2018-12-29T09:08:20Z</time>
      </trkpt>
      <trkpt lat="41.314948070794344" lon="1.400691624730825">
        <ele>332</ele>
        <time>2018-12-29T09:08:21Z</time>
      </trkpt>
      <trkpt lat="41.314939605072141" lon="1.400606632232666">
        <ele>332.20001220703125</ele>
        <time>2018-12-29T09:08:22Z</time>
      </trkpt>
      <trkpt lat="41.314862240105867" lon="1.400469252839685">
        <ele>332.20001220703125</ele>
        <time>2018-12-29T09:08:24Z</time>
      </trkpt>
      <trkpt lat="41.314745396375656" lon="1.400384679436684">
        <ele>332.39999389648437</ele>
        <time>2018-12-29T09:08:26Z</time>
      </trkpt>
      <trkpt lat="41.31468110717833" lon="1.400345955044031">
        <ele>332.60000610351562</ele>
        <time>2018-12-29T09:08:27Z</time>
      </trkpt>
      <trkpt lat="41.314612878486514" lon="1.400304716080427">
        <ele>332.79998779296875</ele>
        <time>2018-12-29T09:08:28Z</time>
      </trkpt>
      <trkpt lat="41.314470637589693" lon="1.400229195132852">
        <ele>333</ele>
        <time>2018-12-29T09:08:30Z</time>
      </trkpt>
      <trkpt lat="41.314329737797379" lon="1.400158368051052">
        <ele>333</ele>
        <time>2018-12-29T09:08:32Z</time>
      </trkpt>
      <trkpt lat="41.314194705337286" lon="1.400090893730521">
        <ele>332.79998779296875</ele>
        <time>2018-12-29T09:08:34Z</time>
      </trkpt>
      <trkpt lat="41.31406981498003" lon="1.400020401924849">
        <ele>333</ele>
        <time>2018-12-29T09:08:36Z</time>
      </trkpt>
      <trkpt lat="41.313950289040804" lon="1.39996625483036">
        <ele>333</ele>
        <time>2018-12-29T09:08:38Z</time>
      </trkpt>
      <trkpt lat="41.313895974308252" lon="1.399935493245721">
        <ele>333</ele>
        <time>2018-12-29T09:08:39Z</time>
      </trkpt>
      <trkpt lat="41.313844174146652" lon="1.399903893470764">
        <ele>333</ele>
        <time>2018-12-29T09:08:40Z</time>
      </trkpt>
      <trkpt lat="41.313732778653502" lon="1.399842873215675">
        <ele>333</ele>
        <time>2018-12-29T09:08:42Z</time>
      </trkpt>
      <trkpt lat="41.313617108389735" lon="1.399780008941889">
        <ele>333</ele>
        <time>2018-12-29T09:08:44Z</time>
      </trkpt>
      <trkpt lat="41.313501270487905" lon="1.399708595126867">
        <ele>333</ele>
        <time>2018-12-29T09:08:46Z</time>
      </trkpt>
      <trkpt lat="41.31344729103148" lon="1.399660231545568">
        <ele>333</ele>
        <time>2018-12-29T09:08:47Z</time>
      </trkpt>
      <trkpt lat="41.313396831974387" lon="1.399606084451079">
        <ele>333</ele>
        <time>2018-12-29T09:08:48Z</time>
      </trkpt>
      <trkpt lat="41.313306726515293" lon="1.39949225820601">
        <ele>333.20001220703125</ele>
        <time>2018-12-29T09:08:50Z</time>
      </trkpt>
      <trkpt lat="41.31323522888124" lon="1.39934959821403">
        <ele>333.20001220703125</ele>
        <time>2018-12-29T09:08:52Z</time>
      </trkpt>
      <trkpt lat="41.313207652419806" lon="1.399173745885491">
        <ele>332.39999389648437</ele>
        <time>2018-12-29T09:08:54Z</time>
      </trkpt>
      <trkpt lat="41.313208742067218" lon="1.398984650149941">
        <ele>331.60000610351562</ele>
        <time>2018-12-29T09:08:56Z</time>
      </trkpt>
      <trkpt lat="41.313211256638169" lon="1.398889264091849">
        <ele>331.39999389648437</ele>
        <time>2018-12-29T09:08:57Z</time>
      </trkpt>
      <trkpt lat="41.313214441761374" lon="1.398795386776328">
        <ele>330.79998779296875</ele>
        <time>2018-12-29T09:08:58Z</time>
      </trkpt>
      <trkpt lat="41.313225254416466" lon="1.398624563589692">
        <ele>330.60000610351562</ele>
        <time>2018-12-29T09:09:00Z</time>
      </trkpt>
      <trkpt lat="41.313249729573727" lon="1.398460194468498">
        <ele>330.79998779296875</ele>
        <time>2018-12-29T09:09:02Z</time>
      </trkpt>
      <trkpt lat="41.313269846141338" lon="1.398381991311908">
        <ele>330.79998779296875</ele>
        <time>2018-12-29T09:09:03Z</time>
      </trkpt>
      <trkpt lat="41.313296752050519" lon="1.398309739306569">
        <ele>330.60000610351562</ele>
        <time>2018-12-29T09:09:04Z</time>
      </trkpt>
      <trkpt lat="41.313329190015793" lon="1.398240420967341">
        <ele>330.39999389648438</ele>
        <time>2018-12-29T09:09:05Z</time>
      </trkpt>
      <trkpt lat="41.313368501141667" lon="1.398177975788713">
        <ele>330.20001220703125</ele>
        <time>2018-12-29T09:09:06Z</time>
      </trkpt>
      <trkpt lat="41.313409404829144" lon="1.398117709904909">
        <ele>330</ele>
        <time>2018-12-29T09:09:07Z</time>
      </trkpt>
      <trkpt lat="41.313449470326304" lon="1.398058952763677">
        <ele>329.60000610351562</ele>
        <time>2018-12-29T09:09:08Z</time>
      </trkpt>
      <trkpt lat="41.313491547480226" lon="1.397998100146651">
        <ele>329.20001220703125</ele>
        <time>2018-12-29T09:09:09Z</time>
      </trkpt>
      <trkpt lat="41.313535468652844" lon="1.397938672453165">
        <ele>329</ele>
        <time>2018-12-29T09:09:10Z</time>
      </trkpt>
      <trkpt lat="41.313626412302256" lon="1.397813363000751">
        <ele>328.79998779296875</ele>
        <time>2018-12-29T09:09:12Z</time>
      </trkpt>
      <trkpt lat="41.313729174435139" lon="1.397710265591741">
        <ele>328.60000610351562</ele>
        <time>2018-12-29T09:09:14Z</time>
      </trkpt>
      <trkpt lat="41.313789105042815" lon="1.397677240893245">
        <ele>328.39999389648437</ele>
        <time>2018-12-29T09:09:15Z</time>
      </trkpt>
      <trkpt lat="41.313854064792395" lon="1.397662572562695">
        <ele>328.20001220703125</ele>
        <time>2018-12-29T09:09:16Z</time>
      </trkpt>
      <trkpt lat="41.313983229920268" lon="1.3976726308465">
        <ele>327.60000610351562</ele>
        <time>2018-12-29T09:09:18Z</time>
      </trkpt>
      <trkpt lat="41.314048105850816" lon="1.397681264206767">
        <ele>327.39999389648437</ele>
        <time>2018-12-29T09:09:19Z</time>
      </trkpt>
      <trkpt lat="41.314114993438125" lon="1.397689562290907">
        <ele>327</ele>
        <time>2018-12-29T09:09:20Z</time>
      </trkpt>
      <trkpt lat="41.314184982329607" lon="1.397682018578053">
        <ele>326.60000610351562</ele>
        <time>2018-12-29T09:09:21Z</time>
      </trkpt>
      <trkpt lat="41.31425061263144" lon="1.397648071870208">
        <ele>326</ele>
        <time>2018-12-29T09:09:22Z</time>
      </trkpt>
      <trkpt lat="41.314309118315578" lon="1.397591829299927">
        <ele>325.60000610351562</ele>
        <time>2018-12-29T09:09:23Z</time>
      </trkpt>
      <trkpt lat="41.314357733353972" lon="1.397521337494254">
        <ele>325.39999389648437</ele>
        <time>2018-12-29T09:09:24Z</time>
      </trkpt>
      <trkpt lat="41.314399726688862" lon="1.397438524290919">
        <ele>325</ele>
        <time>2018-12-29T09:09:25Z</time>
      </trkpt>
      <trkpt lat="41.31443090736866" lon="1.397346239537001">
        <ele>324.60000610351562</ele>
        <time>2018-12-29T09:09:26Z</time>
      </trkpt>
      <trkpt lat="41.314451778307557" lon="1.39714146964252">
        <ele>324.39999389648437</ele>
        <time>2018-12-29T09:09:28Z</time>
      </trkpt>
      <trkpt lat="41.314435768872499" lon="1.397039294242859">
        <ele>324.20001220703125</ele>
        <time>2018-12-29T09:09:29Z</time>
      </trkpt>
      <trkpt lat="41.314408276230097" lon="1.39694357290864">
        <ele>324.39999389648437</ele>
        <time>2018-12-29T09:09:30Z</time>
      </trkpt>
      <trkpt lat="41.314380196854472" lon="1.396858748048544">
        <ele>324.60000610351562</ele>
        <time>2018-12-29T09:09:31Z</time>
      </trkpt>
      <trkpt lat="41.314353458583355" lon="1.39677400700748">
        <ele>324.79998779296875</ele>
        <time>2018-12-29T09:09:32Z</time>
      </trkpt>
      <trkpt lat="41.314333342015743" lon="1.396690607070923">
        <ele>325</ele>
        <time>2018-12-29T09:09:33Z</time>
      </trkpt>
      <trkpt lat="41.314323870465159" lon="1.396608548238874">
        <ele>325.39999389648437</ele>
        <time>2018-12-29T09:09:34Z</time>
      </trkpt>
      <trkpt lat="41.314325211569667" lon="1.396463206037879">
        <ele>326.39999389648437</ele>
        <time>2018-12-29T09:09:36Z</time>
      </trkpt>
      <trkpt lat="41.314327977597713" lon="1.396395647898316">
        <ele>326.79998779296875</ele>
        <time>2018-12-29T09:09:37Z</time>
      </trkpt>
      <trkpt lat="41.314331749454141" lon="1.396328760311008">
        <ele>327.20001220703125</ele>
        <time>2018-12-29T09:09:38Z</time>
      </trkpt>
      <trkpt lat="41.314337616786361" lon="1.396265812218189">
        <ele>327.39999389648437</ele>
        <time>2018-12-29T09:09:39Z</time>
      </trkpt>
      <trkpt lat="41.314343316480517" lon="1.396200014278293">
        <ele>327.60000610351562</ele>
        <time>2018-12-29T09:09:40Z</time>
      </trkpt>
      <trkpt lat="41.314362594857812" lon="1.396059701219201">
        <ele>327.60000610351562</ele>
        <time>2018-12-29T09:09:42Z</time>
      </trkpt>
      <trkpt lat="41.31438204087317" lon="1.395983677357435">
        <ele>327.39999389648437</ele>
        <time>2018-12-29T09:09:43Z</time>
      </trkpt>
      <trkpt lat="41.314404420554638" lon="1.395903211086988">
        <ele>327</ele>
        <time>2018-12-29T09:09:44Z</time>
      </trkpt>
      <trkpt lat="41.314457478001714" lon="1.395730543881655">
        <ele>325.60000610351562</ele>
        <time>2018-12-29T09:09:46Z</time>
      </trkpt>
      <trkpt lat="41.314511625096202" lon="1.395549746230245">
        <ele>324.20001220703125</ele>
        <time>2018-12-29T09:09:48Z</time>
      </trkpt>
      <trkpt lat="41.314551187679172" lon="1.395361991599202">
        <ele>323.60000610351562</ele>
        <time>2018-12-29T09:09:50Z</time>
      </trkpt>
      <trkpt lat="41.31455990485847" lon="1.395266354084015">
        <ele>323.39999389648437</ele>
        <time>2018-12-29T09:09:51Z</time>
      </trkpt>
      <trkpt lat="41.314566526561975" lon="1.395172141492367">
        <ele>323.39999389648437</ele>
        <time>2018-12-29T09:09:52Z</time>
      </trkpt>
      <trkpt lat="41.314572058618069" lon="1.394985895603895">
        <ele>323.20001220703125</ele>
        <time>2018-12-29T09:09:54Z</time>
      </trkpt>
      <trkpt lat="41.31457407027483" lon="1.394895035773516">
        <ele>323.20001220703125</ele>
        <time>2018-12-29T09:09:55Z</time>
      </trkpt>
      <trkpt lat="41.314574321731925" lon="1.394809205085039">
        <ele>323.20001220703125</ele>
        <time>2018-12-29T09:09:56Z</time>
      </trkpt>
      <trkpt lat="41.314556887373328" lon="1.394649613648653">
        <ele>323.79998779296875</ele>
        <time>2018-12-29T09:09:58Z</time>
      </trkpt>
      <trkpt lat="41.31450911052525" lon="1.394508043304086">
        <ele>324</ele>
        <time>2018-12-29T09:10:00Z</time>
      </trkpt>
      <trkpt lat="41.314478851854801" lon="1.394439730793238">
        <ele>324.39999389648437</ele>
        <time>2018-12-29T09:10:01Z</time>
      </trkpt>
      <trkpt lat="41.314445827156305" lon="1.394373178482056">
        <ele>325</ele>
        <time>2018-12-29T09:10:02Z</time>
      </trkpt>
      <trkpt lat="41.314410623162985" lon="1.394309224560857">
        <ele>325.60000610351562</ele>
        <time>2018-12-29T09:10:03Z</time>
      </trkpt>
      <trkpt lat="41.31437617354095" lon="1.394245522096753">
        <ele>326.20001220703125</ele>
        <time>2018-12-29T09:10:04Z</time>
      </trkpt>
      <trkpt lat="41.314343232661486" lon="1.394179472699761">
        <ele>326.79998779296875</ele>
        <time>2018-12-29T09:10:05Z</time>
      </trkpt>
      <trkpt lat="41.314312554895878" lon="1.394112836569548">
        <ele>327</ele>
        <time>2018-12-29T09:10:06Z</time>
      </trkpt>
      <trkpt lat="41.314263353124261" lon="1.393979396671057">
        <ele>327.60000610351562</ele>
        <time>2018-12-29T09:10:08Z</time>
      </trkpt>
      <trkpt lat="41.314244158565998" lon="1.393907396122813">
        <ele>327.79998779296875</ele>
        <time>2018-12-29T09:10:09Z</time>
      </trkpt>
      <trkpt lat="41.314228903502226" lon="1.393830953165889">
        <ele>328</ele>
        <time>2018-12-29T09:10:10Z</time>
      </trkpt>
      <trkpt lat="41.314210882410407" lon="1.3936697691679">
        <ele>328.20001220703125</ele>
        <time>2018-12-29T09:10:12Z</time>
      </trkpt>
      <trkpt lat="41.31419344805181" lon="1.393498526886106">
        <ele>328.60000610351562</ele>
        <time>2018-12-29T09:10:14Z</time>
      </trkpt>
      <trkpt lat="41.314174924045801" lon="1.393317393958569">
        <ele>328.39999389648437</ele>
        <time>2018-12-29T09:10:16Z</time>
      </trkpt>
      <trkpt lat="41.314143324270844" lon="1.393141122534871">
        <ele>329</ele>
        <time>2018-12-29T09:10:18Z</time>
      </trkpt>
      <trkpt lat="41.314092110842466" lon="1.392975077033043">
        <ele>329.39999389648437</ele>
        <time>2018-12-29T09:10:20Z</time>
      </trkpt>
      <trkpt lat="41.314027402549982" lon="1.392818167805672">
        <ele>329.39999389648437</ele>
        <time>2018-12-29T09:10:22Z</time>
      </trkpt>
      <trkpt lat="41.313963867723942" lon="1.392666287720203">
        <ele>329.79998779296875</ele>
        <time>2018-12-29T09:10:24Z</time>
      </trkpt>
      <trkpt lat="41.313907038420439" lon="1.392512144520879">
        <ele>330</ele>
        <time>2018-12-29T09:10:26Z</time>
      </trkpt>
      <trkpt lat="41.313882479444146" lon="1.392432013526559">
        <ele>330</ele>
        <time>2018-12-29T09:10:27Z</time>
      </trkpt>
      <trkpt lat="41.313859513029456" lon="1.392353307455778">
        <ele>330.20001220703125</ele>
        <time>2018-12-29T09:10:28Z</time>
      </trkpt>
      <trkpt lat="41.313819363713264" lon="1.392194638028741">
        <ele>330.60000610351562</ele>
        <time>2018-12-29T09:10:30Z</time>
      </trkpt>
      <trkpt lat="41.31378591991961" lon="1.392028424888849">
        <ele>331</ele>
        <time>2018-12-29T09:10:32Z</time>
      </trkpt>
      <trkpt lat="41.31376882083714" lon="1.391946617513895">
        <ele>331</ele>
        <time>2018-12-29T09:10:33Z</time>
      </trkpt>
      <trkpt lat="41.313753398135304" lon="1.391868581995368">
        <ele>331.39999389648437</ele>
        <time>2018-12-29T09:10:34Z</time>
      </trkpt>
      <trkpt lat="41.313736885786057" lon="1.391789289191365">
        <ele>331.60000610351562</ele>
        <time>2018-12-29T09:10:35Z</time>
      </trkpt>
      <trkpt lat="41.313718948513269" lon="1.39171083457768">
        <ele>332</ele>
        <time>2018-12-29T09:10:36Z</time>
      </trkpt>
      <trkpt lat="41.313698329031467" lon="1.391630368307233">
        <ele>332</ele>
        <time>2018-12-29T09:10:37Z</time>
      </trkpt>
      <trkpt lat="41.313678463920951" lon="1.391551494598389">
        <ele>332</ele>
        <time>2018-12-29T09:10:38Z</time>
      </trkpt>
      <trkpt lat="41.31364225409925" lon="1.391392070800066">
        <ele>332</ele>
        <time>2018-12-29T09:10:40Z</time>
      </trkpt>
      <trkpt lat="41.313607804477215" lon="1.391229797154665">
        <ele>332</ele>
        <time>2018-12-29T09:10:42Z</time>
      </trkpt>
      <trkpt lat="41.313587101176381" lon="1.391150169074535">
        <ele>332</ele>
        <time>2018-12-29T09:10:43Z</time>
      </trkpt>
      <trkpt lat="41.313566816970706" lon="1.391072385013104">
        <ele>332.20001220703125</ele>
        <time>2018-12-29T09:10:44Z</time>
      </trkpt>
      <trkpt lat="41.313520800322294" lon="1.390919918194413">
        <ele>332.39999389648437</ele>
        <time>2018-12-29T09:10:46Z</time>
      </trkpt>
      <trkpt lat="41.313459277153015" lon="1.390785975381732">
        <ele>332.20001220703125</ele>
        <time>2018-12-29T09:10:48Z</time>
      </trkpt>
      <trkpt lat="41.313415942713618" lon="1.390728056430817">
        <ele>332</ele>
        <time>2018-12-29T09:10:49Z</time>
      </trkpt>
      <trkpt lat="41.313367579132318" lon="1.390674496069551">
        <ele>332.20001220703125</ele>
        <time>2018-12-29T09:10:50Z</time>
      </trkpt>
      <trkpt lat="41.313268085941672" lon="1.390570811927319">
        <ele>332.20001220703125</ele>
        <time>2018-12-29T09:10:52Z</time>
      </trkpt>
      <trkpt lat="41.313160797581077" lon="1.390463523566723">
        <ele>332</ele>
        <time>2018-12-29T09:10:54Z</time>
      </trkpt>
      <trkpt lat="41.313107907772064" lon="1.39040669426322">
        <ele>332</ele>
        <time>2018-12-29T09:10:55Z</time>
      </trkpt>
      <trkpt lat="41.313060969114304" lon="1.390341315418482">
        <ele>331.79998779296875</ele>
        <time>2018-12-29T09:10:56Z</time>
      </trkpt>
      <trkpt lat="41.312995087355375" lon="1.390166552737355">
        <ele>331</ele>
        <time>2018-12-29T09:10:58Z</time>
      </trkpt>
      <trkpt lat="41.312986621633172" lon="1.390066808089614">
        <ele>329.79998779296875</ele>
        <time>2018-12-29T09:10:59Z</time>
      </trkpt>
      <trkpt lat="41.312987543642521" lon="1.389969158917666">
        <ele>329.20001220703125</ele>
        <time>2018-12-29T09:11:00Z</time>
      </trkpt>
      <trkpt lat="41.313000451773405" lon="1.389872096478939">
        <ele>328.39999389648437</ele>
        <time>2018-12-29T09:11:01Z</time>
      </trkpt>
      <trkpt lat="41.313025178387761" lon="1.389772268012166">
        <ele>328</ele>
        <time>2018-12-29T09:11:02Z</time>
      </trkpt>
      <trkpt lat="41.31311209872365" lon="1.389587363228202">
        <ele>327.39999389648437</ele>
        <time>2018-12-29T09:11:04Z</time>
      </trkpt>
      <trkpt lat="41.313240425661206" lon="1.389411762356758">
        <ele>326.39999389648437</ele>
        <time>2018-12-29T09:11:06Z</time>
      </trkpt>
      <trkpt lat="41.313315024599433" lon="1.389334397390485">
        <ele>325.79998779296875</ele>
        <time>2018-12-29T09:11:07Z</time>
      </trkpt>
      <trkpt lat="41.313388030976057" lon="1.389258457347751">
        <ele>325.20001220703125</ele>
        <time>2018-12-29T09:11:08Z</time>
      </trkpt>
      <trkpt lat="41.313462881371379" lon="1.389185367152095">
        <ele>324.60000610351562</ele>
        <time>2018-12-29T09:11:09Z</time>
      </trkpt>
      <trkpt lat="41.31353865377605" lon="1.389115210622549">
        <ele>324</ele>
        <time>2018-12-29T09:11:10Z</time>
      </trkpt>
      <trkpt lat="41.313617108389735" lon="1.38905025087297">
        <ele>323.20001220703125</ele>
        <time>2018-12-29T09:11:11Z</time>
      </trkpt>
      <trkpt lat="41.313695395365357" lon="1.388988392427564">
        <ele>322.60000610351562</ele>
        <time>2018-12-29T09:11:12Z</time>
      </trkpt>
      <trkpt lat="41.313776532188058" lon="1.3889329880476">
        <ele>322</ele>
        <time>2018-12-29T09:11:13Z</time>
      </trkpt>
      <trkpt lat="41.313864709809422" lon="1.388893844559789">
        <ele>321.20001220703125</ele>
        <time>2018-12-29T09:11:14Z</time>
      </trkpt>
      <trkpt lat="41.31395548582077" lon="1.388864843174815">
        <ele>320.20001220703125</ele>
        <time>2018-12-29T09:11:15Z</time>
      </trkpt>
      <trkpt lat="41.314050788059831" lon="1.388837350532413">
        <ele>319.20001220703125</ele>
        <time>2018-12-29T09:11:16Z</time>
      </trkpt>
      <trkpt lat="41.314147347584367" lon="1.388813797384501">
        <ele>318.60000610351562</ele>
        <time>2018-12-29T09:11:17Z</time>
      </trkpt>
      <trkpt lat="41.314243152737617" lon="1.388787981122732">
        <ele>318</ele>
        <time>2018-12-29T09:11:18Z</time>
      </trkpt>
      <trkpt lat="41.314437696710229" lon="1.388732995837927">
        <ele>318.20001220703125</ele>
        <time>2018-12-29T09:11:20Z</time>
      </trkpt>
      <trkpt lat="41.314630983397365" lon="1.388686560094357">
        <ele>317.39999389648437</ele>
        <time>2018-12-29T09:11:22Z</time>
      </trkpt>
      <trkpt lat="41.314725782722235" lon="1.388659989461303">
        <ele>316.20001220703125</ele>
        <time>2018-12-29T09:11:23Z</time>
      </trkpt>
      <trkpt lat="41.314815552905202" lon="1.38861145824194">
        <ele>316</ele>
        <time>2018-12-29T09:11:24Z</time>
      </trkpt>
      <trkpt lat="41.314977575093508" lon="1.388446586206555">
        <ele>315.20001220703125</ele>
        <time>2018-12-29T09:11:26Z</time>
      </trkpt>
      <trkpt lat="41.315041780471802" lon="1.388331921771169">
        <ele>314.39999389648437</ele>
        <time>2018-12-29T09:11:27Z</time>
      </trkpt>
      <trkpt lat="41.315097939223051" lon="1.38820443302393">
        <ele>313.39999389648438</ele>
        <time>2018-12-29T09:11:28Z</time>
      </trkpt>
      <trkpt lat="41.31515309214592" lon="1.388075351715088">
        <ele>312.39999389648437</ele>
        <time>2018-12-29T09:11:29Z</time>
      </trkpt>
      <trkpt lat="41.315206317231059" lon="1.38795230537653">
        <ele>311.60000610351562</ele>
        <time>2018-12-29T09:11:30Z</time>
      </trkpt>
      <trkpt lat="41.31525962613523" lon="1.387840658426285">
        <ele>311</ele>
        <time>2018-12-29T09:11:31Z</time>
      </trkpt>
      <trkpt lat="41.315305391326547" lon="1.387733537703753">
        <ele>311</ele>
        <time>2018-12-29T09:11:32Z</time>
      </trkpt>
      <trkpt lat="41.315338751301169" lon="1.387623818591237">
        <ele>310.79998779296875</ele>
        <time>2018-12-29T09:11:33Z</time>
      </trkpt>
      <trkpt lat="41.315353000536561" lon="1.387511165812612">
        <ele>310.60000610351562</ele>
        <time>2018-12-29T09:11:34Z</time>
      </trkpt>
      <trkpt lat="41.315347133204341" lon="1.387406894937158">
        <ele>310.39999389648437</ele>
        <time>2018-12-29T09:11:35Z</time>
      </trkpt>
      <trkpt lat="41.315329782664776" lon="1.387308156117797">
        <ele>310.39999389648437</ele>
        <time>2018-12-29T09:11:36Z</time>
      </trkpt>
      <trkpt lat="41.315306983888149" lon="1.387212853878737">
        <ele>311</ele>
        <time>2018-12-29T09:11:37Z</time>
      </trkpt>
      <trkpt lat="41.315277898684144" lon="1.387119898572564">
        <ele>312</ele>
        <time>2018-12-29T09:11:38Z</time>
      </trkpt>
      <trkpt lat="41.315248813480139" lon="1.387035744264722">
        <ele>313.20001220703125</ele>
        <time>2018-12-29T09:11:39Z</time>
      </trkpt>
      <trkpt lat="41.315219895914197" lon="1.386955613270402">
        <ele>314</ele>
        <time>2018-12-29T09:11:40Z</time>
      </trkpt>
      <trkpt lat="41.315194582566619" lon="1.386877745389938">
        <ele>314.79998779296875</ele>
        <time>2018-12-29T09:11:41Z</time>
      </trkpt>
      <trkpt lat="41.315170023590326" lon="1.386804319918156">
        <ele>315</ele>
        <time>2018-12-29T09:11:42Z</time>
      </trkpt>
      <trkpt lat="41.31513012573123" lon="1.386669371277094">
        <ele>315.60000610351562</ele>
        <time>2018-12-29T09:11:44Z</time>
      </trkpt>
      <trkpt lat="41.315113278105855" lon="1.386608015745878">
        <ele>316</ele>
        <time>2018-12-29T09:11:45Z</time>
      </trkpt>
      <trkpt lat="41.315100118517876" lon="1.386550683528185">
        <ele>316.79998779296875</ele>
        <time>2018-12-29T09:11:46Z</time>
      </trkpt>
      <trkpt lat="41.315088970586658" lon="1.386494105681777">
        <ele>318.20001220703125</ele>
        <time>2018-12-29T09:11:47Z</time>
      </trkpt>
      <trkpt lat="41.315080504864454" lon="1.386437276378274">
        <ele>318.60000610351562</ele>
        <time>2018-12-29T09:11:48Z</time>
      </trkpt>
      <trkpt lat="41.315064076334238" lon="1.386334598064423">
        <ele>319.39999389648438</ele>
        <time>2018-12-29T09:11:50Z</time>
      </trkpt>
      <trkpt lat="41.315062819048762" lon="1.386241978034377">
        <ele>320.39999389648437</ele>
        <time>2018-12-29T09:11:52Z</time>
      </trkpt>
      <trkpt lat="41.315062986686826" lon="1.386197051033378">
        <ele>321</ele>
        <time>2018-12-29T09:11:53Z</time>
      </trkpt>
      <trkpt lat="41.315060472115874" lon="1.386150112375617">
        <ele>321.39999389648437</ele>
        <time>2018-12-29T09:11:54Z</time>
      </trkpt>
      <trkpt lat="41.315056197345257" lon="1.386106107383966">
        <ele>321.79998779296875</ele>
        <time>2018-12-29T09:11:55Z</time>
      </trkpt>
      <trkpt lat="41.315051084384322" lon="1.386058079078794">
        <ele>322.20001220703125</ele>
        <time>2018-12-29T09:11:56Z</time>
      </trkpt>
      <trkpt lat="41.315038846805692" lon="1.385967051610351">
        <ele>322.79998779296875</ele>
        <time>2018-12-29T09:11:58Z</time>
      </trkpt>
      <trkpt lat="41.315022250637412" lon="1.385924639180303">
        <ele>323</ele>
        <time>2018-12-29T09:11:59Z</time>
      </trkpt>
      <trkpt lat="41.315001547336578" lon="1.385884154587984">
        <ele>323.39999389648437</ele>
        <time>2018-12-29T09:12:00Z</time>
      </trkpt>
      <trkpt lat="41.314959889277816" lon="1.385799832642078">
        <ele>324</ele>
        <time>2018-12-29T09:12:02Z</time>
      </trkpt>
      <trkpt lat="41.31494102999568" lon="1.385761359706521">
        <ele>324.20001220703125</ele>
        <time>2018-12-29T09:12:03Z</time>
      </trkpt>
      <trkpt lat="41.314921835437417" lon="1.385719869285822">
        <ele>324.39999389648437</ele>
        <time>2018-12-29T09:12:04Z</time>
      </trkpt>
      <trkpt lat="41.314889816567302" lon="1.385617274791002">
        <ele>324.39999389648437</ele>
        <time>2018-12-29T09:12:06Z</time>
      </trkpt>
      <trkpt lat="41.314879255369306" lon="1.385559942573309">
        <ele>324.60000610351562</ele>
        <time>2018-12-29T09:12:07Z</time>
      </trkpt>
      <trkpt lat="41.314873890951276" lon="1.385501017794013">
        <ele>324.60000610351562</ele>
        <time>2018-12-29T09:12:08Z</time>
      </trkpt>
      <trkpt lat="41.314866179600358" lon="1.38538895174861">
        <ele>324.39999389648437</ele>
        <time>2018-12-29T09:12:10Z</time>
      </trkpt>
      <trkpt lat="41.314863748848438" lon="1.385338325053453">
        <ele>325</ele>
        <time>2018-12-29T09:12:11Z</time>
      </trkpt>
      <trkpt lat="41.314861904829741" lon="1.385291470214725">
        <ele>325.39999389648437</ele>
        <time>2018-12-29T09:12:12Z</time>
      </trkpt>
      <trkpt lat="41.314854947850108" lon="1.385196084156632">
        <ele>326.60000610351562</ele>
        <time>2018-12-29T09:12:14Z</time>
      </trkpt>
      <trkpt lat="41.314842291176319" lon="1.385094579309225">
        <ele>327.20001220703125</ele>
        <time>2018-12-29T09:12:16Z</time>
      </trkpt>
      <trkpt lat="41.314841620624065" lon="1.384991314262152">
        <ele>327.60000610351562</ele>
        <time>2018-12-29T09:12:18Z</time>
      </trkpt>
      <trkpt lat="41.314843045547605" lon="1.384889809414744">
        <ele>328.20001220703125</ele>
        <time>2018-12-29T09:12:20Z</time>
      </trkpt>
      <trkpt lat="41.31484136916697" lon="1.384794507175684">
        <ele>328.79998779296875</ele>
        <time>2018-12-29T09:12:22Z</time>
      </trkpt>
      <trkpt lat="41.314842458814383" lon="1.384702473878861">
        <ele>329.79998779296875</ele>
        <time>2018-12-29T09:12:24Z</time>
      </trkpt>
      <trkpt lat="41.314841788262129" lon="1.384658133611083">
        <ele>330.20001220703125</ele>
        <time>2018-12-29T09:12:25Z</time>
      </trkpt>
      <trkpt lat="41.314839022234082" lon="1.38461354188621">
        <ele>330.39999389648438</ele>
        <time>2018-12-29T09:12:26Z</time>
      </trkpt>
      <trkpt lat="41.314837178215384" lon="1.38457196764648">
        <ele>330.79998779296875</ele>
        <time>2018-12-29T09:12:27Z</time>
      </trkpt>
      <trkpt lat="41.314833322539926" lon="1.384529219940305">
        <ele>331.20001220703125</ele>
        <time>2018-12-29T09:12:28Z</time>
      </trkpt>
      <trkpt lat="41.314826114103198" lon="1.384438527747989">
        <ele>331.60000610351562</ele>
        <time>2018-12-29T09:12:30Z</time>
      </trkpt>
      <trkpt lat="41.314819240942597" lon="1.384345069527626">
        <ele>331.79998779296875</ele>
        <time>2018-12-29T09:12:32Z</time>
      </trkpt>
      <trkpt lat="41.314813122153282" lon="1.384252449497581">
        <ele>332</ele>
        <time>2018-12-29T09:12:34Z</time>
      </trkpt>
      <trkpt lat="41.314810188487172" lon="1.384156392887235">
        <ele>332</ele>
        <time>2018-12-29T09:12:36Z</time>
      </trkpt>
      <trkpt lat="41.314810691401362" lon="1.384105430915952">
        <ele>331.79998779296875</ele>
        <time>2018-12-29T09:12:37Z</time>
      </trkpt>
      <trkpt lat="41.31481446325779" lon="1.38405354693532">
        <ele>331.79998779296875</ele>
        <time>2018-12-29T09:12:38Z</time>
      </trkpt>
      <trkpt lat="41.31482376717031" lon="1.384002501145005">
        <ele>331.79998779296875</ele>
        <time>2018-12-29T09:12:39Z</time>
      </trkpt>
      <trkpt lat="41.314834915101528" lon="1.383948521688581">
        <ele>331.79998779296875</ele>
        <time>2018-12-29T09:12:40Z</time>
      </trkpt>
      <trkpt lat="41.314851259812713" lon="1.383896889165044">
        <ele>331.79998779296875</ele>
        <time>2018-12-29T09:12:41Z</time>
      </trkpt>
      <trkpt lat="41.314871376380324" lon="1.383845591917634">
        <ele>331.60000610351562</ele>
        <time>2018-12-29T09:12:42Z</time>
      </trkpt>
      <trkpt lat="41.314913621172309" lon="1.383747607469559">
        <ele>331.79998779296875</ele>
        <time>2018-12-29T09:12:44Z</time>
      </trkpt>
      <trkpt lat="41.314952848479152" lon="1.383650042116642">
        <ele>331.79998779296875</ele>
        <time>2018-12-29T09:12:46Z</time>
      </trkpt>
      <trkpt lat="41.314995596185327" lon="1.383550968021154">
        <ele>331.60000610351562</ele>
        <time>2018-12-29T09:12:48Z</time>
      </trkpt>
      <trkpt lat="41.31502409465611" lon="1.383503274992108">
        <ele>331.60000610351562</ele>
        <time>2018-12-29T09:12:49Z</time>
      </trkpt>
      <trkpt lat="41.315053179860115" lon="1.383454576134682">
        <ele>331.39999389648437</ele>
        <time>2018-12-29T09:12:50Z</time>
      </trkpt>
      <trkpt lat="41.315084611997008" lon="1.383410654962063">
        <ele>331.60000610351562</ele>
        <time>2018-12-29T09:12:51Z</time>
      </trkpt>
      <trkpt lat="41.315116127952933" lon="1.38337092474103">
        <ele>331.60000610351562</ele>
        <time>2018-12-29T09:12:52Z</time>
      </trkpt>
      <trkpt lat="41.315186200663447" lon="1.383300852030516">
        <ele>332</ele>
        <time>2018-12-29T09:12:54Z</time>
      </trkpt>
      <trkpt lat="41.315223835408688" lon="1.383269922807813">
        <ele>332.39999389648437</ele>
        <time>2018-12-29T09:12:55Z</time>
      </trkpt>
      <trkpt lat="41.315258955582976" lon="1.383240334689617">
        <ele>332.79998779296875</ele>
        <time>2018-12-29T09:12:56Z</time>
      </trkpt>
      <trkpt lat="41.315327016636729" lon="1.383180152624846">
        <ele>333.20001220703125</ele>
        <time>2018-12-29T09:12:58Z</time>
      </trkpt>
      <trkpt lat="41.315358784049749" lon="1.383145786821842">
        <ele>333.39999389648438</ele>
        <time>2018-12-29T09:12:59Z</time>
      </trkpt>
      <trkpt lat="41.315391389653087" lon="1.383112343028188">
        <ele>333.39999389648438</ele>
        <time>2018-12-29T09:13:00Z</time>
      </trkpt>
      <trkpt lat="41.315453918650746" lon="1.383037660270929">
        <ele>333.60000610351562</ele>
        <time>2018-12-29T09:13:02Z</time>
      </trkpt>
      <trkpt lat="41.315507814288139" lon="1.382958116009831">
        <ele>334.60000610351562</ele>
        <time>2018-12-29T09:13:04Z</time>
      </trkpt>
      <trkpt lat="41.315556177869439" lon="1.38287303969264">
        <ele>335.20001220703125</ele>
        <time>2018-12-29T09:13:06Z</time>
      </trkpt>
      <trkpt lat="41.315598590299487" lon="1.382778827100992">
        <ele>335.39999389648437</ele>
        <time>2018-12-29T09:13:08Z</time>
      </trkpt>
      <trkpt lat="41.315634297206998" lon="1.382684446871281">
        <ele>335.20001220703125</ele>
        <time>2018-12-29T09:13:10Z</time>
      </trkpt>
      <trkpt lat="41.315677464008331" lon="1.382590569555759">
        <ele>335.20001220703125</ele>
        <time>2018-12-29T09:13:12Z</time>
      </trkpt>
      <trkpt lat="41.315721552819014" lon="1.382495518773794">
        <ele>335.20001220703125</ele>
        <time>2018-12-29T09:13:14Z</time>
      </trkpt>
      <trkpt lat="41.315761366859078" lon="1.382398791611195">
        <ele>335.60000610351562</ele>
        <time>2018-12-29T09:13:16Z</time>
      </trkpt>
      <trkpt lat="41.315800007432699" lon="1.382303070276976">
        <ele>336.20001220703125</ele>
        <time>2018-12-29T09:13:18Z</time>
      </trkpt>
      <trkpt lat="41.315836384892464" lon="1.382208187133074">
        <ele>336.60000610351562</ele>
        <time>2018-12-29T09:13:20Z</time>
      </trkpt>
      <trkpt lat="41.315867565572262" lon="1.382109951227903">
        <ele>336.39999389648438</ele>
        <time>2018-12-29T09:13:22Z</time>
      </trkpt>
      <trkpt lat="41.315883575007319" lon="1.382062174379826">
        <ele>336.79998779296875</ele>
        <time>2018-12-29T09:13:23Z</time>
      </trkpt>
      <trkpt lat="41.315898830071092" lon="1.382013726979494">
        <ele>337</ele>
        <time>2018-12-29T09:13:24Z</time>
      </trkpt>
      <trkpt lat="41.315924562513828" lon="1.381913730874658">
        <ele>337.39999389648437</ele>
        <time>2018-12-29T09:13:26Z</time>
      </trkpt>
      <trkpt lat="41.315937889739871" lon="1.381809543818235">
        <ele>337.60000610351562</ele>
        <time>2018-12-29T09:13:28Z</time>
      </trkpt>
      <trkpt lat="41.315937219187617" lon="1.381756318733096">
        <ele>337.79998779296875</ele>
        <time>2018-12-29T09:13:29Z</time>
      </trkpt>
      <trkpt lat="41.315930262207985" lon="1.381703848019242">
        <ele>337.79998779296875</ele>
        <time>2018-12-29T09:13:30Z</time>
      </trkpt>
      <trkpt lat="41.315896147862077" lon="1.381599325686693">
        <ele>338</ele>
        <time>2018-12-29T09:13:32Z</time>
      </trkpt>
      <trkpt lat="41.315845688804984" lon="1.381505616009235">
        <ele>338</ele>
        <time>2018-12-29T09:13:34Z</time>
      </trkpt>
      <trkpt lat="41.315784584730864" lon="1.381429508328438">
        <ele>338.60000610351562</ele>
        <time>2018-12-29T09:13:36Z</time>
      </trkpt>
      <trkpt lat="41.315756924450397" lon="1.381402099505067">
        <ele>339</ele>
        <time>2018-12-29T09:13:37Z</time>
      </trkpt>
      <trkpt lat="41.315726498141885" lon="1.381377540528774">
        <ele>339.20001220703125</ele>
        <time>2018-12-29T09:13:38Z</time>
      </trkpt>
      <trkpt lat="41.315660951659083" lon="1.381340576335788">
        <ele>339.79998779296875</ele>
        <time>2018-12-29T09:13:40Z</time>
      </trkpt>
      <trkpt lat="41.315628178417683" lon="1.381331691518426">
        <ele>340.20001220703125</ele>
        <time>2018-12-29T09:13:41Z</time>
      </trkpt>
      <trkpt lat="41.315595237538218" lon="1.381323812529445">
        <ele>340.60000610351562</ele>
        <time>2018-12-29T09:13:42Z</time>
      </trkpt>
      <trkpt lat="41.315561877563596" lon="1.381318783387542">
        <ele>341.20001220703125</ele>
        <time>2018-12-29T09:13:43Z</time>
      </trkpt>
      <trkpt lat="41.315529607236385" lon="1.381316017359495">
        <ele>341.60000610351562</ele>
        <time>2018-12-29T09:13:44Z</time>
      </trkpt>
      <trkpt lat="41.315467413514853" lon="1.381323141977191">
        <ele>342.39999389648437</ele>
        <time>2018-12-29T09:13:46Z</time>
      </trkpt>
      <trkpt lat="41.315435981377959" lon="1.381327249109745">
        <ele>342.79998779296875</ele>
        <time>2018-12-29T09:13:47Z</time>
      </trkpt>
      <trkpt lat="41.31540329195559" lon="1.381331775337458">
        <ele>343</ele>
        <time>2018-12-29T09:13:48Z</time>
      </trkpt>
      <trkpt lat="41.315338164567947" lon="1.381341414526105">
        <ele>343.39999389648437</ele>
        <time>2018-12-29T09:13:50Z</time>
      </trkpt>
      <trkpt lat="41.315276054665446" lon="1.381352813914418">
        <ele>343.60000610351562</ele>
        <time>2018-12-29T09:13:52Z</time>
      </trkpt>
      <trkpt lat="41.315215202048421" lon="1.381355496123433">
        <ele>344</ele>
        <time>2018-12-29T09:13:54Z</time>
      </trkpt>
      <trkpt lat="41.315156947821379" lon="1.381349377334118">
        <ele>344.60000610351562</ele>
        <time>2018-12-29T09:13:56Z</time>
      </trkpt>
      <trkpt lat="41.315099028870463" lon="1.381328757852316">
        <ele>345</ele>
        <time>2018-12-29T09:13:58Z</time>
      </trkpt>
      <trkpt lat="41.3150470610708" lon="1.381296738982201">
        <ele>345.60000610351562</ele>
        <time>2018-12-29T09:14:00Z</time>
      </trkpt>
      <trkpt lat="41.315002217888832" lon="1.381245860829949">
        <ele>346</ele>
        <time>2018-12-29T09:14:02Z</time>
      </trkpt>
      <trkpt lat="41.314965588971972" lon="1.381184589117765">
        <ele>346.79998779296875</ele>
        <time>2018-12-29T09:14:04Z</time>
      </trkpt>
      <trkpt lat="41.314951088279486" lon="1.381148882210255">
        <ele>347</ele>
        <time>2018-12-29T09:14:05Z</time>
      </trkpt>
      <trkpt lat="41.314940443262458" lon="1.381109235808253">
        <ele>347.20001220703125</ele>
        <time>2018-12-29T09:14:06Z</time>
      </trkpt>
      <trkpt lat="41.314926026389003" lon="1.381030026823282">
        <ele>347.39999389648437</ele>
        <time>2018-12-29T09:14:08Z</time>
      </trkpt>
      <trkpt lat="41.314921667799354" lon="1.380989542230964">
        <ele>347.79998779296875</ele>
        <time>2018-12-29T09:14:09Z</time>
      </trkpt>
      <trkpt lat="41.314917393028736" lon="1.380949979647994">
        <ele>348</ele>
        <time>2018-12-29T09:14:10Z</time>
      </trkpt>
      <trkpt lat="41.314912866801023" lon="1.380910333245993">
        <ele>348.39999389648437</ele>
        <time>2018-12-29T09:14:11Z</time>
      </trkpt>
      <trkpt lat="41.314908675849438" lon="1.380870519205928">
        <ele>348.39999389648437</ele>
        <time>2018-12-29T09:14:12Z</time>
      </trkpt>
      <trkpt lat="41.314898701384664" lon="1.380789633840323">
        <ele>348.79998779296875</ele>
        <time>2018-12-29T09:14:14Z</time>
      </trkpt>
      <trkpt lat="41.31488679908216" lon="1.380700869485736">
        <ele>349</ele>
        <time>2018-12-29T09:14:16Z</time>
      </trkpt>
      <trkpt lat="41.31487556733191" lon="1.380614619702101">
        <ele>349.20001220703125</ele>
        <time>2018-12-29T09:14:18Z</time>
      </trkpt>
      <trkpt lat="41.3148726336658" lon="1.380574218928814">
        <ele>349.20001220703125</ele>
        <time>2018-12-29T09:14:19Z</time>
      </trkpt>
      <trkpt lat="41.314868610352278" lon="1.380535578355193">
        <ele>349.39999389648437</ele>
        <time>2018-12-29T09:14:20Z</time>
      </trkpt>
      <trkpt lat="41.314863162115216" lon="1.380493165925145">
        <ele>349.60000610351562</ele>
        <time>2018-12-29T09:14:21Z</time>
      </trkpt>
      <trkpt lat="41.314858552068472" lon="1.380449831485748">
        <ele>349.79998779296875</ele>
        <time>2018-12-29T09:14:22Z</time>
      </trkpt>
      <trkpt lat="41.314848912879825" lon="1.380361905321479">
        <ele>350.39999389648438</ele>
        <time>2018-12-29T09:14:24Z</time>
      </trkpt>
      <trkpt lat="41.314845895394683" lon="1.380319073796272">
        <ele>350.39999389648438</ele>
        <time>2018-12-29T09:14:25Z</time>
      </trkpt>
      <trkpt lat="41.314843716099858" lon="1.380273560062051">
        <ele>350.39999389648438</ele>
        <time>2018-12-29T09:14:26Z</time>
      </trkpt>
      <trkpt lat="41.314836172387004" lon="1.380182448774576">
        <ele>350.79998779296875</ele>
        <time>2018-12-29T09:14:28Z</time>
      </trkpt>
      <trkpt lat="41.314834412187338" lon="1.380104077979922">
        <ele>351.39999389648437</ele>
        <time>2018-12-29T09:14:30Z</time>
      </trkpt>
      <trkpt lat="41.314834915101528" lon="1.380063341930509">
        <ele>351.60000610351562</ele>
        <time>2018-12-29T09:14:31Z</time>
      </trkpt>
      <trkpt lat="41.314835837110877" lon="1.380019504576922">
        <ele>351.79998779296875</ele>
        <time>2018-12-29T09:14:32Z</time>
      </trkpt>
      <trkpt lat="41.31483793258667" lon="1.379930656403303">
        <ele>352</ele>
        <time>2018-12-29T09:14:34Z</time>
      </trkpt>
      <trkpt lat="41.314833657816052" lon="1.37983962893486">
        <ele>352.20001220703125</ele>
        <time>2018-12-29T09:14:36Z</time>
      </trkpt>
      <trkpt lat="41.314834328368306" lon="1.379748098552227">
        <ele>352.39999389648437</ele>
        <time>2018-12-29T09:14:38Z</time>
      </trkpt>
      <trkpt lat="41.314835166558623" lon="1.379654053598642">
        <ele>352.39999389648437</ele>
        <time>2018-12-29T09:14:40Z</time>
      </trkpt>
      <trkpt lat="41.314834076911211" lon="1.379552548751235">
        <ele>352.39999389648437</ele>
        <time>2018-12-29T09:14:42Z</time>
      </trkpt>
      <trkpt lat="41.31483156234026" lon="1.379440063610673">
        <ele>352</ele>
        <time>2018-12-29T09:14:44Z</time>
      </trkpt>
      <trkpt lat="41.314833573997021" lon="1.379315508529544">
        <ele>351.39999389648437</ele>
        <time>2018-12-29T09:14:46Z</time>
      </trkpt>
      <trkpt lat="41.314832651987672" lon="1.379170501604676">
        <ele>351.39999389648437</ele>
        <time>2018-12-29T09:14:48Z</time>
      </trkpt>
      <trkpt lat="41.314834663644433" lon="1.379015436396003">
        <ele>350.79998779296875</ele>
        <time>2018-12-29T09:14:50Z</time>
      </trkpt>
      <trkpt lat="41.314836926758289" lon="1.378851989284158">
        <ele>350.60000610351562</ele>
        <time>2018-12-29T09:14:52Z</time>
      </trkpt>
      <trkpt lat="41.314839692786336" lon="1.378671526908875">
        <ele>349.60000610351562</ele>
        <time>2018-12-29T09:14:54Z</time>
      </trkpt>
      <trkpt lat="41.31484086625278" lon="1.378574967384338">
        <ele>349</ele>
        <time>2018-12-29T09:14:55Z</time>
      </trkpt>
      <trkpt lat="41.314844973385334" lon="1.378476228564978">
        <ele>348.60000610351562</ele>
        <time>2018-12-29T09:14:56Z</time>
      </trkpt>
      <trkpt lat="41.314856875687838" lon="1.378273721784353">
        <ele>347.60000610351562</ele>
        <time>2018-12-29T09:14:58Z</time>
      </trkpt>
      <trkpt lat="41.314867017790675" lon="1.378172384575009">
        <ele>346.39999389648437</ele>
        <time>2018-12-29T09:14:59Z</time>
      </trkpt>
      <trkpt lat="41.314876154065132" lon="1.37807029299438">
        <ele>346.20001220703125</ele>
        <time>2018-12-29T09:15:00Z</time>
      </trkpt>
      <trkpt lat="41.314883446320891" lon="1.377863511443138">
        <ele>345.79998779296875</ele>
        <time>2018-12-29T09:15:02Z</time>
      </trkpt>
      <trkpt lat="41.314876908436418" lon="1.377758989110589">
        <ele>345</ele>
        <time>2018-12-29T09:15:03Z</time>
      </trkpt>
      <trkpt lat="41.314863581210375" lon="1.37765153311193">
        <ele>344.20001220703125</ele>
        <time>2018-12-29T09:15:04Z</time>
      </trkpt>
      <trkpt lat="41.314847487956285" lon="1.377541813999414">
        <ele>343</ele>
        <time>2018-12-29T09:15:05Z</time>
      </trkpt>
      <trkpt lat="41.31483013741672" lon="1.377429747954011">
        <ele>342.39999389648437</ele>
        <time>2018-12-29T09:15:06Z</time>
      </trkpt>
      <trkpt lat="41.314796945080161" lon="1.377196479588747">
        <ele>342</ele>
        <time>2018-12-29T09:15:08Z</time>
      </trkpt>
      <trkpt lat="41.314779845997691" lon="1.377076869830489">
        <ele>341.39999389648437</ele>
        <time>2018-12-29T09:15:09Z</time>
      </trkpt>
      <trkpt lat="41.314762998372316" lon="1.376956924796104">
        <ele>341</ele>
        <time>2018-12-29T09:15:10Z</time>
      </trkpt>
      <trkpt lat="41.314746821299195" lon="1.376840081065893">
        <ele>340.39999389648437</ele>
        <time>2018-12-29T09:15:11Z</time>
      </trkpt>
      <trkpt lat="41.31472997367382" lon="1.376721225678921">
        <ele>339.60000610351562</ele>
        <time>2018-12-29T09:15:12Z</time>
      </trkpt>
      <trkpt lat="41.314712539315224" lon="1.37660245411098">
        <ele>339.20001220703125</ele>
        <time>2018-12-29T09:15:13Z</time>
      </trkpt>
      <trkpt lat="41.314695524051785" lon="1.376483934000135">
        <ele>339</ele>
        <time>2018-12-29T09:15:14Z</time>
      </trkpt>
      <trkpt lat="41.314665684476495" lon="1.37624328956008">
        <ele>338.79998779296875</ele>
        <time>2018-12-29T09:15:16Z</time>
      </trkpt>
      <trkpt lat="41.314631151035428" lon="1.376005159690976">
        <ele>338.39999389648437</ele>
        <time>2018-12-29T09:15:18Z</time>
      </trkpt>
      <trkpt lat="41.314615979790688" lon="1.375888902693987">
        <ele>338</ele>
        <time>2018-12-29T09:15:19Z</time>
      </trkpt>
      <trkpt lat="41.31460047326982" lon="1.375773316249251">
        <ele>338</ele>
        <time>2018-12-29T09:15:20Z</time>
      </trkpt>
      <trkpt lat="41.314570130780339" lon="1.375556644052267">
        <ele>338</ele>
        <time>2018-12-29T09:15:22Z</time>
      </trkpt>
      <trkpt lat="41.314538195729256" lon="1.375356316566467">
        <ele>338.39999389648437</ele>
        <time>2018-12-29T09:15:24Z</time>
      </trkpt>
      <trkpt lat="41.31450324319303" lon="1.375173674896359">
        <ele>339</ele>
        <time>2018-12-29T09:15:26Z</time>
      </trkpt>
      <trkpt lat="41.314480779692531" lon="1.375086922198534">
        <ele>339.39999389648438</ele>
        <time>2018-12-29T09:15:27Z</time>
      </trkpt>
      <trkpt lat="41.314457142725587" lon="1.375001762062311">
        <ele>339.79998779296875</ele>
        <time>2018-12-29T09:15:28Z</time>
      </trkpt>
      <trkpt lat="41.314435098320246" lon="1.374918194487691">
        <ele>340.39999389648437</ele>
        <time>2018-12-29T09:15:29Z</time>
      </trkpt>
      <trkpt lat="41.314413556829095" lon="1.374836387112737">
        <ele>341</ele>
        <time>2018-12-29T09:15:30Z</time>
      </trkpt>
      <trkpt lat="41.314393440261483" lon="1.374755501747131">
        <ele>341.39999389648437</ele>
        <time>2018-12-29T09:15:31Z</time>
      </trkpt>
      <trkpt lat="41.314372653141618" lon="1.374678136780858">
        <ele>341.79998779296875</ele>
        <time>2018-12-29T09:15:32Z</time>
      </trkpt>
      <trkpt lat="41.314352536574006" lon="1.374600436538458">
        <ele>342.20001220703125</ele>
        <time>2018-12-29T09:15:33Z</time>
      </trkpt>
      <trkpt lat="41.314332755282521" lon="1.374523239210248">
        <ele>342.60000610351562</ele>
        <time>2018-12-29T09:15:34Z</time>
      </trkpt>
      <trkpt lat="41.314292773604393" lon="1.374369598925114">
        <ele>343.20001220703125</ele>
        <time>2018-12-29T09:15:36Z</time>
      </trkpt>
      <trkpt lat="41.314255306497216" lon="1.374219311401248">
        <ele>343.60000610351562</ele>
        <time>2018-12-29T09:15:38Z</time>
      </trkpt>
      <trkpt lat="41.314236782491207" lon="1.374146640300751">
        <ele>343.79998779296875</ele>
        <time>2018-12-29T09:15:39Z</time>
      </trkpt>
      <trkpt lat="41.314217420294881" lon="1.374073969200254">
        <ele>343.79998779296875</ele>
        <time>2018-12-29T09:15:40Z</time>
      </trkpt>
      <trkpt lat="41.314175510779023" lon="1.373937511816621">
        <ele>343.60000610351562</ele>
        <time>2018-12-29T09:15:42Z</time>
      </trkpt>
      <trkpt lat="41.314162602648139" lon="1.373870121315122">
        <ele>343.39999389648437</ele>
        <time>2018-12-29T09:15:43Z</time>
      </trkpt>
      <trkpt lat="41.314151370897889" lon="1.373803485184908">
        <ele>343.39999389648437</ele>
        <time>2018-12-29T09:15:44Z</time>
      </trkpt>
      <trkpt lat="41.314126895740628" lon="1.373662753030658">
        <ele>343.20001220703125</ele>
        <time>2018-12-29T09:15:46Z</time>
      </trkpt>
      <trkpt lat="41.314116083085537" lon="1.3735915068537">
        <ele>342.60000610351562</ele>
        <time>2018-12-29T09:15:47Z</time>
      </trkpt>
      <trkpt lat="41.314107030630112" lon="1.373518165200949">
        <ele>342.20001220703125</ele>
        <time>2018-12-29T09:15:48Z</time>
      </trkpt>
      <trkpt lat="41.314083645120263" lon="1.373366033658385">
        <ele>341.60000610351562</ele>
        <time>2018-12-29T09:15:50Z</time>
      </trkpt>
      <trkpt lat="41.314067468047142" lon="1.373283639550209">
        <ele>341.60000610351562</ele>
        <time>2018-12-29T09:15:51Z</time>
      </trkpt>
      <trkpt lat="41.314052548259497" lon="1.37319571338594">
        <ele>341.39999389648437</ele>
        <time>2018-12-29T09:15:52Z</time>
      </trkpt>
      <trkpt lat="41.314040645956993" lon="1.373106697574258">
        <ele>341</ele>
        <time>2018-12-29T09:15:53Z</time>
      </trkpt>
      <trkpt lat="41.314028408378363" lon="1.373016759753227">
        <ele>340.60000610351562</ele>
        <time>2018-12-29T09:15:54Z</time>
      </trkpt>
      <trkpt lat="41.313998065888882" lon="1.372827580198646">
        <ele>339.60000610351562</ele>
        <time>2018-12-29T09:15:56Z</time>
      </trkpt>
      <trkpt lat="41.313982391729951" lon="1.372729176655412">
        <ele>339.39999389648438</ele>
        <time>2018-12-29T09:15:57Z</time>
      </trkpt>
      <trkpt lat="41.313965041190386" lon="1.372627587988973">
        <ele>339</ele>
        <time>2018-12-29T09:15:58Z</time>
      </trkpt>
      <trkpt lat="41.313921203836799" lon="1.372413765639067">
        <ele>338.20001220703125</ele>
        <time>2018-12-29T09:16:00Z</time>
      </trkpt>
      <trkpt lat="41.313867643475533" lon="1.37219499796629">
        <ele>337.20001220703125</ele>
        <time>2018-12-29T09:16:02Z</time>
      </trkpt>
      <trkpt lat="41.313815508037806" lon="1.371970949694514">
        <ele>336</ele>
        <time>2018-12-29T09:16:04Z</time>
      </trkpt>
      <trkpt lat="41.313763204962015" lon="1.371744386851788">
        <ele>335.79998779296875</ele>
        <time>2018-12-29T09:16:06Z</time>
      </trkpt>
      <trkpt lat="41.313733197748661" lon="1.371630057692528">
        <ele>336</ele>
        <time>2018-12-29T09:16:07Z</time>
      </trkpt>
      <trkpt lat="41.313703525811434" lon="1.371512208133936">
        <ele>336</ele>
        <time>2018-12-29T09:16:08Z</time>
      </trkpt>
      <trkpt lat="41.313644265756011" lon="1.371276425197721">
        <ele>335</ele>
        <time>2018-12-29T09:16:10Z</time>
      </trkpt>
      <trkpt lat="41.313581736758351" lon="1.371040474623442">
        <ele>334.39999389648437</ele>
        <time>2018-12-29T09:16:12Z</time>
      </trkpt>
      <trkpt lat="41.313521889969707" lon="1.370810307562351">
        <ele>334.20001220703125</ele>
        <time>2018-12-29T09:16:14Z</time>
      </trkpt>
      <trkpt lat="41.313464138656855" lon="1.370581481605768">
        <ele>333.79998779296875</ele>
        <time>2018-12-29T09:16:16Z</time>
      </trkpt>
      <trkpt lat="41.313436226919293" lon="1.370466146618128">
        <ele>334</ele>
        <time>2018-12-29T09:16:17Z</time>
      </trkpt>
      <trkpt lat="41.313409237191081" lon="1.370348213240504">
        <ele>334</ele>
        <time>2018-12-29T09:16:18Z</time>
      </trkpt>
      <trkpt lat="41.313334889709949" lon="1.370120560750365">
        <ele>333.20001220703125</ele>
        <time>2018-12-29T09:16:20Z</time>
      </trkpt>
      <trkpt lat="41.313283843919635" lon="1.370014613494277">
        <ele>332.60000610351562</ele>
        <time>2018-12-29T09:16:21Z</time>
      </trkpt>
      <trkpt lat="41.313222739845514" lon="1.369916377589107">
        <ele>332.39999389648437</ele>
        <time>2018-12-29T09:16:22Z</time>
      </trkpt>
      <trkpt lat="41.313083935528994" lon="1.369742620736361">
        <ele>332.79998779296875</ele>
        <time>2018-12-29T09:16:24Z</time>
      </trkpt>
      <trkpt lat="41.313014030456543" lon="1.369660645723343">
        <ele>333</ele>
        <time>2018-12-29T09:16:25Z</time>
      </trkpt>
      <trkpt lat="41.312944879755378" lon="1.369579341262579">
        <ele>332.79998779296875</ele>
        <time>2018-12-29T09:16:26Z</time>
      </trkpt>
      <trkpt lat="41.312810014933348" lon="1.369418073445559">
        <ele>332.20001220703125</ele>
        <time>2018-12-29T09:16:28Z</time>
      </trkpt>
      <trkpt lat="41.312678838148713" lon="1.369254877790809">
        <ele>332.20001220703125</ele>
        <time>2018-12-29T09:16:30Z</time>
      </trkpt>
      <trkpt lat="41.312546068802476" lon="1.369099728763104">
        <ele>332.79998779296875</ele>
        <time>2018-12-29T09:16:32Z</time>
      </trkpt>
      <trkpt lat="41.312416819855571" lon="1.368946759030223">
        <ele>333.20001220703125</ele>
        <time>2018-12-29T09:16:34Z</time>
      </trkpt>
      <trkpt lat="41.312291929498315" lon="1.368805523961783">
        <ele>332.79998779296875</ele>
        <time>2018-12-29T09:16:36Z</time>
      </trkpt>
      <trkpt lat="41.312160501256585" lon="1.368669820949435">
        <ele>332.39999389648437</ele>
        <time>2018-12-29T09:16:38Z</time>
      </trkpt>
      <trkpt lat="41.312026809900999" lon="1.368532106280327">
        <ele>331.79998779296875</ele>
        <time>2018-12-29T09:16:40Z</time>
      </trkpt>
      <trkpt lat="41.31195648573339" lon="1.368461782112718">
        <ele>331.39999389648437</ele>
        <time>2018-12-29T09:16:41Z</time>
      </trkpt>
      <trkpt lat="41.311883144080639" lon="1.368391877040267">
        <ele>331</ele>
        <time>2018-12-29T09:16:42Z</time>
      </trkpt>
      <trkpt lat="41.311729503795505" lon="1.368248462677002">
        <ele>330</ele>
        <time>2018-12-29T09:16:44Z</time>
      </trkpt>
      <trkpt lat="41.311604026705027" lon="1.368097253143787">
        <ele>329.60000610351562</ele>
        <time>2018-12-29T09:16:46Z</time>
      </trkpt>
      <trkpt lat="41.311558345332742" lon="1.368010248988867">
        <ele>329.20001220703125</ele>
        <time>2018-12-29T09:16:47Z</time>
      </trkpt>
      <trkpt lat="41.311527583748102" lon="1.36791268363595">
        <ele>328.60000610351562</ele>
        <time>2018-12-29T09:16:48Z</time>
      </trkpt>
      <trkpt lat="41.311519788578153" lon="1.36768838390708">
        <ele>326.79998779296875</ele>
        <time>2018-12-29T09:16:50Z</time>
      </trkpt>
      <trkpt lat="41.311533870175481" lon="1.367567852139473">
        <ele>325.60000610351562</ele>
        <time>2018-12-29T09:16:51Z</time>
      </trkpt>
      <trkpt lat="41.311551136896014" lon="1.367443213239312">
        <ele>324.39999389648437</ele>
        <time>2018-12-29T09:16:52Z</time>
      </trkpt>
      <trkpt lat="41.311570415273309" lon="1.367317065596581">
        <ele>323.20001220703125</ele>
        <time>2018-12-29T09:16:53Z</time>
      </trkpt>
      <trkpt lat="41.311588604003191" lon="1.367189660668373">
        <ele>322.20001220703125</ele>
        <time>2018-12-29T09:16:54Z</time>
      </trkpt>
      <trkpt lat="41.31160612218082" lon="1.36706150136888">
        <ele>321.79998779296875</ele>
        <time>2018-12-29T09:16:55Z</time>
      </trkpt>
      <trkpt lat="41.311622718349099" lon="1.366929737851024">
        <ele>321.39999389648437</ele>
        <time>2018-12-29T09:16:56Z</time>
      </trkpt>
      <trkpt lat="41.311658173799515" lon="1.366666294634342">
        <ele>320.39999389648437</ele>
        <time>2018-12-29T09:16:58Z</time>
      </trkpt>
      <trkpt lat="41.311675440520048" lon="1.36653277091682">
        <ele>319.39999389648438</ele>
        <time>2018-12-29T09:16:59Z</time>
      </trkpt>
      <trkpt lat="41.311691449955106" lon="1.366399498656392">
        <ele>318.79998779296875</ele>
        <time>2018-12-29T09:17:00Z</time>
      </trkpt>
      <trkpt lat="41.311726318672299" lon="1.366133876144886">
        <ele>317.60000610351562</ele>
        <time>2018-12-29T09:17:02Z</time>
      </trkpt>
      <trkpt lat="41.31178105250001" lon="1.365877138450742">
        <ele>316.60000610351562</ele>
        <time>2018-12-29T09:17:04Z</time>
      </trkpt>
      <trkpt lat="41.311853304505348" lon="1.365636494010687">
        <ele>315.79998779296875</ele>
        <time>2018-12-29T09:17:06Z</time>
      </trkpt>
      <trkpt lat="41.31189001724124" lon="1.365520320832729">
        <ele>315.20001220703125</ele>
        <time>2018-12-29T09:17:07Z</time>
      </trkpt>
      <trkpt lat="41.311926729977131" lon="1.365408170968294">
        <ele>314.60000610351562</ele>
        <time>2018-12-29T09:17:08Z</time>
      </trkpt>
      <trkpt lat="41.312005603685975" lon="1.36518906801939">
        <ele>314.60000610351562</ele>
        <time>2018-12-29T09:17:10Z</time>
      </trkpt>
      <trkpt lat="41.312059918418527" lon="1.365092089399695">
        <ele>314.39999389648437</ele>
        <time>2018-12-29T09:17:11Z</time>
      </trkpt>
      <trkpt lat="41.31212655454874" lon="1.365010868757963">
        <ele>314.20001220703125</ele>
        <time>2018-12-29T09:17:12Z</time>
      </trkpt>
      <trkpt lat="41.312200063839555" lon="1.364939454942942">
        <ele>313.79998779296875</ele>
        <time>2018-12-29T09:17:13Z</time>
      </trkpt>
      <trkpt lat="41.31227457895875" lon="1.364869466051459">
        <ele>313.20001220703125</ele>
        <time>2018-12-29T09:17:14Z</time>
      </trkpt>
      <trkpt lat="41.312350938096642" lon="1.364803332835436">
        <ele>312.60000610351562</ele>
        <time>2018-12-29T09:17:15Z</time>
      </trkpt>
      <trkpt lat="41.312427716329694" lon="1.364730913192034">
        <ele>312.20001220703125</ele>
        <time>2018-12-29T09:17:16Z</time>
      </trkpt>
      <trkpt lat="41.312498208135366" lon="1.364647764712572">
        <ele>311.79998779296875</ele>
        <time>2018-12-29T09:17:17Z</time>
      </trkpt>
      <trkpt lat="41.312553193420172" lon="1.364548020064831">
        <ele>311.39999389648437</ele>
        <time>2018-12-29T09:17:18Z</time>
      </trkpt>
      <trkpt lat="41.312589403241873" lon="1.364433858543634">
        <ele>311</ele>
        <time>2018-12-29T09:17:19Z</time>
      </trkpt>
      <trkpt lat="41.312605580314994" lon="1.364312404766679">
        <ele>310.60000610351562</ele>
        <time>2018-12-29T09:17:20Z</time>
      </trkpt>
      <trkpt lat="41.312607675790787" lon="1.364191370084882">
        <ele>310.20001220703125</ele>
        <time>2018-12-29T09:17:21Z</time>
      </trkpt>
      <trkpt lat="41.312605580314994" lon="1.364071341231465">
        <ele>310</ele>
        <time>2018-12-29T09:17:22Z</time>
      </trkpt>
      <trkpt lat="41.312602646648884" lon="1.36395231820643">
        <ele>309.79998779296875</ele>
        <time>2018-12-29T09:17:23Z</time>
      </trkpt>
      <trkpt lat="41.312595689669251" lon="1.363837821409106">
        <ele>309.79998779296875</ele>
        <time>2018-12-29T09:17:24Z</time>
      </trkpt>
      <trkpt lat="41.312585631385446" lon="1.363609163090587">
        <ele>309.60000610351562</ele>
        <time>2018-12-29T09:17:26Z</time>
      </trkpt>
      <trkpt lat="41.312585044652224" lon="1.363499527797103">
        <ele>309</ele>
        <time>2018-12-29T09:17:27Z</time>
      </trkpt>
      <trkpt lat="41.312584960833192" lon="1.363391065970063">
        <ele>308.79998779296875</ele>
        <time>2018-12-29T09:17:28Z</time>
      </trkpt>
      <trkpt lat="41.312575489282608" lon="1.363177495077252">
        <ele>308.79998779296875</ele>
        <time>2018-12-29T09:17:30Z</time>
      </trkpt>
      <trkpt lat="41.312561742961407" lon="1.363070625811815">
        <ele>308.79998779296875</ele>
        <time>2018-12-29T09:17:31Z</time>
      </trkpt>
      <trkpt lat="41.312539698556066" lon="1.362964594736695">
        <ele>309</ele>
        <time>2018-12-29T09:17:32Z</time>
      </trkpt>
      <trkpt lat="41.312516061589122" lon="1.362856971099973">
        <ele>309.39999389648437</ele>
        <time>2018-12-29T09:17:33Z</time>
      </trkpt>
      <trkpt lat="41.312487730756402" lon="1.36274691671133">
        <ele>309.39999389648437</ele>
        <time>2018-12-29T09:17:34Z</time>
      </trkpt>
      <trkpt lat="41.312417322769761" lon="1.362517001107335">
        <ele>308.60000610351562</ele>
        <time>2018-12-29T09:17:36Z</time>
      </trkpt>
      <trkpt lat="41.31238111294806" lon="1.362399738281965">
        <ele>307.79998779296875</ele>
        <time>2018-12-29T09:17:37Z</time>
      </trkpt>
      <trkpt lat="41.312344148755074" lon="1.362280966714025">
        <ele>307</ele>
        <time>2018-12-29T09:17:38Z</time>
      </trkpt>
      <trkpt lat="41.312308358028531" lon="1.362160351127386">
        <ele>306.20001220703125</ele>
        <time>2018-12-29T09:17:39Z</time>
      </trkpt>
      <trkpt lat="41.312272567301989" lon="1.362039232626557">
        <ele>305.79998779296875</ele>
        <time>2018-12-29T09:17:40Z</time>
      </trkpt>
      <trkpt lat="41.312193023040891" lon="1.361797163262963">
        <ele>305.20001220703125</ele>
        <time>2018-12-29T09:17:42Z</time>
      </trkpt>
      <trkpt lat="41.312092188745737" lon="1.361565152183175">
        <ele>303.39999389648437</ele>
        <time>2018-12-29T09:17:44Z</time>
      </trkpt>
      <trkpt lat="41.312044160440564" lon="1.36144713498652">
        <ele>302.39999389648438</ele>
        <time>2018-12-29T09:17:45Z</time>
      </trkpt>
      <trkpt lat="41.31199655123055" lon="1.361328195780516">
        <ele>301.79998779296875</ele>
        <time>2018-12-29T09:17:46Z</time>
      </trkpt>
      <trkpt lat="41.311896722763777" lon="1.361095095053315">
        <ele>301.60000610351562</ele>
        <time>2018-12-29T09:17:48Z</time>
      </trkpt>
      <trkpt lat="41.311775101348758" lon="1.360885296016932">
        <ele>301</ele>
        <time>2018-12-29T09:17:50Z</time>
      </trkpt>
      <trkpt lat="41.311698658391833" lon="1.360798794776201">
        <ele>300.79998779296875</ele>
        <time>2018-12-29T09:17:51Z</time>
      </trkpt>
      <trkpt lat="41.311611570417881" lon="1.360723525285721">
        <ele>300.60000610351562</ele>
        <time>2018-12-29T09:17:52Z</time>
      </trkpt>
      <trkpt lat="41.311415350064635" lon="1.360627636313438">
        <ele>299.39999389648438</ele>
        <time>2018-12-29T09:17:54Z</time>
      </trkpt>
      <trkpt lat="41.311309738084674" lon="1.360606765374541">
        <ele>298.20001220703125</ele>
        <time>2018-12-29T09:17:55Z</time>
      </trkpt>
      <trkpt lat="41.311198174953461" lon="1.360592767596245">
        <ele>297.20001220703125</ele>
        <time>2018-12-29T09:17:56Z</time>
      </trkpt>
      <trkpt lat="41.311085019260645" lon="1.360585726797581">
        <ele>296.39999389648438</ele>
        <time>2018-12-29T09:17:57Z</time>
      </trkpt>
      <trkpt lat="41.310969181358814" lon="1.360580530017614">
        <ele>295.39999389648437</ele>
        <time>2018-12-29T09:17:58Z</time>
      </trkpt>
      <trkpt lat="41.310851415619254" lon="1.360580446198583">
        <ele>294.39999389648437</ele>
        <time>2018-12-29T09:17:59Z</time>
      </trkpt>
      <trkpt lat="41.310729626566172" lon="1.360575836151838">
        <ele>293.60000610351562</ele>
        <time>2018-12-29T09:18:00Z</time>
      </trkpt>
      <trkpt lat="41.310606831684709" lon="1.360566113144159">
        <ele>292.60000610351562</ele>
        <time>2018-12-29T09:18:01Z</time>
      </trkpt>
      <trkpt lat="41.310489065945148" lon="1.360560078173876">
        <ele>291.39999389648437</ele>
        <time>2018-12-29T09:18:02Z</time>
      </trkpt>
      <trkpt lat="41.310378508642316" lon="1.360567873343825">
        <ele>290.39999389648437</ele>
        <time>2018-12-29T09:18:03Z</time>
      </trkpt>
      <trkpt lat="41.310276836156845" lon="1.360588241368532">
        <ele>289.79998779296875</ele>
        <time>2018-12-29T09:18:04Z</time>
      </trkpt>
      <trkpt lat="41.310176840052009" lon="1.360616320744157">
        <ele>289.20001220703125</ele>
        <time>2018-12-29T09:18:05Z</time>
      </trkpt>
      <trkpt lat="41.310074999928474" lon="1.360635180026293">
        <ele>288.60000610351562</ele>
        <time>2018-12-29T09:18:06Z</time>
      </trkpt>
      <trkpt lat="41.309971315786242" lon="1.360628725960851">
        <ele>287.79998779296875</ele>
        <time>2018-12-29T09:18:07Z</time>
      </trkpt>
      <trkpt lat="41.309863524511456" lon="1.360610201954842">
        <ele>287</ele>
        <time>2018-12-29T09:18:08Z</time>
      </trkpt>
      <trkpt lat="41.309750368818641" lon="1.36059251613915">
        <ele>286.39999389648437</ele>
        <time>2018-12-29T09:18:09Z</time>
      </trkpt>
      <trkpt lat="41.30962916649878" lon="1.360592013224959">
        <ele>285.20001220703125</ele>
        <time>2018-12-29T09:18:10Z</time>
      </trkpt>
      <trkpt lat="41.309513077139854" lon="1.360610034316778">
        <ele>283.79998779296875</ele>
        <time>2018-12-29T09:18:11Z</time>
      </trkpt>
      <trkpt lat="41.309401765465736" lon="1.360640544444323">
        <ele>281.39999389648437</ele>
        <time>2018-12-29T09:18:12Z</time>
      </trkpt>
      <trkpt lat="41.309225996956229" lon="1.360700223594904">
        <ele>279.39999389648438</ele>
        <time>2018-12-29T09:18:14Z</time>
      </trkpt>
      <trkpt lat="41.309142261743546" lon="1.360720507800579">
        <ele>278.79998779296875</ele>
        <time>2018-12-29T09:18:15Z</time>
      </trkpt>
      <trkpt lat="41.309060957282782" lon="1.360727548599243">
        <ele>278.39999389648437</ele>
        <time>2018-12-29T09:18:16Z</time>
      </trkpt>
      <trkpt lat="41.308919051662087" lon="1.360697541385889">
        <ele>277.20001220703125</ele>
        <time>2018-12-29T09:18:18Z</time>
      </trkpt>
      <trkpt lat="41.308787120506167" lon="1.360655296593905">
        <ele>276.20001220703125</ele>
        <time>2018-12-29T09:18:20Z</time>
      </trkpt>
      <trkpt lat="41.308717047795653" lon="1.360630067065358">
        <ele>275.60000610351562</ele>
        <time>2018-12-29T09:18:21Z</time>
      </trkpt>
      <trkpt lat="41.308647561818361" lon="1.36059888638556">
        <ele>274.60000610351562</ele>
        <time>2018-12-29T09:18:22Z</time>
      </trkpt>
      <trkpt lat="41.308575225993991" lon="1.360548594966531">
        <ele>273.79998779296875</ele>
        <time>2018-12-29T09:18:23Z</time>
      </trkpt>
      <trkpt lat="41.30851361900568" lon="1.360482126474381">
        <ele>273.20001220703125</ele>
        <time>2018-12-29T09:18:24Z</time>
      </trkpt>
      <trkpt lat="41.308434996753931" lon="1.360308034345508">
        <ele>271.60000610351562</ele>
        <time>2018-12-29T09:18:26Z</time>
      </trkpt>
      <trkpt lat="41.308427536860108" lon="1.360134277492762">
        <ele>270.60000610351562</ele>
        <time>2018-12-29T09:18:28Z</time>
      </trkpt>
      <trkpt lat="41.308460729196668" lon="1.360037969425321">
        <ele>269.79998779296875</ele>
        <time>2018-12-29T09:18:29Z</time>
      </trkpt>
      <trkpt lat="41.308505237102509" lon="1.359945852309465">
        <ele>268.60000610351562</ele>
        <time>2018-12-29T09:18:30Z</time>
      </trkpt>
      <trkpt lat="41.308557204902172" lon="1.359861614182591">
        <ele>267.60000610351562</ele>
        <time>2018-12-29T09:18:31Z</time>
      </trkpt>
      <trkpt lat="41.308616632595658" lon="1.359785925596952">
        <ele>266.60000610351562</ele>
        <time>2018-12-29T09:18:32Z</time>
      </trkpt>
      <trkpt lat="41.308677149936557" lon="1.359715517610312">
        <ele>265.79998779296875</ele>
        <time>2018-12-29T09:18:33Z</time>
      </trkpt>
      <trkpt lat="41.308734565973282" lon="1.359652150422335">
        <ele>265</ele>
        <time>2018-12-29T09:18:34Z</time>
      </trkpt>
      <trkpt lat="41.308792065829039" lon="1.359587861225009">
        <ele>264.39999389648437</ele>
        <time>2018-12-29T09:18:35Z</time>
      </trkpt>
      <trkpt lat="41.308848224580288" lon="1.359520554542542">
        <ele>263.79998779296875</ele>
        <time>2018-12-29T09:18:36Z</time>
      </trkpt>
      <trkpt lat="41.308907652273774" lon="1.359453247860074">
        <ele>263.39999389648437</ele>
        <time>2018-12-29T09:18:37Z</time>
      </trkpt>
      <trkpt lat="41.308970684185624" lon="1.359390299767256">
        <ele>263</ele>
        <time>2018-12-29T09:18:38Z</time>
      </trkpt>
      <trkpt lat="41.309036985039711" lon="1.35934017598629">
        <ele>262.79998779296875</ele>
        <time>2018-12-29T09:18:39Z</time>
      </trkpt>
      <trkpt lat="41.309105800464749" lon="1.359297763556242">
        <ele>262.39999389648438</ele>
        <time>2018-12-29T09:18:40Z</time>
      </trkpt>
      <trkpt lat="41.3091791421175" lon="1.359268175438047">
        <ele>262.20001220703125</ele>
        <time>2018-12-29T09:18:41Z</time>
      </trkpt>
      <trkpt lat="41.309253489598632" lon="1.359246885403991">
        <ele>261.60000610351562</ele>
        <time>2018-12-29T09:18:42Z</time>
      </trkpt>
      <trkpt lat="41.309327417984605" lon="1.359225511550903">
        <ele>261.20001220703125</ele>
        <time>2018-12-29T09:18:43Z</time>
      </trkpt>
      <trkpt lat="41.309398580342531" lon="1.359202545136213">
        <ele>261</ele>
        <time>2018-12-29T09:18:44Z</time>
      </trkpt>
      <trkpt lat="41.309524979442358" lon="1.359156779944897">
        <ele>261.20001220703125</ele>
        <time>2018-12-29T09:18:46Z</time>
      </trkpt>
      <trkpt lat="41.309568649157882" lon="1.359116462990642">
        <ele>261.39999389648437</ele>
        <time>2018-12-29T09:18:47Z</time>
      </trkpt>
      <trkpt lat="41.309592956677079" lon="1.359058879315853">
        <ele>261.79998779296875</ele>
        <time>2018-12-29T09:18:48Z</time>
      </trkpt>
      <trkpt lat="41.309597818180919" lon="1.358989393338561">
        <ele>261.60000610351562</ele>
        <time>2018-12-29T09:18:49Z</time>
      </trkpt>
      <trkpt lat="41.309593040496111" lon="1.358911525458098">
        <ele>261.20001220703125</ele>
        <time>2018-12-29T09:18:50Z</time>
      </trkpt>
      <trkpt lat="41.309588849544525" lon="1.358827790245414">
        <ele>260.79998779296875</ele>
        <time>2018-12-29T09:18:51Z</time>
      </trkpt>
      <trkpt lat="41.309585580602288" lon="1.358739277347922">
        <ele>260.20001220703125</ele>
        <time>2018-12-29T09:18:52Z</time>
      </trkpt>
      <trkpt lat="41.309586251154542" lon="1.35864875279367">
        <ele>259.79998779296875</ele>
        <time>2018-12-29T09:18:53Z</time>
      </trkpt>
      <trkpt lat="41.309584658592939" lon="1.358556048944593">
        <ele>259.20001220703125</ele>
        <time>2018-12-29T09:18:54Z</time>
      </trkpt>
      <trkpt lat="41.309580551460385" lon="1.358476337045431">
        <ele>258.79998779296875</ele>
        <time>2018-12-29T09:18:55Z</time>
      </trkpt>
      <trkpt lat="41.309571918100119" lon="1.358401905745268">
        <ele>258.79998779296875</ele>
        <time>2018-12-29T09:18:56Z</time>
      </trkpt>
      <trkpt lat="41.309555908665061" lon="1.358276177197695">
        <ele>258.39999389648437</ele>
        <time>2018-12-29T09:18:58Z</time>
      </trkpt>
      <trkpt lat="41.309548951685429" lon="1.358187329024077">
        <ele>257.60000610351562</ele>
        <time>2018-12-29T09:19:00Z</time>
      </trkpt>
      <trkpt lat="41.309556579217315" lon="1.358162267133594">
        <ele>257.20001220703125</ele>
        <time>2018-12-29T09:19:02Z</time>
      </trkpt>
      <trkpt lat="41.309552639722824" lon="1.358120189979672">
        <ele>256.79998779296875</ele>
        <time>2018-12-29T09:19:11Z</time>
      </trkpt>
      <trkpt lat="41.309561356902122" lon="1.358058750629425">
        <ele>256.60000610351562</ele>
        <time>2018-12-29T09:19:13Z</time>
      </trkpt>
      <trkpt lat="41.309558842331171" lon="1.358048608526588">
        <ele>256.20001220703125</ele>
        <time>2018-12-29T09:19:15Z</time>
      </trkpt>
      <trkpt lat="41.309542246162891" lon="1.358033772557974">
        <ele>256.39999389648437</ele>
        <time>2018-12-29T09:19:17Z</time>
      </trkpt>
      <trkpt lat="41.309518441557884" lon="1.358031257987022">
        <ele>256.39999389648437</ele>
        <time>2018-12-29T09:19:19Z</time>
      </trkpt>
      <trkpt lat="41.309475861489773" lon="1.3580237980932">
        <ele>256.20001220703125</ele>
        <time>2018-12-29T09:19:21Z</time>
      </trkpt>
      <trkpt lat="41.309446776285768" lon="1.358023546636105">
        <ele>256.20001220703125</ele>
        <time>2018-12-29T09:19:22Z</time>
      </trkpt>
      <trkpt lat="41.309414003044367" lon="1.358024887740612">
        <ele>256.20001220703125</ele>
        <time>2018-12-29T09:19:23Z</time>
      </trkpt>
      <trkpt lat="41.30934133194387" lon="1.358014075085521">
        <ele>256.20001220703125</ele>
        <time>2018-12-29T09:19:25Z</time>
      </trkpt>
      <trkpt lat="41.309256255626678" lon="1.358005441725254">
        <ele>256</ele>
        <time>2018-12-29T09:19:27Z</time>
      </trkpt>
      <trkpt lat="41.309168916195631" lon="1.35799010284245">
        <ele>255.80000305175781</ele>
        <time>2018-12-29T09:19:29Z</time>
      </trkpt>
      <trkpt lat="41.30909021012485" lon="1.357980966567993">
        <ele>255.80000305175781</ele>
        <time>2018-12-29T09:19:31Z</time>
      </trkpt>
      <trkpt lat="41.309004379436374" lon="1.357971075922251">
        <ele>255.80000305175781</ele>
        <time>2018-12-29T09:19:33Z</time>
      </trkpt>
      <trkpt lat="41.308906897902489" lon="1.357945846393704">
        <ele>255.60000610351562</ele>
        <time>2018-12-29T09:19:35Z</time>
      </trkpt>
      <trkpt lat="41.308851661160588" lon="1.357931848615408">
        <ele>255.39999389648437</ele>
        <time>2018-12-29T09:19:36Z</time>
      </trkpt>
      <trkpt lat="41.308797178789973" lon="1.357913743704557">
        <ele>255.19999694824219</ele>
        <time>2018-12-29T09:19:37Z</time>
      </trkpt>
      <trkpt lat="41.308683017268777" lon="1.357879377901554">
        <ele>254.39999389648437</ele>
        <time>2018-12-29T09:19:39Z</time>
      </trkpt>
      <trkpt lat="41.308623421937227" lon="1.357849454507232">
        <ele>254</ele>
        <time>2018-12-29T09:19:40Z</time>
      </trkpt>
      <trkpt lat="41.308560976758599" lon="1.357810562476516">
        <ele>253.60000610351562</ele>
        <time>2018-12-29T09:19:41Z</time>
      </trkpt>
      <trkpt lat="41.308441953733563" lon="1.357725569978356">
        <ele>253.19999694824219</ele>
        <time>2018-12-29T09:19:43Z</time>
      </trkpt>
      <trkpt lat="41.308385627344251" lon="1.35767444036901">
        <ele>252.80000305175781</ele>
        <time>2018-12-29T09:19:44Z</time>
      </trkpt>
      <trkpt lat="41.308329217135906" lon="1.357618700712919">
        <ele>252.39999389648437</ele>
        <time>2018-12-29T09:19:45Z</time>
      </trkpt>
      <trkpt lat="41.30827909335494" lon="1.357562877237797">
        <ele>252.19999694824219</ele>
        <time>2018-12-29T09:19:46Z</time>
      </trkpt>
      <trkpt lat="41.308239530771971" lon="1.357515854761004">
        <ele>251.80000305175781</ele>
        <time>2018-12-29T09:19:47Z</time>
      </trkpt>
      <trkpt lat="41.308205416426063" lon="1.357477381825447">
        <ele>250.80000305175781</ele>
        <time>2018-12-29T09:19:48Z</time>
      </trkpt>
      <trkpt lat="41.308178259059787" lon="1.35743647813797">
        <ele>250.60000610351562</ele>
        <time>2018-12-29T09:19:49Z</time>
      </trkpt>
      <trkpt lat="41.308149341493845" lon="1.357379984110594">
        <ele>250.19999694824219</ele>
        <time>2018-12-29T09:19:50Z</time>
      </trkpt>
      <trkpt lat="41.308120340108871" lon="1.35731820948422">
        <ele>249.80000305175781</ele>
        <time>2018-12-29T09:19:51Z</time>
      </trkpt>
      <trkpt lat="41.308065941557288" lon="1.357177561149001">
        <ele>248.80000305175781</ele>
        <time>2018-12-29T09:19:53Z</time>
      </trkpt>
      <trkpt lat="41.308023612946272" lon="1.357019143179059">
        <ele>248</ele>
        <time>2018-12-29T09:19:55Z</time>
      </trkpt>
      <trkpt lat="41.308003328740597" lon="1.356934234499931">
        <ele>247.80000305175781</ele>
        <time>2018-12-29T09:19:56Z</time>
      </trkpt>
      <trkpt lat="41.307980697602034" lon="1.356846140697599">
        <ele>247.60000610351562</ele>
        <time>2018-12-29T09:19:57Z</time>
      </trkpt>
      <trkpt lat="41.307960748672485" lon="1.356753688305616">
        <ele>247</ele>
        <time>2018-12-29T09:19:58Z</time>
      </trkpt>
      <trkpt lat="41.307939793914557" lon="1.356657547876239">
        <ele>246.39999389648437</ele>
        <time>2018-12-29T09:19:59Z</time>
      </trkpt>
      <trkpt lat="41.307898554950953" lon="1.356454705819488">
        <ele>246</ele>
        <time>2018-12-29T09:20:01Z</time>
      </trkpt>
      <trkpt lat="41.307857986539602" lon="1.356241218745709">
        <ele>245.39999389648437</ele>
        <time>2018-12-29T09:20:03Z</time>
      </trkpt>
      <trkpt lat="41.307841893285513" lon="1.356128230690956">
        <ele>244.60000610351562</ele>
        <time>2018-12-29T09:20:04Z</time>
      </trkpt>
      <trkpt lat="41.307829655706882" lon="1.356012225151062">
        <ele>244.19999694824219</ele>
        <time>2018-12-29T09:20:05Z</time>
      </trkpt>
      <trkpt lat="41.307820687070489" lon="1.355895632877946">
        <ele>243.39999389648437</ele>
        <time>2018-12-29T09:20:06Z</time>
      </trkpt>
      <trkpt lat="41.307818423956633" lon="1.355781638994813">
        <ele>242.60000610351562</ele>
        <time>2018-12-29T09:20:07Z</time>
      </trkpt>
      <trkpt lat="41.30781926214695" lon="1.355573348701">
        <ele>241.60000610351562</ele>
        <time>2018-12-29T09:20:09Z</time>
      </trkpt>
      <trkpt lat="41.307825464755297" lon="1.355374278500676">
        <ele>242</ele>
        <time>2018-12-29T09:20:11Z</time>
      </trkpt>
      <trkpt lat="41.307827644050121" lon="1.355280233547092">
        <ele>240.80000305175781</ele>
        <time>2018-12-29T09:20:12Z</time>
      </trkpt>
      <trkpt lat="41.307832757011056" lon="1.355191636830568">
        <ele>240.80000305175781</ele>
        <time>2018-12-29T09:20:13Z</time>
      </trkpt>
      <trkpt lat="41.307838037610054" lon="1.35502215474844">
        <ele>242.19999694824219</ele>
        <time>2018-12-29T09:20:15Z</time>
      </trkpt>
      <trkpt lat="41.307841222733259" lon="1.354868011549115">
        <ele>242.60000610351562</ele>
        <time>2018-12-29T09:20:17Z</time>
      </trkpt>
      <trkpt lat="41.307818340137601" lon="1.354728117585182">
        <ele>242.80000305175781</ele>
        <time>2018-12-29T09:20:19Z</time>
      </trkpt>
      <trkpt lat="41.307799145579338" lon="1.354661900550127">
        <ele>243</ele>
        <time>2018-12-29T09:20:20Z</time>
      </trkpt>
      <trkpt lat="41.307774418964982" lon="1.354599958285689">
        <ele>243.19999694824219</ele>
        <time>2018-12-29T09:20:21Z</time>
      </trkpt>
      <trkpt lat="41.307718176394701" lon="1.354492586106062">
        <ele>243.80000305175781</ele>
        <time>2018-12-29T09:20:23Z</time>
      </trkpt>
      <trkpt lat="41.307692108675838" lon="1.354442546144128">
        <ele>244.19999694824219</ele>
        <time>2018-12-29T09:20:24Z</time>
      </trkpt>
      <trkpt lat="41.307660844177008" lon="1.35439527221024">
        <ele>244.60000610351562</ele>
        <time>2018-12-29T09:20:25Z</time>
      </trkpt>
      <trkpt lat="41.307580377906561" lon="1.354318326339126">
        <ele>244.80000305175781</ele>
        <time>2018-12-29T09:20:27Z</time>
      </trkpt>
      <trkpt lat="41.307497061789036" lon="1.354267867282033">
        <ele>245.19999694824219</ele>
        <time>2018-12-29T09:20:29Z</time>
      </trkpt>
      <trkpt lat="41.307453392073512" lon="1.354246828705072">
        <ele>245.60000610351562</ele>
        <time>2018-12-29T09:20:30Z</time>
      </trkpt>
      <trkpt lat="41.307411817833781" lon="1.354231825098395">
        <ele>246</ele>
        <time>2018-12-29T09:20:31Z</time>
      </trkpt>
      <trkpt lat="41.307366052642465" lon="1.354226293042302">
        <ele>246.39999389648437</ele>
        <time>2018-12-29T09:20:32Z</time>
      </trkpt>
      <trkpt lat="41.307319784536958" lon="1.354223527014256">
        <ele>246.60000610351562</ele>
        <time>2018-12-29T09:20:33Z</time>
      </trkpt>
      <trkpt lat="41.307271420955658" lon="1.354217492043972">
        <ele>246.80000305175781</ele>
        <time>2018-12-29T09:20:34Z</time>
      </trkpt>
      <trkpt lat="41.307227332144976" lon="1.354217827320099">
        <ele>247</ele>
        <time>2018-12-29T09:20:35Z</time>
      </trkpt>
      <trkpt lat="41.307142423465848" lon="1.354229142889381">
        <ele>247.60000610351562</ele>
        <time>2018-12-29T09:20:37Z</time>
      </trkpt>
      <trkpt lat="41.307100933045149" lon="1.354233417659998">
        <ele>248</ele>
        <time>2018-12-29T09:20:38Z</time>
      </trkpt>
      <trkpt lat="41.307063298299909" lon="1.354242889210582">
        <ele>248.39999389648437</ele>
        <time>2018-12-29T09:20:39Z</time>
      </trkpt>
      <trkpt lat="41.306976797059178" lon="1.354265017434955">
        <ele>248.60000610351562</ele>
        <time>2018-12-29T09:20:41Z</time>
      </trkpt>
      <trkpt lat="41.306929187849164" lon="1.354274405166507">
        <ele>248.60000610351562</ele>
        <time>2018-12-29T09:20:42Z</time>
      </trkpt>
      <trkpt lat="41.306880908086896" lon="1.354286642745137">
        <ele>248.39999389648437</ele>
        <time>2018-12-29T09:20:43Z</time>
      </trkpt>
      <trkpt lat="41.306782253086567" lon="1.354309860616922">
        <ele>248.39999389648437</ele>
        <time>2018-12-29T09:20:45Z</time>
      </trkpt>
      <trkpt lat="41.306681670248508" lon="1.354326456785202">
        <ele>248.60000610351562</ele>
        <time>2018-12-29T09:20:47Z</time>
      </trkpt>
      <trkpt lat="41.306584691628814" lon="1.354323020204902">
        <ele>248.60000610351562</ele>
        <time>2018-12-29T09:20:49Z</time>
      </trkpt>
      <trkpt lat="41.306535908952355" lon="1.354314386844635">
        <ele>248.60000610351562</ele>
        <time>2018-12-29T09:20:50Z</time>
      </trkpt>
      <trkpt lat="41.306487880647182" lon="1.354299215599895">
        <ele>248.60000610351562</ele>
        <time>2018-12-29T09:20:51Z</time>
      </trkpt>
      <trkpt lat="41.306395009160042" lon="1.35426627472043">
        <ele>248.60000610351562</ele>
        <time>2018-12-29T09:20:53Z</time>
      </trkpt>
      <trkpt lat="41.306307837367058" lon="1.354226293042302">
        <ele>249.19999694824219</ele>
        <time>2018-12-29T09:20:55Z</time>
      </trkpt>
      <trkpt lat="41.306226029992104" lon="1.354177929461002">
        <ele>249.60000610351562</ele>
        <time>2018-12-29T09:20:57Z</time>
      </trkpt>
      <trkpt lat="41.306189736351371" lon="1.354147251695395">
        <ele>249.80000305175781</ele>
        <time>2018-12-29T09:20:58Z</time>
      </trkpt>
      <trkpt lat="41.306153358891606" lon="1.35411967523396">
        <ele>250.19999694824219</ele>
        <time>2018-12-29T09:20:59Z</time>
      </trkpt>
      <trkpt lat="41.306082280352712" lon="1.354062594473362">
        <ele>250.60000610351562</ele>
        <time>2018-12-29T09:21:01Z</time>
      </trkpt>
      <trkpt lat="41.306010112166405" lon="1.354007944464684">
        <ele>250.80000305175781</ele>
        <time>2018-12-29T09:21:03Z</time>
      </trkpt>
      <trkpt lat="41.305976333096623" lon="1.353976428508759">
        <ele>251</ele>
        <time>2018-12-29T09:21:04Z</time>
      </trkpt>
      <trkpt lat="41.305943224579096" lon="1.353946169838309">
        <ele>251.39999389648438</ele>
        <time>2018-12-29T09:21:05Z</time>
      </trkpt>
      <trkpt lat="41.305872732773423" lon="1.353883808478713">
        <ele>252</ele>
        <time>2018-12-29T09:21:07Z</time>
      </trkpt>
      <trkpt lat="41.305842306464911" lon="1.353843910619617">
        <ele>252.19999694824219</ele>
        <time>2018-12-29T09:21:08Z</time>
      </trkpt>
      <trkpt lat="41.30581783130765" lon="1.353799235075712">
        <ele>252.19999694824219</ele>
        <time>2018-12-29T09:21:09Z</time>
      </trkpt>
      <trkpt lat="41.305808778852224" lon="1.353745507076383">
        <ele>252.39999389648437</ele>
        <time>2018-12-29T09:21:10Z</time>
      </trkpt>
      <trkpt lat="41.305810622870922" lon="1.353693790733814">
        <ele>252.60000610351562</ele>
        <time>2018-12-29T09:21:11Z</time>
      </trkpt>
      <trkpt lat="41.305834427475929" lon="1.353608630597591">
        <ele>253</ele>
        <time>2018-12-29T09:21:13Z</time>
      </trkpt>
      <trkpt lat="41.305892094969749" lon="1.35355381295085">
        <ele>253.39999389648437</ele>
        <time>2018-12-29T09:21:15Z</time>
      </trkpt>
      <trkpt lat="41.305930651724339" lon="1.353539731353521">
        <ele>253.19999694824219</ele>
        <time>2018-12-29T09:21:16Z</time>
      </trkpt>
      <trkpt lat="41.305971890687943" lon="1.353524057194591">
        <ele>253.19999694824219</ele>
        <time>2018-12-29T09:21:17Z</time>
      </trkpt>
      <trkpt lat="41.30605973303318" lon="1.353494804352522">
        <ele>253</ele>
        <time>2018-12-29T09:21:19Z</time>
      </trkpt>
      <trkpt lat="41.306151263415813" lon="1.353466808795929">
        <ele>252.80000305175781</ele>
        <time>2018-12-29T09:21:21Z</time>
      </trkpt>
      <trkpt lat="41.306248912587762" lon="1.353432778269053">
        <ele>252.80000305175781</ele>
        <time>2018-12-29T09:21:23Z</time>
      </trkpt>
      <trkpt lat="41.306352764368057" lon="1.353403944522142">
        <ele>252.39999389648437</ele>
        <time>2018-12-29T09:21:25Z</time>
      </trkpt>
      <trkpt lat="41.306456699967384" lon="1.353373434394598">
        <ele>252</ele>
        <time>2018-12-29T09:21:27Z</time>
      </trkpt>
      <trkpt lat="41.306556696072221" lon="1.353343930095434">
        <ele>252</ele>
        <time>2018-12-29T09:21:29Z</time>
      </trkpt>
      <trkpt lat="41.306608496233821" lon="1.353330183774233">
        <ele>252</ele>
        <time>2018-12-29T09:21:30Z</time>
      </trkpt>
      <trkpt lat="41.306658452376723" lon="1.353319454938173">
        <ele>252.19999694824219</ele>
        <time>2018-12-29T09:21:31Z</time>
      </trkpt>
      <trkpt lat="41.306759286671877" lon="1.353301266208291">
        <ele>252.19999694824219</ele>
        <time>2018-12-29T09:21:33Z</time>
      </trkpt>
      <trkpt lat="41.30685375072062" lon="1.353283245116472">
        <ele>252.19999694824219</ele>
        <time>2018-12-29T09:21:35Z</time>
      </trkpt>
      <trkpt lat="41.306906053796411" lon="1.35327042080462">
        <ele>252.39999389648437</ele>
        <time>2018-12-29T09:21:36Z</time>
      </trkpt>
      <trkpt lat="41.306957015767694" lon="1.353254579007626">
        <ele>252.39999389648437</ele>
        <time>2018-12-29T09:21:37Z</time>
      </trkpt>
      <trkpt lat="41.307061789557338" lon="1.353223733603954">
        <ele>252.39999389648437</ele>
        <time>2018-12-29T09:21:39Z</time>
      </trkpt>
      <trkpt lat="41.307166647166014" lon="1.353199845179915">
        <ele>252</ele>
        <time>2018-12-29T09:21:41Z</time>
      </trkpt>
      <trkpt lat="41.307275192812085" lon="1.353175956755877">
        <ele>251.60000610351562</ele>
        <time>2018-12-29T09:21:43Z</time>
      </trkpt>
      <trkpt lat="41.3073814753443" lon="1.35314729064703">
        <ele>251.80000305175781</ele>
        <time>2018-12-29T09:21:45Z</time>
      </trkpt>
      <trkpt lat="41.307486919686198" lon="1.353121558204293">
        <ele>251.80000305175781</ele>
        <time>2018-12-29T09:21:47Z</time>
      </trkpt>
      <trkpt lat="41.307588592171669" lon="1.353096412494779">
        <ele>252.39999389648437</ele>
        <time>2018-12-29T09:21:49Z</time>
      </trkpt>
      <trkpt lat="41.307689845561981" lon="1.353069674223661">
        <ele>252.60000610351562</ele>
        <time>2018-12-29T09:21:51Z</time>
      </trkpt>
      <trkpt lat="41.307787662371993" lon="1.353043774142861">
        <ele>252.80000305175781</ele>
        <time>2018-12-29T09:21:53Z</time>
      </trkpt>
      <trkpt lat="41.307835523039103" lon="1.35303296148777">
        <ele>252.80000305175781</ele>
        <time>2018-12-29T09:21:54Z</time>
      </trkpt>
      <trkpt lat="41.307885563001037" lon="1.353018376976252">
        <ele>253</ele>
        <time>2018-12-29T09:21:55Z</time>
      </trkpt>
      <trkpt lat="41.30798296071589" lon="1.352990297600627">
        <ele>253.19999694824219</ele>
        <time>2018-12-29T09:21:57Z</time>
      </trkpt>
      <trkpt lat="41.308078514412045" lon="1.352964648976922">
        <ele>253.60000610351562</ele>
        <time>2018-12-29T09:21:59Z</time>
      </trkpt>
      <trkpt lat="41.308175828307867" lon="1.352936653420329">
        <ele>253.60000610351562</ele>
        <time>2018-12-29T09:22:01Z</time>
      </trkpt>
      <trkpt lat="41.308224024251103" lon="1.352924415841699">
        <ele>253.80000305175781</ele>
        <time>2018-12-29T09:22:02Z</time>
      </trkpt>
      <trkpt lat="41.308273393660784" lon="1.352912848815322">
        <ele>254</ele>
        <time>2018-12-29T09:22:03Z</time>
      </trkpt>
      <trkpt lat="41.308371713384986" lon="1.352888206019998">
        <ele>254.39999389648437</ele>
        <time>2018-12-29T09:22:05Z</time>
      </trkpt>
      <trkpt lat="41.308419993147254" lon="1.352872783318162">
        <ele>254.60000610351562</ele>
        <time>2018-12-29T09:22:06Z</time>
      </trkpt>
      <trkpt lat="41.308466596528888" lon="1.352855181321502">
        <ele>254.60000610351562</ele>
        <time>2018-12-29T09:22:07Z</time>
      </trkpt>
      <trkpt lat="41.308510601520538" lon="1.35283506475389">
        <ele>254.80000305175781</ele>
        <time>2018-12-29T09:22:08Z</time>
      </trkpt>
      <trkpt lat="41.308553516864777" lon="1.352816876024008">
        <ele>255</ele>
        <time>2018-12-29T09:22:09Z</time>
      </trkpt>
      <trkpt lat="41.308639850467443" lon="1.352771865203977">
        <ele>255.39999389648437</ele>
        <time>2018-12-29T09:22:11Z</time>
      </trkpt>
      <trkpt lat="41.308680418878794" lon="1.352748814970255">
        <ele>256</ele>
        <time>2018-12-29T09:22:12Z</time>
      </trkpt>
      <trkpt lat="41.308722496032715" lon="1.352725429460406">
        <ele>256.20001220703125</ele>
        <time>2018-12-29T09:22:13Z</time>
      </trkpt>
      <trkpt lat="41.308765662834048" lon="1.352700367569923">
        <ele>256.20001220703125</ele>
        <time>2018-12-29T09:22:14Z</time>
      </trkpt>
      <trkpt lat="41.308807739987969" lon="1.352676814422011">
        <ele>256.39999389648437</ele>
        <time>2018-12-29T09:22:15Z</time>
      </trkpt>
      <trkpt lat="41.308892397210002" lon="1.352625098079443">
        <ele>256.60000610351562</ele>
        <time>2018-12-29T09:22:17Z</time>
      </trkpt>
      <trkpt lat="41.308973282575607" lon="1.352575141936541">
        <ele>256.39999389648437</ele>
        <time>2018-12-29T09:22:19Z</time>
      </trkpt>
      <trkpt lat="41.309054000303149" lon="1.352529544383287">
        <ele>257</ele>
        <time>2018-12-29T09:22:21Z</time>
      </trkpt>
      <trkpt lat="41.309094149619341" lon="1.352506410330534">
        <ele>257.20001220703125</ele>
        <time>2018-12-29T09:22:22Z</time>
      </trkpt>
      <trkpt lat="41.30913320928812" lon="1.352481516078115">
        <ele>257.39999389648437</ele>
        <time>2018-12-29T09:22:23Z</time>
      </trkpt>
      <trkpt lat="41.30921283736825" lon="1.352430386468768">
        <ele>257.39999389648437</ele>
        <time>2018-12-29T09:22:25Z</time>
      </trkpt>
      <trkpt lat="41.309294980019331" lon="1.352380346506834">
        <ele>257.60000610351562</ele>
        <time>2018-12-29T09:22:27Z</time>
      </trkpt>
      <trkpt lat="41.309376703575253" lon="1.35233567096293">
        <ele>257.79998779296875</ele>
        <time>2018-12-29T09:22:29Z</time>
      </trkpt>
      <trkpt lat="41.309418780729175" lon="1.352310860529542">
        <ele>258</ele>
        <time>2018-12-29T09:22:30Z</time>
      </trkpt>
      <trkpt lat="41.309458510950208" lon="1.352288480848074">
        <ele>258.20001220703125</ele>
        <time>2018-12-29T09:22:31Z</time>
      </trkpt>
      <trkpt lat="41.309534199535847" lon="1.352242715656757">
        <ele>258.39999389648437</ele>
        <time>2018-12-29T09:22:33Z</time>
      </trkpt>
      <trkpt lat="41.309613492339849" lon="1.352201979607344">
        <ele>258.20001220703125</ele>
        <time>2018-12-29T09:22:35Z</time>
      </trkpt>
      <trkpt lat="41.309689851477742" lon="1.352156549692154">
        <ele>258.79998779296875</ele>
        <time>2018-12-29T09:22:37Z</time>
      </trkpt>
      <trkpt lat="41.309766042977571" lon="1.352102234959602">
        <ele>259.20001220703125</ele>
        <time>2018-12-29T09:22:39Z</time>
      </trkpt>
      <trkpt lat="41.309843407943845" lon="1.352054122835398">
        <ele>259.39999389648438</ele>
        <time>2018-12-29T09:22:41Z</time>
      </trkpt>
      <trkpt lat="41.309926891699433" lon="1.352011458948255">
        <ele>259.60000610351562</ele>
        <time>2018-12-29T09:22:43Z</time>
      </trkpt>
      <trkpt lat="41.310006184503436" lon="1.351966699585319">
        <ele>260</ele>
        <time>2018-12-29T09:22:45Z</time>
      </trkpt>
      <trkpt lat="41.310087237507105" lon="1.351924119517207">
        <ele>260</ele>
        <time>2018-12-29T09:22:47Z</time>
      </trkpt>
      <trkpt lat="41.310170302167535" lon="1.351879611611366">
        <ele>260</ele>
        <time>2018-12-29T09:22:49Z</time>
      </trkpt>
      <trkpt lat="41.31025705486536" lon="1.351840300485492">
        <ele>260</ele>
        <time>2018-12-29T09:22:51Z</time>
      </trkpt>
      <trkpt lat="41.31034791469574" lon="1.351816831156611">
        <ele>259.79998779296875</ele>
        <time>2018-12-29T09:22:53Z</time>
      </trkpt>
      <trkpt lat="41.310392087325454" lon="1.351809371262789">
        <ele>260</ele>
        <time>2018-12-29T09:22:54Z</time>
      </trkpt>
      <trkpt lat="41.310437936335802" lon="1.351802833378315">
        <ele>260.20001220703125</ele>
        <time>2018-12-29T09:22:55Z</time>
      </trkpt>
      <trkpt lat="41.310482611879706" lon="1.351799564436078">
        <ele>260.60000610351562</ele>
        <time>2018-12-29T09:22:56Z</time>
      </trkpt>
      <trkpt lat="41.310527455061674" lon="1.351801743730903">
        <ele>260.79998779296875</ele>
        <time>2018-12-29T09:22:57Z</time>
      </trkpt>
      <trkpt lat="41.310620326548815" lon="1.351800067350268">
        <ele>261.20001220703125</ele>
        <time>2018-12-29T09:22:59Z</time>
      </trkpt>
      <trkpt lat="41.310669025406241" lon="1.351799983531237">
        <ele>261.60000610351562</ele>
        <time>2018-12-29T09:23:00Z</time>
      </trkpt>
      <trkpt lat="41.310717472806573" lon="1.351799899712205">
        <ele>262</ele>
        <time>2018-12-29T09:23:01Z</time>
      </trkpt>
      <trkpt lat="41.310766926035285" lon="1.351799983531237">
        <ele>262</ele>
        <time>2018-12-29T09:23:02Z</time>
      </trkpt>
      <trkpt lat="41.310813948512077" lon="1.351797049865127">
        <ele>261.79998779296875</ele>
        <time>2018-12-29T09:23:03Z</time>
      </trkpt>
      <trkpt lat="41.310909921303391" lon="1.351794954389334">
        <ele>261.79998779296875</ele>
        <time>2018-12-29T09:23:05Z</time>
      </trkpt>
      <trkpt lat="41.31100807338953" lon="1.351794619113207">
        <ele>262.20001220703125</ele>
        <time>2018-12-29T09:23:07Z</time>
      </trkpt>
      <trkpt lat="41.311110081151128" lon="1.351794116199017">
        <ele>262.39999389648438</ele>
        <time>2018-12-29T09:23:09Z</time>
      </trkpt>
      <trkpt lat="41.311212424188852" lon="1.351795541122556">
        <ele>261.79998779296875</ele>
        <time>2018-12-29T09:23:11Z</time>
      </trkpt>
      <trkpt lat="41.31131493486464" lon="1.351791098713875">
        <ele>262.20001220703125</ele>
        <time>2018-12-29T09:23:13Z</time>
      </trkpt>
      <trkpt lat="41.311419121921062" lon="1.351788081228733">
        <ele>262.39999389648438</ele>
        <time>2018-12-29T09:23:15Z</time>
      </trkpt>
      <trkpt lat="41.311523811891675" lon="1.351786321029067">
        <ele>262.39999389648438</ele>
        <time>2018-12-29T09:23:17Z</time>
      </trkpt>
      <trkpt lat="41.311627998948097" lon="1.35179135017097">
        <ele>262.60000610351562</ele>
        <time>2018-12-29T09:23:19Z</time>
      </trkpt>
      <trkpt lat="41.311678625643253" lon="1.351793026551604">
        <ele>263</ele>
        <time>2018-12-29T09:23:20Z</time>
      </trkpt>
      <trkpt lat="41.311729252338409" lon="1.351793529465795">
        <ele>263</ele>
        <time>2018-12-29T09:23:21Z</time>
      </trkpt>
      <trkpt lat="41.311777699738741" lon="1.351791182532907">
        <ele>263.20001220703125</ele>
        <time>2018-12-29T09:23:22Z</time>
      </trkpt>
      <trkpt lat="41.311827404424548" lon="1.351789506152272">
        <ele>263.20001220703125</ele>
        <time>2018-12-29T09:23:23Z</time>
      </trkpt>
      <trkpt lat="41.311930334195495" lon="1.351787494495511">
        <ele>263.20001220703125</ele>
        <time>2018-12-29T09:23:25Z</time>
      </trkpt>
      <trkpt lat="41.312036868184805" lon="1.351783219724894">
        <ele>263.20001220703125</ele>
        <time>2018-12-29T09:23:27Z</time>
      </trkpt>
      <trkpt lat="41.312144156545401" lon="1.35178497992456">
        <ele>263.20001220703125</ele>
        <time>2018-12-29T09:23:29Z</time>
      </trkpt>
      <trkpt lat="41.312246415764093" lon="1.351784644648433">
        <ele>263.60000610351562</ele>
        <time>2018-12-29T09:23:31Z</time>
      </trkpt>
      <trkpt lat="41.31235278211534" lon="1.351785399019718">
        <ele>263.60000610351562</ele>
        <time>2018-12-29T09:23:33Z</time>
      </trkpt>
      <trkpt lat="41.312456885352731" lon="1.351786572486162">
        <ele>263.79998779296875</ele>
        <time>2018-12-29T09:23:35Z</time>
      </trkpt>
      <trkpt lat="41.312561659142375" lon="1.351782716810703">
        <ele>264</ele>
        <time>2018-12-29T09:23:37Z</time>
      </trkpt>
      <trkpt lat="41.31266500800848" lon="1.35178254917264">
        <ele>263.79998779296875</ele>
        <time>2018-12-29T09:23:39Z</time>
      </trkpt>
      <trkpt lat="41.3127710390836" lon="1.351783387362957">
        <ele>264</ele>
        <time>2018-12-29T09:23:41Z</time>
      </trkpt>
      <trkpt lat="41.312875812873244" lon="1.351781208068132">
        <ele>264.20001220703125</ele>
        <time>2018-12-29T09:23:43Z</time>
      </trkpt>
      <trkpt lat="41.312978155910969" lon="1.351779950782657">
        <ele>264.39999389648437</ele>
        <time>2018-12-29T09:23:45Z</time>
      </trkpt>
      <trkpt lat="41.313080582767725" lon="1.351781962439418">
        <ele>264.20001220703125</ele>
        <time>2018-12-29T09:23:47Z</time>
      </trkpt>
      <trkpt lat="41.313186194747686" lon="1.351784644648433">
        <ele>264.39999389648437</ele>
        <time>2018-12-29T09:23:49Z</time>
      </trkpt>
      <trkpt lat="41.313243024051189" lon="1.35178305208683">
        <ele>264.20001220703125</ele>
        <time>2018-12-29T09:23:50Z</time>
      </trkpt>
      <trkpt lat="41.313298679888248" lon="1.351780788972974">
        <ele>264.20001220703125</ele>
        <time>2018-12-29T09:23:51Z</time>
      </trkpt>
      <trkpt lat="41.313408566638827" lon="1.351775005459786">
        <ele>264.60000610351562</ele>
        <time>2018-12-29T09:23:53Z</time>
      </trkpt>
      <trkpt lat="41.313522644340992" lon="1.351772993803024">
        <ele>264.79998779296875</ele>
        <time>2018-12-29T09:23:55Z</time>
      </trkpt>
      <trkpt lat="41.313632614910603" lon="1.351772490888834">
        <ele>264.79998779296875</ele>
        <time>2018-12-29T09:23:57Z</time>
      </trkpt>
      <trkpt lat="41.313741831108928" lon="1.351778442040086">
        <ele>264.79998779296875</ele>
        <time>2018-12-29T09:23:59Z</time>
      </trkpt>
      <trkpt lat="41.313796564936638" lon="1.351784309372306">
        <ele>264.79998779296875</ele>
        <time>2018-12-29T09:24:00Z</time>
      </trkpt>
      <trkpt lat="41.31385138258338" lon="1.351792691275477">
        <ele>265</ele>
        <time>2018-12-29T09:24:01Z</time>
      </trkpt>
      <trkpt lat="41.313908044248819" lon="1.351798726245761">
        <ele>265.20001220703125</ele>
        <time>2018-12-29T09:24:02Z</time>
      </trkpt>
      <trkpt lat="41.313963616266847" lon="1.35180652141571">
        <ele>265.20001220703125</ele>
        <time>2018-12-29T09:24:03Z</time>
      </trkpt>
      <trkpt lat="41.314075766131282" lon="1.351824374869466">
        <ele>265.39999389648438</ele>
        <time>2018-12-29T09:24:05Z</time>
      </trkpt>
      <trkpt lat="41.314188670367002" lon="1.35184315033257">
        <ele>265.60000610351562</ele>
        <time>2018-12-29T09:24:07Z</time>
      </trkpt>
      <trkpt lat="41.31424474529922" lon="1.351851867511869">
        <ele>265.79998779296875</ele>
        <time>2018-12-29T09:24:08Z</time>
      </trkpt>
      <trkpt lat="41.314300484955311" lon="1.351861422881484">
        <ele>265.79998779296875</ele>
        <time>2018-12-29T09:24:09Z</time>
      </trkpt>
      <trkpt lat="41.314414059743285" lon="1.351881036534905">
        <ele>265.79998779296875</ele>
        <time>2018-12-29T09:24:11Z</time>
      </trkpt>
      <trkpt lat="41.314527466893196" lon="1.3519003149122">
        <ele>266</ele>
        <time>2018-12-29T09:24:13Z</time>
      </trkpt>
      <trkpt lat="41.314643053337932" lon="1.351921521127224">
        <ele>265.79998779296875</ele>
        <time>2018-12-29T09:24:15Z</time>
      </trkpt>
      <trkpt lat="41.314757969230413" lon="1.351939290761948">
        <ele>266</ele>
        <time>2018-12-29T09:24:17Z</time>
      </trkpt>
      <trkpt lat="41.314813625067472" lon="1.351947588846088">
        <ele>266</ele>
        <time>2018-12-29T09:24:18Z</time>
      </trkpt>
      <trkpt lat="41.314868945628405" lon="1.351958317682147">
        <ele>266</ele>
        <time>2018-12-29T09:24:19Z</time>
      </trkpt>
      <trkpt lat="41.314978245645761" lon="1.351976338773966">
        <ele>266</ele>
        <time>2018-12-29T09:24:21Z</time>
      </trkpt>
      <trkpt lat="41.31503633223474" lon="1.351984720677137">
        <ele>266.20001220703125</ele>
        <time>2018-12-29T09:24:22Z</time>
      </trkpt>
      <trkpt lat="41.315093748271465" lon="1.35199117474258">
        <ele>266.39999389648437</ele>
        <time>2018-12-29T09:24:23Z</time>
      </trkpt>
      <trkpt lat="41.31520732305944" lon="1.351996706798673">
        <ele>266.39999389648437</ele>
        <time>2018-12-29T09:24:25Z</time>
      </trkpt>
      <trkpt lat="41.315263649448752" lon="1.351997293531895">
        <ele>266.60000610351562</ele>
        <time>2018-12-29T09:24:26Z</time>
      </trkpt>
      <trkpt lat="41.315322322770953" lon="1.351998886093497">
        <ele>266.60000610351562</ele>
        <time>2018-12-29T09:24:27Z</time>
      </trkpt>
      <trkpt lat="41.315438998863101" lon="1.35199754498899">
        <ele>266.79998779296875</ele>
        <time>2018-12-29T09:24:29Z</time>
      </trkpt>
      <trkpt lat="41.315556261688471" lon="1.351995365694165">
        <ele>267</ele>
        <time>2018-12-29T09:24:31Z</time>
      </trkpt>
      <trkpt lat="41.315670926123857" lon="1.351987570524216">
        <ele>266.79998779296875</ele>
        <time>2018-12-29T09:24:33Z</time>
      </trkpt>
      <trkpt lat="41.315787937492132" lon="1.351977344602346">
        <ele>267</ele>
        <time>2018-12-29T09:24:35Z</time>
      </trkpt>
      <trkpt lat="41.315845269709826" lon="1.351971309632063">
        <ele>267.20001220703125</ele>
        <time>2018-12-29T09:24:36Z</time>
      </trkpt>
      <trkpt lat="41.315902937203646" lon="1.351964017376304">
        <ele>267.39999389648437</ele>
        <time>2018-12-29T09:24:37Z</time>
      </trkpt>
      <trkpt lat="41.316015254706144" lon="1.351950857788324">
        <ele>267.60000610351562</ele>
        <time>2018-12-29T09:24:39Z</time>
      </trkpt>
      <trkpt lat="41.316124051809311" lon="1.351940631866455">
        <ele>267.60000610351562</ele>
        <time>2018-12-29T09:24:41Z</time>
      </trkpt>
      <trkpt lat="41.3162334356457" lon="1.351933842524886">
        <ele>267.79998779296875</ele>
        <time>2018-12-29T09:24:43Z</time>
      </trkpt>
      <trkpt lat="41.316344747319818" lon="1.351923113688827">
        <ele>268.39999389648438</ele>
        <time>2018-12-29T09:24:45Z</time>
      </trkpt>
      <trkpt lat="41.316458489745855" lon="1.35190861299634">
        <ele>268.79998779296875</ele>
        <time>2018-12-29T09:24:47Z</time>
      </trkpt>
      <trkpt lat="41.316569214686751" lon="1.3518968783319">
        <ele>269</ele>
        <time>2018-12-29T09:24:49Z</time>
      </trkpt>
      <trkpt lat="41.316679688170552" lon="1.351887155324221">
        <ele>269.20001220703125</ele>
        <time>2018-12-29T09:24:51Z</time>
      </trkpt>
      <trkpt lat="41.316792340949178" lon="1.351876175031066">
        <ele>269.39999389648437</ele>
        <time>2018-12-29T09:24:53Z</time>
      </trkpt>
      <trkpt lat="41.316903904080391" lon="1.351867374032736">
        <ele>269.60000610351562</ele>
        <time>2018-12-29T09:24:55Z</time>
      </trkpt>
      <trkpt lat="41.317011695355177" lon="1.351857567206025">
        <ele>269.79998779296875</ele>
        <time>2018-12-29T09:24:57Z</time>
      </trkpt>
      <trkpt lat="41.317117810249329" lon="1.351846419274807">
        <ele>270.20001220703125</ele>
        <time>2018-12-29T09:24:59Z</time>
      </trkpt>
      <trkpt lat="41.3172263558954" lon="1.351835690438747">
        <ele>270.39999389648437</ele>
        <time>2018-12-29T09:25:01Z</time>
      </trkpt>
      <trkpt lat="41.317340768873692" lon="1.351821189746261">
        <ele>270.79998779296875</ele>
        <time>2018-12-29T09:25:03Z</time>
      </trkpt>
      <trkpt lat="41.317397933453321" lon="1.351819261908531">
        <ele>271</ele>
        <time>2018-12-29T09:25:04Z</time>
      </trkpt>
      <trkpt lat="41.317454092204571" lon="1.351810796186328">
        <ele>271</ele>
        <time>2018-12-29T09:25:05Z</time>
      </trkpt>
      <trkpt lat="41.317554926499724" lon="1.351802498102188">
        <ele>271</ele>
        <time>2018-12-29T09:25:07Z</time>
      </trkpt>
      <trkpt lat="41.317647462710738" lon="1.351798055693507">
        <ele>271</ele>
        <time>2018-12-29T09:25:09Z</time>
      </trkpt>
      <trkpt lat="41.31769591011107" lon="1.351789757609367">
        <ele>271.20001220703125</ele>
        <time>2018-12-29T09:25:10Z</time>
      </trkpt>
      <trkpt lat="41.317745614796877" lon="1.351784393191338">
        <ele>271.60000610351562</ele>
        <time>2018-12-29T09:25:11Z</time>
      </trkpt>
      <trkpt lat="41.317840162664652" lon="1.351773915812373">
        <ele>271.79998779296875</ele>
        <time>2018-12-29T09:25:13Z</time>
      </trkpt>
      <trkpt lat="41.317934794351459" lon="1.351764863356948">
        <ele>272.20001220703125</ele>
        <time>2018-12-29T09:25:15Z</time>
      </trkpt>
      <trkpt lat="41.318029928952456" lon="1.351755307987332">
        <ele>272</ele>
        <time>2018-12-29T09:25:17Z</time>
      </trkpt>
      <trkpt lat="41.318127997219563" lon="1.351745082065463">
        <ele>272.20001220703125</ele>
        <time>2018-12-29T09:25:19Z</time>
      </trkpt>
      <trkpt lat="41.318224053829908" lon="1.351732257753611">
        <ele>272.60000610351562</ele>
        <time>2018-12-29T09:25:21Z</time>
      </trkpt>
      <trkpt lat="41.318319523707032" lon="1.351722115650773">
        <ele>272.39999389648437</ele>
        <time>2018-12-29T09:25:23Z</time>
      </trkpt>
      <trkpt lat="41.318416250869632" lon="1.351714404299855">
        <ele>272.79998779296875</ele>
        <time>2018-12-29T09:25:25Z</time>
      </trkpt>
      <trkpt lat="41.318513061851263" lon="1.351704681292176">
        <ele>273.20001220703125</ele>
        <time>2018-12-29T09:25:27Z</time>
      </trkpt>
      <trkpt lat="41.318561173975468" lon="1.35170241817832">
        <ele>273.39999389648437</ele>
        <time>2018-12-29T09:25:28Z</time>
      </trkpt>
      <trkpt lat="41.318608028814197" lon="1.351699233055115">
        <ele>273.39999389648437</ele>
        <time>2018-12-29T09:25:29Z</time>
      </trkpt>
      <trkpt lat="41.318702911958098" lon="1.351683307439089">
        <ele>273.60000610351562</ele>
        <time>2018-12-29T09:25:31Z</time>
      </trkpt>
      <trkpt lat="41.318798549473286" lon="1.351670315489173">
        <ele>273.60000610351562</ele>
        <time>2018-12-29T09:25:33Z</time>
      </trkpt>
      <trkpt lat="41.318894857540727" lon="1.351660676300526">
        <ele>273.60000610351562</ele>
        <time>2018-12-29T09:25:35Z</time>
      </trkpt>
      <trkpt lat="41.318943975493312" lon="1.35165992192924">
        <ele>273.79998779296875</ele>
        <time>2018-12-29T09:25:36Z</time>
      </trkpt>
      <trkpt lat="41.31899225525558" lon="1.351658497005701">
        <ele>274</ele>
        <time>2018-12-29T09:25:37Z</time>
      </trkpt>
      <trkpt lat="41.319081857800484" lon="1.351656066253781">
        <ele>273.79998779296875</ele>
        <time>2018-12-29T09:25:39Z</time>
      </trkpt>
      <trkpt lat="41.319170203059912" lon="1.351646175608039">
        <ele>273.79998779296875</ele>
        <time>2018-12-29T09:25:41Z</time>
      </trkpt>
      <trkpt lat="41.31926248781383" lon="1.351635446771979">
        <ele>274.39999389648437</ele>
        <time>2018-12-29T09:25:43Z</time>
      </trkpt>
      <trkpt lat="41.319348737597466" lon="1.351620778441429">
        <ele>274.79998779296875</ele>
        <time>2018-12-29T09:25:45Z</time>
      </trkpt>
      <trkpt lat="41.319394167512655" lon="1.351616838946939">
        <ele>274.79998779296875</ele>
        <time>2018-12-29T09:25:46Z</time>
      </trkpt>
      <trkpt lat="41.319441022351384" lon="1.351612899452448">
        <ele>275</ele>
        <time>2018-12-29T09:25:47Z</time>
      </trkpt>
      <trkpt lat="41.31953414529562" lon="1.351606696844101">
        <ele>274.79998779296875</ele>
        <time>2018-12-29T09:25:49Z</time>
      </trkpt>
      <trkpt lat="41.319621736183763" lon="1.351595968008041">
        <ele>275.39999389648437</ele>
        <time>2018-12-29T09:25:51Z</time>
      </trkpt>
      <trkpt lat="41.319713182747364" lon="1.351585239171982">
        <ele>275.20001220703125</ele>
        <time>2018-12-29T09:25:53Z</time>
      </trkpt>
      <trkpt lat="41.31980337202549" lon="1.351573672145605">
        <ele>275.39999389648437</ele>
        <time>2018-12-29T09:25:55Z</time>
      </trkpt>
      <trkpt lat="41.31989180110395" lon="1.351562272757292">
        <ele>275.39999389648437</ele>
        <time>2018-12-29T09:25:57Z</time>
      </trkpt>
      <trkpt lat="41.319983750581741" lon="1.351556153967977">
        <ele>275.79998779296875</ele>
        <time>2018-12-29T09:25:59Z</time>
      </trkpt>
      <trkpt lat="41.320030521601439" lon="1.351552214473486">
        <ele>276</ele>
        <time>2018-12-29T09:26:00Z</time>
      </trkpt>
      <trkpt lat="41.320078717544675" lon="1.351546682417393">
        <ele>276.39999389648438</ele>
        <time>2018-12-29T09:26:01Z</time>
      </trkpt>
      <trkpt lat="41.32017376832664" lon="1.351534444838762">
        <ele>276.79998779296875</ele>
        <time>2018-12-29T09:26:03Z</time>
      </trkpt>
      <trkpt lat="41.320262365043163" lon="1.351527655497193">
        <ele>277</ele>
        <time>2018-12-29T09:26:05Z</time>
      </trkpt>
      <trkpt lat="41.320352554321289" lon="1.351519776508212">
        <ele>277.20001220703125</ele>
        <time>2018-12-29T09:26:07Z</time>
      </trkpt>
      <trkpt lat="41.320398151874542" lon="1.351515837013722">
        <ele>277.60000610351562</ele>
        <time>2018-12-29T09:26:08Z</time>
      </trkpt>
      <trkpt lat="41.320446180179715" lon="1.351513070985675">
        <ele>277.79998779296875</ele>
        <time>2018-12-29T09:26:09Z</time>
      </trkpt>
      <trkpt lat="41.320539806038141" lon="1.351506197825074">
        <ele>278</ele>
        <time>2018-12-29T09:26:11Z</time>
      </trkpt>
      <trkpt lat="41.32062915712595" lon="1.351494044065476">
        <ele>278.20001220703125</ele>
        <time>2018-12-29T09:26:13Z</time>
      </trkpt>
      <trkpt lat="41.32067559286952" lon="1.351486667990685">
        <ele>278.39999389648437</ele>
        <time>2018-12-29T09:26:14Z</time>
      </trkpt>
      <trkpt lat="41.320723369717598" lon="1.351482393220067">
        <ele>278.39999389648437</ele>
        <time>2018-12-29T09:26:15Z</time>
      </trkpt>
      <trkpt lat="41.320815989747643" lon="1.351474849507213">
        <ele>278.60000610351562</ele>
        <time>2018-12-29T09:26:17Z</time>
      </trkpt>
      <trkpt lat="41.320908861234784" lon="1.351468311622739">
        <ele>278.60000610351562</ele>
        <time>2018-12-29T09:26:19Z</time>
      </trkpt>
      <trkpt lat="41.321004666388035" lon="1.351462360471487">
        <ele>278.79998779296875</ele>
        <time>2018-12-29T09:26:21Z</time>
      </trkpt>
      <trkpt lat="41.321096196770668" lon="1.351453475654125">
        <ele>279.20001220703125</ele>
        <time>2018-12-29T09:26:23Z</time>
      </trkpt>
      <trkpt lat="41.321184709668159" lon="1.351440818980336">
        <ele>279.20001220703125</ele>
        <time>2018-12-29T09:26:25Z</time>
      </trkpt>
      <trkpt lat="41.321229971945286" lon="1.351433610543609">
        <ele>279.39999389648438</ele>
        <time>2018-12-29T09:26:26Z</time>
      </trkpt>
      <trkpt lat="41.321275234222412" lon="1.351428078487515">
        <ele>279.79998779296875</ele>
        <time>2018-12-29T09:26:27Z</time>
      </trkpt>
      <trkpt lat="41.32136844098568" lon="1.351417014375329">
        <ele>280.39999389648437</ele>
        <time>2018-12-29T09:26:29Z</time>
      </trkpt>
      <trkpt lat="41.321460893377662" lon="1.3514219596982">
        <ele>280.39999389648437</ele>
        <time>2018-12-29T09:26:31Z</time>
      </trkpt>
      <trkpt lat="41.321555357426405" lon="1.351426737383008">
        <ele>280.60000610351562</ele>
        <time>2018-12-29T09:26:33Z</time>
      </trkpt>
      <trkpt lat="41.321650575846434" lon="1.35143805295229">
        <ele>280.39999389648437</ele>
        <time>2018-12-29T09:26:35Z</time>
      </trkpt>
      <trkpt lat="41.321697011590004" lon="1.351449619978666">
        <ele>280.39999389648437</ele>
        <time>2018-12-29T09:26:36Z</time>
      </trkpt>
      <trkpt lat="41.32174227386713" lon="1.351458504796028">
        <ele>280.60000610351562</ele>
        <time>2018-12-29T09:26:37Z</time>
      </trkpt>
      <trkpt lat="41.321829194203019" lon="1.351490020751953">
        <ele>281.39999389648437</ele>
        <time>2018-12-29T09:26:39Z</time>
      </trkpt>
      <trkpt lat="41.321870936080813" lon="1.35150795802474">
        <ele>281.60000610351562</ele>
        <time>2018-12-29T09:26:40Z</time>
      </trkpt>
      <trkpt lat="41.321913348510861" lon="1.351521704345942">
        <ele>281.39999389648437</ele>
        <time>2018-12-29T09:26:41Z</time>
      </trkpt>
      <trkpt lat="41.321996748447418" lon="1.351556656882167">
        <ele>281.60000610351562</ele>
        <time>2018-12-29T09:26:43Z</time>
      </trkpt>
      <trkpt lat="41.322076795622706" lon="1.351586496457458">
        <ele>281.79998779296875</ele>
        <time>2018-12-29T09:26:45Z</time>
      </trkpt>
      <trkpt lat="41.322157848626375" lon="1.351623460650444">
        <ele>281.79998779296875</ele>
        <time>2018-12-29T09:26:47Z</time>
      </trkpt>
      <trkpt lat="41.322239991277456" lon="1.351664364337921">
        <ele>281.60000610351562</ele>
        <time>2018-12-29T09:26:49Z</time>
      </trkpt>
      <trkpt lat="41.322325067594647" lon="1.351699735969305">
        <ele>282</ele>
        <time>2018-12-29T09:26:51Z</time>
      </trkpt>
      <trkpt lat="41.322364630177617" lon="1.351717421784997">
        <ele>282.20001220703125</ele>
        <time>2018-12-29T09:26:52Z</time>
      </trkpt>
      <trkpt lat="41.322405030950904" lon="1.351735107600689">
        <ele>282.20001220703125</ele>
        <time>2018-12-29T09:26:53Z</time>
      </trkpt>
      <trkpt lat="41.322485832497478" lon="1.3517742510885">
        <ele>282.20001220703125</ele>
        <time>2018-12-29T09:26:55Z</time>
      </trkpt>
      <trkpt lat="41.322562443092465" lon="1.351810125634074">
        <ele>281.79998779296875</ele>
        <time>2018-12-29T09:26:57Z</time>
      </trkpt>
      <trkpt lat="41.322645591571927" lon="1.351842815056443">
        <ele>281.79998779296875</ele>
        <time>2018-12-29T09:26:59Z</time>
      </trkpt>
      <trkpt lat="41.322726141661406" lon="1.351875755935907">
        <ele>282.39999389648438</ele>
        <time>2018-12-29T09:27:01Z</time>
      </trkpt>
      <trkpt lat="41.322809960693121" lon="1.351912636309862">
        <ele>282.60000610351562</ele>
        <time>2018-12-29T09:27:03Z</time>
      </trkpt>
      <trkpt lat="41.322892606258392" lon="1.351941134780645">
        <ele>282.79998779296875</ele>
        <time>2018-12-29T09:27:05Z</time>
      </trkpt>
      <trkpt lat="41.322966031730175" lon="1.351954378187656">
        <ele>283.20001220703125</ele>
        <time>2018-12-29T09:27:07Z</time>
      </trkpt>
      <trkpt lat="41.32304297760129" lon="1.351958233863115">
        <ele>283.20001220703125</ele>
        <time>2018-12-29T09:27:09Z</time>
      </trkpt>
      <trkpt lat="41.323122940957546" lon="1.351958317682147">
        <ele>283.20001220703125</ele>
        <time>2018-12-29T09:27:11Z</time>
      </trkpt>
      <trkpt lat="41.323209274560213" lon="1.351959072053433">
        <ele>283.20001220703125</ele>
        <time>2018-12-29T09:27:13Z</time>
      </trkpt>
      <trkpt lat="41.323300553485751" lon="1.351954210549593">
        <ele>283.20001220703125</ele>
        <time>2018-12-29T09:27:15Z</time>
      </trkpt>
      <trkpt lat="41.323392167687416" lon="1.351949851959944">
        <ele>283.20001220703125</ele>
        <time>2018-12-29T09:27:17Z</time>
      </trkpt>
      <trkpt lat="41.323478249832988" lon="1.351945409551263">
        <ele>283.39999389648437</ele>
        <time>2018-12-29T09:27:19Z</time>
      </trkpt>
      <trkpt lat="41.323565253987908" lon="1.351947588846088">
        <ele>283.60000610351562</ele>
        <time>2018-12-29T09:27:21Z</time>
      </trkpt>
      <trkpt lat="41.323653347790241" lon="1.351952450349927">
        <ele>283.60000610351562</ele>
        <time>2018-12-29T09:27:23Z</time>
      </trkpt>
      <trkpt lat="41.323742363601923" lon="1.351957228034735">
        <ele>284</ele>
        <time>2018-12-29T09:27:25Z</time>
      </trkpt>
      <trkpt lat="41.323835235089064" lon="1.351961167529225">
        <ele>284.20001220703125</ele>
        <time>2018-12-29T09:27:27Z</time>
      </trkpt>
      <trkpt lat="41.323882257565856" lon="1.351962592452765">
        <ele>284.20001220703125</ele>
        <time>2018-12-29T09:27:28Z</time>
      </trkpt>
      <trkpt lat="41.323928274214268" lon="1.351968543604016">
        <ele>284.20001220703125</ele>
        <time>2018-12-29T09:27:29Z</time>
      </trkpt>
      <trkpt lat="41.324019385501742" lon="1.351991929113865">
        <ele>284.39999389648437</ele>
        <time>2018-12-29T09:27:31Z</time>
      </trkpt>
      <trkpt lat="41.324112173169851" lon="1.352016068994999">
        <ele>284.60000610351562</ele>
        <time>2018-12-29T09:27:33Z</time>
      </trkpt>
      <trkpt lat="41.324203452095389" lon="1.352034593001008">
        <ele>284.20001220703125</ele>
        <time>2018-12-29T09:27:35Z</time>
      </trkpt>
      <trkpt lat="41.324249217286706" lon="1.352046495303512">
        <ele>284.20001220703125</ele>
        <time>2018-12-29T09:27:36Z</time>
      </trkpt>
      <trkpt lat="41.324296742677689" lon="1.352056637406349">
        <ele>284</ele>
        <time>2018-12-29T09:27:37Z</time>
      </trkpt>
      <trkpt lat="41.324387853965163" lon="1.352069796994329">
        <ele>284.20001220703125</ele>
        <time>2018-12-29T09:27:39Z</time>
      </trkpt>
      <trkpt lat="41.324475612491369" lon="1.352086393162608">
        <ele>284.39999389648437</ele>
        <time>2018-12-29T09:27:41Z</time>
      </trkpt>
      <trkpt lat="41.324558760970831" lon="1.352108689025044">
        <ele>284.60000610351562</ele>
        <time>2018-12-29T09:27:43Z</time>
      </trkpt>
      <trkpt lat="41.324645010754466" lon="1.352131823077798">
        <ele>284.79998779296875</ele>
        <time>2018-12-29T09:27:45Z</time>
      </trkpt>
      <trkpt lat="41.324735870584846" lon="1.352149592712522">
        <ele>284.39999389648437</ele>
        <time>2018-12-29T09:27:47Z</time>
      </trkpt>
      <trkpt lat="41.324828239157796" lon="1.352166524156928">
        <ele>285</ele>
        <time>2018-12-29T09:27:49Z</time>
      </trkpt>
      <trkpt lat="41.324920691549778" lon="1.35218370705843">
        <ele>285.20001220703125</ele>
        <time>2018-12-29T09:27:51Z</time>
      </trkpt>
      <trkpt lat="41.325013730674982" lon="1.352203069254756">
        <ele>285.20001220703125</ele>
        <time>2018-12-29T09:27:53Z</time>
      </trkpt>
      <trkpt lat="41.325105931609869" lon="1.352227041497827">
        <ele>285.39999389648438</ele>
        <time>2018-12-29T09:27:55Z</time>
      </trkpt>
      <trkpt lat="41.325197042897344" lon="1.352247996255755">
        <ele>285.39999389648438</ele>
        <time>2018-12-29T09:27:57Z</time>
      </trkpt>
      <trkpt lat="41.325289411470294" lon="1.352264927700162">
        <ele>285.20001220703125</ele>
        <time>2018-12-29T09:27:59Z</time>
      </trkpt>
      <trkpt lat="41.325335763394833" lon="1.352274650707841">
        <ele>285.20001220703125</ele>
        <time>2018-12-29T09:28:00Z</time>
      </trkpt>
      <trkpt lat="41.325382702052593" lon="1.352284625172615">
        <ele>285.39999389648438</ele>
        <time>2018-12-29T09:28:01Z</time>
      </trkpt>
      <trkpt lat="41.325473226606846" lon="1.352306585758925">
        <ele>285.60000610351562</ele>
        <time>2018-12-29T09:28:03Z</time>
      </trkpt>
      <trkpt lat="41.325567103922367" lon="1.352326534688473">
        <ele>285.60000610351562</ele>
        <time>2018-12-29T09:28:05Z</time>
      </trkpt>
      <trkpt lat="41.325659388676286" lon="1.352348076179624">
        <ele>285.79998779296875</ele>
        <time>2018-12-29T09:28:07Z</time>
      </trkpt>
      <trkpt lat="41.325753601267934" lon="1.352365175262094">
        <ele>286.20001220703125</ele>
        <time>2018-12-29T09:28:09Z</time>
      </trkpt>
      <trkpt lat="41.325846221297979" lon="1.35238160379231">
        <ele>286.20001220703125</ele>
        <time>2018-12-29T09:28:11Z</time>
      </trkpt>
      <trkpt lat="41.325937500223517" lon="1.352400379255414">
        <ele>286</ele>
        <time>2018-12-29T09:28:13Z</time>
      </trkpt>
      <trkpt lat="41.326032467186451" lon="1.352421417832375">
        <ele>286.20001220703125</ele>
        <time>2018-12-29T09:28:15Z</time>
      </trkpt>
      <trkpt lat="41.32612039335072" lon="1.352438265457749">
        <ele>286.39999389648437</ele>
        <time>2018-12-29T09:28:17Z</time>
      </trkpt>
      <trkpt lat="41.32616339251399" lon="1.35244706645608">
        <ele>286.79998779296875</ele>
        <time>2018-12-29T09:28:18Z</time>
      </trkpt>
      <trkpt lat="41.326207062229514" lon="1.352455699816346">
        <ele>286.79998779296875</ele>
        <time>2018-12-29T09:28:19Z</time>
      </trkpt>
      <trkpt lat="41.326297167688608" lon="1.352474642917514">
        <ele>286.60000610351562</ele>
        <time>2018-12-29T09:28:21Z</time>
      </trkpt>
      <trkpt lat="41.326389703899622" lon="1.35249593295157">
        <ele>286.60000610351562</ele>
        <time>2018-12-29T09:28:23Z</time>
      </trkpt>
      <trkpt lat="41.326484838500619" lon="1.352515127509832">
        <ele>287</ele>
        <time>2018-12-29T09:28:25Z</time>
      </trkpt>
      <trkpt lat="41.326581817120314" lon="1.352538513019681">
        <ele>287</ele>
        <time>2018-12-29T09:28:27Z</time>
      </trkpt>
      <trkpt lat="41.326671335846186" lon="1.352562736719847">
        <ele>287</ele>
        <time>2018-12-29T09:28:29Z</time>
      </trkpt>
      <trkpt lat="41.326715173199773" lon="1.352573717013001">
        <ele>287</ele>
        <time>2018-12-29T09:28:30Z</time>
      </trkpt>
      <trkpt lat="41.326760938391089" lon="1.352586541324854">
        <ele>287.20001220703125</ele>
        <time>2018-12-29T09:28:31Z</time>
      </trkpt>
      <trkpt lat="41.326854731887579" lon="1.352600371465087">
        <ele>287.39999389648437</ele>
        <time>2018-12-29T09:28:33Z</time>
      </trkpt>
      <trkpt lat="41.326948357746005" lon="1.352619482204318">
        <ele>287.79998779296875</ele>
        <time>2018-12-29T09:28:35Z</time>
      </trkpt>
      <trkpt lat="41.32699211128056" lon="1.352632390335202">
        <ele>288</ele>
        <time>2018-12-29T09:28:36Z</time>
      </trkpt>
      <trkpt lat="41.327038044109941" lon="1.352641442790628">
        <ele>288</ele>
        <time>2018-12-29T09:28:37Z</time>
      </trkpt>
      <trkpt lat="41.327128233388066" lon="1.352659882977605">
        <ele>287.79998779296875</ele>
        <time>2018-12-29T09:28:39Z</time>
      </trkpt>
      <trkpt lat="41.327218757942319" lon="1.352679831907153">
        <ele>288.20001220703125</ele>
        <time>2018-12-29T09:28:41Z</time>
      </trkpt>
      <trkpt lat="41.327310791239142" lon="1.352690812200308">
        <ele>288.39999389648437</ele>
        <time>2018-12-29T09:28:43Z</time>
      </trkpt>
      <trkpt lat="41.327403243631124" lon="1.352711347863078">
        <ele>288.79998779296875</ele>
        <time>2018-12-29T09:28:45Z</time>
      </trkpt>
      <trkpt lat="41.3274494279176" lon="1.352722998708487">
        <ele>289</ele>
        <time>2018-12-29T09:28:46Z</time>
      </trkpt>
      <trkpt lat="41.327495696023107" lon="1.352734062820673">
        <ele>289</ele>
        <time>2018-12-29T09:28:47Z</time>
      </trkpt>
      <trkpt lat="41.327542383223772" lon="1.352745126932859">
        <ele>288.79998779296875</ele>
        <time>2018-12-29T09:28:48Z</time>
      </trkpt>
      <trkpt lat="41.32758965715766" lon="1.352754263207316">
        <ele>288.79998779296875</ele>
        <time>2018-12-29T09:28:49Z</time>
      </trkpt>
      <trkpt lat="41.327684288844466" lon="1.352773541584611">
        <ele>289</ele>
        <time>2018-12-29T09:28:51Z</time>
      </trkpt>
      <trkpt lat="41.327778669074178" lon="1.352791730314493">
        <ele>289.20001220703125</ele>
        <time>2018-12-29T09:28:53Z</time>
      </trkpt>
      <trkpt lat="41.327870953828096" lon="1.352812265977264">
        <ele>289.39999389648437</ele>
        <time>2018-12-29T09:28:55Z</time>
      </trkpt>
      <trkpt lat="41.327964747324586" lon="1.352831041440368">
        <ele>289.60000610351562</ele>
        <time>2018-12-29T09:28:57Z</time>
      </trkpt>
      <trkpt lat="41.328062480315566" lon="1.352848391979933">
        <ele>289.79998779296875</ele>
        <time>2018-12-29T09:28:59Z</time>
      </trkpt>
      <trkpt lat="41.328113274648786" lon="1.352856019511819">
        <ele>289.79998779296875</ele>
        <time>2018-12-29T09:29:00Z</time>
      </trkpt>
      <trkpt lat="41.328162392601371" lon="1.352866077795625">
        <ele>290</ele>
        <time>2018-12-29T09:29:01Z</time>
      </trkpt>
      <trkpt lat="41.32821218110621" lon="1.352878147736192">
        <ele>290</ele>
        <time>2018-12-29T09:29:02Z</time>
      </trkpt>
      <trkpt lat="41.328260125592351" lon="1.352890217676759">
        <ele>290.20001220703125</ele>
        <time>2018-12-29T09:29:03Z</time>
      </trkpt>
      <trkpt lat="41.328355511650443" lon="1.352915866300464">
        <ele>290.20001220703125</ele>
        <time>2018-12-29T09:29:05Z</time>
      </trkpt>
      <trkpt lat="41.328447544947267" lon="1.352945789694786">
        <ele>290.20001220703125</ele>
        <time>2018-12-29T09:29:07Z</time>
      </trkpt>
      <trkpt lat="41.32854008115828" lon="1.352982837706804">
        <ele>290.60000610351562</ele>
        <time>2018-12-29T09:29:09Z</time>
      </trkpt>
      <trkpt lat="41.328586433082819" lon="1.353006223216653">
        <ele>290.60000610351562</ele>
        <time>2018-12-29T09:29:10Z</time>
      </trkpt>
      <trkpt lat="41.328632365912199" lon="1.35302952490747">
        <ele>290.60000610351562</ele>
        <time>2018-12-29T09:29:11Z</time>
      </trkpt>
      <trkpt lat="41.328725488856435" lon="1.353077972307801">
        <ele>290.60000610351562</ele>
        <time>2018-12-29T09:29:13Z</time>
      </trkpt>
      <trkpt lat="41.328810565173626" lon="1.353137483820319">
        <ele>290.79998779296875</ele>
        <time>2018-12-29T09:29:15Z</time>
      </trkpt>
      <trkpt lat="41.328893629834056" lon="1.353198336437345">
        <ele>291.20001220703125</ele>
        <time>2018-12-29T09:29:17Z</time>
      </trkpt>
      <trkpt lat="41.328976107761264" lon="1.353258937597275">
        <ele>291.39999389648437</ele>
        <time>2018-12-29T09:29:19Z</time>
      </trkpt>
      <trkpt lat="41.329060010612011" lon="1.353317946195602">
        <ele>291.39999389648437</ele>
        <time>2018-12-29T09:29:21Z</time>
      </trkpt>
      <trkpt lat="41.329144332557917" lon="1.353373099118471">
        <ele>291.60000610351562</ele>
        <time>2018-12-29T09:29:23Z</time>
      </trkpt>
      <trkpt lat="41.329230833798647" lon="1.353427162393928">
        <ele>291.60000610351562</ele>
        <time>2018-12-29T09:29:25Z</time>
      </trkpt>
      <trkpt lat="41.329317586496472" lon="1.353473765775561">
        <ele>291.60000610351562</ele>
        <time>2018-12-29T09:29:27Z</time>
      </trkpt>
      <trkpt lat="41.329359076917171" lon="1.353496816009283">
        <ele>291.79998779296875</ele>
        <time>2018-12-29T09:29:28Z</time>
      </trkpt>
      <trkpt lat="41.329400651156902" lon="1.353521207347512">
        <ele>291.79998779296875</ele>
        <time>2018-12-29T09:29:29Z</time>
      </trkpt>
      <trkpt lat="41.329487571492791" lon="1.353565044701099">
        <ele>292</ele>
        <time>2018-12-29T09:29:31Z</time>
      </trkpt>
      <trkpt lat="41.329577006399632" lon="1.353600500151515">
        <ele>292.20001220703125</ele>
        <time>2018-12-29T09:29:33Z</time>
      </trkpt>
      <trkpt lat="41.329669961705804" lon="1.353628830984235">
        <ele>291.79998779296875</ele>
        <time>2018-12-29T09:29:35Z</time>
      </trkpt>
      <trkpt lat="41.329715391620994" lon="1.353644337505102">
        <ele>291.79998779296875</ele>
        <time>2018-12-29T09:29:36Z</time>
      </trkpt>
      <trkpt lat="41.329760989174247" lon="1.353659173473716">
        <ele>292.20001220703125</ele>
        <time>2018-12-29T09:29:37Z</time>
      </trkpt>
      <trkpt lat="41.329851094633341" lon="1.353690354153514">
        <ele>292.60000610351562</ele>
        <time>2018-12-29T09:29:39Z</time>
      </trkpt>
      <trkpt lat="41.329938350245357" lon="1.3537204451859">
        <ele>292.79998779296875</ele>
        <time>2018-12-29T09:29:41Z</time>
      </trkpt>
      <trkpt lat="41.33002694696188" lon="1.35374927893281">
        <ele>292.79998779296875</ele>
        <time>2018-12-29T09:29:43Z</time>
      </trkpt>
      <trkpt lat="41.330117639154196" lon="1.353780124336481">
        <ele>292.79998779296875</ele>
        <time>2018-12-29T09:29:45Z</time>
      </trkpt>
      <trkpt lat="41.330159800127149" lon="1.353794457390904">
        <ele>293</ele>
        <time>2018-12-29T09:29:46Z</time>
      </trkpt>
      <trkpt lat="41.330200619995594" lon="1.353805102407932">
        <ele>293.20001220703125</ele>
        <time>2018-12-29T09:29:47Z</time>
      </trkpt>
      <trkpt lat="41.330288546159863" lon="1.35383628308773">
        <ele>293.39999389648437</ele>
        <time>2018-12-29T09:29:49Z</time>
      </trkpt>
      <trkpt lat="41.330375634133816" lon="1.353868218138814">
        <ele>293.60000610351562</ele>
        <time>2018-12-29T09:29:51Z</time>
      </trkpt>
      <trkpt lat="41.330466074869037" lon="1.353897051885724">
        <ele>293.79998779296875</ele>
        <time>2018-12-29T09:29:53Z</time>
      </trkpt>
      <trkpt lat="41.330551570281386" lon="1.353918090462685">
        <ele>294</ele>
        <time>2018-12-29T09:29:55Z</time>
      </trkpt>
      <trkpt lat="41.330641424283385" lon="1.353949103504419">
        <ele>294</ele>
        <time>2018-12-29T09:29:57Z</time>
      </trkpt>
      <trkpt lat="41.330731278285384" lon="1.353979278355837">
        <ele>294</ele>
        <time>2018-12-29T09:29:59Z</time>
      </trkpt>
      <trkpt lat="41.330816438421607" lon="1.354015907272697">
        <ele>294</ele>
        <time>2018-12-29T09:30:01Z</time>
      </trkpt>
      <trkpt lat="41.330859689041972" lon="1.354037029668689">
        <ele>294</ele>
        <time>2018-12-29T09:30:02Z</time>
      </trkpt>
      <trkpt lat="41.330902352929115" lon="1.354060918092728">
        <ele>294</ele>
        <time>2018-12-29T09:30:03Z</time>
      </trkpt>
      <trkpt lat="41.33098860271275" lon="1.354099893942475">
        <ele>294.39999389648437</ele>
        <time>2018-12-29T09:30:05Z</time>
      </trkpt>
      <trkpt lat="41.331078121438622" lon="1.354145240038633">
        <ele>294.60000610351562</ele>
        <time>2018-12-29T09:30:07Z</time>
      </trkpt>
      <trkpt lat="41.331166969612241" lon="1.354194190353155">
        <ele>294.60000610351562</ele>
        <time>2018-12-29T09:30:09Z</time>
      </trkpt>
      <trkpt lat="41.331255147233605" lon="1.35424867272377">
        <ele>294.60000610351562</ele>
        <time>2018-12-29T09:30:11Z</time>
      </trkpt>
      <trkpt lat="41.331350281834602" lon="1.354303238913417">
        <ele>294.20001220703125</ele>
        <time>2018-12-29T09:30:13Z</time>
      </trkpt>
      <trkpt lat="41.331443404778838" lon="1.354353362694383">
        <ele>294</ele>
        <time>2018-12-29T09:30:15Z</time>
      </trkpt>
      <trkpt lat="41.331531582400203" lon="1.354402983561158">
        <ele>294.20001220703125</ele>
        <time>2018-12-29T09:30:17Z</time>
      </trkpt>
      <trkpt lat="41.331580448895693" lon="1.354424441233277">
        <ele>294</ele>
        <time>2018-12-29T09:30:18Z</time>
      </trkpt>
      <trkpt lat="41.331631327047944" lon="1.354442294687033">
        <ele>293.79998779296875</ele>
        <time>2018-12-29T09:30:19Z</time>
      </trkpt>
      <trkpt lat="41.331732412800193" lon="1.354483114555478">
        <ele>293.60000610351562</ele>
        <time>2018-12-29T09:30:21Z</time>
      </trkpt>
      <trkpt lat="41.331836264580488" lon="1.35452133603394">
        <ele>293.39999389648437</ele>
        <time>2018-12-29T09:30:23Z</time>
      </trkpt>
      <trkpt lat="41.331889908760786" lon="1.35453256778419">
        <ele>293.20001220703125</ele>
        <time>2018-12-29T09:30:24Z</time>
      </trkpt>
      <trkpt lat="41.331943217664957" lon="1.354542374610901">
        <ele>293</ele>
        <time>2018-12-29T09:30:25Z</time>
      </trkpt>
      <trkpt lat="41.332052685320377" lon="1.354567436501384">
        <ele>292.79998779296875</ele>
        <time>2018-12-29T09:30:27Z</time>
      </trkpt>
      <trkpt lat="41.332165841013193" lon="1.354592079296708">
        <ele>292.60000610351562</ele>
        <time>2018-12-29T09:30:29Z</time>
      </trkpt>
      <trkpt lat="41.332282600924373" lon="1.354611190035939">
        <ele>292.20001220703125</ele>
        <time>2018-12-29T09:30:31Z</time>
      </trkpt>
      <trkpt lat="41.332336412742734" lon="1.354622840881348">
        <ele>292.20001220703125</ele>
        <time>2018-12-29T09:30:32Z</time>
      </trkpt>
      <trkpt lat="41.332389721646905" lon="1.354629965499044">
        <ele>291.79998779296875</ele>
        <time>2018-12-29T09:30:33Z</time>
      </trkpt>
      <trkpt lat="41.332490472123027" lon="1.354652345180512">
        <ele>291</ele>
        <time>2018-12-29T09:30:35Z</time>
      </trkpt>
      <trkpt lat="41.332593066617846" lon="1.354669192805886">
        <ele>291.39999389648437</ele>
        <time>2018-12-29T09:30:37Z</time>
      </trkpt>
      <trkpt lat="41.332696918398142" lon="1.354698361828923">
        <ele>291.39999389648437</ele>
        <time>2018-12-29T09:30:39Z</time>
      </trkpt>
      <trkpt lat="41.33280286565423" lon="1.35474655777216">
        <ele>291.60000610351562</ele>
        <time>2018-12-29T09:30:41Z</time>
      </trkpt>
      <trkpt lat="41.332911411300302" lon="1.354788886383176">
        <ele>291.39999389648437</ele>
        <time>2018-12-29T09:30:43Z</time>
      </trkpt>
      <trkpt lat="41.33301492780447" lon="1.354844206944108">
        <ele>290.79998779296875</ele>
        <time>2018-12-29T09:30:45Z</time>
      </trkpt>
      <trkpt lat="41.333113834261894" lon="1.35489659383893">
        <ele>290.79998779296875</ele>
        <time>2018-12-29T09:30:47Z</time>
      </trkpt>
      <trkpt lat="41.333211986348033" lon="1.354944286867976">
        <ele>290.60000610351562</ele>
        <time>2018-12-29T09:30:49Z</time>
      </trkpt>
      <trkpt lat="41.333312317728996" lon="1.354995751753449">
        <ele>291</ele>
        <time>2018-12-29T09:30:51Z</time>
      </trkpt>
      <trkpt lat="41.333412062376738" lon="1.355043360963464">
        <ele>291.20001220703125</ele>
        <time>2018-12-29T09:30:53Z</time>
      </trkpt>
      <trkpt lat="41.333512477576733" lon="1.355094071477652">
        <ele>291</ele>
        <time>2018-12-29T09:30:55Z</time>
      </trkpt>
      <trkpt lat="41.333608953282237" lon="1.355146542191505">
        <ele>290.60000610351562</ele>
        <time>2018-12-29T09:30:57Z</time>
      </trkpt>
      <trkpt lat="41.333705177530646" lon="1.355194989591837">
        <ele>290.39999389648437</ele>
        <time>2018-12-29T09:30:59Z</time>
      </trkpt>
      <trkpt lat="41.333803245797753" lon="1.355241341516376">
        <ele>290.39999389648437</ele>
        <time>2018-12-29T09:31:01Z</time>
      </trkpt>
      <trkpt lat="41.333902990445495" lon="1.35529138147831">
        <ele>290.20001220703125</ele>
        <time>2018-12-29T09:31:03Z</time>
      </trkpt>
      <trkpt lat="41.333950432017446" lon="1.355315018445253">
        <ele>289.79998779296875</ele>
        <time>2018-12-29T09:31:04Z</time>
      </trkpt>
      <trkpt lat="41.333999633789063" lon="1.35534125380218">
        <ele>289.60000610351562</ele>
        <time>2018-12-29T09:31:05Z</time>
      </trkpt>
      <trkpt lat="41.334097869694233" lon="1.355388527736068">
        <ele>289.60000610351562</ele>
        <time>2018-12-29T09:31:07Z</time>
      </trkpt>
      <trkpt lat="41.334198955446482" lon="1.355444518849254">
        <ele>289.60000610351562</ele>
        <time>2018-12-29T09:31:09Z</time>
      </trkpt>
      <trkpt lat="41.334299454465508" lon="1.355497408658266">
        <ele>289.39999389648437</ele>
        <time>2018-12-29T09:31:11Z</time>
      </trkpt>
      <trkpt lat="41.334399115294218" lon="1.355542838573456">
        <ele>289.20001220703125</ele>
        <time>2018-12-29T09:31:13Z</time>
      </trkpt>
      <trkpt lat="41.334448149427772" lon="1.355566307902336">
        <ele>289.20001220703125</ele>
        <time>2018-12-29T09:31:14Z</time>
      </trkpt>
      <trkpt lat="41.334496596828103" lon="1.355590866878629">
        <ele>289.20001220703125</ele>
        <time>2018-12-29T09:31:15Z</time>
      </trkpt>
      <trkpt lat="41.334595503285527" lon="1.355641912668943">
        <ele>289</ele>
        <time>2018-12-29T09:31:17Z</time>
      </trkpt>
      <trkpt lat="41.334693739190698" lon="1.355689773336053">
        <ele>288.60000610351562</ele>
        <time>2018-12-29T09:31:19Z</time>
      </trkpt>
      <trkpt lat="41.334789209067822" lon="1.355739142745733">
        <ele>288.60000610351562</ele>
        <time>2018-12-29T09:31:21Z</time>
      </trkpt>
      <trkpt lat="41.334838578477502" lon="1.355769820511341">
        <ele>288.79998779296875</ele>
        <time>2018-12-29T09:31:22Z</time>
      </trkpt>
      <trkpt lat="41.334888450801373" lon="1.355795217677951">
        <ele>288.79998779296875</ele>
        <time>2018-12-29T09:31:23Z</time>
      </trkpt>
      <trkpt lat="41.334990710020065" lon="1.355845844373107">
        <ele>288.60000610351562</ele>
        <time>2018-12-29T09:31:25Z</time>
      </trkpt>
      <trkpt lat="41.335092382505536" lon="1.355900410562754">
        <ele>288.39999389648437</ele>
        <time>2018-12-29T09:31:27Z</time>
      </trkpt>
      <trkpt lat="41.335194725543261" lon="1.355952881276608">
        <ele>288.39999389648437</ele>
        <time>2018-12-29T09:31:29Z</time>
      </trkpt>
      <trkpt lat="41.335300505161285" lon="1.356006860733032">
        <ele>288.20001220703125</ele>
        <time>2018-12-29T09:31:31Z</time>
      </trkpt>
      <trkpt lat="41.335354233160615" lon="1.356038460507989">
        <ele>287.79998779296875</ele>
        <time>2018-12-29T09:31:32Z</time>
      </trkpt>
      <trkpt lat="41.335410559549928" lon="1.35606536641717">
        <ele>287.79998779296875</ele>
        <time>2018-12-29T09:31:33Z</time>
      </trkpt>
      <trkpt lat="41.335521871224046" lon="1.356123201549053">
        <ele>288</ele>
        <time>2018-12-29T09:31:35Z</time>
      </trkpt>
      <trkpt lat="41.335627902299166" lon="1.356175588443875">
        <ele>288</ele>
        <time>2018-12-29T09:31:37Z</time>
      </trkpt>
      <trkpt lat="41.335729490965605" lon="1.356227304786444">
        <ele>288</ele>
        <time>2018-12-29T09:31:39Z</time>
      </trkpt>
      <trkpt lat="41.335780369117856" lon="1.356245577335358">
        <ele>288</ele>
        <time>2018-12-29T09:31:40Z</time>
      </trkpt>
      <trkpt lat="41.335831414908171" lon="1.356271896511316">
        <ele>287.60000610351562</ele>
        <time>2018-12-29T09:31:41Z</time>
      </trkpt>
      <trkpt lat="41.33588120341301" lon="1.356301149353385">
        <ele>287.39999389648437</ele>
        <time>2018-12-29T09:31:42Z</time>
      </trkpt>
      <trkpt lat="41.335930656641722" lon="1.356325959786773">
        <ele>287.20001220703125</ele>
        <time>2018-12-29T09:31:43Z</time>
      </trkpt>
      <trkpt lat="41.336036687716842" lon="1.356379352509975">
        <ele>287.60000610351562</ele>
        <time>2018-12-29T09:31:45Z</time>
      </trkpt>
      <trkpt lat="41.336143808439374" lon="1.356435930356383">
        <ele>287.39999389648437</ele>
        <time>2018-12-29T09:31:47Z</time>
      </trkpt>
      <trkpt lat="41.336258137598634" lon="1.356486892327666">
        <ele>287</ele>
        <time>2018-12-29T09:31:49Z</time>
      </trkpt>
      <trkpt lat="41.336374143138528" lon="1.356538776308298">
        <ele>286.60000610351562</ele>
        <time>2018-12-29T09:31:51Z</time>
      </trkpt>
      <trkpt lat="41.336490651592612" lon="1.356592671945691">
        <ele>286.20001220703125</ele>
        <time>2018-12-29T09:31:53Z</time>
      </trkpt>
      <trkpt lat="41.336550330743194" lon="1.356619410216808">
        <ele>286.20001220703125</ele>
        <time>2018-12-29T09:31:54Z</time>
      </trkpt>
      <trkpt lat="41.336610345169902" lon="1.356643969193101">
        <ele>286.20001220703125</ele>
        <time>2018-12-29T09:31:55Z</time>
      </trkpt>
      <trkpt lat="41.336723919957876" lon="1.356690907850862">
        <ele>286.60000610351562</ele>
        <time>2018-12-29T09:31:57Z</time>
      </trkpt>
      <trkpt lat="41.336825843900442" lon="1.356724267825484">
        <ele>287.20001220703125</ele>
        <time>2018-12-29T09:31:59Z</time>
      </trkpt>
      <trkpt lat="41.336867501959205" lon="1.356747150421143">
        <ele>287.60000610351562</ele>
        <time>2018-12-29T09:32:00Z</time>
      </trkpt>
      <trkpt lat="41.336915362626314" lon="1.356769362464547">
        <ele>287.79998779296875</ele>
        <time>2018-12-29T09:32:01Z</time>
      </trkpt>
      <trkpt lat="41.337001193314791" lon="1.356804231181741">
        <ele>288</ele>
        <time>2018-12-29T09:32:03Z</time>
      </trkpt>
      <trkpt lat="41.337090292945504" lon="1.356834238395095">
        <ele>288.39999389648437</ele>
        <time>2018-12-29T09:32:05Z</time>
      </trkpt>
      <trkpt lat="41.337128430604935" lon="1.356852762401104">
        <ele>288.60000610351562</ele>
        <time>2018-12-29T09:32:06Z</time>
      </trkpt>
      <trkpt lat="41.337165143340826" lon="1.356867849826813">
        <ele>289</ele>
        <time>2018-12-29T09:32:07Z</time>
      </trkpt>
      <trkpt lat="41.337247202172875" lon="1.356896264478564">
        <ele>289.20001220703125</ele>
        <time>2018-12-29T09:32:09Z</time>
      </trkpt>
      <trkpt lat="41.337325489148498" lon="1.356923254206777">
        <ele>289.39999389648437</ele>
        <time>2018-12-29T09:32:11Z</time>
      </trkpt>
      <trkpt lat="41.337371924892068" lon="1.356930462643504">
        <ele>289.60000610351562</ele>
        <time>2018-12-29T09:32:12Z</time>
      </trkpt>
      <trkpt lat="41.337419534102082" lon="1.356942448765039">
        <ele>290.20001220703125</ele>
        <time>2018-12-29T09:32:13Z</time>
      </trkpt>
      <trkpt lat="41.337504778057337" lon="1.356967091560364">
        <ele>290.39999389648437</ele>
        <time>2018-12-29T09:32:15Z</time>
      </trkpt>
      <trkpt lat="41.337589267641306" lon="1.356998858973384">
        <ele>290.60000610351562</ele>
        <time>2018-12-29T09:32:17Z</time>
      </trkpt>
      <trkpt lat="41.337631680071354" lon="1.357015538960695">
        <ele>290.79998779296875</ele>
        <time>2018-12-29T09:32:18Z</time>
      </trkpt>
      <trkpt lat="41.3376759365201" lon="1.357028782367706">
        <ele>291</ele>
        <time>2018-12-29T09:32:19Z</time>
      </trkpt>
      <trkpt lat="41.337717426940799" lon="1.357043702155352">
        <ele>291.20001220703125</ele>
        <time>2018-12-29T09:32:20Z</time>
      </trkpt>
      <trkpt lat="41.337760677561164" lon="1.357055520638824">
        <ele>291.39999389648437</ele>
        <time>2018-12-29T09:32:21Z</time>
      </trkpt>
      <trkpt lat="41.33784600533545" lon="1.357087790966034">
        <ele>291.60000610351562</ele>
        <time>2018-12-29T09:32:23Z</time>
      </trkpt>
      <trkpt lat="41.337929824367166" lon="1.357117546722293">
        <ele>291.79998779296875</ele>
        <time>2018-12-29T09:32:25Z</time>
      </trkpt>
      <trkpt lat="41.33801406249404" lon="1.357148224487901">
        <ele>292.20001220703125</ele>
        <time>2018-12-29T09:32:27Z</time>
      </trkpt>
      <trkpt lat="41.338091846555471" lon="1.357184182852507">
        <ele>292.60000610351562</ele>
        <time>2018-12-29T09:32:29Z</time>
      </trkpt>
      <trkpt lat="41.338129481300712" lon="1.357201281934977">
        <ele>293</ele>
        <time>2018-12-29T09:32:30Z</time>
      </trkpt>
      <trkpt lat="41.338163930922747" lon="1.357215028256178">
        <ele>293.20001220703125</ele>
        <time>2018-12-29T09:32:31Z</time>
      </trkpt>
      <trkpt lat="41.338238529860973" lon="1.35724394582212">
        <ele>293.60000610351562</ele>
        <time>2018-12-29T09:32:33Z</time>
      </trkpt>
      <trkpt lat="41.338279852643609" lon="1.357255093753338">
        <ele>294</ele>
        <time>2018-12-29T09:32:34Z</time>
      </trkpt>
      <trkpt lat="41.3383131287992" lon="1.357268420979381">
        <ele>294.20001220703125</ele>
        <time>2018-12-29T09:32:35Z</time>
      </trkpt>
      <trkpt lat="41.338380351662636" lon="1.357293566688895">
        <ele>294.60000610351562</ele>
        <time>2018-12-29T09:32:37Z</time>
      </trkpt>
      <trkpt lat="41.338440198451281" lon="1.357312090694904">
        <ele>295</ele>
        <time>2018-12-29T09:32:39Z</time>
      </trkpt>
      <trkpt lat="41.338495183736086" lon="1.357337152585387">
        <ele>295.39999389648437</ele>
        <time>2018-12-29T09:32:41Z</time>
      </trkpt>
      <trkpt lat="41.338528711348772" lon="1.357347965240479">
        <ele>295.79998779296875</ele>
        <time>2018-12-29T09:32:42Z</time>
      </trkpt>
      <trkpt lat="41.338559556752443" lon="1.357358945533633">
        <ele>296</ele>
        <time>2018-12-29T09:32:43Z</time>
      </trkpt>
      <trkpt lat="41.338628455996513" lon="1.357380487024784">
        <ele>297</ele>
        <time>2018-12-29T09:32:45Z</time>
      </trkpt>
      <trkpt lat="41.338665336370468" lon="1.357390126213431">
        <ele>297.20001220703125</ele>
        <time>2018-12-29T09:32:46Z</time>
      </trkpt>
      <trkpt lat="41.338695678859949" lon="1.357401693239808">
        <ele>297.39999389648437</ele>
        <time>2018-12-29T09:32:47Z</time>
      </trkpt>
      <trkpt lat="41.338772540912032" lon="1.357434801757336">
        <ele>298</ele>
        <time>2018-12-29T09:32:49Z</time>
      </trkpt>
      <trkpt lat="41.33885258808732" lon="1.357458019629121">
        <ele>298.39999389648437</ele>
        <time>2018-12-29T09:32:51Z</time>
      </trkpt>
      <trkpt lat="41.338925175368786" lon="1.357493726536632">
        <ele>298.79998779296875</ele>
        <time>2018-12-29T09:32:53Z</time>
      </trkpt>
      <trkpt lat="41.338996253907681" lon="1.357528259977698">
        <ele>299.20001220703125</ele>
        <time>2018-12-29T09:32:55Z</time>
      </trkpt>
      <trkpt lat="41.339028859511018" lon="1.357546364888549">
        <ele>299.39999389648438</ele>
        <time>2018-12-29T09:32:56Z</time>
      </trkpt>
      <trkpt lat="41.339063560590148" lon="1.357564721256495">
        <ele>299.60000610351562</ele>
        <time>2018-12-29T09:32:57Z</time>
      </trkpt>
      <trkpt lat="41.339132208377123" lon="1.357606127858162">
        <ele>300.20001220703125</ele>
        <time>2018-12-29T09:32:59Z</time>
      </trkpt>
      <trkpt lat="41.339198593050241" lon="1.357646780088544">
        <ele>300.60000610351562</ele>
        <time>2018-12-29T09:33:01Z</time>
      </trkpt>
      <trkpt lat="41.339226672425866" lon="1.357674105092883">
        <ele>300.60000610351562</ele>
        <time>2018-12-29T09:33:02Z</time>
      </trkpt>
      <trkpt lat="41.33925667963922" lon="1.357699083164334">
        <ele>300.79998779296875</ele>
        <time>2018-12-29T09:33:03Z</time>
      </trkpt>
      <trkpt lat="41.33931384421885" lon="1.357751050963998">
        <ele>301.60000610351562</ele>
        <time>2018-12-29T09:33:05Z</time>
      </trkpt>
      <trkpt lat="41.339376457035542" lon="1.357818022370338">
        <ele>302</ele>
        <time>2018-12-29T09:33:07Z</time>
      </trkpt>
      <trkpt lat="41.339429849758744" lon="1.357894130051136">
        <ele>302.60000610351562</ele>
        <time>2018-12-29T09:33:09Z</time>
      </trkpt>
      <trkpt lat="41.339461030438542" lon="1.357927825301886">
        <ele>302.79998779296875</ele>
        <time>2018-12-29T09:33:10Z</time>
      </trkpt>
      <trkpt lat="41.339486092329025" lon="1.357961520552635">
        <ele>303.20001220703125</ele>
        <time>2018-12-29T09:33:11Z</time>
      </trkpt>
      <trkpt lat="41.339535797014832" lon="1.358027318492532">
        <ele>303.60000610351562</ele>
        <time>2018-12-29T09:33:13Z</time>
      </trkpt>
      <trkpt lat="41.339561278000474" lon="1.358061349019408">
        <ele>304</ele>
        <time>2018-12-29T09:33:14Z</time>
      </trkpt>
      <trkpt lat="41.339583992958069" lon="1.358094122260809">
        <ele>304.20001220703125</ele>
        <time>2018-12-29T09:33:15Z</time>
      </trkpt>
      <trkpt lat="41.339610395953059" lon="1.358125051483512">
        <ele>304.60000610351562</ele>
        <time>2018-12-29T09:33:16Z</time>
      </trkpt>
      <trkpt lat="41.339643336832523" lon="1.358149107545614">
        <ele>304.79998779296875</ele>
        <time>2018-12-29T09:33:17Z</time>
      </trkpt>
      <trkpt lat="41.339668147265911" lon="1.358177522197366">
        <ele>305</ele>
        <time>2018-12-29T09:33:18Z</time>
      </trkpt>
      <trkpt lat="41.339693460613489" lon="1.358199650421739">
        <ele>305.20001220703125</ele>
        <time>2018-12-29T09:33:19Z</time>
      </trkpt>
      <trkpt lat="41.339754648506641" lon="1.358253294602037">
        <ele>305.79998779296875</ele>
        <time>2018-12-29T09:33:21Z</time>
      </trkpt>
      <trkpt lat="41.339812902733684" lon="1.358296712860465">
        <ele>306.20001220703125</ele>
        <time>2018-12-29T09:33:23Z</time>
      </trkpt>
      <trkpt lat="41.339876940473914" lon="1.358324456959963">
        <ele>306.39999389648437</ele>
        <time>2018-12-29T09:33:25Z</time>
      </trkpt>
      <trkpt lat="41.339934272691607" lon="1.358349770307541">
        <ele>306.79998779296875</ele>
        <time>2018-12-29T09:33:27Z</time>
      </trkpt>
      <trkpt lat="41.339998980984092" lon="1.358370222151279">
        <ele>307.20001220703125</ele>
        <time>2018-12-29T09:33:29Z</time>
      </trkpt>
      <trkpt lat="41.340067544952035" lon="1.358391679823399">
        <ele>307.79998779296875</ele>
        <time>2018-12-29T09:33:31Z</time>
      </trkpt>
      <trkpt lat="41.340134683996439" lon="1.358399894088507">
        <ele>308.20001220703125</ele>
        <time>2018-12-29T09:33:33Z</time>
      </trkpt>
      <trkpt lat="41.340169301256537" lon="1.358399223536253">
        <ele>308.20001220703125</ele>
        <time>2018-12-29T09:33:34Z</time>
      </trkpt>
      <trkpt lat="41.340203331783414" lon="1.358398972079158">
        <ele>308.20001220703125</ele>
        <time>2018-12-29T09:33:35Z</time>
      </trkpt>
      <trkpt lat="41.340272231027484" lon="1.3584088627249">
        <ele>308.39999389648437</ele>
        <time>2018-12-29T09:33:37Z</time>
      </trkpt>
      <trkpt lat="41.340315062552691" lon="1.358420178294182">
        <ele>308.39999389648437</ele>
        <time>2018-12-29T09:33:38Z</time>
      </trkpt>
      <trkpt lat="41.340347584336996" lon="1.35841473005712">
        <ele>308.20001220703125</ele>
        <time>2018-12-29T09:33:39Z</time>
      </trkpt>
      <trkpt lat="41.340408269315958" lon="1.358405090868473">
        <ele>308.20001220703125</ele>
        <time>2018-12-29T09:33:41Z</time>
      </trkpt>
      <trkpt lat="41.340485466644168" lon="1.358393272385001">
        <ele>308</ele>
        <time>2018-12-29T09:33:43Z</time>
      </trkpt>
      <trkpt lat="41.340558137744665" lon="1.358375167474151">
        <ele>308</ele>
        <time>2018-12-29T09:33:45Z</time>
      </trkpt>
      <trkpt lat="41.340636592358351" lon="1.358353793621063">
        <ele>308</ele>
        <time>2018-12-29T09:33:47Z</time>
      </trkpt>
      <trkpt lat="41.340719573199749" lon="1.358333174139261">
        <ele>307.79998779296875</ele>
        <time>2018-12-29T09:33:49Z</time>
      </trkpt>
      <trkpt lat="41.340806325897574" lon="1.358315404504538">
        <ele>307.39999389648437</ele>
        <time>2018-12-29T09:33:51Z</time>
      </trkpt>
      <trkpt lat="41.34089601226151" lon="1.358299227431417">
        <ele>307.39999389648437</ele>
        <time>2018-12-29T09:33:53Z</time>
      </trkpt>
      <trkpt lat="41.340943034738302" lon="1.358280787244439">
        <ele>307.20001220703125</ele>
        <time>2018-12-29T09:33:54Z</time>
      </trkpt>
      <trkpt lat="41.340988632291555" lon="1.358265113085508">
        <ele>307.20001220703125</ele>
        <time>2018-12-29T09:33:55Z</time>
      </trkpt>
      <trkpt lat="41.341040264815092" lon="1.358237788081169">
        <ele>307</ele>
        <time>2018-12-29T09:33:56Z</time>
      </trkpt>
      <trkpt lat="41.341086532920599" lon="1.358220437541604">
        <ele>306.79998779296875</ele>
        <time>2018-12-29T09:33:57Z</time>
      </trkpt>
      <trkpt lat="41.34113204665482" lon="1.358198560774326">
        <ele>306.60000610351562</ele>
        <time>2018-12-29T09:33:58Z</time>
      </trkpt>
      <trkpt lat="41.341177308931947" lon="1.358174588531256">
        <ele>306.60000610351562</ele>
        <time>2018-12-29T09:33:59Z</time>
      </trkpt>
      <trkpt lat="41.341282250359654" lon="1.358113400638104">
        <ele>306.39999389648437</ele>
        <time>2018-12-29T09:34:01Z</time>
      </trkpt>
      <trkpt lat="41.341365147382021" lon="1.358072916045785">
        <ele>306.39999389648437</ele>
        <time>2018-12-29T09:34:03Z</time>
      </trkpt>
      <trkpt lat="41.341420048847795" lon="1.358058582991362">
        <ele>306.39999389648437</ele>
        <time>2018-12-29T09:34:04Z</time>
      </trkpt>
      <trkpt lat="41.341464892029762" lon="1.358036119490862">
        <ele>306.39999389648437</ele>
        <time>2018-12-29T09:34:05Z</time>
      </trkpt>
      <trkpt lat="41.341512585058808" lon="1.358008962124586">
        <ele>306.20001220703125</ele>
        <time>2018-12-29T09:34:06Z</time>
      </trkpt>
      <trkpt lat="41.341557092964649" lon="1.357982642948628">
        <ele>306.20001220703125</ele>
        <time>2018-12-29T09:34:07Z</time>
      </trkpt>
      <trkpt lat="41.341642756015062" lon="1.357939476147294">
        <ele>306.39999389648437</ele>
        <time>2018-12-29T09:34:09Z</time>
      </trkpt>
      <trkpt lat="41.341729089617729" lon="1.3579046074301">
        <ele>306.20001220703125</ele>
        <time>2018-12-29T09:34:11Z</time>
      </trkpt>
      <trkpt lat="41.341776866465807" lon="1.357894381508231">
        <ele>305.79998779296875</ele>
        <time>2018-12-29T09:34:12Z</time>
      </trkpt>
      <trkpt lat="41.341818440705538" lon="1.357888011261821">
        <ele>306</ele>
        <time>2018-12-29T09:34:13Z</time>
      </trkpt>
      <trkpt lat="41.341908043250442" lon="1.357876779511571">
        <ele>306.60000610351562</ele>
        <time>2018-12-29T09:34:15Z</time>
      </trkpt>
      <trkpt lat="41.341998400166631" lon="1.357872756198049">
        <ele>306.79998779296875</ele>
        <time>2018-12-29T09:34:17Z</time>
      </trkpt>
      <trkpt lat="41.342105939984322" lon="1.357871750369668">
        <ele>306.79998779296875</ele>
        <time>2018-12-29T09:34:19Z</time>
      </trkpt>
      <trkpt lat="41.342147598043084" lon="1.357865463942289">
        <ele>307</ele>
        <time>2018-12-29T09:34:20Z</time>
      </trkpt>
      <trkpt lat="41.342195626348257" lon="1.357860853895545">
        <ele>307</ele>
        <time>2018-12-29T09:34:21Z</time>
      </trkpt>
      <trkpt lat="41.342290258035064" lon="1.357848364859819">
        <ele>307</ele>
        <time>2018-12-29T09:34:23Z</time>
      </trkpt>
      <trkpt lat="41.342381872236729" lon="1.357843168079853">
        <ele>307.20001220703125</ele>
        <time>2018-12-29T09:34:25Z</time>
      </trkpt>
      <trkpt lat="41.342425625771284" lon="1.357842329889536">
        <ele>307.20001220703125</ele>
        <time>2018-12-29T09:34:26Z</time>
      </trkpt>
      <trkpt lat="41.342475414276123" lon="1.357835456728935">
        <ele>307.39999389648437</ele>
        <time>2018-12-29T09:34:27Z</time>
      </trkpt>
      <trkpt lat="41.342567028477788" lon="1.357829170301557">
        <ele>307.60000610351562</ele>
        <time>2018-12-29T09:34:29Z</time>
      </trkpt>
      <trkpt lat="41.342662246897817" lon="1.357831349596381">
        <ele>307.79998779296875</ele>
        <time>2018-12-29T09:34:31Z</time>
      </trkpt>
      <trkpt lat="41.342760566622019" lon="1.35783864185214">
        <ele>308</ele>
        <time>2018-12-29T09:34:33Z</time>
      </trkpt>
      <trkpt lat="41.342861317098141" lon="1.357857249677181">
        <ele>308</ele>
        <time>2018-12-29T09:34:35Z</time>
      </trkpt>
      <trkpt lat="41.342953266575933" lon="1.357881976291537">
        <ele>308.20001220703125</ele>
        <time>2018-12-29T09:34:37Z</time>
      </trkpt>
      <trkpt lat="41.343048568814993" lon="1.357902931049466">
        <ele>308.20001220703125</ele>
        <time>2018-12-29T09:34:39Z</time>
      </trkpt>
      <trkpt lat="41.343093076720834" lon="1.357911648228765">
        <ele>308.39999389648437</ele>
        <time>2018-12-29T09:34:40Z</time>
      </trkpt>
      <trkpt lat="41.34313540533185" lon="1.35791776701808">
        <ele>308.39999389648437</ele>
        <time>2018-12-29T09:34:41Z</time>
      </trkpt>
      <trkpt lat="41.343175051733851" lon="1.357922796159983">
        <ele>308.60000610351562</ele>
        <time>2018-12-29T09:34:42Z</time>
      </trkpt>
      <trkpt lat="41.343215955421329" lon="1.357932602986693">
        <ele>308.60000610351562</ele>
        <time>2018-12-29T09:34:43Z</time>
      </trkpt>
      <trkpt lat="41.343318549916148" lon="1.357953138649464">
        <ele>308.79998779296875</ele>
        <time>2018-12-29T09:34:45Z</time>
      </trkpt>
      <trkpt lat="41.343410918489099" lon="1.357970992103219">
        <ele>309.20001220703125</ele>
        <time>2018-12-29T09:34:47Z</time>
      </trkpt>
      <trkpt lat="41.343458360061049" lon="1.357978787273169">
        <ele>309.39999389648437</ele>
        <time>2018-12-29T09:34:48Z</time>
      </trkpt>
      <trkpt lat="41.343507561832666" lon="1.357979290187359">
        <ele>309.39999389648437</ele>
        <time>2018-12-29T09:34:49Z</time>
      </trkpt>
      <trkpt lat="41.343597834929824" lon="1.357980463653803">
        <ele>309.60000610351562</ele>
        <time>2018-12-29T09:34:51Z</time>
      </trkpt>
      <trkpt lat="41.343694478273392" lon="1.35798666626215">
        <ele>310</ele>
        <time>2018-12-29T09:34:53Z</time>
      </trkpt>
      <trkpt lat="41.343784835189581" lon="1.357986414805055">
        <ele>310.20001220703125</ele>
        <time>2018-12-29T09:34:55Z</time>
      </trkpt>
      <trkpt lat="41.343875527381897" lon="1.357981218025088">
        <ele>310.39999389648437</ele>
        <time>2018-12-29T09:34:57Z</time>
      </trkpt>
      <trkpt lat="41.343919364735484" lon="1.357975518330932">
        <ele>310.79998779296875</ele>
        <time>2018-12-29T09:34:58Z</time>
      </trkpt>
      <trkpt lat="41.343961777165532" lon="1.357969986274838">
        <ele>311</ele>
        <time>2018-12-29T09:34:59Z</time>
      </trkpt>
      <trkpt lat="41.344040315598249" lon="1.357959760352969">
        <ele>311.60000610351562</ele>
        <time>2018-12-29T09:35:01Z</time>
      </trkpt>
      <trkpt lat="41.344123296439648" lon="1.357954395934939">
        <ele>311.79998779296875</ele>
        <time>2018-12-29T09:35:03Z</time>
      </trkpt>
      <trkpt lat="41.344210971146822" lon="1.357944505289197">
        <ele>312.20001220703125</ele>
        <time>2018-12-29T09:35:05Z</time>
      </trkpt>
      <trkpt lat="41.344299484044313" lon="1.357933189719915">
        <ele>312.60000610351562</ele>
        <time>2018-12-29T09:35:07Z</time>
      </trkpt>
      <trkpt lat="41.344386320561171" lon="1.357929082587361">
        <ele>312.79998779296875</ele>
        <time>2018-12-29T09:35:09Z</time>
      </trkpt>
      <trkpt lat="41.344428397715092" lon="1.357926316559315">
        <ele>313</ele>
        <time>2018-12-29T09:35:10Z</time>
      </trkpt>
      <trkpt lat="41.344476845115423" lon="1.35791483335197">
        <ele>313.20001220703125</ele>
        <time>2018-12-29T09:35:11Z</time>
      </trkpt>
      <trkpt lat="41.344556473195553" lon="1.357902428135276">
        <ele>313.39999389648438</ele>
        <time>2018-12-29T09:35:13Z</time>
      </trkpt>
      <trkpt lat="41.344639621675014" lon="1.357895722612739">
        <ele>313.39999389648438</ele>
        <time>2018-12-29T09:35:15Z</time>
      </trkpt>
      <trkpt lat="41.344723692163825" lon="1.357887424528599">
        <ele>313.60000610351562</ele>
        <time>2018-12-29T09:35:17Z</time>
      </trkpt>
      <trkpt lat="41.344807259738445" lon="1.357885580509901">
        <ele>314</ele>
        <time>2018-12-29T09:35:19Z</time>
      </trkpt>
      <trkpt lat="41.344889402389526" lon="1.357876779511571">
        <ele>314.39999389648437</ele>
        <time>2018-12-29T09:35:21Z</time>
      </trkpt>
      <trkpt lat="41.344959391281009" lon="1.357869990170002">
        <ele>314.60000610351562</ele>
        <time>2018-12-29T09:35:23Z</time>
      </trkpt>
      <trkpt lat="41.344997445121408" lon="1.357865044847131">
        <ele>314.60000610351562</ele>
        <time>2018-12-29T09:35:24Z</time>
      </trkpt>
      <trkpt lat="41.345034074038267" lon="1.357863117009401">
        <ele>315</ele>
        <time>2018-12-29T09:35:25Z</time>
      </trkpt>
      <trkpt lat="41.345069361850619" lon="1.357860267162323">
        <ele>315.39999389648437</ele>
        <time>2018-12-29T09:35:26Z</time>
      </trkpt>
      <trkpt lat="41.345108672976494" lon="1.357852555811405">
        <ele>315.60000610351562</ele>
        <time>2018-12-29T09:35:27Z</time>
      </trkpt>
      <trkpt lat="41.345182349905372" lon="1.357850125059485">
        <ele>315.79998779296875</ele>
        <time>2018-12-29T09:35:29Z</time>
      </trkpt>
      <trkpt lat="41.345223002135754" lon="1.357841156423092">
        <ele>316</ele>
        <time>2018-12-29T09:35:30Z</time>
      </trkpt>
      <trkpt lat="41.345252338796854" lon="1.357837384566665">
        <ele>316.20001220703125</ele>
        <time>2018-12-29T09:35:31Z</time>
      </trkpt>
      <trkpt lat="41.345288716256618" lon="1.35783227160573">
        <ele>316.39999389648438</ele>
        <time>2018-12-29T09:35:32Z</time>
      </trkpt>
      <trkpt lat="41.345322579145432" lon="1.357825398445129">
        <ele>316.39999389648438</ele>
        <time>2018-12-29T09:35:33Z</time>
      </trkpt>
      <trkpt lat="41.34539776481688" lon="1.357816094532609">
        <ele>316.79998779296875</ele>
        <time>2018-12-29T09:35:35Z</time>
      </trkpt>
      <trkpt lat="41.345477057620883" lon="1.35780586861074">
        <ele>317</ele>
        <time>2018-12-29T09:35:37Z</time>
      </trkpt>
      <trkpt lat="41.345557188615203" lon="1.357795894145966">
        <ele>317.20001220703125</ele>
        <time>2018-12-29T09:35:39Z</time>
      </trkpt>
      <trkpt lat="41.34559566155076" lon="1.357791451737285">
        <ele>317.39999389648437</ele>
        <time>2018-12-29T09:35:40Z</time>
      </trkpt>
      <trkpt lat="41.345636565238237" lon="1.357786003500223">
        <ele>317.39999389648437</ele>
        <time>2018-12-29T09:35:41Z</time>
      </trkpt>
      <trkpt lat="41.345731113106012" lon="1.357783237472177">
        <ele>317.60000610351562</ele>
        <time>2018-12-29T09:35:43Z</time>
      </trkpt>
      <trkpt lat="41.345766987651587" lon="1.357780303806067">
        <ele>317.79998779296875</ele>
        <time>2018-12-29T09:35:44Z</time>
      </trkpt>
      <trkpt lat="41.345804538577795" lon="1.357773598283529">
        <ele>317.79998779296875</ele>
        <time>2018-12-29T09:35:45Z</time>
      </trkpt>
      <trkpt lat="41.345886932685971" lon="1.357766725122929">
        <ele>318</ele>
        <time>2018-12-29T09:35:47Z</time>
      </trkpt>
      <trkpt lat="41.345977038145065" lon="1.357772089540958">
        <ele>318.20001220703125</ele>
        <time>2018-12-29T09:35:49Z</time>
      </trkpt>
      <trkpt lat="41.346020624041557" lon="1.357781393453479">
        <ele>318.39999389648437</ele>
        <time>2018-12-29T09:35:50Z</time>
      </trkpt>
      <trkpt lat="41.346068819984794" lon="1.357797486707568">
        <ele>318.39999389648437</ele>
        <time>2018-12-29T09:35:51Z</time>
      </trkpt>
      <trkpt lat="41.346119865775108" lon="1.357816848903894">
        <ele>318.39999389648437</ele>
        <time>2018-12-29T09:35:52Z</time>
      </trkpt>
      <trkpt lat="41.346164373680949" lon="1.357844090089202">
        <ele>318.39999389648437</ele>
        <time>2018-12-29T09:35:53Z</time>
      </trkpt>
      <trkpt lat="41.346249617636204" lon="1.357895890250802">
        <ele>318.60000610351562</ele>
        <time>2018-12-29T09:35:55Z</time>
      </trkpt>
      <trkpt lat="41.346333269029856" lon="1.357951378449798">
        <ele>318.60000610351562</ele>
        <time>2018-12-29T09:35:57Z</time>
      </trkpt>
      <trkpt lat="41.346429577097297" lon="1.358014410361648">
        <ele>318.79998779296875</ele>
        <time>2018-12-29T09:35:59Z</time>
      </trkpt>
      <trkpt lat="41.346528315916657" lon="1.358080040663481">
        <ele>318.60000610351562</ele>
        <time>2018-12-29T09:36:01Z</time>
      </trkpt>
      <trkpt lat="41.346616828814149" lon="1.358148520812392">
        <ele>318.39999389648437</ele>
        <time>2018-12-29T09:36:03Z</time>
      </trkpt>
      <trkpt lat="41.346704000607133" lon="1.358211888000369">
        <ele>318.20001220703125</ele>
        <time>2018-12-29T09:36:05Z</time>
      </trkpt>
      <trkpt lat="41.346803745254874" lon="1.358282631263137">
        <ele>317.79998779296875</ele>
        <time>2018-12-29T09:36:07Z</time>
      </trkpt>
      <trkpt lat="41.346903741359711" lon="1.358367456123233">
        <ele>317.20001220703125</ele>
        <time>2018-12-29T09:36:09Z</time>
      </trkpt>
      <trkpt lat="41.346959229558706" lon="1.358410706743598">
        <ele>317</ele>
        <time>2018-12-29T09:36:10Z</time>
      </trkpt>
      <trkpt lat="41.347017735242844" lon="1.358454460278153">
        <ele>316.79998779296875</ele>
        <time>2018-12-29T09:36:11Z</time>
      </trkpt>
      <trkpt lat="41.347138937562704" lon="1.358546912670136">
        <ele>315.39999389648437</ele>
        <time>2018-12-29T09:36:13Z</time>
      </trkpt>
      <trkpt lat="41.347254943102598" lon="1.358660822734237">
        <ele>315.20001220703125</ele>
        <time>2018-12-29T09:36:15Z</time>
      </trkpt>
      <trkpt lat="41.347382264211774" lon="1.358779259026051">
        <ele>314.39999389648437</ele>
        <time>2018-12-29T09:36:17Z</time>
      </trkpt>
      <trkpt lat="41.347505310550332" lon="1.358898198232055">
        <ele>313.60000610351562</ele>
        <time>2018-12-29T09:36:19Z</time>
      </trkpt>
      <trkpt lat="41.347562978044152" lon="1.358947400003672">
        <ele>313</ele>
        <time>2018-12-29T09:36:20Z</time>
      </trkpt>
      <trkpt lat="41.347628021612763" lon="1.35900548659265">
        <ele>312.39999389648437</ele>
        <time>2018-12-29T09:36:21Z</time>
      </trkpt>
      <trkpt lat="41.347694825381041" lon="1.359063573181629">
        <ele>312</ele>
        <time>2018-12-29T09:36:22Z</time>
      </trkpt>
      <trkpt lat="41.347761545330286" lon="1.359121240675449">
        <ele>311.60000610351562</ele>
        <time>2018-12-29T09:36:23Z</time>
      </trkpt>
      <trkpt lat="41.347891548648477" lon="1.359238922595978">
        <ele>311.20001220703125</ele>
        <time>2018-12-29T09:36:25Z</time>
      </trkpt>
      <trkpt lat="41.347953658550978" lon="1.359300445765257">
        <ele>310.79998779296875</ele>
        <time>2018-12-29T09:36:26Z</time>
      </trkpt>
      <trkpt lat="41.348010739311576" lon="1.359368590638042">
        <ele>310.39999389648437</ele>
        <time>2018-12-29T09:36:27Z</time>
      </trkpt>
      <trkpt lat="41.348122470080853" lon="1.359512591734529">
        <ele>309.79998779296875</ele>
        <time>2018-12-29T09:36:29Z</time>
      </trkpt>
      <trkpt lat="41.34822984226048" lon="1.359673272818327">
        <ele>309.20001220703125</ele>
        <time>2018-12-29T09:36:31Z</time>
      </trkpt>
      <trkpt lat="41.34828700684011" lon="1.359756337478757">
        <ele>308.60000610351562</ele>
        <time>2018-12-29T09:36:32Z</time>
      </trkpt>
      <trkpt lat="41.348345009610057" lon="1.359837893396616">
        <ele>308.20001220703125</ele>
        <time>2018-12-29T09:36:33Z</time>
      </trkpt>
      <trkpt lat="41.348453219980001" lon="1.359996311366558">
        <ele>307.79998779296875</ele>
        <time>2018-12-29T09:36:35Z</time>
      </trkpt>
      <trkpt lat="41.348508121445775" lon="1.360080549493432">
        <ele>307.60000610351562</ele>
        <time>2018-12-29T09:36:36Z</time>
      </trkpt>
      <trkpt lat="41.348562352359295" lon="1.360165039077401">
        <ele>306.60000610351562</ele>
        <time>2018-12-29T09:36:37Z</time>
      </trkpt>
      <trkpt lat="41.348680034279823" lon="1.360329072922468">
        <ele>305.20001220703125</ele>
        <time>2018-12-29T09:36:39Z</time>
      </trkpt>
      <trkpt lat="41.34880056604743" lon="1.360480030998588">
        <ele>304.39999389648437</ele>
        <time>2018-12-29T09:36:41Z</time>
      </trkpt>
      <trkpt lat="41.348863346502185" lon="1.360553624108434">
        <ele>304.20001220703125</ele>
        <time>2018-12-29T09:36:42Z</time>
      </trkpt>
      <trkpt lat="41.348927384242415" lon="1.360623361542821">
        <ele>303.79998779296875</ele>
        <time>2018-12-29T09:36:43Z</time>
      </trkpt>
      <trkpt lat="41.349051352590322" lon="1.360748754814267">
        <ele>303.39999389648437</ele>
        <time>2018-12-29T09:36:45Z</time>
      </trkpt>
      <trkpt lat="41.349177584052086" lon="1.360872723162174">
        <ele>302.39999389648438</ele>
        <time>2018-12-29T09:36:47Z</time>
      </trkpt>
      <trkpt lat="41.34930431842804" lon="1.36099761351943">
        <ele>301.60000610351562</ele>
        <time>2018-12-29T09:36:49Z</time>
      </trkpt>
      <trkpt lat="41.34936542250216" lon="1.361063830554485">
        <ele>301.20001220703125</ele>
        <time>2018-12-29T09:36:50Z</time>
      </trkpt>
      <trkpt lat="41.349421916529536" lon="1.361138178035617">
        <ele>301</ele>
        <time>2018-12-29T09:36:51Z</time>
      </trkpt>
      <trkpt lat="41.349543202668428" lon="1.361277988180518">
        <ele>300.20001220703125</ele>
        <time>2018-12-29T09:36:53Z</time>
      </trkpt>
      <trkpt lat="41.349678989499807" lon="1.361408745869994">
        <ele>299.60000610351562</ele>
        <time>2018-12-29T09:36:55Z</time>
      </trkpt>
      <trkpt lat="41.349754929542542" lon="1.361461551859975">
        <ele>299</ele>
        <time>2018-12-29T09:36:56Z</time>
      </trkpt>
      <trkpt lat="41.349832797423005" lon="1.361499605700374">
        <ele>298.39999389648437</ele>
        <time>2018-12-29T09:36:57Z</time>
      </trkpt>
      <trkpt lat="41.349913012236357" lon="1.361526679247618">
        <ele>297.79998779296875</ele>
        <time>2018-12-29T09:36:58Z</time>
      </trkpt>
      <trkpt lat="41.349986689165235" lon="1.3615483045578">
        <ele>297.39999389648437</ele>
        <time>2018-12-29T09:36:59Z</time>
      </trkpt>
      <trkpt lat="41.350056175142527" lon="1.361563559621573">
        <ele>297.39999389648437</ele>
        <time>2018-12-29T09:37:00Z</time>
      </trkpt>
      <trkpt lat="41.350129432976246" lon="1.361568421125412">
        <ele>297.39999389648437</ele>
        <time>2018-12-29T09:37:01Z</time>
      </trkpt>
      <trkpt lat="41.350254993885756" lon="1.361572276800871">
        <ele>297.60000610351562</ele>
        <time>2018-12-29T09:37:03Z</time>
      </trkpt>
      <trkpt lat="41.350374519824982" lon="1.361580910161138">
        <ele>297.60000610351562</ele>
        <time>2018-12-29T09:37:05Z</time>
      </trkpt>
      <trkpt lat="41.350436042994261" lon="1.361593650653958">
        <ele>297.79998779296875</ele>
        <time>2018-12-29T09:37:06Z</time>
      </trkpt>
      <trkpt lat="41.350495722144842" lon="1.361610163003206">
        <ele>298</ele>
        <time>2018-12-29T09:37:07Z</time>
      </trkpt>
      <trkpt lat="41.350609716027975" lon="1.361654503270984">
        <ele>298</ele>
        <time>2018-12-29T09:37:09Z</time>
      </trkpt>
      <trkpt lat="41.350715328007936" lon="1.361715774983168">
        <ele>298.39999389648437</ele>
        <time>2018-12-29T09:37:11Z</time>
      </trkpt>
      <trkpt lat="41.350766206160188" lon="1.361746955662966">
        <ele>299</ele>
        <time>2018-12-29T09:37:12Z</time>
      </trkpt>
      <trkpt lat="41.350816246122122" lon="1.361777046695352">
        <ele>299</ele>
        <time>2018-12-29T09:37:13Z</time>
      </trkpt>
      <trkpt lat="41.350911045446992" lon="1.361833205446601">
        <ele>299.39999389648438</ele>
        <time>2018-12-29T09:37:15Z</time>
      </trkpt>
      <trkpt lat="41.350999977439642" lon="1.361876120790839">
        <ele>300.20001220703125</ele>
        <time>2018-12-29T09:37:17Z</time>
      </trkpt>
      <trkpt lat="41.351042306050658" lon="1.361892633140087">
        <ele>300.39999389648437</ele>
        <time>2018-12-29T09:37:18Z</time>
      </trkpt>
      <trkpt lat="41.351084047928452" lon="1.36191182769835">
        <ele>300.60000610351562</ele>
        <time>2018-12-29T09:37:19Z</time>
      </trkpt>
      <trkpt lat="41.351167615503073" lon="1.361943176016212">
        <ele>301</ele>
        <time>2018-12-29T09:37:21Z</time>
      </trkpt>
      <trkpt lat="41.351252943277359" lon="1.361980894580483">
        <ele>301.20001220703125</ele>
        <time>2018-12-29T09:37:23Z</time>
      </trkpt>
      <trkpt lat="41.351340869441628" lon="1.362018864601851">
        <ele>301</ele>
        <time>2018-12-29T09:37:25Z</time>
      </trkpt>
      <trkpt lat="41.351427119225264" lon="1.36205549351871">
        <ele>301.39999389648437</ele>
        <time>2018-12-29T09:37:27Z</time>
      </trkpt>
      <trkpt lat="41.351468358188868" lon="1.36207016184926">
        <ele>301.39999389648437</ele>
        <time>2018-12-29T09:37:28Z</time>
      </trkpt>
      <trkpt lat="41.351509094238281" lon="1.362085249274969">
        <ele>301.60000610351562</ele>
        <time>2018-12-29T09:37:29Z</time>
      </trkpt>
      <trkpt lat="41.351588303223252" lon="1.362119782716036">
        <ele>301.79998779296875</ele>
        <time>2018-12-29T09:37:31Z</time>
      </trkpt>
      <trkpt lat="41.351666757836938" lon="1.36214978992939">
        <ele>302.20001220703125</ele>
        <time>2018-12-29T09:37:33Z</time>
      </trkpt>
      <trkpt lat="41.351744625717402" lon="1.362180802971125">
        <ele>302.39999389648438</ele>
        <time>2018-12-29T09:37:35Z</time>
      </trkpt>
      <trkpt lat="41.351781254634261" lon="1.362199913710356">
        <ele>302.39999389648438</ele>
        <time>2018-12-29T09:37:36Z</time>
      </trkpt>
      <trkpt lat="41.351821068674326" lon="1.362215420231223">
        <ele>302.39999389648438</ele>
        <time>2018-12-29T09:37:37Z</time>
      </trkpt>
      <trkpt lat="41.351898517459631" lon="1.362246433272958">
        <ele>302.60000610351562</ele>
        <time>2018-12-29T09:37:39Z</time>
      </trkpt>
      <trkpt lat="41.351973116397858" lon="1.362272836267948">
        <ele>303</ele>
        <time>2018-12-29T09:37:41Z</time>
      </trkpt>
      <trkpt lat="41.352048218250275" lon="1.362295048311353">
        <ele>303.20001220703125</ele>
        <time>2018-12-29T09:37:43Z</time>
      </trkpt>
      <trkpt lat="41.352084763348103" lon="1.362308710813522">
        <ele>303.39999389648437</ele>
        <time>2018-12-29T09:37:44Z</time>
      </trkpt>
      <trkpt lat="41.35212273336947" lon="1.36232128366828">
        <ele>303.60000610351562</ele>
        <time>2018-12-29T09:37:45Z</time>
      </trkpt>
      <trkpt lat="41.352199008688331" lon="1.362341651692987">
        <ele>304</ele>
        <time>2018-12-29T09:37:47Z</time>
      </trkpt>
      <trkpt lat="41.352279055863619" lon="1.362357325851917">
        <ele>304.39999389648437</ele>
        <time>2018-12-29T09:37:49Z</time>
      </trkpt>
      <trkpt lat="41.3523577619344" lon="1.36236771941185">
        <ele>304.60000610351562</ele>
        <time>2018-12-29T09:37:51Z</time>
      </trkpt>
      <trkpt lat="41.352397575974464" lon="1.362373251467943">
        <ele>304.60000610351562</ele>
        <time>2018-12-29T09:37:52Z</time>
      </trkpt>
      <trkpt lat="41.352437641471624" lon="1.362378364428878">
        <ele>304.60000610351562</ele>
        <time>2018-12-29T09:37:53Z</time>
      </trkpt>
      <trkpt lat="41.352517772465944" lon="1.362390434369445">
        <ele>305</ele>
        <time>2018-12-29T09:37:55Z</time>
      </trkpt>
      <trkpt lat="41.352591868489981" lon="1.3624082878232">
        <ele>305</ele>
        <time>2018-12-29T09:37:57Z</time>
      </trkpt>
      <trkpt lat="41.352668814361095" lon="1.36242144741118">
        <ele>305.39999389648437</ele>
        <time>2018-12-29T09:37:59Z</time>
      </trkpt>
      <trkpt lat="41.352750118821859" lon="1.362433601170778">
        <ele>305.60000610351562</ele>
        <time>2018-12-29T09:38:01Z</time>
      </trkpt>
      <trkpt lat="41.352792531251907" lon="1.362440725788474">
        <ele>305.60000610351562</ele>
        <time>2018-12-29T09:38:02Z</time>
      </trkpt>
      <trkpt lat="41.352833770215511" lon="1.362449778243899">
        <ele>305.60000610351562</ele>
        <time>2018-12-29T09:38:03Z</time>
      </trkpt>
      <trkpt lat="41.352916248142719" lon="1.362473666667938">
        <ele>305.79998779296875</ele>
        <time>2018-12-29T09:38:05Z</time>
      </trkpt>
      <trkpt lat="41.352999061346054" lon="1.362501410767436">
        <ele>306.20001220703125</ele>
        <time>2018-12-29T09:38:07Z</time>
      </trkpt>
      <trkpt lat="41.353078270331025" lon="1.362536614760757">
        <ele>306.20001220703125</ele>
        <time>2018-12-29T09:38:09Z</time>
      </trkpt>
      <trkpt lat="41.353159239515662" lon="1.362571818754077">
        <ele>306.20001220703125</ele>
        <time>2018-12-29T09:38:11Z</time>
      </trkpt>
      <trkpt lat="41.353247249498963" lon="1.362610124051571">
        <ele>305.60000610351562</ele>
        <time>2018-12-29T09:38:13Z</time>
      </trkpt>
      <trkpt lat="41.353339534252882" lon="1.362654380500317">
        <ele>306.20001220703125</ele>
        <time>2018-12-29T09:38:15Z</time>
      </trkpt>
      <trkpt lat="41.353388903662562" lon="1.362675754353404">
        <ele>306.39999389648437</ele>
        <time>2018-12-29T09:38:16Z</time>
      </trkpt>
      <trkpt lat="41.353438524529338" lon="1.362694781273603">
        <ele>306.60000610351562</ele>
        <time>2018-12-29T09:38:17Z</time>
      </trkpt>
      <trkpt lat="41.353487642481923" lon="1.362710539251566">
        <ele>306.60000610351562</ele>
        <time>2018-12-29T09:38:18Z</time>
      </trkpt>
      <trkpt lat="41.353537095710635" lon="1.362726464867592">
        <ele>306.79998779296875</ele>
        <time>2018-12-29T09:38:19Z</time>
      </trkpt>
      <trkpt lat="41.35363357141614" lon="1.362755466252565">
        <ele>307.39999389648437</ele>
        <time>2018-12-29T09:38:21Z</time>
      </trkpt>
      <trkpt lat="41.353681767359376" lon="1.362769715487957">
        <ele>307.39999389648437</ele>
        <time>2018-12-29T09:38:22Z</time>
      </trkpt>
      <trkpt lat="41.353727197274566" lon="1.362782120704651">
        <ele>307.39999389648437</ele>
        <time>2018-12-29T09:38:23Z</time>
      </trkpt>
      <trkpt lat="41.353816883638501" lon="1.362807266414166">
        <ele>307.60000610351562</ele>
        <time>2018-12-29T09:38:25Z</time>
      </trkpt>
      <trkpt lat="41.353859715163708" lon="1.362819839268923">
        <ele>307.79998779296875</ele>
        <time>2018-12-29T09:38:26Z</time>
      </trkpt>
      <trkpt lat="41.353904055431485" lon="1.362833166494966">
        <ele>307.79998779296875</ele>
        <time>2018-12-29T09:38:27Z</time>
      </trkpt>
      <trkpt lat="41.353994160890579" lon="1.362862754613161">
        <ele>307.60000610351562</ele>
        <time>2018-12-29T09:38:29Z</time>
      </trkpt>
      <trkpt lat="41.354086110368371" lon="1.362890331074596">
        <ele>308</ele>
        <time>2018-12-29T09:38:31Z</time>
      </trkpt>
      <trkpt lat="41.354178143665195" lon="1.362913129851222">
        <ele>308</ele>
        <time>2018-12-29T09:38:33Z</time>
      </trkpt>
      <trkpt lat="41.35422533378005" lon="1.36292620562017">
        <ele>308</ele>
        <time>2018-12-29T09:38:34Z</time>
      </trkpt>
      <trkpt lat="41.354272104799747" lon="1.362938527017832">
        <ele>308</ele>
        <time>2018-12-29T09:38:35Z</time>
      </trkpt>
      <trkpt lat="41.354362964630127" lon="1.362959565594792">
        <ele>308.60000610351562</ele>
        <time>2018-12-29T09:38:37Z</time>
      </trkpt>
      <trkpt lat="41.354453070089221" lon="1.362990159541369">
        <ele>309</ele>
        <time>2018-12-29T09:38:39Z</time>
      </trkpt>
      <trkpt lat="41.354545690119267" lon="1.363017065450549">
        <ele>309</ele>
        <time>2018-12-29T09:38:41Z</time>
      </trkpt>
      <trkpt lat="41.354591455310583" lon="1.363030560314655">
        <ele>309</ele>
        <time>2018-12-29T09:38:42Z</time>
      </trkpt>
      <trkpt lat="41.354638980701566" lon="1.363043133169413">
        <ele>309.20001220703125</ele>
        <time>2018-12-29T09:38:43Z</time>
      </trkpt>
      <trkpt lat="41.354731852188706" lon="1.363063585013151">
        <ele>309.20001220703125</ele>
        <time>2018-12-29T09:38:45Z</time>
      </trkpt>
      <trkpt lat="41.354826902970672" lon="1.363091329112649">
        <ele>309.39999389648437</ele>
        <time>2018-12-29T09:38:47Z</time>
      </trkpt>
      <trkpt lat="41.35492455214262" lon="1.36311823502183">
        <ele>309.60000610351562</ele>
        <time>2018-12-29T09:38:49Z</time>
      </trkpt>
      <trkpt lat="41.354974843561649" lon="1.363130053505302">
        <ele>309.60000610351562</ele>
        <time>2018-12-29T09:38:50Z</time>
      </trkpt>
      <trkpt lat="41.355025134980679" lon="1.363145308569074">
        <ele>309.39999389648437</ele>
        <time>2018-12-29T09:38:51Z</time>
      </trkpt>
      <trkpt lat="41.355127226561308" lon="1.363177914172411">
        <ele>309.39999389648437</ele>
        <time>2018-12-29T09:38:53Z</time>
      </trkpt>
      <trkpt lat="41.355229904875159" lon="1.363208340480924">
        <ele>309.20001220703125</ele>
        <time>2018-12-29T09:38:55Z</time>
      </trkpt>
      <trkpt lat="41.355333002284169" lon="1.363234659656882">
        <ele>309.39999389648437</ele>
        <time>2018-12-29T09:38:57Z</time>
      </trkpt>
      <trkpt lat="41.355385640636086" lon="1.363248154520989">
        <ele>309.20001220703125</ele>
        <time>2018-12-29T09:38:58Z</time>
      </trkpt>
      <trkpt lat="41.355439368635416" lon="1.363262655213475">
        <ele>309.20001220703125</ele>
        <time>2018-12-29T09:38:59Z</time>
      </trkpt>
      <trkpt lat="41.355547746643424" lon="1.363280843943358">
        <ele>309</ele>
        <time>2018-12-29T09:39:01Z</time>
      </trkpt>
      <trkpt lat="41.355659728869796" lon="1.363291824236512">
        <ele>309</ele>
        <time>2018-12-29T09:39:03Z</time>
      </trkpt>
      <trkpt lat="41.355772884562612" lon="1.363298697397113">
        <ele>309</ele>
        <time>2018-12-29T09:39:05Z</time>
      </trkpt>
      <trkpt lat="41.355884866788983" lon="1.363295596092939">
        <ele>309</ele>
        <time>2018-12-29T09:39:07Z</time>
      </trkpt>
      <trkpt lat="41.355989724397659" lon="1.363289225846529">
        <ele>309.20001220703125</ele>
        <time>2018-12-29T09:39:09Z</time>
      </trkpt>
      <trkpt lat="41.356089385226369" lon="1.363281682133675">
        <ele>309.39999389648437</ele>
        <time>2018-12-29T09:39:11Z</time>
      </trkpt>
      <trkpt lat="41.356139844283462" lon="1.363278245553374">
        <ele>309.39999389648437</ele>
        <time>2018-12-29T09:39:12Z</time>
      </trkpt>
      <trkpt lat="41.356190973892808" lon="1.363274725154042">
        <ele>309.39999389648437</ele>
        <time>2018-12-29T09:39:13Z</time>
      </trkpt>
      <trkpt lat="41.356295496225357" lon="1.363266091793776">
        <ele>308.79998779296875</ele>
        <time>2018-12-29T09:39:15Z</time>
      </trkpt>
      <trkpt lat="41.356396162882447" lon="1.363260978832841">
        <ele>308.39999389648437</ele>
        <time>2018-12-29T09:39:17Z</time>
      </trkpt>
      <trkpt lat="41.35649892501533" lon="1.36325653642416">
        <ele>308.79998779296875</ele>
        <time>2018-12-29T09:39:19Z</time>
      </trkpt>
      <trkpt lat="41.356602357700467" lon="1.363251591101289">
        <ele>309</ele>
        <time>2018-12-29T09:39:21Z</time>
      </trkpt>
      <trkpt lat="41.356706796213984" lon="1.363249495625496">
        <ele>309</ele>
        <time>2018-12-29T09:39:23Z</time>
      </trkpt>
      <trkpt lat="41.356810983270407" lon="1.363259134814143">
        <ele>309.20001220703125</ele>
        <time>2018-12-29T09:39:25Z</time>
      </trkpt>
      <trkpt lat="41.356912823393941" lon="1.363280927762389">
        <ele>309</ele>
        <time>2018-12-29T09:39:27Z</time>
      </trkpt>
      <trkpt lat="41.35696311481297" lon="1.363294254988432">
        <ele>308.79998779296875</ele>
        <time>2018-12-29T09:39:28Z</time>
      </trkpt>
      <trkpt lat="41.35701441206038" lon="1.363307498395443">
        <ele>308.79998779296875</ele>
        <time>2018-12-29T09:39:29Z</time>
      </trkpt>
      <trkpt lat="41.357117090374231" lon="1.363335996866226">
        <ele>309</ele>
        <time>2018-12-29T09:39:31Z</time>
      </trkpt>
      <trkpt lat="41.357218259945512" lon="1.363367512822151">
        <ele>308.79998779296875</ele>
        <time>2018-12-29T09:39:33Z</time>
      </trkpt>
      <trkpt lat="41.357321357354522" lon="1.363402213901281">
        <ele>309</ele>
        <time>2018-12-29T09:39:35Z</time>
      </trkpt>
      <trkpt lat="41.357373660430312" lon="1.363416211679578">
        <ele>309.20001220703125</ele>
        <time>2018-12-29T09:39:36Z</time>
      </trkpt>
      <trkpt lat="41.357425209134817" lon="1.363429790362716">
        <ele>309.20001220703125</ele>
        <time>2018-12-29T09:39:37Z</time>
      </trkpt>
      <trkpt lat="41.357528306543827" lon="1.363462479785085">
        <ele>309</ele>
        <time>2018-12-29T09:39:39Z</time>
      </trkpt>
      <trkpt lat="41.357628973200917" lon="1.363497264683247">
        <ele>308.79998779296875</ele>
        <time>2018-12-29T09:39:41Z</time>
      </trkpt>
      <trkpt lat="41.357729220762849" lon="1.363528780639172">
        <ele>309</ele>
        <time>2018-12-29T09:39:43Z</time>
      </trkpt>
      <trkpt lat="41.357830809429288" lon="1.363555518910289">
        <ele>309.20001220703125</ele>
        <time>2018-12-29T09:39:45Z</time>
      </trkpt>
      <trkpt lat="41.357883531600237" lon="1.363564236089587">
        <ele>309.20001220703125</ele>
        <time>2018-12-29T09:39:46Z</time>
      </trkpt>
      <trkpt lat="41.357935667037964" lon="1.3635687623173">
        <ele>309</ele>
        <time>2018-12-29T09:39:47Z</time>
      </trkpt>
      <trkpt lat="41.35803859680891" lon="1.363564403727651">
        <ele>309</ele>
        <time>2018-12-29T09:39:49Z</time>
      </trkpt>
      <trkpt lat="41.358139682561159" lon="1.36354923248291">
        <ele>309.20001220703125</ele>
        <time>2018-12-29T09:39:51Z</time>
      </trkpt>
      <trkpt lat="41.35819005779922" lon="1.363539090380073">
        <ele>309.20001220703125</ele>
        <time>2018-12-29T09:39:52Z</time>
      </trkpt>
      <trkpt lat="41.358239511027932" lon="1.363528110086918">
        <ele>309.60000610351562</ele>
        <time>2018-12-29T09:39:53Z</time>
      </trkpt>
      <trkpt lat="41.358286868780851" lon="1.363517884165049">
        <ele>309.79998779296875</ele>
        <time>2018-12-29T09:39:54Z</time>
      </trkpt>
      <trkpt lat="41.358332298696041" lon="1.363508412614465">
        <ele>310</ele>
        <time>2018-12-29T09:39:55Z</time>
      </trkpt>
      <trkpt lat="41.358417458832264" lon="1.36349399574101">
        <ele>310.39999389648437</ele>
        <time>2018-12-29T09:39:57Z</time>
      </trkpt>
      <trkpt lat="41.358500774949789" lon="1.363477986305952">
        <ele>311</ele>
        <time>2018-12-29T09:39:59Z</time>
      </trkpt>
      <trkpt lat="41.358543606474996" lon="1.363468179479241">
        <ele>311.20001220703125</ele>
        <time>2018-12-29T09:40:00Z</time>
      </trkpt>
      <trkpt lat="41.358584761619568" lon="1.363457199186087">
        <ele>311.60000610351562</ele>
        <time>2018-12-29T09:40:01Z</time>
      </trkpt>
      <trkpt lat="41.358669586479664" lon="1.363441860303283">
        <ele>311.60000610351562</ele>
        <time>2018-12-29T09:40:03Z</time>
      </trkpt>
      <trkpt lat="41.358753489330411" lon="1.363429874181747">
        <ele>311.39999389648437</ele>
        <time>2018-12-29T09:40:05Z</time>
      </trkpt>
      <trkpt lat="41.358835296705365" lon="1.363426689058542">
        <ele>311.79998779296875</ele>
        <time>2018-12-29T09:40:07Z</time>
      </trkpt>
      <trkpt lat="41.35887754149735" lon="1.363427946344018">
        <ele>312</ele>
        <time>2018-12-29T09:40:08Z</time>
      </trkpt>
      <trkpt lat="41.358918529003859" lon="1.363432221114636">
        <ele>312</ele>
        <time>2018-12-29T09:40:09Z</time>
      </trkpt>
      <trkpt lat="41.358996564522386" lon="1.363448398187757">
        <ele>312</ele>
        <time>2018-12-29T09:40:11Z</time>
      </trkpt>
      <trkpt lat="41.359066301956773" lon="1.363473208621144">
        <ele>312.79998779296875</ele>
        <time>2018-12-29T09:40:13Z</time>
      </trkpt>
      <trkpt lat="41.359101673588157" lon="1.363490391522646">
        <ele>313.20001220703125</ele>
        <time>2018-12-29T09:40:14Z</time>
      </trkpt>
      <trkpt lat="41.35913603939116" lon="1.363507574424148">
        <ele>313.39999389648438</ele>
        <time>2018-12-29T09:40:15Z</time>
      </trkpt>
      <trkpt lat="41.359199322760105" lon="1.363544203341007">
        <ele>313.79998779296875</ele>
        <time>2018-12-29T09:40:17Z</time>
      </trkpt>
      <trkpt lat="41.359260007739067" lon="1.363585693761706">
        <ele>313.79998779296875</ele>
        <time>2018-12-29T09:40:19Z</time>
      </trkpt>
      <trkpt lat="41.359293283894658" lon="1.36360983364284">
        <ele>313.60000610351562</ele>
        <time>2018-12-29T09:40:20Z</time>
      </trkpt>
      <trkpt lat="41.35932857170701" lon="1.363634392619133">
        <ele>313.79998779296875</ele>
        <time>2018-12-29T09:40:21Z</time>
      </trkpt>
      <trkpt lat="41.359400739893317" lon="1.363678062334657">
        <ele>314.20001220703125</ele>
        <time>2018-12-29T09:40:23Z</time>
      </trkpt>
      <trkpt lat="41.359436949715018" lon="1.363702202215791">
        <ele>314.39999389648437</ele>
        <time>2018-12-29T09:40:24Z</time>
      </trkpt>
      <trkpt lat="41.359473243355751" lon="1.363723743706942">
        <ele>314.60000610351562</ele>
        <time>2018-12-29T09:40:25Z</time>
      </trkpt>
      <trkpt lat="41.359534934163094" lon="1.363765904679894">
        <ele>315.20001220703125</ele>
        <time>2018-12-29T09:40:27Z</time>
      </trkpt>
      <trkpt lat="41.359592517837882" lon="1.363804126158357">
        <ele>315.20001220703125</ele>
        <time>2018-12-29T09:40:29Z</time>
      </trkpt>
      <trkpt lat="41.359652867540717" lon="1.363840671256185">
        <ele>315.60000610351562</ele>
        <time>2018-12-29T09:40:31Z</time>
      </trkpt>
      <trkpt lat="41.359713720157743" lon="1.363867660984397">
        <ele>316.20001220703125</ele>
        <time>2018-12-29T09:40:33Z</time>
      </trkpt>
      <trkpt lat="41.359745236113667" lon="1.363877048715949">
        <ele>316.39999389648438</ele>
        <time>2018-12-29T09:40:34Z</time>
      </trkpt>
      <trkpt lat="41.359779015183449" lon="1.363884173333645">
        <ele>316.79998779296875</ele>
        <time>2018-12-29T09:40:35Z</time>
      </trkpt>
      <trkpt lat="41.359848333522677" lon="1.363886436447501">
        <ele>317.60000610351562</ele>
        <time>2018-12-29T09:40:37Z</time>
      </trkpt>
      <trkpt lat="41.359883369877934" lon="1.363883418962359">
        <ele>317.79998779296875</ele>
        <time>2018-12-29T09:40:38Z</time>
      </trkpt>
      <trkpt lat="41.359917568042874" lon="1.363876797258854">
        <ele>318.20001220703125</ele>
        <time>2018-12-29T09:40:39Z</time>
      </trkpt>
      <trkpt lat="41.359951179474592" lon="1.363865146413446">
        <ele>318.39999389648437</ele>
        <time>2018-12-29T09:40:40Z</time>
      </trkpt>
      <trkpt lat="41.359980348497629" lon="1.363851903006434">
        <ele>318.79998779296875</ele>
        <time>2018-12-29T09:40:41Z</time>
      </trkpt>
      <trkpt lat="41.360034830868244" lon="1.363816531375051">
        <ele>319.60000610351562</ele>
        <time>2018-12-29T09:40:43Z</time>
      </trkpt>
      <trkpt lat="41.360086128115654" lon="1.363779399544001">
        <ele>320</ele>
        <time>2018-12-29T09:40:45Z</time>
      </trkpt>
      <trkpt lat="41.360136168077588" lon="1.363739417865872">
        <ele>320.20001220703125</ele>
        <time>2018-12-29T09:40:47Z</time>
      </trkpt>
      <trkpt lat="41.360161397606134" lon="1.363718127831817">
        <ele>320.39999389648437</ele>
        <time>2018-12-29T09:40:48Z</time>
      </trkpt>
      <trkpt lat="41.360186459496617" lon="1.363697927445173">
        <ele>320.79998779296875</ele>
        <time>2018-12-29T09:40:49Z</time>
      </trkpt>
      <trkpt lat="41.360211437568069" lon="1.363680828362703">
        <ele>321.20001220703125</ele>
        <time>2018-12-29T09:40:50Z</time>
      </trkpt>
      <trkpt lat="41.360235493630171" lon="1.363664316013455">
        <ele>321.39999389648437</ele>
        <time>2018-12-29T09:40:51Z</time>
      </trkpt>
      <trkpt lat="41.360281761735678" lon="1.363627854734659">
        <ele>321.79998779296875</ele>
        <time>2018-12-29T09:40:53Z</time>
      </trkpt>
      <trkpt lat="41.360327610746026" lon="1.363588711246848">
        <ele>322.39999389648438</ele>
        <time>2018-12-29T09:40:55Z</time>
      </trkpt>
      <trkpt lat="41.360350828617811" lon="1.363568678498268">
        <ele>322.79998779296875</ele>
        <time>2018-12-29T09:40:56Z</time>
      </trkpt>
      <trkpt lat="41.360373878851533" lon="1.3635497353971">
        <ele>322.79998779296875</ele>
        <time>2018-12-29T09:40:57Z</time>
      </trkpt>
      <trkpt lat="41.360423332080245" lon="1.363515872508287">
        <ele>323.39999389648437</ele>
        <time>2018-12-29T09:40:59Z</time>
      </trkpt>
      <trkpt lat="41.360449148342013" lon="1.363498773425818">
        <ele>323.79998779296875</ele>
        <time>2018-12-29T09:41:00Z</time>
      </trkpt>
      <trkpt lat="41.360474461689591" lon="1.363481841981411">
        <ele>324.20001220703125</ele>
        <time>2018-12-29T09:41:01Z</time>
      </trkpt>
      <trkpt lat="41.36052324436605" lon="1.363444207236171">
        <ele>324.60000610351562</ele>
        <time>2018-12-29T09:41:03Z</time>
      </trkpt>
      <trkpt lat="41.360564483329654" lon="1.363407829776406">
        <ele>324.79998779296875</ele>
        <time>2018-12-29T09:41:05Z</time>
      </trkpt>
      <trkpt lat="41.360585605725646" lon="1.363388802856207">
        <ele>325</ele>
        <time>2018-12-29T09:41:06Z</time>
      </trkpt>
      <trkpt lat="41.360606225207448" lon="1.363369943574071">
        <ele>325.20001220703125</ele>
        <time>2018-12-29T09:41:07Z</time>
      </trkpt>
      <trkpt lat="41.360649475827813" lon="1.36333717033267">
        <ele>325.79998779296875</ele>
        <time>2018-12-29T09:41:09Z</time>
      </trkpt>
      <trkpt lat="41.360671268776059" lon="1.363322082906961">
        <ele>326</ele>
        <time>2018-12-29T09:41:10Z</time>
      </trkpt>
      <trkpt lat="41.360692558810115" lon="1.363305319100618">
        <ele>326.39999389648437</ele>
        <time>2018-12-29T09:41:11Z</time>
      </trkpt>
      <trkpt lat="41.360737150534987" lon="1.363271791487932">
        <ele>326.60000610351562</ele>
        <time>2018-12-29T09:41:13Z</time>
      </trkpt>
      <trkpt lat="41.36078174225986" lon="1.363237341865897">
        <ele>326.79998779296875</ele>
        <time>2018-12-29T09:41:15Z</time>
      </trkpt>
      <trkpt lat="41.360823735594749" lon="1.363199623301625">
        <ele>327.39999389648437</ele>
        <time>2018-12-29T09:41:17Z</time>
      </trkpt>
      <trkpt lat="41.360861118882895" lon="1.363168777897954">
        <ele>328</ele>
        <time>2018-12-29T09:41:19Z</time>
      </trkpt>
      <trkpt lat="41.36090001091361" lon="1.363136926665902">
        <ele>328.20001220703125</ele>
        <time>2018-12-29T09:41:21Z</time>
      </trkpt>
      <trkpt lat="41.360919121652842" lon="1.363118905574083">
        <ele>328.39999389648437</ele>
        <time>2018-12-29T09:41:22Z</time>
      </trkpt>
      <trkpt lat="41.360937058925629" lon="1.363101052120328">
        <ele>328.39999389648437</ele>
        <time>2018-12-29T09:41:23Z</time>
      </trkpt>
      <trkpt lat="41.360977040603757" lon="1.363067105412483">
        <ele>329.39999389648437</ele>
        <time>2018-12-29T09:41:25Z</time>
      </trkpt>
      <trkpt lat="41.360996905714273" lon="1.363049503415823">
        <ele>329.60000610351562</ele>
        <time>2018-12-29T09:41:26Z</time>
      </trkpt>
      <trkpt lat="41.361017860472202" lon="1.363031398504973">
        <ele>329.60000610351562</ele>
        <time>2018-12-29T09:41:27Z</time>
      </trkpt>
      <trkpt lat="41.361060775816441" lon="1.363000720739365">
        <ele>330</ele>
        <time>2018-12-29T09:41:29Z</time>
      </trkpt>
      <trkpt lat="41.361100254580379" lon="1.362971970811486">
        <ele>330.60000610351562</ele>
        <time>2018-12-29T09:41:31Z</time>
      </trkpt>
      <trkpt lat="41.361118946224451" lon="1.362956548109651">
        <ele>330.79998779296875</ele>
        <time>2018-12-29T09:41:32Z</time>
      </trkpt>
      <trkpt lat="41.361137218773365" lon="1.362939029932022">
        <ele>331</ele>
        <time>2018-12-29T09:41:33Z</time>
      </trkpt>
      <trkpt lat="41.361175272613764" lon="1.362902568653226">
        <ele>331.20001220703125</ele>
        <time>2018-12-29T09:41:35Z</time>
      </trkpt>
      <trkpt lat="41.361218774691224" lon="1.362874154001474">
        <ele>331.60000610351562</ele>
        <time>2018-12-29T09:41:37Z</time>
      </trkpt>
      <trkpt lat="41.361241238191724" lon="1.362859904766083">
        <ele>331.79998779296875</ele>
        <time>2018-12-29T09:41:38Z</time>
      </trkpt>
      <trkpt lat="41.361264120787382" lon="1.362844649702311">
        <ele>332</ele>
        <time>2018-12-29T09:41:39Z</time>
      </trkpt>
      <trkpt lat="41.361313741654158" lon="1.36281824670732">
        <ele>332.39999389648437</ele>
        <time>2018-12-29T09:41:41Z</time>
      </trkpt>
      <trkpt lat="41.361340479925275" lon="1.362809194251895">
        <ele>332.60000610351562</ele>
        <time>2018-12-29T09:41:42Z</time>
      </trkpt>
      <trkpt lat="41.361366715282202" lon="1.362802656367421">
        <ele>332.79998779296875</ele>
        <time>2018-12-29T09:41:43Z</time>
      </trkpt>
      <trkpt lat="41.361419018357992" lon="1.362802656367421">
        <ele>333.20001220703125</ele>
        <time>2018-12-29T09:41:45Z</time>
      </trkpt>
      <trkpt lat="41.361471740528941" lon="1.362815732136369">
        <ele>333.60000610351562</ele>
        <time>2018-12-29T09:41:47Z</time>
      </trkpt>
      <trkpt lat="41.361497137695551" lon="1.362824197858572">
        <ele>334</ele>
        <time>2018-12-29T09:41:48Z</time>
      </trkpt>
      <trkpt lat="41.361523875966668" lon="1.362834256142378">
        <ele>334</ele>
        <time>2018-12-29T09:41:49Z</time>
      </trkpt>
      <trkpt lat="41.361582046374679" lon="1.362856300547719">
        <ele>334</ele>
        <time>2018-12-29T09:41:51Z</time>
      </trkpt>
      <trkpt lat="41.36164122261107" lon="1.362882452085614">
        <ele>334.20001220703125</ele>
        <time>2018-12-29T09:41:53Z</time>
      </trkpt>
      <trkpt lat="41.361701991409063" lon="1.362909944728017">
        <ele>334.39999389648437</ele>
        <time>2018-12-29T09:41:55Z</time>
      </trkpt>
      <trkpt lat="41.361765442416072" lon="1.36294037103653">
        <ele>334.60000610351562</ele>
        <time>2018-12-29T09:41:57Z</time>
      </trkpt>
      <trkpt lat="41.36182738468051" lon="1.36296627111733">
        <ele>335</ele>
        <time>2018-12-29T09:41:59Z</time>
      </trkpt>
      <trkpt lat="41.361858984455466" lon="1.362979346886277">
        <ele>335</ele>
        <time>2018-12-29T09:42:00Z</time>
      </trkpt>
      <trkpt lat="41.361889829859138" lon="1.362993344664574">
        <ele>335.20001220703125</ele>
        <time>2018-12-29T09:42:01Z</time>
      </trkpt>
      <trkpt lat="41.361951436847448" lon="1.36301907710731">
        <ele>335.39999389648437</ele>
        <time>2018-12-29T09:42:03Z</time>
      </trkpt>
      <trkpt lat="41.362013043835759" lon="1.363046988844872">
        <ele>335.79998779296875</ele>
        <time>2018-12-29T09:42:05Z</time>
      </trkpt>
      <trkpt lat="41.36207708157599" lon="1.363082444295287">
        <ele>336</ele>
        <time>2018-12-29T09:42:07Z</time>
      </trkpt>
      <trkpt lat="41.362141286954284" lon="1.363114546984434">
        <ele>336.20001220703125</ele>
        <time>2018-12-29T09:42:09Z</time>
      </trkpt>
      <trkpt lat="41.362207503989339" lon="1.363141536712647">
        <ele>336.60000610351562</ele>
        <time>2018-12-29T09:42:11Z</time>
      </trkpt>
      <trkpt lat="41.362272463738918" lon="1.363168694078922">
        <ele>337</ele>
        <time>2018-12-29T09:42:13Z</time>
      </trkpt>
      <trkpt lat="41.362302470952272" lon="1.363181015476584">
        <ele>337.20001220703125</ele>
        <time>2018-12-29T09:42:14Z</time>
      </trkpt>
      <trkpt lat="41.362332813441753" lon="1.3631940074265">
        <ele>337.60000610351562</ele>
        <time>2018-12-29T09:42:15Z</time>
      </trkpt>
      <trkpt lat="41.362389475107193" lon="1.363219069316983">
        <ele>337.60000610351562</ele>
        <time>2018-12-29T09:42:17Z</time>
      </trkpt>
      <trkpt lat="41.36244454421103" lon="1.363247483968735">
        <ele>338</ele>
        <time>2018-12-29T09:42:19Z</time>
      </trkpt>
      <trkpt lat="41.362501457333565" lon="1.363278916105628">
        <ele>338.20001220703125</ele>
        <time>2018-12-29T09:42:21Z</time>
      </trkpt>
      <trkpt lat="41.362531548365951" lon="1.36329366825521">
        <ele>338.39999389648437</ele>
        <time>2018-12-29T09:42:22Z</time>
      </trkpt>
      <trkpt lat="41.362563399598002" lon="1.363308001309633">
        <ele>338.39999389648437</ele>
        <time>2018-12-29T09:42:23Z</time>
      </trkpt>
      <trkpt lat="41.362627018243074" lon="1.363337337970734">
        <ele>338.60000610351562</ele>
        <time>2018-12-29T09:42:25Z</time>
      </trkpt>
      <trkpt lat="41.36269080452621" lon="1.363368770107627">
        <ele>338.79998779296875</ele>
        <time>2018-12-29T09:42:27Z</time>
      </trkpt>
      <trkpt lat="41.36275484226644" lon="1.363401627168059">
        <ele>339</ele>
        <time>2018-12-29T09:42:29Z</time>
      </trkpt>
      <trkpt lat="41.362817706540227" lon="1.363433226943016">
        <ele>339.20001220703125</ele>
        <time>2018-12-29T09:42:31Z</time>
      </trkpt>
      <trkpt lat="41.362884175032377" lon="1.363462060689926">
        <ele>339.39999389648438</ele>
        <time>2018-12-29T09:42:33Z</time>
      </trkpt>
      <trkpt lat="41.362916780635715" lon="1.363477231934667">
        <ele>339.79998779296875</ele>
        <time>2018-12-29T09:42:34Z</time>
      </trkpt>
      <trkpt lat="41.362950056791306" lon="1.3634910620749">
        <ele>340</ele>
        <time>2018-12-29T09:42:35Z</time>
      </trkpt>
      <trkpt lat="41.363014681264758" lon="1.363522913306952">
        <ele>340.39999389648437</ele>
        <time>2018-12-29T09:42:37Z</time>
      </trkpt>
      <trkpt lat="41.363047203049064" lon="1.363538922742009">
        <ele>340.60000610351562</ele>
        <time>2018-12-29T09:42:38Z</time>
      </trkpt>
      <trkpt lat="41.36308022774756" lon="1.363554764539003">
        <ele>340.60000610351562</ele>
        <time>2018-12-29T09:42:39Z</time>
      </trkpt>
      <trkpt lat="41.363148288801312" lon="1.363585777580738">
        <ele>340.79998779296875</ele>
        <time>2018-12-29T09:42:41Z</time>
      </trkpt>
      <trkpt lat="41.363214505836368" lon="1.363614946603775">
        <ele>341</ele>
        <time>2018-12-29T09:42:43Z</time>
      </trkpt>
      <trkpt lat="41.363283740356565" lon="1.363643361255527">
        <ele>341.39999389648437</ele>
        <time>2018-12-29T09:42:45Z</time>
      </trkpt>
      <trkpt lat="41.363352471962571" lon="1.363673033192754">
        <ele>341.60000610351562</ele>
        <time>2018-12-29T09:42:47Z</time>
      </trkpt>
      <trkpt lat="41.363418521359563" lon="1.363705722615123">
        <ele>341.79998779296875</ele>
        <time>2018-12-29T09:42:49Z</time>
      </trkpt>
      <trkpt lat="41.363482642918825" lon="1.363736316561699">
        <ele>342</ele>
        <time>2018-12-29T09:42:51Z</time>
      </trkpt>
      <trkpt lat="41.363514829427004" lon="1.363751236349344">
        <ele>342</ele>
        <time>2018-12-29T09:42:52Z</time>
      </trkpt>
      <trkpt lat="41.363547518849373" lon="1.363767664879561">
        <ele>342</ele>
        <time>2018-12-29T09:42:53Z</time>
      </trkpt>
      <trkpt lat="41.363612478598952" lon="1.363799097016454">
        <ele>342</ele>
        <time>2018-12-29T09:42:55Z</time>
      </trkpt>
      <trkpt lat="41.36368372477591" lon="1.363829523324966">
        <ele>342.39999389648437</ele>
        <time>2018-12-29T09:42:57Z</time>
      </trkpt>
      <trkpt lat="41.363721275702119" lon="1.363845951855183">
        <ele>342.60000610351562</ele>
        <time>2018-12-29T09:42:58Z</time>
      </trkpt>
      <trkpt lat="41.363759580999613" lon="1.363863386213779">
        <ele>342.79998779296875</ele>
        <time>2018-12-29T09:42:59Z</time>
      </trkpt>
      <trkpt lat="41.363838706165552" lon="1.363897668197751">
        <ele>342.79998779296875</ele>
        <time>2018-12-29T09:43:01Z</time>
      </trkpt>
      <trkpt lat="41.363916154950857" lon="1.36392985470593">
        <ele>342.79998779296875</ele>
        <time>2018-12-29T09:43:03Z</time>
      </trkpt>
      <trkpt lat="41.363990921527147" lon="1.363966399803758">
        <ele>343</ele>
        <time>2018-12-29T09:43:05Z</time>
      </trkpt>
      <trkpt lat="41.364068118855357" lon="1.36399875395">
        <ele>343.20001220703125</ele>
        <time>2018-12-29T09:43:07Z</time>
      </trkpt>
      <trkpt lat="41.364150429144502" lon="1.364033706486225">
        <ele>343</ele>
        <time>2018-12-29T09:43:09Z</time>
      </trkpt>
      <trkpt lat="41.364192254841328" lon="1.364046446979046">
        <ele>342.79998779296875</ele>
        <time>2018-12-29T09:43:10Z</time>
      </trkpt>
      <trkpt lat="41.364232739433646" lon="1.364059606567025">
        <ele>343</ele>
        <time>2018-12-29T09:43:11Z</time>
      </trkpt>
      <trkpt lat="41.364302225410938" lon="1.364095062017441">
        <ele>343</ele>
        <time>2018-12-29T09:43:13Z</time>
      </trkpt>
      <trkpt lat="41.364367185160518" lon="1.364130349829793">
        <ele>342.79998779296875</ele>
        <time>2018-12-29T09:43:15Z</time>
      </trkpt>
      <trkpt lat="41.364398030564189" lon="1.364146443083882">
        <ele>342.79998779296875</ele>
        <time>2018-12-29T09:43:16Z</time>
      </trkpt>
      <trkpt lat="41.364428289234638" lon="1.364159267395735">
        <ele>343</ele>
        <time>2018-12-29T09:43:17Z</time>
      </trkpt>
      <trkpt lat="41.3644889742136" lon="1.36418541893363">
        <ele>343</ele>
        <time>2018-12-29T09:43:19Z</time>
      </trkpt>
      <trkpt lat="41.364556616172194" lon="1.364218946546316">
        <ele>342.60000610351562</ele>
        <time>2018-12-29T09:43:21Z</time>
      </trkpt>
      <trkpt lat="41.364592742174864" lon="1.364236045628786">
        <ele>342.79998779296875</ele>
        <time>2018-12-29T09:43:22Z</time>
      </trkpt>
      <trkpt lat="41.364628784358501" lon="1.36425331234932">
        <ele>342.79998779296875</ele>
        <time>2018-12-29T09:43:23Z</time>
      </trkpt>
      <trkpt lat="41.364703131839633" lon="1.364284912124276">
        <ele>342.79998779296875</ele>
        <time>2018-12-29T09:43:25Z</time>
      </trkpt>
      <trkpt lat="41.364778066053987" lon="1.364318020641804">
        <ele>342.20001220703125</ele>
        <time>2018-12-29T09:43:27Z</time>
      </trkpt>
      <trkpt lat="41.364852078258991" lon="1.364346100017428">
        <ele>342.39999389648437</ele>
        <time>2018-12-29T09:43:29Z</time>
      </trkpt>
      <trkpt lat="41.364928605034947" lon="1.364372670650482">
        <ele>342.60000610351562</ele>
        <time>2018-12-29T09:43:31Z</time>
      </trkpt>
      <trkpt lat="41.365004628896713" lon="1.364386584609747">
        <ele>342.60000610351562</ele>
        <time>2018-12-29T09:43:33Z</time>
      </trkpt>
      <trkpt lat="41.365084256976843" lon="1.364388344809413">
        <ele>342.39999389648437</ele>
        <time>2018-12-29T09:43:35Z</time>
      </trkpt>
      <trkpt lat="41.365126417949796" lon="1.364383231848478">
        <ele>342.79998779296875</ele>
        <time>2018-12-29T09:43:36Z</time>
      </trkpt>
      <trkpt lat="41.365167070180178" lon="1.364372922107577">
        <ele>342.60000610351562</ele>
        <time>2018-12-29T09:43:37Z</time>
      </trkpt>
      <trkpt lat="41.365204621106386" lon="1.364358169957995">
        <ele>342.60000610351562</ele>
        <time>2018-12-29T09:43:38Z</time>
      </trkpt>
      <trkpt lat="41.365243261680007" lon="1.364344591274858">
        <ele>342.39999389648437</ele>
        <time>2018-12-29T09:43:39Z</time>
      </trkpt>
      <trkpt lat="41.36532012373209" lon="1.364327659830451">
        <ele>342.20001220703125</ele>
        <time>2018-12-29T09:43:41Z</time>
      </trkpt>
      <trkpt lat="41.365404864773154" lon="1.364302681759">
        <ele>342.60000610351562</ele>
        <time>2018-12-29T09:43:43Z</time>
      </trkpt>
      <trkpt lat="41.365448366850615" lon="1.364283571019769">
        <ele>342.79998779296875</ele>
        <time>2018-12-29T09:43:44Z</time>
      </trkpt>
      <trkpt lat="41.365493796765804" lon="1.364263873547316">
        <ele>343</ele>
        <time>2018-12-29T09:43:45Z</time>
      </trkpt>
      <trkpt lat="41.365585997700691" lon="1.364219281822443">
        <ele>342.79998779296875</ele>
        <time>2018-12-29T09:43:47Z</time>
      </trkpt>
      <trkpt lat="41.365679875016212" lon="1.36417125351727">
        <ele>342.39999389648437</ele>
        <time>2018-12-29T09:43:49Z</time>
      </trkpt>
      <trkpt lat="41.365773668512702" lon="1.364126997068524">
        <ele>341.79998779296875</ele>
        <time>2018-12-29T09:43:51Z</time>
      </trkpt>
      <trkpt lat="41.365819433704019" lon="1.364108473062515">
        <ele>341.79998779296875</ele>
        <time>2018-12-29T09:43:52Z</time>
      </trkpt>
      <trkpt lat="41.365863941609859" lon="1.364090368151665">
        <ele>341.60000610351562</ele>
        <time>2018-12-29T09:43:53Z</time>
      </trkpt>
      <trkpt lat="41.365947844460607" lon="1.364052481949329">
        <ele>341.39999389648437</ele>
        <time>2018-12-29T09:43:55Z</time>
      </trkpt>
      <trkpt lat="41.366026047617197" lon="1.364018116146326">
        <ele>341.79998779296875</ele>
        <time>2018-12-29T09:43:57Z</time>
      </trkpt>
      <trkpt lat="41.366101987659931" lon="1.363983582705259">
        <ele>342</ele>
        <time>2018-12-29T09:43:59Z</time>
      </trkpt>
      <trkpt lat="41.366182956844568" lon="1.363954497501254">
        <ele>342.20001220703125</ele>
        <time>2018-12-29T09:44:01Z</time>
      </trkpt>
      <trkpt lat="41.366265015676618" lon="1.363918287679553">
        <ele>341.79998779296875</ele>
        <time>2018-12-29T09:44:03Z</time>
      </trkpt>
      <trkpt lat="41.366345984861255" lon="1.363881155848503">
        <ele>341.79998779296875</ele>
        <time>2018-12-29T09:44:05Z</time>
      </trkpt>
      <trkpt lat="41.366428211331367" lon="1.363838324323297">
        <ele>341.79998779296875</ele>
        <time>2018-12-29T09:44:07Z</time>
      </trkpt>
      <trkpt lat="41.366510940715671" lon="1.363803707063198">
        <ele>341.79998779296875</ele>
        <time>2018-12-29T09:44:09Z</time>
      </trkpt>
      <trkpt lat="41.366598615422845" lon="1.363775124773383">
        <ele>342.20001220703125</ele>
        <time>2018-12-29T09:44:11Z</time>
      </trkpt>
      <trkpt lat="41.366689139977098" lon="1.363746877759695">
        <ele>342.20001220703125</ele>
        <time>2018-12-29T09:44:13Z</time>
      </trkpt>
      <trkpt lat="41.366785867139697" lon="1.363729694858193">
        <ele>342</ele>
        <time>2018-12-29T09:44:15Z</time>
      </trkpt>
      <trkpt lat="41.366835068911314" lon="1.363723743706942">
        <ele>342</ele>
        <time>2018-12-29T09:44:16Z</time>
      </trkpt>
      <trkpt lat="41.366884522140026" lon="1.363719133660197">
        <ele>341.79998779296875</ele>
        <time>2018-12-29T09:44:17Z</time>
      </trkpt>
      <trkpt lat="41.366985021159053" lon="1.363723073154688">
        <ele>341.60000610351562</ele>
        <time>2018-12-29T09:44:19Z</time>
      </trkpt>
      <trkpt lat="41.367084849625826" lon="1.363729275763035">
        <ele>341.79998779296875</ele>
        <time>2018-12-29T09:44:21Z</time>
      </trkpt>
      <trkpt lat="41.367183588445187" lon="1.363736651837826">
        <ele>342.20001220703125</ele>
        <time>2018-12-29T09:44:23Z</time>
      </trkpt>
      <trkpt lat="41.367279309779406" lon="1.363751403987408">
        <ele>342</ele>
        <time>2018-12-29T09:44:25Z</time>
      </trkpt>
      <trkpt lat="41.367327840998769" lon="1.363755343481898">
        <ele>341.79998779296875</ele>
        <time>2018-12-29T09:44:26Z</time>
      </trkpt>
      <trkpt lat="41.367376120761037" lon="1.363754840567708">
        <ele>342</ele>
        <time>2018-12-29T09:44:27Z</time>
      </trkpt>
      <trkpt lat="41.367471758276224" lon="1.363758444786072">
        <ele>342.39999389648437</ele>
        <time>2018-12-29T09:44:29Z</time>
      </trkpt>
      <trkpt lat="41.36756488122046" lon="1.363758612424135">
        <ele>342.60000610351562</ele>
        <time>2018-12-29T09:44:31Z</time>
      </trkpt>
      <trkpt lat="41.367657668888569" lon="1.36376716196537">
        <ele>342.60000610351562</ele>
        <time>2018-12-29T09:44:33Z</time>
      </trkpt>
      <trkpt lat="41.367752300575376" lon="1.363776465877891">
        <ele>342.60000610351562</ele>
        <time>2018-12-29T09:44:35Z</time>
      </trkpt>
      <trkpt lat="41.367799993604422" lon="1.363782333210111">
        <ele>342.39999389648437</ele>
        <time>2018-12-29T09:44:36Z</time>
      </trkpt>
      <trkpt lat="41.367847686633468" lon="1.363785853609443">
        <ele>342.20001220703125</ele>
        <time>2018-12-29T09:44:37Z</time>
      </trkpt>
      <trkpt lat="41.367945671081543" lon="1.363783506676555">
        <ele>341.60000610351562</ele>
        <time>2018-12-29T09:44:39Z</time>
      </trkpt>
      <trkpt lat="41.368046505376697" lon="1.36378426104784">
        <ele>341.20001220703125</ele>
        <time>2018-12-29T09:44:41Z</time>
      </trkpt>
      <trkpt lat="41.368146417662501" lon="1.363788954913616">
        <ele>340.79998779296875</ele>
        <time>2018-12-29T09:44:43Z</time>
      </trkpt>
      <trkpt lat="41.36824750341475" lon="1.363798594102264">
        <ele>340.60000610351562</ele>
        <time>2018-12-29T09:44:45Z</time>
      </trkpt>
      <trkpt lat="41.368348672986031" lon="1.363802533596754">
        <ele>340.20001220703125</ele>
        <time>2018-12-29T09:44:47Z</time>
      </trkpt>
      <trkpt lat="41.368449255824089" lon="1.363806556910276">
        <ele>339.39999389648438</ele>
        <time>2018-12-29T09:44:49Z</time>
      </trkpt>
      <trkpt lat="41.36855193413794" lon="1.363806892186403">
        <ele>339.39999389648438</ele>
        <time>2018-12-29T09:44:51Z</time>
      </trkpt>
      <trkpt lat="41.36865695938468" lon="1.363810747861862">
        <ele>339.20001220703125</ele>
        <time>2018-12-29T09:44:53Z</time>
      </trkpt>
      <trkpt lat="41.368766594678164" lon="1.363821476697922">
        <ele>339</ele>
        <time>2018-12-29T09:44:55Z</time>
      </trkpt>
      <trkpt lat="41.368873883038759" lon="1.363828685134649">
        <ele>338.39999389648437</ele>
        <time>2018-12-29T09:44:57Z</time>
      </trkpt>
      <trkpt lat="41.368974968791008" lon="1.363832792267203">
        <ele>338.20001220703125</ele>
        <time>2018-12-29T09:44:59Z</time>
      </trkpt>
      <trkpt lat="41.369074629619718" lon="1.363838240504265">
        <ele>338.20001220703125</ele>
        <time>2018-12-29T09:45:01Z</time>
      </trkpt>
      <trkpt lat="41.369174709543586" lon="1.363842682912946">
        <ele>338.39999389648437</ele>
        <time>2018-12-29T09:45:03Z</time>
      </trkpt>
      <trkpt lat="41.369272023439407" lon="1.363848298788071">
        <ele>338.60000610351562</ele>
        <time>2018-12-29T09:45:05Z</time>
      </trkpt>
      <trkpt lat="41.369367996230721" lon="1.363858859986067">
        <ele>338.20001220703125</ele>
        <time>2018-12-29T09:45:07Z</time>
      </trkpt>
      <trkpt lat="41.369463382288814" lon="1.363866738975048">
        <ele>338</ele>
        <time>2018-12-29T09:45:09Z</time>
      </trkpt>
      <trkpt lat="41.369557762518525" lon="1.363872103393078">
        <ele>337.79998779296875</ele>
        <time>2018-12-29T09:45:11Z</time>
      </trkpt>
      <trkpt lat="41.369653483852744" lon="1.363877886906266">
        <ele>337.79998779296875</ele>
        <time>2018-12-29T09:45:13Z</time>
      </trkpt>
      <trkpt lat="41.369749624282122" lon="1.363884257152677">
        <ele>338</ele>
        <time>2018-12-29T09:45:15Z</time>
      </trkpt>
      <trkpt lat="41.369799077510834" lon="1.363886771723628">
        <ele>338</ele>
        <time>2018-12-29T09:45:16Z</time>
      </trkpt>
      <trkpt lat="41.369848195463419" lon="1.363888448104262">
        <ele>338</ele>
        <time>2018-12-29T09:45:17Z</time>
      </trkpt>
      <trkpt lat="41.369945593178272" lon="1.363899009302259">
        <ele>338.39999389648437</ele>
        <time>2018-12-29T09:45:19Z</time>
      </trkpt>
      <trkpt lat="41.370041314512491" lon="1.363902864977717">
        <ele>338.60000610351562</ele>
        <time>2018-12-29T09:45:21Z</time>
      </trkpt>
      <trkpt lat="41.370136868208647" lon="1.363908145576716">
        <ele>338.60000610351562</ele>
        <time>2018-12-29T09:45:23Z</time>
      </trkpt>
      <trkpt lat="41.370232421904802" lon="1.363910241052508">
        <ele>338.39999389648437</ele>
        <time>2018-12-29T09:45:25Z</time>
      </trkpt>
      <trkpt lat="41.370326047763228" lon="1.363912001252174">
        <ele>338.20001220703125</ele>
        <time>2018-12-29T09:45:27Z</time>
      </trkpt>
      <trkpt lat="41.37041506357491" lon="1.363914012908936">
        <ele>338.39999389648437</ele>
        <time>2018-12-29T09:45:29Z</time>
      </trkpt>
      <trkpt lat="41.370504833757877" lon="1.36392692103982">
        <ele>338.60000610351562</ele>
        <time>2018-12-29T09:45:31Z</time>
      </trkpt>
      <trkpt lat="41.370589407160878" lon="1.363937901332974">
        <ele>339</ele>
        <time>2018-12-29T09:45:33Z</time>
      </trkpt>
      <trkpt lat="41.370631819590926" lon="1.36394158937037">
        <ele>338.79998779296875</ele>
        <time>2018-12-29T09:45:34Z</time>
      </trkpt>
      <trkpt lat="41.370675070211291" lon="1.363942930474877">
        <ele>338.60000610351562</ele>
        <time>2018-12-29T09:45:35Z</time>
      </trkpt>
      <trkpt lat="41.370758386328816" lon="1.363941673189402">
        <ele>338.39999389648437</ele>
        <time>2018-12-29T09:45:37Z</time>
      </trkpt>
      <trkpt lat="41.370800966396928" lon="1.363946031779051">
        <ele>338.79998779296875</ele>
        <time>2018-12-29T09:45:38Z</time>
      </trkpt>
      <trkpt lat="41.3708421215415" lon="1.363950222730637">
        <ele>338.79998779296875</ele>
        <time>2018-12-29T09:45:39Z</time>
      </trkpt>
      <trkpt lat="41.37092568911612" lon="1.363956173881888">
        <ele>338.60000610351562</ele>
        <time>2018-12-29T09:45:41Z</time>
      </trkpt>
      <trkpt lat="41.371011771261692" lon="1.36395969428122">
        <ele>339.20001220703125</ele>
        <time>2018-12-29T09:45:43Z</time>
      </trkpt>
      <trkpt lat="41.371099697425961" lon="1.363963717594743">
        <ele>339.20001220703125</ele>
        <time>2018-12-29T09:45:45Z</time>
      </trkpt>
      <trkpt lat="41.371190054342151" lon="1.363970255479217">
        <ele>339.60000610351562</ele>
        <time>2018-12-29T09:45:47Z</time>
      </trkpt>
      <trkpt lat="41.371278399601579" lon="1.363977883011103">
        <ele>340.20001220703125</ele>
        <time>2018-12-29T09:45:49Z</time>
      </trkpt>
      <trkpt lat="41.371321734040976" lon="1.363978972658515">
        <ele>340</ele>
        <time>2018-12-29T09:45:50Z</time>
      </trkpt>
      <trkpt lat="41.371366074308753" lon="1.363978553563356">
        <ele>339.79998779296875</ele>
        <time>2018-12-29T09:45:51Z</time>
      </trkpt>
      <trkpt lat="41.371451234444976" lon="1.363980649039149">
        <ele>340</ele>
        <time>2018-12-29T09:45:53Z</time>
      </trkpt>
      <trkpt lat="41.371536143124104" lon="1.363991545513272">
        <ele>340.60000610351562</ele>
        <time>2018-12-29T09:45:55Z</time>
      </trkpt>
      <trkpt lat="41.371620297431946" lon="1.363997748121619">
        <ele>340.39999389648437</ele>
        <time>2018-12-29T09:45:57Z</time>
      </trkpt>
      <trkpt lat="41.371705960482359" lon="1.363998167216778">
        <ele>340.39999389648437</ele>
        <time>2018-12-29T09:45:59Z</time>
      </trkpt>
      <trkpt lat="41.371789779514074" lon="1.364001519978046">
        <ele>340.79998779296875</ele>
        <time>2018-12-29T09:46:01Z</time>
      </trkpt>
      <trkpt lat="41.371871838346124" lon="1.364001771435142">
        <ele>341.39999389648437</ele>
        <time>2018-12-29T09:46:03Z</time>
      </trkpt>
      <trkpt lat="41.371953813359141" lon="1.364007638767362">
        <ele>341.60000610351562</ele>
        <time>2018-12-29T09:46:05Z</time>
      </trkpt>
      <trkpt lat="41.372039308771491" lon="1.364019373431802">
        <ele>341.60000610351562</ele>
        <time>2018-12-29T09:46:07Z</time>
      </trkpt>
      <trkpt lat="41.37208130210638" lon="1.36402272619307">
        <ele>341.39999389648437</ele>
        <time>2018-12-29T09:46:08Z</time>
      </trkpt>
      <trkpt lat="41.372124217450619" lon="1.364023396745324">
        <ele>341.39999389648437</ele>
        <time>2018-12-29T09:46:09Z</time>
      </trkpt>
      <trkpt lat="41.372208120301366" lon="1.364021049812436">
        <ele>341.20001220703125</ele>
        <time>2018-12-29T09:46:11Z</time>
      </trkpt>
      <trkpt lat="41.372292945161462" lon="1.364023732021451">
        <ele>341.39999389648437</ele>
        <time>2018-12-29T09:46:13Z</time>
      </trkpt>
      <trkpt lat="41.372373746708035" lon="1.364032113924623">
        <ele>341.39999389648437</ele>
        <time>2018-12-29T09:46:15Z</time>
      </trkpt>
      <trkpt lat="41.372453793883324" lon="1.364038232713938">
        <ele>341.60000610351562</ele>
        <time>2018-12-29T09:46:17Z</time>
      </trkpt>
      <trkpt lat="41.372494446113706" lon="1.364041836932302">
        <ele>342</ele>
        <time>2018-12-29T09:46:18Z</time>
      </trkpt>
      <trkpt lat="41.37253719381988" lon="1.364041920751333">
        <ele>342</ele>
        <time>2018-12-29T09:46:19Z</time>
      </trkpt>
      <trkpt lat="41.372623695060611" lon="1.364045524969697">
        <ele>342</ele>
        <time>2018-12-29T09:46:21Z</time>
      </trkpt>
      <trkpt lat="41.372710950672626" lon="1.364045860245824">
        <ele>342</ele>
        <time>2018-12-29T09:46:23Z</time>
      </trkpt>
      <trkpt lat="41.372754536569118" lon="1.364046698436141">
        <ele>342</ele>
        <time>2018-12-29T09:46:24Z</time>
      </trkpt>
      <trkpt lat="41.372797451913357" lon="1.364049883559346">
        <ele>342</ele>
        <time>2018-12-29T09:46:25Z</time>
      </trkpt>
      <trkpt lat="41.372880851849914" lon="1.36406128294766">
        <ele>341.79998779296875</ele>
        <time>2018-12-29T09:46:27Z</time>
      </trkpt>
      <trkpt lat="41.37296861037612" lon="1.364066563546658">
        <ele>341.79998779296875</ele>
        <time>2018-12-29T09:46:29Z</time>
      </trkpt>
      <trkpt lat="41.373060559853911" lon="1.364071341231465">
        <ele>341.79998779296875</ele>
        <time>2018-12-29T09:46:31Z</time>
      </trkpt>
      <trkpt lat="41.373106995597482" lon="1.364074191078544">
        <ele>342</ele>
        <time>2018-12-29T09:46:32Z</time>
      </trkpt>
      <trkpt lat="41.373153766617179" lon="1.364075113087893">
        <ele>341.79998779296875</ele>
        <time>2018-12-29T09:46:33Z</time>
      </trkpt>
      <trkpt lat="41.373245296999812" lon="1.364078130573034">
        <ele>342</ele>
        <time>2018-12-29T09:46:35Z</time>
      </trkpt>
      <trkpt lat="41.373333474621177" lon="1.364079723134637">
        <ele>342</ele>
        <time>2018-12-29T09:46:37Z</time>
      </trkpt>
      <trkpt lat="41.37341913767159" lon="1.364087853580713">
        <ele>342.60000610351562</ele>
        <time>2018-12-29T09:46:39Z</time>
      </trkpt>
      <trkpt lat="41.373462723568082" lon="1.364091206341982">
        <ele>342.60000610351562</ele>
        <time>2018-12-29T09:46:40Z</time>
      </trkpt>
      <trkpt lat="41.373505806550384" lon="1.364091625437141">
        <ele>342.39999389648437</ele>
        <time>2018-12-29T09:46:41Z</time>
      </trkpt>
      <trkpt lat="41.373594990000129" lon="1.364094642922282">
        <ele>342.60000610351562</ele>
        <time>2018-12-29T09:46:43Z</time>
      </trkpt>
      <trkpt lat="41.373686688020825" lon="1.364097911864519">
        <ele>342.39999389648437</ele>
        <time>2018-12-29T09:46:45Z</time>
      </trkpt>
      <trkpt lat="41.373779475688934" lon="1.364099252969027">
        <ele>342.39999389648437</ele>
        <time>2018-12-29T09:46:47Z</time>
      </trkpt>
      <trkpt lat="41.373875448480248" lon="1.36410285718739">
        <ele>342.39999389648437</ele>
        <time>2018-12-29T09:46:49Z</time>
      </trkpt>
      <trkpt lat="41.373978294432163" lon="1.364105707034469">
        <ele>342</ele>
        <time>2018-12-29T09:46:51Z</time>
      </trkpt>
      <trkpt lat="41.374086756259203" lon="1.364108808338642">
        <ele>341.39999389648437</ele>
        <time>2018-12-29T09:46:53Z</time>
      </trkpt>
      <trkpt lat="41.374200833961368" lon="1.364108808338642">
        <ele>341.20001220703125</ele>
        <time>2018-12-29T09:46:55Z</time>
      </trkpt>
      <trkpt lat="41.374260010197759" lon="1.36410822160542">
        <ele>341</ele>
        <time>2018-12-29T09:46:56Z</time>
      </trkpt>
      <trkpt lat="41.374320862814784" lon="1.364109562709928">
        <ele>340.60000610351562</ele>
        <time>2018-12-29T09:46:57Z</time>
      </trkpt>
      <trkpt lat="41.374444663524628" lon="1.364106293767691">
        <ele>339.79998779296875</ele>
        <time>2018-12-29T09:46:59Z</time>
      </trkpt>
      <trkpt lat="41.374567374587059" lon="1.364108473062515">
        <ele>339.20001220703125</ele>
        <time>2018-12-29T09:47:01Z</time>
      </trkpt>
      <trkpt lat="41.374633088707924" lon="1.364112161099911">
        <ele>338.39999389648437</ele>
        <time>2018-12-29T09:47:02Z</time>
      </trkpt>
      <trkpt lat="41.374702239409089" lon="1.364112915471196">
        <ele>338.20001220703125</ele>
        <time>2018-12-29T09:47:03Z</time>
      </trkpt>
      <trkpt lat="41.374845653772354" lon="1.36410822160542">
        <ele>337</ele>
        <time>2018-12-29T09:47:05Z</time>
      </trkpt>
      <trkpt lat="41.374988649040461" lon="1.364101013168693">
        <ele>336.20001220703125</ele>
        <time>2018-12-29T09:47:07Z</time>
      </trkpt>
      <trkpt lat="41.375061068683863" lon="1.364102102816105">
        <ele>336.39999389648438</ele>
        <time>2018-12-29T09:47:08Z</time>
      </trkpt>
      <trkpt lat="41.375133907422423" lon="1.364102102816105">
        <ele>336.20001220703125</ele>
        <time>2018-12-29T09:47:09Z</time>
      </trkpt>
      <trkpt lat="41.375205321237445" lon="1.364099672064185">
        <ele>336</ele>
        <time>2018-12-29T09:47:10Z</time>
      </trkpt>
      <trkpt lat="41.375275980681181" lon="1.364098330959678">
        <ele>335.39999389648437</ele>
        <time>2018-12-29T09:47:11Z</time>
      </trkpt>
      <trkpt lat="41.37534630484879" lon="1.364099252969027">
        <ele>334.79998779296875</ele>
        <time>2018-12-29T09:47:12Z</time>
      </trkpt>
      <trkpt lat="41.375416293740273" lon="1.364102605730295">
        <ele>334.39999389648437</ele>
        <time>2018-12-29T09:47:13Z</time>
      </trkpt>
      <trkpt lat="41.375550152733922" lon="1.364108053967357">
        <ele>334.39999389648437</ele>
        <time>2018-12-29T09:47:15Z</time>
      </trkpt>
      <trkpt lat="41.375615447759628" lon="1.364108892157674">
        <ele>334.39999389648437</ele>
        <time>2018-12-29T09:47:16Z</time>
      </trkpt>
      <trkpt lat="41.375679317861795" lon="1.364107970148325">
        <ele>334.39999389648437</ele>
        <time>2018-12-29T09:47:17Z</time>
      </trkpt>
      <trkpt lat="41.37580269947648" lon="1.36410721577704">
        <ele>334.20001220703125</ele>
        <time>2018-12-29T09:47:19Z</time>
      </trkpt>
      <trkpt lat="41.37592289596796" lon="1.364109562709928">
        <ele>334.60000610351562</ele>
        <time>2018-12-29T09:47:21Z</time>
      </trkpt>
      <trkpt lat="41.376042170450091" lon="1.364112161099911">
        <ele>335</ele>
        <time>2018-12-29T09:47:23Z</time>
      </trkpt>
      <trkpt lat="41.376163121312857" lon="1.36411358602345">
        <ele>334.79998779296875</ele>
        <time>2018-12-29T09:47:25Z</time>
      </trkpt>
      <trkpt lat="41.376284407451749" lon="1.364116352051497">
        <ele>334.79998779296875</ele>
        <time>2018-12-29T09:47:27Z</time>
      </trkpt>
      <trkpt lat="41.376401083543897" lon="1.364113334566355">
        <ele>335</ele>
        <time>2018-12-29T09:47:29Z</time>
      </trkpt>
      <trkpt lat="41.376508120447397" lon="1.364115346223116">
        <ele>334.60000610351562</ele>
        <time>2018-12-29T09:47:31Z</time>
      </trkpt>
      <trkpt lat="41.376559920608997" lon="1.364116938784719">
        <ele>334.60000610351562</ele>
        <time>2018-12-29T09:47:32Z</time>
      </trkpt>
      <trkpt lat="41.376610714942217" lon="1.364118866622448">
        <ele>335</ele>
        <time>2018-12-29T09:47:33Z</time>
      </trkpt>
      <trkpt lat="41.376713057979941" lon="1.364122722297907">
        <ele>335.60000610351562</ele>
        <time>2018-12-29T09:47:35Z</time>
      </trkpt>
      <trkpt lat="41.376814898103476" lon="1.364123309031129">
        <ele>335.79998779296875</ele>
        <time>2018-12-29T09:47:37Z</time>
      </trkpt>
      <trkpt lat="41.376868123188615" lon="1.364120459184051">
        <ele>336</ele>
        <time>2018-12-29T09:47:38Z</time>
      </trkpt>
      <trkpt lat="41.37691967189312" lon="1.364120207726955">
        <ele>336.20001220703125</ele>
        <time>2018-12-29T09:47:39Z</time>
      </trkpt>
      <trkpt lat="41.376969711855054" lon="1.364120459184051">
        <ele>336.20001220703125</ele>
        <time>2018-12-29T09:47:40Z</time>
      </trkpt>
      <trkpt lat="41.377019332721829" lon="1.364119704812765">
        <ele>336.20001220703125</ele>
        <time>2018-12-29T09:47:41Z</time>
      </trkpt>
      <trkpt lat="41.377118406817317" lon="1.364119788631797">
        <ele>336.39999389648438</ele>
        <time>2018-12-29T09:47:43Z</time>
      </trkpt>
      <trkpt lat="41.377214379608631" lon="1.364120710641146">
        <ele>336.79998779296875</ele>
        <time>2018-12-29T09:47:45Z</time>
      </trkpt>
      <trkpt lat="41.377312112599611" lon="1.364118447527289">
        <ele>337</ele>
        <time>2018-12-29T09:47:47Z</time>
      </trkpt>
      <trkpt lat="41.377361984923482" lon="1.364120962098241">
        <ele>337.20001220703125</ele>
        <time>2018-12-29T09:47:48Z</time>
      </trkpt>
      <trkpt lat="41.377409929409623" lon="1.364121297374368">
        <ele>337.39999389648437</ele>
        <time>2018-12-29T09:47:49Z</time>
      </trkpt>
      <trkpt lat="41.377507327124476" lon="1.364124901592732">
        <ele>336.79998779296875</ele>
        <time>2018-12-29T09:47:51Z</time>
      </trkpt>
      <trkpt lat="41.37755292467773" lon="1.364121632650495">
        <ele>336.79998779296875</ele>
        <time>2018-12-29T09:47:52Z</time>
      </trkpt>
      <trkpt lat="41.377598103135824" lon="1.36411408893764">
        <ele>337.20001220703125</ele>
        <time>2018-12-29T09:47:53Z</time>
      </trkpt>
      <trkpt lat="41.377686867490411" lon="1.364103527739644">
        <ele>337.79998779296875</ele>
        <time>2018-12-29T09:47:55Z</time>
      </trkpt>
      <trkpt lat="41.377728106454015" lon="1.364094391465187">
        <ele>337.60000610351562</ele>
        <time>2018-12-29T09:47:56Z</time>
      </trkpt>
      <trkpt lat="41.377772195264697" lon="1.364081064239144">
        <ele>337.20001220703125</ele>
        <time>2018-12-29T09:47:57Z</time>
      </trkpt>
      <trkpt lat="41.377860205247998" lon="1.364056505262852">
        <ele>337.20001220703125</ele>
        <time>2018-12-29T09:47:59Z</time>
      </trkpt>
      <trkpt lat="41.377948047593236" lon="1.36401928961277">
        <ele>337.60000610351562</ele>
        <time>2018-12-29T09:48:01Z</time>
      </trkpt>
      <trkpt lat="41.37803471647203" lon="1.363977799192071">
        <ele>337.60000610351562</ele>
        <time>2018-12-29T09:48:03Z</time>
      </trkpt>
      <trkpt lat="41.378121050074697" lon="1.363941254094243">
        <ele>337.60000610351562</ele>
        <time>2018-12-29T09:48:05Z</time>
      </trkpt>
      <trkpt lat="41.378211742267013" lon="1.363900937139988">
        <ele>338.20001220703125</ele>
        <time>2018-12-29T09:48:07Z</time>
      </trkpt>
      <trkpt lat="41.378258848562837" lon="1.363878725096583">
        <ele>338.39999389648437</ele>
        <time>2018-12-29T09:48:08Z</time>
      </trkpt>
      <trkpt lat="41.37830494903028" lon="1.363855171948671">
        <ele>338.39999389648437</ele>
        <time>2018-12-29T09:48:09Z</time>
      </trkpt>
      <trkpt lat="41.378391282632947" lon="1.363808233290911">
        <ele>338.60000610351562</ele>
        <time>2018-12-29T09:48:11Z</time>
      </trkpt>
      <trkpt lat="41.378475856035948" lon="1.363753834739327">
        <ele>338.60000610351562</ele>
        <time>2018-12-29T09:48:13Z</time>
      </trkpt>
      <trkpt lat="41.378559172153473" lon="1.363695664331317">
        <ele>338.79998779296875</ele>
        <time>2018-12-29T09:48:15Z</time>
      </trkpt>
      <trkpt lat="41.378645841032267" lon="1.363643612712622">
        <ele>339.20001220703125</ele>
        <time>2018-12-29T09:48:17Z</time>
      </trkpt>
      <trkpt lat="41.3786855712533" lon="1.363611342385411">
        <ele>339.39999389648438</ele>
        <time>2018-12-29T09:48:18Z</time>
      </trkpt>
      <trkpt lat="41.378728402778506" lon="1.363581083714962">
        <ele>339.39999389648438</ele>
        <time>2018-12-29T09:48:19Z</time>
      </trkpt>
      <trkpt lat="41.378811718896031" lon="1.363517045974731">
        <ele>339.39999389648438</ele>
        <time>2018-12-29T09:48:21Z</time>
      </trkpt>
      <trkpt lat="41.378848180174828" lon="1.363481758162379">
        <ele>339.60000610351562</ele>
        <time>2018-12-29T09:48:22Z</time>
      </trkpt>
      <trkpt lat="41.378885312005877" lon="1.363452589139342">
        <ele>339.60000610351562</ele>
        <time>2018-12-29T09:48:23Z</time>
      </trkpt>
      <trkpt lat="41.378919342532754" lon="1.363426940515637">
        <ele>339.60000610351562</ele>
        <time>2018-12-29T09:48:24Z</time>
      </trkpt>
      <trkpt lat="41.378951948136091" lon="1.363397603854537">
        <ele>339.20001220703125</ele>
        <time>2018-12-29T09:48:25Z</time>
      </trkpt>
      <trkpt lat="41.379013387486339" lon="1.363324597477913">
        <ele>339.20001220703125</ele>
        <time>2018-12-29T09:48:27Z</time>
      </trkpt>
      <trkpt lat="41.379073485732079" lon="1.363243795931339">
        <ele>340</ele>
        <time>2018-12-29T09:48:29Z</time>
      </trkpt>
      <trkpt lat="41.379137523472309" lon="1.363163413479924">
        <ele>340.39999389648437</ele>
        <time>2018-12-29T09:48:31Z</time>
      </trkpt>
      <trkpt lat="41.379199801012874" lon="1.363082444295287">
        <ele>340.60000610351562</ele>
        <time>2018-12-29T09:48:33Z</time>
      </trkpt>
      <trkpt lat="41.379263419657946" lon="1.363007929176092">
        <ele>340.79998779296875</ele>
        <time>2018-12-29T09:48:35Z</time>
      </trkpt>
      <trkpt lat="41.379326786845922" lon="1.362933414056897">
        <ele>340.79998779296875</ele>
        <time>2018-12-29T09:48:37Z</time>
      </trkpt>
      <trkpt lat="41.379387639462948" lon="1.362853869795799">
        <ele>341.20001220703125</ele>
        <time>2018-12-29T09:48:39Z</time>
      </trkpt>
      <trkpt lat="41.379446564242244" lon="1.362776169553399">
        <ele>341.20001220703125</ele>
        <time>2018-12-29T09:48:41Z</time>
      </trkpt>
      <trkpt lat="41.379507584497333" lon="1.362706851214171">
        <ele>341.39999389648437</ele>
        <time>2018-12-29T09:48:43Z</time>
      </trkpt>
      <trkpt lat="41.379574807360768" lon="1.362637197598815">
        <ele>341.60000610351562</ele>
        <time>2018-12-29T09:48:45Z</time>
      </trkpt>
      <trkpt lat="41.379608670249581" lon="1.362597551196814">
        <ele>341.79998779296875</ele>
        <time>2018-12-29T09:48:46Z</time>
      </trkpt>
      <trkpt lat="41.379641862586141" lon="1.362556982785463">
        <ele>342</ele>
        <time>2018-12-29T09:48:47Z</time>
      </trkpt>
      <trkpt lat="41.379702296108007" lon="1.362475845962763">
        <ele>342.20001220703125</ele>
        <time>2018-12-29T09:48:49Z</time>
      </trkpt>
      <trkpt lat="41.379771614447236" lon="1.362399570643902">
        <ele>342.39999389648437</ele>
        <time>2018-12-29T09:48:51Z</time>
      </trkpt>
      <trkpt lat="41.379837077111006" lon="1.362325726076961">
        <ele>342.39999389648437</ele>
        <time>2018-12-29T09:48:53Z</time>
      </trkpt>
      <trkpt lat="41.379866832867265" lon="1.362287756055594">
        <ele>342.39999389648437</ele>
        <time>2018-12-29T09:48:54Z</time>
      </trkpt>
      <trkpt lat="41.379894074052572" lon="1.36225095950067">
        <ele>342.39999389648437</ele>
        <time>2018-12-29T09:48:55Z</time>
      </trkpt>
      <trkpt lat="41.379944700747728" lon="1.362174013629556">
        <ele>342.39999389648437</ele>
        <time>2018-12-29T09:48:57Z</time>
      </trkpt>
      <trkpt lat="41.379992393776774" lon="1.362096900120378">
        <ele>342.20001220703125</ele>
        <time>2018-12-29T09:48:59Z</time>
      </trkpt>
      <trkpt lat="41.38004444539547" lon="1.362018613144755">
        <ele>342.20001220703125</ele>
        <time>2018-12-29T09:49:01Z</time>
      </trkpt>
      <trkpt lat="41.380098424851894" lon="1.36194258928299">
        <ele>342.79998779296875</ele>
        <time>2018-12-29T09:49:03Z</time>
      </trkpt>
      <trkpt lat="41.380130108445883" lon="1.361907133832574">
        <ele>343</ele>
        <time>2018-12-29T09:49:04Z</time>
      </trkpt>
      <trkpt lat="41.380161205306649" lon="1.361871259287">
        <ele>342.79998779296875</ele>
        <time>2018-12-29T09:49:05Z</time>
      </trkpt>
      <trkpt lat="41.380226416513324" lon="1.361800096929073">
        <ele>343</ele>
        <time>2018-12-29T09:49:07Z</time>
      </trkpt>
      <trkpt lat="41.38029171153903" lon="1.361727174371481">
        <ele>343.79998779296875</ele>
        <time>2018-12-29T09:49:09Z</time>
      </trkpt>
      <trkpt lat="41.380325742065907" lon="1.361691383644939">
        <ele>344</ele>
        <time>2018-12-29T09:49:10Z</time>
      </trkpt>
      <trkpt lat="41.38036010786891" lon="1.361656347289681">
        <ele>344.20001220703125</ele>
        <time>2018-12-29T09:49:11Z</time>
      </trkpt>
      <trkpt lat="41.380430432036519" lon="1.36159616522491">
        <ele>343.79998779296875</ele>
        <time>2018-12-29T09:49:13Z</time>
      </trkpt>
      <trkpt lat="41.380502935498953" lon="1.361544532701373">
        <ele>343.60000610351562</ele>
        <time>2018-12-29T09:49:15Z</time>
      </trkpt>
      <trkpt lat="41.380574516952038" lon="1.361496923491359">
        <ele>343.60000610351562</ele>
        <time>2018-12-29T09:49:17Z</time>
      </trkpt>
      <trkpt lat="41.380608296021819" lon="1.361470855772495">
        <ele>343.60000610351562</ele>
        <time>2018-12-29T09:49:18Z</time>
      </trkpt>
      <trkpt lat="41.380642326548696" lon="1.361443027853966">
        <ele>343.39999389648437</ele>
        <time>2018-12-29T09:49:19Z</time>
      </trkpt>
      <trkpt lat="41.3807094655931" lon="1.361392317339778">
        <ele>343.39999389648437</ele>
        <time>2018-12-29T09:49:21Z</time>
      </trkpt>
      <trkpt lat="41.380784651264548" lon="1.361348228529096">
        <ele>343.79998779296875</ele>
        <time>2018-12-29T09:49:23Z</time>
      </trkpt>
      <trkpt lat="41.380860926583409" lon="1.361303720623255">
        <ele>344</ele>
        <time>2018-12-29T09:49:25Z</time>
      </trkpt>
      <trkpt lat="41.380895543843508" lon="1.361285196617246">
        <ele>344.39999389648437</ele>
        <time>2018-12-29T09:49:26Z</time>
      </trkpt>
      <trkpt lat="41.38093376532197" lon="1.361264828592539">
        <ele>344.60000610351562</ele>
        <time>2018-12-29T09:49:27Z</time>
      </trkpt>
      <trkpt lat="41.381007106974721" lon="1.361230043694377">
        <ele>344.39999389648437</ele>
        <time>2018-12-29T09:49:29Z</time>
      </trkpt>
      <trkpt lat="41.381070641800761" lon="1.361197018995881">
        <ele>344.60000610351562</ele>
        <time>2018-12-29T09:49:31Z</time>
      </trkpt>
      <trkpt lat="41.381101319566369" lon="1.361180255189538">
        <ele>345.20001220703125</ele>
        <time>2018-12-29T09:49:32Z</time>
      </trkpt>
      <trkpt lat="41.381131410598755" lon="1.361164161935449">
        <ele>345.79998779296875</ele>
        <time>2018-12-29T09:49:33Z</time>
      </trkpt>
      <trkpt lat="41.38119419105351" lon="1.361139854416251">
        <ele>346.39999389648437</ele>
        <time>2018-12-29T09:49:35Z</time>
      </trkpt>
      <trkpt lat="41.381256133317947" lon="1.361108925193548">
        <ele>346.60000610351562</ele>
        <time>2018-12-29T09:49:37Z</time>
      </trkpt>
      <trkpt lat="41.381321093067527" lon="1.361089982092381">
        <ele>346.79998779296875</ele>
        <time>2018-12-29T09:49:39Z</time>
      </trkpt>
      <trkpt lat="41.381389992311597" lon="1.361079923808575">
        <ele>347</ele>
        <time>2018-12-29T09:49:41Z</time>
      </trkpt>
      <trkpt lat="41.381461573764682" lon="1.361074224114418">
        <ele>347.39999389648437</ele>
        <time>2018-12-29T09:49:43Z</time>
      </trkpt>
      <trkpt lat="41.381495101377368" lon="1.361076403409243">
        <ele>347.60000610351562</ele>
        <time>2018-12-29T09:49:44Z</time>
      </trkpt>
      <trkpt lat="41.381530556827784" lon="1.361084701493383">
        <ele>347.79998779296875</ele>
        <time>2018-12-29T09:49:45Z</time>
      </trkpt>
      <trkpt lat="41.381564838811755" lon="1.361102052032948">
        <ele>347.79998779296875</ele>
        <time>2018-12-29T09:49:46Z</time>
      </trkpt>
      <trkpt lat="41.381597528234124" lon="1.36112367734313">
        <ele>348</ele>
        <time>2018-12-29T09:49:47Z</time>
      </trkpt>
      <trkpt lat="41.381656704470515" lon="1.361173214390874">
        <ele>348</ele>
        <time>2018-12-29T09:49:49Z</time>
      </trkpt>
      <trkpt lat="41.381714791059494" lon="1.361239263787866">
        <ele>348.20001220703125</ele>
        <time>2018-12-29T09:49:51Z</time>
      </trkpt>
      <trkpt lat="41.381768938153982" lon="1.36130154132843">
        <ele>348.79998779296875</ele>
        <time>2018-12-29T09:49:53Z</time>
      </trkpt>
      <trkpt lat="41.381821744143963" lon="1.361368009820581">
        <ele>349.20001220703125</ele>
        <time>2018-12-29T09:49:55Z</time>
      </trkpt>
      <trkpt lat="41.381872370839119" lon="1.361440178006887">
        <ele>349.60000610351562</ele>
        <time>2018-12-29T09:49:57Z</time>
      </trkpt>
      <trkpt lat="41.381914028897882" lon="1.361506897956133">
        <ele>349.60000610351562</ele>
        <time>2018-12-29T09:49:59Z</time>
      </trkpt>
      <trkpt lat="41.38196281157434" lon="1.361573869362474">
        <ele>350.20001220703125</ele>
        <time>2018-12-29T09:50:01Z</time>
      </trkpt>
      <trkpt lat="41.382018467411399" lon="1.361634386703372">
        <ele>350.39999389648438</ele>
        <time>2018-12-29T09:50:03Z</time>
      </trkpt>
      <trkpt lat="41.382082169875503" lon="1.361671937629581">
        <ele>350.39999389648438</ele>
        <time>2018-12-29T09:50:05Z</time>
      </trkpt>
      <trkpt lat="41.38215291313827" lon="1.361693479120731">
        <ele>350.60000610351562</ele>
        <time>2018-12-29T09:50:07Z</time>
      </trkpt>
      <trkpt lat="41.382224159315228" lon="1.361693143844605">
        <ele>350.60000610351562</ele>
        <time>2018-12-29T09:50:09Z</time>
      </trkpt>
      <trkpt lat="41.382289370521903" lon="1.361682331189513">
        <ele>350.39999389648438</ele>
        <time>2018-12-29T09:50:11Z</time>
      </trkpt>
      <trkpt lat="41.382350474596024" lon="1.361645786091685">
        <ele>351</ele>
        <time>2018-12-29T09:50:13Z</time>
      </trkpt>
      <trkpt lat="41.38237863779068" lon="1.361621059477329">
        <ele>351.60000610351562</ele>
        <time>2018-12-29T09:50:14Z</time>
      </trkpt>
      <trkpt lat="41.382409734651446" lon="1.361598093062639">
        <ele>351.60000610351562</ele>
        <time>2018-12-29T09:50:15Z</time>
      </trkpt>
      <trkpt lat="41.382468324154615" lon="1.36155710555613">
        <ele>351.79998779296875</ele>
        <time>2018-12-29T09:50:17Z</time>
      </trkpt>
      <trkpt lat="41.382525488734245" lon="1.361519806087017">
        <ele>352.20001220703125</ele>
        <time>2018-12-29T09:50:19Z</time>
      </trkpt>
      <trkpt lat="41.382581060752273" lon="1.36148133315146">
        <ele>352.39999389648437</ele>
        <time>2018-12-29T09:50:21Z</time>
      </trkpt>
      <trkpt lat="41.382606960833073" lon="1.361461384221911">
        <ele>352.79998779296875</ele>
        <time>2018-12-29T09:50:22Z</time>
      </trkpt>
      <trkpt lat="41.382635459303856" lon="1.361441602930427">
        <ele>353</ele>
        <time>2018-12-29T09:50:23Z</time>
      </trkpt>
      <trkpt lat="41.382689690217376" lon="1.361397095024586">
        <ele>353.60000610351562</ele>
        <time>2018-12-29T09:50:25Z</time>
      </trkpt>
      <trkpt lat="41.382721206173301" lon="1.361375469714403">
        <ele>353.79998779296875</ele>
        <time>2018-12-29T09:50:26Z</time>
      </trkpt>
      <trkpt lat="41.382756913080812" lon="1.361353676766157">
        <ele>353.79998779296875</ele>
        <time>2018-12-29T09:50:27Z</time>
      </trkpt>
      <trkpt lat="41.382824806496501" lon="1.361311348155141">
        <ele>354.20001220703125</ele>
        <time>2018-12-29T09:50:29Z</time>
      </trkpt>
      <trkpt lat="41.382857747375965" lon="1.361287627369165">
        <ele>354.39999389648437</ele>
        <time>2018-12-29T09:50:30Z</time>
      </trkpt>
      <trkpt lat="41.382888592779636" lon="1.3612668402493">
        <ele>354.60000610351562</ele>
        <time>2018-12-29T09:50:31Z</time>
      </trkpt>
      <trkpt lat="41.382944583892822" lon="1.36122727766633">
        <ele>354.79998779296875</ele>
        <time>2018-12-29T09:50:33Z</time>
      </trkpt>
      <trkpt lat="41.382997138425708" lon="1.361195342615247">
        <ele>355</ele>
        <time>2018-12-29T09:50:35Z</time>
      </trkpt>
      <trkpt lat="41.38305245898664" lon="1.361177321523428">
        <ele>355.20001220703125</ele>
        <time>2018-12-29T09:50:37Z</time>
      </trkpt>
      <trkpt lat="41.383115658536553" lon="1.361169023439288">
        <ele>355.79998779296875</ele>
        <time>2018-12-29T09:50:39Z</time>
      </trkpt>
      <trkpt lat="41.383181707933545" lon="1.361166508868337">
        <ele>356.20001220703125</ele>
        <time>2018-12-29T09:50:41Z</time>
      </trkpt>
      <trkpt lat="41.383216828107834" lon="1.361168101429939">
        <ele>356.60000610351562</ele>
        <time>2018-12-29T09:50:42Z</time>
      </trkpt>
      <trkpt lat="41.383248679339886" lon="1.361167849972844">
        <ele>356.79998779296875</ele>
        <time>2018-12-29T09:50:43Z</time>
      </trkpt>
      <trkpt lat="41.38327918946743" lon="1.361169945448637">
        <ele>357</ele>
        <time>2018-12-29T09:50:44Z</time>
      </trkpt>
      <trkpt lat="41.383308693766594" lon="1.361173465847969">
        <ele>357.20001220703125</ele>
        <time>2018-12-29T09:50:45Z</time>
      </trkpt>
      <trkpt lat="41.383373402059078" lon="1.361183691769838">
        <ele>357.60000610351562</ele>
        <time>2018-12-29T09:50:47Z</time>
      </trkpt>
      <trkpt lat="41.383442636579275" lon="1.361193833872676">
        <ele>358.39999389648437</ele>
        <time>2018-12-29T09:50:49Z</time>
      </trkpt>
      <trkpt lat="41.383514134213328" lon="1.361200120300055">
        <ele>359</ele>
        <time>2018-12-29T09:50:51Z</time>
      </trkpt>
      <trkpt lat="41.383579513058066" lon="1.361201545223594">
        <ele>359.39999389648437</ele>
        <time>2018-12-29T09:50:53Z</time>
      </trkpt>
      <trkpt lat="41.383644053712487" lon="1.361209508031607">
        <ele>359.60000610351562</ele>
        <time>2018-12-29T09:50:55Z</time>
      </trkpt>
      <trkpt lat="41.383707337081432" lon="1.361217554658651">
        <ele>359.39999389648437</ele>
        <time>2018-12-29T09:50:57Z</time>
      </trkpt>
      <trkpt lat="41.383772883564234" lon="1.361229959875345">
        <ele>359.39999389648437</ele>
        <time>2018-12-29T09:50:59Z</time>
      </trkpt>
      <trkpt lat="41.383839687332511" lon="1.361239766702056">
        <ele>359.39999389648437</ele>
        <time>2018-12-29T09:51:01Z</time>
      </trkpt>
      <trkpt lat="41.383902635425329" lon="1.361247813329101">
        <ele>359.39999389648437</ele>
        <time>2018-12-29T09:51:03Z</time>
      </trkpt>
      <trkpt lat="41.383956195786595" lon="1.361259715631604">
        <ele>359.39999389648437</ele>
        <time>2018-12-29T09:51:05Z</time>
      </trkpt>
      <trkpt lat="41.383981928229332" lon="1.361266002058983">
        <ele>359.20001220703125</ele>
        <time>2018-12-29T09:51:06Z</time>
      </trkpt>
      <trkpt lat="41.384007409214973" lon="1.361269019544125">
        <ele>359.20001220703125</ele>
        <time>2018-12-29T09:51:07Z</time>
      </trkpt>
      <trkpt lat="41.384061304852366" lon="1.361256949603558">
        <ele>359.79998779296875</ele>
        <time>2018-12-29T09:51:09Z</time>
      </trkpt>
      <trkpt lat="41.384120229631662" lon="1.361218141391873">
        <ele>360.20001220703125</ele>
        <time>2018-12-29T09:51:11Z</time>
      </trkpt>
      <trkpt lat="41.384160378947854" lon="1.361151840537787">
        <ele>360.60000610351562</ele>
        <time>2018-12-29T09:51:13Z</time>
      </trkpt>
      <trkpt lat="41.384189212694764" lon="1.361084785312414">
        <ele>361.20001220703125</ele>
        <time>2018-12-29T09:51:15Z</time>
      </trkpt>
      <trkpt lat="41.384219219908118" lon="1.361018568277359">
        <ele>362</ele>
        <time>2018-12-29T09:51:17Z</time>
      </trkpt>
      <trkpt lat="41.384243527427316" lon="1.360951848328114">
        <ele>362.39999389648437</ele>
        <time>2018-12-29T09:51:19Z</time>
      </trkpt>
      <trkpt lat="41.384265990927815" lon="1.360895521938801">
        <ele>362.79998779296875</ele>
        <time>2018-12-29T09:51:21Z</time>
      </trkpt>
      <trkpt lat="41.384274791926146" lon="1.360843554139137">
        <ele>363.20001220703125</ele>
        <time>2018-12-29T09:51:23Z</time>
      </trkpt>
      <trkpt lat="41.384283425286412" lon="1.360795358195901">
        <ele>363.79998779296875</ele>
        <time>2018-12-29T09:51:25Z</time>
      </trkpt>
      <trkpt lat="41.38428040780127" lon="1.36077088303864">
        <ele>364</ele>
        <time>2018-12-29T09:51:26Z</time>
      </trkpt>
      <trkpt lat="41.384272947907448" lon="1.36074498295784">
        <ele>364.20001220703125</ele>
        <time>2018-12-29T09:51:27Z</time>
      </trkpt>
      <trkpt lat="41.384262889623642" lon="1.360716484487057">
        <ele>364.39999389648437</ele>
        <time>2018-12-29T09:51:28Z</time>
      </trkpt>
      <trkpt lat="41.38424864038825" lon="1.360684465616942">
        <ele>364.60000610351562</ele>
        <time>2018-12-29T09:51:29Z</time>
      </trkpt>
      <trkpt lat="41.384201114997268" lon="1.360643729567528">
        <ele>364.60000610351562</ele>
        <time>2018-12-29T09:51:31Z</time>
      </trkpt>
      <trkpt lat="41.38416993431747" lon="1.360630989074707">
        <ele>364.60000610351562</ele>
        <time>2018-12-29T09:51:32Z</time>
      </trkpt>
      <trkpt lat="41.384136490523815" lon="1.360619086772203">
        <ele>364.79998779296875</ele>
        <time>2018-12-29T09:51:33Z</time>
      </trkpt>
      <trkpt lat="41.384071446955204" lon="1.36059938929975">
        <ele>364.79998779296875</ele>
        <time>2018-12-29T09:51:35Z</time>
      </trkpt>
      <trkpt lat="41.384003972634673" lon="1.360574243590236">
        <ele>364.60000610351562</ele>
        <time>2018-12-29T09:51:37Z</time>
      </trkpt>
      <trkpt lat="41.383933732286096" lon="1.360547337681055">
        <ele>364.60000610351562</ele>
        <time>2018-12-29T09:51:39Z</time>
      </trkpt>
      <trkpt lat="41.383898360654712" lon="1.360532166436315">
        <ele>364.60000610351562</ele>
        <time>2018-12-29T09:51:40Z</time>
      </trkpt>
      <trkpt lat="41.383862821385264" lon="1.360520599409938">
        <ele>364.79998779296875</ele>
        <time>2018-12-29T09:51:41Z</time>
      </trkpt>
      <trkpt lat="41.383791072294116" lon="1.360497632995248">
        <ele>365</ele>
        <time>2018-12-29T09:51:43Z</time>
      </trkpt>
      <trkpt lat="41.383720329031348" lon="1.360475001856685">
        <ele>365.20001220703125</ele>
        <time>2018-12-29T09:51:45Z</time>
      </trkpt>
      <trkpt lat="41.383654782548547" lon="1.360450526699424">
        <ele>365.20001220703125</ele>
        <time>2018-12-29T09:51:47Z</time>
      </trkpt>
      <trkpt lat="41.383587308228016" lon="1.360421776771545">
        <ele>365.39999389648437</ele>
        <time>2018-12-29T09:51:49Z</time>
      </trkpt>
      <trkpt lat="41.383551433682442" lon="1.360409539192915">
        <ele>365.60000610351562</ele>
        <time>2018-12-29T09:51:50Z</time>
      </trkpt>
      <trkpt lat="41.383515810593963" lon="1.360397972166538">
        <ele>365.60000610351562</ele>
        <time>2018-12-29T09:51:51Z</time>
      </trkpt>
      <trkpt lat="41.383442552760243" lon="1.360370144248009">
        <ele>365.60000610351562</ele>
        <time>2018-12-29T09:51:53Z</time>
      </trkpt>
      <trkpt lat="41.383366361260414" lon="1.360345501452684">
        <ele>365.60000610351562</ele>
        <time>2018-12-29T09:51:55Z</time>
      </trkpt>
      <trkpt lat="41.383288409560919" lon="1.360321026295424">
        <ele>365.60000610351562</ele>
        <time>2018-12-29T09:51:57Z</time>
      </trkpt>
      <trkpt lat="41.383250523358583" lon="1.360307028517127">
        <ele>365.60000610351562</ele>
        <time>2018-12-29T09:51:58Z</time>
      </trkpt>
      <trkpt lat="41.38321372680366" lon="1.360289426520467">
        <ele>365.60000610351562</ele>
        <time>2018-12-29T09:51:59Z</time>
      </trkpt>
      <trkpt lat="41.383140636608005" lon="1.360261179506779">
        <ele>365.79998779296875</ele>
        <time>2018-12-29T09:52:01Z</time>
      </trkpt>
      <trkpt lat="41.383067714050412" lon="1.360231172293425">
        <ele>366</ele>
        <time>2018-12-29T09:52:03Z</time>
      </trkpt>
      <trkpt lat="41.382991774007678" lon="1.360204769298434">
        <ele>366.20001220703125</ele>
        <time>2018-12-29T09:52:05Z</time>
      </trkpt>
      <trkpt lat="41.382954474538565" lon="1.360191944986582">
        <ele>366.20001220703125</ele>
        <time>2018-12-29T09:52:06Z</time>
      </trkpt>
      <trkpt lat="41.382917426526546" lon="1.360180545598269">
        <ele>366.39999389648437</ele>
        <time>2018-12-29T09:52:07Z</time>
      </trkpt>
      <trkpt lat="41.382844252511859" lon="1.360151376575232">
        <ele>366.60000610351562</ele>
        <time>2018-12-29T09:52:09Z</time>
      </trkpt>
      <trkpt lat="41.382775856181979" lon="1.360124805942178">
        <ele>366.79998779296875</ele>
        <time>2018-12-29T09:52:11Z</time>
      </trkpt>
      <trkpt lat="41.38271139934659" lon="1.360099744051695">
        <ele>367</ele>
        <time>2018-12-29T09:52:13Z</time>
      </trkpt>
      <trkpt lat="41.382647026330233" lon="1.360075771808624">
        <ele>367.79998779296875</ele>
        <time>2018-12-29T09:52:15Z</time>
      </trkpt>
      <trkpt lat="41.382584245875478" lon="1.360056828707457">
        <ele>368</ele>
        <time>2018-12-29T09:52:17Z</time>
      </trkpt>
      <trkpt lat="41.382522890344262" lon="1.360032688826323">
        <ele>368.39999389648437</ele>
        <time>2018-12-29T09:52:19Z</time>
      </trkpt>
      <trkpt lat="41.382460780441761" lon="1.360005112364888">
        <ele>368.60000610351562</ele>
        <time>2018-12-29T09:52:21Z</time>
      </trkpt>
      <trkpt lat="41.38243043795228" lon="1.359992288053036">
        <ele>369</ele>
        <time>2018-12-29T09:52:22Z</time>
      </trkpt>
      <trkpt lat="41.382400766015053" lon="1.359981056302786">
        <ele>369.20001220703125</ele>
        <time>2018-12-29T09:52:23Z</time>
      </trkpt>
      <trkpt lat="41.382370088249445" lon="1.359970914199948">
        <ele>369.39999389648437</ele>
        <time>2018-12-29T09:52:24Z</time>
      </trkpt>
      <trkpt lat="41.382339494302869" lon="1.359960269182921">
        <ele>369.60000610351562</ele>
        <time>2018-12-29T09:52:25Z</time>
      </trkpt>
      <trkpt lat="41.382278222590685" lon="1.359938224777579">
        <ele>370</ele>
        <time>2018-12-29T09:52:27Z</time>
      </trkpt>
      <trkpt lat="41.382217453792691" lon="1.359917772933841">
        <ele>370.20001220703125</ele>
        <time>2018-12-29T09:52:29Z</time>
      </trkpt>
      <trkpt lat="41.382157020270824" lon="1.359892375767231">
        <ele>370.60000610351562</ele>
        <time>2018-12-29T09:52:31Z</time>
      </trkpt>
      <trkpt lat="41.382098263129592" lon="1.359866056591272">
        <ele>370.79998779296875</ele>
        <time>2018-12-29T09:52:33Z</time>
      </trkpt>
      <trkpt lat="41.382070519030094" lon="1.35985666885972">
        <ele>371</ele>
        <time>2018-12-29T09:52:34Z</time>
      </trkpt>
      <trkpt lat="41.382040930911899" lon="1.359849544242024">
        <ele>371.39999389648437</ele>
        <time>2018-12-29T09:52:35Z</time>
      </trkpt>
      <trkpt lat="41.381983431056142" lon="1.359837474301457">
        <ele>372</ele>
        <time>2018-12-29T09:52:37Z</time>
      </trkpt>
      <trkpt lat="41.38192618265748" lon="1.35982783511281">
        <ele>372.79998779296875</ele>
        <time>2018-12-29T09:52:39Z</time>
      </trkpt>
      <trkpt lat="41.381869437173009" lon="1.35981903411448">
        <ele>373.20001220703125</ele>
        <time>2018-12-29T09:52:41Z</time>
      </trkpt>
      <trkpt lat="41.38181327842176" lon="1.359829930588603">
        <ele>373.60000610351562</ele>
        <time>2018-12-29T09:52:43Z</time>
      </trkpt>
      <trkpt lat="41.381785869598389" lon="1.359848454594612">
        <ele>373.79998779296875</ele>
        <time>2018-12-29T09:52:44Z</time>
      </trkpt>
      <trkpt lat="41.381760975345969" lon="1.359869493171573">
        <ele>373.79998779296875</ele>
        <time>2018-12-29T09:52:45Z</time>
      </trkpt>
      <trkpt lat="41.381712360307574" lon="1.35991333052516">
        <ele>374.20001220703125</ele>
        <time>2018-12-29T09:52:47Z</time>
      </trkpt>
      <trkpt lat="41.381669025868177" lon="1.359958257526159">
        <ele>374.60000610351562</ele>
        <time>2018-12-29T09:52:49Z</time>
      </trkpt>
      <trkpt lat="41.381622673943639" lon="1.359998239204288">
        <ele>374.79998779296875</ele>
        <time>2018-12-29T09:52:51Z</time>
      </trkpt>
      <trkpt lat="41.38157581910491" lon="1.360038639977574">
        <ele>375.20001220703125</ele>
        <time>2018-12-29T09:52:53Z</time>
      </trkpt>
      <trkpt lat="41.381529131904244" lon="1.360085243359208">
        <ele>375.60000610351562</ele>
        <time>2018-12-29T09:52:55Z</time>
      </trkpt>
      <trkpt lat="41.381483031436801" lon="1.360135870054364">
        <ele>376</ele>
        <time>2018-12-29T09:52:57Z</time>
      </trkpt>
      <trkpt lat="41.381437433883548" lon="1.360186915844679">
        <ele>376.39999389648438</ele>
        <time>2018-12-29T09:52:59Z</time>
      </trkpt>
      <trkpt lat="41.381390830501914" lon="1.360227400436997">
        <ele>376.79998779296875</ele>
        <time>2018-12-29T09:53:01Z</time>
      </trkpt>
      <trkpt lat="41.38136618770659" lon="1.360244918614626">
        <ele>377.20001220703125</ele>
        <time>2018-12-29T09:53:02Z</time>
      </trkpt>
      <trkpt lat="41.381341377273202" lon="1.360256737098098">
        <ele>377.39999389648437</ele>
        <time>2018-12-29T09:53:03Z</time>
      </trkpt>
      <trkpt lat="41.381315644830465" lon="1.360269645228982">
        <ele>377.39999389648437</ele>
        <time>2018-12-29T09:53:04Z</time>
      </trkpt>
      <trkpt lat="41.381288738921285" lon="1.360283810645342">
        <ele>377.60000610351562</ele>
        <time>2018-12-29T09:53:05Z</time>
      </trkpt>
      <trkpt lat="41.381235765293241" lon="1.360316332429647">
        <ele>378</ele>
        <time>2018-12-29T09:53:07Z</time>
      </trkpt>
      <trkpt lat="41.381184719502926" lon="1.360342064872384">
        <ele>378.60000610351562</ele>
        <time>2018-12-29T09:53:09Z</time>
      </trkpt>
      <trkpt lat="41.381131326779723" lon="1.36036092415452">
        <ele>379.20001220703125</ele>
        <time>2018-12-29T09:53:11Z</time>
      </trkpt>
      <trkpt lat="41.381074162200093" lon="1.360374838113785">
        <ele>379.60000610351562</ele>
        <time>2018-12-29T09:53:13Z</time>
      </trkpt>
      <trkpt lat="41.381019009277225" lon="1.360385566949844">
        <ele>380.20001220703125</ele>
        <time>2018-12-29T09:53:15Z</time>
      </trkpt>
      <trkpt lat="41.380961844697595" lon="1.360390512272716">
        <ele>380.79998779296875</ele>
        <time>2018-12-29T09:53:17Z</time>
      </trkpt>
      <trkpt lat="41.380905769765377" lon="1.360386656597257">
        <ele>381.20001220703125</ele>
        <time>2018-12-29T09:53:19Z</time>
      </trkpt>
      <trkpt lat="41.380849778652191" lon="1.360381208360195">
        <ele>381.79998779296875</ele>
        <time>2018-12-29T09:53:21Z</time>
      </trkpt>
      <trkpt lat="41.380797475576401" lon="1.360366623848677">
        <ele>382.39999389648437</ele>
        <time>2018-12-29T09:53:23Z</time>
      </trkpt>
      <trkpt lat="41.380744418129325" lon="1.36034726165235">
        <ele>382.79998779296875</ele>
        <time>2018-12-29T09:53:25Z</time>
      </trkpt>
      <trkpt lat="41.380718434229493" lon="1.360335778445005">
        <ele>383.39999389648437</ele>
        <time>2018-12-29T09:53:26Z</time>
      </trkpt>
      <trkpt lat="41.38069286942482" lon="1.360321445390582">
        <ele>383.60000610351562</ele>
        <time>2018-12-29T09:53:27Z</time>
      </trkpt>
      <trkpt lat="41.380640901625156" lon="1.360291689634323">
        <ele>384</ele>
        <time>2018-12-29T09:53:29Z</time>
      </trkpt>
      <trkpt lat="41.380587425082922" lon="1.360259084030986">
        <ele>384.39999389648437</ele>
        <time>2018-12-29T09:53:31Z</time>
      </trkpt>
      <trkpt lat="41.380562195554376" lon="1.360239638015628">
        <ele>384.60000610351562</ele>
        <time>2018-12-29T09:53:32Z</time>
      </trkpt>
      <trkpt lat="41.380537217482924" lon="1.360220611095429">
        <ele>384.79998779296875</ele>
        <time>2018-12-29T09:53:33Z</time>
      </trkpt>
      <trkpt lat="41.380486506968737" lon="1.360178785398603">
        <ele>385</ele>
        <time>2018-12-29T09:53:35Z</time>
      </trkpt>
      <trkpt lat="41.380434539169073" lon="1.360121201723814">
        <ele>385.20001220703125</ele>
        <time>2018-12-29T09:53:37Z</time>
      </trkpt>
      <trkpt lat="41.380388606339693" lon="1.360052637755871">
        <ele>385.39999389648437</ele>
        <time>2018-12-29T09:53:39Z</time>
      </trkpt>
      <trkpt lat="41.380364717915654" lon="1.360016595572233">
        <ele>385.60000610351562</ele>
        <time>2018-12-29T09:53:40Z</time>
      </trkpt>
      <trkpt lat="41.380341500043869" lon="1.359980888664722">
        <ele>385.60000610351562</ele>
        <time>2018-12-29T09:53:41Z</time>
      </trkpt>
      <trkpt lat="41.380298919975758" lon="1.359899332746863">
        <ele>385.60000610351562</ele>
        <time>2018-12-29T09:53:43Z</time>
      </trkpt>
      <trkpt lat="41.380264637991786" lon="1.359815262258053">
        <ele>385.79998779296875</ele>
        <time>2018-12-29T09:53:45Z</time>
      </trkpt>
      <trkpt lat="41.380235385149717" lon="1.359726833179593">
        <ele>386</ele>
        <time>2018-12-29T09:53:47Z</time>
      </trkpt>
      <trkpt lat="41.380218872800469" lon="1.359680648893118">
        <ele>386</ele>
        <time>2018-12-29T09:53:48Z</time>
      </trkpt>
      <trkpt lat="41.38020034879446" lon="1.359634045511484">
        <ele>386</ele>
        <time>2018-12-29T09:53:49Z</time>
      </trkpt>
      <trkpt lat="41.380159948021173" lon="1.359543269500136">
        <ele>385.79998779296875</ele>
        <time>2018-12-29T09:53:51Z</time>
      </trkpt>
      <trkpt lat="41.380113177001476" lon="1.359447548165917">
        <ele>385.79998779296875</ele>
        <time>2018-12-29T09:53:53Z</time>
      </trkpt>
      <trkpt lat="41.380060622468591" lon="1.359337912872434">
        <ele>385.39999389648437</ele>
        <time>2018-12-29T09:53:55Z</time>
      </trkpt>
      <trkpt lat="41.379998596385121" lon="1.359212016686797">
        <ele>384.60000610351562</ele>
        <time>2018-12-29T09:53:57Z</time>
      </trkpt>
      <trkpt lat="41.379927350208163" lon="1.35907874442637">
        <ele>383.60000610351562</ele>
        <time>2018-12-29T09:53:59Z</time>
      </trkpt>
      <trkpt lat="41.379885105416179" lon="1.359010264277458">
        <ele>383.39999389648437</ele>
        <time>2018-12-29T09:54:00Z</time>
      </trkpt>
      <trkpt lat="41.379840010777116" lon="1.358944969251752">
        <ele>383</ele>
        <time>2018-12-29T09:54:01Z</time>
      </trkpt>
      <trkpt lat="41.379740014672279" lon="1.358816893771291">
        <ele>382</ele>
        <time>2018-12-29T09:54:03Z</time>
      </trkpt>
      <trkpt lat="41.379630966112018" lon="1.358694937080145">
        <ele>381</ele>
        <time>2018-12-29T09:54:05Z</time>
      </trkpt>
      <trkpt lat="41.379573717713356" lon="1.358637772500515">
        <ele>380.79998779296875</ele>
        <time>2018-12-29T09:54:06Z</time>
      </trkpt>
      <trkpt lat="41.379513284191489" lon="1.358583625406027">
        <ele>380.60000610351562</ele>
        <time>2018-12-29T09:54:07Z</time>
      </trkpt>
      <trkpt lat="41.379383448511362" lon="1.358489664271474">
        <ele>380.20001220703125</ele>
        <time>2018-12-29T09:54:09Z</time>
      </trkpt>
      <trkpt lat="41.379244225099683" lon="1.358409365639091">
        <ele>380.39999389648437</ele>
        <time>2018-12-29T09:54:11Z</time>
      </trkpt>
      <trkpt lat="41.379104079678655" lon="1.358331078663468">
        <ele>380</ele>
        <time>2018-12-29T09:54:13Z</time>
      </trkpt>
      <trkpt lat="41.379036605358124" lon="1.358291180804372">
        <ele>379.39999389648437</ele>
        <time>2018-12-29T09:54:14Z</time>
      </trkpt>
      <trkpt lat="41.378970304504037" lon="1.358247259631753">
        <ele>379.39999389648437</ele>
        <time>2018-12-29T09:54:15Z</time>
      </trkpt>
      <trkpt lat="41.378842731937766" lon="1.358147179707885">
        <ele>379.60000610351562</ele>
        <time>2018-12-29T09:54:17Z</time>
      </trkpt>
      <trkpt lat="41.378719015046954" lon="1.358041232451797">
        <ele>379.39999389648437</ele>
        <time>2018-12-29T09:54:19Z</time>
      </trkpt>
      <trkpt lat="41.37860594317317" lon="1.357925897464156">
        <ele>379.39999389648437</ele>
        <time>2018-12-29T09:54:21Z</time>
      </trkpt>
      <trkpt lat="41.37850041501224" lon="1.357802012935281">
        <ele>379.20001220703125</ele>
        <time>2018-12-29T09:54:23Z</time>
      </trkpt>
      <trkpt lat="41.378402765840292" lon="1.357666477560997">
        <ele>379.20001220703125</ele>
        <time>2018-12-29T09:54:25Z</time>
      </trkpt>
      <trkpt lat="41.378360688686371" lon="1.357593052089214">
        <ele>379.60000610351562</ele>
        <time>2018-12-29T09:54:26Z</time>
      </trkpt>
      <trkpt lat="41.378318779170513" lon="1.357518536970019">
        <ele>379.79998779296875</ele>
        <time>2018-12-29T09:54:27Z</time>
      </trkpt>
      <trkpt lat="41.378243090584874" lon="1.357361627742648">
        <ele>380.20001220703125</ele>
        <time>2018-12-29T09:54:29Z</time>
      </trkpt>
      <trkpt lat="41.378210484981537" lon="1.357281915843487">
        <ele>380.60000610351562</ele>
        <time>2018-12-29T09:54:30Z</time>
      </trkpt>
      <trkpt lat="41.378182908520103" lon="1.357201030477881">
        <ele>380.39999389648437</ele>
        <time>2018-12-29T09:54:31Z</time>
      </trkpt>
      <trkpt lat="41.378159942105412" lon="1.357119558379054">
        <ele>380.60000610351562</ele>
        <time>2018-12-29T09:54:32Z</time>
      </trkpt>
      <trkpt lat="41.378139657899737" lon="1.357039511203766">
        <ele>380.79998779296875</ele>
        <time>2018-12-29T09:54:33Z</time>
      </trkpt>
      <trkpt lat="41.378106800839305" lon="1.356879081577063">
        <ele>381.60000610351562</ele>
        <time>2018-12-29T09:54:35Z</time>
      </trkpt>
      <trkpt lat="41.378082744777203" lon="1.356717897579074">
        <ele>382.39999389648437</ele>
        <time>2018-12-29T09:54:37Z</time>
      </trkpt>
      <trkpt lat="41.378075368702412" lon="1.356640281155706">
        <ele>383.39999389648437</ele>
        <time>2018-12-29T09:54:38Z</time>
      </trkpt>
      <trkpt lat="41.378068411722779" lon="1.356563670560718">
        <ele>384</ele>
        <time>2018-12-29T09:54:39Z</time>
      </trkpt>
      <trkpt lat="41.37805818580091" lon="1.356417490169406">
        <ele>384.39999389648437</ele>
        <time>2018-12-29T09:54:41Z</time>
      </trkpt>
      <trkpt lat="41.378057431429625" lon="1.356277260929346">
        <ele>384.60000610351562</ele>
        <time>2018-12-29T09:54:43Z</time>
      </trkpt>
      <trkpt lat="41.378060113638639" lon="1.356142060831189">
        <ele>385.20001220703125</ele>
        <time>2018-12-29T09:54:45Z</time>
      </trkpt>
      <trkpt lat="41.378062795847654" lon="1.35600577108562">
        <ele>385.60000610351562</ele>
        <time>2018-12-29T09:54:47Z</time>
      </trkpt>
      <trkpt lat="41.378068998456001" lon="1.35587434284389">
        <ele>386</ele>
        <time>2018-12-29T09:54:49Z</time>
      </trkpt>
      <trkpt lat="41.378072602674365" lon="1.355748111382127">
        <ele>386.39999389648437</ele>
        <time>2018-12-29T09:54:51Z</time>
      </trkpt>
      <trkpt lat="41.378075201064348" lon="1.355689857155085">
        <ele>386.79998779296875</ele>
        <time>2018-12-29T09:54:52Z</time>
      </trkpt>
      <trkpt lat="41.378077883273363" lon="1.355626741424203">
        <ele>387.20001220703125</ele>
        <time>2018-12-29T09:54:53Z</time>
      </trkpt>
      <trkpt lat="41.378090288490057" lon="1.355503862723708">
        <ele>388</ele>
        <time>2018-12-29T09:54:55Z</time>
      </trkpt>
      <trkpt lat="41.378103112801909" lon="1.35539154522121">
        <ele>388.60000610351562</ele>
        <time>2018-12-29T09:54:57Z</time>
      </trkpt>
      <trkpt lat="41.378108309581876" lon="1.355278976261616">
        <ele>389.20001220703125</ele>
        <time>2018-12-29T09:54:59Z</time>
      </trkpt>
      <trkpt lat="41.3781104888767" lon="1.355180405080319">
        <ele>389.20001220703125</ele>
        <time>2018-12-29T09:55:01Z</time>
      </trkpt>
      <trkpt lat="41.378111243247986" lon="1.355091724544764">
        <ele>390.20001220703125</ele>
        <time>2018-12-29T09:55:03Z</time>
      </trkpt>
      <trkpt lat="41.37811484746635" lon="1.355009330436587">
        <ele>390.79998779296875</ele>
        <time>2018-12-29T09:55:05Z</time>
      </trkpt>
      <trkpt lat="41.378121888265014" lon="1.354922661557794">
        <ele>391.39999389648437</ele>
        <time>2018-12-29T09:55:07Z</time>
      </trkpt>
      <trkpt lat="41.378127252683043" lon="1.354835573583841">
        <ele>391.79998779296875</ele>
        <time>2018-12-29T09:55:09Z</time>
      </trkpt>
      <trkpt lat="41.37813194654882" lon="1.354749239981175">
        <ele>392</ele>
        <time>2018-12-29T09:55:11Z</time>
      </trkpt>
      <trkpt lat="41.378136556595564" lon="1.354659888893366">
        <ele>392.20001220703125</ele>
        <time>2018-12-29T09:55:13Z</time>
      </trkpt>
      <trkpt lat="41.378138987347484" lon="1.354620661586523">
        <ele>392.39999389648437</ele>
        <time>2018-12-29T09:55:14Z</time>
      </trkpt>
      <trkpt lat="41.378140076994896" lon="1.354579674080014">
        <ele>392.60000610351562</ele>
        <time>2018-12-29T09:55:15Z</time>
      </trkpt>
      <trkpt lat="41.378143094480038" lon="1.35453793220222">
        <ele>392.79998779296875</ele>
        <time>2018-12-29T09:55:16Z</time>
      </trkpt>
      <trkpt lat="41.378145944327116" lon="1.354496022686362">
        <ele>393</ele>
        <time>2018-12-29T09:55:17Z</time>
      </trkpt>
      <trkpt lat="41.378153823316097" lon="1.354407593607903">
        <ele>393.20001220703125</ele>
        <time>2018-12-29T09:55:19Z</time>
      </trkpt>
      <trkpt lat="41.37815834954381" lon="1.354364091530442">
        <ele>393.39999389648438</ele>
        <time>2018-12-29T09:55:20Z</time>
      </trkpt>
      <trkpt lat="41.37816128320992" lon="1.354317236691713">
        <ele>393.60000610351562</ele>
        <time>2018-12-29T09:55:21Z</time>
      </trkpt>
      <trkpt lat="41.378170922398567" lon="1.354227801784873">
        <ele>394</ele>
        <time>2018-12-29T09:55:23Z</time>
      </trkpt>
      <trkpt lat="41.378173185512424" lon="1.354182539507747">
        <ele>394</ele>
        <time>2018-12-29T09:55:24Z</time>
      </trkpt>
      <trkpt lat="41.378178717568517" lon="1.35414507240057">
        <ele>394.20001220703125</ele>
        <time>2018-12-29T09:55:25Z</time>
      </trkpt>
      <trkpt lat="41.37818374671042" lon="1.354107353836298">
        <ele>394.60000610351562</ele>
        <time>2018-12-29T09:55:26Z</time>
      </trkpt>
      <trkpt lat="41.378190033137798" lon="1.35406787507236">
        <ele>394.79998779296875</ele>
        <time>2018-12-29T09:55:27Z</time>
      </trkpt>
      <trkpt lat="41.378205791115761" lon="1.353986151516438">
        <ele>395.20001220703125</ele>
        <time>2018-12-29T09:55:29Z</time>
      </trkpt>
      <trkpt lat="41.378212329000235" lon="1.353940637782216">
        <ele>395.20001220703125</ele>
        <time>2018-12-29T09:55:30Z</time>
      </trkpt>
      <trkpt lat="41.378220627084374" lon="1.35389780625701">
        <ele>395.39999389648437</ele>
        <time>2018-12-29T09:55:31Z</time>
      </trkpt>
      <trkpt lat="41.378236385062337" lon="1.353813568130136">
        <ele>395.39999389648437</ele>
        <time>2018-12-29T09:55:33Z</time>
      </trkpt>
      <trkpt lat="41.378252478316426" lon="1.353732850402594">
        <ele>395.39999389648437</ele>
        <time>2018-12-29T09:55:35Z</time>
      </trkpt>
      <trkpt lat="41.378269325941801" lon="1.353659089654684">
        <ele>395.79998779296875</ele>
        <time>2018-12-29T09:55:37Z</time>
      </trkpt>
      <trkpt lat="41.378289442509413" lon="1.353588346391916">
        <ele>396.39999389648437</ele>
        <time>2018-12-29T09:55:39Z</time>
      </trkpt>
      <trkpt lat="41.378310145810246" lon="1.353510143235326">
        <ele>396.79998779296875</ele>
        <time>2018-12-29T09:55:41Z</time>
      </trkpt>
      <trkpt lat="41.378334704786539" lon="1.353431353345513">
        <ele>397.20001220703125</ele>
        <time>2018-12-29T09:55:43Z</time>
      </trkpt>
      <trkpt lat="41.378361526876688" lon="1.353346612304449">
        <ele>397.39999389648437</ele>
        <time>2018-12-29T09:55:45Z</time>
      </trkpt>
      <trkpt lat="41.378388432785869" lon="1.353263882920146">
        <ele>397.60000610351562</ele>
        <time>2018-12-29T09:55:47Z</time>
      </trkpt>
      <trkpt lat="41.378404106944799" lon="1.353228176012635">
        <ele>397.79998779296875</ele>
        <time>2018-12-29T09:55:48Z</time>
      </trkpt>
      <trkpt lat="41.378419864922762" lon="1.353193391114473">
        <ele>398</ele>
        <time>2018-12-29T09:55:49Z</time>
      </trkpt>
      <trkpt lat="41.378450458869338" lon="1.353121222928166">
        <ele>398.39999389648437</ele>
        <time>2018-12-29T09:55:51Z</time>
      </trkpt>
      <trkpt lat="41.378486584872007" lon="1.353051820769906">
        <ele>399</ele>
        <time>2018-12-29T09:55:53Z</time>
      </trkpt>
      <trkpt lat="41.378524973988533" lon="1.352983508259058">
        <ele>399.39999389648437</ele>
        <time>2018-12-29T09:55:55Z</time>
      </trkpt>
      <trkpt lat="41.378563530743122" lon="1.352915028110147">
        <ele>399.79998779296875</ele>
        <time>2018-12-29T09:55:57Z</time>
      </trkpt>
      <trkpt lat="41.378582557663321" lon="1.352880578488112">
        <ele>400</ele>
        <time>2018-12-29T09:55:58Z</time>
      </trkpt>
      <trkpt lat="41.378602171316743" lon="1.352848894894123">
        <ele>400</ele>
        <time>2018-12-29T09:55:59Z</time>
      </trkpt>
      <trkpt lat="41.378641817718744" lon="1.3527827616781">
        <ele>400.20001220703125</ele>
        <time>2018-12-29T09:56:01Z</time>
      </trkpt>
      <trkpt lat="41.378677859902382" lon="1.352719478309155">
        <ele>400.39999389648437</ele>
        <time>2018-12-29T09:56:03Z</time>
      </trkpt>
      <trkpt lat="41.378714321181178" lon="1.352653931826353">
        <ele>400.60000610351562</ele>
        <time>2018-12-29T09:56:05Z</time>
      </trkpt>
      <trkpt lat="41.378761678934097" lon="1.352593582123518">
        <ele>400.79998779296875</ele>
        <time>2018-12-29T09:56:07Z</time>
      </trkpt>
      <trkpt lat="41.378807779401541" lon="1.352530801668763">
        <ele>401.20001220703125</ele>
        <time>2018-12-29T09:56:09Z</time>
      </trkpt>
      <trkpt lat="41.378857651725411" lon="1.352473217993975">
        <ele>401.60000610351562</ele>
        <time>2018-12-29T09:56:11Z</time>
      </trkpt>
      <trkpt lat="41.378879779949784" lon="1.352443713694811">
        <ele>401.60000610351562</ele>
        <time>2018-12-29T09:56:12Z</time>
      </trkpt>
      <trkpt lat="41.378902914002538" lon="1.35241337120533">
        <ele>401.79998779296875</ele>
        <time>2018-12-29T09:56:13Z</time>
      </trkpt>
      <trkpt lat="41.378925126045942" lon="1.352383028715849">
        <ele>402.20001220703125</ele>
        <time>2018-12-29T09:56:14Z</time>
      </trkpt>
      <trkpt lat="41.378946080803871" lon="1.352352099493146">
        <ele>402.39999389648437</ele>
        <time>2018-12-29T09:56:15Z</time>
      </trkpt>
      <trkpt lat="41.378990756347775" lon="1.352292168885469">
        <ele>402.60000610351562</ele>
        <time>2018-12-29T09:56:17Z</time>
      </trkpt>
      <trkpt lat="41.379039203748107" lon="1.352230058982968">
        <ele>403.20001220703125</ele>
        <time>2018-12-29T09:56:19Z</time>
      </trkpt>
      <trkpt lat="41.379062505438924" lon="1.352198291569948">
        <ele>403.60000610351562</ele>
        <time>2018-12-29T09:56:20Z</time>
      </trkpt>
      <trkpt lat="41.379086896777153" lon="1.352168787270784">
        <ele>403.79998779296875</ele>
        <time>2018-12-29T09:56:21Z</time>
      </trkpt>
      <trkpt lat="41.37913609854877" lon="1.3521075155586">
        <ele>404</ele>
        <time>2018-12-29T09:56:23Z</time>
      </trkpt>
      <trkpt lat="41.379185300320387" lon="1.352048926055431">
        <ele>404.39999389648438</ele>
        <time>2018-12-29T09:56:25Z</time>
      </trkpt>
      <trkpt lat="41.379209104925394" lon="1.352017745375633">
        <ele>404.60000610351562</ele>
        <time>2018-12-29T09:56:26Z</time>
      </trkpt>
      <trkpt lat="41.379233496263623" lon="1.351986229419708">
        <ele>404.60000610351562</ele>
        <time>2018-12-29T09:56:27Z</time>
      </trkpt>
      <trkpt lat="41.379281524568796" lon="1.351920180022717">
        <ele>404.79998779296875</ele>
        <time>2018-12-29T09:56:29Z</time>
      </trkpt>
      <trkpt lat="41.379305329173803" lon="1.351886065676808">
        <ele>404.79998779296875</ele>
        <time>2018-12-29T09:56:30Z</time>
      </trkpt>
      <trkpt lat="41.379329133778811" lon="1.3518519513309">
        <ele>405</ele>
        <time>2018-12-29T09:56:31Z</time>
      </trkpt>
      <trkpt lat="41.379380263388157" lon="1.351783974096179">
        <ele>405.39999389648437</ele>
        <time>2018-12-29T09:56:33Z</time>
      </trkpt>
      <trkpt lat="41.379406414926052" lon="1.351748015731573">
        <ele>405.60000610351562</ele>
        <time>2018-12-29T09:56:34Z</time>
      </trkpt>
      <trkpt lat="41.379431644454598" lon="1.351711889728904">
        <ele>405.79998779296875</ele>
        <time>2018-12-29T09:56:35Z</time>
      </trkpt>
      <trkpt lat="41.379477912560105" lon="1.351641565561295">
        <ele>406.39999389648437</ele>
        <time>2018-12-29T09:56:37Z</time>
      </trkpt>
      <trkpt lat="41.379522420465946" lon="1.351576270535588">
        <ele>407</ele>
        <time>2018-12-29T09:56:39Z</time>
      </trkpt>
      <trkpt lat="41.379568018019199" lon="1.351509047672153">
        <ele>407.60000610351562</ele>
        <time>2018-12-29T09:56:41Z</time>
      </trkpt>
      <trkpt lat="41.379614537581801" lon="1.351435454562306">
        <ele>407.79998779296875</ele>
        <time>2018-12-29T09:56:43Z</time>
      </trkpt>
      <trkpt lat="41.37965795584023" lon="1.351366052404046">
        <ele>408</ele>
        <time>2018-12-29T09:56:45Z</time>
      </trkpt>
      <trkpt lat="41.379705481231213" lon="1.351295560598373">
        <ele>408.39999389648437</ele>
        <time>2018-12-29T09:56:47Z</time>
      </trkpt>
      <trkpt lat="41.379749234765768" lon="1.351222135126591">
        <ele>408.79998779296875</ele>
        <time>2018-12-29T09:56:49Z</time>
      </trkpt>
      <trkpt lat="41.379771446809173" lon="1.351185757666826">
        <ele>408.79998779296875</ele>
        <time>2018-12-29T09:56:50Z</time>
      </trkpt>
      <trkpt lat="41.379790138453245" lon="1.351146446540952">
        <ele>409</ele>
        <time>2018-12-29T09:56:51Z</time>
      </trkpt>
      <trkpt lat="41.379831293597817" lon="1.351068913936615">
        <ele>409.20001220703125</ele>
        <time>2018-12-29T09:56:53Z</time>
      </trkpt>
      <trkpt lat="41.379871442914009" lon="1.350992638617754">
        <ele>409.60000610351562</ele>
        <time>2018-12-29T09:56:55Z</time>
      </trkpt>
      <trkpt lat="41.37989055365324" lon="1.35095383040607">
        <ele>410</ele>
        <time>2018-12-29T09:56:56Z</time>
      </trkpt>
      <trkpt lat="41.379910418763757" lon="1.350917620584369">
        <ele>410.20001220703125</ele>
        <time>2018-12-29T09:56:57Z</time>
      </trkpt>
      <trkpt lat="41.379928775131702" lon="1.350878309458494">
        <ele>410.39999389648438</ele>
        <time>2018-12-29T09:56:58Z</time>
      </trkpt>
      <trkpt lat="41.379946628585458" lon="1.350841345265508">
        <ele>410.39999389648438</ele>
        <time>2018-12-29T09:56:59Z</time>
      </trkpt>
      <trkpt lat="41.379983425140381" lon="1.350767333060503">
        <ele>410.60000610351562</ele>
        <time>2018-12-29T09:57:01Z</time>
      </trkpt>
      <trkpt lat="41.380019634962082" lon="1.350689213722944">
        <ele>411.20001220703125</ele>
        <time>2018-12-29T09:57:03Z</time>
      </trkpt>
      <trkpt lat="41.380036482587457" lon="1.350650154054165">
        <ele>411.39999389648437</ele>
        <time>2018-12-29T09:57:04Z</time>
      </trkpt>
      <trkpt lat="41.380052408203483" lon="1.350608747452498">
        <ele>411.60000610351562</ele>
        <time>2018-12-29T09:57:05Z</time>
      </trkpt>
      <trkpt lat="41.380089875310659" lon="1.350531131029129">
        <ele>411.79998779296875</ele>
        <time>2018-12-29T09:57:07Z</time>
      </trkpt>
      <trkpt lat="41.380124995484948" lon="1.350449826568365">
        <ele>412.20001220703125</ele>
        <time>2018-12-29T09:57:09Z</time>
      </trkpt>
      <trkpt lat="41.380158858373761" lon="1.350370282307267">
        <ele>412.39999389648437</ele>
        <time>2018-12-29T09:57:11Z</time>
      </trkpt>
      <trkpt lat="41.380186099559069" lon="1.350289480760694">
        <ele>412.60000610351562</ele>
        <time>2018-12-29T09:57:13Z</time>
      </trkpt>
      <trkpt lat="41.380199007689953" lon="1.350248660892248">
        <ele>412.60000610351562</ele>
        <time>2018-12-29T09:57:14Z</time>
      </trkpt>
      <trkpt lat="41.380213256925344" lon="1.350209852680564">
        <ele>412.60000610351562</ele>
        <time>2018-12-29T09:57:15Z</time>
      </trkpt>
      <trkpt lat="41.380243012681603" lon="1.350130727514625">
        <ele>413</ele>
        <time>2018-12-29T09:57:17Z</time>
      </trkpt>
      <trkpt lat="41.380270253866911" lon="1.350057385861874">
        <ele>413.39999389648437</ele>
        <time>2018-12-29T09:57:19Z</time>
      </trkpt>
      <trkpt lat="41.380294226109982" lon="1.349978428333998">
        <ele>413.60000610351562</ele>
        <time>2018-12-29T09:57:21Z</time>
      </trkpt>
      <trkpt lat="41.380318449810147" lon="1.349900141358376">
        <ele>414</ele>
        <time>2018-12-29T09:57:23Z</time>
      </trkpt>
      <trkpt lat="41.380340410396457" lon="1.349826380610466">
        <ele>414.20001220703125</ele>
        <time>2018-12-29T09:57:25Z</time>
      </trkpt>
      <trkpt lat="41.380351642146707" lon="1.349787572398782">
        <ele>414.79998779296875</ele>
        <time>2018-12-29T09:57:26Z</time>
      </trkpt>
      <trkpt lat="41.380360024049878" lon="1.349744740873575">
        <ele>415</ele>
        <time>2018-12-29T09:57:27Z</time>
      </trkpt>
      <trkpt lat="41.380385169759393" lon="1.349667459726334">
        <ele>415.39999389648437</ele>
        <time>2018-12-29T09:57:29Z</time>
      </trkpt>
      <trkpt lat="41.380396652966738" lon="1.349626388400793">
        <ele>415.79998779296875</ele>
        <time>2018-12-29T09:57:30Z</time>
      </trkpt>
      <trkpt lat="41.380407968536019" lon="1.349586322903633">
        <ele>416.20001220703125</ele>
        <time>2018-12-29T09:57:31Z</time>
      </trkpt>
      <trkpt lat="41.38043194077909" lon="1.349508371204138">
        <ele>416.39999389648437</ele>
        <time>2018-12-29T09:57:33Z</time>
      </trkpt>
      <trkpt lat="41.380447028204799" lon="1.349428072571755">
        <ele>416.79998779296875</ele>
        <time>2018-12-29T09:57:35Z</time>
      </trkpt>
      <trkpt lat="41.380453398451209" lon="1.349388342350721">
        <ele>417</ele>
        <time>2018-12-29T09:57:36Z</time>
      </trkpt>
      <trkpt lat="41.380461361259222" lon="1.349347857758403">
        <ele>417</ele>
        <time>2018-12-29T09:57:37Z</time>
      </trkpt>
      <trkpt lat="41.380476951599121" lon="1.349266050383449">
        <ele>417.20001220703125</ele>
        <time>2018-12-29T09:57:39Z</time>
      </trkpt>
      <trkpt lat="41.380494888871908" lon="1.349189439788461">
        <ele>417.60000610351562</ele>
        <time>2018-12-29T09:57:41Z</time>
      </trkpt>
      <trkpt lat="41.38051307760179" lon="1.349107213318348">
        <ele>418</ele>
        <time>2018-12-29T09:57:43Z</time>
      </trkpt>
      <trkpt lat="41.380528667941689" lon="1.34902817197144">
        <ele>418.20001220703125</ele>
        <time>2018-12-29T09:57:45Z</time>
      </trkpt>
      <trkpt lat="41.380538726225495" lon="1.348944269120693">
        <ele>418.60000610351562</ele>
        <time>2018-12-29T09:57:47Z</time>
      </trkpt>
      <trkpt lat="41.380549622699618" lon="1.348864641040564">
        <ele>419.20001220703125</ele>
        <time>2018-12-29T09:57:49Z</time>
      </trkpt>
      <trkpt lat="41.380559345707297" lon="1.348785180598497">
        <ele>419.60000610351562</ele>
        <time>2018-12-29T09:57:51Z</time>
      </trkpt>
      <trkpt lat="41.380566386505961" lon="1.348704462870956">
        <ele>420</ele>
        <time>2018-12-29T09:57:53Z</time>
      </trkpt>
      <trkpt lat="41.380571499466896" lon="1.348661882802844">
        <ele>420.20001220703125</ele>
        <time>2018-12-29T09:57:54Z</time>
      </trkpt>
      <trkpt lat="41.380577869713306" lon="1.348622990772128">
        <ele>420.39999389648437</ele>
        <time>2018-12-29T09:57:55Z</time>
      </trkpt>
      <trkpt lat="41.380586754530668" lon="1.348543781787157">
        <ele>420.79998779296875</ele>
        <time>2018-12-29T09:57:57Z</time>
      </trkpt>
      <trkpt lat="41.380594717338681" lon="1.34846574626863">
        <ele>421.20001220703125</ele>
        <time>2018-12-29T09:57:59Z</time>
      </trkpt>
      <trkpt lat="41.380596309900284" lon="1.348387794569135">
        <ele>421.60000610351562</ele>
        <time>2018-12-29T09:58:01Z</time>
      </trkpt>
      <trkpt lat="41.380604356527328" lon="1.348318057134748">
        <ele>421.79998779296875</ele>
        <time>2018-12-29T09:58:03Z</time>
      </trkpt>
      <trkpt lat="41.380611984059215" lon="1.348245972767472">
        <ele>422</ele>
        <time>2018-12-29T09:58:05Z</time>
      </trkpt>
      <trkpt lat="41.38061516918242" lon="1.348172463476658">
        <ele>422.20001220703125</ele>
        <time>2018-12-29T09:58:07Z</time>
      </trkpt>
      <trkpt lat="41.380620282143354" lon="1.348104486241937">
        <ele>422.60000610351562</ele>
        <time>2018-12-29T09:58:09Z</time>
      </trkpt>
      <trkpt lat="41.380618019029498" lon="1.348031647503376">
        <ele>422.79998779296875</ele>
        <time>2018-12-29T09:58:11Z</time>
      </trkpt>
      <trkpt lat="41.380624221637845" lon="1.347961658611894">
        <ele>423</ele>
        <time>2018-12-29T09:58:14Z</time>
      </trkpt>
      <trkpt lat="41.380627658218145" lon="1.347891502082348">
        <ele>423.39999389648437</ele>
        <time>2018-12-29T09:58:16Z</time>
      </trkpt>
      <trkpt lat="41.380626065656543" lon="1.347820172086358">
        <ele>423.60000610351562</ele>
        <time>2018-12-29T09:58:18Z</time>
      </trkpt>
      <trkpt lat="41.380626987665892" lon="1.347743310034275">
        <ele>424</ele>
        <time>2018-12-29T09:58:20Z</time>
      </trkpt>
      <trkpt lat="41.380627742037177" lon="1.347671896219254">
        <ele>424.39999389648438</ele>
        <time>2018-12-29T09:58:22Z</time>
      </trkpt>
      <trkpt lat="41.380627490580082" lon="1.347601572051644">
        <ele>425.20001220703125</ele>
        <time>2018-12-29T09:58:24Z</time>
      </trkpt>
      <trkpt lat="41.380628412589431" lon="1.347533091902733">
        <ele>425.60000610351562</ele>
        <time>2018-12-29T09:58:26Z</time>
      </trkpt>
      <trkpt lat="41.380627322942019" lon="1.34746503084898">
        <ele>425.79998779296875</ele>
        <time>2018-12-29T09:58:28Z</time>
      </trkpt>
      <trkpt lat="41.380624724552035" lon="1.347394119948149">
        <ele>426</ele>
        <time>2018-12-29T09:58:30Z</time>
      </trkpt>
      <trkpt lat="41.380620701238513" lon="1.347321532666683">
        <ele>426.20001220703125</ele>
        <time>2018-12-29T09:58:32Z</time>
      </trkpt>
      <trkpt lat="41.380616426467896" lon="1.347249615937471">
        <ele>426.60000610351562</ele>
        <time>2018-12-29T09:58:34Z</time>
      </trkpt>
      <trkpt lat="41.380611984059215" lon="1.347177531570196">
        <ele>427</ele>
        <time>2018-12-29T09:58:36Z</time>
      </trkpt>
      <trkpt lat="41.380606116726995" lon="1.347105698660016">
        <ele>427.39999389648438</ele>
        <time>2018-12-29T09:58:38Z</time>
      </trkpt>
      <trkpt lat="41.380600249394774" lon="1.347032021731138">
        <ele>427.79998779296875</ele>
        <time>2018-12-29T09:58:40Z</time>
      </trkpt>
      <trkpt lat="41.380595890805125" lon="1.346995057538152">
        <ele>427.79998779296875</ele>
        <time>2018-12-29T09:58:41Z</time>
      </trkpt>
      <trkpt lat="41.380590610206127" lon="1.346957422792912">
        <ele>428.20001220703125</ele>
        <time>2018-12-29T09:58:42Z</time>
      </trkpt>
      <trkpt lat="41.38058147393167" lon="1.346893887966871">
        <ele>428.60000610351562</ele>
        <time>2018-12-29T09:58:44Z</time>
      </trkpt>
      <trkpt lat="41.380573762580752" lon="1.346828006207943">
        <ele>428.79998779296875</ele>
        <time>2018-12-29T09:58:46Z</time>
      </trkpt>
      <trkpt lat="41.380563452839851" lon="1.346757262945175">
        <ele>429.20001220703125</ele>
        <time>2018-12-29T09:58:48Z</time>
      </trkpt>
      <trkpt lat="41.380548868328333" lon="1.34668031707406">
        <ele>429.39999389648437</ele>
        <time>2018-12-29T09:58:50Z</time>
      </trkpt>
      <trkpt lat="41.380537552759051" lon="1.346598509699106">
        <ele>429.79998779296875</ele>
        <time>2018-12-29T09:58:52Z</time>
      </trkpt>
      <trkpt lat="41.380531685426831" lon="1.346560372039676">
        <ele>430</ele>
        <time>2018-12-29T09:58:53Z</time>
      </trkpt>
      <trkpt lat="41.38052623718977" lon="1.346525503322482">
        <ele>430.39999389648437</ele>
        <time>2018-12-29T09:58:54Z</time>
      </trkpt>
      <trkpt lat="41.380513748154044" lon="1.346452329307795">
        <ele>430.60000610351562</ele>
        <time>2018-12-29T09:58:56Z</time>
      </trkpt>
      <trkpt lat="41.380497738718987" lon="1.346374712884426">
        <ele>430.79998779296875</ele>
        <time>2018-12-29T09:58:58Z</time>
      </trkpt>
      <trkpt lat="41.380480639636517" lon="1.346301706507802">
        <ele>430.79998779296875</ele>
        <time>2018-12-29T09:59:00Z</time>
      </trkpt>
      <trkpt lat="41.380462450906634" lon="1.346228364855051">
        <ele>431.20001220703125</ele>
        <time>2018-12-29T09:59:02Z</time>
      </trkpt>
      <trkpt lat="41.380446944385767" lon="1.346155945211649">
        <ele>431.79998779296875</ele>
        <time>2018-12-29T09:59:04Z</time>
      </trkpt>
      <trkpt lat="41.380428839474916" lon="1.346082184463739">
        <ele>432</ele>
        <time>2018-12-29T09:59:06Z</time>
      </trkpt>
      <trkpt lat="41.380418613553047" lon="1.346046142280102">
        <ele>432.20001220703125</ele>
        <time>2018-12-29T09:59:07Z</time>
      </trkpt>
      <trkpt lat="41.380409393459558" lon="1.34600599296391">
        <ele>432.39999389648437</ele>
        <time>2018-12-29T09:59:08Z</time>
      </trkpt>
      <trkpt lat="41.380388103425503" lon="1.345930639654398">
        <ele>432.79998779296875</ele>
        <time>2018-12-29T09:59:10Z</time>
      </trkpt>
      <trkpt lat="41.380364717915654" lon="1.345854364335537">
        <ele>433.20001220703125</ele>
        <time>2018-12-29T09:59:12Z</time>
      </trkpt>
      <trkpt lat="41.380343427881598" lon="1.345775993540883">
        <ele>433.39999389648437</ele>
        <time>2018-12-29T09:59:14Z</time>
      </trkpt>
      <trkpt lat="41.380325155332685" lon="1.345703238621354">
        <ele>433.79998779296875</ele>
        <time>2018-12-29T09:59:16Z</time>
      </trkpt>
      <trkpt lat="41.380308475345373" lon="1.345625706017017">
        <ele>433.79998779296875</ele>
        <time>2018-12-29T09:59:18Z</time>
      </trkpt>
      <trkpt lat="41.380284251645207" lon="1.345551358535886">
        <ele>434.20001220703125</ele>
        <time>2018-12-29T09:59:20Z</time>
      </trkpt>
      <trkpt lat="41.380258519202471" lon="1.345475250855088">
        <ele>434.39999389648437</ele>
        <time>2018-12-29T09:59:22Z</time>
      </trkpt>
      <trkpt lat="41.380244186148047" lon="1.345435352995992">
        <ele>434.39999389648437</ele>
        <time>2018-12-29T09:59:23Z</time>
      </trkpt>
      <trkpt lat="41.380227422341704" lon="1.345396041870117">
        <ele>434.39999389648437</ele>
        <time>2018-12-29T09:59:24Z</time>
      </trkpt>
      <trkpt lat="41.380200181156397" lon="1.345313563942909">
        <ele>434.79998779296875</ele>
        <time>2018-12-29T09:59:26Z</time>
      </trkpt>
      <trkpt lat="41.380171934142709" lon="1.345227565616369">
        <ele>435.20001220703125</ele>
        <time>2018-12-29T09:59:28Z</time>
      </trkpt>
      <trkpt lat="41.380140921100974" lon="1.345137879252434">
        <ele>435.39999389648437</ele>
        <time>2018-12-29T09:59:30Z</time>
      </trkpt>
      <trkpt lat="41.380105381831527" lon="1.345049366354942">
        <ele>435.60000610351562</ele>
        <time>2018-12-29T09:59:32Z</time>
      </trkpt>
      <trkpt lat="41.380071602761745" lon="1.344959596171975">
        <ele>435.79998779296875</ele>
        <time>2018-12-29T09:59:34Z</time>
      </trkpt>
      <trkpt lat="41.380038494244218" lon="1.344877369701862">
        <ele>436.20001220703125</ele>
        <time>2018-12-29T09:59:36Z</time>
      </trkpt>
      <trkpt lat="41.380007145926356" lon="1.344797071069479">
        <ele>436.20001220703125</ele>
        <time>2018-12-29T09:59:38Z</time>
      </trkpt>
      <trkpt lat="41.379976384341717" lon="1.344711491838098">
        <ele>436.20001220703125</ele>
        <time>2018-12-29T09:59:40Z</time>
      </trkpt>
      <trkpt lat="41.379961548373103" lon="1.344668995589018">
        <ele>436.39999389648437</ele>
        <time>2018-12-29T09:59:41Z</time>
      </trkpt>
      <trkpt lat="41.379943443462253" lon="1.344626164063811">
        <ele>436.39999389648437</ele>
        <time>2018-12-29T09:59:42Z</time>
      </trkpt>
      <trkpt lat="41.379909161478281" lon="1.344540501013398">
        <ele>436.60000610351562</ele>
        <time>2018-12-29T09:59:44Z</time>
      </trkpt>
      <trkpt lat="41.379871275275946" lon="1.344452910125256">
        <ele>436.79998779296875</ele>
        <time>2018-12-29T09:59:46Z</time>
      </trkpt>
      <trkpt lat="41.379834813997149" lon="1.344363559037447">
        <ele>436.79998779296875</ele>
        <time>2018-12-29T09:59:48Z</time>
      </trkpt>
      <trkpt lat="41.379801873117685" lon="1.344273537397385">
        <ele>437</ele>
        <time>2018-12-29T09:59:50Z</time>
      </trkpt>
      <trkpt lat="41.379770189523697" lon="1.344181504100561">
        <ele>437.39999389648437</ele>
        <time>2018-12-29T09:59:52Z</time>
      </trkpt>
      <trkpt lat="41.379752000793815" lon="1.344134397804737">
        <ele>437.20001220703125</ele>
        <time>2018-12-29T09:59:53Z</time>
      </trkpt>
      <trkpt lat="41.379733392968774" lon="1.344087040051818">
        <ele>437.20001220703125</ele>
        <time>2018-12-29T09:59:54Z</time>
      </trkpt>
      <trkpt lat="41.379693746566772" lon="1.343996012583375">
        <ele>437.20001220703125</ele>
        <time>2018-12-29T09:59:56Z</time>
      </trkpt>
      <trkpt lat="41.37965016067028" lon="1.343898782506585">
        <ele>437.20001220703125</ele>
        <time>2018-12-29T09:59:58Z</time>
      </trkpt>
      <trkpt lat="41.379606910049915" lon="1.343789733946323">
        <ele>437.20001220703125</ele>
        <time>2018-12-29T10:00:00Z</time>
      </trkpt>
      <trkpt lat="41.379585536196828" lon="1.343731479719281">
        <ele>437.20001220703125</ele>
        <time>2018-12-29T10:00:01Z</time>
      </trkpt>
      <trkpt lat="41.379562318325043" lon="1.34367129765451">
        <ele>437</ele>
        <time>2018-12-29T10:00:02Z</time>
      </trkpt>
      <trkpt lat="41.379512697458267" lon="1.343546155840159">
        <ele>436.79998779296875</ele>
        <time>2018-12-29T10:00:04Z</time>
      </trkpt>
      <trkpt lat="41.379462070763111" lon="1.343416487798095">
        <ele>437</ele>
        <time>2018-12-29T10:00:06Z</time>
      </trkpt>
      <trkpt lat="41.379409013316035" lon="1.343283634632826">
        <ele>436.79998779296875</ele>
        <time>2018-12-29T10:00:08Z</time>
      </trkpt>
      <trkpt lat="41.379380347207189" lon="1.343215741217136">
        <ele>436.60000610351562</ele>
        <time>2018-12-29T10:00:09Z</time>
      </trkpt>
      <trkpt lat="41.37935109436512" lon="1.343146255239844">
        <ele>436.39999389648437</ele>
        <time>2018-12-29T10:00:10Z</time>
      </trkpt>
      <trkpt lat="41.3792934268713" lon="1.34300627745688">
        <ele>435.79998779296875</ele>
        <time>2018-12-29T10:00:12Z</time>
      </trkpt>
      <trkpt lat="41.379238273948431" lon="1.342858839780092">
        <ele>435.79998779296875</ele>
        <time>2018-12-29T10:00:14Z</time>
      </trkpt>
      <trkpt lat="41.379177002236247" lon="1.342708552256227">
        <ele>435.79998779296875</ele>
        <time>2018-12-29T10:00:16Z</time>
      </trkpt>
      <trkpt lat="41.379115395247936" lon="1.342558851465583">
        <ele>435.60000610351562</ele>
        <time>2018-12-29T10:00:18Z</time>
      </trkpt>
      <trkpt lat="41.379052614793181" lon="1.342407977208495">
        <ele>435.20001220703125</ele>
        <time>2018-12-29T10:00:20Z</time>
      </trkpt>
      <trkpt lat="41.378989666700363" lon="1.342250481247902">
        <ele>434.79998779296875</ele>
        <time>2018-12-29T10:00:22Z</time>
      </trkpt>
      <trkpt lat="41.378925796598196" lon="1.342093991115689">
        <ele>434.79998779296875</ele>
        <time>2018-12-29T10:00:24Z</time>
      </trkpt>
      <trkpt lat="41.3788634352386" lon="1.341932974755764">
        <ele>434.60000610351562</ele>
        <time>2018-12-29T10:00:26Z</time>
      </trkpt>
      <trkpt lat="41.378800487145782" lon="1.341771706938744">
        <ele>434.60000610351562</ele>
        <time>2018-12-29T10:00:28Z</time>
      </trkpt>
      <trkpt lat="41.378768384456635" lon="1.341692749410868">
        <ele>434.60000610351562</ele>
        <time>2018-12-29T10:00:29Z</time>
      </trkpt>
      <trkpt lat="41.378736952319741" lon="1.341616725549102">
        <ele>434.20001220703125</ele>
        <time>2018-12-29T10:00:30Z</time>
      </trkpt>
      <trkpt lat="41.378671992570162" lon="1.341461660340428">
        <ele>433.79998779296875</ele>
        <time>2018-12-29T10:00:32Z</time>
      </trkpt>
      <trkpt lat="41.378609547391534" lon="1.34130441583693">
        <ele>434</ele>
        <time>2018-12-29T10:00:34Z</time>
      </trkpt>
      <trkpt lat="41.378547437489033" lon="1.341141723096371">
        <ele>433.79998779296875</ele>
        <time>2018-12-29T10:00:36Z</time>
      </trkpt>
      <trkpt lat="41.378514748066664" lon="1.341057820245624">
        <ele>433.60000610351562</ele>
        <time>2018-12-29T10:00:37Z</time>
      </trkpt>
      <trkpt lat="41.378483148291707" lon="1.340973246842623">
        <ele>433.60000610351562</ele>
        <time>2018-12-29T10:00:38Z</time>
      </trkpt>
      <trkpt lat="41.37841735035181" lon="1.340806698426604">
        <ele>432.79998779296875</ele>
        <time>2018-12-29T10:00:40Z</time>
      </trkpt>
      <trkpt lat="41.378348870202899" lon="1.340639898553491">
        <ele>432.39999389648437</ele>
        <time>2018-12-29T10:00:42Z</time>
      </trkpt>
      <trkpt lat="41.378280641511083" lon="1.34047326631844">
        <ele>432.79998779296875</ele>
        <time>2018-12-29T10:00:44Z</time>
      </trkpt>
      <trkpt lat="41.378214843571186" lon="1.340304287150502">
        <ele>432.60000610351562</ele>
        <time>2018-12-29T10:00:46Z</time>
      </trkpt>
      <trkpt lat="41.37815055437386" lon="1.340144779533148">
        <ele>433</ele>
        <time>2018-12-29T10:00:48Z</time>
      </trkpt>
      <trkpt lat="41.378090288490057" lon="1.339986110106111">
        <ele>433.39999389648437</ele>
        <time>2018-12-29T10:00:50Z</time>
      </trkpt>
      <trkpt lat="41.378027591854334" lon="1.339834900572896">
        <ele>433.39999389648437</ele>
        <time>2018-12-29T10:00:52Z</time>
      </trkpt>
      <trkpt lat="41.377962213009596" lon="1.339679919183254">
        <ele>433.79998779296875</ele>
        <time>2018-12-29T10:00:54Z</time>
      </trkpt>
      <trkpt lat="41.377897588536143" lon="1.339521836489439">
        <ele>433.60000610351562</ele>
        <time>2018-12-29T10:00:56Z</time>
      </trkpt>
      <trkpt lat="41.377835813909769" lon="1.339359814301133">
        <ele>433</ele>
        <time>2018-12-29T10:00:58Z</time>
      </trkpt>
      <trkpt lat="41.377777643501759" lon="1.33919988758862">
        <ele>432.39999389648437</ele>
        <time>2018-12-29T10:01:00Z</time>
      </trkpt>
      <trkpt lat="41.377720143646002" lon="1.339050605893135">
        <ele>432</ele>
        <time>2018-12-29T10:01:02Z</time>
      </trkpt>
      <trkpt lat="41.377695081755519" lon="1.338977515697479">
        <ele>432</ele>
        <time>2018-12-29T10:01:03Z</time>
      </trkpt>
      <trkpt lat="41.377666834741831" lon="1.338907526805997">
        <ele>432.20001220703125</ele>
        <time>2018-12-29T10:01:04Z</time>
      </trkpt>
      <trkpt lat="41.37761109508574" lon="1.338763106614351">
        <ele>432</ele>
        <time>2018-12-29T10:01:06Z</time>
      </trkpt>
      <trkpt lat="41.377551415935159" lon="1.338612819090486">
        <ele>432</ele>
        <time>2018-12-29T10:01:08Z</time>
      </trkpt>
      <trkpt lat="41.377490730956197" lon="1.338458424434066">
        <ele>432.39999389648437</ele>
        <time>2018-12-29T10:01:10Z</time>
      </trkpt>
      <trkpt lat="41.377458963543177" lon="1.338381478562951">
        <ele>432.20001220703125</ele>
        <time>2018-12-29T10:01:11Z</time>
      </trkpt>
      <trkpt lat="41.377427112311125" lon="1.338300090283155">
        <ele>432</ele>
        <time>2018-12-29T10:01:12Z</time>
      </trkpt>
      <trkpt lat="41.377395763993263" lon="1.338218366727233">
        <ele>431.79998779296875</ele>
        <time>2018-12-29T10:01:13Z</time>
      </trkpt>
      <trkpt lat="41.377364164218307" lon="1.338135804980993">
        <ele>431.60000610351562</ele>
        <time>2018-12-29T10:01:14Z</time>
      </trkpt>
      <trkpt lat="41.37730129994452" lon="1.33797244168818">
        <ele>431.60000610351562</ele>
        <time>2018-12-29T10:01:16Z</time>
      </trkpt>
      <trkpt lat="41.377236424013972" lon="1.337808491662145">
        <ele>431.60000610351562</ele>
        <time>2018-12-29T10:01:18Z</time>
      </trkpt>
      <trkpt lat="41.377169955521822" lon="1.337644122540951">
        <ele>430.79998779296875</ele>
        <time>2018-12-29T10:01:20Z</time>
      </trkpt>
      <trkpt lat="41.377139361575246" lon="1.337563069537282">
        <ele>430.60000610351562</ele>
        <time>2018-12-29T10:01:21Z</time>
      </trkpt>
      <trkpt lat="41.377106420695782" lon="1.33748285472393">
        <ele>430.60000610351562</ele>
        <time>2018-12-29T10:01:22Z</time>
      </trkpt>
      <trkpt lat="41.377037856727839" lon="1.337321335449815">
        <ele>430.39999389648437</ele>
        <time>2018-12-29T10:01:24Z</time>
      </trkpt>
      <trkpt lat="41.376978764310479" lon="1.337158139795065">
        <ele>429.79998779296875</ele>
        <time>2018-12-29T10:01:26Z</time>
      </trkpt>
      <trkpt lat="41.37694850564003" lon="1.337074236944318">
        <ele>429.60000610351562</ele>
        <time>2018-12-29T10:01:27Z</time>
      </trkpt>
      <trkpt lat="41.376915145665407" lon="1.33699175901711">
        <ele>429.39999389648437</ele>
        <time>2018-12-29T10:01:28Z</time>
      </trkpt>
      <trkpt lat="41.376852951943874" lon="1.336818672716618">
        <ele>429.60000610351562</ele>
        <time>2018-12-29T10:01:30Z</time>
      </trkpt>
      <trkpt lat="41.376785645261407" lon="1.336644245311618">
        <ele>429.39999389648437</ele>
        <time>2018-12-29T10:01:32Z</time>
      </trkpt>
      <trkpt lat="41.376752201467752" lon="1.336553888395429">
        <ele>429</ele>
        <time>2018-12-29T10:01:33Z</time>
      </trkpt>
      <trkpt lat="41.376716159284115" lon="1.336464285850525">
        <ele>428.60000610351562</ele>
        <time>2018-12-29T10:01:34Z</time>
      </trkpt>
      <trkpt lat="41.376680200919509" lon="1.336371582001448">
        <ele>428.39999389648437</ele>
        <time>2018-12-29T10:01:35Z</time>
      </trkpt>
      <trkpt lat="41.3766426499933" lon="1.336278123781085">
        <ele>428</ele>
        <time>2018-12-29T10:01:36Z</time>
      </trkpt>
      <trkpt lat="41.376566290855408" lon="1.336084334179759">
        <ele>427.20001220703125</ele>
        <time>2018-12-29T10:01:38Z</time>
      </trkpt>
      <trkpt lat="41.376488758251071" lon="1.335884928703308">
        <ele>426.79998779296875</ele>
        <time>2018-12-29T10:01:40Z</time>
      </trkpt>
      <trkpt lat="41.376408124342561" lon="1.335686696693301">
        <ele>425.79998779296875</ele>
        <time>2018-12-29T10:01:42Z</time>
      </trkpt>
      <trkpt lat="41.376324137672782" lon="1.335483267903328">
        <ele>425</ele>
        <time>2018-12-29T10:01:44Z</time>
      </trkpt>
      <trkpt lat="41.376284155994654" lon="1.335378494113684">
        <ele>424.39999389648438</ele>
        <time>2018-12-29T10:01:45Z</time>
      </trkpt>
      <trkpt lat="41.37624392285943" lon="1.335274307057262">
        <ele>424</ele>
        <time>2018-12-29T10:01:46Z</time>
      </trkpt>
      <trkpt lat="41.376162366941571" lon="1.33506459183991">
        <ele>423.20001220703125</ele>
        <time>2018-12-29T10:01:48Z</time>
      </trkpt>
      <trkpt lat="41.376121044158936" lon="1.334959650412202">
        <ele>423.20001220703125</ele>
        <time>2018-12-29T10:01:49Z</time>
      </trkpt>
      <trkpt lat="41.376078799366951" lon="1.334856133908033">
        <ele>422.79998779296875</ele>
        <time>2018-12-29T10:01:50Z</time>
      </trkpt>
      <trkpt lat="41.375993806868792" lon="1.334647005423904">
        <ele>421.60000610351562</ele>
        <time>2018-12-29T10:01:52Z</time>
      </trkpt>
      <trkpt lat="41.375910742208362" lon="1.334435949102044">
        <ele>421</ele>
        <time>2018-12-29T10:01:54Z</time>
      </trkpt>
      <trkpt lat="41.375826587900519" lon="1.334227658808231">
        <ele>421</ele>
        <time>2018-12-29T10:01:56Z</time>
      </trkpt>
      <trkpt lat="41.375785432755947" lon="1.334122214466333">
        <ele>420.79998779296875</ele>
        <time>2018-12-29T10:01:57Z</time>
      </trkpt>
      <trkpt lat="41.375745451077819" lon="1.334015009924769">
        <ele>420.60000610351562</ele>
        <time>2018-12-29T10:01:58Z</time>
      </trkpt>
      <trkpt lat="41.375661380589008" lon="1.333800852298737">
        <ele>420</ele>
        <time>2018-12-29T10:02:00Z</time>
      </trkpt>
      <trkpt lat="41.375579992309213" lon="1.333589712157846">
        <ele>419.60000610351562</ele>
        <time>2018-12-29T10:02:02Z</time>
      </trkpt>
      <trkpt lat="41.375540513545275" lon="1.333485692739487">
        <ele>419.20001220703125</ele>
        <time>2018-12-29T10:02:03Z</time>
      </trkpt>
      <trkpt lat="41.375501956790686" lon="1.333382008597255">
        <ele>419</ele>
        <time>2018-12-29T10:02:04Z</time>
      </trkpt>
      <trkpt lat="41.375422244891524" lon="1.333175143226981">
        <ele>418.79998779296875</ele>
        <time>2018-12-29T10:02:06Z</time>
      </trkpt>
      <trkpt lat="41.375344125553966" lon="1.332975821569562">
        <ele>418</ele>
        <time>2018-12-29T10:02:08Z</time>
      </trkpt>
      <trkpt lat="41.375262150540948" lon="1.332777086645365">
        <ele>417.79998779296875</ele>
        <time>2018-12-29T10:02:10Z</time>
      </trkpt>
      <trkpt lat="41.375181348994374" lon="1.332580363377929">
        <ele>417.39999389648437</ele>
        <time>2018-12-29T10:02:12Z</time>
      </trkpt>
      <trkpt lat="41.375107672065496" lon="1.332390177994967">
        <ele>417.20001220703125</ele>
        <time>2018-12-29T10:02:14Z</time>
      </trkpt>
      <trkpt lat="41.375073390081525" lon="1.332294708117843">
        <ele>417</ele>
        <time>2018-12-29T10:02:15Z</time>
      </trkpt>
      <trkpt lat="41.375037599354982" lon="1.332199573516846">
        <ele>416.60000610351562</ele>
        <time>2018-12-29T10:02:16Z</time>
      </trkpt>
      <trkpt lat="41.374962581321597" lon="1.332008633762598">
        <ele>416.39999389648437</ele>
        <time>2018-12-29T10:02:18Z</time>
      </trkpt>
      <trkpt lat="41.37489234097302" lon="1.331820711493492">
        <ele>416.20001220703125</ele>
        <time>2018-12-29T10:02:20Z</time>
      </trkpt>
      <trkpt lat="41.374818831682205" lon="1.331631783396006">
        <ele>415.79998779296875</ele>
        <time>2018-12-29T10:02:22Z</time>
      </trkpt>
      <trkpt lat="41.374781532213092" lon="1.331537235528231">
        <ele>415.60000610351562</ele>
        <time>2018-12-29T10:02:23Z</time>
      </trkpt>
      <trkpt lat="41.374742640182376" lon="1.331443442031741">
        <ele>415.20001220703125</ele>
        <time>2018-12-29T10:02:24Z</time>
      </trkpt>
      <trkpt lat="41.374669298529625" lon="1.33125526830554">
        <ele>414.60000610351562</ele>
        <time>2018-12-29T10:02:26Z</time>
      </trkpt>
      <trkpt lat="41.374594196677208" lon="1.3310691062361">
        <ele>413.79998779296875</ele>
        <time>2018-12-29T10:02:28Z</time>
      </trkpt>
      <trkpt lat="41.374518340453506" lon="1.330879591405392">
        <ele>413.60000610351562</ele>
        <time>2018-12-29T10:02:30Z</time>
      </trkpt>
      <trkpt lat="41.374441729858518" lon="1.330695021897554">
        <ele>413.39999389648437</ele>
        <time>2018-12-29T10:02:32Z</time>
      </trkpt>
      <trkpt lat="41.374369477853179" lon="1.330505423247814">
        <ele>412.79998779296875</ele>
        <time>2018-12-29T10:02:34Z</time>
      </trkpt>
      <trkpt lat="41.374333519488573" lon="1.330407941713929">
        <ele>412.79998779296875</ele>
        <time>2018-12-29T10:02:35Z</time>
      </trkpt>
      <trkpt lat="41.374295633286238" lon="1.330319847911596">
        <ele>412.60000610351562</ele>
        <time>2018-12-29T10:02:36Z</time>
      </trkpt>
      <trkpt lat="41.374235115945339" lon="1.330168470740318">
        <ele>412.39999389648437</ele>
        <time>2018-12-29T10:02:38Z</time>
      </trkpt>
      <trkpt lat="41.374207790941" lon="1.330100744962692">
        <ele>412.39999389648437</ele>
        <time>2018-12-29T10:02:39Z</time>
      </trkpt>
      <trkpt lat="41.374182309955359" lon="1.330032013356686">
        <ele>412</ele>
        <time>2018-12-29T10:02:40Z</time>
      </trkpt>
      <trkpt lat="41.374154901131988" lon="1.329924641177058">
        <ele>412</ele>
        <time>2018-12-29T10:02:42Z</time>
      </trkpt>
      <trkpt lat="41.374165629968047" lon="1.329887174069881">
        <ele>412</ele>
        <time>2018-12-29T10:02:43Z</time>
      </trkpt>
      <trkpt lat="41.374188428744674" lon="1.329858507961035">
        <ele>412</ele>
        <time>2018-12-29T10:02:44Z</time>
      </trkpt>
      <trkpt lat="41.374238636344671" lon="1.329837134107947">
        <ele>412.20001220703125</ele>
        <time>2018-12-29T10:02:46Z</time>
      </trkpt>
      <trkpt lat="41.374272834509611" lon="1.329839900135994">
        <ele>412.60000610351562</ele>
        <time>2018-12-29T10:02:48Z</time>
      </trkpt>
      <trkpt lat="41.374278785660863" lon="1.329839732497931">
        <ele>412.79998779296875</ele>
        <time>2018-12-29T10:02:50Z</time>
      </trkpt>
      <trkpt lat="41.374331088736653" lon="1.329839983955026">
        <ele>413.39999389648437</ele>
        <time>2018-12-29T10:09:26Z</time>
      </trkpt>
      <trkpt lat="41.374349109828472" lon="1.32984509691596">
        <ele>413.39999389648437</ele>
        <time>2018-12-29T10:09:27Z</time>
      </trkpt>
      <trkpt lat="41.374367047101259" lon="1.32984803058207">
        <ele>413.60000610351562</ele>
        <time>2018-12-29T10:09:28Z</time>
      </trkpt>
      <trkpt lat="41.374406358227134" lon="1.329860268160701">
        <ele>413.79998779296875</ele>
        <time>2018-12-29T10:09:30Z</time>
      </trkpt>
      <trkpt lat="41.374441478401423" lon="1.329865800216794">
        <ele>414</ele>
        <time>2018-12-29T10:09:32Z</time>
      </trkpt>
      <trkpt lat="41.374471569433808" lon="1.3298724219203">
        <ele>414.20001220703125</ele>
        <time>2018-12-29T10:09:34Z</time>
      </trkpt>
      <trkpt lat="41.374510880559683" lon="1.329890191555023">
        <ele>414.39999389648437</ele>
        <time>2018-12-29T10:09:36Z</time>
      </trkpt>
      <trkpt lat="41.374560249969363" lon="1.32989882491529">
        <ele>414.60000610351562</ele>
        <time>2018-12-29T10:09:38Z</time>
      </trkpt>
      <trkpt lat="41.374608613550663" lon="1.329913157969713">
        <ele>414.79998779296875</ele>
        <time>2018-12-29T10:09:40Z</time>
      </trkpt>
      <trkpt lat="41.37465781532228" lon="1.329925060272217">
        <ele>414.79998779296875</ele>
        <time>2018-12-29T10:09:42Z</time>
      </trkpt>
      <trkpt lat="41.374709699302912" lon="1.329931681975722">
        <ele>415</ele>
        <time>2018-12-29T10:09:44Z</time>
      </trkpt>
      <trkpt lat="41.374762170016766" lon="1.329945093020797">
        <ele>415.39999389648437</ele>
        <time>2018-12-29T10:09:46Z</time>
      </trkpt>
      <trkpt lat="41.374813970178366" lon="1.329966969788075">
        <ele>415.60000610351562</ele>
        <time>2018-12-29T10:09:48Z</time>
      </trkpt>
      <trkpt lat="41.374869039282203" lon="1.329975184053183">
        <ele>415.39999389648437</ele>
        <time>2018-12-29T10:09:50Z</time>
      </trkpt>
      <trkpt lat="41.374921007081866" lon="1.329992953687906">
        <ele>415.60000610351562</ele>
        <time>2018-12-29T10:09:52Z</time>
      </trkpt>
      <trkpt lat="41.374970125034451" lon="1.330016758292913">
        <ele>416</ele>
        <time>2018-12-29T10:09:54Z</time>
      </trkpt>
      <trkpt lat="41.375025445595384" lon="1.33003905415535">
        <ele>416</ele>
        <time>2018-12-29T10:09:56Z</time>
      </trkpt>
      <trkpt lat="41.375083113089204" lon="1.330050453543663">
        <ele>416.20001220703125</ele>
        <time>2018-12-29T10:09:58Z</time>
      </trkpt>
      <trkpt lat="41.375139942392707" lon="1.330066630616784">
        <ele>416.60000610351562</ele>
        <time>2018-12-29T10:10:00Z</time>
      </trkpt>
      <trkpt lat="41.375169195234776" lon="1.330073503777385">
        <ele>416.79998779296875</ele>
        <time>2018-12-29T10:10:01Z</time>
      </trkpt>
      <trkpt lat="41.37519970536232" lon="1.330079706385732">
        <ele>416.79998779296875</ele>
        <time>2018-12-29T10:10:02Z</time>
      </trkpt>
      <trkpt lat="41.375260222703218" lon="1.330093117430806">
        <ele>417</ele>
        <time>2018-12-29T10:10:04Z</time>
      </trkpt>
      <trkpt lat="41.375318225473166" lon="1.330106360837817">
        <ele>417.39999389648437</ele>
        <time>2018-12-29T10:10:06Z</time>
      </trkpt>
      <trkpt lat="41.375376228243113" lon="1.330120107159019">
        <ele>417.60000610351562</ele>
        <time>2018-12-29T10:10:08Z</time>
      </trkpt>
      <trkpt lat="41.375405648723245" lon="1.330130333080888">
        <ele>417.79998779296875</ele>
        <time>2018-12-29T10:10:09Z</time>
      </trkpt>
      <trkpt lat="41.375436997041106" lon="1.330139134079218">
        <ele>418</ele>
        <time>2018-12-29T10:10:10Z</time>
      </trkpt>
      <trkpt lat="41.375500531867146" lon="1.330144163221121">
        <ele>418.39999389648437</ele>
        <time>2018-12-29T10:10:12Z</time>
      </trkpt>
      <trkpt lat="41.375562809407711" lon="1.330151036381722">
        <ele>418.60000610351562</ele>
        <time>2018-12-29T10:10:14Z</time>
      </trkpt>
      <trkpt lat="41.375621734187007" lon="1.330161597579718">
        <ele>418.79998779296875</ele>
        <time>2018-12-29T10:10:16Z</time>
      </trkpt>
      <trkpt lat="41.375679150223732" lon="1.330173332244158">
        <ele>419</ele>
        <time>2018-12-29T10:10:18Z</time>
      </trkpt>
      <trkpt lat="41.375741427764297" lon="1.330187162384391">
        <ele>419.20001220703125</ele>
        <time>2018-12-29T10:10:20Z</time>
      </trkpt>
      <trkpt lat="41.375803034752607" lon="1.330200992524624">
        <ele>419.20001220703125</ele>
        <time>2018-12-29T10:10:22Z</time>
      </trkpt>
      <trkpt lat="41.375864977017045" lon="1.33021205663681">
        <ele>419.79998779296875</ele>
        <time>2018-12-29T10:10:24Z</time>
      </trkpt>
      <trkpt lat="41.375895738601685" lon="1.330217337235808">
        <ele>420</ele>
        <time>2018-12-29T10:10:25Z</time>
      </trkpt>
      <trkpt lat="41.375925242900848" lon="1.330224629491568">
        <ele>420.20001220703125</ele>
        <time>2018-12-29T10:10:26Z</time>
      </trkpt>
      <trkpt lat="41.37598492205143" lon="1.330238878726959">
        <ele>420.39999389648437</ele>
        <time>2018-12-29T10:10:28Z</time>
      </trkpt>
      <trkpt lat="41.376048037782311" lon="1.330256396904588">
        <ele>420.79998779296875</ele>
        <time>2018-12-29T10:10:30Z</time>
      </trkpt>
      <trkpt lat="41.376111656427383" lon="1.330270394682884">
        <ele>421</ele>
        <time>2018-12-29T10:10:32Z</time>
      </trkpt>
      <trkpt lat="41.376140909269452" lon="1.330277770757675">
        <ele>421.20001220703125</ele>
        <time>2018-12-29T10:10:33Z</time>
      </trkpt>
      <trkpt lat="41.376171000301838" lon="1.330286152660847">
        <ele>421.20001220703125</ele>
        <time>2018-12-29T10:10:34Z</time>
      </trkpt>
      <trkpt lat="41.37623704969883" lon="1.330303251743317">
        <ele>421.20001220703125</ele>
        <time>2018-12-29T10:10:36Z</time>
      </trkpt>
      <trkpt lat="41.37629765085876" lon="1.330322781577706">
        <ele>421.39999389648437</ele>
        <time>2018-12-29T10:10:38Z</time>
      </trkpt>
      <trkpt lat="41.376357413828373" lon="1.330339880660176">
        <ele>421.79998779296875</ele>
        <time>2018-12-29T10:10:40Z</time>
      </trkpt>
      <trkpt lat="41.376389348879457" lon="1.33034641854465">
        <ele>422</ele>
        <time>2018-12-29T10:10:41Z</time>
      </trkpt>
      <trkpt lat="41.376422625035048" lon="1.330353375524283">
        <ele>422</ele>
        <time>2018-12-29T10:10:42Z</time>
      </trkpt>
      <trkpt lat="41.37645548209548" lon="1.330364607274532">
        <ele>422.20001220703125</ele>
        <time>2018-12-29T10:10:43Z</time>
      </trkpt>
      <trkpt lat="41.376486998051405" lon="1.33036988787353">
        <ele>422.39999389648437</ele>
        <time>2018-12-29T10:10:44Z</time>
      </trkpt>
      <trkpt lat="41.376553298905492" lon="1.330384807661176">
        <ele>422.60000610351562</ele>
        <time>2018-12-29T10:10:46Z</time>
      </trkpt>
      <trkpt lat="41.376621862873435" lon="1.330402158200741">
        <ele>422.60000610351562</ele>
        <time>2018-12-29T10:10:48Z</time>
      </trkpt>
      <trkpt lat="41.376653630286455" lon="1.33040844462812">
        <ele>422.60000610351562</ele>
        <time>2018-12-29T10:10:49Z</time>
      </trkpt>
      <trkpt lat="41.376685732975602" lon="1.330412216484547">
        <ele>422.60000610351562</ele>
        <time>2018-12-29T10:10:50Z</time>
      </trkpt>
      <trkpt lat="41.376745998859406" lon="1.33041825145483">
        <ele>422.79998779296875</ele>
        <time>2018-12-29T10:10:52Z</time>
      </trkpt>
      <trkpt lat="41.376807605847716" lon="1.330422274768353">
        <ele>423</ele>
        <time>2018-12-29T10:10:54Z</time>
      </trkpt>
      <trkpt lat="41.376866698265076" lon="1.330425962805748">
        <ele>423.39999389648437</ele>
        <time>2018-12-29T10:10:56Z</time>
      </trkpt>
      <trkpt lat="41.376893185079098" lon="1.330426800996065">
        <ele>423.39999389648437</ele>
        <time>2018-12-29T10:10:57Z</time>
      </trkpt>
      <trkpt lat="41.376919252797961" lon="1.33042068220675">
        <ele>423.60000610351562</ele>
        <time>2018-12-29T10:10:58Z</time>
      </trkpt>
      <trkpt lat="41.376976249739528" lon="1.330417999997735">
        <ele>423.79998779296875</ele>
        <time>2018-12-29T10:11:00Z</time>
      </trkpt>
      <trkpt lat="41.377031989395618" lon="1.330418922007084">
        <ele>424.20001220703125</ele>
        <time>2018-12-29T10:11:02Z</time>
      </trkpt>
      <trkpt lat="41.377087393775582" lon="1.33042017929256">
        <ele>424.60000610351562</ele>
        <time>2018-12-29T10:11:04Z</time>
      </trkpt>
      <trkpt lat="41.377144977450371" lon="1.330416491255164">
        <ele>424.79998779296875</ele>
        <time>2018-12-29T10:11:06Z</time>
      </trkpt>
      <trkpt lat="41.377204153686762" lon="1.330406852066517">
        <ele>425.20001220703125</ele>
        <time>2018-12-29T10:11:08Z</time>
      </trkpt>
      <trkpt lat="41.377260982990265" lon="1.3303835503757">
        <ele>425.60000610351562</ele>
        <time>2018-12-29T10:11:10Z</time>
      </trkpt>
      <trkpt lat="41.377284033223987" lon="1.330367038026452">
        <ele>425.60000610351562</ele>
        <time>2018-12-29T10:11:11Z</time>
      </trkpt>
      <trkpt lat="41.377306161448359" lon="1.330341305583715">
        <ele>425.79998779296875</ele>
        <time>2018-12-29T10:11:12Z</time>
      </trkpt>
      <trkpt lat="41.377343628555536" lon="1.330275675281882">
        <ele>426</ele>
        <time>2018-12-29T10:11:14Z</time>
      </trkpt>
      <trkpt lat="41.37736139819026" lon="1.330199399963021">
        <ele>426.39999389648437</ele>
        <time>2018-12-29T10:11:16Z</time>
      </trkpt>
      <trkpt lat="41.377366008237004" lon="1.330157490447164">
        <ele>426.60000610351562</ele>
        <time>2018-12-29T10:11:17Z</time>
      </trkpt>
      <trkpt lat="41.377368606626987" lon="1.33011482656002">
        <ele>426.60000610351562</ele>
        <time>2018-12-29T10:11:18Z</time>
      </trkpt>
      <trkpt lat="41.377369193360209" lon="1.330070402473211">
        <ele>426.79998779296875</ele>
        <time>2018-12-29T10:11:19Z</time>
      </trkpt>
      <trkpt lat="41.377366930246353" lon="1.330030001699925">
        <ele>426.79998779296875</ele>
        <time>2018-12-29T10:11:20Z</time>
      </trkpt>
      <trkpt lat="41.377365337684751" lon="1.329944841563702">
        <ele>426.79998779296875</ele>
        <time>2018-12-29T10:11:22Z</time>
      </trkpt>
      <trkpt lat="41.377365840598941" lon="1.329901171848178">
        <ele>427</ele>
        <time>2018-12-29T10:11:23Z</time>
      </trkpt>
      <trkpt lat="41.377367181703448" lon="1.329858172684908">
        <ele>427</ele>
        <time>2018-12-29T10:11:24Z</time>
      </trkpt>
      <trkpt lat="41.37737212702632" lon="1.329774605110288">
        <ele>427.20001220703125</ele>
        <time>2018-12-29T10:11:26Z</time>
      </trkpt>
      <trkpt lat="41.377372378483415" lon="1.329689277336001">
        <ele>426.79998779296875</ele>
        <time>2018-12-29T10:11:28Z</time>
      </trkpt>
      <trkpt lat="41.377372378483415" lon="1.329602692276239">
        <ele>427.20001220703125</ele>
        <time>2018-12-29T10:11:30Z</time>
      </trkpt>
      <trkpt lat="41.377371959388256" lon="1.329515352845192">
        <ele>427.39999389648438</ele>
        <time>2018-12-29T10:11:32Z</time>
      </trkpt>
      <trkpt lat="41.377375731244683" lon="1.329426420852542">
        <ele>427.39999389648438</ele>
        <time>2018-12-29T10:11:34Z</time>
      </trkpt>
      <trkpt lat="41.377391237765551" lon="1.32934327237308">
        <ele>427.20001220703125</ele>
        <time>2018-12-29T10:11:36Z</time>
      </trkpt>
      <trkpt lat="41.377420406788588" lon="1.329274121671915">
        <ele>426.79998779296875</ele>
        <time>2018-12-29T10:11:38Z</time>
      </trkpt>
      <trkpt lat="41.377457287162542" lon="1.329211927950382">
        <ele>427</ele>
        <time>2018-12-29T10:11:40Z</time>
      </trkpt>
      <trkpt lat="41.377508081495762" lon="1.329163815826178">
        <ele>427</ele>
        <time>2018-12-29T10:11:42Z</time>
      </trkpt>
      <trkpt lat="41.377561558037996" lon="1.329124588519335">
        <ele>427.20001220703125</ele>
        <time>2018-12-29T10:11:44Z</time>
      </trkpt>
      <trkpt lat="41.377622745931149" lon="1.329113356769085">
        <ele>427.39999389648438</ele>
        <time>2018-12-29T10:11:46Z</time>
      </trkpt>
      <trkpt lat="41.377687873318791" lon="1.329102041199803">
        <ele>427.39999389648438</ele>
        <time>2018-12-29T10:11:48Z</time>
      </trkpt>
      <trkpt lat="41.37775375507772" lon="1.329096173867583">
        <ele>427.60000610351562</ele>
        <time>2018-12-29T10:11:50Z</time>
      </trkpt>
      <trkpt lat="41.377819301560521" lon="1.329089468345046">
        <ele>427.79998779296875</ele>
        <time>2018-12-29T10:11:52Z</time>
      </trkpt>
      <trkpt lat="41.377855595201254" lon="1.32908770814538">
        <ele>427.79998779296875</ele>
        <time>2018-12-29T10:11:53Z</time>
      </trkpt>
      <trkpt lat="41.377888200804591" lon="1.329081002622843">
        <ele>428.20001220703125</ele>
        <time>2018-12-29T10:11:54Z</time>
      </trkpt>
      <trkpt lat="41.377957183867693" lon="1.329074883833528">
        <ele>428.20001220703125</ele>
        <time>2018-12-29T10:11:56Z</time>
      </trkpt>
      <trkpt lat="41.378020970150828" lon="1.329067926853895">
        <ele>428.60000610351562</ele>
        <time>2018-12-29T10:11:58Z</time>
      </trkpt>
      <trkpt lat="41.37805282138288" lon="1.329063987359405">
        <ele>428.60000610351562</ele>
        <time>2018-12-29T10:11:59Z</time>
      </trkpt>
      <trkpt lat="41.378084672614932" lon="1.329059293493629">
        <ele>428.79998779296875</ele>
        <time>2018-12-29T10:12:00Z</time>
      </trkpt>
      <trkpt lat="41.37811535038054" lon="1.329055018723011">
        <ele>429</ele>
        <time>2018-12-29T10:12:01Z</time>
      </trkpt>
      <trkpt lat="41.378145189955831" lon="1.329057198017836">
        <ele>429</ele>
        <time>2018-12-29T10:12:02Z</time>
      </trkpt>
      <trkpt lat="41.378204869106412" lon="1.329052839428186">
        <ele>429.20001220703125</ele>
        <time>2018-12-29T10:12:04Z</time>
      </trkpt>
      <trkpt lat="41.378266476094723" lon="1.329049821943045">
        <ele>429.60000610351562</ele>
        <time>2018-12-29T10:12:06Z</time>
      </trkpt>
      <trkpt lat="41.378297237679362" lon="1.329045463353396">
        <ele>429.79998779296875</ele>
        <time>2018-12-29T10:12:07Z</time>
      </trkpt>
      <trkpt lat="41.378330094739795" lon="1.329046050086618">
        <ele>430</ele>
        <time>2018-12-29T10:12:08Z</time>
      </trkpt>
      <trkpt lat="41.378392791375518" lon="1.329041691496968">
        <ele>430</ele>
        <time>2018-12-29T10:12:10Z</time>
      </trkpt>
      <trkpt lat="41.378452135249972" lon="1.329032890498638">
        <ele>430.20001220703125</ele>
        <time>2018-12-29T10:12:12Z</time>
      </trkpt>
      <trkpt lat="41.378513742238283" lon="1.329025933519006">
        <ele>430.60000610351562</ele>
        <time>2018-12-29T10:12:14Z</time>
      </trkpt>
      <trkpt lat="41.378574091941118" lon="1.32901830598712">
        <ele>430.39999389648437</ele>
        <time>2018-12-29T10:12:16Z</time>
      </trkpt>
      <trkpt lat="41.378630921244621" lon="1.329018557444215">
        <ele>431</ele>
        <time>2018-12-29T10:12:18Z</time>
      </trkpt>
      <trkpt lat="41.378687918186188" lon="1.329014701768756">
        <ele>431</ele>
        <time>2018-12-29T10:12:20Z</time>
      </trkpt>
      <trkpt lat="41.378746004775167" lon="1.329007493332028">
        <ele>431.20001220703125</ele>
        <time>2018-12-29T10:12:22Z</time>
      </trkpt>
      <trkpt lat="41.378773245960474" lon="1.329005649313331">
        <ele>431</ele>
        <time>2018-12-29T10:12:23Z</time>
      </trkpt>
      <trkpt lat="41.378799313679338" lon="1.329004978761077">
        <ele>431.20001220703125</ele>
        <time>2018-12-29T10:12:24Z</time>
      </trkpt>
      <trkpt lat="41.378851365298033" lon="1.328998608514667">
        <ele>431.39999389648437</ele>
        <time>2018-12-29T10:12:26Z</time>
      </trkpt>
      <trkpt lat="41.378898723050952" lon="1.328990813344717">
        <ele>431.60000610351562</ele>
        <time>2018-12-29T10:12:28Z</time>
      </trkpt>
      <trkpt lat="41.378945745527744" lon="1.328989136964083">
        <ele>431.79998779296875</ele>
        <time>2018-12-29T10:12:30Z</time>
      </trkpt>
      <trkpt lat="41.378972316160798" lon="1.328989388421178">
        <ele>431.79998779296875</ele>
        <time>2018-12-29T10:12:31Z</time>
      </trkpt>
      <trkpt lat="41.378997629508376" lon="1.328987460583448">
        <ele>431.79998779296875</ele>
        <time>2018-12-29T10:12:32Z</time>
      </trkpt>
      <trkpt lat="41.379055297002196" lon="1.32897924631834">
        <ele>432.20001220703125</ele>
        <time>2018-12-29T10:12:34Z</time>
      </trkpt>
      <trkpt lat="41.379112713038921" lon="1.32897287607193">
        <ele>432.39999389648437</ele>
        <time>2018-12-29T10:12:36Z</time>
      </trkpt>
      <trkpt lat="41.379167111590505" lon="1.32896508090198">
        <ele>432.79998779296875</ele>
        <time>2018-12-29T10:12:38Z</time>
      </trkpt>
      <trkpt lat="41.379225868731737" lon="1.328961476683617">
        <ele>433</ele>
        <time>2018-12-29T10:12:40Z</time>
      </trkpt>
      <trkpt lat="41.379253696650267" lon="1.328960973769426">
        <ele>433.20001220703125</ele>
        <time>2018-12-29T10:12:41Z</time>
      </trkpt>
      <trkpt lat="41.379282027482986" lon="1.328955190256238">
        <ele>433.60000610351562</ele>
        <time>2018-12-29T10:12:42Z</time>
      </trkpt>
      <trkpt lat="41.379338605329394" lon="1.328945634886622">
        <ele>433.79998779296875</ele>
        <time>2018-12-29T10:12:44Z</time>
      </trkpt>
      <trkpt lat="41.379395937547088" lon="1.328929122537375">
        <ele>434.20001220703125</ele>
        <time>2018-12-29T10:12:46Z</time>
      </trkpt>
      <trkpt lat="41.379427537322044" lon="1.328921997919679">
        <ele>434.39999389648437</ele>
        <time>2018-12-29T10:12:47Z</time>
      </trkpt>
      <trkpt lat="41.379456454887986" lon="1.32891763933003">
        <ele>434.60000610351562</ele>
        <time>2018-12-29T10:12:48Z</time>
      </trkpt>
      <trkpt lat="41.379513619467616" lon="1.328914035111666">
        <ele>434.79998779296875</ele>
        <time>2018-12-29T10:12:50Z</time>
      </trkpt>
      <trkpt lat="41.379574304446578" lon="1.328904982656241">
        <ele>435.20001220703125</ele>
        <time>2018-12-29T10:12:52Z</time>
      </trkpt>
      <trkpt lat="41.37960372492671" lon="1.328897774219513">
        <ele>435.39999389648437</ele>
        <time>2018-12-29T10:12:53Z</time>
      </trkpt>
      <trkpt lat="41.379631385207176" lon="1.328894505277276">
        <ele>435.60000610351562</ele>
        <time>2018-12-29T10:12:54Z</time>
      </trkpt>
      <trkpt lat="41.37969852425158" lon="1.3288898114115">
        <ele>435.60000610351562</ele>
        <time>2018-12-29T10:12:56Z</time>
      </trkpt>
      <trkpt lat="41.379764154553413" lon="1.328882183879614">
        <ele>436</ele>
        <time>2018-12-29T10:12:58Z</time>
      </trkpt>
      <trkpt lat="41.37982115149498" lon="1.328870449215174">
        <ele>436.39999389648437</ele>
        <time>2018-12-29T10:13:00Z</time>
      </trkpt>
      <trkpt lat="41.379848979413509" lon="1.328868521377444">
        <ele>436.39999389648437</ele>
        <time>2018-12-29T10:13:01Z</time>
      </trkpt>
      <trkpt lat="41.379874795675278" lon="1.328866677358747">
        <ele>436.60000610351562</ele>
        <time>2018-12-29T10:13:02Z</time>
      </trkpt>
      <trkpt lat="41.379920812323689" lon="1.3288639113307">
        <ele>436.79998779296875</ele>
        <time>2018-12-29T10:13:04Z</time>
      </trkpt>
      <trkpt lat="41.379937911406159" lon="1.328865839168429">
        <ele>437.39999389648437</ele>
        <time>2018-12-29T10:13:06Z</time>
      </trkpt>
      <trkpt lat="41.379933133721352" lon="1.328867096453905">
        <ele>437.39999389648437</ele>
        <time>2018-12-29T10:13:07Z</time>
      </trkpt>
      <trkpt lat="41.37999314814806" lon="1.328870700672269">
        <ele>437.39999389648437</ele>
        <time>2018-12-29T10:13:53Z</time>
      </trkpt>
      <trkpt lat="41.380017204210162" lon="1.328866677358747">
        <ele>437.39999389648437</ele>
        <time>2018-12-29T10:13:54Z</time>
      </trkpt>
      <trkpt lat="41.380035728216171" lon="1.328862486407161">
        <ele>437.60000610351562</ele>
        <time>2018-12-29T10:13:55Z</time>
      </trkpt>
      <trkpt lat="41.380058694630861" lon="1.328859804198146">
        <ele>437.60000610351562</ele>
        <time>2018-12-29T10:13:56Z</time>
      </trkpt>
      <trkpt lat="41.380110327154398" lon="1.328854858875275">
        <ele>437.60000610351562</ele>
        <time>2018-12-29T10:13:58Z</time>
      </trkpt>
      <trkpt lat="41.380167072638869" lon="1.32885217666626">
        <ele>437.60000610351562</ele>
        <time>2018-12-29T10:14:00Z</time>
      </trkpt>
      <trkpt lat="41.380231194198132" lon="1.328845554962754">
        <ele>437.60000610351562</ele>
        <time>2018-12-29T10:14:02Z</time>
      </trkpt>
      <trkpt lat="41.380292465910316" lon="1.328839519992471">
        <ele>438</ele>
        <time>2018-12-29T10:14:04Z</time>
      </trkpt>
      <trkpt lat="41.380352228879929" lon="1.328828372061253">
        <ele>438.60000610351562</ele>
        <time>2018-12-29T10:14:06Z</time>
      </trkpt>
      <trkpt lat="41.380412662401795" lon="1.328824264928699">
        <ele>438.60000610351562</ele>
        <time>2018-12-29T10:14:08Z</time>
      </trkpt>
      <trkpt lat="41.380477203056216" lon="1.328822588548064">
        <ele>439</ele>
        <time>2018-12-29T10:14:10Z</time>
      </trkpt>
      <trkpt lat="41.380539732053876" lon="1.328814290463924">
        <ele>439.39999389648437</ele>
        <time>2018-12-29T10:14:12Z</time>
      </trkpt>
      <trkpt lat="41.380602261051536" lon="1.328810518607497">
        <ele>439.60000610351562</ele>
        <time>2018-12-29T10:14:14Z</time>
      </trkpt>
      <trkpt lat="41.380630005151033" lon="1.328804148361087">
        <ele>439.79998779296875</ele>
        <time>2018-12-29T10:14:15Z</time>
      </trkpt>
      <trkpt lat="41.380657581612468" lon="1.328793000429869">
        <ele>440.20001220703125</ele>
        <time>2018-12-29T10:14:16Z</time>
      </trkpt>
      <trkpt lat="41.380711728706956" lon="1.328776655718684">
        <ele>440.39999389648437</ele>
        <time>2018-12-29T10:14:18Z</time>
      </trkpt>
      <trkpt lat="41.380777191370726" lon="1.328781265765429">
        <ele>440.20001220703125</ele>
        <time>2018-12-29T10:14:20Z</time>
      </trkpt>
      <trkpt lat="41.380809042602777" lon="1.328787552192807">
        <ele>440.39999389648437</ele>
        <time>2018-12-29T10:14:21Z</time>
      </trkpt>
      <trkpt lat="41.380841564387083" lon="1.328790737316012">
        <ele>440.60000610351562</ele>
        <time>2018-12-29T10:14:22Z</time>
      </trkpt>
      <trkpt lat="41.380899399518967" lon="1.32878914475441">
        <ele>441</ele>
        <time>2018-12-29T10:14:24Z</time>
      </trkpt>
      <trkpt lat="41.380952121689916" lon="1.328785456717014">
        <ele>441.60000610351562</ele>
        <time>2018-12-29T10:14:26Z</time>
      </trkpt>
      <trkpt lat="41.38098263181746" lon="1.32878134958446">
        <ele>441.60000610351562</ele>
        <time>2018-12-29T10:14:27Z</time>
      </trkpt>
      <trkpt lat="41.381009956821799" lon="1.328777074813843">
        <ele>441.60000610351562</ele>
        <time>2018-12-29T10:14:28Z</time>
      </trkpt>
      <trkpt lat="41.381038455292583" lon="1.328775649890304">
        <ele>441.79998779296875</ele>
        <time>2018-12-29T10:14:29Z</time>
      </trkpt>
      <trkpt lat="41.381066367030144" lon="1.328774057328701">
        <ele>441.79998779296875</ele>
        <time>2018-12-29T10:14:30Z</time>
      </trkpt>
      <trkpt lat="41.381120849400759" lon="1.328772800043225">
        <ele>441.79998779296875</ele>
        <time>2018-12-29T10:14:32Z</time>
      </trkpt>
      <trkpt lat="41.381169715896249" lon="1.328772967681289">
        <ele>442.20001220703125</ele>
        <time>2018-12-29T10:14:34Z</time>
      </trkpt>
      <trkpt lat="41.381212044507265" lon="1.32877497933805">
        <ele>442.39999389648437</ele>
        <time>2018-12-29T10:14:36Z</time>
      </trkpt>
      <trkpt lat="41.381256636232138" lon="1.328770956024528">
        <ele>443</ele>
        <time>2018-12-29T10:14:38Z</time>
      </trkpt>
      <trkpt lat="41.38130122795701" lon="1.328761065378785">
        <ele>443.20001220703125</ele>
        <time>2018-12-29T10:14:40Z</time>
      </trkpt>
      <trkpt lat="41.381346322596073" lon="1.328763915225864">
        <ele>443.39999389648437</ele>
        <time>2018-12-29T10:14:42Z</time>
      </trkpt>
      <trkpt lat="41.381372641772032" lon="1.328752599656582">
        <ele>443.39999389648437</ele>
        <time>2018-12-29T10:14:43Z</time>
      </trkpt>
      <trkpt lat="41.381395440548658" lon="1.328726196661592">
        <ele>443.39999389648437</ele>
        <time>2018-12-29T10:14:44Z</time>
      </trkpt>
      <trkpt lat="41.381432237103581" lon="1.328651765361428">
        <ele>443</ele>
        <time>2018-12-29T10:14:46Z</time>
      </trkpt>
      <trkpt lat="41.381448497995734" lon="1.328608263283968">
        <ele>442.79998779296875</ele>
        <time>2018-12-29T10:14:47Z</time>
      </trkpt>
      <trkpt lat="41.381465177983046" lon="1.328560151159763">
        <ele>442.39999389648437</ele>
        <time>2018-12-29T10:14:48Z</time>
      </trkpt>
      <trkpt lat="41.381507255136967" lon="1.328465603291988">
        <ele>441.79998779296875</ele>
        <time>2018-12-29T10:14:50Z</time>
      </trkpt>
      <trkpt lat="41.381546985358" lon="1.328360494226217">
        <ele>441.60000610351562</ele>
        <time>2018-12-29T10:14:52Z</time>
      </trkpt>
      <trkpt lat="41.381566599011421" lon="1.328295702114701">
        <ele>441.60000610351562</ele>
        <time>2018-12-29T10:14:53Z</time>
      </trkpt>
      <trkpt lat="41.381589733064175" lon="1.328224204480648">
        <ele>441.60000610351562</ele>
        <time>2018-12-29T10:14:54Z</time>
      </trkpt>
      <trkpt lat="41.38163692317903" lon="1.328073833137751">
        <ele>440.79998779296875</ele>
        <time>2018-12-29T10:14:56Z</time>
      </trkpt>
      <trkpt lat="41.381656117737293" lon="1.327994288876653">
        <ele>440.20001220703125</ele>
        <time>2018-12-29T10:14:57Z</time>
      </trkpt>
      <trkpt lat="41.38167941942811" lon="1.327916504815221">
        <ele>440</ele>
        <time>2018-12-29T10:14:58Z</time>
      </trkpt>
      <trkpt lat="41.381736751645803" lon="1.327782394364476">
        <ele>440.20001220703125</ele>
        <time>2018-12-29T10:15:00Z</time>
      </trkpt>
      <trkpt lat="41.381805902346969" lon="1.327696144580841">
        <ele>440.39999389648437</ele>
        <time>2018-12-29T10:15:02Z</time>
      </trkpt>
      <trkpt lat="41.381862731650472" lon="1.327634369954467">
        <ele>441</ele>
        <time>2018-12-29T10:15:04Z</time>
      </trkpt>
      <trkpt lat="41.381894834339619" lon="1.327620036900044">
        <ele>441.79998779296875</ele>
        <time>2018-12-29T10:15:05Z</time>
      </trkpt>
      <trkpt lat="41.381926350295544" lon="1.327610481530428">
        <ele>442</ele>
        <time>2018-12-29T10:15:06Z</time>
      </trkpt>
      <trkpt lat="41.381952334195375" lon="1.327600926160812">
        <ele>442.39999389648437</ele>
        <time>2018-12-29T10:15:07Z</time>
      </trkpt>
      <trkpt lat="41.381976893171668" lon="1.327599249780178">
        <ele>442.20001220703125</ele>
        <time>2018-12-29T10:15:08Z</time>
      </trkpt>
      <trkpt lat="41.3820287771523" lon="1.327587347477675">
        <ele>442.79998779296875</ele>
        <time>2018-12-29T10:15:10Z</time>
      </trkpt>
      <trkpt lat="41.382059957832098" lon="1.327584413811564">
        <ele>443.39999389648437</ele>
        <time>2018-12-29T10:15:11Z</time>
      </trkpt>
      <trkpt lat="41.38208988122642" lon="1.327582569792867">
        <ele>443.39999389648437</ele>
        <time>2018-12-29T10:15:12Z</time>
      </trkpt>
      <trkpt lat="41.382150817662477" lon="1.327586593106389">
        <ele>443.39999389648437</ele>
        <time>2018-12-29T10:15:14Z</time>
      </trkpt>
      <trkpt lat="41.382215190678835" lon="1.327588353306055">
        <ele>443.79998779296875</ele>
        <time>2018-12-29T10:15:16Z</time>
      </trkpt>
      <trkpt lat="41.382243940606713" lon="1.327587179839611">
        <ele>444</ele>
        <time>2018-12-29T10:15:17Z</time>
      </trkpt>
      <trkpt lat="41.382273780182004" lon="1.327588940039277">
        <ele>444</ele>
        <time>2018-12-29T10:15:18Z</time>
      </trkpt>
      <trkpt lat="41.382303535938263" lon="1.32759396918118">
        <ele>444.20001220703125</ele>
        <time>2018-12-29T10:15:19Z</time>
      </trkpt>
      <trkpt lat="41.382328262552619" lon="1.327603608369827">
        <ele>444.60000610351562</ele>
        <time>2018-12-29T10:15:20Z</time>
      </trkpt>
      <trkpt lat="41.382373524829745" lon="1.327636800706387">
        <ele>444.79998779296875</ele>
        <time>2018-12-29T10:15:22Z</time>
      </trkpt>
      <trkpt lat="41.382397748529911" lon="1.327656833454967">
        <ele>445</ele>
        <time>2018-12-29T10:15:23Z</time>
      </trkpt>
      <trkpt lat="41.382421888411045" lon="1.327676614746451">
        <ele>444.79998779296875</ele>
        <time>2018-12-29T10:15:24Z</time>
      </trkpt>
      <trkpt lat="41.382464300841093" lon="1.327730678021908">
        <ele>445</ele>
        <time>2018-12-29T10:15:26Z</time>
      </trkpt>
      <trkpt lat="41.382497074082494" lon="1.327798403799534">
        <ele>444.79998779296875</ele>
        <time>2018-12-29T10:15:28Z</time>
      </trkpt>
      <trkpt lat="41.382528422400355" lon="1.327864872291684">
        <ele>445</ele>
        <time>2018-12-29T10:15:30Z</time>
      </trkpt>
      <trkpt lat="41.382554657757282" lon="1.327932933345437">
        <ele>445</ele>
        <time>2018-12-29T10:15:32Z</time>
      </trkpt>
      <trkpt lat="41.382574690505862" lon="1.328008286654949">
        <ele>445.20001220703125</ele>
        <time>2018-12-29T10:15:34Z</time>
      </trkpt>
      <trkpt lat="41.382598327472806" lon="1.328080287203193">
        <ele>445.60000610351562</ele>
        <time>2018-12-29T10:15:36Z</time>
      </trkpt>
      <trkpt lat="41.382616851478815" lon="1.328144995495677">
        <ele>446</ele>
        <time>2018-12-29T10:15:38Z</time>
      </trkpt>
      <trkpt lat="41.382637973874807" lon="1.328210961073637">
        <ele>446.39999389648437</ele>
        <time>2018-12-29T10:15:40Z</time>
      </trkpt>
      <trkpt lat="41.382656414061785" lon="1.328274244442582">
        <ele>447</ele>
        <time>2018-12-29T10:15:42Z</time>
      </trkpt>
      <trkpt lat="41.382672423496842" lon="1.328338282182813">
        <ele>447.20001220703125</ele>
        <time>2018-12-29T10:15:44Z</time>
      </trkpt>
      <trkpt lat="41.382698323577642" lon="1.328402487561107">
        <ele>447.39999389648438</ele>
        <time>2018-12-29T10:15:46Z</time>
      </trkpt>
      <trkpt lat="41.382723050191998" lon="1.3284598197788">
        <ele>447.79998779296875</ele>
        <time>2018-12-29T10:15:48Z</time>
      </trkpt>
      <trkpt lat="41.382741741836071" lon="1.328525366261601">
        <ele>448</ele>
        <time>2018-12-29T10:15:50Z</time>
      </trkpt>
      <trkpt lat="41.38275439850986" lon="1.328552355989814">
        <ele>448</ele>
        <time>2018-12-29T10:15:51Z</time>
      </trkpt>
      <trkpt lat="41.382761774584651" lon="1.328582111746073">
        <ele>448.20001220703125</ele>
        <time>2018-12-29T10:15:52Z</time>
      </trkpt>
      <trkpt lat="41.382767725735903" lon="1.328629972413182">
        <ele>448.79998779296875</ele>
        <time>2018-12-29T10:15:54Z</time>
      </trkpt>
      <trkpt lat="41.382778203114867" lon="1.328686717897654">
        <ele>449</ele>
        <time>2018-12-29T10:15:56Z</time>
      </trkpt>
      <trkpt lat="41.382793793454766" lon="1.328748660162091">
        <ele>449.20001220703125</ele>
        <time>2018-12-29T10:15:58Z</time>
      </trkpt>
      <trkpt lat="41.382813155651093" lon="1.328812446445227">
        <ele>449.60000610351562</ele>
        <time>2018-12-29T10:16:00Z</time>
      </trkpt>
      <trkpt lat="41.382833775132895" lon="1.32887321524322">
        <ele>450</ele>
        <time>2018-12-29T10:16:02Z</time>
      </trkpt>
      <trkpt lat="41.382855568081141" lon="1.328928116708994">
        <ele>450</ele>
        <time>2018-12-29T10:16:04Z</time>
      </trkpt>
      <trkpt lat="41.382875433191657" lon="1.328984862193465">
        <ele>450.20001220703125</ele>
        <time>2018-12-29T10:16:06Z</time>
      </trkpt>
      <trkpt lat="41.382851712405682" lon="1.329043116420507">
        <ele>450.39999389648437</ele>
        <time>2018-12-29T10:21:07Z</time>
      </trkpt>
      <trkpt lat="41.382840229198337" lon="1.328984191641212">
        <ele>450</ele>
        <time>2018-12-29T10:21:09Z</time>
      </trkpt>
      <trkpt lat="41.382834864780307" lon="1.328919567167759">
        <ele>449.79998779296875</ele>
        <time>2018-12-29T10:21:11Z</time>
      </trkpt>
      <trkpt lat="41.38282815925777" lon="1.328852847218514">
        <ele>449.60000610351562</ele>
        <time>2018-12-29T10:21:13Z</time>
      </trkpt>
      <trkpt lat="41.382825644686818" lon="1.328771961852908">
        <ele>449.20001220703125</ele>
        <time>2018-12-29T10:21:15Z</time>
      </trkpt>
      <trkpt lat="41.382822711020708" lon="1.328718904405832">
        <ele>449</ele>
        <time>2018-12-29T10:21:16Z</time>
      </trkpt>
      <trkpt lat="41.382811395451427" lon="1.328676743432879">
        <ele>448.79998779296875</ele>
        <time>2018-12-29T10:21:17Z</time>
      </trkpt>
      <trkpt lat="41.382789770141244" lon="1.328596360981464">
        <ele>448.39999389648437</ele>
        <time>2018-12-29T10:21:19Z</time>
      </trkpt>
      <trkpt lat="41.382775353267789" lon="1.328556966036558">
        <ele>448.20001220703125</ele>
        <time>2018-12-29T10:21:20Z</time>
      </trkpt>
      <trkpt lat="41.382762361317873" lon="1.328512625768781">
        <ele>448.20001220703125</ele>
        <time>2018-12-29T10:21:21Z</time>
      </trkpt>
      <trkpt lat="41.382749704644084" lon="1.328463591635227">
        <ele>448</ele>
        <time>2018-12-29T10:21:22Z</time>
      </trkpt>
      <trkpt lat="41.382738975808024" lon="1.328419083729386">
        <ele>447.79998779296875</ele>
        <time>2018-12-29T10:21:23Z</time>
      </trkpt>
      <trkpt lat="41.382718104869127" lon="1.328349262475967">
        <ele>447.39999389648438</ele>
        <time>2018-12-29T10:21:25Z</time>
      </trkpt>
      <trkpt lat="41.382708046585321" lon="1.328303078189492">
        <ele>447.60000610351562</ele>
        <time>2018-12-29T10:21:26Z</time>
      </trkpt>
      <trkpt lat="41.382692623883486" lon="1.328254463151097">
        <ele>447</ele>
        <time>2018-12-29T10:21:27Z</time>
      </trkpt>
      <trkpt lat="41.382654653862119" lon="1.328153209760785">
        <ele>446.39999389648437</ele>
        <time>2018-12-29T10:21:29Z</time>
      </trkpt>
      <trkpt lat="41.382635794579983" lon="1.328089088201523">
        <ele>446</ele>
        <time>2018-12-29T10:21:30Z</time>
      </trkpt>
      <trkpt lat="41.38261903077364" lon="1.328025888651609">
        <ele>445.79998779296875</ele>
        <time>2018-12-29T10:21:31Z</time>
      </trkpt>
      <trkpt lat="41.382598914206028" lon="1.32796386256814">
        <ele>445.60000610351562</ele>
        <time>2018-12-29T10:21:32Z</time>
      </trkpt>
      <trkpt lat="41.382585000246763" lon="1.327907117083669">
        <ele>445.60000610351562</ele>
        <time>2018-12-29T10:21:33Z</time>
      </trkpt>
      <trkpt lat="41.38256530277431" lon="1.327851880341768">
        <ele>445.39999389648437</ele>
        <time>2018-12-29T10:21:34Z</time>
      </trkpt>
      <trkpt lat="41.382544348016381" lon="1.327796056866646">
        <ele>445.60000610351562</ele>
        <time>2018-12-29T10:21:35Z</time>
      </trkpt>
      <trkpt lat="41.382518364116549" lon="1.327715674415231">
        <ele>445.60000610351562</ele>
        <time>2018-12-29T10:21:37Z</time>
      </trkpt>
      <trkpt lat="41.382491877302527" lon="1.327648786827922">
        <ele>445.60000610351562</ele>
        <time>2018-12-29T10:21:39Z</time>
      </trkpt>
      <trkpt lat="41.38246513903141" lon="1.327599165961146">
        <ele>445.79998779296875</ele>
        <time>2018-12-29T10:21:41Z</time>
      </trkpt>
      <trkpt lat="41.382452482357621" lon="1.327576031908393">
        <ele>445.79998779296875</ele>
        <time>2018-12-29T10:21:42Z</time>
      </trkpt>
      <trkpt lat="41.382434545084834" lon="1.327558681368828">
        <ele>445.60000610351562</ele>
        <time>2018-12-29T10:21:43Z</time>
      </trkpt>
      <trkpt lat="41.382384924218059" lon="1.327531021088362">
        <ele>445.39999389648437</ele>
        <time>2018-12-29T10:21:45Z</time>
      </trkpt>
      <trkpt lat="41.382321724668145" lon="1.327535295858979">
        <ele>445.39999389648437</ele>
        <time>2018-12-29T10:21:47Z</time>
      </trkpt>
      <trkpt lat="41.382248383015394" lon="1.327532026916742">
        <ele>445</ele>
        <time>2018-12-29T10:21:49Z</time>
      </trkpt>
      <trkpt lat="41.382163977250457" lon="1.327530350536108">
        <ele>444.79998779296875</ele>
        <time>2018-12-29T10:21:51Z</time>
      </trkpt>
      <trkpt lat="41.382126426324248" lon="1.327528422698379">
        <ele>444.60000610351562</ele>
        <time>2018-12-29T10:21:52Z</time>
      </trkpt>
      <trkpt lat="41.382090132683516" lon="1.327526830136776">
        <ele>444</ele>
        <time>2018-12-29T10:21:53Z</time>
      </trkpt>
      <trkpt lat="41.382050989195704" lon="1.327525489032269">
        <ele>443.79998779296875</ele>
        <time>2018-12-29T10:21:54Z</time>
      </trkpt>
      <trkpt lat="41.382010504603386" lon="1.327527752146125">
        <ele>443.60000610351562</ele>
        <time>2018-12-29T10:21:55Z</time>
      </trkpt>
      <trkpt lat="41.381940515711904" lon="1.327532781288028">
        <ele>443</ele>
        <time>2018-12-29T10:21:57Z</time>
      </trkpt>
      <trkpt lat="41.381886871531606" lon="1.327561615034938">
        <ele>442.60000610351562</ele>
        <time>2018-12-29T10:21:59Z</time>
      </trkpt>
      <trkpt lat="41.381867174059153" lon="1.327584581449628">
        <ele>442.79998779296875</ele>
        <time>2018-12-29T10:22:00Z</time>
      </trkpt>
      <trkpt lat="41.381841441616416" lon="1.327616348862648">
        <ele>442.79998779296875</ele>
        <time>2018-12-29T10:22:01Z</time>
      </trkpt>
      <trkpt lat="41.381807746365666" lon="1.327646691352129">
        <ele>442.39999389648437</ele>
        <time>2018-12-29T10:22:02Z</time>
      </trkpt>
      <trkpt lat="41.381777822971344" lon="1.327678458765149">
        <ele>442.20001220703125</ele>
        <time>2018-12-29T10:22:03Z</time>
      </trkpt>
      <trkpt lat="41.381754269823432" lon="1.327731600031257">
        <ele>441.79998779296875</ele>
        <time>2018-12-29T10:22:04Z</time>
      </trkpt>
      <trkpt lat="41.381730046123266" lon="1.327793961390853">
        <ele>441.60000610351562</ele>
        <time>2018-12-29T10:22:05Z</time>
      </trkpt>
      <trkpt lat="41.381704732775688" lon="1.3278519641608">
        <ele>441.39999389648438</ele>
        <time>2018-12-29T10:22:06Z</time>
      </trkpt>
      <trkpt lat="41.381686376407743" lon="1.327913822606206">
        <ele>441.39999389648438</ele>
        <time>2018-12-29T10:22:07Z</time>
      </trkpt>
      <trkpt lat="41.381643796339631" lon="1.328028570860624">
        <ele>441.20001220703125</ele>
        <time>2018-12-29T10:22:09Z</time>
      </trkpt>
      <trkpt lat="41.381609430536628" lon="1.328120855614543">
        <ele>441.39999389648438</ele>
        <time>2018-12-29T10:22:11Z</time>
      </trkpt>
      <trkpt lat="41.381577076390386" lon="1.328199813142419">
        <ele>441.60000610351562</ele>
        <time>2018-12-29T10:22:13Z</time>
      </trkpt>
      <trkpt lat="41.38155578635633" lon="1.328279105946422">
        <ele>442.20001220703125</ele>
        <time>2018-12-29T10:22:15Z</time>
      </trkpt>
      <trkpt lat="41.381530305370688" lon="1.328353621065617">
        <ele>443.20001220703125</ele>
        <time>2018-12-29T10:22:17Z</time>
      </trkpt>
      <trkpt lat="41.38150499202311" lon="1.328420592471957">
        <ele>443.39999389648437</ele>
        <time>2018-12-29T10:22:19Z</time>
      </trkpt>
      <trkpt lat="41.381480265408754" lon="1.328483708202839">
        <ele>443.60000610351562</ele>
        <time>2018-12-29T10:22:21Z</time>
      </trkpt>
      <trkpt lat="41.381457298994064" lon="1.328544477000833">
        <ele>443.79998779296875</ele>
        <time>2018-12-29T10:22:23Z</time>
      </trkpt>
      <trkpt lat="41.381424022838473" lon="1.328596025705338">
        <ele>444.20001220703125</ele>
        <time>2018-12-29T10:22:25Z</time>
      </trkpt>
      <trkpt lat="41.381378592923284" lon="1.328637851402164">
        <ele>444.20001220703125</ele>
        <time>2018-12-29T10:22:27Z</time>
      </trkpt>
      <trkpt lat="41.381333917379379" lon="1.328680347651243">
        <ele>444.20001220703125</ele>
        <time>2018-12-29T10:22:29Z</time>
      </trkpt>
      <trkpt lat="41.381275663152337" lon="1.328694261610508">
        <ele>444.20001220703125</ele>
        <time>2018-12-29T10:22:31Z</time>
      </trkpt>
      <trkpt lat="41.381212798878551" lon="1.328703565523028">
        <ele>444</ele>
        <time>2018-12-29T10:22:33Z</time>
      </trkpt>
      <trkpt lat="41.381179774180055" lon="1.328706750646234">
        <ele>444</ele>
        <time>2018-12-29T10:22:34Z</time>
      </trkpt>
      <trkpt lat="41.381146078929305" lon="1.328712198883295">
        <ele>444</ele>
        <time>2018-12-29T10:22:35Z</time>
      </trkpt>
      <trkpt lat="41.381067205220461" lon="1.328713623806834">
        <ele>444</ele>
        <time>2018-12-29T10:22:37Z</time>
      </trkpt>
      <trkpt lat="41.380983637645841" lon="1.328726364299655">
        <ele>444</ele>
        <time>2018-12-29T10:22:39Z</time>
      </trkpt>
      <trkpt lat="41.38094013556838" lon="1.328731728717685">
        <ele>443.60000610351562</ele>
        <time>2018-12-29T10:22:40Z</time>
      </trkpt>
      <trkpt lat="41.380902249366045" lon="1.328731058165431">
        <ele>443</ele>
        <time>2018-12-29T10:22:41Z</time>
      </trkpt>
      <trkpt lat="41.380819352343678" lon="1.328741116449237">
        <ele>442.60000610351562</ele>
        <time>2018-12-29T10:22:43Z</time>
      </trkpt>
      <trkpt lat="41.380776772275567" lon="1.328753437846899">
        <ele>442.39999389648437</ele>
        <time>2018-12-29T10:22:44Z</time>
      </trkpt>
      <trkpt lat="41.3807353656739" lon="1.328762825578451">
        <ele>442.39999389648437</ele>
        <time>2018-12-29T10:22:45Z</time>
      </trkpt>
      <trkpt lat="41.380693037062883" lon="1.328762993216515">
        <ele>442.20001220703125</ele>
        <time>2018-12-29T10:22:46Z</time>
      </trkpt>
      <trkpt lat="41.380648110061884" lon="1.328764082863927">
        <ele>442</ele>
        <time>2018-12-29T10:22:47Z</time>
      </trkpt>
      <trkpt lat="41.380555992946029" lon="1.32878134958446">
        <ele>441.60000610351562</ele>
        <time>2018-12-29T10:22:49Z</time>
      </trkpt>
      <trkpt lat="41.380463456735015" lon="1.328790988773108">
        <ele>441.39999389648438</ele>
        <time>2018-12-29T10:22:51Z</time>
      </trkpt>
      <trkpt lat="41.380416015163064" lon="1.328795095905662">
        <ele>441</ele>
        <time>2018-12-29T10:22:52Z</time>
      </trkpt>
      <trkpt lat="41.38037234544754" lon="1.328797191381455">
        <ele>440.60000610351562</ele>
        <time>2018-12-29T10:22:53Z</time>
      </trkpt>
      <trkpt lat="41.380272768437862" lon="1.328805908560753">
        <ele>440</ele>
        <time>2018-12-29T10:22:55Z</time>
      </trkpt>
      <trkpt lat="41.38016321696341" lon="1.328818900510669">
        <ele>439.60000610351562</ele>
        <time>2018-12-29T10:22:57Z</time>
      </trkpt>
      <trkpt lat="41.380048552528024" lon="1.328822588548064">
        <ele>439</ele>
        <time>2018-12-29T10:22:59Z</time>
      </trkpt>
      <trkpt lat="41.379987448453903" lon="1.328827366232872">
        <ele>438.79998779296875</ele>
        <time>2018-12-29T10:23:00Z</time>
      </trkpt>
      <trkpt lat="41.379924667999148" lon="1.32883901707828">
        <ele>439</ele>
        <time>2018-12-29T10:23:01Z</time>
      </trkpt>
      <trkpt lat="41.379830874502659" lon="1.328849326819181">
        <ele>438.20001220703125</ele>
        <time>2018-12-29T10:23:03Z</time>
      </trkpt>
      <trkpt lat="41.379729369655252" lon="1.328861899673939">
        <ele>437.79998779296875</ele>
        <time>2018-12-29T10:23:05Z</time>
      </trkpt>
      <trkpt lat="41.379672875627875" lon="1.32886340841651">
        <ele>437.79998779296875</ele>
        <time>2018-12-29T10:23:06Z</time>
      </trkpt>
      <trkpt lat="41.379614705219865" lon="1.328872377052903">
        <ele>437.20001220703125</ele>
        <time>2018-12-29T10:23:07Z</time>
      </trkpt>
      <trkpt lat="41.379506075754762" lon="1.328886793926358">
        <ele>436.39999389648437</ele>
        <time>2018-12-29T10:23:09Z</time>
      </trkpt>
      <trkpt lat="41.379412785172462" lon="1.328892325982451">
        <ele>436.39999389648437</ele>
        <time>2018-12-29T10:23:11Z</time>
      </trkpt>
      <trkpt lat="41.379361487925053" lon="1.328897941857576">
        <ele>436</ele>
        <time>2018-12-29T10:23:12Z</time>
      </trkpt>
      <trkpt lat="41.379307173192501" lon="1.328897103667259">
        <ele>435.60000610351562</ele>
        <time>2018-12-29T10:23:13Z</time>
      </trkpt>
      <trkpt lat="41.379250511527061" lon="1.328889476135373">
        <ele>435</ele>
        <time>2018-12-29T10:23:14Z</time>
      </trkpt>
      <trkpt lat="41.379189239814878" lon="1.328897103667259">
        <ele>434.39999389648437</ele>
        <time>2018-12-29T10:23:15Z</time>
      </trkpt>
      <trkpt lat="41.379123441874981" lon="1.328901126980782">
        <ele>434</ele>
        <time>2018-12-29T10:23:16Z</time>
      </trkpt>
      <trkpt lat="41.379053117707372" lon="1.328909005969763">
        <ele>433.39999389648437</ele>
        <time>2018-12-29T10:23:17Z</time>
      </trkpt>
      <trkpt lat="41.378977848216891" lon="1.328919734805822">
        <ele>432.60000610351562</ele>
        <time>2018-12-29T10:23:18Z</time>
      </trkpt>
      <trkpt lat="41.378903668373823" lon="1.328927781432867">
        <ele>432.60000610351562</ele>
        <time>2018-12-29T10:23:19Z</time>
      </trkpt>
      <trkpt lat="41.378756314516068" lon="1.328943958505988">
        <ele>433.39999389648437</ele>
        <time>2018-12-29T10:23:21Z</time>
      </trkpt>
      <trkpt lat="41.378684900701046" lon="1.328953178599477">
        <ele>433.20001220703125</ele>
        <time>2018-12-29T10:23:22Z</time>
      </trkpt>
      <trkpt lat="41.37861181050539" lon="1.328959297388792">
        <ele>432.39999389648437</ele>
        <time>2018-12-29T10:23:23Z</time>
      </trkpt>
      <trkpt lat="41.378538804128766" lon="1.32896700873971">
        <ele>432</ele>
        <time>2018-12-29T10:23:24Z</time>
      </trkpt>
      <trkpt lat="41.378465797752142" lon="1.32897287607193">
        <ele>431.60000610351562</ele>
        <time>2018-12-29T10:23:25Z</time>
      </trkpt>
      <trkpt lat="41.378321293741465" lon="1.328986706212163">
        <ele>432.20001220703125</ele>
        <time>2018-12-29T10:23:27Z</time>
      </trkpt>
      <trkpt lat="41.378170670941472" lon="1.329002883285284">
        <ele>430.39999389648437</ele>
        <time>2018-12-29T10:23:29Z</time>
      </trkpt>
      <trkpt lat="41.378027088940144" lon="1.329019227996469">
        <ele>430.60000610351562</ele>
        <time>2018-12-29T10:23:31Z</time>
      </trkpt>
      <trkpt lat="41.377956680953503" lon="1.329025430604816">
        <ele>430.20001220703125</ele>
        <time>2018-12-29T10:23:32Z</time>
      </trkpt>
      <trkpt lat="41.37788861989975" lon="1.329033561050892">
        <ele>430</ele>
        <time>2018-12-29T10:23:33Z</time>
      </trkpt>
      <trkpt lat="41.377822067588568" lon="1.329041942954063">
        <ele>429.39999389648437</ele>
        <time>2018-12-29T10:23:34Z</time>
      </trkpt>
      <trkpt lat="41.377758868038654" lon="1.329046553000808">
        <ele>429.39999389648437</ele>
        <time>2018-12-29T10:23:35Z</time>
      </trkpt>
      <trkpt lat="41.37763456441462" lon="1.329048816114664">
        <ele>429</ele>
        <time>2018-12-29T10:23:37Z</time>
      </trkpt>
      <trkpt lat="41.377511769533157" lon="1.329094162210822">
        <ele>428.79998779296875</ele>
        <time>2018-12-29T10:23:39Z</time>
      </trkpt>
      <trkpt lat="41.377458460628986" lon="1.329135904088616">
        <ele>428.39999389648437</ele>
        <time>2018-12-29T10:23:40Z</time>
      </trkpt>
      <trkpt lat="41.377408923581243" lon="1.329182423651218">
        <ele>428.39999389648437</ele>
        <time>2018-12-29T10:23:41Z</time>
      </trkpt>
      <trkpt lat="41.377364499494433" lon="1.32924604229629">
        <ele>427.79998779296875</ele>
        <time>2018-12-29T10:23:42Z</time>
      </trkpt>
      <trkpt lat="41.377333234995604" lon="1.329314690083265">
        <ele>428</ele>
        <time>2018-12-29T10:23:43Z</time>
      </trkpt>
      <trkpt lat="41.377323511987925" lon="1.329460367560387">
        <ele>428</ele>
        <time>2018-12-29T10:23:45Z</time>
      </trkpt>
      <trkpt lat="41.377330049872398" lon="1.329527925699949">
        <ele>428</ele>
        <time>2018-12-29T10:23:46Z</time>
      </trkpt>
      <trkpt lat="41.377331893891096" lon="1.32959590293467">
        <ele>427.79998779296875</ele>
        <time>2018-12-29T10:23:47Z</time>
      </trkpt>
      <trkpt lat="41.377332480624318" lon="1.329728253185749">
        <ele>428</ele>
        <time>2018-12-29T10:23:49Z</time>
      </trkpt>
      <trkpt lat="41.377330385148525" lon="1.329855155199766">
        <ele>428.39999389648437</ele>
        <time>2018-12-29T10:23:51Z</time>
      </trkpt>
      <trkpt lat="41.377329714596272" lon="1.329991109669209">
        <ele>428.20001220703125</ele>
        <time>2018-12-29T10:23:53Z</time>
      </trkpt>
      <trkpt lat="41.377330804243684" lon="1.330131003633142">
        <ele>427.79998779296875</ele>
        <time>2018-12-29T10:23:55Z</time>
      </trkpt>
      <trkpt lat="41.377326529473066" lon="1.33020032197237">
        <ele>427.79998779296875</ele>
        <time>2018-12-29T10:23:56Z</time>
      </trkpt>
      <trkpt lat="41.377307586371899" lon="1.330261509865522">
        <ele>427.60000610351562</ele>
        <time>2018-12-29T10:23:57Z</time>
      </trkpt>
      <trkpt lat="41.377234328538179" lon="1.330340132117271">
        <ele>427.39999389648438</ele>
        <time>2018-12-29T10:23:59Z</time>
      </trkpt>
      <trkpt lat="41.377122681587934" lon="1.33034935221076">
        <ele>427</ele>
        <time>2018-12-29T10:24:01Z</time>
      </trkpt>
      <trkpt lat="41.377065600827336" lon="1.33035228587687">
        <ele>426.60000610351562</ele>
        <time>2018-12-29T10:24:02Z</time>
      </trkpt>
      <trkpt lat="41.377006424590945" lon="1.330355051904917">
        <ele>426.20001220703125</ele>
        <time>2018-12-29T10:24:03Z</time>
      </trkpt>
      <trkpt lat="41.376881115138531" lon="1.330358907580376">
        <ele>425.39999389648437</ele>
        <time>2018-12-29T10:24:05Z</time>
      </trkpt>
      <trkpt lat="41.376749603077769" lon="1.330351028591394">
        <ele>424.79998779296875</ele>
        <time>2018-12-29T10:24:07Z</time>
      </trkpt>
      <trkpt lat="41.37668170966208" lon="1.330339629203081">
        <ele>424.60000610351562</ele>
        <time>2018-12-29T10:24:08Z</time>
      </trkpt>
      <trkpt lat="41.376612726598978" lon="1.330324709415436">
        <ele>424.39999389648438</ele>
        <time>2018-12-29T10:24:09Z</time>
      </trkpt>
      <trkpt lat="41.376471742987633" lon="1.33029168471694">
        <ele>423.79998779296875</ele>
        <time>2018-12-29T10:24:11Z</time>
      </trkpt>
      <trkpt lat="41.376331597566605" lon="1.330254133790731">
        <ele>423.20001220703125</ele>
        <time>2018-12-29T10:24:13Z</time>
      </trkpt>
      <trkpt lat="41.376185668632388" lon="1.330216582864523">
        <ele>422.60000610351562</ele>
        <time>2018-12-29T10:24:15Z</time>
      </trkpt>
      <trkpt lat="41.376034040004015" lon="1.330183055251837">
        <ele>421.79998779296875</ele>
        <time>2018-12-29T10:24:17Z</time>
      </trkpt>
      <trkpt lat="41.375957010313869" lon="1.330164698883891">
        <ele>421.39999389648437</ele>
        <time>2018-12-29T10:24:18Z</time>
      </trkpt>
      <trkpt lat="41.375877466052771" lon="1.330145755782723">
        <ele>421.20001220703125</ele>
        <time>2018-12-29T10:24:19Z</time>
      </trkpt>
      <trkpt lat="41.375714018940926" lon="1.330111809074879">
        <ele>420.79998779296875</ele>
        <time>2018-12-29T10:24:21Z</time>
      </trkpt>
      <trkpt lat="41.375627685338259" lon="1.330097978934646">
        <ele>420.20001220703125</ele>
        <time>2018-12-29T10:24:22Z</time>
      </trkpt>
      <trkpt lat="41.375539759173989" lon="1.330083729699254">
        <ele>419.79998779296875</ele>
        <time>2018-12-29T10:24:23Z</time>
      </trkpt>
      <trkpt lat="41.375450743362308" lon="1.330069145187736">
        <ele>419.60000610351562</ele>
        <time>2018-12-29T10:24:24Z</time>
      </trkpt>
      <trkpt lat="41.37535996735096" lon="1.330049028620124">
        <ele>418.79998779296875</ele>
        <time>2018-12-29T10:24:25Z</time>
      </trkpt>
      <trkpt lat="41.375174727290869" lon="1.330007119104266">
        <ele>417.39999389648437</ele>
        <time>2018-12-29T10:24:27Z</time>
      </trkpt>
      <trkpt lat="41.375000216066837" lon="1.3299569953233">
        <ele>416.60000610351562</ele>
        <time>2018-12-29T10:24:29Z</time>
      </trkpt>
      <trkpt lat="41.374828638508916" lon="1.329899914562702">
        <ele>416.39999389648437</ele>
        <time>2018-12-29T10:24:31Z</time>
      </trkpt>
      <trkpt lat="41.374741047620773" lon="1.329870829358697">
        <ele>416.20001220703125</ele>
        <time>2018-12-29T10:24:32Z</time>
      </trkpt>
      <trkpt lat="41.374654294922948" lon="1.329844342544675">
        <ele>415.79998779296875</ele>
        <time>2018-12-29T10:24:33Z</time>
      </trkpt>
      <trkpt lat="41.374495290219784" lon="1.329804277047515">
        <ele>414.79998779296875</ele>
        <time>2018-12-29T10:24:35Z</time>
      </trkpt>
      <trkpt lat="41.37441742233932" lon="1.329791955649853">
        <ele>414.79998779296875</ele>
        <time>2018-12-29T10:24:36Z</time>
      </trkpt>
      <trkpt lat="41.37434215284884" lon="1.329783322289586">
        <ele>414.60000610351562</ele>
        <time>2018-12-29T10:24:37Z</time>
      </trkpt>
      <trkpt lat="41.374202007427812" lon="1.329770078882575">
        <ele>414</ele>
        <time>2018-12-29T10:24:39Z</time>
      </trkpt>
      <trkpt lat="41.374140819534659" lon="1.329760439693928">
        <ele>413.60000610351562</ele>
        <time>2018-12-29T10:24:40Z</time>
      </trkpt>
      <trkpt lat="41.374093294143677" lon="1.329731605947018">
        <ele>413</ele>
        <time>2018-12-29T10:24:41Z</time>
      </trkpt>
      <trkpt lat="41.37402062304318" lon="1.329619875177741">
        <ele>412.60000610351562</ele>
        <time>2018-12-29T10:24:43Z</time>
      </trkpt>
      <trkpt lat="41.373992878943682" lon="1.329544018954039">
        <ele>412.20001220703125</ele>
        <time>2018-12-29T10:24:44Z</time>
      </trkpt>
      <trkpt lat="41.373964715749025" lon="1.32946296595037">
        <ele>412</ele>
        <time>2018-12-29T10:24:45Z</time>
      </trkpt>
      <trkpt lat="41.373900342732668" lon="1.32928853854537">
        <ele>411.60000610351562</ele>
        <time>2018-12-29T10:24:47Z</time>
      </trkpt>
      <trkpt lat="41.373829180374742" lon="1.329103047028184">
        <ele>410.79998779296875</ele>
        <time>2018-12-29T10:24:49Z</time>
      </trkpt>
      <trkpt lat="41.373747121542692" lon="1.328910011798143">
        <ele>410.79998779296875</ele>
        <time>2018-12-29T10:24:51Z</time>
      </trkpt>
      <trkpt lat="41.37370596639812" lon="1.328809345141053">
        <ele>410.39999389648438</ele>
        <time>2018-12-29T10:24:52Z</time>
      </trkpt>
      <trkpt lat="41.373666319996119" lon="1.328707840293646">
        <ele>410.20001220703125</ele>
        <time>2018-12-29T10:24:53Z</time>
      </trkpt>
      <trkpt lat="41.373586356639862" lon="1.328492593020201">
        <ele>410</ele>
        <time>2018-12-29T10:24:55Z</time>
      </trkpt>
      <trkpt lat="41.373506896197796" lon="1.328282877802849">
        <ele>409.39999389648437</ele>
        <time>2018-12-29T10:24:57Z</time>
      </trkpt>
      <trkpt lat="41.373424250632524" lon="1.328070145100355">
        <ele>409</ele>
        <time>2018-12-29T10:24:59Z</time>
      </trkpt>
      <trkpt lat="41.373338671401143" lon="1.327861351892352">
        <ele>408.60000610351562</ele>
        <time>2018-12-29T10:25:01Z</time>
      </trkpt>
      <trkpt lat="41.373296342790127" lon="1.327755572274327">
        <ele>408.20001220703125</ele>
        <time>2018-12-29T10:25:02Z</time>
      </trkpt>
      <trkpt lat="41.373255271464586" lon="1.327651385217905">
        <ele>408</ele>
        <time>2018-12-29T10:25:03Z</time>
      </trkpt>
      <trkpt lat="41.373177235946059" lon="1.327451225370169">
        <ele>408</ele>
        <time>2018-12-29T10:25:05Z</time>
      </trkpt>
      <trkpt lat="41.373098529875278" lon="1.32725927978754">
        <ele>407.20001220703125</ele>
        <time>2018-12-29T10:25:07Z</time>
      </trkpt>
      <trkpt lat="41.373021248728037" lon="1.327066328376532">
        <ele>406.79998779296875</ele>
        <time>2018-12-29T10:25:09Z</time>
      </trkpt>
      <trkpt lat="41.372943045571446" lon="1.326869269832969">
        <ele>406</ele>
        <time>2018-12-29T10:25:11Z</time>
      </trkpt>
      <trkpt lat="41.372864758595824" lon="1.326668858528137">
        <ele>405.79998779296875</ele>
        <time>2018-12-29T10:25:13Z</time>
      </trkpt>
      <trkpt lat="41.372825531288981" lon="1.326567018404603">
        <ele>405.60000610351562</ele>
        <time>2018-12-29T10:25:14Z</time>
      </trkpt>
      <trkpt lat="41.372784962877631" lon="1.326461238786578">
        <ele>405.20001220703125</ele>
        <time>2018-12-29T10:25:15Z</time>
      </trkpt>
      <trkpt lat="41.372744897380471" lon="1.326354034245014">
        <ele>404.79998779296875</ele>
        <time>2018-12-29T10:25:16Z</time>
      </trkpt>
      <trkpt lat="41.372704161331058" lon="1.326245069503784">
        <ele>404.60000610351562</ele>
        <time>2018-12-29T10:25:17Z</time>
      </trkpt>
      <trkpt lat="41.372617492452264" lon="1.326028984040022">
        <ele>404</ele>
        <time>2018-12-29T10:25:19Z</time>
      </trkpt>
      <trkpt lat="41.37257382273674" lon="1.325920019298792">
        <ele>403.60000610351562</ele>
        <time>2018-12-29T10:25:20Z</time>
      </trkpt>
      <trkpt lat="41.372530488297343" lon="1.325811892747879">
        <ele>403.20001220703125</ele>
        <time>2018-12-29T10:25:21Z</time>
      </trkpt>
      <trkpt lat="41.372487070038915" lon="1.325703766196966">
        <ele>402.39999389648437</ele>
        <time>2018-12-29T10:25:22Z</time>
      </trkpt>
      <trkpt lat="41.372444070875645" lon="1.325593795627356">
        <ele>402</ele>
        <time>2018-12-29T10:25:23Z</time>
      </trkpt>
      <trkpt lat="41.372399982064962" lon="1.325481813400984">
        <ele>401.39999389648437</ele>
        <time>2018-12-29T10:25:24Z</time>
      </trkpt>
      <trkpt lat="41.372355138882995" lon="1.325369328260422">
        <ele>401.20001220703125</ele>
        <time>2018-12-29T10:25:25Z</time>
      </trkpt>
      <trkpt lat="41.372265703976154" lon="1.325140502303839">
        <ele>400.79998779296875</ele>
        <time>2018-12-29T10:25:27Z</time>
      </trkpt>
      <trkpt lat="41.372220776975155" lon="1.325025083497167">
        <ele>400.39999389648437</ele>
        <time>2018-12-29T10:25:28Z</time>
      </trkpt>
      <trkpt lat="41.372174425050616" lon="1.324907233938575">
        <ele>399.79998779296875</ele>
        <time>2018-12-29T10:25:29Z</time>
      </trkpt>
      <trkpt lat="41.372128827497363" lon="1.324791563674808">
        <ele>398.20001220703125</ele>
        <time>2018-12-29T10:25:30Z</time>
      </trkpt>
      <trkpt lat="41.372084571048617" lon="1.324680587276816">
        <ele>397.60000610351562</ele>
        <time>2018-12-29T10:25:31Z</time>
      </trkpt>
      <trkpt lat="41.371997315436602" lon="1.324457712471485">
        <ele>397.60000610351562</ele>
        <time>2018-12-29T10:25:33Z</time>
      </trkpt>
      <trkpt lat="41.371906958520412" lon="1.324235424399376">
        <ele>397.79998779296875</ele>
        <time>2018-12-29T10:25:35Z</time>
      </trkpt>
      <trkpt lat="41.371817272156477" lon="1.324011795222759">
        <ele>397.39999389648437</ele>
        <time>2018-12-29T10:25:37Z</time>
      </trkpt>
      <trkpt lat="41.371771339327097" lon="1.323896544054151">
        <ele>397.20001220703125</ele>
        <time>2018-12-29T10:25:38Z</time>
      </trkpt>
      <trkpt lat="41.371725993230939" lon="1.323780287057161">
        <ele>397</ele>
        <time>2018-12-29T10:25:39Z</time>
      </trkpt>
      <trkpt lat="41.371630020439625" lon="1.323544671759009">
        <ele>396.39999389648437</ele>
        <time>2018-12-29T10:25:41Z</time>
      </trkpt>
      <trkpt lat="41.3715794775635" lon="1.323427157476544">
        <ele>395.79998779296875</ele>
        <time>2018-12-29T10:25:42Z</time>
      </trkpt>
      <trkpt lat="41.371529186144471" lon="1.323310229927301">
        <ele>395</ele>
        <time>2018-12-29T10:25:43Z</time>
      </trkpt>
      <trkpt lat="41.371477972716093" lon="1.323190787807107">
        <ele>394.39999389648437</ele>
        <time>2018-12-29T10:25:44Z</time>
      </trkpt>
      <trkpt lat="41.371427681297064" lon="1.323073524981737">
        <ele>393.60000610351562</ele>
        <time>2018-12-29T10:25:45Z</time>
      </trkpt>
      <trkpt lat="41.371375881135464" lon="1.322951819747686">
        <ele>392.79998779296875</ele>
        <time>2018-12-29T10:25:46Z</time>
      </trkpt>
      <trkpt lat="41.371323829516768" lon="1.322833634912968">
        <ele>392.39999389648437</ele>
        <time>2018-12-29T10:25:47Z</time>
      </trkpt>
      <trkpt lat="41.371218552812934" lon="1.322595840319991">
        <ele>391.79998779296875</ele>
        <time>2018-12-29T10:25:49Z</time>
      </trkpt>
      <trkpt lat="41.371117802336812" lon="1.322353016585112">
        <ele>391</ele>
        <time>2018-12-29T10:25:51Z</time>
      </trkpt>
      <trkpt lat="41.37102048844099" lon="1.322108097374439">
        <ele>390.39999389648438</ele>
        <time>2018-12-29T10:25:53Z</time>
      </trkpt>
      <trkpt lat="41.370923090726137" lon="1.321869380772114">
        <ele>389.20001220703125</ele>
        <time>2018-12-29T10:25:55Z</time>
      </trkpt>
      <trkpt lat="41.370871793478727" lon="1.321748849004507">
        <ele>388.60000610351562</ele>
        <time>2018-12-29T10:25:56Z</time>
      </trkpt>
      <trkpt lat="41.370821166783571" lon="1.321632005274296">
        <ele>388</ele>
        <time>2018-12-29T10:25:57Z</time>
      </trkpt>
      <trkpt lat="41.370722176507115" lon="1.321394378319383">
        <ele>387</ele>
        <time>2018-12-29T10:25:59Z</time>
      </trkpt>
      <trkpt lat="41.370625784620643" lon="1.321154991164804">
        <ele>387.39999389648438</ele>
        <time>2018-12-29T10:26:01Z</time>
      </trkpt>
      <trkpt lat="41.370531236752868" lon="1.320915101096034">
        <ele>387</ele>
        <time>2018-12-29T10:26:03Z</time>
      </trkpt>
      <trkpt lat="41.370484801009297" lon="1.320796832442284">
        <ele>386.60000610351562</ele>
        <time>2018-12-29T10:26:04Z</time>
      </trkpt>
      <trkpt lat="41.370438197627664" lon="1.320677641779184">
        <ele>386.39999389648437</ele>
        <time>2018-12-29T10:26:05Z</time>
      </trkpt>
      <trkpt lat="41.370345074683428" lon="1.320439847186208">
        <ele>385.60000610351562</ele>
        <time>2018-12-29T10:26:07Z</time>
      </trkpt>
      <trkpt lat="41.370299393311143" lon="1.320319063961506">
        <ele>385.20001220703125</ele>
        <time>2018-12-29T10:26:08Z</time>
      </trkpt>
      <trkpt lat="41.370253209024668" lon="1.320203561335802">
        <ele>385</ele>
        <time>2018-12-29T10:26:09Z</time>
      </trkpt>
      <trkpt lat="41.370163103565574" lon="1.319972639903426">
        <ele>384.79998779296875</ele>
        <time>2018-12-29T10:26:11Z</time>
      </trkpt>
      <trkpt lat="41.370075512677431" lon="1.319747837260366">
        <ele>384.79998779296875</ele>
        <time>2018-12-29T10:26:13Z</time>
      </trkpt>
      <trkpt lat="41.369994375854731" lon="1.319526135921478">
        <ele>384.39999389648437</ele>
        <time>2018-12-29T10:26:15Z</time>
      </trkpt>
      <trkpt lat="41.369954142719507" lon="1.319417003542185">
        <ele>383.79998779296875</ele>
        <time>2018-12-29T10:26:16Z</time>
      </trkpt>
      <trkpt lat="41.369913155212998" lon="1.319310218095779">
        <ele>383.79998779296875</ele>
        <time>2018-12-29T10:26:17Z</time>
      </trkpt>
      <trkpt lat="41.369829336181283" lon="1.319098575040698">
        <ele>383.39999389648437</ele>
        <time>2018-12-29T10:26:19Z</time>
      </trkpt>
      <trkpt lat="41.369743505492806" lon="1.318885423243046">
        <ele>384</ele>
        <time>2018-12-29T10:26:21Z</time>
      </trkpt>
      <trkpt lat="41.369660021737218" lon="1.318681994453073">
        <ele>383.60000610351562</ele>
        <time>2018-12-29T10:26:23Z</time>
      </trkpt>
      <trkpt lat="41.369620291516185" lon="1.318580405786634">
        <ele>383.79998779296875</ele>
        <time>2018-12-29T10:26:24Z</time>
      </trkpt>
      <trkpt lat="41.369581231847405" lon="1.318476805463433">
        <ele>383.60000610351562</ele>
        <time>2018-12-29T10:26:25Z</time>
      </trkpt>
      <trkpt lat="41.369500430300832" lon="1.318271197378635">
        <ele>383.60000610351562</ele>
        <time>2018-12-29T10:26:27Z</time>
      </trkpt>
      <trkpt lat="41.369418287649751" lon="1.318063577637076">
        <ele>383.79998779296875</ele>
        <time>2018-12-29T10:26:29Z</time>
      </trkpt>
      <trkpt lat="41.369336564093828" lon="1.317855874076486">
        <ele>383.39999389648437</ele>
        <time>2018-12-29T10:26:31Z</time>
      </trkpt>
      <trkpt lat="41.369255846366286" lon="1.317645069211721">
        <ele>382.79998779296875</ele>
        <time>2018-12-29T10:26:33Z</time>
      </trkpt>
      <trkpt lat="41.36917538009584" lon="1.317441137507558">
        <ele>382.79998779296875</ele>
        <time>2018-12-29T10:26:35Z</time>
      </trkpt>
      <trkpt lat="41.369099691510201" lon="1.317236870527268">
        <ele>382</ele>
        <time>2018-12-29T10:26:37Z</time>
      </trkpt>
      <trkpt lat="41.369022075086832" lon="1.317029586061835">
        <ele>382.20001220703125</ele>
        <time>2018-12-29T10:26:39Z</time>
      </trkpt>
      <trkpt lat="41.368945967406034" lon="1.316831354051828">
        <ele>381.79998779296875</ele>
        <time>2018-12-29T10:26:41Z</time>
      </trkpt>
      <trkpt lat="41.368906572461128" lon="1.316731022670865">
        <ele>381.79998779296875</ele>
        <time>2018-12-29T10:26:42Z</time>
      </trkpt>
      <trkpt lat="41.368867764249444" lon="1.316631278023124">
        <ele>381.60000610351562</ele>
        <time>2018-12-29T10:26:43Z</time>
      </trkpt>
      <trkpt lat="41.368792662397027" lon="1.316434470936656">
        <ele>381.39999389648437</ele>
        <time>2018-12-29T10:26:45Z</time>
      </trkpt>
      <trkpt lat="41.368717392906547" lon="1.316239424049854">
        <ele>381.79998779296875</ele>
        <time>2018-12-29T10:26:47Z</time>
      </trkpt>
      <trkpt lat="41.368643967434764" lon="1.316047729924321">
        <ele>382</ele>
        <time>2018-12-29T10:26:49Z</time>
      </trkpt>
      <trkpt lat="41.368567692115903" lon="1.315854694694281">
        <ele>382</ele>
        <time>2018-12-29T10:26:51Z</time>
      </trkpt>
      <trkpt lat="41.368530057370663" lon="1.315757716074586">
        <ele>382.20001220703125</ele>
        <time>2018-12-29T10:26:52Z</time>
      </trkpt>
      <trkpt lat="41.368493176996708" lon="1.315659983083606">
        <ele>382.20001220703125</ele>
        <time>2018-12-29T10:26:53Z</time>
      </trkpt>
      <trkpt lat="41.368417739868164" lon="1.315469546243548">
        <ele>382.60000610351562</ele>
        <time>2018-12-29T10:26:55Z</time>
      </trkpt>
      <trkpt lat="41.368380356580019" lon="1.31537726148963">
        <ele>383</ele>
        <time>2018-12-29T10:26:56Z</time>
      </trkpt>
      <trkpt lat="41.368342638015747" lon="1.315284557640553">
        <ele>383.20001220703125</ele>
        <time>2018-12-29T10:26:57Z</time>
      </trkpt>
      <trkpt lat="41.36826996691525" lon="1.315099401399493">
        <ele>382.60000610351562</ele>
        <time>2018-12-29T10:26:59Z</time>
      </trkpt>
      <trkpt lat="41.368233254179358" lon="1.315002925693989">
        <ele>382.60000610351562</ele>
        <time>2018-12-29T10:27:00Z</time>
      </trkpt>
      <trkpt lat="41.368197379633784" lon="1.314908461645246">
        <ele>382.60000610351562</ele>
        <time>2018-12-29T10:27:01Z</time>
      </trkpt>
      <trkpt lat="41.368123702704906" lon="1.314719114452601">
        <ele>383.20001220703125</ele>
        <time>2018-12-29T10:27:03Z</time>
      </trkpt>
      <trkpt lat="41.368051785975695" lon="1.314535969868302">
        <ele>383.20001220703125</ele>
        <time>2018-12-29T10:27:05Z</time>
      </trkpt>
      <trkpt lat="41.367979785427451" lon="1.314354166388512">
        <ele>383.20001220703125</ele>
        <time>2018-12-29T10:27:07Z</time>
      </trkpt>
      <trkpt lat="41.367909964174032" lon="1.314171859994531">
        <ele>383.39999389648437</ele>
        <time>2018-12-29T10:27:09Z</time>
      </trkpt>
      <trkpt lat="41.367839556187391" lon="1.313987206667662">
        <ele>383.60000610351562</ele>
        <time>2018-12-29T10:27:11Z</time>
      </trkpt>
      <trkpt lat="41.367805022746325" lon="1.313896765932441">
        <ele>383.79998779296875</ele>
        <time>2018-12-29T10:27:12Z</time>
      </trkpt>
      <trkpt lat="41.36776864528656" lon="1.313805738463998">
        <ele>383.39999389648437</ele>
        <time>2018-12-29T10:27:13Z</time>
      </trkpt>
      <trkpt lat="41.367697902023792" lon="1.313624354079366">
        <ele>383.20001220703125</ele>
        <time>2018-12-29T10:27:15Z</time>
      </trkpt>
      <trkpt lat="41.367630176246166" lon="1.313447915017605">
        <ele>383.79998779296875</ele>
        <time>2018-12-29T10:27:17Z</time>
      </trkpt>
      <trkpt lat="41.367560690268874" lon="1.313269464299083">
        <ele>383.79998779296875</ele>
        <time>2018-12-29T10:27:19Z</time>
      </trkpt>
      <trkpt lat="41.36748818680644" lon="1.313084559515119">
        <ele>384.20001220703125</ele>
        <time>2018-12-29T10:27:21Z</time>
      </trkpt>
      <trkpt lat="41.367418617010117" lon="1.312903175130487">
        <ele>384.60000610351562</ele>
        <time>2018-12-29T10:27:23Z</time>
      </trkpt>
      <trkpt lat="41.367348209023476" lon="1.312723802402616">
        <ele>384.39999389648437</ele>
        <time>2018-12-29T10:27:25Z</time>
      </trkpt>
      <trkpt lat="41.367275370284915" lon="1.31254468113184">
        <ele>383.79998779296875</ele>
        <time>2018-12-29T10:27:27Z</time>
      </trkpt>
      <trkpt lat="41.367204375565052" lon="1.312372097745538">
        <ele>383.39999389648437</ele>
        <time>2018-12-29T10:27:29Z</time>
      </trkpt>
      <trkpt lat="41.367170428857207" lon="1.312282495200634">
        <ele>383</ele>
        <time>2018-12-29T10:27:30Z</time>
      </trkpt>
      <trkpt lat="41.367136398330331" lon="1.312195491045713">
        <ele>383.39999389648437</ele>
        <time>2018-12-29T10:27:31Z</time>
      </trkpt>
      <trkpt lat="41.367066828534007" lon="1.312025841325522">
        <ele>383.60000610351562</ele>
        <time>2018-12-29T10:27:33Z</time>
      </trkpt>
      <trkpt lat="41.366999102756381" lon="1.311852587386966">
        <ele>383.79998779296875</ele>
        <time>2018-12-29T10:27:35Z</time>
      </trkpt>
      <trkpt lat="41.366964736953378" lon="1.31176482886076">
        <ele>384.20001220703125</ele>
        <time>2018-12-29T10:27:36Z</time>
      </trkpt>
      <trkpt lat="41.366931963711977" lon="1.311680339276791">
        <ele>384.60000610351562</ele>
        <time>2018-12-29T10:27:37Z</time>
      </trkpt>
      <trkpt lat="41.366868009790778" lon="1.311513623222709">
        <ele>384.60000610351562</ele>
        <time>2018-12-29T10:27:39Z</time>
      </trkpt>
      <trkpt lat="41.366799613460898" lon="1.311351098120213">
        <ele>384.20001220703125</ele>
        <time>2018-12-29T10:27:41Z</time>
      </trkpt>
      <trkpt lat="41.3667649962008" lon="1.311266776174307">
        <ele>384.20001220703125</ele>
        <time>2018-12-29T10:27:42Z</time>
      </trkpt>
      <trkpt lat="41.366730630397797" lon="1.311184130609036">
        <ele>384</ele>
        <time>2018-12-29T10:27:43Z</time>
      </trkpt>
      <trkpt lat="41.366665251553059" lon="1.311017666012049">
        <ele>383.79998779296875</ele>
        <time>2018-12-29T10:27:45Z</time>
      </trkpt>
      <trkpt lat="41.366602722555399" lon="1.310848267748952">
        <ele>384.20001220703125</ele>
        <time>2018-12-29T10:27:47Z</time>
      </trkpt>
      <trkpt lat="41.366540864109993" lon="1.31068398244679">
        <ele>384</ele>
        <time>2018-12-29T10:27:49Z</time>
      </trkpt>
      <trkpt lat="41.366474311798811" lon="1.310523469001055">
        <ele>383.79998779296875</ele>
        <time>2018-12-29T10:27:51Z</time>
      </trkpt>
      <trkpt lat="41.366405915468931" lon="1.310361530631781">
        <ele>383.79998779296875</ele>
        <time>2018-12-29T10:27:53Z</time>
      </trkpt>
      <trkpt lat="41.36634036898613" lon="1.310190372169018">
        <ele>384.39999389648437</ele>
        <time>2018-12-29T10:27:55Z</time>
      </trkpt>
      <trkpt lat="41.366272978484631" lon="1.310018710792065">
        <ele>384.60000610351562</ele>
        <time>2018-12-29T10:27:57Z</time>
      </trkpt>
      <trkpt lat="41.366209946572781" lon="1.309849563986063">
        <ele>384.39999389648437</ele>
        <time>2018-12-29T10:27:59Z</time>
      </trkpt>
      <trkpt lat="41.366144819185138" lon="1.309682596474886">
        <ele>384.39999389648437</ele>
        <time>2018-12-29T10:28:01Z</time>
      </trkpt>
      <trkpt lat="41.36608044616878" lon="1.309521496295929">
        <ele>383.60000610351562</ele>
        <time>2018-12-29T10:28:03Z</time>
      </trkpt>
      <trkpt lat="41.366016743704677" lon="1.309364503249526">
        <ele>383.79998779296875</ele>
        <time>2018-12-29T10:28:05Z</time>
      </trkpt>
      <trkpt lat="41.365951783955097" lon="1.309213293716312">
        <ele>384.39999389648437</ele>
        <time>2018-12-29T10:28:07Z</time>
      </trkpt>
      <trkpt lat="41.365889254957438" lon="1.309060323983431">
        <ele>385.39999389648437</ele>
        <time>2018-12-29T10:28:09Z</time>
      </trkpt>
      <trkpt lat="41.365828486159444" lon="1.308908276259899">
        <ele>385.60000610351562</ele>
        <time>2018-12-29T10:28:11Z</time>
      </trkpt>
      <trkpt lat="41.365769896656275" lon="1.308764107525349">
        <ele>386.20001220703125</ele>
        <time>2018-12-29T10:28:13Z</time>
      </trkpt>
      <trkpt lat="41.365741146728396" lon="1.308693196624517">
        <ele>386.79998779296875</ele>
        <time>2018-12-29T10:28:14Z</time>
      </trkpt>
      <trkpt lat="41.365713402628899" lon="1.308623962104321">
        <ele>387.20001220703125</ele>
        <time>2018-12-29T10:28:15Z</time>
      </trkpt>
      <trkpt lat="41.365658668801188" lon="1.308485995978117">
        <ele>387.60000610351562</ele>
        <time>2018-12-29T10:28:17Z</time>
      </trkpt>
      <trkpt lat="41.365630840882659" lon="1.308419611304998">
        <ele>388</ele>
        <time>2018-12-29T10:28:18Z</time>
      </trkpt>
      <trkpt lat="41.3656045217067" lon="1.308353310450912">
        <ele>388.20001220703125</ele>
        <time>2018-12-29T10:28:19Z</time>
      </trkpt>
      <trkpt lat="41.365550793707371" lon="1.308221630752087">
        <ele>388.79998779296875</ele>
        <time>2018-12-29T10:28:21Z</time>
      </trkpt>
      <trkpt lat="41.365526067093015" lon="1.308159939944744">
        <ele>389.20001220703125</ele>
        <time>2018-12-29T10:28:22Z</time>
      </trkpt>
      <trkpt lat="41.365501591935754" lon="1.308098332956433">
        <ele>389.79998779296875</ele>
        <time>2018-12-29T10:28:23Z</time>
      </trkpt>
      <trkpt lat="41.365455156192183" lon="1.307978723198175">
        <ele>390.60000610351562</ele>
        <time>2018-12-29T10:28:25Z</time>
      </trkpt>
      <trkpt lat="41.36540855281055" lon="1.307864645496011">
        <ele>391</ele>
        <time>2018-12-29T10:28:27Z</time>
      </trkpt>
      <trkpt lat="41.365364631637931" lon="1.307752160355449">
        <ele>390.60000610351562</ele>
        <time>2018-12-29T10:28:29Z</time>
      </trkpt>
      <trkpt lat="41.365319453179836" lon="1.307634813711047">
        <ele>391.20001220703125</ele>
        <time>2018-12-29T10:28:31Z</time>
      </trkpt>
      <trkpt lat="41.365275280550122" lon="1.307517550885677">
        <ele>391.60000610351562</ele>
        <time>2018-12-29T10:28:33Z</time>
      </trkpt>
      <trkpt lat="41.365253403782845" lon="1.307456865906715">
        <ele>392</ele>
        <time>2018-12-29T10:28:34Z</time>
      </trkpt>
      <trkpt lat="41.365229012444615" lon="1.307396264746785">
        <ele>392.20001220703125</ele>
        <time>2018-12-29T10:28:35Z</time>
      </trkpt>
      <trkpt lat="41.365180145949125" lon="1.30727531388402">
        <ele>392.39999389648437</ele>
        <time>2018-12-29T10:28:37Z</time>
      </trkpt>
      <trkpt lat="41.365131950005889" lon="1.307152854278684">
        <ele>392.60000610351562</ele>
        <time>2018-12-29T10:28:39Z</time>
      </trkpt>
      <trkpt lat="41.365084089338779" lon="1.307033747434616">
        <ele>392.39999389648437</ele>
        <time>2018-12-29T10:28:41Z</time>
      </trkpt>
      <trkpt lat="41.365037234500051" lon="1.306917825713754">
        <ele>392</ele>
        <time>2018-12-29T10:28:43Z</time>
      </trkpt>
      <trkpt lat="41.364993564784527" lon="1.306799640879035">
        <ele>391.79998779296875</ele>
        <time>2018-12-29T10:28:45Z</time>
      </trkpt>
      <trkpt lat="41.364947212859988" lon="1.306683383882046">
        <ele>392.39999389648437</ele>
        <time>2018-12-29T10:28:47Z</time>
      </trkpt>
      <trkpt lat="41.364924414083362" lon="1.306628147140145">
        <ele>392.79998779296875</ele>
        <time>2018-12-29T10:28:48Z</time>
      </trkpt>
      <trkpt lat="41.364900441840291" lon="1.306571317836642">
        <ele>393.20001220703125</ele>
        <time>2018-12-29T10:28:49Z</time>
      </trkpt>
      <trkpt lat="41.364855011925101" lon="1.306461011990905">
        <ele>393.39999389648438</ele>
        <time>2018-12-29T10:28:51Z</time>
      </trkpt>
      <trkpt lat="41.36480899527669" lon="1.306349281221628">
        <ele>393.60000610351562</ele>
        <time>2018-12-29T10:28:53Z</time>
      </trkpt>
      <trkpt lat="41.364765241742134" lon="1.3062350358814">
        <ele>394</ele>
        <time>2018-12-29T10:28:55Z</time>
      </trkpt>
      <trkpt lat="41.364718051627278" lon="1.306121041998267">
        <ele>394.79998779296875</ele>
        <time>2018-12-29T10:28:57Z</time>
      </trkpt>
      <trkpt lat="41.364696342498064" lon="1.306060692295432">
        <ele>395.20001220703125</ele>
        <time>2018-12-29T10:28:58Z</time>
      </trkpt>
      <trkpt lat="41.364673124626279" lon="1.306002521887422">
        <ele>395</ele>
        <time>2018-12-29T10:28:59Z</time>
      </trkpt>
      <trkpt lat="41.364628281444311" lon="1.30588567815721">
        <ele>394.60000610351562</ele>
        <time>2018-12-29T10:29:01Z</time>
      </trkpt>
      <trkpt lat="41.364602632820606" lon="1.305825663730502">
        <ele>394.79998779296875</ele>
        <time>2018-12-29T10:29:02Z</time>
      </trkpt>
      <trkpt lat="41.364576816558838" lon="1.305763889104128">
        <ele>394.79998779296875</ele>
        <time>2018-12-29T10:29:03Z</time>
      </trkpt>
      <trkpt lat="41.364522920921445" lon="1.305640004575253">
        <ele>394.79998779296875</ele>
        <time>2018-12-29T10:29:05Z</time>
      </trkpt>
      <trkpt lat="41.364468522369862" lon="1.305510504171252">
        <ele>395</ele>
        <time>2018-12-29T10:29:07Z</time>
      </trkpt>
      <trkpt lat="41.364416889846325" lon="1.305375890806317">
        <ele>395.60000610351562</ele>
        <time>2018-12-29T10:29:09Z</time>
      </trkpt>
      <trkpt lat="41.364364251494408" lon="1.305241025984287">
        <ele>396</ele>
        <time>2018-12-29T10:29:11Z</time>
      </trkpt>
      <trkpt lat="41.364335753023624" lon="1.305170031264424">
        <ele>395.39999389648437</ele>
        <time>2018-12-29T10:29:12Z</time>
      </trkpt>
      <trkpt lat="41.364308428019285" lon="1.305097192525864">
        <ele>395</ele>
        <time>2018-12-29T10:29:13Z</time>
      </trkpt>
      <trkpt lat="41.364250341430306" lon="1.304946653544903">
        <ele>394.60000610351562</ele>
        <time>2018-12-29T10:29:15Z</time>
      </trkpt>
      <trkpt lat="41.364185130223632" lon="1.304790750145912">
        <ele>393.60000610351562</ele>
        <time>2018-12-29T10:29:17Z</time>
      </trkpt>
      <trkpt lat="41.364123607054353" lon="1.304629649966955">
        <ele>393</ele>
        <time>2018-12-29T10:29:19Z</time>
      </trkpt>
      <trkpt lat="41.364093264564872" lon="1.304545579478145">
        <ele>392.79998779296875</ele>
        <time>2018-12-29T10:29:20Z</time>
      </trkpt>
      <trkpt lat="41.364062922075391" lon="1.30446276627481">
        <ele>393</ele>
        <time>2018-12-29T10:29:21Z</time>
      </trkpt>
      <trkpt lat="41.363996788859367" lon="1.304296469315887">
        <ele>393</ele>
        <time>2018-12-29T10:29:23Z</time>
      </trkpt>
      <trkpt lat="41.363962506875396" lon="1.304213488474488">
        <ele>392.60000610351562</ele>
        <time>2018-12-29T10:29:24Z</time>
      </trkpt>
      <trkpt lat="41.363929649814963" lon="1.304129417985678">
        <ele>392.20001220703125</ele>
        <time>2018-12-29T10:29:25Z</time>
      </trkpt>
      <trkpt lat="41.363860331475735" lon="1.303954571485519">
        <ele>392</ele>
        <time>2018-12-29T10:29:27Z</time>
      </trkpt>
      <trkpt lat="41.363786989822984" lon="1.303775366395712">
        <ele>391.79998779296875</ele>
        <time>2018-12-29T10:29:29Z</time>
      </trkpt>
      <trkpt lat="41.363750780001283" lon="1.303681069985032">
        <ele>390.60000610351562</ele>
        <time>2018-12-29T10:29:30Z</time>
      </trkpt>
      <trkpt lat="41.363715659826994" lon="1.303590629249811">
        <ele>390</ele>
        <time>2018-12-29T10:29:31Z</time>
      </trkpt>
      <trkpt lat="41.363641563802958" lon="1.303407065570355">
        <ele>389.20001220703125</ele>
        <time>2018-12-29T10:29:33Z</time>
      </trkpt>
      <trkpt lat="41.363569144159555" lon="1.30322408862412">
        <ele>388.20001220703125</ele>
        <time>2018-12-29T10:29:35Z</time>
      </trkpt>
      <trkpt lat="41.363533521071076" lon="1.303131887689233">
        <ele>387.60000610351562</ele>
        <time>2018-12-29T10:29:36Z</time>
      </trkpt>
      <trkpt lat="41.36349705979228" lon="1.303039770573378">
        <ele>387.60000610351562</ele>
        <time>2018-12-29T10:29:37Z</time>
      </trkpt>
      <trkpt lat="41.363428328186274" lon="1.302859811112285">
        <ele>387</ele>
        <time>2018-12-29T10:29:39Z</time>
      </trkpt>
      <trkpt lat="41.363360434770584" lon="1.302691167220473">
        <ele>386.79998779296875</ele>
        <time>2018-12-29T10:29:41Z</time>
      </trkpt>
      <trkpt lat="41.363294385373592" lon="1.302521601319313">
        <ele>387.39999389648438</ele>
        <time>2018-12-29T10:29:43Z</time>
      </trkpt>
      <trkpt lat="41.363261193037033" lon="1.302436608821154">
        <ele>387.60000610351562</ele>
        <time>2018-12-29T10:29:44Z</time>
      </trkpt>
      <trkpt lat="41.363230179995298" lon="1.302350107580423">
        <ele>387</ele>
        <time>2018-12-29T10:29:45Z</time>
      </trkpt>
      <trkpt lat="41.363171339035034" lon="1.302174841985107">
        <ele>385.79998779296875</ele>
        <time>2018-12-29T10:29:47Z</time>
      </trkpt>
      <trkpt lat="41.363111576065421" lon="1.302004940807819">
        <ele>385.60000610351562</ele>
        <time>2018-12-29T10:29:49Z</time>
      </trkpt>
      <trkpt lat="41.363053824752569" lon="1.301845349371433">
        <ele>385.79998779296875</ele>
        <time>2018-12-29T10:29:51Z</time>
      </trkpt>
      <trkpt lat="41.362993642687798" lon="1.301687937229872">
        <ele>385.79998779296875</ele>
        <time>2018-12-29T10:29:53Z</time>
      </trkpt>
      <trkpt lat="41.362933292984962" lon="1.301523987203836">
        <ele>385</ele>
        <time>2018-12-29T10:29:55Z</time>
      </trkpt>
      <trkpt lat="41.362902782857418" lon="1.301442347466946">
        <ele>384.79998779296875</ele>
        <time>2018-12-29T10:29:56Z</time>
      </trkpt>
      <trkpt lat="41.362870344892144" lon="1.301360288634896">
        <ele>384.79998779296875</ele>
        <time>2018-12-29T10:29:57Z</time>
      </trkpt>
      <trkpt lat="41.362804966047406" lon="1.301194662228227">
        <ele>384.60000610351562</ele>
        <time>2018-12-29T10:29:59Z</time>
      </trkpt>
      <trkpt lat="41.362744029611349" lon="1.301028952002525">
        <ele>384.20001220703125</ele>
        <time>2018-12-29T10:30:01Z</time>
      </trkpt>
      <trkpt lat="41.36268594302237" lon="1.300866845995188">
        <ele>383.60000610351562</ele>
        <time>2018-12-29T10:30:03Z</time>
      </trkpt>
      <trkpt lat="41.362624755129218" lon="1.300704656168819">
        <ele>383.39999389648437</ele>
        <time>2018-12-29T10:30:05Z</time>
      </trkpt>
      <trkpt lat="41.362562561407685" lon="1.300538275390863">
        <ele>383.39999389648437</ele>
        <time>2018-12-29T10:30:07Z</time>
      </trkpt>
      <trkpt lat="41.362495673820376" lon="1.300364937633276">
        <ele>383.20001220703125</ele>
        <time>2018-12-29T10:30:09Z</time>
      </trkpt>
      <trkpt lat="41.362460050731897" lon="1.300278771668673">
        <ele>382.60000610351562</ele>
        <time>2018-12-29T10:30:10Z</time>
      </trkpt>
      <trkpt lat="41.362424092367291" lon="1.300192521885037">
        <ele>382.20001220703125</ele>
        <time>2018-12-29T10:30:11Z</time>
      </trkpt>
      <trkpt lat="41.362355025485158" lon="1.300020525231957">
        <ele>381.79998779296875</ele>
        <time>2018-12-29T10:30:13Z</time>
      </trkpt>
      <trkpt lat="41.362322168424726" lon="1.299935532733798">
        <ele>381.39999389648437</ele>
        <time>2018-12-29T10:30:14Z</time>
      </trkpt>
      <trkpt lat="41.362287383526564" lon="1.299848612397909">
        <ele>381.60000610351562</ele>
        <time>2018-12-29T10:30:15Z</time>
      </trkpt>
      <trkpt lat="41.362213455140591" lon="1.299668150022626">
        <ele>382</ele>
        <time>2018-12-29T10:30:17Z</time>
      </trkpt>
      <trkpt lat="41.362136173993349" lon="1.299486765637994">
        <ele>381.60000610351562</ele>
        <time>2018-12-29T10:30:19Z</time>
      </trkpt>
      <trkpt lat="41.362063083797693" lon="1.299302950501442">
        <ele>381.20001220703125</ele>
        <time>2018-12-29T10:30:21Z</time>
      </trkpt>
      <trkpt lat="41.361992759630084" lon="1.299124918878079">
        <ele>381</ele>
        <time>2018-12-29T10:30:23Z</time>
      </trkpt>
      <trkpt lat="41.361917154863477" lon="1.298954011872411">
        <ele>381.20001220703125</ele>
        <time>2018-12-29T10:30:25Z</time>
      </trkpt>
      <trkpt lat="41.361843645572662" lon="1.298786960542202">
        <ele>380.60000610351562</ele>
        <time>2018-12-29T10:30:27Z</time>
      </trkpt>
      <trkpt lat="41.36176778934896" lon="1.298620160669088">
        <ele>380.60000610351562</ele>
        <time>2018-12-29T10:30:29Z</time>
      </trkpt>
      <trkpt lat="41.361698303371668" lon="1.298452438786626">
        <ele>381.20001220703125</ele>
        <time>2018-12-29T10:30:31Z</time>
      </trkpt>
      <trkpt lat="41.361662680283189" lon="1.298370966687799">
        <ele>381</ele>
        <time>2018-12-29T10:30:32Z</time>
      </trkpt>
      <trkpt lat="41.361627727746964" lon="1.298289997503161">
        <ele>380.79998779296875</ele>
        <time>2018-12-29T10:30:33Z</time>
      </trkpt>
      <trkpt lat="41.36156159453094" lon="1.298127388581634">
        <ele>380.79998779296875</ele>
        <time>2018-12-29T10:30:35Z</time>
      </trkpt>
      <trkpt lat="41.361494120210409" lon="1.297965198755264">
        <ele>380.79998779296875</ele>
        <time>2018-12-29T10:30:37Z</time>
      </trkpt>
      <trkpt lat="41.361425388604403" lon="1.297800075262785">
        <ele>380.60000610351562</ele>
        <time>2018-12-29T10:30:39Z</time>
      </trkpt>
      <trkpt lat="41.361355818808079" lon="1.297629168257117">
        <ele>380.79998779296875</ele>
        <time>2018-12-29T10:30:41Z</time>
      </trkpt>
      <trkpt lat="41.361287422478199" lon="1.297453818842769">
        <ele>380.79998779296875</ele>
        <time>2018-12-29T10:30:43Z</time>
      </trkpt>
      <trkpt lat="41.361222546547651" lon="1.297294814139605">
        <ele>380.39999389648437</ele>
        <time>2018-12-29T10:30:45Z</time>
      </trkpt>
      <trkpt lat="41.361191449686885" lon="1.297215521335602">
        <ele>380.20001220703125</ele>
        <time>2018-12-29T10:30:46Z</time>
      </trkpt>
      <trkpt lat="41.361161861568689" lon="1.297137904912233">
        <ele>380.20001220703125</ele>
        <time>2018-12-29T10:30:47Z</time>
      </trkpt>
      <trkpt lat="41.361100422218442" lon="1.296987533569336">
        <ele>380.79998779296875</ele>
        <time>2018-12-29T10:30:49Z</time>
      </trkpt>
      <trkpt lat="41.361035546287894" lon="1.296826852485538">
        <ele>380.79998779296875</ele>
        <time>2018-12-29T10:30:51Z</time>
      </trkpt>
      <trkpt lat="41.360970670357347" lon="1.296664327383041">
        <ele>381</ele>
        <time>2018-12-29T10:30:53Z</time>
      </trkpt>
      <trkpt lat="41.360906381160021" lon="1.296503730118275">
        <ele>379.79998779296875</ele>
        <time>2018-12-29T10:30:55Z</time>
      </trkpt>
      <trkpt lat="41.360873775556684" lon="1.296425443142653">
        <ele>379.60000610351562</ele>
        <time>2018-12-29T10:30:56Z</time>
      </trkpt>
      <trkpt lat="41.360841086134315" lon="1.296345479786396">
        <ele>379.60000610351562</ele>
        <time>2018-12-29T10:30:57Z</time>
      </trkpt>
      <trkpt lat="41.360777048394084" lon="1.296188402920961">
        <ele>379.79998779296875</ele>
        <time>2018-12-29T10:30:59Z</time>
      </trkpt>
      <trkpt lat="41.360710831359029" lon="1.296029230579734">
        <ele>380.39999389648437</ele>
        <time>2018-12-29T10:31:01Z</time>
      </trkpt>
      <trkpt lat="41.360646206885576" lon="1.295863520354033">
        <ele>381.20001220703125</ele>
        <time>2018-12-29T10:31:03Z</time>
      </trkpt>
      <trkpt lat="41.360584013164043" lon="1.295698648318648">
        <ele>380.39999389648437</ele>
        <time>2018-12-29T10:31:05Z</time>
      </trkpt>
      <trkpt lat="41.360553335398436" lon="1.2956234626472">
        <ele>379.20001220703125</ele>
        <time>2018-12-29T10:31:06Z</time>
      </trkpt>
      <trkpt lat="41.360522238537669" lon="1.295548109337688">
        <ele>379</ele>
        <time>2018-12-29T10:31:07Z</time>
      </trkpt>
      <trkpt lat="41.360462056472898" lon="1.295402348041534">
        <ele>379</ele>
        <time>2018-12-29T10:31:09Z</time>
      </trkpt>
      <trkpt lat="41.360403802245855" lon="1.295260358601809">
        <ele>378.60000610351562</ele>
        <time>2018-12-29T10:31:11Z</time>
      </trkpt>
      <trkpt lat="41.360350493341684" lon="1.295118033885956">
        <ele>378</ele>
        <time>2018-12-29T10:31:13Z</time>
      </trkpt>
      <trkpt lat="41.360324006527662" lon="1.295044608414173">
        <ele>378</ele>
        <time>2018-12-29T10:31:14Z</time>
      </trkpt>
      <trkpt lat="41.360297268256545" lon="1.2949706800282">
        <ele>378.60000610351562</ele>
        <time>2018-12-29T10:31:15Z</time>
      </trkpt>
      <trkpt lat="41.360268350690603" lon="1.294897757470608">
        <ele>379</ele>
        <time>2018-12-29T10:31:16Z</time>
      </trkpt>
      <trkpt lat="41.360239181667566" lon="1.294827098026872">
        <ele>379.39999389648437</ele>
        <time>2018-12-29T10:31:17Z</time>
      </trkpt>
      <trkpt lat="41.360176904127002" lon="1.294686868786812">
        <ele>379.20001220703125</ele>
        <time>2018-12-29T10:31:19Z</time>
      </trkpt>
      <trkpt lat="41.360117057338357" lon="1.294546304270625">
        <ele>378.39999389648437</ele>
        <time>2018-12-29T10:31:21Z</time>
      </trkpt>
      <trkpt lat="41.360088977962732" lon="1.294475812464953">
        <ele>378.20001220703125</ele>
        <time>2018-12-29T10:31:22Z</time>
      </trkpt>
      <trkpt lat="41.360059808939695" lon="1.294405907392502">
        <ele>378.39999389648437</ele>
        <time>2018-12-29T10:31:23Z</time>
      </trkpt>
      <trkpt lat="41.35999652557075" lon="1.294271294027567">
        <ele>379</ele>
        <time>2018-12-29T10:31:25Z</time>
      </trkpt>
      <trkpt lat="41.359929973259568" lon="1.294142380356789">
        <ele>378.39999389648437</ele>
        <time>2018-12-29T10:31:27Z</time>
      </trkpt>
      <trkpt lat="41.359896864742041" lon="1.294082952663302">
        <ele>378</ele>
        <time>2018-12-29T10:31:28Z</time>
      </trkpt>
      <trkpt lat="41.359867192804813" lon="1.294027296826243">
        <ele>378.20001220703125</ele>
        <time>2018-12-29T10:31:29Z</time>
      </trkpt>
      <trkpt lat="41.359842633828521" lon="1.293974407017231">
        <ele>378.20001220703125</ele>
        <time>2018-12-29T10:31:30Z</time>
      </trkpt>
      <trkpt lat="41.359829641878605" lon="1.293917493894696">
        <ele>377.79998779296875</ele>
        <time>2018-12-29T10:31:31Z</time>
      </trkpt>
      <trkpt lat="41.35983919724822" lon="1.293810624629259">
        <ele>377.60000610351562</ele>
        <time>2018-12-29T10:31:33Z</time>
      </trkpt>
      <trkpt lat="41.35986166074872" lon="1.293722866103053">
        <ele>378.20001220703125</ele>
        <time>2018-12-29T10:31:35Z</time>
      </trkpt>
      <trkpt lat="41.359888315200806" lon="1.293636532500386">
        <ele>378.39999389648437</ele>
        <time>2018-12-29T10:31:37Z</time>
      </trkpt>
      <trkpt lat="41.359916562214494" lon="1.293596718460321">
        <ele>378.20001220703125</ele>
        <time>2018-12-29T10:31:38Z</time>
      </trkpt>
      <trkpt lat="41.359954616054893" lon="1.293570399284363">
        <ele>378</ele>
        <time>2018-12-29T10:31:39Z</time>
      </trkpt>
      <trkpt lat="41.360037680715322" lon="1.293539889156818">
        <ele>378</ele>
        <time>2018-12-29T10:31:41Z</time>
      </trkpt>
      <trkpt lat="41.360075566917658" lon="1.293532596901059">
        <ele>378</ele>
        <time>2018-12-29T10:31:42Z</time>
      </trkpt>
      <trkpt lat="41.360113536939025" lon="1.293524298816919">
        <ele>378</ele>
        <time>2018-12-29T10:31:43Z</time>
      </trkpt>
      <trkpt lat="41.360181011259556" lon="1.29349990747869">
        <ele>377.79998779296875</ele>
        <time>2018-12-29T10:31:45Z</time>
      </trkpt>
      <trkpt lat="41.360235996544361" lon="1.293456740677357">
        <ele>378</ele>
        <time>2018-12-29T10:31:47Z</time>
      </trkpt>
      <trkpt lat="41.360277319326997" lon="1.293424721807241">
        <ele>378.39999389648437</ele>
        <time>2018-12-29T10:31:49Z</time>
      </trkpt>
      <trkpt lat="41.360310846939683" lon="1.293428493663669">
        <ele>379</ele>
        <time>2018-12-29T10:31:51Z</time>
      </trkpt>
      <trkpt lat="41.360332891345024" lon="1.293427152559161">
        <ele>379.20001220703125</ele>
        <time>2018-12-29T10:31:53Z</time>
      </trkpt>
      <trkpt lat="41.360349487513304" lon="1.293424973264337">
        <ele>379.79998779296875</ele>
        <time>2018-12-29T10:31:55Z</time>
      </trkpt>
      <trkpt lat="41.36047781445086" lon="1.293192794546485">
        <ele>384.79998779296875</ele>
        <time>2018-12-29T11:27:24Z</time>
      </trkpt>
      <trkpt lat="41.360491560772061" lon="1.293160943314433">
        <ele>385</ele>
        <time>2018-12-29T11:27:26Z</time>
      </trkpt>
      <trkpt lat="41.360507821664214" lon="1.293126493692398">
        <ele>385.20001220703125</ele>
        <time>2018-12-29T11:27:28Z</time>
      </trkpt>
      <trkpt lat="41.360524082556367" lon="1.293091205880046">
        <ele>385.20001220703125</ele>
        <time>2018-12-29T11:27:30Z</time>
      </trkpt>
      <trkpt lat="41.360542187467217" lon="1.293056588619947">
        <ele>385</ele>
        <time>2018-12-29T11:27:32Z</time>
      </trkpt>
      <trkpt lat="41.360561801120639" lon="1.293027503415942">
        <ele>385.20001220703125</ele>
        <time>2018-12-29T11:27:34Z</time>
      </trkpt>
      <trkpt lat="41.360581666231155" lon="1.293002860620618">
        <ele>385.20001220703125</ele>
        <time>2018-12-29T11:27:36Z</time>
      </trkpt>
      <trkpt lat="41.36057018302381" lon="1.293058851733804">
        <ele>385.20001220703125</ele>
        <time>2018-12-29T11:27:38Z</time>
      </trkpt>
      <trkpt lat="41.360568087548018" lon="1.293062204495072">
        <ele>385.20001220703125</ele>
        <time>2018-12-29T11:27:39Z</time>
      </trkpt>
      <trkpt lat="41.360198529437184" lon="1.293521868065">
        <ele>229.19999694824219</ele>
        <time>2018-12-29T11:44:29Z</time>
      </trkpt>
      <trkpt lat="41.360191237181425" lon="1.293535949662328">
        <ele>229.39999389648437</ele>
        <time>2018-12-29T11:44:30Z</time>
      </trkpt>
      <trkpt lat="41.360180675983429" lon="1.293551791459322">
        <ele>229.39999389648437</ele>
        <time>2018-12-29T11:44:31Z</time>
      </trkpt>
      <trkpt lat="41.360142789781094" lon="1.293565621599555">
        <ele>229</ele>
        <time>2018-12-29T11:44:33Z</time>
      </trkpt>
      <trkpt lat="41.360107250511646" lon="1.293559586629272">
        <ele>229.19999694824219</ele>
        <time>2018-12-29T11:44:35Z</time>
      </trkpt>
      <trkpt lat="41.360047403723001" lon="1.29355606622994">
        <ele>229.19999694824219</ele>
        <time>2018-12-29T11:44:37Z</time>
      </trkpt>
      <trkpt lat="41.359977331012487" lon="1.293555228039622">
        <ele>229.19999694824219</ele>
        <time>2018-12-29T11:44:39Z</time>
      </trkpt>
      <trkpt lat="41.359939444810152" lon="1.293556820601225">
        <ele>229.19999694824219</ele>
        <time>2018-12-29T11:44:40Z</time>
      </trkpt>
      <trkpt lat="41.359907928854227" lon="1.293559335172176">
        <ele>229.39999389648437</ele>
        <time>2018-12-29T11:44:41Z</time>
      </trkpt>
      <trkpt lat="41.359851015731692" lon="1.293554054573178">
        <ele>230</ele>
        <time>2018-12-29T11:44:43Z</time>
      </trkpt>
      <trkpt lat="41.359787983819842" lon="1.293512228876352">
        <ele>229.80000305175781</ele>
        <time>2018-12-29T11:44:45Z</time>
      </trkpt>
      <trkpt lat="41.359716653823853" lon="1.293457746505737">
        <ele>229.19999694824219</ele>
        <time>2018-12-29T11:44:47Z</time>
      </trkpt>
      <trkpt lat="41.359616992995143" lon="1.293417345732451">
        <ele>228.80000305175781</ele>
        <time>2018-12-29T11:44:49Z</time>
      </trkpt>
      <trkpt lat="41.359560415148735" lon="1.293419525027275">
        <ele>228.80000305175781</ele>
        <time>2018-12-29T11:44:50Z</time>
      </trkpt>
      <trkpt lat="41.359501406550407" lon="1.293443078175187">
        <ele>228.80000305175781</ele>
        <time>2018-12-29T11:44:51Z</time>
      </trkpt>
      <trkpt lat="41.359408870339394" lon="1.293555730953813">
        <ele>228.39999389648437</ele>
        <time>2018-12-29T11:44:53Z</time>
      </trkpt>
      <trkpt lat="41.359382634982467" lon="1.293634688481689">
        <ele>227.80000305175781</ele>
        <time>2018-12-29T11:44:54Z</time>
      </trkpt>
      <trkpt lat="41.359371403232217" lon="1.293721860274673">
        <ele>227.60000610351562</ele>
        <time>2018-12-29T11:44:55Z</time>
      </trkpt>
      <trkpt lat="41.359368972480297" lon="1.293808110058308">
        <ele>227.39999389648437</ele>
        <time>2018-12-29T11:44:56Z</time>
      </trkpt>
      <trkpt lat="41.359369643032551" lon="1.293896287679672">
        <ele>227</ele>
        <time>2018-12-29T11:44:57Z</time>
      </trkpt>
      <trkpt lat="41.359360590577126" lon="1.293976502493024">
        <ele>227</ele>
        <time>2018-12-29T11:44:58Z</time>
      </trkpt>
      <trkpt lat="41.359338965266943" lon="1.294049425050616">
        <ele>227.19999694824219</ele>
        <time>2018-12-29T11:44:59Z</time>
      </trkpt>
      <trkpt lat="41.359305018559098" lon="1.29412192851305">
        <ele>227.39999389648437</ele>
        <time>2018-12-29T11:45:00Z</time>
      </trkpt>
      <trkpt lat="41.359259421005845" lon="1.294190492480993">
        <ele>227.60000610351562</ele>
        <time>2018-12-29T11:45:01Z</time>
      </trkpt>
      <trkpt lat="41.359166214242578" lon="1.294331308454275">
        <ele>227.60000610351562</ele>
        <time>2018-12-29T11:45:03Z</time>
      </trkpt>
      <trkpt lat="41.359121035784483" lon="1.294408589601517">
        <ele>227.60000610351562</ele>
        <time>2018-12-29T11:45:04Z</time>
      </trkpt>
      <trkpt lat="41.359075270593166" lon="1.294485284015536">
        <ele>227.60000610351562</ele>
        <time>2018-12-29T11:45:05Z</time>
      </trkpt>
      <trkpt lat="41.35898943990469" lon="1.294649988412857">
        <ele>227.19999694824219</ele>
        <time>2018-12-29T11:45:07Z</time>
      </trkpt>
      <trkpt lat="41.358921295031905" lon="1.294832713901997">
        <ele>227</ele>
        <time>2018-12-29T11:45:09Z</time>
      </trkpt>
      <trkpt lat="41.358889862895012" lon="1.294927429407835">
        <ele>227.19999694824219</ele>
        <time>2018-12-29T11:45:10Z</time>
      </trkpt>
      <trkpt lat="41.35886044241488" lon="1.29502440802753">
        <ele>227</ele>
        <time>2018-12-29T11:45:11Z</time>
      </trkpt>
      <trkpt lat="41.358806965872645" lon="1.295224986970425">
        <ele>227</ele>
        <time>2018-12-29T11:45:13Z</time>
      </trkpt>
      <trkpt lat="41.358756003901362" lon="1.295427661389113">
        <ele>227</ele>
        <time>2018-12-29T11:45:15Z</time>
      </trkpt>
      <trkpt lat="41.358701605349779" lon="1.295635784044862">
        <ele>226.60000610351562</ele>
        <time>2018-12-29T11:45:17Z</time>
      </trkpt>
      <trkpt lat="41.358655756339431" lon="1.29584432579577">
        <ele>226.19999694824219</ele>
        <time>2018-12-29T11:45:19Z</time>
      </trkpt>
      <trkpt lat="41.358601273968816" lon="1.296046664938331">
        <ele>226</ele>
        <time>2018-12-29T11:45:21Z</time>
      </trkpt>
      <trkpt lat="41.358547629788518" lon="1.296254117041826">
        <ele>225.80000305175781</ele>
        <time>2018-12-29T11:45:23Z</time>
      </trkpt>
      <trkpt lat="41.358494991436601" lon="1.296461820602417">
        <ele>225.60000610351562</ele>
        <time>2018-12-29T11:45:25Z</time>
      </trkpt>
      <trkpt lat="41.358445873484015" lon="1.296676816418767">
        <ele>225.19999694824219</ele>
        <time>2018-12-29T11:45:27Z</time>
      </trkpt>
      <trkpt lat="41.358408071100712" lon="1.296906396746635">
        <ele>225</ele>
        <time>2018-12-29T11:45:29Z</time>
      </trkpt>
      <trkpt lat="41.358393738046288" lon="1.297021564096212">
        <ele>225.19999694824219</ele>
        <time>2018-12-29T11:45:30Z</time>
      </trkpt>
      <trkpt lat="41.358382673934102" lon="1.297135725617409">
        <ele>225.39999389648437</ele>
        <time>2018-12-29T11:45:31Z</time>
      </trkpt>
      <trkpt lat="41.358366329222918" lon="1.297361785545945">
        <ele>225</ele>
        <time>2018-12-29T11:45:33Z</time>
      </trkpt>
      <trkpt lat="41.358349481597543" lon="1.297590779140592">
        <ele>224.60000610351562</ele>
        <time>2018-12-29T11:45:35Z</time>
      </trkpt>
      <trkpt lat="41.358336322009563" lon="1.297813067212701">
        <ele>224.39999389648437</ele>
        <time>2018-12-29T11:45:37Z</time>
      </trkpt>
      <trkpt lat="41.358328862115741" lon="1.297922367230058">
        <ele>224.39999389648437</ele>
        <time>2018-12-29T11:45:38Z</time>
      </trkpt>
      <trkpt lat="41.358318720012903" lon="1.29803191870451">
        <ele>224.19999694824219</ele>
        <time>2018-12-29T11:45:39Z</time>
      </trkpt>
      <trkpt lat="41.358302291482687" lon="1.298246830701828">
        <ele>224.39999389648437</ele>
        <time>2018-12-29T11:45:41Z</time>
      </trkpt>
      <trkpt lat="41.358285192400217" lon="1.298461575061083">
        <ele>224.60000610351562</ele>
        <time>2018-12-29T11:45:43Z</time>
      </trkpt>
      <trkpt lat="41.358268009498715" lon="1.298675313591957">
        <ele>224.80000305175781</ele>
        <time>2018-12-29T11:45:45Z</time>
      </trkpt>
      <trkpt lat="41.358253508806229" lon="1.298883939161897">
        <ele>224.80000305175781</ele>
        <time>2018-12-29T11:45:47Z</time>
      </trkpt>
      <trkpt lat="41.358233727514744" lon="1.299091642722487">
        <ele>225.19999694824219</ele>
        <time>2018-12-29T11:45:49Z</time>
      </trkpt>
      <trkpt lat="41.358216041699052" lon="1.299297083169222">
        <ele>225.19999694824219</ele>
        <time>2018-12-29T11:45:51Z</time>
      </trkpt>
      <trkpt lat="41.358180586248636" lon="1.29951149225235">
        <ele>224.80000305175781</ele>
        <time>2018-12-29T11:45:53Z</time>
      </trkpt>
      <trkpt lat="41.358149405568838" lon="1.299616601318121">
        <ele>224.60000610351562</ele>
        <time>2018-12-29T11:45:54Z</time>
      </trkpt>
      <trkpt lat="41.358105316758156" lon="1.29971525631845">
        <ele>224</ele>
        <time>2018-12-29T11:45:55Z</time>
      </trkpt>
      <trkpt lat="41.357976319268346" lon="1.299876607954502">
        <ele>223.39999389648437</ele>
        <time>2018-12-29T11:45:57Z</time>
      </trkpt>
      <trkpt lat="41.357896607369184" lon="1.299939723685384">
        <ele>223.19999694824219</ele>
        <time>2018-12-29T11:45:58Z</time>
      </trkpt>
      <trkpt lat="41.357812955975533" lon="1.299990601837635">
        <ele>222.80000305175781</ele>
        <time>2018-12-29T11:45:59Z</time>
      </trkpt>
      <trkpt lat="41.357728047296405" lon="1.300038211047649">
        <ele>222.39999389648437</ele>
        <time>2018-12-29T11:46:00Z</time>
      </trkpt>
      <trkpt lat="41.357643809169531" lon="1.300085820257664">
        <ele>222.39999389648437</ele>
        <time>2018-12-29T11:46:01Z</time>
      </trkpt>
      <trkpt lat="41.357554374262691" lon="1.300134100019932">
        <ele>222.19999694824219</ele>
        <time>2018-12-29T11:46:02Z</time>
      </trkpt>
      <trkpt lat="41.357465526089072" lon="1.300183804705739">
        <ele>221.19999694824219</ele>
        <time>2018-12-29T11:46:03Z</time>
      </trkpt>
      <trkpt lat="41.357376175001264" lon="1.300235521048307">
        <ele>220.39999389648437</ele>
        <time>2018-12-29T11:46:04Z</time>
      </trkpt>
      <trkpt lat="41.357286823913455" lon="1.300286231562495">
        <ele>220.19999694824219</ele>
        <time>2018-12-29T11:46:05Z</time>
      </trkpt>
      <trkpt lat="41.357197221368551" lon="1.300338115543127">
        <ele>219.80000305175781</ele>
        <time>2018-12-29T11:46:06Z</time>
      </trkpt>
      <trkpt lat="41.357107535004616" lon="1.300391843542457">
        <ele>220</ele>
        <time>2018-12-29T11:46:07Z</time>
      </trkpt>
      <trkpt lat="41.356925899162889" lon="1.300509022548795">
        <ele>220.60000610351562</ele>
        <time>2018-12-29T11:46:09Z</time>
      </trkpt>
      <trkpt lat="41.356737557798624" lon="1.30062460899353">
        <ele>219.80000305175781</ele>
        <time>2018-12-29T11:46:11Z</time>
      </trkpt>
      <trkpt lat="41.35654921643436" lon="1.300742626190186">
        <ele>219.39999389648437</ele>
        <time>2018-12-29T11:46:13Z</time>
      </trkpt>
      <trkpt lat="41.356451651081443" lon="1.300798617303371">
        <ele>219</ele>
        <time>2018-12-29T11:46:14Z</time>
      </trkpt>
      <trkpt lat="41.356353582814336" lon="1.300856536254287">
        <ele>219</ele>
        <time>2018-12-29T11:46:15Z</time>
      </trkpt>
      <trkpt lat="41.356155183166265" lon="1.300974888727069">
        <ele>218.39999389648437</ele>
        <time>2018-12-29T11:46:17Z</time>
      </trkpt>
      <trkpt lat="41.356053678318858" lon="1.301031801849604">
        <ele>218</ele>
        <time>2018-12-29T11:46:18Z</time>
      </trkpt>
      <trkpt lat="41.355951000005007" lon="1.301087876781821">
        <ele>217.60000610351562</ele>
        <time>2018-12-29T11:46:19Z</time>
      </trkpt>
      <trkpt lat="41.355751594528556" lon="1.301206732168794">
        <ele>217.39999389648437</ele>
        <time>2018-12-29T11:46:21Z</time>
      </trkpt>
      <trkpt lat="41.355547411367297" lon="1.301324162632227">
        <ele>216.80000305175781</ele>
        <time>2018-12-29T11:46:23Z</time>
      </trkpt>
      <trkpt lat="41.355333840474486" lon="1.301418375223875">
        <ele>216</ele>
        <time>2018-12-29T11:46:25Z</time>
      </trkpt>
      <trkpt lat="41.355224372819066" lon="1.301464140415192">
        <ele>215.60000610351562</ele>
        <time>2018-12-29T11:46:26Z</time>
      </trkpt>
      <trkpt lat="41.355113564059138" lon="1.301506720483303">
        <ele>214.80000305175781</ele>
        <time>2018-12-29T11:46:27Z</time>
      </trkpt>
      <trkpt lat="41.354895131662488" lon="1.301598083227873">
        <ele>214.39999389648437</ele>
        <time>2018-12-29T11:46:29Z</time>
      </trkpt>
      <trkpt lat="41.354787843301892" lon="1.301641836762428">
        <ele>213</ele>
        <time>2018-12-29T11:46:30Z</time>
      </trkpt>
      <trkpt lat="41.354678208008409" lon="1.301689948886633">
        <ele>213</ele>
        <time>2018-12-29T11:46:31Z</time>
      </trkpt>
      <trkpt lat="41.354566477239132" lon="1.301738228648901">
        <ele>214</ele>
        <time>2018-12-29T11:46:32Z</time>
      </trkpt>
      <trkpt lat="41.35445399209857" lon="1.30178558640182">
        <ele>213.60000610351562</ele>
        <time>2018-12-29T11:46:33Z</time>
      </trkpt>
      <trkpt lat="41.354227848351002" lon="1.301882648840547">
        <ele>212.60000610351562</ele>
        <time>2018-12-29T11:46:35Z</time>
      </trkpt>
      <trkpt lat="41.354003380984068" lon="1.301975939422846">
        <ele>211.80000305175781</ele>
        <time>2018-12-29T11:46:37Z</time>
      </trkpt>
      <trkpt lat="41.353890979662538" lon="1.302022123709321">
        <ele>211</ele>
        <time>2018-12-29T11:46:38Z</time>
      </trkpt>
      <trkpt lat="41.353779919445515" lon="1.302068643271923">
        <ele>210.19999694824219</ele>
        <time>2018-12-29T11:46:39Z</time>
      </trkpt>
      <trkpt lat="41.353561235591769" lon="1.30216034129262">
        <ele>210.19999694824219</ele>
        <time>2018-12-29T11:46:41Z</time>
      </trkpt>
      <trkpt lat="41.353449672460556" lon="1.302201831713319">
        <ele>210.39999389648437</ele>
        <time>2018-12-29T11:46:42Z</time>
      </trkpt>
      <trkpt lat="41.353340204805136" lon="1.302240220829845">
        <ele>210</ele>
        <time>2018-12-29T11:46:43Z</time>
      </trkpt>
      <trkpt lat="41.353111127391458" lon="1.302306689321995">
        <ele>209.39999389648437</ele>
        <time>2018-12-29T11:46:45Z</time>
      </trkpt>
      <trkpt lat="41.35287819430232" lon="1.302341558039188">
        <ele>209.39999389648437</ele>
        <time>2018-12-29T11:46:47Z</time>
      </trkpt>
      <trkpt lat="41.352762188762426" lon="1.302356477826834">
        <ele>209</ele>
        <time>2018-12-29T11:46:48Z</time>
      </trkpt>
      <trkpt lat="41.35264459066093" lon="1.302371732890606">
        <ele>208.60000610351562</ele>
        <time>2018-12-29T11:46:49Z</time>
      </trkpt>
      <trkpt lat="41.352407718077302" lon="1.302406182512641">
        <ele>208.19999694824219</ele>
        <time>2018-12-29T11:46:51Z</time>
      </trkpt>
      <trkpt lat="41.352288275957108" lon="1.302422443404794">
        <ele>207.60000610351562</ele>
        <time>2018-12-29T11:46:52Z</time>
      </trkpt>
      <trkpt lat="41.352166654542089" lon="1.302438285201788">
        <ele>207.19999694824219</ele>
        <time>2018-12-29T11:46:53Z</time>
      </trkpt>
      <trkpt lat="41.351923579350114" lon="1.302470304071903">
        <ele>206.60000610351562</ele>
        <time>2018-12-29T11:46:55Z</time>
      </trkpt>
      <trkpt lat="41.351677654311061" lon="1.30250190384686">
        <ele>206</ele>
        <time>2018-12-29T11:46:57Z</time>
      </trkpt>
      <trkpt lat="41.35155351832509" lon="1.30251950584352">
        <ele>205.39999389648437</ele>
        <time>2018-12-29T11:46:58Z</time>
      </trkpt>
      <trkpt lat="41.351427622139454" lon="1.302532916888595">
        <ele>205.19999694824219</ele>
        <time>2018-12-29T11:46:59Z</time>
      </trkpt>
      <trkpt lat="41.35117725469172" lon="1.302563175559044">
        <ele>205</ele>
        <time>2018-12-29T11:47:01Z</time>
      </trkpt>
      <trkpt lat="41.351052783429623" lon="1.302584214136004">
        <ele>204.39999389648437</ele>
        <time>2018-12-29T11:47:02Z</time>
      </trkpt>
      <trkpt lat="41.35093292221427" lon="1.302617909386754">
        <ele>204.39999389648437</ele>
        <time>2018-12-29T11:47:03Z</time>
      </trkpt>
      <trkpt lat="41.350818173959851" lon="1.302674068138003">
        <ele>204.19999694824219</ele>
        <time>2018-12-29T11:47:04Z</time>
      </trkpt>
      <trkpt lat="41.350712645798922" lon="1.302757887169719">
        <ele>204.60000610351562</ele>
        <time>2018-12-29T11:47:05Z</time>
      </trkpt>
      <trkpt lat="41.350540397688746" lon="1.302986713126302">
        <ele>204.39999389648437</ele>
        <time>2018-12-29T11:47:07Z</time>
      </trkpt>
      <trkpt lat="41.350464122369885" lon="1.303104562684894">
        <ele>203.80000305175781</ele>
        <time>2018-12-29T11:47:08Z</time>
      </trkpt>
      <trkpt lat="41.350385835394263" lon="1.303215455263853">
        <ele>203.19999694824219</ele>
        <time>2018-12-29T11:47:09Z</time>
      </trkpt>
      <trkpt lat="41.350225992500782" lon="1.303430199623108">
        <ele>202.39999389648437</ele>
        <time>2018-12-29T11:47:11Z</time>
      </trkpt>
      <trkpt lat="41.350146448239684" lon="1.303540505468845">
        <ele>202.39999389648437</ele>
        <time>2018-12-29T11:47:12Z</time>
      </trkpt>
      <trkpt lat="41.350070843473077" lon="1.303647374734283">
        <ele>202.19999694824219</ele>
        <time>2018-12-29T11:47:13Z</time>
      </trkpt>
      <trkpt lat="41.349918879568577" lon="1.303862789645791">
        <ele>202</ele>
        <time>2018-12-29T11:47:15Z</time>
      </trkpt>
      <trkpt lat="41.34976951405406" lon="1.304078623652458">
        <ele>201.60000610351562</ele>
        <time>2018-12-29T11:47:17Z</time>
      </trkpt>
      <trkpt lat="41.349620316177607" lon="1.30429713986814">
        <ele>201</ele>
        <time>2018-12-29T11:47:19Z</time>
      </trkpt>
      <trkpt lat="41.349468436092138" lon="1.304511716589332">
        <ele>199.80000305175781</ele>
        <time>2018-12-29T11:47:21Z</time>
      </trkpt>
      <trkpt lat="41.349317394196987" lon="1.304731322452426">
        <ele>200.39999389648437</ele>
        <time>2018-12-29T11:47:23Z</time>
      </trkpt>
      <trkpt lat="41.349160233512521" lon="1.304944306612015">
        <ele>199.80000305175781</ele>
        <time>2018-12-29T11:47:25Z</time>
      </trkpt>
      <trkpt lat="41.349000055342913" lon="1.30515125580132">
        <ele>198.39999389648437</ele>
        <time>2018-12-29T11:47:27Z</time>
      </trkpt>
      <trkpt lat="41.348909363150597" lon="1.305231722071767">
        <ele>197.80000305175781</ele>
        <time>2018-12-29T11:47:28Z</time>
      </trkpt>
      <trkpt lat="41.348807942122221" lon="1.305287461727858">
        <ele>197.60000610351562</ele>
        <time>2018-12-29T11:47:29Z</time>
      </trkpt>
      <trkpt lat="41.348588839173317" lon="1.305359126999974">
        <ele>197.60000610351562</ele>
        <time>2018-12-29T11:47:31Z</time>
      </trkpt>
      <trkpt lat="41.348480377346277" lon="1.305396677926183">
        <ele>197.39999389648437</ele>
        <time>2018-12-29T11:47:32Z</time>
      </trkpt>
      <trkpt lat="41.348372166976333" lon="1.305431462824345">
        <ele>196.80000305175781</ele>
        <time>2018-12-29T11:47:33Z</time>
      </trkpt>
      <trkpt lat="41.348152393475175" lon="1.305501200258732">
        <ele>196.39999389648437</ele>
        <time>2018-12-29T11:47:35Z</time>
      </trkpt>
      <trkpt lat="41.347930943593383" lon="1.305573787540197">
        <ele>196.39999389648437</ele>
        <time>2018-12-29T11:47:37Z</time>
      </trkpt>
      <trkpt lat="41.347822481766343" lon="1.305611338466406">
        <ele>196.19999694824219</ele>
        <time>2018-12-29T11:47:38Z</time>
      </trkpt>
      <trkpt lat="41.347712930291891" lon="1.305645620450378">
        <ele>195.80000305175781</ele>
        <time>2018-12-29T11:47:39Z</time>
      </trkpt>
      <trkpt lat="41.347500868141651" lon="1.305732624605298">
        <ele>195.39999389648437</ele>
        <time>2018-12-29T11:47:41Z</time>
      </trkpt>
      <trkpt lat="41.347292913123965" lon="1.305848127231002">
        <ele>194.19999694824219</ele>
        <time>2018-12-29T11:47:43Z</time>
      </trkpt>
      <trkpt lat="41.347189731895924" lon="1.305912919342518">
        <ele>194.19999694824219</ele>
        <time>2018-12-29T11:47:44Z</time>
      </trkpt>
      <trkpt lat="41.347085209563375" lon="1.305972933769226">
        <ele>194.19999694824219</ele>
        <time>2018-12-29T11:47:45Z</time>
      </trkpt>
      <trkpt lat="41.346867782995105" lon="1.306082652881742">
        <ele>193.80000305175781</ele>
        <time>2018-12-29T11:47:47Z</time>
      </trkpt>
      <trkpt lat="41.346757309511304" lon="1.306140488013625">
        <ele>193</ele>
        <time>2018-12-29T11:47:48Z</time>
      </trkpt>
      <trkpt lat="41.346647003665566" lon="1.306197820231319">
        <ele>192.60000610351562</ele>
        <time>2018-12-29T11:47:49Z</time>
      </trkpt>
      <trkpt lat="41.346538793295622" lon="1.306259008124471">
        <ele>192</ele>
        <time>2018-12-29T11:47:50Z</time>
      </trkpt>
      <trkpt lat="41.346430080011487" lon="1.306320698931813">
        <ele>191.80000305175781</ele>
        <time>2018-12-29T11:47:51Z</time>
      </trkpt>
      <trkpt lat="41.346211479976773" lon="1.306446511298418">
        <ele>191.19999694824219</ele>
        <time>2018-12-29T11:47:53Z</time>
      </trkpt>
      <trkpt lat="41.346102599054575" lon="1.306507531553507">
        <ele>190.80000305175781</ele>
        <time>2018-12-29T11:47:54Z</time>
      </trkpt>
      <trkpt lat="41.345991957932711" lon="1.306555978953838">
        <ele>190.19999694824219</ele>
        <time>2018-12-29T11:47:55Z</time>
      </trkpt>
      <trkpt lat="41.345759863033891" lon="1.306617502123117">
        <ele>189.80000305175781</ele>
        <time>2018-12-29T11:47:57Z</time>
      </trkpt>
      <trkpt lat="41.345530282706022" lon="1.306661255657673">
        <ele>189.19999694824219</ele>
        <time>2018-12-29T11:47:59Z</time>
      </trkpt>
      <trkpt lat="41.345308078452945" lon="1.306702494621277">
        <ele>188.80000305175781</ele>
        <time>2018-12-29T11:48:01Z</time>
      </trkpt>
      <trkpt lat="41.345196682959795" lon="1.306725544854999">
        <ele>188.60000610351562</ele>
        <time>2018-12-29T11:48:02Z</time>
      </trkpt>
      <trkpt lat="41.345086041837931" lon="1.306746918708086">
        <ele>188.80000305175781</ele>
        <time>2018-12-29T11:48:03Z</time>
      </trkpt>
      <trkpt lat="41.344973975792527" lon="1.306770639494062">
        <ele>188.60000610351562</ele>
        <time>2018-12-29T11:48:04Z</time>
      </trkpt>
      <trkpt lat="41.344861155375838" lon="1.306795449927449">
        <ele>188.39999389648437</ele>
        <time>2018-12-29T11:48:05Z</time>
      </trkpt>
      <trkpt lat="41.344631742686033" lon="1.306840544566512">
        <ele>187.80000305175781</ele>
        <time>2018-12-29T11:48:07Z</time>
      </trkpt>
      <trkpt lat="41.344518503174186" lon="1.306862672790885">
        <ele>187.39999389648437</ele>
        <time>2018-12-29T11:48:08Z</time>
      </trkpt>
      <trkpt lat="41.344404760748148" lon="1.306885136291385">
        <ele>186.80000305175781</ele>
        <time>2018-12-29T11:48:09Z</time>
      </trkpt>
      <trkpt lat="41.344291269779205" lon="1.306909276172519">
        <ele>186.19999694824219</ele>
        <time>2018-12-29T11:48:10Z</time>
      </trkpt>
      <trkpt lat="41.344180377200246" lon="1.30693182349205">
        <ele>186</ele>
        <time>2018-12-29T11:48:11Z</time>
      </trkpt>
      <trkpt lat="41.343958927318454" lon="1.306979516521096">
        <ele>185.80000305175781</ele>
        <time>2018-12-29T11:48:13Z</time>
      </trkpt>
      <trkpt lat="41.343848621472716" lon="1.307002734392881">
        <ele>186</ele>
        <time>2018-12-29T11:48:14Z</time>
      </trkpt>
      <trkpt lat="41.343737812712789" lon="1.307026036083698">
        <ele>186</ele>
        <time>2018-12-29T11:48:15Z</time>
      </trkpt>
      <trkpt lat="41.343517703935504" lon="1.307072388008237">
        <ele>185.80000305175781</ele>
        <time>2018-12-29T11:48:17Z</time>
      </trkpt>
      <trkpt lat="41.343298936262727" lon="1.307117147371173">
        <ele>185.39999389648437</ele>
        <time>2018-12-29T11:48:19Z</time>
      </trkpt>
      <trkpt lat="41.343188965693116" lon="1.307140700519085">
        <ele>185</ele>
        <time>2018-12-29T11:48:20Z</time>
      </trkpt>
      <trkpt lat="41.343080336228013" lon="1.307168193161488">
        <ele>184.80000305175781</ele>
        <time>2018-12-29T11:48:21Z</time>
      </trkpt>
      <trkpt lat="41.342973550781608" lon="1.307204151526094">
        <ele>184.39999389648437</ele>
        <time>2018-12-29T11:48:22Z</time>
      </trkpt>
      <trkpt lat="41.342871878296137" lon="1.307251090183854">
        <ele>184.39999389648437</ele>
        <time>2018-12-29T11:48:23Z</time>
      </trkpt>
      <trkpt lat="41.342771546915174" lon="1.307303896173835">
        <ele>184.19999694824219</ele>
        <time>2018-12-29T11:48:24Z</time>
      </trkpt>
      <trkpt lat="41.342669203877449" lon="1.307362234219909">
        <ele>184</ele>
        <time>2018-12-29T11:48:25Z</time>
      </trkpt>
      <trkpt lat="41.342567363753915" lon="1.307418225333095">
        <ele>184</ele>
        <time>2018-12-29T11:48:26Z</time>
      </trkpt>
      <trkpt lat="41.342464350163937" lon="1.307474384084344">
        <ele>183.39999389648437</ele>
        <time>2018-12-29T11:48:27Z</time>
      </trkpt>
      <trkpt lat="41.342264777049422" lon="1.307589802891016">
        <ele>182.80000305175781</ele>
        <time>2018-12-29T11:48:29Z</time>
      </trkpt>
      <trkpt lat="41.34206922724843" lon="1.307704467326403">
        <ele>182.39999389648437</ele>
        <time>2018-12-29T11:48:31Z</time>
      </trkpt>
      <trkpt lat="41.341873090714216" lon="1.307808151468635">
        <ele>182.60000610351562</ele>
        <time>2018-12-29T11:48:33Z</time>
      </trkpt>
      <trkpt lat="41.341683072969317" lon="1.307923989370465">
        <ele>182</ele>
        <time>2018-12-29T11:48:35Z</time>
      </trkpt>
      <trkpt lat="41.341584920883179" lon="1.307980902493">
        <ele>181.60000610351562</ele>
        <time>2018-12-29T11:48:36Z</time>
      </trkpt>
      <trkpt lat="41.341487187892199" lon="1.308034211397171">
        <ele>181</ele>
        <time>2018-12-29T11:48:37Z</time>
      </trkpt>
      <trkpt lat="41.341291638091207" lon="1.308140074834228">
        <ele>180.39999389648437</ele>
        <time>2018-12-29T11:48:39Z</time>
      </trkpt>
      <trkpt lat="41.341097848489881" lon="1.30824719555676">
        <ele>180.19999694824219</ele>
        <time>2018-12-29T11:48:41Z</time>
      </trkpt>
      <trkpt lat="41.340902298688889" lon="1.308357920497656">
        <ele>180.39999389648437</ele>
        <time>2018-12-29T11:48:43Z</time>
      </trkpt>
      <trkpt lat="41.34080414660275" lon="1.308417180553079">
        <ele>180.39999389648437</ele>
        <time>2018-12-29T11:48:44Z</time>
      </trkpt>
      <trkpt lat="41.340705743059516" lon="1.308476272970438">
        <ele>180.60000610351562</ele>
        <time>2018-12-29T11:48:45Z</time>
      </trkpt>
      <trkpt lat="41.34050709195435" lon="1.308594038709998">
        <ele>180.60000610351562</ele>
        <time>2018-12-29T11:48:47Z</time>
      </trkpt>
      <trkpt lat="41.340302992612123" lon="1.308704763650894">
        <ele>179.80000305175781</ele>
        <time>2018-12-29T11:48:49Z</time>
      </trkpt>
      <trkpt lat="41.340203499421477" lon="1.308764442801476">
        <ele>179.19999694824219</ele>
        <time>2018-12-29T11:48:50Z</time>
      </trkpt>
      <trkpt lat="41.340107610449195" lon="1.308822194114327">
        <ele>178.80000305175781</ele>
        <time>2018-12-29T11:48:51Z</time>
      </trkpt>
      <trkpt lat="41.339921029284596" lon="1.308953706175089">
        <ele>178.39999389648437</ele>
        <time>2018-12-29T11:48:53Z</time>
      </trkpt>
      <trkpt lat="41.339738890528679" lon="1.309089073911309">
        <ele>178</ele>
        <time>2018-12-29T11:48:55Z</time>
      </trkpt>
      <trkpt lat="41.339555829763412" lon="1.309225615113974">
        <ele>177.80000305175781</ele>
        <time>2018-12-29T11:48:57Z</time>
      </trkpt>
      <trkpt lat="41.339372266083956" lon="1.309357965365052">
        <ele>177.60000610351562</ele>
        <time>2018-12-29T11:48:59Z</time>
      </trkpt>
      <trkpt lat="41.339184092357755" lon="1.309499703347683">
        <ele>177.39999389648437</ele>
        <time>2018-12-29T11:49:01Z</time>
      </trkpt>
      <trkpt lat="41.338996337726712" lon="1.309650242328644">
        <ele>177</ele>
        <time>2018-12-29T11:49:03Z</time>
      </trkpt>
      <trkpt lat="41.338905980810523" lon="1.309717046096921">
        <ele>176.60000610351562</ele>
        <time>2018-12-29T11:49:04Z</time>
      </trkpt>
      <trkpt lat="41.338814115151763" lon="1.30978343077004">
        <ele>176.39999389648437</ele>
        <time>2018-12-29T11:49:05Z</time>
      </trkpt>
      <trkpt lat="41.338723255321383" lon="1.309848390519619">
        <ele>176.19999694824219</ele>
        <time>2018-12-29T11:49:06Z</time>
      </trkpt>
      <trkpt lat="41.338635329157114" lon="1.309916451573372">
        <ele>176.39999389648437</ele>
        <time>2018-12-29T11:49:07Z</time>
      </trkpt>
      <trkpt lat="41.338452603667974" lon="1.310045449063182">
        <ele>176.19999694824219</ele>
        <time>2018-12-29T11:49:09Z</time>
      </trkpt>
      <trkpt lat="41.33827205747366" lon="1.310153072699904">
        <ele>176.39999389648437</ele>
        <time>2018-12-29T11:49:11Z</time>
      </trkpt>
      <trkpt lat="41.338076340034604" lon="1.310237729921937">
        <ele>176.39999389648437</ele>
        <time>2018-12-29T11:49:13Z</time>
      </trkpt>
      <trkpt lat="41.33786553516984" lon="1.310299001634121">
        <ele>175.80000305175781</ele>
        <time>2018-12-29T11:49:15Z</time>
      </trkpt>
      <trkpt lat="41.337757743895054" lon="1.310328003019095">
        <ele>175.19999694824219</ele>
        <time>2018-12-29T11:49:16Z</time>
      </trkpt>
      <trkpt lat="41.337651293724775" lon="1.310352310538292">
        <ele>175</ele>
        <time>2018-12-29T11:49:17Z</time>
      </trkpt>
      <trkpt lat="41.337431855499744" lon="1.310410900041461">
        <ele>174.19999694824219</ele>
        <time>2018-12-29T11:49:19Z</time>
      </trkpt>
      <trkpt lat="41.337219625711441" lon="1.310501173138619">
        <ele>173.60000610351562</ele>
        <time>2018-12-29T11:49:21Z</time>
      </trkpt>
      <trkpt lat="41.337024075910449" lon="1.310651460662484">
        <ele>173.19999694824219</ele>
        <time>2018-12-29T11:49:23Z</time>
      </trkpt>
      <trkpt lat="41.336925085633993" lon="1.310746427625418">
        <ele>172.60000610351562</ele>
        <time>2018-12-29T11:49:24Z</time>
      </trkpt>
      <trkpt lat="41.336825089529157" lon="1.310840724036098">
        <ele>172.19999694824219</ele>
        <time>2018-12-29T11:49:25Z</time>
      </trkpt>
      <trkpt lat="41.336629623547196" lon="1.311025712639093">
        <ele>171.80000305175781</ele>
        <time>2018-12-29T11:49:27Z</time>
      </trkpt>
      <trkpt lat="41.336531806737185" lon="1.311119254678488">
        <ele>171.19999694824219</ele>
        <time>2018-12-29T11:49:28Z</time>
      </trkpt>
      <trkpt lat="41.336433235555887" lon="1.311210198327899">
        <ele>170.60000610351562</ele>
        <time>2018-12-29T11:49:29Z</time>
      </trkpt>
      <trkpt lat="41.336229974403977" lon="1.31139300763607">
        <ele>170</ele>
        <time>2018-12-29T11:49:31Z</time>
      </trkpt>
      <trkpt lat="41.336030820384622" lon="1.311569446697831">
        <ele>169</ele>
        <time>2018-12-29T11:49:33Z</time>
      </trkpt>
      <trkpt lat="41.335831498727202" lon="1.311720572412014">
        <ele>168.60000610351562</ele>
        <time>2018-12-29T11:49:35Z</time>
      </trkpt>
      <trkpt lat="41.335621029138565" lon="1.311863400042057">
        <ele>168</ele>
        <time>2018-12-29T11:49:37Z</time>
      </trkpt>
      <trkpt lat="41.335510304197669" lon="1.311941351741552">
        <ele>167.60000610351562</ele>
        <time>2018-12-29T11:49:38Z</time>
      </trkpt>
      <trkpt lat="41.335405530408025" lon="1.312005557119846">
        <ele>167.19999694824219</ele>
        <time>2018-12-29T11:49:39Z</time>
      </trkpt>
      <trkpt lat="41.335295392200351" lon="1.312079653143883">
        <ele>166.80000305175781</ele>
        <time>2018-12-29T11:49:40Z</time>
      </trkpt>
      <trkpt lat="41.335189947858453" lon="1.312154335901141">
        <ele>166.60000610351562</ele>
        <time>2018-12-29T11:49:41Z</time>
      </trkpt>
      <trkpt lat="41.33508425205946" lon="1.312229353934526">
        <ele>166.39999389648437</ele>
        <time>2018-12-29T11:49:42Z</time>
      </trkpt>
      <trkpt lat="41.334982663393021" lon="1.312314262613654">
        <ele>166.39999389648437</ele>
        <time>2018-12-29T11:49:43Z</time>
      </trkpt>
      <trkpt lat="41.334888534620404" lon="1.31241274997592">
        <ele>166.19999694824219</ele>
        <time>2018-12-29T11:49:44Z</time>
      </trkpt>
      <trkpt lat="41.334804547950625" lon="1.312525402754545">
        <ele>165.60000610351562</ele>
        <time>2018-12-29T11:49:45Z</time>
      </trkpt>
      <trkpt lat="41.334729949012399" lon="1.312662865966559">
        <ele>165</ele>
        <time>2018-12-29T11:49:46Z</time>
      </trkpt>
      <trkpt lat="41.334668844938278" lon="1.312802089378238">
        <ele>164.39999389648437</ele>
        <time>2018-12-29T11:49:47Z</time>
      </trkpt>
      <trkpt lat="41.334609752520919" lon="1.312940223142505">
        <ele>164</ele>
        <time>2018-12-29T11:49:48Z</time>
      </trkpt>
      <trkpt lat="41.33455216884613" lon="1.313077518716455">
        <ele>163.60000610351562</ele>
        <time>2018-12-29T11:49:49Z</time>
      </trkpt>
      <trkpt lat="41.334502045065165" lon="1.313199391588569">
        <ele>163.60000610351562</ele>
        <time>2018-12-29T11:49:50Z</time>
      </trkpt>
      <trkpt lat="41.33444907143712" lon="1.313321180641651">
        <ele>164</ele>
        <time>2018-12-29T11:49:51Z</time>
      </trkpt>
      <trkpt lat="41.334340777248144" lon="1.313548749312758">
        <ele>165</ele>
        <time>2018-12-29T11:49:53Z</time>
      </trkpt>
      <trkpt lat="41.334274895489216" lon="1.31365385837853">
        <ele>165</ele>
        <time>2018-12-29T11:49:54Z</time>
      </trkpt>
      <trkpt lat="41.334206499159336" lon="1.313750669360161">
        <ele>165</ele>
        <time>2018-12-29T11:49:55Z</time>
      </trkpt>
      <trkpt lat="41.334066521376371" lon="1.313916714861989">
        <ele>164.80000305175781</ele>
        <time>2018-12-29T11:49:57Z</time>
      </trkpt>
      <trkpt lat="41.333999130874872" lon="1.313990224152803">
        <ele>165.19999694824219</ele>
        <time>2018-12-29T11:49:58Z</time>
      </trkpt>
      <trkpt lat="41.333936182782054" lon="1.314062140882015">
        <ele>166</ele>
        <time>2018-12-29T11:49:59Z</time>
      </trkpt>
      <trkpt lat="41.333817075937986" lon="1.314208321273327">
        <ele>167.80000305175781</ele>
        <time>2018-12-29T11:50:01Z</time>
      </trkpt>
      <trkpt lat="41.333706434816122" lon="1.314353328198195">
        <ele>168.80000305175781</ele>
        <time>2018-12-29T11:50:03Z</time>
      </trkpt>
      <trkpt lat="41.333601158112288" lon="1.314505375921726">
        <ele>170.39999389648438</ele>
        <time>2018-12-29T11:50:05Z</time>
      </trkpt>
      <trkpt lat="41.333500491455197" lon="1.314657004550099">
        <ele>171.60000610351562</ele>
        <time>2018-12-29T11:50:07Z</time>
      </trkpt>
      <trkpt lat="41.333404015749693" lon="1.314804693683982">
        <ele>172.39999389648437</ele>
        <time>2018-12-29T11:50:09Z</time>
      </trkpt>
      <trkpt lat="41.333356406539679" lon="1.314876945689321">
        <ele>172.80000305175781</ele>
        <time>2018-12-29T11:50:10Z</time>
      </trkpt>
      <trkpt lat="41.333316592499614" lon="1.314941821619868">
        <ele>173</ele>
        <time>2018-12-29T11:50:11Z</time>
      </trkpt>
      <trkpt lat="41.333243502303958" lon="1.315063694491983">
        <ele>173.60000610351562</ele>
        <time>2018-12-29T11:50:13Z</time>
      </trkpt>
      <trkpt lat="41.333159934729338" lon="1.315187076106668">
        <ele>174.19999694824219</ele>
        <time>2018-12-29T11:50:15Z</time>
      </trkpt>
      <trkpt lat="41.33308089338243" lon="1.315295705571771">
        <ele>175</ele>
        <time>2018-12-29T11:50:17Z</time>
      </trkpt>
      <trkpt lat="41.333004953339696" lon="1.315403496846557">
        <ele>175.60000610351562</ele>
        <time>2018-12-29T11:50:19Z</time>
      </trkpt>
      <trkpt lat="41.332933707162738" lon="1.315518999472261">
        <ele>176</ele>
        <time>2018-12-29T11:50:21Z</time>
      </trkpt>
      <trkpt lat="41.332887355238199" lon="1.315590832382441">
        <ele>176.19999694824219</ele>
        <time>2018-12-29T11:50:22Z</time>
      </trkpt>
      <trkpt lat="41.332841673865914" lon="1.315653864294291">
        <ele>176.19999694824219</ele>
        <time>2018-12-29T11:50:23Z</time>
      </trkpt>
      <trkpt lat="41.332755256444216" lon="1.31576525978744">
        <ele>176</ele>
        <time>2018-12-29T11:50:25Z</time>
      </trkpt>
      <trkpt lat="41.3327129278332" lon="1.315819239243865">
        <ele>176</ele>
        <time>2018-12-29T11:50:26Z</time>
      </trkpt>
      <trkpt lat="41.332675125449896" lon="1.315869111567736">
        <ele>176.19999694824219</ele>
        <time>2018-12-29T11:50:27Z</time>
      </trkpt>
      <trkpt lat="41.332596000283957" lon="1.315976483747363">
        <ele>176.19999694824219</ele>
        <time>2018-12-29T11:50:29Z</time>
      </trkpt>
      <trkpt lat="41.332536656409502" lon="1.316041108220816">
        <ele>176</ele>
        <time>2018-12-29T11:50:30Z</time>
      </trkpt>
      <trkpt lat="41.332488125190139" lon="1.316101625561714">
        <ele>175.80000305175781</ele>
        <time>2018-12-29T11:50:31Z</time>
      </trkpt>
      <trkpt lat="41.332445628941059" lon="1.316161891445518">
        <ele>175.80000305175781</ele>
        <time>2018-12-29T11:50:32Z</time>
      </trkpt>
      <trkpt lat="41.332400534301996" lon="1.316224504262209">
        <ele>175.60000610351562</ele>
        <time>2018-12-29T11:50:33Z</time>
      </trkpt>
      <trkpt lat="41.332319732755423" lon="1.316335564479232">
        <ele>175.19999694824219</ele>
        <time>2018-12-29T11:50:35Z</time>
      </trkpt>
      <trkpt lat="41.332230800762773" lon="1.316452324390411">
        <ele>175</ele>
        <time>2018-12-29T11:50:37Z</time>
      </trkpt>
      <trkpt lat="41.332186963409185" lon="1.316509572789073">
        <ele>175.19999694824219</ele>
        <time>2018-12-29T11:50:38Z</time>
      </trkpt>
      <trkpt lat="41.332142120227218" lon="1.31656807847321">
        <ele>175.39999389648437</ele>
        <time>2018-12-29T11:50:39Z</time>
      </trkpt>
      <trkpt lat="41.332054948434234" lon="1.316679641604424">
        <ele>175.39999389648437</ele>
        <time>2018-12-29T11:50:41Z</time>
      </trkpt>
      <trkpt lat="41.331963585689664" lon="1.316790115088224">
        <ele>175.19999694824219</ele>
        <time>2018-12-29T11:50:43Z</time>
      </trkpt>
      <trkpt lat="41.331866858527064" lon="1.316901175305247">
        <ele>175</ele>
        <time>2018-12-29T11:50:45Z</time>
      </trkpt>
      <trkpt lat="41.331808436661959" lon="1.316964123398066">
        <ele>175</ele>
        <time>2018-12-29T11:50:46Z</time>
      </trkpt>
      <trkpt lat="41.331752445548773" lon="1.317023718729615">
        <ele>175</ele>
        <time>2018-12-29T11:50:47Z</time>
      </trkpt>
      <trkpt lat="41.331646079197526" lon="1.317135533317924">
        <ele>175</ele>
        <time>2018-12-29T11:50:49Z</time>
      </trkpt>
      <trkpt lat="41.331541808322072" lon="1.317245252430439">
        <ele>174.60000610351562</ele>
        <time>2018-12-29T11:50:51Z</time>
      </trkpt>
      <trkpt lat="41.331436028704047" lon="1.317366538569331">
        <ele>174.39999389648437</ele>
        <time>2018-12-29T11:50:53Z</time>
      </trkpt>
      <trkpt lat="41.331328824162483" lon="1.317482544109225">
        <ele>174.19999694824219</ele>
        <time>2018-12-29T11:50:55Z</time>
      </trkpt>
      <trkpt lat="41.331220529973507" lon="1.317599387839437">
        <ele>173.60000610351562</ele>
        <time>2018-12-29T11:50:57Z</time>
      </trkpt>
      <trkpt lat="41.331104692071676" lon="1.317716483026743">
        <ele>173.60000610351562</ele>
        <time>2018-12-29T11:50:59Z</time>
      </trkpt>
      <trkpt lat="41.331046102568507" lon="1.317776748910546">
        <ele>173.60000610351562</ele>
        <time>2018-12-29T11:51:00Z</time>
      </trkpt>
      <trkpt lat="41.330992458388209" lon="1.31783802062273">
        <ele>173.39999389648437</ele>
        <time>2018-12-29T11:51:01Z</time>
      </trkpt>
      <trkpt lat="41.33087519556284" lon="1.317960983142257">
        <ele>173.39999389648437</ele>
        <time>2018-12-29T11:51:03Z</time>
      </trkpt>
      <trkpt lat="41.330763297155499" lon="1.31808377802372">
        <ele>173</ele>
        <time>2018-12-29T11:51:05Z</time>
      </trkpt>
      <trkpt lat="41.330712670460343" lon="1.318142283707857">
        <ele>172.60000610351562</ele>
        <time>2018-12-29T11:51:06Z</time>
      </trkpt>
      <trkpt lat="41.330655505880713" lon="1.318204561248422">
        <ele>172.60000610351562</ele>
        <time>2018-12-29T11:51:07Z</time>
      </trkpt>
      <trkpt lat="41.330533884465694" lon="1.318329786881805">
        <ele>172.39999389648437</ele>
        <time>2018-12-29T11:51:09Z</time>
      </trkpt>
      <trkpt lat="41.330403126776218" lon="1.318467753008008">
        <ele>171.80000305175781</ele>
        <time>2018-12-29T11:51:11Z</time>
      </trkpt>
      <trkpt lat="41.330270105972886" lon="1.318617118522525">
        <ele>171.60000610351562</ele>
        <time>2018-12-29T11:51:13Z</time>
      </trkpt>
      <trkpt lat="41.330130631104112" lon="1.318765226751566">
        <ele>171.80000305175781</ele>
        <time>2018-12-29T11:51:15Z</time>
      </trkpt>
      <trkpt lat="41.329989982768893" lon="1.31890906020999">
        <ele>171.19999694824219</ele>
        <time>2018-12-29T11:51:17Z</time>
      </trkpt>
      <trkpt lat="41.329861236736178" lon="1.319052893668413">
        <ele>171</ele>
        <time>2018-12-29T11:51:19Z</time>
      </trkpt>
      <trkpt lat="41.32973282597959" lon="1.31919052451849">
        <ele>171.60000610351562</ele>
        <time>2018-12-29T11:51:21Z</time>
      </trkpt>
      <trkpt lat="41.329664262011647" lon="1.319258417934179">
        <ele>171.60000610351562</ele>
        <time>2018-12-29T11:51:22Z</time>
      </trkpt>
      <trkpt lat="41.329603493213654" lon="1.319321868941188">
        <ele>172</ele>
        <time>2018-12-29T11:51:23Z</time>
      </trkpt>
      <trkpt lat="41.329492432996631" lon="1.319440640509129">
        <ele>172.39999389648437</ele>
        <time>2018-12-29T11:51:25Z</time>
      </trkpt>
      <trkpt lat="41.329439375549555" lon="1.319497218355537">
        <ele>172.39999389648437</ele>
        <time>2018-12-29T11:51:26Z</time>
      </trkpt>
      <trkpt lat="41.329385312274098" lon="1.319555221125484">
        <ele>172.19999694824219</ele>
        <time>2018-12-29T11:51:27Z</time>
      </trkpt>
      <trkpt lat="41.329269558191299" lon="1.319679860025644">
        <ele>171.80000305175781</ele>
        <time>2018-12-29T11:51:29Z</time>
      </trkpt>
      <trkpt lat="41.32915087044239" lon="1.319808606058359">
        <ele>171.80000305175781</ele>
        <time>2018-12-29T11:51:31Z</time>
      </trkpt>
      <trkpt lat="41.329092867672443" lon="1.319875745102763">
        <ele>171.60000610351562</ele>
        <time>2018-12-29T11:51:32Z</time>
      </trkpt>
      <trkpt lat="41.329033859074116" lon="1.319942884147167">
        <ele>171.60000610351562</ele>
        <time>2018-12-29T11:51:33Z</time>
      </trkpt>
      <trkpt lat="41.328924559056759" lon="1.320055620744824">
        <ele>171.80000305175781</ele>
        <time>2018-12-29T11:51:35Z</time>
      </trkpt>
      <trkpt lat="41.328816683962941" lon="1.320152934640646">
        <ele>171.60000610351562</ele>
        <time>2018-12-29T11:51:37Z</time>
      </trkpt>
      <trkpt lat="41.328713586553931" lon="1.320253014564514">
        <ele>171.39999389648437</ele>
        <time>2018-12-29T11:51:39Z</time>
      </trkpt>
      <trkpt lat="41.328602023422718" lon="1.320362901315093">
        <ele>171</ele>
        <time>2018-12-29T11:51:41Z</time>
      </trkpt>
      <trkpt lat="41.328482078388333" lon="1.320484941825271">
        <ele>170</ele>
        <time>2018-12-29T11:51:43Z</time>
      </trkpt>
      <trkpt lat="41.328355679288507" lon="1.320616202428937">
        <ele>169.80000305175781</ele>
        <time>2018-12-29T11:51:45Z</time>
      </trkpt>
      <trkpt lat="41.328231962397695" lon="1.320757688954473">
        <ele>169.80000305175781</ele>
        <time>2018-12-29T11:51:47Z</time>
      </trkpt>
      <trkpt lat="41.328116711229086" lon="1.320908898487687">
        <ele>169.80000305175781</ele>
        <time>2018-12-29T11:51:49Z</time>
      </trkpt>
      <trkpt lat="41.327994670718908" lon="1.321070669218898">
        <ele>169.39999389648437</ele>
        <time>2018-12-29T11:51:51Z</time>
      </trkpt>
      <trkpt lat="41.327863493934274" lon="1.321247695013881">
        <ele>168.80000305175781</ele>
        <time>2018-12-29T11:51:53Z</time>
      </trkpt>
      <trkpt lat="41.327731311321259" lon="1.321433018893004">
        <ele>167.80000305175781</ele>
        <time>2018-12-29T11:51:55Z</time>
      </trkpt>
      <trkpt lat="41.327591501176357" lon="1.321623204275966">
        <ele>167</ele>
        <time>2018-12-29T11:51:57Z</time>
      </trkpt>
      <trkpt lat="41.327518243342638" lon="1.321724206209183">
        <ele>166.60000610351562</ele>
        <time>2018-12-29T11:51:58Z</time>
      </trkpt>
      <trkpt lat="41.327442638576031" lon="1.321824956685305">
        <ele>166</ele>
        <time>2018-12-29T11:51:59Z</time>
      </trkpt>
      <trkpt lat="41.327366279438138" lon="1.321925036609173">
        <ele>165.39999389648437</ele>
        <time>2018-12-29T11:52:00Z</time>
      </trkpt>
      <trkpt lat="41.327291177585721" lon="1.322025619447231">
        <ele>164.80000305175781</ele>
        <time>2018-12-29T11:52:01Z</time>
      </trkpt>
      <trkpt lat="41.327133430168033" lon="1.322235334664583">
        <ele>164.19999694824219</ele>
        <time>2018-12-29T11:52:03Z</time>
      </trkpt>
      <trkpt lat="41.326976520940661" lon="1.322442451491952">
        <ele>164</ele>
        <time>2018-12-29T11:52:05Z</time>
      </trkpt>
      <trkpt lat="41.3269002456218" lon="1.322542699053884">
        <ele>163.80000305175781</ele>
        <time>2018-12-29T11:52:06Z</time>
      </trkpt>
      <trkpt lat="41.326827323064208" lon="1.322644706815481">
        <ele>164.19999694824219</ele>
        <time>2018-12-29T11:52:07Z</time>
      </trkpt>
      <trkpt lat="41.326695811003447" lon="1.322833718731999">
        <ele>165.80000305175781</ele>
        <time>2018-12-29T11:52:09Z</time>
      </trkpt>
      <trkpt lat="41.326577961444855" lon="1.323020802810788">
        <ele>167.39999389648437</ele>
        <time>2018-12-29T11:52:11Z</time>
      </trkpt>
      <trkpt lat="41.326475450769067" lon="1.323211407288909">
        <ele>168.19999694824219</ele>
        <time>2018-12-29T11:52:13Z</time>
      </trkpt>
      <trkpt lat="41.326382914558053" lon="1.323407292366028">
        <ele>168.80000305175781</ele>
        <time>2018-12-29T11:52:15Z</time>
      </trkpt>
      <trkpt lat="41.32633974775672" lon="1.323506450280547">
        <ele>169</ele>
        <time>2018-12-29T11:52:16Z</time>
      </trkpt>
      <trkpt lat="41.326296078041196" lon="1.323604518547654">
        <ele>169.19999694824219</ele>
        <time>2018-12-29T11:52:17Z</time>
      </trkpt>
      <trkpt lat="41.326201446354389" lon="1.32380367256701">
        <ele>169.60000610351562</ele>
        <time>2018-12-29T11:52:19Z</time>
      </trkpt>
      <trkpt lat="41.32616238668561" lon="1.323898639529944">
        <ele>170</ele>
        <time>2018-12-29T11:52:20Z</time>
      </trkpt>
      <trkpt lat="41.326129026710987" lon="1.323991343379021">
        <ele>170.39999389648438</ele>
        <time>2018-12-29T11:52:21Z</time>
      </trkpt>
      <trkpt lat="41.326102875173092" lon="1.324081113561988">
        <ele>170.80000305175781</ele>
        <time>2018-12-29T11:52:22Z</time>
      </trkpt>
      <trkpt lat="41.326079992577434" lon="1.324173398315907">
        <ele>171.19999694824219</ele>
        <time>2018-12-29T11:52:23Z</time>
      </trkpt>
      <trkpt lat="41.326035652309656" lon="1.324353693053126">
        <ele>171.60000610351562</ele>
        <time>2018-12-29T11:52:25Z</time>
      </trkpt>
      <trkpt lat="41.325994078069925" lon="1.32452636025846">
        <ele>172</ele>
        <time>2018-12-29T11:52:27Z</time>
      </trkpt>
      <trkpt lat="41.325975218787789" lon="1.324613196775317">
        <ele>172.19999694824219</ele>
        <time>2018-12-29T11:52:28Z</time>
      </trkpt>
      <trkpt lat="41.325957449153066" lon="1.324696596711874">
        <ele>172.60000610351562</ele>
        <time>2018-12-29T11:52:29Z</time>
      </trkpt>
      <trkpt lat="41.325923334807158" lon="1.324856607243419">
        <ele>173.39999389648437</ele>
        <time>2018-12-29T11:52:31Z</time>
      </trkpt>
      <trkpt lat="41.325894584879279" lon="1.325004631653428">
        <ele>174.19999694824219</ele>
        <time>2018-12-29T11:52:33Z</time>
      </trkpt>
      <trkpt lat="41.325880168005824" lon="1.325079901143909">
        <ele>174.60000610351562</ele>
        <time>2018-12-29T11:52:34Z</time>
      </trkpt>
      <trkpt lat="41.325867008417845" lon="1.325155925005674">
        <ele>174.60000610351562</ele>
        <time>2018-12-29T11:52:35Z</time>
      </trkpt>
      <trkpt lat="41.325851082801819" lon="1.325234631076455">
        <ele>174.60000610351562</ele>
        <time>2018-12-29T11:52:36Z</time>
      </trkpt>
      <trkpt lat="41.325836330652237" lon="1.325309062376618">
        <ele>174.60000610351562</ele>
        <time>2018-12-29T11:52:37Z</time>
      </trkpt>
      <trkpt lat="41.325813950970769" lon="1.325448369607329">
        <ele>175.19999694824219</ele>
        <time>2018-12-29T11:52:39Z</time>
      </trkpt>
      <trkpt lat="41.325799282640219" lon="1.32551534101367">
        <ele>175.60000610351562</ele>
        <time>2018-12-29T11:52:40Z</time>
      </trkpt>
      <trkpt lat="41.32578176446259" lon="1.32558424025774">
        <ele>175.60000610351562</ele>
        <time>2018-12-29T11:52:41Z</time>
      </trkpt>
      <trkpt lat="41.32576759904623" lon="1.325653055682778">
        <ele>175.39999389648437</ele>
        <time>2018-12-29T11:52:42Z</time>
      </trkpt>
      <trkpt lat="41.32575485855341" lon="1.325724888592959">
        <ele>175.60000610351562</ele>
        <time>2018-12-29T11:52:43Z</time>
      </trkpt>
      <trkpt lat="41.325727114453912" lon="1.325868219137192">
        <ele>176</ele>
        <time>2018-12-29T11:52:45Z</time>
      </trkpt>
      <trkpt lat="41.325702723115683" lon="1.32602353580296">
        <ele>175.60000610351562</ele>
        <time>2018-12-29T11:52:47Z</time>
      </trkpt>
      <trkpt lat="41.32566693238914" lon="1.326183630153537">
        <ele>175.80000305175781</ele>
        <time>2018-12-29T11:52:49Z</time>
      </trkpt>
      <trkpt lat="41.32564933039248" lon="1.32626099511981">
        <ele>175.80000305175781</ele>
        <time>2018-12-29T11:52:50Z</time>
      </trkpt>
      <trkpt lat="41.325630303472281" lon="1.32633819244802">
        <ele>175.39999389648437</ele>
        <time>2018-12-29T11:52:51Z</time>
      </trkpt>
      <trkpt lat="41.325600882992148" lon="1.326492251828313">
        <ele>175</ele>
        <time>2018-12-29T11:52:53Z</time>
      </trkpt>
      <trkpt lat="41.32556676864624" lon="1.326653938740492">
        <ele>174.80000305175781</ele>
        <time>2018-12-29T11:52:55Z</time>
      </trkpt>
      <trkpt lat="41.325549501925707" lon="1.326738093048334">
        <ele>174.39999389648437</ele>
        <time>2018-12-29T11:52:56Z</time>
      </trkpt>
      <trkpt lat="41.325531648471951" lon="1.326825181022286">
        <ele>174.19999694824219</ele>
        <time>2018-12-29T11:52:57Z</time>
      </trkpt>
      <trkpt lat="41.325490577146411" lon="1.327001368626952">
        <ele>173.39999389648437</ele>
        <time>2018-12-29T11:52:59Z</time>
      </trkpt>
      <trkpt lat="41.325442884117365" lon="1.327176131308079">
        <ele>173</ele>
        <time>2018-12-29T11:53:01Z</time>
      </trkpt>
      <trkpt lat="41.325387312099338" lon="1.32735894061625">
        <ele>172.19999694824219</ele>
        <time>2018-12-29T11:53:03Z</time>
      </trkpt>
      <trkpt lat="41.325358729809523" lon="1.327450470998883">
        <ele>172</ele>
        <time>2018-12-29T11:53:04Z</time>
      </trkpt>
      <trkpt lat="41.325327968224883" lon="1.327543761581183">
        <ele>171.80000305175781</ele>
        <time>2018-12-29T11:53:05Z</time>
      </trkpt>
      <trkpt lat="41.325265942141414" lon="1.3277293369174">
        <ele>171.19999694824219</ele>
        <time>2018-12-29T11:53:07Z</time>
      </trkpt>
      <trkpt lat="41.325190169736743" lon="1.327912816777825">
        <ele>171.19999694824219</ele>
        <time>2018-12-29T11:53:09Z</time>
      </trkpt>
      <trkpt lat="41.325107356533408" lon="1.328097051009536">
        <ele>170.60000610351562</ele>
        <time>2018-12-29T11:53:11Z</time>
      </trkpt>
      <trkpt lat="41.325017418712378" lon="1.32827902212739">
        <ele>170.19999694824219</ele>
        <time>2018-12-29T11:53:13Z</time>
      </trkpt>
      <trkpt lat="41.324918596073985" lon="1.328458730131388">
        <ele>169.39999389648437</ele>
        <time>2018-12-29T11:53:15Z</time>
      </trkpt>
      <trkpt lat="41.324865538626909" lon="1.328546823933721">
        <ele>169</ele>
        <time>2018-12-29T11:53:16Z</time>
      </trkpt>
      <trkpt lat="41.324811726808548" lon="1.328634917736054">
        <ele>168.80000305175781</ele>
        <time>2018-12-29T11:53:17Z</time>
      </trkpt>
      <trkpt lat="41.324756238609552" lon="1.328720999881625">
        <ele>168.39999389648437</ele>
        <time>2018-12-29T11:53:18Z</time>
      </trkpt>
      <trkpt lat="41.324696810916066" lon="1.328806662932038">
        <ele>168</ele>
        <time>2018-12-29T11:53:19Z</time>
      </trkpt>
      <trkpt lat="41.324572842568159" lon="1.328974217176437">
        <ele>167.19999694824219</ele>
        <time>2018-12-29T11:53:21Z</time>
      </trkpt>
      <trkpt lat="41.324438815936446" lon="1.329138418659568">
        <ele>166.80000305175781</ele>
        <time>2018-12-29T11:53:23Z</time>
      </trkpt>
      <trkpt lat="41.324291210621595" lon="1.329297255724669">
        <ele>166.19999694824219</ele>
        <time>2018-12-29T11:53:25Z</time>
      </trkpt>
      <trkpt lat="41.324138157069683" lon="1.329446788877249">
        <ele>166</ele>
        <time>2018-12-29T11:53:27Z</time>
      </trkpt>
      <trkpt lat="41.323981918394566" lon="1.329589365050197">
        <ele>166.19999694824219</ele>
        <time>2018-12-29T11:53:29Z</time>
      </trkpt>
      <trkpt lat="41.323825344443321" lon="1.32972339168191">
        <ele>166.19999694824219</ele>
        <time>2018-12-29T11:53:31Z</time>
      </trkpt>
      <trkpt lat="41.32374806329608" lon="1.329788016155362">
        <ele>166.39999389648437</ele>
        <time>2018-12-29T11:53:32Z</time>
      </trkpt>
      <trkpt lat="41.323669776320457" lon="1.329850880429149">
        <ele>166.39999389648437</ele>
        <time>2018-12-29T11:53:33Z</time>
      </trkpt>
      <trkpt lat="41.32351647131145" lon="1.329976608976722">
        <ele>165.80000305175781</ele>
        <time>2018-12-29T11:53:35Z</time>
      </trkpt>
      <trkpt lat="41.323368446901441" lon="1.330100577324629">
        <ele>165.80000305175781</ele>
        <time>2018-12-29T11:53:37Z</time>
      </trkpt>
      <trkpt lat="41.323227379471064" lon="1.330229407176375">
        <ele>166</ele>
        <time>2018-12-29T11:53:39Z</time>
      </trkpt>
      <trkpt lat="41.323086395859718" lon="1.330360416322947">
        <ele>166</ele>
        <time>2018-12-29T11:53:41Z</time>
      </trkpt>
      <trkpt lat="41.322947172448039" lon="1.330492347478867">
        <ele>165.39999389648437</ele>
        <time>2018-12-29T11:53:43Z</time>
      </trkpt>
      <trkpt lat="41.322816414758563" lon="1.330637019127607">
        <ele>165.39999389648437</ele>
        <time>2018-12-29T11:53:45Z</time>
      </trkpt>
      <trkpt lat="41.322687165811658" lon="1.330785462632775">
        <ele>165.39999389648437</ele>
        <time>2018-12-29T11:53:47Z</time>
      </trkpt>
      <trkpt lat="41.322558671236038" lon="1.330941282212734">
        <ele>165.19999694824219</ele>
        <time>2018-12-29T11:53:49Z</time>
      </trkpt>
      <trkpt lat="41.322436798363924" lon="1.3311174698174">
        <ele>165.19999694824219</ele>
        <time>2018-12-29T11:53:51Z</time>
      </trkpt>
      <trkpt lat="41.322331186383963" lon="1.331312851980329">
        <ele>165.39999389648437</ele>
        <time>2018-12-29T11:53:53Z</time>
      </trkpt>
      <trkpt lat="41.322282152250409" lon="1.331414105370641">
        <ele>165.19999694824219</ele>
        <time>2018-12-29T11:53:54Z</time>
      </trkpt>
      <trkpt lat="41.32223529741168" lon="1.331517202779651">
        <ele>165</ele>
        <time>2018-12-29T11:53:55Z</time>
      </trkpt>
      <trkpt lat="41.322187855839729" lon="1.331619126722217">
        <ele>164.39999389648437</ele>
        <time>2018-12-29T11:53:56Z</time>
      </trkpt>
      <trkpt lat="41.322144102305174" lon="1.331721469759941">
        <ele>164.19999694824219</ele>
        <time>2018-12-29T11:53:57Z</time>
      </trkpt>
      <trkpt lat="41.322067659348249" lon="1.331925569102168">
        <ele>164</ele>
        <time>2018-12-29T11:53:59Z</time>
      </trkpt>
      <trkpt lat="41.321977805346251" lon="1.332113407552242">
        <ele>163.80000305175781</ele>
        <time>2018-12-29T11:54:01Z</time>
      </trkpt>
      <trkpt lat="41.321884514763951" lon="1.33229361847043">
        <ele>163.39999389648437</ele>
        <time>2018-12-29T11:54:03Z</time>
      </trkpt>
      <trkpt lat="41.321806060150266" lon="1.332471314817667">
        <ele>163.39999389648437</ele>
        <time>2018-12-29T11:54:05Z</time>
      </trkpt>
      <trkpt lat="41.321724001318216" lon="1.332641383633018">
        <ele>163.80000305175781</ele>
        <time>2018-12-29T11:54:07Z</time>
      </trkpt>
      <trkpt lat="41.321648480370641" lon="1.332808854058385">
        <ele>164.39999389648437</ele>
        <time>2018-12-29T11:54:09Z</time>
      </trkpt>
      <trkpt lat="41.321571618318558" lon="1.33297473192215">
        <ele>164.39999389648437</ele>
        <time>2018-12-29T11:54:11Z</time>
      </trkpt>
      <trkpt lat="41.321494923904538" lon="1.333143711090088">
        <ele>164.19999694824219</ele>
        <time>2018-12-29T11:54:13Z</time>
      </trkpt>
      <trkpt lat="41.321413787081838" lon="1.333306320011616">
        <ele>164</ele>
        <time>2018-12-29T11:54:15Z</time>
      </trkpt>
      <trkpt lat="41.321333069354296" lon="1.333460714668036">
        <ele>163.39999389648437</ele>
        <time>2018-12-29T11:54:17Z</time>
      </trkpt>
      <trkpt lat="41.321276323869824" lon="1.333519723266363">
        <ele>163.39999389648437</ele>
        <time>2018-12-29T11:54:18Z</time>
      </trkpt>
      <trkpt lat="41.321221254765987" lon="1.333580911159515">
        <ele>163.19999694824219</ele>
        <time>2018-12-29T11:54:19Z</time>
      </trkpt>
      <trkpt lat="41.321165096014738" lon="1.333641512319446">
        <ele>163</ele>
        <time>2018-12-29T11:54:20Z</time>
      </trkpt>
      <trkpt lat="41.321103489026427" lon="1.333695910871029">
        <ele>162.80000305175781</ele>
        <time>2018-12-29T11:54:21Z</time>
      </trkpt>
      <trkpt lat="41.320984130725265" lon="1.333811329677701">
        <ele>162.39999389648437</ele>
        <time>2018-12-29T11:54:23Z</time>
      </trkpt>
      <trkpt lat="41.320923445746303" lon="1.333871427923441">
        <ele>162.19999694824219</ele>
        <time>2018-12-29T11:54:24Z</time>
      </trkpt>
      <trkpt lat="41.320863263681531" lon="1.333931945264339">
        <ele>162</ele>
        <time>2018-12-29T11:54:25Z</time>
      </trkpt>
      <trkpt lat="41.320740720257163" lon="1.334058092907071">
        <ele>162.19999694824219</ele>
        <time>2018-12-29T11:54:27Z</time>
      </trkpt>
      <trkpt lat="41.320618093013763" lon="1.334184994921088">
        <ele>162</ele>
        <time>2018-12-29T11:54:29Z</time>
      </trkpt>
      <trkpt lat="41.320496471598744" lon="1.334316255524755">
        <ele>161.80000305175781</ele>
        <time>2018-12-29T11:54:31Z</time>
      </trkpt>
      <trkpt lat="41.32037359289825" lon="1.334452880546451">
        <ele>161.60000610351562</ele>
        <time>2018-12-29T11:54:33Z</time>
      </trkpt>
      <trkpt lat="41.320247361436486" lon="1.334588415920734">
        <ele>161.39999389648437</ele>
        <time>2018-12-29T11:54:35Z</time>
      </trkpt>
      <trkpt lat="41.320117525756359" lon="1.334725208580494">
        <ele>161.39999389648437</ele>
        <time>2018-12-29T11:54:37Z</time>
      </trkpt>
      <trkpt lat="41.31999053992331" lon="1.334865102544427">
        <ele>161.19999694824219</ele>
        <time>2018-12-29T11:54:39Z</time>
      </trkpt>
      <trkpt lat="41.319926250725985" lon="1.334932241588831">
        <ele>160.80000305175781</ele>
        <time>2018-12-29T11:54:40Z</time>
      </trkpt>
      <trkpt lat="41.31986103951931" lon="1.335001308470964">
        <ele>160.39999389648437</ele>
        <time>2018-12-29T11:54:41Z</time>
      </trkpt>
      <trkpt lat="41.319731371477246" lon="1.335143633186817">
        <ele>160.60000610351562</ele>
        <time>2018-12-29T11:54:43Z</time>
      </trkpt>
      <trkpt lat="41.319605894386768" lon="1.335289310663939">
        <ele>160.19999694824219</ele>
        <time>2018-12-29T11:54:45Z</time>
      </trkpt>
      <trkpt lat="41.319545963779092" lon="1.335364747792482">
        <ele>160</ele>
        <time>2018-12-29T11:54:46Z</time>
      </trkpt>
      <trkpt lat="41.319476226344705" lon="1.335434233769774">
        <ele>160.19999694824219</ele>
        <time>2018-12-29T11:54:47Z</time>
      </trkpt>
      <trkpt lat="41.319346893578768" lon="1.335568260401487">
        <ele>160</ele>
        <time>2018-12-29T11:54:49Z</time>
      </trkpt>
      <trkpt lat="41.319218734279275" lon="1.335703879594803">
        <ele>160.19999694824219</ele>
        <time>2018-12-29T11:54:51Z</time>
      </trkpt>
      <trkpt lat="41.319093592464924" lon="1.335841594263911">
        <ele>160</ele>
        <time>2018-12-29T11:54:53Z</time>
      </trkpt>
      <trkpt lat="41.319033745676279" lon="1.335909990593791">
        <ele>159.80000305175781</ele>
        <time>2018-12-29T11:54:54Z</time>
      </trkpt>
      <trkpt lat="41.318972809240222" lon="1.335973776876926">
        <ele>159.80000305175781</ele>
        <time>2018-12-29T11:54:55Z</time>
      </trkpt>
      <trkpt lat="41.318850098177791" lon="1.336103193461895">
        <ele>160</ele>
        <time>2018-12-29T11:54:57Z</time>
      </trkpt>
      <trkpt lat="41.318791257217526" lon="1.336166812106967">
        <ele>160</ele>
        <time>2018-12-29T11:54:58Z</time>
      </trkpt>
      <trkpt lat="41.31873132660985" lon="1.336228335276246">
        <ele>160</ele>
        <time>2018-12-29T11:54:59Z</time>
      </trkpt>
      <trkpt lat="41.318617668002844" lon="1.336350124329329">
        <ele>160.39999389648437</ele>
        <time>2018-12-29T11:55:01Z</time>
      </trkpt>
      <trkpt lat="41.318506943061948" lon="1.336468392983079">
        <ele>161</ele>
        <time>2018-12-29T11:55:03Z</time>
      </trkpt>
      <trkpt lat="41.318402253091335" lon="1.336580794304609">
        <ele>161.60000610351562</ele>
        <time>2018-12-29T11:55:05Z</time>
      </trkpt>
      <trkpt lat="41.318354643881321" lon="1.336634438484907">
        <ele>162</ele>
        <time>2018-12-29T11:55:06Z</time>
      </trkpt>
      <trkpt lat="41.318308375775814" lon="1.336687579751015">
        <ele>162.60000610351562</ele>
        <time>2018-12-29T11:55:07Z</time>
      </trkpt>
      <trkpt lat="41.318262694403529" lon="1.336742313578725">
        <ele>163.19999694824219</ele>
        <time>2018-12-29T11:55:08Z</time>
      </trkpt>
      <trkpt lat="41.31822120398283" lon="1.33680266328156">
        <ele>163.39999389648437</ele>
        <time>2018-12-29T11:55:09Z</time>
      </trkpt>
      <trkpt lat="41.318147862330079" lon="1.336928140372038">
        <ele>163.80000305175781</ele>
        <time>2018-12-29T11:55:11Z</time>
      </trkpt>
      <trkpt lat="41.318111401051283" lon="1.336994022130966">
        <ele>164</ele>
        <time>2018-12-29T11:55:12Z</time>
      </trkpt>
      <trkpt lat="41.318076448515058" lon="1.337058395147324">
        <ele>164.19999694824219</ele>
        <time>2018-12-29T11:55:13Z</time>
      </trkpt>
      <trkpt lat="41.318042753264308" lon="1.337123271077871">
        <ele>164.39999389648437</ele>
        <time>2018-12-29T11:55:14Z</time>
      </trkpt>
      <trkpt lat="41.318010734394193" lon="1.33719309233129">
        <ele>164.39999389648437</ele>
        <time>2018-12-29T11:55:15Z</time>
      </trkpt>
      <trkpt lat="41.317955078557134" lon="1.337323598563671">
        <ele>164.80000305175781</ele>
        <time>2018-12-29T11:55:17Z</time>
      </trkpt>
      <trkpt lat="41.317897494882345" lon="1.337452847510576">
        <ele>165.19999694824219</ele>
        <time>2018-12-29T11:55:19Z</time>
      </trkpt>
      <trkpt lat="41.317870253697038" lon="1.337514035403729">
        <ele>165.39999389648437</ele>
        <time>2018-12-29T11:55:20Z</time>
      </trkpt>
      <trkpt lat="41.317838989198208" lon="1.337575474753976">
        <ele>165.60000610351562</ele>
        <time>2018-12-29T11:55:21Z</time>
      </trkpt>
      <trkpt lat="41.31777947768569" lon="1.337704807519913">
        <ele>166</ele>
        <time>2018-12-29T11:55:23Z</time>
      </trkpt>
      <trkpt lat="41.317719714716077" lon="1.337834894657135">
        <ele>166.19999694824219</ele>
        <time>2018-12-29T11:55:25Z</time>
      </trkpt>
      <trkpt lat="41.317690210416913" lon="1.337896166369319">
        <ele>166.39999389648437</ele>
        <time>2018-12-29T11:55:26Z</time>
      </trkpt>
      <trkpt lat="41.317661628127098" lon="1.337958695366979">
        <ele>166.80000305175781</ele>
        <time>2018-12-29T11:55:27Z</time>
      </trkpt>
      <trkpt lat="41.317606726661325" lon="1.33808090351522">
        <ele>167.19999694824219</ele>
        <time>2018-12-29T11:55:29Z</time>
      </trkpt>
      <trkpt lat="41.317554591223598" lon="1.338201938197017">
        <ele>167.60000610351562</ele>
        <time>2018-12-29T11:55:31Z</time>
      </trkpt>
      <trkpt lat="41.317528104409575" lon="1.338262287899852">
        <ele>167.80000305175781</ele>
        <time>2018-12-29T11:55:32Z</time>
      </trkpt>
      <trkpt lat="41.317498432472348" lon="1.338321296498179">
        <ele>167.80000305175781</ele>
        <time>2018-12-29T11:55:33Z</time>
      </trkpt>
      <trkpt lat="41.317472364753485" lon="1.338381227105856">
        <ele>168</ele>
        <time>2018-12-29T11:55:34Z</time>
      </trkpt>
      <trkpt lat="41.31744378246367" lon="1.33844057098031">
        <ele>168.19999694824219</ele>
        <time>2018-12-29T11:55:35Z</time>
      </trkpt>
      <trkpt lat="41.31738762371242" lon="1.338561354205012">
        <ele>168.39999389648437</ele>
        <time>2018-12-29T11:55:37Z</time>
      </trkpt>
      <trkpt lat="41.317332554608583" lon="1.338681634515524">
        <ele>168.80000305175781</ele>
        <time>2018-12-29T11:55:39Z</time>
      </trkpt>
      <trkpt lat="41.317278407514095" lon="1.338798142969608">
        <ele>169</ele>
        <time>2018-12-29T11:55:41Z</time>
      </trkpt>
      <trkpt lat="41.317221997305751" lon="1.338914902880788">
        <ele>169.60000610351562</ele>
        <time>2018-12-29T11:55:43Z</time>
      </trkpt>
      <trkpt lat="41.317192828282714" lon="1.338971983641386">
        <ele>169.80000305175781</ele>
        <time>2018-12-29T11:55:44Z</time>
      </trkpt>
      <trkpt lat="41.317166173830628" lon="1.339030405506492">
        <ele>170</ele>
        <time>2018-12-29T11:55:45Z</time>
      </trkpt>
      <trkpt lat="41.317105572670698" lon="1.339140208438039">
        <ele>170.60000610351562</ele>
        <time>2018-12-29T11:55:47Z</time>
      </trkpt>
      <trkpt lat="41.317074056714773" lon="1.339192595332861">
        <ele>170.80000305175781</ele>
        <time>2018-12-29T11:55:48Z</time>
      </trkpt>
      <trkpt lat="41.317040780559182" lon="1.339240958914161">
        <ele>171</ele>
        <time>2018-12-29T11:55:49Z</time>
      </trkpt>
      <trkpt lat="41.31697322241962" lon="1.339329890906811">
        <ele>171.39999389648437</ele>
        <time>2018-12-29T11:55:51Z</time>
      </trkpt>
      <trkpt lat="41.316893342882395" lon="1.339416895061731">
        <ele>171.80000305175781</ele>
        <time>2018-12-29T11:55:53Z</time>
      </trkpt>
      <trkpt lat="41.316814301535487" lon="1.339497193694115">
        <ele>172.39999389648437</ele>
        <time>2018-12-29T11:55:55Z</time>
      </trkpt>
      <trkpt lat="41.316728973761201" lon="1.339575983583927">
        <ele>172.80000305175781</ele>
        <time>2018-12-29T11:55:57Z</time>
      </trkpt>
      <trkpt lat="41.316684884950519" lon="1.339611439034343">
        <ele>173.19999694824219</ele>
        <time>2018-12-29T11:55:58Z</time>
      </trkpt>
      <trkpt lat="41.316640544682741" lon="1.339643793180585">
        <ele>173.60000610351562</ele>
        <time>2018-12-29T11:55:59Z</time>
      </trkpt>
      <trkpt lat="41.316594611853361" lon="1.339670112356544">
        <ele>174</ele>
        <time>2018-12-29T11:56:00Z</time>
      </trkpt>
      <trkpt lat="41.316546751186252" lon="1.339691150933504">
        <ele>174.19999694824219</ele>
        <time>2018-12-29T11:56:01Z</time>
      </trkpt>
      <trkpt lat="41.316451532766223" lon="1.339730462059379">
        <ele>174.80000305175781</ele>
        <time>2018-12-29T11:56:03Z</time>
      </trkpt>
      <trkpt lat="41.316404258832335" lon="1.339748650789261">
        <ele>175</ele>
        <time>2018-12-29T11:56:04Z</time>
      </trkpt>
      <trkpt lat="41.316353213042021" lon="1.33976717479527">
        <ele>175</ele>
        <time>2018-12-29T11:56:05Z</time>
      </trkpt>
      <trkpt lat="41.316250618547201" lon="1.339800283312798">
        <ele>175.39999389648437</ele>
        <time>2018-12-29T11:56:07Z</time>
      </trkpt>
      <trkpt lat="41.316152047365904" lon="1.33983607403934">
        <ele>175.80000305175781</ele>
        <time>2018-12-29T11:56:09Z</time>
      </trkpt>
      <trkpt lat="41.316059762611985" lon="1.339869266375899">
        <ele>176.19999694824219</ele>
        <time>2018-12-29T11:56:11Z</time>
      </trkpt>
      <trkpt lat="41.31601357832551" lon="1.339887287467718">
        <ele>176.39999389648437</ele>
        <time>2018-12-29T11:56:12Z</time>
      </trkpt>
      <trkpt lat="41.31596764549613" lon="1.33990840986371">
        <ele>176.60000610351562</ele>
        <time>2018-12-29T11:56:13Z</time>
      </trkpt>
      <trkpt lat="41.315876701846719" lon="1.339955516159535">
        <ele>177.19999694824219</ele>
        <time>2018-12-29T11:56:15Z</time>
      </trkpt>
      <trkpt lat="41.315831858664751" lon="1.339981416240335">
        <ele>177.39999389648437</ele>
        <time>2018-12-29T11:56:16Z</time>
      </trkpt>
      <trkpt lat="41.315789446234703" lon="1.340014189481735">
        <ele>177.60000610351562</ele>
        <time>2018-12-29T11:56:17Z</time>
      </trkpt>
      <trkpt lat="41.315713506191969" lon="1.340099601075053">
        <ele>178</ele>
        <time>2018-12-29T11:56:19Z</time>
      </trkpt>
      <trkpt lat="41.315656760707498" lon="1.340198172256351">
        <ele>178.39999389648437</ele>
        <time>2018-12-29T11:56:21Z</time>
      </trkpt>
      <trkpt lat="41.31562951952219" lon="1.34025969542563">
        <ele>178.60000610351562</ele>
        <time>2018-12-29T11:56:22Z</time>
      </trkpt>
      <trkpt lat="41.315606804564595" lon="1.340316021814942">
        <ele>178.60000610351562</ele>
        <time>2018-12-29T11:56:23Z</time>
      </trkpt>
      <trkpt lat="41.315582161769271" lon="1.340375617146492">
        <ele>178.60000610351562</ele>
        <time>2018-12-29T11:56:24Z</time>
      </trkpt>
      <trkpt lat="41.315558524802327" lon="1.340439151972532">
        <ele>178.39999389648437</ele>
        <time>2018-12-29T11:56:25Z</time>
      </trkpt>
      <trkpt lat="41.315513681620359" lon="1.340574603527784">
        <ele>178.39999389648437</ele>
        <time>2018-12-29T11:56:27Z</time>
      </trkpt>
      <trkpt lat="41.315468503162265" lon="1.340712988749147">
        <ele>178.60000610351562</ele>
        <time>2018-12-29T11:56:29Z</time>
      </trkpt>
      <trkpt lat="41.315421480685472" lon="1.340850284323096">
        <ele>178.60000610351562</ele>
        <time>2018-12-29T11:56:31Z</time>
      </trkpt>
      <trkpt lat="41.315399017184973" lon="1.340920692309737">
        <ele>178.60000610351562</ele>
        <time>2018-12-29T11:56:32Z</time>
      </trkpt>
      <trkpt lat="41.315371775999665" lon="1.340988837182522">
        <ele>178.60000610351562</ele>
        <time>2018-12-29T11:56:33Z</time>
      </trkpt>
      <trkpt lat="41.315321233123541" lon="1.341127473860979">
        <ele>179</ele>
        <time>2018-12-29T11:56:35Z</time>
      </trkpt>
      <trkpt lat="41.3152732886374" lon="1.341271223500371">
        <ele>179</ele>
        <time>2018-12-29T11:56:37Z</time>
      </trkpt>
      <trkpt lat="41.315226769074798" lon="1.341418912634254">
        <ele>179</ele>
        <time>2018-12-29T11:56:39Z</time>
      </trkpt>
      <trkpt lat="41.315202210098505" lon="1.341491248458624">
        <ele>179</ele>
        <time>2018-12-29T11:56:40Z</time>
      </trkpt>
      <trkpt lat="41.315177986398339" lon="1.341566266492009">
        <ele>179.19999694824219</ele>
        <time>2018-12-29T11:56:41Z</time>
      </trkpt>
      <trkpt lat="41.315127862617373" lon="1.341712279245257">
        <ele>179.39999389648437</ele>
        <time>2018-12-29T11:56:43Z</time>
      </trkpt>
      <trkpt lat="41.315082097426057" lon="1.341852340847254">
        <ele>179.39999389648437</ele>
        <time>2018-12-29T11:56:45Z</time>
      </trkpt>
      <trkpt lat="41.31502945907414" lon="1.341991983354092">
        <ele>179.39999389648437</ele>
        <time>2018-12-29T11:56:47Z</time>
      </trkpt>
      <trkpt lat="41.315002553164959" lon="1.342064570635557">
        <ele>179.39999389648437</ele>
        <time>2018-12-29T11:56:48Z</time>
      </trkpt>
      <trkpt lat="41.314973551779985" lon="1.342135732993484">
        <ele>179.19999694824219</ele>
        <time>2018-12-29T11:56:49Z</time>
      </trkpt>
      <trkpt lat="41.31492200307548" lon="1.342286942526698">
        <ele>179.19999694824219</ele>
        <time>2018-12-29T11:56:51Z</time>
      </trkpt>
      <trkpt lat="41.314870789647102" lon="1.342441001906991">
        <ele>179.19999694824219</ele>
        <time>2018-12-29T11:56:53Z</time>
      </trkpt>
      <trkpt lat="41.314816726371646" lon="1.342600760981441">
        <ele>179</ele>
        <time>2018-12-29T11:56:55Z</time>
      </trkpt>
      <trkpt lat="41.31478956900537" lon="1.342681227251887">
        <ele>179</ele>
        <time>2018-12-29T11:56:56Z</time>
      </trkpt>
      <trkpt lat="41.31476366892457" lon="1.342764040455222">
        <ele>178.80000305175781</ele>
        <time>2018-12-29T11:56:57Z</time>
      </trkpt>
      <trkpt lat="41.31470013409853" lon="1.342927068471909">
        <ele>178.60000610351562</ele>
        <time>2018-12-29T11:56:59Z</time>
      </trkpt>
      <trkpt lat="41.314619332551956" lon="1.343083810061216">
        <ele>177.80000305175781</ele>
        <time>2018-12-29T11:57:01Z</time>
      </trkpt>
      <trkpt lat="41.314567364752293" lon="1.343153212219477">
        <ele>177.39999389648437</ele>
        <time>2018-12-29T11:57:02Z</time>
      </trkpt>
      <trkpt lat="41.314511792734265" lon="1.34322177618742">
        <ele>177.39999389648437</ele>
        <time>2018-12-29T11:57:03Z</time>
      </trkpt>
      <trkpt lat="41.314388494938612" lon="1.34334247559309">
        <ele>177.80000305175781</ele>
        <time>2018-12-29T11:57:05Z</time>
      </trkpt>
      <trkpt lat="41.314323199912906" lon="1.343397712334991">
        <ele>177.80000305175781</ele>
        <time>2018-12-29T11:57:06Z</time>
      </trkpt>
      <trkpt lat="41.314255893230438" lon="1.343455044552684">
        <ele>177.60000610351562</ele>
        <time>2018-12-29T11:57:07Z</time>
      </trkpt>
      <trkpt lat="41.314119100570679" lon="1.343573397025466">
        <ele>177.19999694824219</ele>
        <time>2018-12-29T11:57:09Z</time>
      </trkpt>
      <trkpt lat="41.313978703692555" lon="1.343701053410769">
        <ele>177</ele>
        <time>2018-12-29T11:57:11Z</time>
      </trkpt>
      <trkpt lat="41.313829505816102" lon="1.343835331499577">
        <ele>176.60000610351562</ele>
        <time>2018-12-29T11:57:13Z</time>
      </trkpt>
      <trkpt lat="41.313754906877875" lon="1.343903644010425">
        <ele>176</ele>
        <time>2018-12-29T11:57:14Z</time>
      </trkpt>
      <trkpt lat="41.313678715378046" lon="1.343969441950321">
        <ele>175.60000610351562</ele>
        <time>2018-12-29T11:57:15Z</time>
      </trkpt>
      <trkpt lat="41.31352499127388" lon="1.344106066972017">
        <ele>175.19999694824219</ele>
        <time>2018-12-29T11:57:17Z</time>
      </trkpt>
      <trkpt lat="41.31336959078908" lon="1.344245625659823">
        <ele>175</ele>
        <time>2018-12-29T11:57:19Z</time>
      </trkpt>
      <trkpt lat="41.313292561098933" lon="1.344314943999052">
        <ele>175</ele>
        <time>2018-12-29T11:57:20Z</time>
      </trkpt>
      <trkpt lat="41.313215950503945" lon="1.344385771080852">
        <ele>174.80000305175781</ele>
        <time>2018-12-29T11:57:21Z</time>
      </trkpt>
      <trkpt lat="41.313061807304621" lon="1.344521809369326">
        <ele>174.80000305175781</ele>
        <time>2018-12-29T11:57:23Z</time>
      </trkpt>
      <trkpt lat="41.312987962737679" lon="1.344589199870825">
        <ele>174.80000305175781</ele>
        <time>2018-12-29T11:57:24Z</time>
      </trkpt>
      <trkpt lat="41.31291420198977" lon="1.344655333086848">
        <ele>174.80000305175781</ele>
        <time>2018-12-29T11:57:25Z</time>
      </trkpt>
      <trkpt lat="41.312768692150712" lon="1.344784330576658">
        <ele>175</ele>
        <time>2018-12-29T11:57:27Z</time>
      </trkpt>
      <trkpt lat="41.312631731852889" lon="1.344910394400358">
        <ele>175.39999389648437</ele>
        <time>2018-12-29T11:57:29Z</time>
      </trkpt>
      <trkpt lat="41.312487563118339" lon="1.345032434910536">
        <ele>175</ele>
        <time>2018-12-29T11:57:31Z</time>
      </trkpt>
      <trkpt lat="41.312355380505323" lon="1.345152631402016">
        <ele>175.19999694824219</ele>
        <time>2018-12-29T11:57:33Z</time>
      </trkpt>
      <trkpt lat="41.312228227034211" lon="1.345272241160274">
        <ele>175.39999389648437</ele>
        <time>2018-12-29T11:57:35Z</time>
      </trkpt>
      <trkpt lat="41.312100403010845" lon="1.345389755442739">
        <ele>175</ele>
        <time>2018-12-29T11:57:37Z</time>
      </trkpt>
      <trkpt lat="41.311969812959433" lon="1.345510454848409">
        <ele>175</ele>
        <time>2018-12-29T11:57:39Z</time>
      </trkpt>
      <trkpt lat="41.311843916773796" lon="1.345621598884463">
        <ele>175.39999389648437</ele>
        <time>2018-12-29T11:57:41Z</time>
      </trkpt>
      <trkpt lat="41.311720618978143" lon="1.34572553448379">
        <ele>175.80000305175781</ele>
        <time>2018-12-29T11:57:43Z</time>
      </trkpt>
      <trkpt lat="41.311655156314373" lon="1.345783872529864">
        <ele>176</ele>
        <time>2018-12-29T11:57:44Z</time>
      </trkpt>
      <trkpt lat="41.311588939279318" lon="1.345849670469761">
        <ele>175.80000305175781</ele>
        <time>2018-12-29T11:57:45Z</time>
      </trkpt>
      <trkpt lat="41.31144099868834" lon="1.345984200015664">
        <ele>175</ele>
        <time>2018-12-29T11:57:47Z</time>
      </trkpt>
      <trkpt lat="41.311354748904705" lon="1.346063492819667">
        <ele>173.80000305175781</ele>
        <time>2018-12-29T11:57:48Z</time>
      </trkpt>
      <trkpt lat="41.311265649273992" lon="1.346133565530181">
        <ele>172.60000610351562</ele>
        <time>2018-12-29T11:57:49Z</time>
      </trkpt>
      <trkpt lat="41.311171436682343" lon="1.346206488087773">
        <ele>171.19999694824219</ele>
        <time>2018-12-29T11:57:50Z</time>
      </trkpt>
      <trkpt lat="41.311067333444953" lon="1.34627521969378">
        <ele>170.39999389648438</ele>
        <time>2018-12-29T11:57:51Z</time>
      </trkpt>
      <trkpt lat="41.310961805284023" lon="1.346347723156214">
        <ele>169.80000305175781</ele>
        <time>2018-12-29T11:57:52Z</time>
      </trkpt>
      <trkpt lat="41.310853091999888" lon="1.346413604915142">
        <ele>169.19999694824219</ele>
        <time>2018-12-29T11:57:53Z</time>
      </trkpt>
      <trkpt lat="41.310745887458324" lon="1.34647605009377">
        <ele>168.60000610351562</ele>
        <time>2018-12-29T11:57:54Z</time>
      </trkpt>
      <trkpt lat="41.310640191659331" lon="1.346543859690428">
        <ele>167.80000305175781</ele>
        <time>2018-12-29T11:57:55Z</time>
      </trkpt>
      <trkpt lat="41.310533406212926" lon="1.346612339839339">
        <ele>167</ele>
        <time>2018-12-29T11:57:56Z</time>
      </trkpt>
      <trkpt lat="41.310426201671362" lon="1.346685094758868">
        <ele>165.39999389648437</ele>
        <time>2018-12-29T11:57:57Z</time>
      </trkpt>
      <trkpt lat="41.310200393199921" lon="1.346823899075389">
        <ele>164</ele>
        <time>2018-12-29T11:57:59Z</time>
      </trkpt>
      <trkpt lat="41.310084136202931" lon="1.346888104453683">
        <ele>163.80000305175781</ele>
        <time>2018-12-29T11:58:00Z</time>
      </trkpt>
      <trkpt lat="41.309960167855024" lon="1.346935210749507">
        <ele>162.60000610351562</ele>
        <time>2018-12-29T11:58:01Z</time>
      </trkpt>
      <trkpt lat="41.309830080717802" lon="1.346965385600925">
        <ele>161.39999389648437</ele>
        <time>2018-12-29T11:58:02Z</time>
      </trkpt>
      <trkpt lat="41.309697981923819" lon="1.346986927092075">
        <ele>160.60000610351562</ele>
        <time>2018-12-29T11:58:03Z</time>
      </trkpt>
      <trkpt lat="41.309566888958216" lon="1.34701693430543">
        <ele>159.39999389648437</ele>
        <time>2018-12-29T11:58:04Z</time>
      </trkpt>
      <trkpt lat="41.309435125440359" lon="1.347047947347164">
        <ele>158.39999389648437</ele>
        <time>2018-12-29T11:58:05Z</time>
      </trkpt>
      <trkpt lat="41.309305457398295" lon="1.347072087228298">
        <ele>157.39999389648437</ele>
        <time>2018-12-29T11:58:06Z</time>
      </trkpt>
      <trkpt lat="41.309179812669754" lon="1.347095556557179">
        <ele>156.80000305175781</ele>
        <time>2018-12-29T11:58:07Z</time>
      </trkpt>
      <trkpt lat="41.309062885120511" lon="1.347125396132469">
        <ele>156.39999389648437</ele>
        <time>2018-12-29T11:58:08Z</time>
      </trkpt>
      <trkpt lat="41.308955429121852" lon="1.347181973978877">
        <ele>156.39999389648437</ele>
        <time>2018-12-29T11:58:09Z</time>
      </trkpt>
      <trkpt lat="41.308862222358584" lon="1.347281131893396">
        <ele>155.60000610351562</ele>
        <time>2018-12-29T11:58:10Z</time>
      </trkpt>
      <trkpt lat="41.308789551258087" lon="1.347406944260001">
        <ele>155</ele>
        <time>2018-12-29T11:58:11Z</time>
      </trkpt>
      <trkpt lat="41.308738086372614" lon="1.34755153208971">
        <ele>154.19999694824219</ele>
        <time>2018-12-29T11:58:12Z</time>
      </trkpt>
      <trkpt lat="41.308703972026706" lon="1.347703831270337">
        <ele>153.39999389648437</ele>
        <time>2018-12-29T11:58:13Z</time>
      </trkpt>
      <trkpt lat="41.308669941499829" lon="1.347860237583518">
        <ele>152.80000305175781</ele>
        <time>2018-12-29T11:58:14Z</time>
      </trkpt>
      <trkpt lat="41.308634905144572" lon="1.348014967516065">
        <ele>152</ele>
        <time>2018-12-29T11:58:15Z</time>
      </trkpt>
      <trkpt lat="41.308565335348248" lon="1.348292995244265">
        <ele>150.60000610351562</ele>
        <time>2018-12-29T11:58:17Z</time>
      </trkpt>
      <trkpt lat="41.308546140789986" lon="1.348431967198849">
        <ele>150.39999389648437</ele>
        <time>2018-12-29T11:58:18Z</time>
      </trkpt>
      <trkpt lat="41.308555696159601" lon="1.348571525886655">
        <ele>150</ele>
        <time>2018-12-29T11:58:19Z</time>
      </trkpt>
      <trkpt lat="41.308595258742571" lon="1.348702199757099">
        <ele>149.60000610351562</ele>
        <time>2018-12-29T11:58:20Z</time>
      </trkpt>
      <trkpt lat="41.308670360594988" lon="1.348797753453255">
        <ele>148.80000305175781</ele>
        <time>2018-12-29T11:58:21Z</time>
      </trkpt>
      <trkpt lat="41.308760130777955" lon="1.348861707374454">
        <ele>148.19999694824219</ele>
        <time>2018-12-29T11:58:22Z</time>
      </trkpt>
      <trkpt lat="41.308860797435045" lon="1.348901186138392">
        <ele>147.60000610351562</ele>
        <time>2018-12-29T11:58:23Z</time>
      </trkpt>
      <trkpt lat="41.308964313939214" lon="1.348944436758757">
        <ele>147</ele>
        <time>2018-12-29T11:58:24Z</time>
      </trkpt>
      <trkpt lat="41.309049809351563" lon="1.349018616601825">
        <ele>146.39999389648437</ele>
        <time>2018-12-29T11:58:25Z</time>
      </trkpt>
      <trkpt lat="41.30913270637393" lon="1.349109895527363">
        <ele>145.39999389648437</ele>
        <time>2018-12-29T11:58:26Z</time>
      </trkpt>
      <trkpt lat="41.309209149330854" lon="1.349218692630529">
        <ele>144.60000610351562</ele>
        <time>2018-12-29T11:58:27Z</time>
      </trkpt>
      <trkpt lat="41.309263547882438" lon="1.349328076466918">
        <ele>144</ele>
        <time>2018-12-29T11:58:28Z</time>
      </trkpt>
      <trkpt lat="41.309284335002303" lon="1.34945179335773">
        <ele>143.60000610351562</ele>
        <time>2018-12-29T11:58:29Z</time>
      </trkpt>
      <trkpt lat="41.309269079938531" lon="1.349607780575752">
        <ele>142.60000610351562</ele>
        <time>2018-12-29T11:58:30Z</time>
      </trkpt>
      <trkpt lat="41.309267319738865" lon="1.34975521825254">
        <ele>141.80000305175781</ele>
        <time>2018-12-29T11:58:31Z</time>
      </trkpt>
      <trkpt lat="41.309270672500134" lon="1.349901231005788">
        <ele>140.60000610351562</ele>
        <time>2018-12-29T11:58:32Z</time>
      </trkpt>
      <trkpt lat="41.309266649186611" lon="1.350053194910288">
        <ele>140</ele>
        <time>2018-12-29T11:58:33Z</time>
      </trkpt>
      <trkpt lat="41.309212082996964" lon="1.350333485752344">
        <ele>139</ele>
        <time>2018-12-29T11:58:35Z</time>
      </trkpt>
      <trkpt lat="41.309172855690122" lon="1.350464494898915">
        <ele>138.19999694824219</ele>
        <time>2018-12-29T11:58:36Z</time>
      </trkpt>
      <trkpt lat="41.309089036658406" lon="1.350585110485554">
        <ele>137</ele>
        <time>2018-12-29T11:58:37Z</time>
      </trkpt>
      <trkpt lat="41.308988286182284" lon="1.350706228986383">
        <ele>136</ele>
        <time>2018-12-29T11:58:38Z</time>
      </trkpt>
      <trkpt lat="41.308895163238049" lon="1.350836483761668">
        <ele>135</ele>
        <time>2018-12-29T11:58:39Z</time>
      </trkpt>
      <trkpt lat="41.308817965909839" lon="1.350980065762997">
        <ele>134</ele>
        <time>2018-12-29T11:58:40Z</time>
      </trkpt>
      <trkpt lat="41.308761639520526" lon="1.3511370588094">
        <ele>132.60000610351562</ele>
        <time>2018-12-29T11:58:41Z</time>
      </trkpt>
      <trkpt lat="41.308721741661429" lon="1.351301511749625">
        <ele>131.39999389648437</ele>
        <time>2018-12-29T11:58:42Z</time>
      </trkpt>
      <trkpt lat="41.308679413050413" lon="1.35146152228117">
        <ele>130.39999389648437</ele>
        <time>2018-12-29T11:58:43Z</time>
      </trkpt>
      <trkpt lat="41.308624343946576" lon="1.351612061262131">
        <ele>130</ele>
        <time>2018-12-29T11:58:44Z</time>
      </trkpt>
      <trkpt lat="41.30855661816895" lon="1.351742064580321">
        <ele>129</ele>
        <time>2018-12-29T11:58:45Z</time>
      </trkpt>
      <trkpt lat="41.308468943461776" lon="1.351851616054773">
        <ele>128.60000610351562</ele>
        <time>2018-12-29T11:58:46Z</time>
      </trkpt>
      <trkpt lat="41.30836701951921" lon="1.351937782019377">
        <ele>128.19999694824219</ele>
        <time>2018-12-29T11:58:47Z</time>
      </trkpt>
      <trkpt lat="41.308244308456779" lon="1.351994276046753">
        <ele>128</ele>
        <time>2018-12-29T11:58:48Z</time>
      </trkpt>
      <trkpt lat="41.308115143328905" lon="1.352036688476801">
        <ele>127.19999694824219</ele>
        <time>2018-12-29T11:58:49Z</time>
      </trkpt>
      <trkpt lat="41.307981535792351" lon="1.352079939097166">
        <ele>126.19999694824219</ele>
        <time>2018-12-29T11:58:50Z</time>
      </trkpt>
      <trkpt lat="41.307852622121572" lon="1.352114053443074">
        <ele>125</ele>
        <time>2018-12-29T11:58:51Z</time>
      </trkpt>
      <trkpt lat="41.307587418705225" lon="1.352177504450083">
        <ele>123.19999694824219</ele>
        <time>2018-12-29T11:58:53Z</time>
      </trkpt>
      <trkpt lat="41.307321544736624" lon="1.352277249097824">
        <ele>121.40000152587891</ele>
        <time>2018-12-29T11:58:55Z</time>
      </trkpt>
      <trkpt lat="41.30719724111259" lon="1.352354865521193">
        <ele>119</ele>
        <time>2018-12-29T11:58:56Z</time>
      </trkpt>
      <trkpt lat="41.307080397382379" lon="1.352442540228367">
        <ele>118.19999694824219</ele>
        <time>2018-12-29T11:58:57Z</time>
      </trkpt>
      <trkpt lat="41.306978389620781" lon="1.352530550211668">
        <ele>117.59999847412109</ele>
        <time>2018-12-29T11:58:58Z</time>
      </trkpt>
      <trkpt lat="41.306892475113273" lon="1.352606322616339">
        <ele>115.59999847412109</ele>
        <time>2018-12-29T11:58:59Z</time>
      </trkpt>
      <trkpt lat="41.306729530915618" lon="1.352744037285447">
        <ele>115</ele>
        <time>2018-12-29T11:59:01Z</time>
      </trkpt>
      <trkpt lat="41.306548397988081" lon="1.352847386151552">
        <ele>115</ele>
        <time>2018-12-29T11:59:03Z</time>
      </trkpt>
      <trkpt lat="41.306448904797435" lon="1.352887200191617">
        <ele>114.40000152587891</ele>
        <time>2018-12-29T11:59:04Z</time>
      </trkpt>
      <trkpt lat="41.306346897035837" lon="1.352925170212984">
        <ele>114</ele>
        <time>2018-12-29T11:59:05Z</time>
      </trkpt>
      <trkpt lat="41.306154699996114" lon="1.352992560714483">
        <ele>113</ele>
        <time>2018-12-29T11:59:07Z</time>
      </trkpt>
      <trkpt lat="41.305995108559728" lon="1.35304369032383">
        <ele>111.59999847412109</ele>
        <time>2018-12-29T11:59:09Z</time>
      </trkpt>
      <trkpt lat="41.305845910683274" lon="1.353092473000288">
        <ele>110.40000152587891</ele>
        <time>2018-12-29T11:59:11Z</time>
      </trkpt>
      <trkpt lat="41.305724373087287" lon="1.353124156594276">
        <ele>109.19999694824219</ele>
        <time>2018-12-29T11:59:13Z</time>
      </trkpt>
      <trkpt lat="41.305618174374104" lon="1.353139914572239">
        <ele>108.59999847412109</ele>
        <time>2018-12-29T11:59:15Z</time>
      </trkpt>
      <trkpt lat="41.305499067530036" lon="1.353147625923157">
        <ele>108.40000152587891</ele>
        <time>2018-12-29T11:59:17Z</time>
      </trkpt>
      <trkpt lat="41.305441483855247" lon="1.353167071938515">
        <ele>108.40000152587891</ele>
        <time>2018-12-29T11:59:18Z</time>
      </trkpt>
      <trkpt lat="41.305387336760759" lon="1.35320981964469">
        <ele>108.40000152587891</ele>
        <time>2018-12-29T11:59:19Z</time>
      </trkpt>
      <trkpt lat="41.305342493578792" lon="1.353266900405288">
        <ele>108.40000152587891</ele>
        <time>2018-12-29T11:59:20Z</time>
      </trkpt>
      <trkpt lat="41.305304188281298" lon="1.353331692516804">
        <ele>108.40000152587891</ele>
        <time>2018-12-29T11:59:21Z</time>
      </trkpt>
      <trkpt lat="41.30526521243155" lon="1.35339648462832">
        <ele>108.19999694824219</ele>
        <time>2018-12-29T11:59:22Z</time>
      </trkpt>
      <trkpt lat="41.305212993174791" lon="1.353451553732157">
        <ele>108</ele>
        <time>2018-12-29T11:59:23Z</time>
      </trkpt>
      <trkpt lat="41.305150799453259" lon="1.353482650592923">
        <ele>107.80000305175781</ele>
        <time>2018-12-29T11:59:24Z</time>
      </trkpt>
      <trkpt lat="41.305080307647586" lon="1.353485332801938">
        <ele>107.80000305175781</ele>
        <time>2018-12-29T11:59:25Z</time>
      </trkpt>
      <trkpt lat="41.30495055578649" lon="1.353451637551189">
        <ele>107.59999847412109</ele>
        <time>2018-12-29T11:59:27Z</time>
      </trkpt>
      <trkpt lat="41.304887942969799" lon="1.353435963392258">
        <ele>107.40000152587891</ele>
        <time>2018-12-29T11:59:28Z</time>
      </trkpt>
      <trkpt lat="41.304829604923725" lon="1.353420792147517">
        <ele>107.40000152587891</ele>
        <time>2018-12-29T11:59:29Z</time>
      </trkpt>
      <trkpt lat="41.304701697081327" lon="1.353389527648687">
        <ele>107.80000305175781</ele>
        <time>2018-12-29T11:59:31Z</time>
      </trkpt>
      <trkpt lat="41.304562725126743" lon="1.353361532092094">
        <ele>108</ele>
        <time>2018-12-29T11:59:33Z</time>
      </trkpt>
      <trkpt lat="41.304414868354797" lon="1.353326998651028">
        <ele>108.40000152587891</ele>
        <time>2018-12-29T11:59:35Z</time>
      </trkpt>
      <trkpt lat="41.304263072088361" lon="1.353281149640679">
        <ele>108.59999847412109</ele>
        <time>2018-12-29T11:59:37Z</time>
      </trkpt>
      <trkpt lat="41.304102642461658" lon="1.353244688361883">
        <ele>108.80000305175781</ele>
        <time>2018-12-29T11:59:39Z</time>
      </trkpt>
      <trkpt lat="41.303946655243635" lon="1.353216944262385">
        <ele>109.19999694824219</ele>
        <time>2018-12-29T11:59:41Z</time>
      </trkpt>
      <trkpt lat="41.303799385204911" lon="1.35318735614419">
        <ele>109.80000305175781</ele>
        <time>2018-12-29T11:59:43Z</time>
      </trkpt>
      <trkpt lat="41.303729396313429" lon="1.353173358365893">
        <ele>110.40000152587891</ele>
        <time>2018-12-29T11:59:44Z</time>
      </trkpt>
      <trkpt lat="41.303659910336137" lon="1.35316145606339">
        <ele>110.40000152587891</ele>
        <time>2018-12-29T11:59:45Z</time>
      </trkpt>
      <trkpt lat="41.30359067581594" lon="1.353148967027664">
        <ele>110.59999847412109</ele>
        <time>2018-12-29T11:59:46Z</time>
      </trkpt>
      <trkpt lat="41.303521189838648" lon="1.353137232363224">
        <ele>110.59999847412109</ele>
        <time>2018-12-29T11:59:47Z</time>
      </trkpt>
      <trkpt lat="41.3033786136657" lon="1.353108482435346">
        <ele>110.40000152587891</ele>
        <time>2018-12-29T11:59:49Z</time>
      </trkpt>
      <trkpt lat="41.303233774378896" lon="1.353083001449704">
        <ele>110.40000152587891</ele>
        <time>2018-12-29T11:59:51Z</time>
      </trkpt>
      <trkpt lat="41.303088013082743" lon="1.353060118854046">
        <ele>110.40000152587891</ele>
        <time>2018-12-29T11:59:53Z</time>
      </trkpt>
      <trkpt lat="41.302944933995605" lon="1.353031368926168">
        <ele>110.59999847412109</ele>
        <time>2018-12-29T11:59:55Z</time>
      </trkpt>
      <trkpt lat="41.302797915413976" lon="1.352999936789274">
        <ele>110.59999847412109</ele>
        <time>2018-12-29T11:59:57Z</time>
      </trkpt>
      <trkpt lat="41.302651567384601" lon="1.352972695603967">
        <ele>110.80000305175781</ele>
        <time>2018-12-29T11:59:59Z</time>
      </trkpt>
      <trkpt lat="41.302501950412989" lon="1.35294696316123">
        <ele>110.80000305175781</ele>
        <time>2018-12-29T12:00:01Z</time>
      </trkpt>
      <trkpt lat="41.302351411432028" lon="1.352919470518827">
        <ele>110.59999847412109</ele>
        <time>2018-12-29T12:00:03Z</time>
      </trkpt>
      <trkpt lat="41.302201459184289" lon="1.352894911542535">
        <ele>110.59999847412109</ele>
        <time>2018-12-29T12:00:05Z</time>
      </trkpt>
      <trkpt lat="41.302052512764931" lon="1.352866245433688">
        <ele>110.80000305175781</ele>
        <time>2018-12-29T12:00:07Z</time>
      </trkpt>
      <trkpt lat="41.301910020411015" lon="1.352835148572922">
        <ele>111.19999694824219</ele>
        <time>2018-12-29T12:00:09Z</time>
      </trkpt>
      <trkpt lat="41.301772892475128" lon="1.352815870195627">
        <ele>111.19999694824219</ele>
        <time>2018-12-29T12:00:11Z</time>
      </trkpt>
      <trkpt lat="41.301707597449422" lon="1.352806398645043">
        <ele>111.40000152587891</ele>
        <time>2018-12-29T12:00:12Z</time>
      </trkpt>
      <trkpt lat="41.301640206947923" lon="1.352794077247381">
        <ele>111.59999847412109</ele>
        <time>2018-12-29T12:00:13Z</time>
      </trkpt>
      <trkpt lat="41.301503498107195" lon="1.352763902395964">
        <ele>111.80000305175781</ele>
        <time>2018-12-29T12:00:15Z</time>
      </trkpt>
      <trkpt lat="41.301365364342928" lon="1.352735655382276">
        <ele>112</ele>
        <time>2018-12-29T12:00:17Z</time>
      </trkpt>
      <trkpt lat="41.30122764967382" lon="1.352706318721175">
        <ele>112</ele>
        <time>2018-12-29T12:00:19Z</time>
      </trkpt>
      <trkpt lat="41.301093958318233" lon="1.352677904069424">
        <ele>112</ele>
        <time>2018-12-29T12:00:21Z</time>
      </trkpt>
      <trkpt lat="41.301026400178671" lon="1.352666420862079">
        <ele>112</ele>
        <time>2018-12-29T12:00:22Z</time>
      </trkpt>
      <trkpt lat="41.30095842294395" lon="1.352657955139875">
        <ele>112</ele>
        <time>2018-12-29T12:00:23Z</time>
      </trkpt>
      <trkpt lat="41.300819534808397" lon="1.352632977068424">
        <ele>112</ele>
        <time>2018-12-29T12:00:25Z</time>
      </trkpt>
      <trkpt lat="41.300681149587035" lon="1.352602131664753">
        <ele>112.19999694824219</ele>
        <time>2018-12-29T12:00:27Z</time>
      </trkpt>
      <trkpt lat="41.300612753257155" lon="1.352589055895805">
        <ele>112.40000152587891</ele>
        <time>2018-12-29T12:00:28Z</time>
      </trkpt>
      <trkpt lat="41.300543518736959" lon="1.352575477212668">
        <ele>112.59999847412109</ele>
        <time>2018-12-29T12:00:29Z</time>
      </trkpt>
      <trkpt lat="41.300404211506248" lon="1.352548822760582">
        <ele>112.59999847412109</ele>
        <time>2018-12-29T12:00:31Z</time>
      </trkpt>
      <trkpt lat="41.300264317542315" lon="1.352521246299148">
        <ele>113</ele>
        <time>2018-12-29T12:00:33Z</time>
      </trkpt>
      <trkpt lat="41.300120064988732" lon="1.352491993457079">
        <ele>113.19999694824219</ele>
        <time>2018-12-29T12:00:35Z</time>
      </trkpt>
      <trkpt lat="41.299977069720626" lon="1.352466680109501">
        <ele>113.59999847412109</ele>
        <time>2018-12-29T12:00:37Z</time>
      </trkpt>
      <trkpt lat="41.299834493547678" lon="1.35244220495224">
        <ele>113.80000305175781</ele>
        <time>2018-12-29T12:00:39Z</time>
      </trkpt>
      <trkpt lat="41.299687642604113" lon="1.352414460852742">
        <ele>114</ele>
        <time>2018-12-29T12:00:41Z</time>
      </trkpt>
      <trkpt lat="41.299540791660547" lon="1.352384369820356">
        <ele>114.40000152587891</ele>
        <time>2018-12-29T12:00:43Z</time>
      </trkpt>
      <trkpt lat="41.299466779455543" lon="1.352371461689472">
        <ele>114.59999847412109</ele>
        <time>2018-12-29T12:00:44Z</time>
      </trkpt>
      <trkpt lat="41.299391761422157" lon="1.352361403405666">
        <ele>114.59999847412109</ele>
        <time>2018-12-29T12:00:45Z</time>
      </trkpt>
      <trkpt lat="41.299246670678258" lon="1.352333324030042">
        <ele>114.80000305175781</ele>
        <time>2018-12-29T12:00:47Z</time>
      </trkpt>
      <trkpt lat="41.29910702817142" lon="1.3523078430444">
        <ele>115</ele>
        <time>2018-12-29T12:00:49Z</time>
      </trkpt>
      <trkpt lat="41.298966379836202" lon="1.352285379543901">
        <ele>115.19999694824219</ele>
        <time>2018-12-29T12:00:51Z</time>
      </trkpt>
      <trkpt lat="41.298823971301317" lon="1.35225847363472">
        <ele>115</ele>
        <time>2018-12-29T12:00:53Z</time>
      </trkpt>
      <trkpt lat="41.298678461462259" lon="1.352228717878461">
        <ele>115</ele>
        <time>2018-12-29T12:00:55Z</time>
      </trkpt>
      <trkpt lat="41.298528928309679" lon="1.352195274084806">
        <ele>114.80000305175781</ele>
        <time>2018-12-29T12:00:57Z</time>
      </trkpt>
      <trkpt lat="41.298372857272625" lon="1.352155543863773">
        <ele>115</ele>
        <time>2018-12-29T12:00:59Z</time>
      </trkpt>
      <trkpt lat="41.298235058784485" lon="1.352127632126212">
        <ele>115</ele>
        <time>2018-12-29T12:01:01Z</time>
      </trkpt>
      <trkpt lat="41.298097427934408" lon="1.352097792550921">
        <ele>115.40000152587891</ele>
        <time>2018-12-29T12:01:03Z</time>
      </trkpt>
      <trkpt lat="41.297958036884665" lon="1.352059319615364">
        <ele>115.19999694824219</ele>
        <time>2018-12-29T12:01:05Z</time>
      </trkpt>
      <trkpt lat="41.297812191769481" lon="1.352015314623714">
        <ele>115.19999694824219</ele>
        <time>2018-12-29T12:01:07Z</time>
      </trkpt>
      <trkpt lat="41.297654444351792" lon="1.351974159479141">
        <ele>114.40000152587891</ele>
        <time>2018-12-29T12:01:09Z</time>
      </trkpt>
      <trkpt lat="41.297496613115072" lon="1.35193258523941">
        <ele>114.19999694824219</ele>
        <time>2018-12-29T12:01:11Z</time>
      </trkpt>
      <trkpt lat="41.297419080510736" lon="1.351908948272467">
        <ele>114.19999694824219</ele>
        <time>2018-12-29T12:01:12Z</time>
      </trkpt>
      <trkpt lat="41.297342134639621" lon="1.351884640753269">
        <ele>113.80000305175781</ele>
        <time>2018-12-29T12:01:13Z</time>
      </trkpt>
      <trkpt lat="41.297189081087708" lon="1.351847592741251">
        <ele>113.59999847412109</ele>
        <time>2018-12-29T12:01:15Z</time>
      </trkpt>
      <trkpt lat="41.29703963175416" lon="1.351808281615377">
        <ele>113.80000305175781</ele>
        <time>2018-12-29T12:01:17Z</time>
      </trkpt>
      <trkpt lat="41.296889930963516" lon="1.351770143955946">
        <ele>113.80000305175781</ele>
        <time>2018-12-29T12:01:19Z</time>
      </trkpt>
      <trkpt lat="41.296815667301416" lon="1.35175078175962">
        <ele>114.40000152587891</ele>
        <time>2018-12-29T12:01:20Z</time>
      </trkpt>
      <trkpt lat="41.296742828562856" lon="1.35173125192523">
        <ele>114.59999847412109</ele>
        <time>2018-12-29T12:01:21Z</time>
      </trkpt>
      <trkpt lat="41.296599330380559" lon="1.351688588038087">
        <ele>115.19999694824219</ele>
        <time>2018-12-29T12:01:23Z</time>
      </trkpt>
      <trkpt lat="41.296455999836326" lon="1.351651540026069">
        <ele>116</ele>
        <time>2018-12-29T12:01:25Z</time>
      </trkpt>
      <trkpt lat="41.296318201348186" lon="1.351618934422731">
        <ele>116.80000305175781</ele>
        <time>2018-12-29T12:01:27Z</time>
      </trkpt>
      <trkpt lat="41.296250727027655" lon="1.351604936644435">
        <ele>117.19999694824219</ele>
        <time>2018-12-29T12:01:28Z</time>
      </trkpt>
      <trkpt lat="41.296188198029995" lon="1.35159102268517">
        <ele>117.40000152587891</ele>
        <time>2018-12-29T12:01:29Z</time>
      </trkpt>
      <trkpt lat="41.296069677919149" lon="1.351562105119228">
        <ele>118</ele>
        <time>2018-12-29T12:01:31Z</time>
      </trkpt>
      <trkpt lat="41.296013770624995" lon="1.351543413475156">
        <ele>118.19999694824219</ele>
        <time>2018-12-29T12:01:32Z</time>
      </trkpt>
      <trkpt lat="41.29595585167408" lon="1.351523883640766">
        <ele>118.59999847412109</ele>
        <time>2018-12-29T12:01:33Z</time>
      </trkpt>
      <trkpt lat="41.295843031257391" lon="1.351500665768981">
        <ele>119.40000152587891</ele>
        <time>2018-12-29T12:01:35Z</time>
      </trkpt>
      <trkpt lat="41.295720990747213" lon="1.351466635242105">
        <ele>119.80000305175781</ele>
        <time>2018-12-29T12:01:37Z</time>
      </trkpt>
      <trkpt lat="41.295593921095133" lon="1.351431012153626">
        <ele>120.59999847412109</ele>
        <time>2018-12-29T12:01:39Z</time>
      </trkpt>
      <trkpt lat="41.295468276366591" lon="1.351397233083844">
        <ele>121.19999694824219</ele>
        <time>2018-12-29T12:01:41Z</time>
      </trkpt>
      <trkpt lat="41.295405831187963" lon="1.351381307467818">
        <ele>121.19999694824219</ele>
        <time>2018-12-29T12:01:42Z</time>
      </trkpt>
      <trkpt lat="41.295339362695813" lon="1.351370327174664">
        <ele>121.40000152587891</ele>
        <time>2018-12-29T12:01:43Z</time>
      </trkpt>
      <trkpt lat="41.295278929173946" lon="1.351347863674164">
        <ele>121.40000152587891</ele>
        <time>2018-12-29T12:01:44Z</time>
      </trkpt>
      <trkpt lat="41.295214975252748" lon="1.351326573640108">
        <ele>120.59999847412109</ele>
        <time>2018-12-29T12:01:45Z</time>
      </trkpt>
      <trkpt lat="41.295080445706844" lon="1.351289274170995">
        <ele>120</ele>
        <time>2018-12-29T12:01:47Z</time>
      </trkpt>
      <trkpt lat="41.294934852048755" lon="1.351250130683184">
        <ele>119.80000305175781</ele>
        <time>2018-12-29T12:01:49Z</time>
      </trkpt>
      <trkpt lat="41.294780122116208" lon="1.351215010508895">
        <ele>119</ele>
        <time>2018-12-29T12:01:51Z</time>
      </trkpt>
      <trkpt lat="41.294622626155615" lon="1.351170586422086">
        <ele>118.19999694824219</ele>
        <time>2018-12-29T12:01:53Z</time>
      </trkpt>
      <trkpt lat="41.294536124914885" lon="1.351148458197713">
        <ele>118</ele>
        <time>2018-12-29T12:01:54Z</time>
      </trkpt>
      <trkpt lat="41.294446187093854" lon="1.351127335801721">
        <ele>117.80000305175781</ele>
        <time>2018-12-29T12:01:55Z</time>
      </trkpt>
      <trkpt lat="41.294260444119573" lon="1.351081905886531">
        <ele>117.59999847412109</ele>
        <time>2018-12-29T12:01:57Z</time>
      </trkpt>
      <trkpt lat="41.294066905975342" lon="1.35102859698236">
        <ele>116.19999694824219</ele>
        <time>2018-12-29T12:01:59Z</time>
      </trkpt>
      <trkpt lat="41.293964060023427" lon="1.351003115996718">
        <ele>115.59999847412109</ele>
        <time>2018-12-29T12:02:00Z</time>
      </trkpt>
      <trkpt lat="41.293861465528607" lon="1.350981071591377">
        <ele>115</ele>
        <time>2018-12-29T12:02:01Z</time>
      </trkpt>
      <trkpt lat="41.293666418641806" lon="1.350932875648141">
        <ele>113.40000152587891</ele>
        <time>2018-12-29T12:02:03Z</time>
      </trkpt>
      <trkpt lat="41.293480424210429" lon="1.350883087143302">
        <ele>113.19999694824219</ele>
        <time>2018-12-29T12:02:05Z</time>
      </trkpt>
      <trkpt lat="41.293294848874211" lon="1.350819300860167">
        <ele>113.59999847412109</ele>
        <time>2018-12-29T12:02:07Z</time>
      </trkpt>
      <trkpt lat="41.29311740398407" lon="1.350744869560003">
        <ele>113.19999694824219</ele>
        <time>2018-12-29T12:02:09Z</time>
      </trkpt>
      <trkpt lat="41.292942557483912" lon="1.350657865405083">
        <ele>113.59999847412109</ele>
        <time>2018-12-29T12:02:11Z</time>
      </trkpt>
      <trkpt lat="41.292773159220815" lon="1.350567676126957">
        <ele>113.59999847412109</ele>
        <time>2018-12-29T12:02:13Z</time>
      </trkpt>
      <trkpt lat="41.292615495622158" lon="1.350465500727296">
        <ele>113.19999694824219</ele>
        <time>2018-12-29T12:02:15Z</time>
      </trkpt>
      <trkpt lat="41.2924665492028" lon="1.350373048335314">
        <ele>113</ele>
        <time>2018-12-29T12:02:17Z</time>
      </trkpt>
      <trkpt lat="41.292392453178763" lon="1.35032694786787">
        <ele>113.19999694824219</ele>
        <time>2018-12-29T12:02:18Z</time>
      </trkpt>
      <trkpt lat="41.292319362983108" lon="1.350283697247505">
        <ele>113.40000152587891</ele>
        <time>2018-12-29T12:02:19Z</time>
      </trkpt>
      <trkpt lat="41.29217485897243" lon="1.350200045853853">
        <ele>114</ele>
        <time>2018-12-29T12:02:21Z</time>
      </trkpt>
      <trkpt lat="41.292040329426527" lon="1.350121675059199">
        <ele>114</ele>
        <time>2018-12-29T12:02:23Z</time>
      </trkpt>
      <trkpt lat="41.291908398270607" lon="1.350051015615463">
        <ele>114.40000152587891</ele>
        <time>2018-12-29T12:02:25Z</time>
      </trkpt>
      <trkpt lat="41.291779819875956" lon="1.349978847429156">
        <ele>114</ele>
        <time>2018-12-29T12:02:27Z</time>
      </trkpt>
      <trkpt lat="41.291651744395494" lon="1.349905086681247">
        <ele>113.80000305175781</ele>
        <time>2018-12-29T12:02:29Z</time>
      </trkpt>
      <trkpt lat="41.291528278961778" lon="1.349828224629164">
        <ele>114.19999694824219</ele>
        <time>2018-12-29T12:02:31Z</time>
      </trkpt>
      <trkpt lat="41.291409004479647" lon="1.349741723388434">
        <ele>114.19999694824219</ele>
        <time>2018-12-29T12:02:33Z</time>
      </trkpt>
      <trkpt lat="41.291302889585495" lon="1.349634854122996">
        <ele>114</ele>
        <time>2018-12-29T12:02:35Z</time>
      </trkpt>
      <trkpt lat="41.291241114959121" lon="1.349489511922002">
        <ele>114</ele>
        <time>2018-12-29T12:02:37Z</time>
      </trkpt>
      <trkpt lat="41.291237091645598" lon="1.349405776709318">
        <ele>113.80000305175781</ele>
        <time>2018-12-29T12:02:38Z</time>
      </trkpt>
      <trkpt lat="41.291224099695683" lon="1.349323801696301">
        <ele>113.59999847412109</ele>
        <time>2018-12-29T12:02:39Z</time>
      </trkpt>
      <trkpt lat="41.291196271777153" lon="1.349248448386788">
        <ele>113.40000152587891</ele>
        <time>2018-12-29T12:02:40Z</time>
      </trkpt>
      <trkpt lat="41.291156206279993" lon="1.349184243008494">
        <ele>113.19999694824219</ele>
        <time>2018-12-29T12:02:41Z</time>
      </trkpt>
      <trkpt lat="41.291104154661298" lon="1.349129844456911">
        <ele>113.19999694824219</ele>
        <time>2018-12-29T12:02:42Z</time>
      </trkpt>
      <trkpt lat="41.291047325357795" lon="1.349094724282622">
        <ele>113.40000152587891</ele>
        <time>2018-12-29T12:02:43Z</time>
      </trkpt>
      <trkpt lat="41.290920758619905" lon="1.349082486703992">
        <ele>113.59999847412109</ele>
        <time>2018-12-29T12:02:45Z</time>
      </trkpt>
      <trkpt lat="41.290805758908391" lon="1.349172675982118">
        <ele>114</ele>
        <time>2018-12-29T12:02:47Z</time>
      </trkpt>
      <trkpt lat="41.290768710896373" lon="1.349255656823516">
        <ele>114.19999694824219</ele>
        <time>2018-12-29T12:02:48Z</time>
      </trkpt>
      <trkpt lat="41.290748007595539" lon="1.349357664585114">
        <ele>114.59999847412109</ele>
        <time>2018-12-29T12:02:49Z</time>
      </trkpt>
      <trkpt lat="41.290765358135104" lon="1.34957542642951">
        <ele>114.19999694824219</ele>
        <time>2018-12-29T12:02:51Z</time>
      </trkpt>
      <trkpt lat="41.290795532986522" lon="1.349783129990101">
        <ele>113.80000305175781</ele>
        <time>2018-12-29T12:02:53Z</time>
      </trkpt>
      <trkpt lat="41.290791593492031" lon="1.349887233227491">
        <ele>113.19999694824219</ele>
        <time>2018-12-29T12:02:54Z</time>
      </trkpt>
      <trkpt lat="41.290771728381515" lon="1.349992090836167">
        <ele>113</ele>
        <time>2018-12-29T12:02:55Z</time>
      </trkpt>
      <trkpt lat="41.290694614872336" lon="1.350203230977058">
        <ele>112.19999694824219</ele>
        <time>2018-12-29T12:02:57Z</time>
      </trkpt>
      <trkpt lat="41.290638875216246" lon="1.350310603156686">
        <ele>111.80000305175781</ele>
        <time>2018-12-29T12:02:58Z</time>
      </trkpt>
      <trkpt lat="41.290578776970506" lon="1.350418729707599">
        <ele>111</ele>
        <time>2018-12-29T12:02:59Z</time>
      </trkpt>
      <trkpt lat="41.290517002344131" lon="1.350531131029129">
        <ele>110.19999694824219</ele>
        <time>2018-12-29T12:03:00Z</time>
      </trkpt>
      <trkpt lat="41.290451120585203" lon="1.350642191246152">
        <ele>109.40000152587891</ele>
        <time>2018-12-29T12:03:01Z</time>
      </trkpt>
      <trkpt lat="41.290311478078365" lon="1.350856767967343">
        <ele>108.59999847412109</ele>
        <time>2018-12-29T12:03:03Z</time>
      </trkpt>
      <trkpt lat="41.290238555520773" lon="1.350958775728941">
        <ele>107.80000305175781</ele>
        <time>2018-12-29T12:03:04Z</time>
      </trkpt>
      <trkpt lat="41.290165800601244" lon="1.351056257262826">
        <ele>107.19999694824219</ele>
        <time>2018-12-29T12:03:05Z</time>
      </trkpt>
      <trkpt lat="41.290016183629632" lon="1.351253148168325">
        <ele>106.80000305175781</ele>
        <time>2018-12-29T12:03:07Z</time>
      </trkpt>
      <trkpt lat="41.289863046258688" lon="1.351461438462138">
        <ele>105.80000305175781</ele>
        <time>2018-12-29T12:03:09Z</time>
      </trkpt>
      <trkpt lat="41.289784340187907" lon="1.351571157574654">
        <ele>105.59999847412109</ele>
        <time>2018-12-29T12:03:10Z</time>
      </trkpt>
      <trkpt lat="41.289704963564873" lon="1.351678194478154">
        <ele>105.19999694824219</ele>
        <time>2018-12-29T12:03:11Z</time>
      </trkpt>
      <trkpt lat="41.289625251665711" lon="1.351785147562623">
        <ele>104.40000152587891</ele>
        <time>2018-12-29T12:03:12Z</time>
      </trkpt>
      <trkpt lat="41.289543360471725" lon="1.351892855018377">
        <ele>103.59999847412109</ele>
        <time>2018-12-29T12:03:13Z</time>
      </trkpt>
      <trkpt lat="41.289462726563215" lon="1.352000897750258">
        <ele>103.40000152587891</ele>
        <time>2018-12-29T12:03:14Z</time>
      </trkpt>
      <trkpt lat="41.289383349940181" lon="1.352110281586647">
        <ele>103</ele>
        <time>2018-12-29T12:03:15Z</time>
      </trkpt>
      <trkpt lat="41.289221411570907" lon="1.352335084229708">
        <ele>102.19999694824219</ele>
        <time>2018-12-29T12:03:17Z</time>
      </trkpt>
      <trkpt lat="41.289060227572918" lon="1.352555109187961">
        <ele>101.59999847412109</ele>
        <time>2018-12-29T12:03:19Z</time>
      </trkpt>
      <trkpt lat="41.288982527330518" lon="1.352661224082112">
        <ele>100.59999847412109</ele>
        <time>2018-12-29T12:03:20Z</time>
      </trkpt>
      <trkpt lat="41.2889005523175" lon="1.352769769728184">
        <ele>100.19999694824219</ele>
        <time>2018-12-29T12:03:21Z</time>
      </trkpt>
      <trkpt lat="41.28874029032886" lon="1.352987783029676">
        <ele>99.400001525878906</ele>
        <time>2018-12-29T12:03:23Z</time>
      </trkpt>
      <trkpt lat="41.288661081343889" lon="1.353096747770906">
        <ele>98</ele>
        <time>2018-12-29T12:03:24Z</time>
      </trkpt>
      <trkpt lat="41.288580782711506" lon="1.353205712512136">
        <ele>97.199996948242188</ele>
        <time>2018-12-29T12:03:25Z</time>
      </trkpt>
      <trkpt lat="41.288500819355249" lon="1.353318365290761">
        <ele>96.599998474121094</ele>
        <time>2018-12-29T12:03:26Z</time>
      </trkpt>
      <trkpt lat="41.288415743038058" lon="1.353431520983577">
        <ele>96</ele>
        <time>2018-12-29T12:03:27Z</time>
      </trkpt>
      <trkpt lat="41.28824869170785" lon="1.353656658902764">
        <ele>95</ele>
        <time>2018-12-29T12:03:29Z</time>
      </trkpt>
      <trkpt lat="41.288087675347924" lon="1.353885484859347">
        <ele>94.599998474121094</ele>
        <time>2018-12-29T12:03:31Z</time>
      </trkpt>
      <trkpt lat="41.287921043112874" lon="1.354111460968852">
        <ele>92.800003051757813</ele>
        <time>2018-12-29T12:03:33Z</time>
      </trkpt>
      <trkpt lat="41.287743765860796" lon="1.354344477877021">
        <ele>91.199996948242188</ele>
        <time>2018-12-29T12:03:35Z</time>
      </trkpt>
      <trkpt lat="41.287573361769319" lon="1.354582188650966">
        <ele>91</ele>
        <time>2018-12-29T12:03:37Z</time>
      </trkpt>
      <trkpt lat="41.287398347631097" lon="1.354818725958467">
        <ele>89.800003051757812</ele>
        <time>2018-12-29T12:03:39Z</time>
      </trkpt>
      <trkpt lat="41.287311427295208" lon="1.354936324059963">
        <ele>89.199996948242188</ele>
        <time>2018-12-29T12:03:40Z</time>
      </trkpt>
      <trkpt lat="41.287225428968668" lon="1.355055347084999">
        <ele>89</ele>
        <time>2018-12-29T12:03:41Z</time>
      </trkpt>
      <trkpt lat="41.287139849737287" lon="1.355173029005528">
        <ele>88.599998474121094</ele>
        <time>2018-12-29T12:03:42Z</time>
      </trkpt>
      <trkpt lat="41.287057120352983" lon="1.35528014972806">
        <ele>88.400001525878906</ele>
        <time>2018-12-29T12:03:43Z</time>
      </trkpt>
      <trkpt lat="41.286983024328947" lon="1.355383582413197">
        <ele>87.599998474121094</ele>
        <time>2018-12-29T12:03:44Z</time>
      </trkpt>
      <trkpt lat="41.286905240267515" lon="1.355486763641238">
        <ele>87</ele>
        <time>2018-12-29T12:03:45Z</time>
      </trkpt>
      <trkpt lat="41.286826198920608" lon="1.355592962354422">
        <ele>86.599998474121094</ele>
        <time>2018-12-29T12:03:46Z</time>
      </trkpt>
      <trkpt lat="41.286747409030795" lon="1.35570184327662">
        <ele>86</ele>
        <time>2018-12-29T12:03:47Z</time>
      </trkpt>
      <trkpt lat="41.286584632471204" lon="1.355929411947727">
        <ele>85.400001525878906</ele>
        <time>2018-12-29T12:03:49Z</time>
      </trkpt>
      <trkpt lat="41.286439374089241" lon="1.356179360300303">
        <ele>84.400001525878906</ele>
        <time>2018-12-29T12:03:51Z</time>
      </trkpt>
      <trkpt lat="41.286377683281898" lon="1.356316907331348">
        <ele>83.599998474121094</ele>
        <time>2018-12-29T12:03:52Z</time>
      </trkpt>
      <trkpt lat="41.286321440711617" lon="1.356459902599454">
        <ele>82.800003051757813</ele>
        <time>2018-12-29T12:03:53Z</time>
      </trkpt>
      <trkpt lat="41.286234352737665" lon="1.35675729252398">
        <ele>81.599998474121094</ele>
        <time>2018-12-29T12:03:55Z</time>
      </trkpt>
      <trkpt lat="41.286193868145347" lon="1.356906993314624">
        <ele>81</ele>
        <time>2018-12-29T12:03:56Z</time>
      </trkpt>
      <trkpt lat="41.286156820133328" lon="1.357056610286236">
        <ele>80.599998474121094</ele>
        <time>2018-12-29T12:03:57Z</time>
      </trkpt>
      <trkpt lat="41.286073671653867" lon="1.357350815087557">
        <ele>79.400001525878906</ele>
        <time>2018-12-29T12:03:59Z</time>
      </trkpt>
      <trkpt lat="41.285994127392769" lon="1.357642421498895">
        <ele>78.599998474121094</ele>
        <time>2018-12-29T12:04:01Z</time>
      </trkpt>
      <trkpt lat="41.285914499312639" lon="1.357926232740283">
        <ele>78.599998474121094</ele>
        <time>2018-12-29T12:04:03Z</time>
      </trkpt>
      <trkpt lat="41.285834284499288" lon="1.358200656250119">
        <ele>78.199996948242188</ele>
        <time>2018-12-29T12:04:05Z</time>
      </trkpt>
      <trkpt lat="41.285757841542363" lon="1.358455885201693">
        <ele>78.199996948242188</ele>
        <time>2018-12-29T12:04:07Z</time>
      </trkpt>
      <trkpt lat="41.285687517374754" lon="1.358705079182982">
        <ele>78.599998474121094</ele>
        <time>2018-12-29T12:04:09Z</time>
      </trkpt>
      <trkpt lat="41.285625658929348" lon="1.358955362811685">
        <ele>78.800003051757813</ele>
        <time>2018-12-29T12:04:11Z</time>
      </trkpt>
      <trkpt lat="41.285565393045545" lon="1.359186200425029">
        <ele>79.400001525878906</ele>
        <time>2018-12-29T12:04:13Z</time>
      </trkpt>
      <trkpt lat="41.28550504334271" lon="1.359404716640711">
        <ele>79.400001525878906</ele>
        <time>2018-12-29T12:04:15Z</time>
      </trkpt>
      <trkpt lat="41.285446621477604" lon="1.359619377180934">
        <ele>79.199996948242187</ele>
        <time>2018-12-29T12:04:17Z</time>
      </trkpt>
      <trkpt lat="41.285397503525019" lon="1.359831020236015">
        <ele>79.199996948242187</ele>
        <time>2018-12-29T12:04:19Z</time>
      </trkpt>
      <trkpt lat="41.285363389179111" lon="1.360045010223985">
        <ele>78.800003051757813</ele>
        <time>2018-12-29T12:04:21Z</time>
      </trkpt>
      <trkpt lat="41.285348972305655" lon="1.360152969136834">
        <ele>79</ele>
        <time>2018-12-29T12:04:22Z</time>
      </trkpt>
      <trkpt lat="41.285339668393135" lon="1.360259000211954">
        <ele>79</ele>
        <time>2018-12-29T12:04:23Z</time>
      </trkpt>
      <trkpt lat="41.285330951213837" lon="1.360463267192245">
        <ele>79.599998474121094</ele>
        <time>2018-12-29T12:04:25Z</time>
      </trkpt>
      <trkpt lat="41.285338830202818" lon="1.360648926347494">
        <ele>80.599998474121094</ele>
        <time>2018-12-29T12:04:27Z</time>
      </trkpt>
      <trkpt lat="41.285349223762751" lon="1.360824527218938">
        <ele>81</ele>
        <time>2018-12-29T12:04:29Z</time>
      </trkpt>
      <trkpt lat="41.285369507968426" lon="1.360992919653654">
        <ele>81.599998474121094</ele>
        <time>2018-12-29T12:04:31Z</time>
      </trkpt>
      <trkpt lat="41.285375794395804" lon="1.36108067817986">
        <ele>82.199996948242188</ele>
        <time>2018-12-29T12:04:32Z</time>
      </trkpt>
      <trkpt lat="41.285383505746722" lon="1.361166341230273">
        <ele>82.199996948242188</ele>
        <time>2018-12-29T12:04:33Z</time>
      </trkpt>
      <trkpt lat="41.285398425534368" lon="1.361331045627594">
        <ele>82.400001525878906</ele>
        <time>2018-12-29T12:04:35Z</time>
      </trkpt>
      <trkpt lat="41.28541175276041" lon="1.361478231847286">
        <ele>82.800003051757813</ele>
        <time>2018-12-29T12:04:37Z</time>
      </trkpt>
      <trkpt lat="41.285420721396804" lon="1.361553836613894">
        <ele>83.400001525878906</ele>
        <time>2018-12-29T12:04:38Z</time>
      </trkpt>
      <trkpt lat="41.285429857671261" lon="1.361625753343105">
        <ele>84</ele>
        <time>2018-12-29T12:04:39Z</time>
      </trkpt>
      <trkpt lat="41.285434467718005" lon="1.36169976554811">
        <ele>84.199996948242188</ele>
        <time>2018-12-29T12:04:40Z</time>
      </trkpt>
      <trkpt lat="41.285442179068923" lon="1.3617710955441">
        <ele>84.400001525878906</ele>
        <time>2018-12-29T12:04:41Z</time>
      </trkpt>
      <trkpt lat="41.28544838167727" lon="1.36184292845428">
        <ele>84.400001525878906</ele>
        <time>2018-12-29T12:04:42Z</time>
      </trkpt>
      <trkpt lat="41.285455087199807" lon="1.361913252621889">
        <ele>84.400001525878906</ele>
        <time>2018-12-29T12:04:43Z</time>
      </trkpt>
      <trkpt lat="41.28546841442585" lon="1.362049710005522">
        <ele>84.400001525878906</ele>
        <time>2018-12-29T12:04:45Z</time>
      </trkpt>
      <trkpt lat="41.285482496023178" lon="1.362182395532727">
        <ele>84.400001525878906</ele>
        <time>2018-12-29T12:04:47Z</time>
      </trkpt>
      <trkpt lat="41.285488363355398" lon="1.36224752292037">
        <ele>84.199996948242188</ele>
        <time>2018-12-29T12:04:48Z</time>
      </trkpt>
      <trkpt lat="41.285493727773428" lon="1.362313572317362">
        <ele>84.199996948242188</ele>
        <time>2018-12-29T12:04:49Z</time>
      </trkpt>
      <trkpt lat="41.285504037514329" lon="1.362443240359426">
        <ele>84.599998474121094</ele>
        <time>2018-12-29T12:04:51Z</time>
      </trkpt>
      <trkpt lat="41.285513928160071" lon="1.362575590610504">
        <ele>85.199996948242188</ele>
        <time>2018-12-29T12:04:53Z</time>
      </trkpt>
      <trkpt lat="41.285519208759069" lon="1.36264088563621">
        <ele>85.400001525878906</ele>
        <time>2018-12-29T12:04:54Z</time>
      </trkpt>
      <trkpt lat="41.285525243729353" lon="1.362703246995807">
        <ele>85.800003051757812</ele>
        <time>2018-12-29T12:04:55Z</time>
      </trkpt>
      <trkpt lat="41.285533960908651" lon="1.362830484285951">
        <ele>86.199996948242188</ele>
        <time>2018-12-29T12:04:57Z</time>
      </trkpt>
      <trkpt lat="41.285544605925679" lon="1.362943975254893">
        <ele>86.599998474121094</ele>
        <time>2018-12-29T12:04:59Z</time>
      </trkpt>
      <trkpt lat="41.285550473257899" lon="1.363058220595121">
        <ele>86.800003051757813</ele>
        <time>2018-12-29T12:05:01Z</time>
      </trkpt>
      <trkpt lat="41.285561285912991" lon="1.363172382116318">
        <ele>87</ele>
        <time>2018-12-29T12:05:03Z</time>
      </trkpt>
      <trkpt lat="41.285570086911321" lon="1.363283190876246">
        <ele>87.599998474121094</ele>
        <time>2018-12-29T12:05:05Z</time>
      </trkpt>
      <trkpt lat="41.285578049719334" lon="1.363336583599448">
        <ele>87.599998474121094</ele>
        <time>2018-12-29T12:05:06Z</time>
      </trkpt>
      <trkpt lat="41.28558374941349" lon="1.363389221951366">
        <ele>88</ele>
        <time>2018-12-29T12:05:07Z</time>
      </trkpt>
      <trkpt lat="41.285589365288615" lon="1.36348863132298">
        <ele>88.599998474121094</ele>
        <time>2018-12-29T12:05:09Z</time>
      </trkpt>
      <trkpt lat="41.285600010305643" lon="1.363589046522975">
        <ele>89.199996948242188</ele>
        <time>2018-12-29T12:05:11Z</time>
      </trkpt>
      <trkpt lat="41.28560671582818" lon="1.363687785342336">
        <ele>89.400001525878906</ele>
        <time>2018-12-29T12:05:13Z</time>
      </trkpt>
      <trkpt lat="41.285618282854557" lon="1.363785769790411">
        <ele>89.800003051757812</ele>
        <time>2018-12-29T12:05:15Z</time>
      </trkpt>
      <trkpt lat="41.28562381491065" lon="1.363880652934313">
        <ele>90.400001525878906</ele>
        <time>2018-12-29T12:05:17Z</time>
      </trkpt>
      <trkpt lat="41.28562867641449" lon="1.36396212503314">
        <ele>91</ele>
        <time>2018-12-29T12:05:19Z</time>
      </trkpt>
      <trkpt lat="41.285635381937027" lon="1.364049380645156">
        <ele>91.400001525878906</ele>
        <time>2018-12-29T12:05:21Z</time>
      </trkpt>
      <trkpt lat="41.285639405250549" lon="1.364092631265521">
        <ele>91.800003051757813</ele>
        <time>2018-12-29T12:05:22Z</time>
      </trkpt>
      <trkpt lat="41.285643428564072" lon="1.36413604952395">
        <ele>92</ele>
        <time>2018-12-29T12:05:23Z</time>
      </trkpt>
      <trkpt lat="41.285649128258228" lon="1.364226406440139">
        <ele>92.199996948242187</ele>
        <time>2018-12-29T12:05:25Z</time>
      </trkpt>
      <trkpt lat="41.285655414685607" lon="1.364315589889884">
        <ele>92.599998474121094</ele>
        <time>2018-12-29T12:05:27Z</time>
      </trkpt>
      <trkpt lat="41.285667233169079" lon="1.364400582388043">
        <ele>93</ele>
        <time>2018-12-29T12:05:29Z</time>
      </trkpt>
      <trkpt lat="41.285673938691616" lon="1.364488005638123">
        <ele>93.400001525878906</ele>
        <time>2018-12-29T12:05:31Z</time>
      </trkpt>
      <trkpt lat="41.285678884014487" lon="1.364530418068171">
        <ele>93.599998474121094</ele>
        <time>2018-12-29T12:05:32Z</time>
      </trkpt>
      <trkpt lat="41.285683577880263" lon="1.364574506878853">
        <ele>93.800003051757813</ele>
        <time>2018-12-29T12:05:33Z</time>
      </trkpt>
      <trkpt lat="41.285687936469913" lon="1.364618092775345">
        <ele>94.199996948242188</ele>
        <time>2018-12-29T12:05:34Z</time>
      </trkpt>
      <trkpt lat="41.285693133249879" lon="1.364664444699884">
        <ele>94.199996948242188</ele>
        <time>2018-12-29T12:05:35Z</time>
      </trkpt>
      <trkpt lat="41.285704365000129" lon="1.364757232367992">
        <ele>94.599998474121094</ele>
        <time>2018-12-29T12:05:37Z</time>
      </trkpt>
      <trkpt lat="41.285724397748709" lon="1.364845493808389">
        <ele>95.199996948242188</ele>
        <time>2018-12-29T12:05:39Z</time>
      </trkpt>
      <trkpt lat="41.285744179040194" lon="1.364924618974328">
        <ele>95.400001525878906</ele>
        <time>2018-12-29T12:05:41Z</time>
      </trkpt>
      <trkpt lat="41.285754656419158" lon="1.364964935928583">
        <ele>95.400001525878906</ele>
        <time>2018-12-29T12:05:42Z</time>
      </trkpt>
      <trkpt lat="41.285765217617154" lon="1.365006174892187">
        <ele>95.599998474121094</ele>
        <time>2018-12-29T12:05:43Z</time>
      </trkpt>
      <trkpt lat="41.285794386640191" lon="1.365084126591682">
        <ele>96</ele>
        <time>2018-12-29T12:05:45Z</time>
      </trkpt>
      <trkpt lat="41.285812156274915" lon="1.365121677517891">
        <ele>96.400001525878906</ele>
        <time>2018-12-29T12:05:46Z</time>
      </trkpt>
      <trkpt lat="41.285830345004797" lon="1.365158725529909">
        <ele>96.599998474121094</ele>
        <time>2018-12-29T12:05:47Z</time>
      </trkpt>
      <trkpt lat="41.285863202065229" lon="1.36523550376296">
        <ele>97</ele>
        <time>2018-12-29T12:05:49Z</time>
      </trkpt>
      <trkpt lat="41.285880720242858" lon="1.365269618108869">
        <ele>97.199996948242188</ele>
        <time>2018-12-29T12:05:50Z</time>
      </trkpt>
      <trkpt lat="41.285897316411138" lon="1.36530096642673">
        <ele>97.400001525878906</ele>
        <time>2018-12-29T12:05:51Z</time>
      </trkpt>
      <trkpt lat="41.285934783518314" lon="1.365359723567963">
        <ele>98</ele>
        <time>2018-12-29T12:05:53Z</time>
      </trkpt>
      <trkpt lat="41.285975016653538" lon="1.365420995280147">
        <ele>98.400001525878906</ele>
        <time>2018-12-29T12:05:55Z</time>
      </trkpt>
      <trkpt lat="41.285998485982418" lon="1.36545192450285">
        <ele>98.599998474121094</ele>
        <time>2018-12-29T12:05:56Z</time>
      </trkpt>
      <trkpt lat="41.286020111292601" lon="1.365482769906521">
        <ele>98.800003051757812</ele>
        <time>2018-12-29T12:05:57Z</time>
      </trkpt>
      <trkpt lat="41.286061266437173" lon="1.365548986941576">
        <ele>99.199996948242188</ele>
        <time>2018-12-29T12:05:59Z</time>
      </trkpt>
      <trkpt lat="41.28610510379076" lon="1.365610007196665">
        <ele>99.599998474121094</ele>
        <time>2018-12-29T12:06:01Z</time>
      </trkpt>
      <trkpt lat="41.286125723272562" lon="1.365637248381972">
        <ele>99.800003051757813</ele>
        <time>2018-12-29T12:06:02Z</time>
      </trkpt>
      <trkpt lat="41.286146678030491" lon="1.3656669203192">
        <ele>99.800003051757813</ele>
        <time>2018-12-29T12:06:03Z</time>
      </trkpt>
      <trkpt lat="41.286195041611791" lon="1.365722911432385">
        <ele>100.19999694824219</ele>
        <time>2018-12-29T12:06:05Z</time>
      </trkpt>
      <trkpt lat="41.286242231726646" lon="1.365779405459762">
        <ele>100.59999847412109</ele>
        <time>2018-12-29T12:06:07Z</time>
      </trkpt>
      <trkpt lat="41.286286320537329" lon="1.365836570039392">
        <ele>101.19999694824219</ele>
        <time>2018-12-29T12:06:09Z</time>
      </trkpt>
      <trkpt lat="41.286332001909614" lon="1.365885436534882">
        <ele>101.40000152587891</ele>
        <time>2018-12-29T12:06:11Z</time>
      </trkpt>
      <trkpt lat="41.286381706595421" lon="1.365929190069437">
        <ele>101.80000305175781</ele>
        <time>2018-12-29T12:06:13Z</time>
      </trkpt>
      <trkpt lat="41.286440044641495" lon="1.365969171747565">
        <ele>102</ele>
        <time>2018-12-29T12:06:15Z</time>
      </trkpt>
      <trkpt lat="41.286499556154013" lon="1.366002783179283">
        <ele>102.19999694824219</ele>
        <time>2018-12-29T12:06:17Z</time>
      </trkpt>
      <trkpt lat="41.28655806183815" lon="1.366029940545559">
        <ele>102.40000152587891</ele>
        <time>2018-12-29T12:06:19Z</time>
      </trkpt>
      <trkpt lat="41.286616986617446" lon="1.366051733493805">
        <ele>102.59999847412109</ele>
        <time>2018-12-29T12:06:21Z</time>
      </trkpt>
      <trkpt lat="41.286671133711934" lon="1.366059528663755">
        <ele>103</ele>
        <time>2018-12-29T12:06:23Z</time>
      </trkpt>
      <trkpt lat="41.286728717386723" lon="1.366071179509163">
        <ele>103.59999847412109</ele>
        <time>2018-12-29T12:06:25Z</time>
      </trkpt>
      <trkpt lat="41.286790911108255" lon="1.366079477593303">
        <ele>104</ele>
        <time>2018-12-29T12:06:27Z</time>
      </trkpt>
      <trkpt lat="41.286852601915598" lon="1.366080483421683">
        <ele>104.19999694824219</ele>
        <time>2018-12-29T12:06:29Z</time>
      </trkpt>
      <trkpt lat="41.286913203075528" lon="1.366079729050398">
        <ele>104.59999847412109</ele>
        <time>2018-12-29T12:06:31Z</time>
      </trkpt>
      <trkpt lat="41.286941869184375" lon="1.366081070154905">
        <ele>105</ele>
        <time>2018-12-29T12:06:32Z</time>
      </trkpt>
      <trkpt lat="41.286970116198063" lon="1.366084255278111">
        <ele>105.19999694824219</ele>
        <time>2018-12-29T12:06:33Z</time>
      </trkpt>
      <trkpt lat="41.287027699872851" lon="1.366091128438711">
        <ele>105.19999694824219</ele>
        <time>2018-12-29T12:06:35Z</time>
      </trkpt>
      <trkpt lat="41.287086792290211" lon="1.36610085144639">
        <ele>105.19999694824219</ele>
        <time>2018-12-29T12:06:37Z</time>
      </trkpt>
      <trkpt lat="41.287115961313248" lon="1.366109903901815">
        <ele>105.19999694824219</ele>
        <time>2018-12-29T12:06:38Z</time>
      </trkpt>
      <trkpt lat="41.287144292145967" lon="1.366123985499144">
        <ele>105.40000152587891</ele>
        <time>2018-12-29T12:06:39Z</time>
      </trkpt>
      <trkpt lat="41.287200953811407" lon="1.366161955520511">
        <ele>106.59999847412109</ele>
        <time>2018-12-29T12:06:41Z</time>
      </trkpt>
      <trkpt lat="41.287249233573675" lon="1.366209983825684">
        <ele>107</ele>
        <time>2018-12-29T12:06:43Z</time>
      </trkpt>
      <trkpt lat="41.287273457273841" lon="1.366237225010991">
        <ele>107.19999694824219</ele>
        <time>2018-12-29T12:06:44Z</time>
      </trkpt>
      <trkpt lat="41.287294160574675" lon="1.366267651319504">
        <ele>107.40000152587891</ele>
        <time>2018-12-29T12:06:45Z</time>
      </trkpt>
      <trkpt lat="41.287311092019081" lon="1.366302687674761">
        <ele>107.59999847412109</ele>
        <time>2018-12-29T12:06:46Z</time>
      </trkpt>
      <trkpt lat="41.287324000149965" lon="1.366343842819333">
        <ele>107.59999847412109</ele>
        <time>2018-12-29T12:06:47Z</time>
      </trkpt>
      <trkpt lat="41.287350654602051" lon="1.366419782862067">
        <ele>108</ele>
        <time>2018-12-29T12:06:49Z</time>
      </trkpt>
      <trkpt lat="41.287376889958978" lon="1.366490945219994">
        <ele>108.40000152587891</ele>
        <time>2018-12-29T12:06:51Z</time>
      </trkpt>
      <trkpt lat="41.287400694563985" lon="1.366563281044364">
        <ele>108.80000305175781</ele>
        <time>2018-12-29T12:06:53Z</time>
      </trkpt>
      <trkpt lat="41.287419889122248" lon="1.366634191945195">
        <ele>109.40000152587891</ele>
        <time>2018-12-29T12:06:55Z</time>
      </trkpt>
      <trkpt lat="41.287433300167322" lon="1.366709126159549">
        <ele>109.80000305175781</ele>
        <time>2018-12-29T12:06:57Z</time>
      </trkpt>
      <trkpt lat="41.287439670413733" lon="1.366748018190265">
        <ele>110</ele>
        <time>2018-12-29T12:06:58Z</time>
      </trkpt>
      <trkpt lat="41.287447046488523" lon="1.366782803088427">
        <ele>110</ele>
        <time>2018-12-29T12:06:59Z</time>
      </trkpt>
      <trkpt lat="41.287465989589691" lon="1.366855558007956">
        <ele>110.40000152587891</ele>
        <time>2018-12-29T12:07:01Z</time>
      </trkpt>
      <trkpt lat="41.287481160834432" lon="1.366929234936833">
        <ele>110.59999847412109</ele>
        <time>2018-12-29T12:07:03Z</time>
      </trkpt>
      <trkpt lat="41.287497589364648" lon="1.366997882723808">
        <ele>110.80000305175781</ele>
        <time>2018-12-29T12:07:05Z</time>
      </trkpt>
      <trkpt lat="41.287504127249122" lon="1.367033338174224">
        <ele>111</ele>
        <time>2018-12-29T12:07:06Z</time>
      </trkpt>
      <trkpt lat="41.287509743124247" lon="1.367069631814957">
        <ele>111.19999694824219</ele>
        <time>2018-12-29T12:07:07Z</time>
      </trkpt>
      <trkpt lat="41.287527261301875" lon="1.367142302915454">
        <ele>111.59999847412109</ele>
        <time>2018-12-29T12:07:09Z</time>
      </trkpt>
      <trkpt lat="41.287538157775998" lon="1.367179686203599">
        <ele>112</ele>
        <time>2018-12-29T12:07:10Z</time>
      </trkpt>
      <trkpt lat="41.287547880783677" lon="1.367215309292078">
        <ele>112.19999694824219</ele>
        <time>2018-12-29T12:07:11Z</time>
      </trkpt>
      <trkpt lat="41.287569841369987" lon="1.367287477478385">
        <ele>112.40000152587891</ele>
        <time>2018-12-29T12:07:13Z</time>
      </trkpt>
      <trkpt lat="41.287592556327581" lon="1.367354532703757">
        <ele>113</ele>
        <time>2018-12-29T12:07:15Z</time>
      </trkpt>
      <trkpt lat="41.287623653188348" lon="1.367416894063354">
        <ele>113.40000152587891</ele>
        <time>2018-12-29T12:07:17Z</time>
      </trkpt>
      <trkpt lat="41.287649888545275" lon="1.367483530193567">
        <ele>113.40000152587891</ele>
        <time>2018-12-29T12:07:19Z</time>
      </trkpt>
      <trkpt lat="41.287662629038095" lon="1.367516219615936">
        <ele>114</ele>
        <time>2018-12-29T12:07:20Z</time>
      </trkpt>
      <trkpt lat="41.287679392844439" lon="1.367548909038305">
        <ele>114.19999694824219</ele>
        <time>2018-12-29T12:07:21Z</time>
      </trkpt>
      <trkpt lat="41.287721134722233" lon="1.367608169093728">
        <ele>114.59999847412109</ele>
        <time>2018-12-29T12:07:23Z</time>
      </trkpt>
      <trkpt lat="41.28776011057198" lon="1.367654604837298">
        <ele>114.80000305175781</ele>
        <time>2018-12-29T12:07:25Z</time>
      </trkpt>
      <trkpt lat="41.287802774459124" lon="1.367701543495059">
        <ele>115.19999694824219</ele>
        <time>2018-12-29T12:07:27Z</time>
      </trkpt>
      <trkpt lat="41.287848623469472" lon="1.367742782458663">
        <ele>115.40000152587891</ele>
        <time>2018-12-29T12:07:29Z</time>
      </trkpt>
      <trkpt lat="41.287897825241089" lon="1.367786284536123">
        <ele>115.40000152587891</ele>
        <time>2018-12-29T12:07:31Z</time>
      </trkpt>
      <trkpt lat="41.287946524098516" lon="1.36782668530941">
        <ele>116</ele>
        <time>2018-12-29T12:07:33Z</time>
      </trkpt>
      <trkpt lat="41.28797217272222" lon="1.367844790220261">
        <ele>116.40000152587891</ele>
        <time>2018-12-29T12:07:34Z</time>
      </trkpt>
      <trkpt lat="41.287998491898179" lon="1.367860045284033">
        <ele>116.40000152587891</ele>
        <time>2018-12-29T12:07:35Z</time>
      </trkpt>
      <trkpt lat="41.288024727255106" lon="1.36787504889071">
        <ele>116.40000152587891</ele>
        <time>2018-12-29T12:07:36Z</time>
      </trkpt>
      <trkpt lat="41.288051884621382" lon="1.367887621745467">
        <ele>116.59999847412109</ele>
        <time>2018-12-29T12:07:37Z</time>
      </trkpt>
      <trkpt lat="41.288102930411696" lon="1.367910336703062">
        <ele>117.19999694824219</ele>
        <time>2018-12-29T12:07:39Z</time>
      </trkpt>
      <trkpt lat="41.288130758330226" lon="1.367923831567168">
        <ele>117.40000152587891</ele>
        <time>2018-12-29T12:07:40Z</time>
      </trkpt>
      <trkpt lat="41.288157496601343" lon="1.367937158793211">
        <ele>117.59999847412109</ele>
        <time>2018-12-29T12:07:41Z</time>
      </trkpt>
      <trkpt lat="41.288208207115531" lon="1.367961131036282">
        <ele>118</ele>
        <time>2018-12-29T12:07:43Z</time>
      </trkpt>
      <trkpt lat="41.288235448300838" lon="1.367978565394878">
        <ele>118.40000152587891</ele>
        <time>2018-12-29T12:07:44Z</time>
      </trkpt>
      <trkpt lat="41.288261096924543" lon="1.367990132421255">
        <ele>118.59999847412109</ele>
        <time>2018-12-29T12:07:45Z</time>
      </trkpt>
      <trkpt lat="41.288313483819366" lon="1.368010835722089">
        <ele>119.19999694824219</ele>
        <time>2018-12-29T12:07:47Z</time>
      </trkpt>
      <trkpt lat="41.288365786895156" lon="1.368030617013574">
        <ele>119.59999847412109</ele>
        <time>2018-12-29T12:07:49Z</time>
      </trkpt>
      <trkpt lat="41.288391184061766" lon="1.368040340021253">
        <ele>119.80000305175781</ele>
        <time>2018-12-29T12:07:50Z</time>
      </trkpt>
      <trkpt lat="41.288417335599661" lon="1.368051152676344">
        <ele>120</ele>
        <time>2018-12-29T12:07:51Z</time>
      </trkpt>
      <trkpt lat="41.288470476865768" lon="1.368074119091034">
        <ele>120.19999694824219</ele>
        <time>2018-12-29T12:07:53Z</time>
      </trkpt>
      <trkpt lat="41.288522444665432" lon="1.368099935352802">
        <ele>120.59999847412109</ele>
        <time>2018-12-29T12:07:55Z</time>
      </trkpt>
      <trkpt lat="41.288575083017349" lon="1.368121979758143">
        <ele>120.80000305175781</ele>
        <time>2018-12-29T12:07:57Z</time>
      </trkpt>
      <trkpt lat="41.288601234555244" lon="1.368132289499044">
        <ele>120.80000305175781</ele>
        <time>2018-12-29T12:07:58Z</time>
      </trkpt>
      <trkpt lat="41.2886259611696" lon="1.368143269792199">
        <ele>121</ele>
        <time>2018-12-29T12:07:59Z</time>
      </trkpt>
      <trkpt lat="41.288679018616676" lon="1.368162799626589">
        <ele>121.19999694824219</ele>
        <time>2018-12-29T12:08:01Z</time>
      </trkpt>
      <trkpt lat="41.288730902597308" lon="1.368180820718408">
        <ele>121.40000152587891</ele>
        <time>2018-12-29T12:08:03Z</time>
      </trkpt>
      <trkpt lat="41.288781445473433" lon="1.368205463513732">
        <ele>122</ele>
        <time>2018-12-29T12:08:05Z</time>
      </trkpt>
      <trkpt lat="41.288828551769257" lon="1.368225328624249">
        <ele>122.40000152587891</ele>
        <time>2018-12-29T12:08:07Z</time>
      </trkpt>
      <trkpt lat="41.288879094645381" lon="1.368241924792528">
        <ele>122.59999847412109</ele>
        <time>2018-12-29T12:08:09Z</time>
      </trkpt>
      <trkpt lat="41.288933074101806" lon="1.368264304473996">
        <ele>123</ele>
        <time>2018-12-29T12:08:11Z</time>
      </trkpt>
      <trkpt lat="41.288960063830018" lon="1.368274781852961">
        <ele>123.40000152587891</ele>
        <time>2018-12-29T12:08:12Z</time>
      </trkpt>
      <trkpt lat="41.288986215367913" lon="1.368286432698369">
        <ele>124</ele>
        <time>2018-12-29T12:08:13Z</time>
      </trkpt>
      <trkpt lat="41.289011361077428" lon="1.368297412991524">
        <ele>124.40000152587891</ele>
        <time>2018-12-29T12:08:14Z</time>
      </trkpt>
      <trkpt lat="41.289036339148879" lon="1.368308058008552">
        <ele>124.40000152587891</ele>
        <time>2018-12-29T12:08:15Z</time>
      </trkpt>
      <trkpt lat="41.289085708558559" lon="1.368328342214227">
        <ele>124.40000152587891</ele>
        <time>2018-12-29T12:08:17Z</time>
      </trkpt>
      <trkpt lat="41.289138346910477" lon="1.368346028029919">
        <ele>125</ele>
        <time>2018-12-29T12:08:19Z</time>
      </trkpt>
      <trkpt lat="41.289194086566567" lon="1.368371592834592">
        <ele>125.59999847412109</ele>
        <time>2018-12-29T12:08:21Z</time>
      </trkpt>
      <trkpt lat="41.289248233661056" lon="1.368397157639265">
        <ele>125.59999847412109</ele>
        <time>2018-12-29T12:08:23Z</time>
      </trkpt>
      <trkpt lat="41.289298692718148" lon="1.368430685251951">
        <ele>125.80000305175781</ele>
        <time>2018-12-29T12:08:25Z</time>
      </trkpt>
      <trkpt lat="41.289352253079414" lon="1.368461614474654">
        <ele>126.19999694824219</ele>
        <time>2018-12-29T12:08:27Z</time>
      </trkpt>
      <trkpt lat="41.289401622489095" lon="1.368489945307374">
        <ele>126.59999847412109</ele>
        <time>2018-12-29T12:08:29Z</time>
      </trkpt>
      <trkpt lat="41.289425427094102" lon="1.368505451828241">
        <ele>126.80000305175781</ele>
        <time>2018-12-29T12:08:30Z</time>
      </trkpt>
      <trkpt lat="41.289450153708458" lon="1.368522802367806">
        <ele>126.80000305175781</ele>
        <time>2018-12-29T12:08:31Z</time>
      </trkpt>
      <trkpt lat="41.289474880322814" lon="1.368540991097689">
        <ele>127</ele>
        <time>2018-12-29T12:08:32Z</time>
      </trkpt>
      <trkpt lat="41.289499523118138" lon="1.368558760732412">
        <ele>127</ele>
        <time>2018-12-29T12:08:33Z</time>
      </trkpt>
      <trkpt lat="41.289547802880406" lon="1.368592958897352">
        <ele>127.40000152587891</ele>
        <time>2018-12-29T12:08:35Z</time>
      </trkpt>
      <trkpt lat="41.289595076814294" lon="1.368627324700356">
        <ele>127.80000305175781</ele>
        <time>2018-12-29T12:08:37Z</time>
      </trkpt>
      <trkpt lat="41.289641177281737" lon="1.368659259751439">
        <ele>128.39999389648437</ele>
        <time>2018-12-29T12:08:39Z</time>
      </trkpt>
      <trkpt lat="41.289687110111117" lon="1.368692955002189">
        <ele>129</ele>
        <time>2018-12-29T12:08:41Z</time>
      </trkpt>
      <trkpt lat="41.28970923833549" lon="1.368711981922388">
        <ele>129.19999694824219</ele>
        <time>2018-12-29T12:08:42Z</time>
      </trkpt>
      <trkpt lat="41.289732959121466" lon="1.368730589747429">
        <ele>129.19999694824219</ele>
        <time>2018-12-29T12:08:43Z</time>
      </trkpt>
      <trkpt lat="41.28978056833148" lon="1.368764620274305">
        <ele>129.39999389648437</ele>
        <time>2018-12-29T12:08:45Z</time>
      </trkpt>
      <trkpt lat="41.289829099550843" lon="1.368799237534404">
        <ele>129.80000305175781</ele>
        <time>2018-12-29T12:08:47Z</time>
      </trkpt>
      <trkpt lat="41.289852233603597" lon="1.368816001340747">
        <ele>130</ele>
        <time>2018-12-29T12:08:48Z</time>
      </trkpt>
      <trkpt lat="41.289875200018287" lon="1.368832094594836">
        <ele>130.19999694824219</ele>
        <time>2018-12-29T12:08:49Z</time>
      </trkpt>
      <trkpt lat="41.289916438981891" lon="1.368870818987489">
        <ele>130.39999389648437</ele>
        <time>2018-12-29T12:08:51Z</time>
      </trkpt>
      <trkpt lat="41.2899349629879" lon="1.368891606107354">
        <ele>130.60000610351562</ele>
        <time>2018-12-29T12:08:52Z</time>
      </trkpt>
      <trkpt lat="41.289954828098416" lon="1.368912728503346">
        <ele>130.60000610351562</ele>
        <time>2018-12-29T12:08:53Z</time>
      </trkpt>
      <trkpt lat="41.289994390681386" lon="1.368957906961441">
        <ele>131.19999694824219</ele>
        <time>2018-12-29T12:08:55Z</time>
      </trkpt>
      <trkpt lat="41.29003319889307" lon="1.36900719255209">
        <ele>131.60000610351562</ele>
        <time>2018-12-29T12:08:57Z</time>
      </trkpt>
      <trkpt lat="41.290066139772534" lon="1.369057567790151">
        <ele>132</ele>
        <time>2018-12-29T12:08:59Z</time>
      </trkpt>
      <trkpt lat="41.290081227198243" lon="1.369083132594824">
        <ele>132.19999694824219</ele>
        <time>2018-12-29T12:09:00Z</time>
      </trkpt>
      <trkpt lat="41.29009623080492" lon="1.369107691571116">
        <ele>132.39999389648437</ele>
        <time>2018-12-29T12:09:01Z</time>
      </trkpt>
      <trkpt lat="41.290124729275703" lon="1.369159994646907">
        <ele>132.80000305175781</ele>
        <time>2018-12-29T12:09:03Z</time>
      </trkpt>
      <trkpt lat="41.290152557194233" lon="1.36921975761652">
        <ele>132.80000305175781</ele>
        <time>2018-12-29T12:09:05Z</time>
      </trkpt>
      <trkpt lat="41.290178121998906" lon="1.369283627718687">
        <ele>133</ele>
        <time>2018-12-29T12:09:07Z</time>
      </trkpt>
      <trkpt lat="41.290202932432294" lon="1.36934925802052">
        <ele>133.19999694824219</ele>
        <time>2018-12-29T12:09:09Z</time>
      </trkpt>
      <trkpt lat="41.290223719552159" lon="1.369418995454907">
        <ele>133.60000610351562</ele>
        <time>2018-12-29T12:09:11Z</time>
      </trkpt>
      <trkpt lat="41.290243333205581" lon="1.369496192783117">
        <ele>133.80000305175781</ele>
        <time>2018-12-29T12:09:13Z</time>
      </trkpt>
      <trkpt lat="41.290268059819937" lon="1.369577748700976">
        <ele>134.19999694824219</ele>
        <time>2018-12-29T12:09:15Z</time>
      </trkpt>
      <trkpt lat="41.290278788655996" lon="1.369619658216834">
        <ele>134.39999389648437</ele>
        <time>2018-12-29T12:09:16Z</time>
      </trkpt>
      <trkpt lat="41.290290607139468" lon="1.36966198682785">
        <ele>134.60000610351562</ele>
        <time>2018-12-29T12:09:17Z</time>
      </trkpt>
      <trkpt lat="41.290310891345143" lon="1.369749074801803">
        <ele>135.19999694824219</ele>
        <time>2018-12-29T12:09:19Z</time>
      </trkpt>
      <trkpt lat="41.29031902179122" lon="1.369788218289614">
        <ele>135.39999389648437</ele>
        <time>2018-12-29T12:09:20Z</time>
      </trkpt>
      <trkpt lat="41.290328241884708" lon="1.369825517758727">
        <ele>135.39999389648437</ele>
        <time>2018-12-29T12:09:21Z</time>
      </trkpt>
      <trkpt lat="41.290349196642637" lon="1.369900787249208">
        <ele>135.39999389648437</ele>
        <time>2018-12-29T12:09:23Z</time>
      </trkpt>
      <trkpt lat="41.290372246876359" lon="1.369976894930005">
        <ele>136</ele>
        <time>2018-12-29T12:09:25Z</time>
      </trkpt>
      <trkpt lat="41.290383310988545" lon="1.370016122236848">
        <ele>136</ele>
        <time>2018-12-29T12:09:26Z</time>
      </trkpt>
      <trkpt lat="41.29039186052978" lon="1.37005778029561">
        <ele>136.19999694824219</ele>
        <time>2018-12-29T12:09:27Z</time>
      </trkpt>
      <trkpt lat="41.290409043431282" lon="1.370136654004455">
        <ele>136.39999389648437</ele>
        <time>2018-12-29T12:09:29Z</time>
      </trkpt>
      <trkpt lat="41.290426896885037" lon="1.370212091132999">
        <ele>136.60000610351562</ele>
        <time>2018-12-29T12:09:31Z</time>
      </trkpt>
      <trkpt lat="41.290445923805237" lon="1.370288282632828">
        <ele>137</ele>
        <time>2018-12-29T12:09:33Z</time>
      </trkpt>
      <trkpt lat="41.290462603792548" lon="1.370363803580403">
        <ele>137.39999389648437</ele>
        <time>2018-12-29T12:09:35Z</time>
      </trkpt>
      <trkpt lat="41.290481965988874" lon="1.370443180203438">
        <ele>137.60000610351562</ele>
        <time>2018-12-29T12:09:37Z</time>
      </trkpt>
      <trkpt lat="41.290490264073014" lon="1.370483497157693">
        <ele>137.80000305175781</ele>
        <time>2018-12-29T12:09:38Z</time>
      </trkpt>
      <trkpt lat="41.290498059242964" lon="1.370525322854519">
        <ele>138</ele>
        <time>2018-12-29T12:09:39Z</time>
      </trkpt>
      <trkpt lat="41.290511721745133" lon="1.37060696259141">
        <ele>138.39999389648437</ele>
        <time>2018-12-29T12:09:41Z</time>
      </trkpt>
      <trkpt lat="41.290526557713747" lon="1.370683573186398">
        <ele>138.60000610351562</ele>
        <time>2018-12-29T12:09:43Z</time>
      </trkpt>
      <trkpt lat="41.290532844141126" lon="1.370720621198416">
        <ele>138.80000305175781</ele>
        <time>2018-12-29T12:09:44Z</time>
      </trkpt>
      <trkpt lat="41.290538962930441" lon="1.3707594294101">
        <ele>138.80000305175781</ele>
        <time>2018-12-29T12:09:45Z</time>
      </trkpt>
      <trkpt lat="41.290552290156484" lon="1.370844086632133">
        <ele>139.39999389648437</ele>
        <time>2018-12-29T12:09:47Z</time>
      </trkpt>
      <trkpt lat="41.290571233257651" lon="1.370933521538973">
        <ele>139.39999389648437</ele>
        <time>2018-12-29T12:09:49Z</time>
      </trkpt>
      <trkpt lat="41.290586907416582" lon="1.371030164882541">
        <ele>139.39999389648437</ele>
        <time>2018-12-29T12:09:51Z</time>
      </trkpt>
      <trkpt lat="41.290595624595881" lon="1.371076349169016">
        <ele>139.39999389648437</ele>
        <time>2018-12-29T12:09:52Z</time>
      </trkpt>
      <trkpt lat="41.290604677051306" lon="1.371122784912586">
        <ele>139.60000610351562</ele>
        <time>2018-12-29T12:09:53Z</time>
      </trkpt>
      <trkpt lat="41.290617836639285" lon="1.371217835694552">
        <ele>139.80000305175781</ele>
        <time>2018-12-29T12:09:55Z</time>
      </trkpt>
      <trkpt lat="41.290632337331772" lon="1.371314227581024">
        <ele>140</ele>
        <time>2018-12-29T12:09:57Z</time>
      </trkpt>
      <trkpt lat="41.290650274604559" lon="1.371412044391036">
        <ele>140.19999694824219</ele>
        <time>2018-12-29T12:09:59Z</time>
      </trkpt>
      <trkpt lat="41.290668211877346" lon="1.371511286124587">
        <ele>140.39999389648437</ele>
        <time>2018-12-29T12:10:01Z</time>
      </trkpt>
      <trkpt lat="41.2906757555902" lon="1.371557721868157">
        <ele>140.39999389648437</ele>
        <time>2018-12-29T12:10:02Z</time>
      </trkpt>
      <trkpt lat="41.290682964026928" lon="1.371603487059474">
        <ele>140.39999389648437</ele>
        <time>2018-12-29T12:10:03Z</time>
      </trkpt>
      <trkpt lat="41.290698386728764" lon="1.371696274727583">
        <ele>141.19999694824219</ele>
        <time>2018-12-29T12:10:05Z</time>
      </trkpt>
      <trkpt lat="41.290713222697377" lon="1.371793588623405">
        <ele>141.80000305175781</ele>
        <time>2018-12-29T12:10:07Z</time>
      </trkpt>
      <trkpt lat="41.290733590722084" lon="1.371893836185336">
        <ele>141.80000305175781</ele>
        <time>2018-12-29T12:10:09Z</time>
      </trkpt>
      <trkpt lat="41.290754294022918" lon="1.371996598318219">
        <ele>142</ele>
        <time>2018-12-29T12:10:11Z</time>
      </trkpt>
      <trkpt lat="41.290763011202216" lon="1.372048985213041">
        <ele>142</ele>
        <time>2018-12-29T12:10:12Z</time>
      </trkpt>
      <trkpt lat="41.290771812200546" lon="1.372100282460451">
        <ele>142</ele>
        <time>2018-12-29T12:10:13Z</time>
      </trkpt>
      <trkpt lat="41.290781870484352" lon="1.372151831164956">
        <ele>142.19999694824219</ele>
        <time>2018-12-29T12:10:14Z</time>
      </trkpt>
      <trkpt lat="41.290790587663651" lon="1.372204553335905">
        <ele>142.39999389648437</ele>
        <time>2018-12-29T12:10:15Z</time>
      </trkpt>
      <trkpt lat="41.290807267650962" lon="1.372308824211359">
        <ele>142.80000305175781</ele>
        <time>2018-12-29T12:10:17Z</time>
      </trkpt>
      <trkpt lat="41.290826378390193" lon="1.372415609657764">
        <ele>143.39999389648438</ele>
        <time>2018-12-29T12:10:19Z</time>
      </trkpt>
      <trkpt lat="41.290845740586519" lon="1.372520970180631">
        <ele>143.80000305175781</ele>
        <time>2018-12-29T12:10:21Z</time>
      </trkpt>
      <trkpt lat="41.290855295956135" lon="1.372574865818024">
        <ele>143.80000305175781</ele>
        <time>2018-12-29T12:10:22Z</time>
      </trkpt>
      <trkpt lat="41.290864264592528" lon="1.37262599542737">
        <ele>143.60000610351562</ele>
        <time>2018-12-29T12:10:23Z</time>
      </trkpt>
      <trkpt lat="41.290883291512728" lon="1.372730769217014">
        <ele>143.60000610351562</ele>
        <time>2018-12-29T12:10:25Z</time>
      </trkpt>
      <trkpt lat="41.290901228785515" lon="1.37283562682569">
        <ele>143.39999389648438</ele>
        <time>2018-12-29T12:10:27Z</time>
      </trkpt>
      <trkpt lat="41.290922183543444" lon="1.372942496091127">
        <ele>143.80000305175781</ele>
        <time>2018-12-29T12:10:29Z</time>
      </trkpt>
      <trkpt lat="41.290945066139102" lon="1.37305062264204">
        <ele>144.19999694824219</ele>
        <time>2018-12-29T12:10:31Z</time>
      </trkpt>
      <trkpt lat="41.290971385315061" lon="1.373157240450382">
        <ele>144</ele>
        <time>2018-12-29T12:10:33Z</time>
      </trkpt>
      <trkpt lat="41.290998626500368" lon="1.373260673135519">
        <ele>143.80000305175781</ele>
        <time>2018-12-29T12:10:35Z</time>
      </trkpt>
      <trkpt lat="41.291025197133422" lon="1.373363016173244">
        <ele>144</ele>
        <time>2018-12-29T12:10:37Z</time>
      </trkpt>
      <trkpt lat="41.291045481339097" lon="1.373470220714808">
        <ele>144.19999694824219</ele>
        <time>2018-12-29T12:10:39Z</time>
      </trkpt>
      <trkpt lat="41.291069285944104" lon="1.37357390485704">
        <ele>144</ele>
        <time>2018-12-29T12:10:41Z</time>
      </trkpt>
      <trkpt lat="41.291077081114054" lon="1.37362620793283">
        <ele>144</ele>
        <time>2018-12-29T12:10:42Z</time>
      </trkpt>
      <trkpt lat="41.29107590764761" lon="1.373679349198937">
        <ele>144</ele>
        <time>2018-12-29T12:10:43Z</time>
      </trkpt>
      <trkpt lat="41.291069453582168" lon="1.37378110550344">
        <ele>144</ele>
        <time>2018-12-29T12:10:45Z</time>
      </trkpt>
      <trkpt lat="41.291073728352785" lon="1.37382946908474">
        <ele>144</ele>
        <time>2018-12-29T12:10:46Z</time>
      </trkpt>
      <trkpt lat="41.291083116084337" lon="1.3738764077425">
        <ele>144.19999694824219</ele>
        <time>2018-12-29T12:10:47Z</time>
      </trkpt>
      <trkpt lat="41.291102143004537" lon="1.373962657526135">
        <ele>144.19999694824219</ele>
        <time>2018-12-29T12:10:49Z</time>
      </trkpt>
      <trkpt lat="41.291118487715721" lon="1.374039938673377">
        <ele>144.19999694824219</ele>
        <time>2018-12-29T12:10:51Z</time>
      </trkpt>
      <trkpt lat="41.291129300370812" lon="1.3740767352283">
        <ele>144.19999694824219</ele>
        <time>2018-12-29T12:10:52Z</time>
      </trkpt>
      <trkpt lat="41.29113600589335" lon="1.374115375801921">
        <ele>144.19999694824219</ele>
        <time>2018-12-29T12:10:53Z</time>
      </trkpt>
      <trkpt lat="41.291142795234919" lon="1.374192405492067">
        <ele>144.39999389648437</ele>
        <time>2018-12-29T12:10:55Z</time>
      </trkpt>
      <trkpt lat="41.291147489100695" lon="1.37421646155417">
        <ele>144.60000610351562</ele>
        <time>2018-12-29T12:10:57Z</time>
      </trkpt>
      <trkpt lat="41.291154948994517" lon="1.374250492081046">
        <ele>144.80000305175781</ele>
        <time>2018-12-29T12:11:12Z</time>
      </trkpt>
      <trkpt lat="41.291162073612213" lon="1.374304555356503">
        <ele>144.80000305175781</ele>
        <time>2018-12-29T12:11:14Z</time>
      </trkpt>
      <trkpt lat="41.291174227371812" lon="1.37437772937119">
        <ele>144.80000305175781</ele>
        <time>2018-12-29T12:11:16Z</time>
      </trkpt>
      <trkpt lat="41.291188728064299" lon="1.374455597251654">
        <ele>144.80000305175781</ele>
        <time>2018-12-29T12:11:18Z</time>
      </trkpt>
      <trkpt lat="41.291208509355783" lon="1.374542014673352">
        <ele>144.80000305175781</ele>
        <time>2018-12-29T12:11:20Z</time>
      </trkpt>
      <trkpt lat="41.291227620095015" lon="1.374634969979525">
        <ele>144.80000305175781</ele>
        <time>2018-12-29T12:11:22Z</time>
      </trkpt>
      <trkpt lat="41.291244300082326" lon="1.374733122065663">
        <ele>145</ele>
        <time>2018-12-29T12:11:24Z</time>
      </trkpt>
      <trkpt lat="41.291260477155447" lon="1.374831609427929">
        <ele>145.19999694824219</ele>
        <time>2018-12-29T12:11:26Z</time>
      </trkpt>
      <trkpt lat="41.291277073323727" lon="1.374927582219243">
        <ele>145</ele>
        <time>2018-12-29T12:11:28Z</time>
      </trkpt>
      <trkpt lat="41.291285203769803" lon="1.374977035447955">
        <ele>145</ele>
        <time>2018-12-29T12:11:29Z</time>
      </trkpt>
      <trkpt lat="41.291292076930404" lon="1.375026572495699">
        <ele>145</ele>
        <time>2018-12-29T12:11:30Z</time>
      </trkpt>
      <trkpt lat="41.291313702240586" lon="1.375121036544442">
        <ele>145</ele>
        <time>2018-12-29T12:11:32Z</time>
      </trkpt>
      <trkpt lat="41.291331723332405" lon="1.375206951051951">
        <ele>145</ele>
        <time>2018-12-29T12:11:34Z</time>
      </trkpt>
      <trkpt lat="41.291341111063957" lon="1.375298816710711">
        <ele>145.19999694824219</ele>
        <time>2018-12-29T12:11:36Z</time>
      </trkpt>
      <trkpt lat="41.291350917890668" lon="1.375383138656616">
        <ele>145.39999389648437</ele>
        <time>2018-12-29T12:11:38Z</time>
      </trkpt>
      <trkpt lat="41.291362568736076" lon="1.375471651554108">
        <ele>145.39999389648437</ele>
        <time>2018-12-29T12:11:40Z</time>
      </trkpt>
      <trkpt lat="41.291379332542419" lon="1.375562427565455">
        <ele>145.60000610351562</ele>
        <time>2018-12-29T12:11:42Z</time>
      </trkpt>
      <trkpt lat="41.291399030014873" lon="1.375653203576803">
        <ele>145.60000610351562</ele>
        <time>2018-12-29T12:11:44Z</time>
      </trkpt>
      <trkpt lat="41.291407663375139" lon="1.375700812786818">
        <ele>145.60000610351562</ele>
        <time>2018-12-29T12:11:45Z</time>
      </trkpt>
      <trkpt lat="41.291415626183152" lon="1.375748086720705">
        <ele>145.60000610351562</ele>
        <time>2018-12-29T12:11:46Z</time>
      </trkpt>
      <trkpt lat="41.291423253715038" lon="1.375795025378466">
        <ele>145.60000610351562</ele>
        <time>2018-12-29T12:11:47Z</time>
      </trkpt>
      <trkpt lat="41.291431384161115" lon="1.375842383131385">
        <ele>145.60000610351562</ele>
        <time>2018-12-29T12:11:48Z</time>
      </trkpt>
      <trkpt lat="41.291447561234236" lon="1.375936176627874">
        <ele>145.60000610351562</ele>
        <time>2018-12-29T12:11:50Z</time>
      </trkpt>
      <trkpt lat="41.291463738307357" lon="1.376030808314681">
        <ele>145.80000305175781</ele>
        <time>2018-12-29T12:11:52Z</time>
      </trkpt>
      <trkpt lat="41.291484693065286" lon="1.376129630953074">
        <ele>146</ele>
        <time>2018-12-29T12:11:54Z</time>
      </trkpt>
      <trkpt lat="41.2915064021945" lon="1.376227783039212">
        <ele>145.80000305175781</ele>
        <time>2018-12-29T12:11:56Z</time>
      </trkpt>
      <trkpt lat="41.291520399972796" lon="1.376324258744717">
        <ele>146</ele>
        <time>2018-12-29T12:11:58Z</time>
      </trkpt>
      <trkpt lat="41.291532134637237" lon="1.376419812440872">
        <ele>146.19999694824219</ele>
        <time>2018-12-29T12:12:00Z</time>
      </trkpt>
      <trkpt lat="41.291548144072294" lon="1.376516204327345">
        <ele>146.19999694824219</ele>
        <time>2018-12-29T12:12:02Z</time>
      </trkpt>
      <trkpt lat="41.291565662249923" lon="1.376616032794118">
        <ele>146.19999694824219</ele>
        <time>2018-12-29T12:12:04Z</time>
      </trkpt>
      <trkpt lat="41.291583180427551" lon="1.376718292012811">
        <ele>146.60000610351562</ele>
        <time>2018-12-29T12:12:06Z</time>
      </trkpt>
      <trkpt lat="41.291599106043577" lon="1.37682088650763">
        <ele>146.19999694824219</ele>
        <time>2018-12-29T12:12:08Z</time>
      </trkpt>
      <trkpt lat="41.291617630049586" lon="1.376923397183418">
        <ele>146.80000305175781</ele>
        <time>2018-12-29T12:12:10Z</time>
      </trkpt>
      <trkpt lat="41.291634729132056" lon="1.377026410773397">
        <ele>147</ele>
        <time>2018-12-29T12:12:12Z</time>
      </trkpt>
      <trkpt lat="41.29164763726294" lon="1.377131855115295">
        <ele>147</ele>
        <time>2018-12-29T12:12:14Z</time>
      </trkpt>
      <trkpt lat="41.291656605899334" lon="1.377242580056191">
        <ele>147</ele>
        <time>2018-12-29T12:12:16Z</time>
      </trkpt>
      <trkpt lat="41.291663479059935" lon="1.377356825396419">
        <ele>147</ele>
        <time>2018-12-29T12:12:18Z</time>
      </trkpt>
      <trkpt lat="41.29165593534708" lon="1.377469478175044">
        <ele>146.80000305175781</ele>
        <time>2018-12-29T12:12:20Z</time>
      </trkpt>
      <trkpt lat="41.29164663143456" lon="1.377527816221118">
        <ele>147</ele>
        <time>2018-12-29T12:12:21Z</time>
      </trkpt>
      <trkpt lat="41.291633220389485" lon="1.377586657181382">
        <ele>147</ele>
        <time>2018-12-29T12:12:22Z</time>
      </trkpt>
      <trkpt lat="41.291615618392825" lon="1.377644408494234">
        <ele>147</ele>
        <time>2018-12-29T12:12:23Z</time>
      </trkpt>
      <trkpt lat="41.291599273681641" lon="1.377700986340642">
        <ele>147</ele>
        <time>2018-12-29T12:12:24Z</time>
      </trkpt>
      <trkpt lat="41.291564153507352" lon="1.377804921939969">
        <ele>146.80000305175781</ele>
        <time>2018-12-29T12:12:26Z</time>
      </trkpt>
      <trkpt lat="41.29154353402555" lon="1.377857560291886">
        <ele>146.80000305175781</ele>
        <time>2018-12-29T12:12:27Z</time>
      </trkpt>
      <trkpt lat="41.291522579267621" lon="1.377910785377026">
        <ele>146.80000305175781</ele>
        <time>2018-12-29T12:12:28Z</time>
      </trkpt>
      <trkpt lat="41.291481591761112" lon="1.378016648814082">
        <ele>147</ele>
        <time>2018-12-29T12:12:30Z</time>
      </trkpt>
      <trkpt lat="41.291442951187491" lon="1.378121674060822">
        <ele>146.80000305175781</ele>
        <time>2018-12-29T12:12:32Z</time>
      </trkpt>
      <trkpt lat="41.291399784386158" lon="1.378223598003388">
        <ele>146.60000610351562</ele>
        <time>2018-12-29T12:12:34Z</time>
      </trkpt>
      <trkpt lat="41.2913769017905" lon="1.378273721784353">
        <ele>146.60000610351562</ele>
        <time>2018-12-29T12:12:35Z</time>
      </trkpt>
      <trkpt lat="41.291355108842254" lon="1.37832585722208">
        <ele>146.60000610351562</ele>
        <time>2018-12-29T12:12:36Z</time>
      </trkpt>
      <trkpt lat="41.291315546259284" lon="1.378441611304879">
        <ele>146.60000610351562</ele>
        <time>2018-12-29T12:12:38Z</time>
      </trkpt>
      <trkpt lat="41.291273720562458" lon="1.378550743684173">
        <ele>146.19999694824219</ele>
        <time>2018-12-29T12:12:40Z</time>
      </trkpt>
      <trkpt lat="41.291229799389839" lon="1.378655852749944">
        <ele>146.19999694824219</ele>
        <time>2018-12-29T12:12:42Z</time>
      </trkpt>
      <trkpt lat="41.291209347546101" lon="1.378705641254783">
        <ele>146.39999389648437</ele>
        <time>2018-12-29T12:12:43Z</time>
      </trkpt>
      <trkpt lat="41.291189314797521" lon="1.378754256293178">
        <ele>146.39999389648437</ele>
        <time>2018-12-29T12:12:44Z</time>
      </trkpt>
      <trkpt lat="41.291144723072648" lon="1.378856766968966">
        <ele>146.80000305175781</ele>
        <time>2018-12-29T12:12:46Z</time>
      </trkpt>
      <trkpt lat="41.291101975366473" lon="1.378958020359278">
        <ele>147.19999694824219</ele>
        <time>2018-12-29T12:12:48Z</time>
      </trkpt>
      <trkpt lat="41.291060904040933" lon="1.379050724208355">
        <ele>147.39999389648437</ele>
        <time>2018-12-29T12:12:50Z</time>
      </trkpt>
      <trkpt lat="41.291040536016226" lon="1.379094896838069">
        <ele>147.39999389648437</ele>
        <time>2018-12-29T12:12:51Z</time>
      </trkpt>
      <trkpt lat="41.291022095829248" lon="1.379139320924878">
        <ele>147.60000610351562</ele>
        <time>2018-12-29T12:12:52Z</time>
      </trkpt>
      <trkpt lat="41.29100407473743" lon="1.379185672849417">
        <ele>147.80000305175781</ele>
        <time>2018-12-29T12:12:53Z</time>
      </trkpt>
      <trkpt lat="41.29098697565496" lon="1.379231689497829">
        <ele>147.80000305175781</ele>
        <time>2018-12-29T12:12:54Z</time>
      </trkpt>
      <trkpt lat="41.290952526032925" lon="1.379325399175286">
        <ele>148</ele>
        <time>2018-12-29T12:12:56Z</time>
      </trkpt>
      <trkpt lat="41.290913801640272" lon="1.379420952871442">
        <ele>148.60000610351562</ele>
        <time>2018-12-29T12:12:58Z</time>
      </trkpt>
      <trkpt lat="41.290894774720073" lon="1.379465041682124">
        <ele>148.80000305175781</ele>
        <time>2018-12-29T12:12:59Z</time>
      </trkpt>
      <trkpt lat="41.29087558016181" lon="1.379507621750236">
        <ele>149</ele>
        <time>2018-12-29T12:13:00Z</time>
      </trkpt>
      <trkpt lat="41.290858229622245" lon="1.37954886071384">
        <ele>149.19999694824219</ele>
        <time>2018-12-29T12:13:01Z</time>
      </trkpt>
      <trkpt lat="41.290842304006219" lon="1.379589512944222">
        <ele>149.39999389648437</ele>
        <time>2018-12-29T12:13:02Z</time>
      </trkpt>
      <trkpt lat="41.29081791266799" lon="1.379671907052398">
        <ele>149.80000305175781</ele>
        <time>2018-12-29T12:13:04Z</time>
      </trkpt>
      <trkpt lat="41.290793856605887" lon="1.379749188199639">
        <ele>150.19999694824219</ele>
        <time>2018-12-29T12:13:06Z</time>
      </trkpt>
      <trkpt lat="41.290772566571832" lon="1.379824290052056">
        <ele>150.80000305175781</ele>
        <time>2018-12-29T12:13:08Z</time>
      </trkpt>
      <trkpt lat="41.29076368175447" lon="1.379864020273089">
        <ele>151</ele>
        <time>2018-12-29T12:13:09Z</time>
      </trkpt>
      <trkpt lat="41.290753539651632" lon="1.379904504865408">
        <ele>151.19999694824219</ele>
        <time>2018-12-29T12:13:10Z</time>
      </trkpt>
      <trkpt lat="41.290735267102718" lon="1.379973907023668">
        <ele>151.60000610351562</ele>
        <time>2018-12-29T12:13:12Z</time>
      </trkpt>
      <trkpt lat="41.290722694247961" lon="1.380045656114817">
        <ele>151.80000305175781</ele>
        <time>2018-12-29T12:13:14Z</time>
      </trkpt>
      <trkpt lat="41.290716575458646" lon="1.380082201212645">
        <ele>152</ele>
        <time>2018-12-29T12:13:15Z</time>
      </trkpt>
      <trkpt lat="41.290710875764489" lon="1.380118243396282">
        <ele>152</ele>
        <time>2018-12-29T12:13:16Z</time>
      </trkpt>
      <trkpt lat="41.290700817480683" lon="1.38019435107708">
        <ele>152.19999694824219</ele>
        <time>2018-12-29T12:13:18Z</time>
      </trkpt>
      <trkpt lat="41.290687574073672" lon="1.380273979157209">
        <ele>152.60000610351562</ele>
        <time>2018-12-29T12:13:20Z</time>
      </trkpt>
      <trkpt lat="41.29066938534379" lon="1.380349081009626">
        <ele>153.19999694824219</ele>
        <time>2018-12-29T12:13:22Z</time>
      </trkpt>
      <trkpt lat="41.290657818317413" lon="1.3804298825562">
        <ele>153.60000610351562</ele>
        <time>2018-12-29T12:13:24Z</time>
      </trkpt>
      <trkpt lat="41.290649520233274" lon="1.38051345013082">
        <ele>153.80000305175781</ele>
        <time>2018-12-29T12:13:26Z</time>
      </trkpt>
      <trkpt lat="41.290643904358149" lon="1.380599951371551">
        <ele>154</ele>
        <time>2018-12-29T12:13:28Z</time>
      </trkpt>
      <trkpt lat="41.290640886873007" lon="1.380642028525472">
        <ele>154.19999694824219</ele>
        <time>2018-12-29T12:13:29Z</time>
      </trkpt>
      <trkpt lat="41.290639713406563" lon="1.380682429298759">
        <ele>154.19999694824219</ele>
        <time>2018-12-29T12:13:30Z</time>
      </trkpt>
      <trkpt lat="41.290636695921421" lon="1.380762308835983">
        <ele>154.60000610351562</ele>
        <time>2018-12-29T12:13:32Z</time>
      </trkpt>
      <trkpt lat="41.290632672607899" lon="1.380801955237985">
        <ele>154.80000305175781</ele>
        <time>2018-12-29T12:13:33Z</time>
      </trkpt>
      <trkpt lat="41.290627811104059" lon="1.380842858925462">
        <ele>155</ele>
        <time>2018-12-29T12:13:34Z</time>
      </trkpt>
      <trkpt lat="41.290617920458317" lon="1.380918966606259">
        <ele>155.39999389648437</ele>
        <time>2018-12-29T12:13:36Z</time>
      </trkpt>
      <trkpt lat="41.290609538555145" lon="1.380993900820613">
        <ele>155.80000305175781</ele>
        <time>2018-12-29T12:13:38Z</time>
      </trkpt>
      <trkpt lat="41.290596714243293" lon="1.381064392626286">
        <ele>156</ele>
        <time>2018-12-29T12:13:40Z</time>
      </trkpt>
      <trkpt lat="41.290586069226265" lon="1.381137650460005">
        <ele>156</ele>
        <time>2018-12-29T12:13:42Z</time>
      </trkpt>
      <trkpt lat="41.290580620989203" lon="1.38117503374815">
        <ele>156.19999694824219</ele>
        <time>2018-12-29T12:13:43Z</time>
      </trkpt>
      <trkpt lat="41.290576932951808" lon="1.381213674321771">
        <ele>156.39999389648437</ele>
        <time>2018-12-29T12:13:44Z</time>
      </trkpt>
      <trkpt lat="41.290566455572844" lon="1.381295984610915">
        <ele>157.19999694824219</ele>
        <time>2018-12-29T12:13:46Z</time>
      </trkpt>
      <trkpt lat="41.29055748693645" lon="1.381378211081028">
        <ele>157.39999389648437</ele>
        <time>2018-12-29T12:13:48Z</time>
      </trkpt>
      <trkpt lat="41.290555978193879" lon="1.3814193662256">
        <ele>157.39999389648437</ele>
        <time>2018-12-29T12:13:49Z</time>
      </trkpt>
      <trkpt lat="41.290552709251642" lon="1.381460102275014">
        <ele>157.60000610351562</ele>
        <time>2018-12-29T12:13:50Z</time>
      </trkpt>
      <trkpt lat="41.29053988493979" lon="1.381541239097714">
        <ele>157.80000305175781</ele>
        <time>2018-12-29T12:13:52Z</time>
      </trkpt>
      <trkpt lat="41.290527395904064" lon="1.381620028987527">
        <ele>158.19999694824219</ele>
        <time>2018-12-29T12:13:54Z</time>
      </trkpt>
      <trkpt lat="41.290524126961827" lon="1.381658166646957">
        <ele>158.39999389648437</ele>
        <time>2018-12-29T12:13:55Z</time>
      </trkpt>
      <trkpt lat="41.290521612390876" lon="1.381694125011563">
        <ele>158.60000610351562</ele>
        <time>2018-12-29T12:13:56Z</time>
      </trkpt>
      <trkpt lat="41.290517672896385" lon="1.38176579028368">
        <ele>159</ele>
        <time>2018-12-29T12:13:58Z</time>
      </trkpt>
      <trkpt lat="41.290513817220926" lon="1.381803927943111">
        <ele>159.19999694824219</ele>
        <time>2018-12-29T12:13:59Z</time>
      </trkpt>
      <trkpt lat="41.290510213002563" lon="1.381839718669653">
        <ele>159.39999389648437</ele>
        <time>2018-12-29T12:14:00Z</time>
      </trkpt>
      <trkpt lat="41.290504513308406" lon="1.381875844672322">
        <ele>159.60000610351562</ele>
        <time>2018-12-29T12:14:01Z</time>
      </trkpt>
      <trkpt lat="41.29049981944263" lon="1.381914066150785">
        <ele>159.80000305175781</ele>
        <time>2018-12-29T12:14:02Z</time>
      </trkpt>
      <trkpt lat="41.290494622662663" lon="1.381991179659963">
        <ele>160</ele>
        <time>2018-12-29T12:14:04Z</time>
      </trkpt>
      <trkpt lat="41.290489006787539" lon="1.382071310654283">
        <ele>160.39999389648437</ele>
        <time>2018-12-29T12:14:06Z</time>
      </trkpt>
      <trkpt lat="41.290481463074684" lon="1.382156722247601">
        <ele>160.80000305175781</ele>
        <time>2018-12-29T12:14:08Z</time>
      </trkpt>
      <trkpt lat="41.290468303486705" lon="1.382240960374475">
        <ele>161.19999694824219</ele>
        <time>2018-12-29T12:14:10Z</time>
      </trkpt>
      <trkpt lat="41.290461346507072" lon="1.382322432473302">
        <ele>161.39999389648437</ele>
        <time>2018-12-29T12:14:12Z</time>
      </trkpt>
      <trkpt lat="41.29045631736517" lon="1.382361827418208">
        <ele>161.60000610351562</ele>
        <time>2018-12-29T12:14:13Z</time>
      </trkpt>
      <trkpt lat="41.290450450032949" lon="1.382400719448924">
        <ele>161.80000305175781</ele>
        <time>2018-12-29T12:14:14Z</time>
      </trkpt>
      <trkpt lat="41.290446594357491" lon="1.382439695298672">
        <ele>162</ele>
        <time>2018-12-29T12:14:15Z</time>
      </trkpt>
      <trkpt lat="41.290442235767841" lon="1.3824796769768">
        <ele>162.19999694824219</ele>
        <time>2018-12-29T12:14:16Z</time>
      </trkpt>
      <trkpt lat="41.290435111150146" lon="1.382559221237898">
        <ele>162.39999389648437</ele>
        <time>2018-12-29T12:14:18Z</time>
      </trkpt>
      <trkpt lat="41.290429914370179" lon="1.382636083289981">
        <ele>162.80000305175781</ele>
        <time>2018-12-29T12:14:20Z</time>
      </trkpt>
      <trkpt lat="41.290427315980196" lon="1.382673801854253">
        <ele>163</ele>
        <time>2018-12-29T12:14:21Z</time>
      </trkpt>
      <trkpt lat="41.290423544123769" lon="1.382712526246905">
        <ele>163.19999694824219</ele>
        <time>2018-12-29T12:14:22Z</time>
      </trkpt>
      <trkpt lat="41.290414407849312" lon="1.382785281166434">
        <ele>163.39999389648437</ele>
        <time>2018-12-29T12:14:24Z</time>
      </trkpt>
      <trkpt lat="41.290409546345472" lon="1.382858119904995">
        <ele>163.80000305175781</ele>
        <time>2018-12-29T12:14:26Z</time>
      </trkpt>
      <trkpt lat="41.29040602594614" lon="1.382894581183791">
        <ele>164</ele>
        <time>2018-12-29T12:14:27Z</time>
      </trkpt>
      <trkpt lat="41.290400410071015" lon="1.382934059947729">
        <ele>164.19999694824219</ele>
        <time>2018-12-29T12:14:28Z</time>
      </trkpt>
      <trkpt lat="41.290390519425273" lon="1.383008575066924">
        <ele>164.39999389648437</ele>
        <time>2018-12-29T12:14:30Z</time>
      </trkpt>
      <trkpt lat="41.290382388979197" lon="1.383084263652563">
        <ele>164.60000610351562</ele>
        <time>2018-12-29T12:14:32Z</time>
      </trkpt>
      <trkpt lat="41.290370570495725" lon="1.383158275857568">
        <ele>165.19999694824219</ele>
        <time>2018-12-29T12:14:34Z</time>
      </trkpt>
      <trkpt lat="41.290363864973187" lon="1.383196162059903">
        <ele>165.39999389648437</ele>
        <time>2018-12-29T12:14:35Z</time>
      </trkpt>
      <trkpt lat="41.290358165279031" lon="1.383231952786446">
        <ele>165.60000610351562</ele>
        <time>2018-12-29T12:14:36Z</time>
      </trkpt>
      <trkpt lat="41.290345340967178" lon="1.383308647200465">
        <ele>166</ele>
        <time>2018-12-29T12:14:38Z</time>
      </trkpt>
      <trkpt lat="41.290323631837964" lon="1.383387688547373">
        <ele>166.39999389648437</ele>
        <time>2018-12-29T12:14:40Z</time>
      </trkpt>
      <trkpt lat="41.290302593261003" lon="1.383465807884932">
        <ele>166.80000305175781</ele>
        <time>2018-12-29T12:14:42Z</time>
      </trkpt>
      <trkpt lat="41.290281722322106" lon="1.383542418479919">
        <ele>167.19999694824219</ele>
        <time>2018-12-29T12:14:44Z</time>
      </trkpt>
      <trkpt lat="41.29025992937386" lon="1.383615089580417">
        <ele>167.39999389648437</ele>
        <time>2018-12-29T12:14:46Z</time>
      </trkpt>
      <trkpt lat="41.290236124768853" lon="1.383693125098944">
        <ele>167.80000305175781</ele>
        <time>2018-12-29T12:14:48Z</time>
      </trkpt>
      <trkpt lat="41.290208967402577" lon="1.383767807856202">
        <ele>168</ele>
        <time>2018-12-29T12:14:50Z</time>
      </trkpt>
      <trkpt lat="41.290187174454331" lon="1.383844502270222">
        <ele>168.19999694824219</ele>
        <time>2018-12-29T12:14:52Z</time>
      </trkpt>
      <trkpt lat="41.290175942704082" lon="1.383882975205779">
        <ele>168.39999389648437</ele>
        <time>2018-12-29T12:14:53Z</time>
      </trkpt>
      <trkpt lat="41.290164040401578" lon="1.383921951055527">
        <ele>168.39999389648437</ele>
        <time>2018-12-29T12:14:54Z</time>
      </trkpt>
      <trkpt lat="41.290141744539142" lon="1.383995544165373">
        <ele>168.60000610351562</ele>
        <time>2018-12-29T12:14:56Z</time>
      </trkpt>
      <trkpt lat="41.290117185562849" lon="1.384069724008441">
        <ele>169.19999694824219</ele>
        <time>2018-12-29T12:14:58Z</time>
      </trkpt>
      <trkpt lat="41.290095392614603" lon="1.38414247892797">
        <ele>169.39999389648437</ele>
        <time>2018-12-29T12:15:00Z</time>
      </trkpt>
      <trkpt lat="41.290085921064019" lon="1.384178185835481">
        <ele>169.60000610351562</ele>
        <time>2018-12-29T12:15:01Z</time>
      </trkpt>
      <trkpt lat="41.290077120065689" lon="1.384213725104928">
        <ele>169.80000305175781</ele>
        <time>2018-12-29T12:15:02Z</time>
      </trkpt>
      <trkpt lat="41.290055075660348" lon="1.384283462539315">
        <ele>170.19999694824219</ele>
        <time>2018-12-29T12:15:04Z</time>
      </trkpt>
      <trkpt lat="41.290034539997578" lon="1.384352361783385">
        <ele>170.39999389648438</ele>
        <time>2018-12-29T12:15:06Z</time>
      </trkpt>
      <trkpt lat="41.290014926344156" lon="1.384419500827789">
        <ele>170.39999389648438</ele>
        <time>2018-12-29T12:15:08Z</time>
      </trkpt>
      <trkpt lat="41.28999506123364" lon="1.384486304596067">
        <ele>170.80000305175781</ele>
        <time>2018-12-29T12:15:10Z</time>
      </trkpt>
      <trkpt lat="41.289974274113774" lon="1.384553359821439">
        <ele>171.19999694824219</ele>
        <time>2018-12-29T12:15:12Z</time>
      </trkpt>
      <trkpt lat="41.289956336840987" lon="1.384621001780033">
        <ele>171.39999389648437</ele>
        <time>2018-12-29T12:15:14Z</time>
      </trkpt>
      <trkpt lat="41.289941165596247" lon="1.384687721729279">
        <ele>171.60000610351562</ele>
        <time>2018-12-29T12:15:16Z</time>
      </trkpt>
      <trkpt lat="41.289930939674377" lon="1.384747484698892">
        <ele>171.60000610351562</ele>
        <time>2018-12-29T12:15:18Z</time>
      </trkpt>
      <trkpt lat="41.289918785914779" lon="1.384811438620091">
        <ele>171.80000305175781</ele>
        <time>2018-12-29T12:15:20Z</time>
      </trkpt>
      <trkpt lat="41.289910990744829" lon="1.384878326207399">
        <ele>171.80000305175781</ele>
        <time>2018-12-29T12:15:22Z</time>
      </trkpt>
      <trkpt lat="41.289886347949505" lon="1.384942196309567">
        <ele>171.80000305175781</ele>
        <time>2018-12-29T12:15:24Z</time>
      </trkpt>
      <trkpt lat="41.289849886670709" lon="1.385009754449129">
        <ele>171.60000610351562</ele>
        <time>2018-12-29T12:15:26Z</time>
      </trkpt>
      <trkpt lat="41.289816107600927" lon="1.38509483076632">
        <ele>171.39999389648437</ele>
        <time>2018-12-29T12:15:28Z</time>
      </trkpt>
      <trkpt lat="41.289785681292415" lon="1.385193234309554">
        <ele>171</ele>
        <time>2018-12-29T12:15:30Z</time>
      </trkpt>
      <trkpt lat="41.289772605523467" lon="1.385248051956296">
        <ele>171</ele>
        <time>2018-12-29T12:15:31Z</time>
      </trkpt>
      <trkpt lat="41.2897570990026" lon="1.385304378345609">
        <ele>170.60000610351562</ele>
        <time>2018-12-29T12:15:32Z</time>
      </trkpt>
      <trkpt lat="41.289722062647343" lon="1.38541828840971">
        <ele>170.39999389648438</ele>
        <time>2018-12-29T12:15:34Z</time>
      </trkpt>
      <trkpt lat="41.289687110111117" lon="1.385539155453444">
        <ele>170.19999694824219</ele>
        <time>2018-12-29T12:15:36Z</time>
      </trkpt>
      <trkpt lat="41.289648553356528" lon="1.385668320581317">
        <ele>170</ele>
        <time>2018-12-29T12:15:38Z</time>
      </trkpt>
      <trkpt lat="41.289605554193258" lon="1.385803772136569">
        <ele>169.60000610351562</ele>
        <time>2018-12-29T12:15:40Z</time>
      </trkpt>
      <trkpt lat="41.289563812315464" lon="1.385947689414024">
        <ele>169.19999694824219</ele>
        <time>2018-12-29T12:15:42Z</time>
      </trkpt>
      <trkpt lat="41.289520645514131" lon="1.386098815128207">
        <ele>168.80000305175781</ele>
        <time>2018-12-29T12:15:44Z</time>
      </trkpt>
      <trkpt lat="41.28949717618525" lon="1.386174587532878">
        <ele>168.60000610351562</ele>
        <time>2018-12-29T12:15:45Z</time>
      </trkpt>
      <trkpt lat="41.289474880322814" lon="1.386253964155912">
        <ele>168.39999389648437</ele>
        <time>2018-12-29T12:15:46Z</time>
      </trkpt>
      <trkpt lat="41.289430875331163" lon="1.386412801221013">
        <ele>168.19999694824219</ele>
        <time>2018-12-29T12:15:48Z</time>
      </trkpt>
      <trkpt lat="41.289381925016642" lon="1.386564094573259">
        <ele>168</ele>
        <time>2018-12-29T12:15:50Z</time>
      </trkpt>
      <trkpt lat="41.289336578920484" lon="1.386715471744537">
        <ele>168</ele>
        <time>2018-12-29T12:15:52Z</time>
      </trkpt>
      <trkpt lat="41.289290646091104" lon="1.386866010725498">
        <ele>168.19999694824219</ele>
        <time>2018-12-29T12:15:54Z</time>
      </trkpt>
      <trkpt lat="41.289270194247365" lon="1.386943375691772">
        <ele>168.19999694824219</ele>
        <time>2018-12-29T12:15:55Z</time>
      </trkpt>
      <trkpt lat="41.28924798220396" lon="1.387019315734506">
        <ele>168.19999694824219</ele>
        <time>2018-12-29T12:15:56Z</time>
      </trkpt>
      <trkpt lat="41.289202133193612" lon="1.387166334316135">
        <ele>168.39999389648437</ele>
        <time>2018-12-29T12:15:58Z</time>
      </trkpt>
      <trkpt lat="41.289159888401628" lon="1.387306312099099">
        <ele>168.80000305175781</ele>
        <time>2018-12-29T12:16:00Z</time>
      </trkpt>
      <trkpt lat="41.289119571447372" lon="1.387442518025637">
        <ele>169</ele>
        <time>2018-12-29T12:16:02Z</time>
      </trkpt>
      <trkpt lat="41.289076907560229" lon="1.38757947832346">
        <ele>169.19999694824219</ele>
        <time>2018-12-29T12:16:04Z</time>
      </trkpt>
      <trkpt lat="41.289035249501467" lon="1.387720042839646">
        <ele>168.80000305175781</ele>
        <time>2018-12-29T12:16:06Z</time>
      </trkpt>
      <trkpt lat="41.288995938375592" lon="1.387856751680374">
        <ele>169.19999694824219</ele>
        <time>2018-12-29T12:16:08Z</time>
      </trkpt>
      <trkpt lat="41.288956627249718" lon="1.387991532683373">
        <ele>169.60000610351562</ele>
        <time>2018-12-29T12:16:10Z</time>
      </trkpt>
      <trkpt lat="41.288937432691455" lon="1.388057665899396">
        <ele>169.60000610351562</ele>
        <time>2018-12-29T12:16:11Z</time>
      </trkpt>
      <trkpt lat="41.288918070495129" lon="1.388123715296388">
        <ele>169.60000610351562</ele>
        <time>2018-12-29T12:16:12Z</time>
      </trkpt>
      <trkpt lat="41.288879597559571" lon="1.388252545148134">
        <ele>170</ele>
        <time>2018-12-29T12:16:14Z</time>
      </trkpt>
      <trkpt lat="41.288841543719172" lon="1.388384476304054">
        <ele>170.19999694824219</ele>
        <time>2018-12-29T12:16:16Z</time>
      </trkpt>
      <trkpt lat="41.28880231641233" lon="1.388513557612896">
        <ele>170.19999694824219</ele>
        <time>2018-12-29T12:16:18Z</time>
      </trkpt>
      <trkpt lat="41.288762837648392" lon="1.38864322565496">
        <ele>170.39999389648438</ele>
        <time>2018-12-29T12:16:20Z</time>
      </trkpt>
      <trkpt lat="41.288724029436707" lon="1.388769708573818">
        <ele>170.60000610351562</ele>
        <time>2018-12-29T12:16:22Z</time>
      </trkpt>
      <trkpt lat="41.28868555650115" lon="1.388898873701692">
        <ele>171</ele>
        <time>2018-12-29T12:16:24Z</time>
      </trkpt>
      <trkpt lat="41.288645742461085" lon="1.389027703553438">
        <ele>171.39999389648437</ele>
        <time>2018-12-29T12:16:26Z</time>
      </trkpt>
      <trkpt lat="41.288605676963925" lon="1.389155779033899">
        <ele>171.80000305175781</ele>
        <time>2018-12-29T12:16:28Z</time>
      </trkpt>
      <trkpt lat="41.288569131866097" lon="1.389285447075963">
        <ele>172</ele>
        <time>2018-12-29T12:16:30Z</time>
      </trkpt>
      <trkpt lat="41.288530826568604" lon="1.389411594718695">
        <ele>172.19999694824219</ele>
        <time>2018-12-29T12:16:32Z</time>
      </trkpt>
      <trkpt lat="41.28849595785141" lon="1.389534557238221">
        <ele>172.60000610351562</ele>
        <time>2018-12-29T12:16:34Z</time>
      </trkpt>
      <trkpt lat="41.288457149639726" lon="1.389659615233541">
        <ele>172.60000610351562</ele>
        <time>2018-12-29T12:16:36Z</time>
      </trkpt>
      <trkpt lat="41.288418509066105" lon="1.389788696542382">
        <ele>172.39999389648437</ele>
        <time>2018-12-29T12:16:38Z</time>
      </trkpt>
      <trkpt lat="41.288380958139896" lon="1.389927500858903">
        <ele>172.39999389648437</ele>
        <time>2018-12-29T12:16:40Z</time>
      </trkpt>
      <trkpt lat="41.288359751924872" lon="1.3899967353791">
        <ele>172.19999694824219</ele>
        <time>2018-12-29T12:16:41Z</time>
      </trkpt>
      <trkpt lat="41.288335528224707" lon="1.390064544975758">
        <ele>172.19999694824219</ele>
        <time>2018-12-29T12:16:42Z</time>
      </trkpt>
      <trkpt lat="41.288282135501504" lon="1.39020829461515">
        <ele>172</ele>
        <time>2018-12-29T12:16:44Z</time>
      </trkpt>
      <trkpt lat="41.288220277056098" lon="1.390353972092271">
        <ele>171.60000610351562</ele>
        <time>2018-12-29T12:16:46Z</time>
      </trkpt>
      <trkpt lat="41.288146013393998" lon="1.390494368970394">
        <ele>171.60000610351562</ele>
        <time>2018-12-29T12:16:48Z</time>
      </trkpt>
      <trkpt lat="41.288060853257775" lon="1.39063342474401">
        <ele>171</ele>
        <time>2018-12-29T12:16:50Z</time>
      </trkpt>
      <trkpt lat="41.287970412522554" lon="1.390775498002768">
        <ele>170.60000610351562</ele>
        <time>2018-12-29T12:16:52Z</time>
      </trkpt>
      <trkpt lat="41.287871422246099" lon="1.390916565433145">
        <ele>170</ele>
        <time>2018-12-29T12:16:54Z</time>
      </trkpt>
      <trkpt lat="41.287820627912879" lon="1.390987392514944">
        <ele>170.19999694824219</ele>
        <time>2018-12-29T12:16:55Z</time>
      </trkpt>
      <trkpt lat="41.287769582122564" lon="1.391059560701251">
        <ele>170.39999389648438</ele>
        <time>2018-12-29T12:16:56Z</time>
      </trkpt>
      <trkpt lat="41.287717781960964" lon="1.39113181270659">
        <ele>169.60000610351562</ele>
        <time>2018-12-29T12:16:57Z</time>
      </trkpt>
      <trkpt lat="41.287666819989681" lon="1.391205908730626">
        <ele>169</ele>
        <time>2018-12-29T12:16:58Z</time>
      </trkpt>
      <trkpt lat="41.287563806399703" lon="1.391360135748982">
        <ele>168.60000610351562</ele>
        <time>2018-12-29T12:17:00Z</time>
      </trkpt>
      <trkpt lat="41.287511251866817" lon="1.39143674634397">
        <ele>168.19999694824219</ele>
        <time>2018-12-29T12:17:01Z</time>
      </trkpt>
      <trkpt lat="41.287458026781678" lon="1.391514195129275">
        <ele>168.19999694824219</ele>
        <time>2018-12-29T12:17:02Z</time>
      </trkpt>
      <trkpt lat="41.287348810583353" lon="1.391669595614076">
        <ele>168.19999694824219</ele>
        <time>2018-12-29T12:17:04Z</time>
      </trkpt>
      <trkpt lat="41.287236576899886" lon="1.391831450164318">
        <ele>167.39999389648437</ele>
        <time>2018-12-29T12:17:06Z</time>
      </trkpt>
      <trkpt lat="41.287181004881859" lon="1.39191459864378">
        <ele>167.19999694824219</ele>
        <time>2018-12-29T12:17:07Z</time>
      </trkpt>
      <trkpt lat="41.287123924121261" lon="1.3919981662184">
        <ele>167</ele>
        <time>2018-12-29T12:17:08Z</time>
      </trkpt>
      <trkpt lat="41.287009259685874" lon="1.392164211720228">
        <ele>166.39999389648437</ele>
        <time>2018-12-29T12:17:10Z</time>
      </trkpt>
      <trkpt lat="41.286898953840137" lon="1.392327323555946">
        <ele>166.60000610351562</ele>
        <time>2018-12-29T12:17:12Z</time>
      </trkpt>
      <trkpt lat="41.286796946078539" lon="1.392474928870797">
        <ele>166.80000305175781</ele>
        <time>2018-12-29T12:17:14Z</time>
      </trkpt>
      <trkpt lat="41.286700051277876" lon="1.392608536407352">
        <ele>167.60000610351562</ele>
        <time>2018-12-29T12:17:16Z</time>
      </trkpt>
      <trkpt lat="41.286655375733972" lon="1.392673496156931">
        <ele>168.19999694824219</ele>
        <time>2018-12-29T12:17:17Z</time>
      </trkpt>
      <trkpt lat="41.286612376570702" lon="1.39273451641202">
        <ele>168.60000610351562</ele>
        <time>2018-12-29T12:17:18Z</time>
      </trkpt>
      <trkpt lat="41.286534843966365" lon="1.392850941047072">
        <ele>169.60000610351562</ele>
        <time>2018-12-29T12:17:20Z</time>
      </trkpt>
      <trkpt lat="41.286499220877886" lon="1.392905926331878">
        <ele>170.60000610351562</ele>
        <time>2018-12-29T12:17:21Z</time>
      </trkpt>
      <trkpt lat="41.286465106531978" lon="1.392959235236049">
        <ele>171.19999694824219</ele>
        <time>2018-12-29T12:17:22Z</time>
      </trkpt>
      <trkpt lat="41.286431746557355" lon="1.393011286854744">
        <ele>171.60000610351562</ele>
        <time>2018-12-29T12:17:23Z</time>
      </trkpt>
      <trkpt lat="41.286396123468876" lon="1.393061662092805">
        <ele>171.80000305175781</ele>
        <time>2018-12-29T12:17:24Z</time>
      </trkpt>
      <trkpt lat="41.286323200911283" lon="1.393157718703151">
        <ele>172.39999389648437</ele>
        <time>2018-12-29T12:17:26Z</time>
      </trkpt>
      <trkpt lat="41.286288248375058" lon="1.393206417560577">
        <ele>172.80000305175781</ele>
        <time>2018-12-29T12:17:27Z</time>
      </trkpt>
      <trkpt lat="41.286254804581404" lon="1.393254529684782">
        <ele>172.80000305175781</ele>
        <time>2018-12-29T12:17:28Z</time>
      </trkpt>
      <trkpt lat="41.286189928650856" lon="1.393350921571255">
        <ele>173.19999694824219</ele>
        <time>2018-12-29T12:17:30Z</time>
      </trkpt>
      <trkpt lat="41.286157909780741" lon="1.39340054243803">
        <ele>173.39999389648437</ele>
        <time>2018-12-29T12:17:31Z</time>
      </trkpt>
      <trkpt lat="41.286125471815467" lon="1.393450247123838">
        <ele>173.39999389648437</ele>
        <time>2018-12-29T12:17:32Z</time>
      </trkpt>
      <trkpt lat="41.286058416590095" lon="1.393546722829342">
        <ele>173.39999389648437</ele>
        <time>2018-12-29T12:17:34Z</time>
      </trkpt>
      <trkpt lat="41.285992031916976" lon="1.393639594316483">
        <ele>174</ele>
        <time>2018-12-29T12:17:36Z</time>
      </trkpt>
      <trkpt lat="41.285925814881921" lon="1.393733555451036">
        <ele>174.19999694824219</ele>
        <time>2018-12-29T12:17:38Z</time>
      </trkpt>
      <trkpt lat="41.2858612742275" lon="1.393825756385922">
        <ele>174.80000305175781</ele>
        <time>2018-12-29T12:17:40Z</time>
      </trkpt>
      <trkpt lat="41.285829422995448" lon="1.393869761377573">
        <ele>175</ele>
        <time>2018-12-29T12:17:41Z</time>
      </trkpt>
      <trkpt lat="41.285800505429506" lon="1.393914520740509">
        <ele>175</ele>
        <time>2018-12-29T12:17:42Z</time>
      </trkpt>
      <trkpt lat="41.285744765773416" lon="1.394005967304111">
        <ele>175.39999389648437</ele>
        <time>2018-12-29T12:17:44Z</time>
      </trkpt>
      <trkpt lat="41.285685254260898" lon="1.394093725830317">
        <ele>176</ele>
        <time>2018-12-29T12:17:46Z</time>
      </trkpt>
      <trkpt lat="41.285628424957395" lon="1.394174611195922">
        <ele>176.39999389648437</ele>
        <time>2018-12-29T12:17:48Z</time>
      </trkpt>
      <trkpt lat="41.285602021962404" lon="1.394211323931813">
        <ele>176.39999389648437</ele>
        <time>2018-12-29T12:17:49Z</time>
      </trkpt>
      <trkpt lat="41.285574194043875" lon="1.394244264811277">
        <ele>176.60000610351562</ele>
        <time>2018-12-29T12:17:50Z</time>
      </trkpt>
      <trkpt lat="41.28552021458745" lon="1.394304782152176">
        <ele>177</ele>
        <time>2018-12-29T12:17:52Z</time>
      </trkpt>
      <trkpt lat="41.285468246787786" lon="1.394351301714778">
        <ele>177.39999389648437</ele>
        <time>2018-12-29T12:17:54Z</time>
      </trkpt>
      <trkpt lat="41.285447124391794" lon="1.394374100491405">
        <ele>177.39999389648437</ele>
        <time>2018-12-29T12:17:55Z</time>
      </trkpt>
      <trkpt lat="41.285428684204817" lon="1.39439832419157">
        <ele>177.60000610351562</ele>
        <time>2018-12-29T12:17:56Z</time>
      </trkpt>
      <trkpt lat="41.285390798002481" lon="1.394440233707428">
        <ele>177.80000305175781</ele>
        <time>2018-12-29T12:17:58Z</time>
      </trkpt>
      <trkpt lat="41.285360287874937" lon="1.394469235092402">
        <ele>177.60000610351562</ele>
        <time>2018-12-29T12:18:00Z</time>
      </trkpt>
      <trkpt lat="41.285355007275939" lon="1.3944779522717">
        <ele>177.60000610351562</ele>
        <time>2018-12-29T12:18:01Z</time>
      </trkpt>
      <trkpt lat="41.285355510190129" lon="1.394476192072034">
        <ele>177.80000305175781</ele>
        <time>2018-12-29T12:18:02Z</time>
      </trkpt>
      <trkpt lat="41.285349726676941" lon="1.394508797675371">
        <ele>178.39999389648437</ele>
        <time>2018-12-29T12:18:53Z</time>
      </trkpt>
      <trkpt lat="41.285329693928361" lon="1.394556071609259">
        <ele>178.19999694824219</ele>
        <time>2018-12-29T12:18:55Z</time>
      </trkpt>
      <trkpt lat="41.285297842696309" lon="1.394614661112428">
        <ele>178</ele>
        <time>2018-12-29T12:18:57Z</time>
      </trkpt>
      <trkpt lat="41.285275127738714" lon="1.394644165411592">
        <ele>177.80000305175781</ele>
        <time>2018-12-29T12:18:58Z</time>
      </trkpt>
      <trkpt lat="41.285246210172772" lon="1.394675262272358">
        <ele>177.60000610351562</ele>
        <time>2018-12-29T12:18:59Z</time>
      </trkpt>
      <trkpt lat="41.285177143290639" lon="1.394746089354157">
        <ele>177.39999389648437</ele>
        <time>2018-12-29T12:19:01Z</time>
      </trkpt>
      <trkpt lat="41.285099694505334" lon="1.394829489290714">
        <ele>177</ele>
        <time>2018-12-29T12:19:03Z</time>
      </trkpt>
      <trkpt lat="41.285017132759094" lon="1.394924456253648">
        <ele>176.60000610351562</ele>
        <time>2018-12-29T12:19:05Z</time>
      </trkpt>
      <trkpt lat="41.28497245721519" lon="1.394973490387201">
        <ele>176.39999389648437</ele>
        <time>2018-12-29T12:19:06Z</time>
      </trkpt>
      <trkpt lat="41.284926105290651" lon="1.395023027434945">
        <ele>176.39999389648437</ele>
        <time>2018-12-29T12:19:07Z</time>
      </trkpt>
      <trkpt lat="41.284831976518035" lon="1.395130483433604">
        <ele>175.80000305175781</ele>
        <time>2018-12-29T12:19:09Z</time>
      </trkpt>
      <trkpt lat="41.284733321517706" lon="1.395247746258974">
        <ele>175.39999389648437</ele>
        <time>2018-12-29T12:19:11Z</time>
      </trkpt>
      <trkpt lat="41.284679258242249" lon="1.395308263599873">
        <ele>175.19999694824219</ele>
        <time>2018-12-29T12:19:12Z</time>
      </trkpt>
      <trkpt lat="41.284623434767127" lon="1.395367858931422">
        <ele>175</ele>
        <time>2018-12-29T12:19:13Z</time>
      </trkpt>
      <trkpt lat="41.284508351236582" lon="1.395497359335423">
        <ele>174.39999389648437</ele>
        <time>2018-12-29T12:19:15Z</time>
      </trkpt>
      <trkpt lat="41.284447833895683" lon="1.395563073456287">
        <ele>174.19999694824219</ele>
        <time>2018-12-29T12:19:16Z</time>
      </trkpt>
      <trkpt lat="41.284385556355119" lon="1.395629374310374">
        <ele>173.80000305175781</ele>
        <time>2018-12-29T12:19:17Z</time>
      </trkpt>
      <trkpt lat="41.284260749816895" lon="1.395771028473973">
        <ele>173</ele>
        <time>2018-12-29T12:19:19Z</time>
      </trkpt>
      <trkpt lat="41.284133093431592" lon="1.395920310169458">
        <ele>171.60000610351562</ele>
        <time>2018-12-29T12:19:21Z</time>
      </trkpt>
      <trkpt lat="41.28399764187634" lon="1.396069759503007">
        <ele>171.19999694824219</ele>
        <time>2018-12-29T12:19:23Z</time>
      </trkpt>
      <trkpt lat="41.283861268311739" lon="1.396222980692983">
        <ele>170.39999389648438</ele>
        <time>2018-12-29T12:19:25Z</time>
      </trkpt>
      <trkpt lat="41.283724308013916" lon="1.396381063386798">
        <ele>169.80000305175781</ele>
        <time>2018-12-29T12:19:27Z</time>
      </trkpt>
      <trkpt lat="41.283582486212254" lon="1.396534871309996">
        <ele>169.19999694824219</ele>
        <time>2018-12-29T12:19:29Z</time>
      </trkpt>
      <trkpt lat="41.283448375761509" lon="1.396690607070923">
        <ele>169.19999694824219</ele>
        <time>2018-12-29T12:19:31Z</time>
      </trkpt>
      <trkpt lat="41.283328766003251" lon="1.39684391207993">
        <ele>169.80000305175781</ele>
        <time>2018-12-29T12:19:33Z</time>
      </trkpt>
      <trkpt lat="41.283223070204258" lon="1.396991433575749">
        <ele>170.19999694824219</ele>
        <time>2018-12-29T12:19:35Z</time>
      </trkpt>
      <trkpt lat="41.283170850947499" lon="1.397057734429836">
        <ele>170.39999389648438</ele>
        <time>2018-12-29T12:19:36Z</time>
      </trkpt>
      <trkpt lat="41.283114859834313" lon="1.397114982828498">
        <ele>170.80000305175781</ele>
        <time>2018-12-29T12:19:37Z</time>
      </trkpt>
      <trkpt lat="41.283003045246005" lon="1.397218583151698">
        <ele>171.19999694824219</ele>
        <time>2018-12-29T12:19:39Z</time>
      </trkpt>
      <trkpt lat="41.282959375530481" lon="1.39727876521647">
        <ele>171.39999389648437</ele>
        <time>2018-12-29T12:19:40Z</time>
      </trkpt>
      <trkpt lat="41.282925512641668" lon="1.397346993908286">
        <ele>172</ele>
        <time>2018-12-29T12:19:41Z</time>
      </trkpt>
      <trkpt lat="41.282893409952521" lon="1.397418156266213">
        <ele>172.80000305175781</ele>
        <time>2018-12-29T12:19:42Z</time>
      </trkpt>
      <trkpt lat="41.282861391082406" lon="1.39748596586287">
        <ele>173.19999694824219</ele>
        <time>2018-12-29T12:19:43Z</time>
      </trkpt>
      <trkpt lat="41.282821325585246" lon="1.397546231746674">
        <ele>173</ele>
        <time>2018-12-29T12:19:44Z</time>
      </trkpt>
      <trkpt lat="41.282775728031993" lon="1.397594092413783">
        <ele>173</ele>
        <time>2018-12-29T12:19:45Z</time>
      </trkpt>
      <trkpt lat="41.282685957849026" lon="1.397674977779388">
        <ele>174</ele>
        <time>2018-12-29T12:19:47Z</time>
      </trkpt>
      <trkpt lat="41.282641785219312" lon="1.3977141212672">
        <ele>174.19999694824219</ele>
        <time>2018-12-29T12:19:48Z</time>
      </trkpt>
      <trkpt lat="41.282598450779915" lon="1.397753851488233">
        <ele>174.39999389648437</ele>
        <time>2018-12-29T12:19:49Z</time>
      </trkpt>
      <trkpt lat="41.282513542100787" lon="1.39783482067287">
        <ele>175.19999694824219</ele>
        <time>2018-12-29T12:19:51Z</time>
      </trkpt>
      <trkpt lat="41.282431986182928" lon="1.397919813171029">
        <ele>175.80000305175781</ele>
        <time>2018-12-29T12:19:53Z</time>
      </trkpt>
      <trkpt lat="41.282355291768909" lon="1.398009499534965">
        <ele>176.19999694824219</ele>
        <time>2018-12-29T12:19:55Z</time>
      </trkpt>
      <trkpt lat="41.282317154109478" lon="1.39805568382144">
        <ele>176.39999389648437</ele>
        <time>2018-12-29T12:19:56Z</time>
      </trkpt>
      <trkpt lat="41.282279435545206" lon="1.398101784288883">
        <ele>176.39999389648437</ele>
        <time>2018-12-29T12:19:57Z</time>
      </trkpt>
      <trkpt lat="41.282210787758231" lon="1.398200606927276">
        <ele>176.39999389648437</ele>
        <time>2018-12-29T12:19:59Z</time>
      </trkpt>
      <trkpt lat="41.282149767503142" lon="1.398303620517254">
        <ele>177</ele>
        <time>2018-12-29T12:20:01Z</time>
      </trkpt>
      <trkpt lat="41.282094111666083" lon="1.398413758724928">
        <ele>177.19999694824219</ele>
        <time>2018-12-29T12:20:03Z</time>
      </trkpt>
      <trkpt lat="41.282067708671093" lon="1.398469917476177">
        <ele>177.19999694824219</ele>
        <time>2018-12-29T12:20:04Z</time>
      </trkpt>
      <trkpt lat="41.282044490799308" lon="1.398527920246124">
        <ele>177.39999389648437</ele>
        <time>2018-12-29T12:20:05Z</time>
      </trkpt>
      <trkpt lat="41.281999396160245" lon="1.39864644035697">
        <ele>177.60000610351562</ele>
        <time>2018-12-29T12:20:07Z</time>
      </trkpt>
      <trkpt lat="41.281981626525521" lon="1.398710226640105">
        <ele>177.80000305175781</ele>
        <time>2018-12-29T12:20:08Z</time>
      </trkpt>
      <trkpt lat="41.281962851062417" lon="1.398773845285177">
        <ele>177.80000305175781</ele>
        <time>2018-12-29T12:20:09Z</time>
      </trkpt>
      <trkpt lat="41.281943572685122" lon="1.398836961016059">
        <ele>178</ele>
        <time>2018-12-29T12:20:10Z</time>
      </trkpt>
      <trkpt lat="41.281928569078445" lon="1.398902088403702">
        <ele>178.19999694824219</ele>
        <time>2018-12-29T12:20:11Z</time>
      </trkpt>
      <trkpt lat="41.281916666775942" lon="1.398969478905201">
        <ele>178.39999389648437</ele>
        <time>2018-12-29T12:20:12Z</time>
      </trkpt>
      <trkpt lat="41.281906608492136" lon="1.399037204682827">
        <ele>178.39999389648437</ele>
        <time>2018-12-29T12:20:13Z</time>
      </trkpt>
      <trkpt lat="41.281889760866761" lon="1.399175841361284">
        <ele>178.60000610351562</ele>
        <time>2018-12-29T12:20:15Z</time>
      </trkpt>
      <trkpt lat="41.281883977353573" lon="1.399245411157608">
        <ele>178.80000305175781</ele>
        <time>2018-12-29T12:20:16Z</time>
      </trkpt>
      <trkpt lat="41.281879534944892" lon="1.399315986782312">
        <ele>178.80000305175781</ele>
        <time>2018-12-29T12:20:17Z</time>
      </trkpt>
      <trkpt lat="41.281871572136879" lon="1.399456718936563">
        <ele>179</ele>
        <time>2018-12-29T12:20:19Z</time>
      </trkpt>
      <trkpt lat="41.28186721354723" lon="1.39959879219532">
        <ele>179.19999694824219</ele>
        <time>2018-12-29T12:20:21Z</time>
      </trkpt>
      <trkpt lat="41.281870314851403" lon="1.399738350883126">
        <ele>179.19999694824219</ele>
        <time>2018-12-29T12:20:23Z</time>
      </trkpt>
      <trkpt lat="41.281874505802989" lon="1.399882771074772">
        <ele>179</ele>
        <time>2018-12-29T12:20:25Z</time>
      </trkpt>
      <trkpt lat="41.281877690926194" lon="1.400030795484781">
        <ele>179.19999694824219</ele>
        <time>2018-12-29T12:20:27Z</time>
      </trkpt>
      <trkpt lat="41.281879534944892" lon="1.400106064975262">
        <ele>179.39999389648437</ele>
        <time>2018-12-29T12:20:28Z</time>
      </trkpt>
      <trkpt lat="41.281881462782621" lon="1.400181418284774">
        <ele>179.39999389648437</ele>
        <time>2018-12-29T12:20:29Z</time>
      </trkpt>
      <trkpt lat="41.28188825212419" lon="1.400330616161227">
        <ele>179.60000610351562</ele>
        <time>2018-12-29T12:20:31Z</time>
      </trkpt>
      <trkpt lat="41.281893784180284" lon="1.400479646399617">
        <ele>179.60000610351562</ele>
        <time>2018-12-29T12:20:33Z</time>
      </trkpt>
      <trkpt lat="41.281899735331535" lon="1.400630520656705">
        <ele>179.39999389648437</ele>
        <time>2018-12-29T12:20:35Z</time>
      </trkpt>
      <trkpt lat="41.281901160255075" lon="1.400706041604281">
        <ele>179</ele>
        <time>2018-12-29T12:20:36Z</time>
      </trkpt>
      <trkpt lat="41.281902166083455" lon="1.40078223310411">
        <ele>178.80000305175781</ele>
        <time>2018-12-29T12:20:37Z</time>
      </trkpt>
      <trkpt lat="41.281904513016343" lon="1.400932855904102">
        <ele>179</ele>
        <time>2018-12-29T12:20:39Z</time>
      </trkpt>
      <trkpt lat="41.281910380348563" lon="1.401085238903761">
        <ele>179.19999694824219</ele>
        <time>2018-12-29T12:20:41Z</time>
      </trkpt>
      <trkpt lat="41.281917253509164" lon="1.401240220293403">
        <ele>179.19999694824219</ele>
        <time>2018-12-29T12:20:43Z</time>
      </trkpt>
      <trkpt lat="41.281925803050399" lon="1.401397213339806">
        <ele>179.39999389648437</ele>
        <time>2018-12-29T12:20:45Z</time>
      </trkpt>
      <trkpt lat="41.281935358420014" lon="1.401554876938462">
        <ele>179.60000610351562</ele>
        <time>2018-12-29T12:20:47Z</time>
      </trkpt>
      <trkpt lat="41.2819395493716" lon="1.401711534708738">
        <ele>179.60000610351562</ele>
        <time>2018-12-29T12:20:49Z</time>
      </trkpt>
      <trkpt lat="41.281944159418344" lon="1.401873724535108">
        <ele>179.60000610351562</ele>
        <time>2018-12-29T12:20:51Z</time>
      </trkpt>
      <trkpt lat="41.281949356198311" lon="1.402037842199206">
        <ele>179.60000610351562</ele>
        <time>2018-12-29T12:20:53Z</time>
      </trkpt>
      <trkpt lat="41.281958827748895" lon="1.402197936549783">
        <ele>179.39999389648437</ele>
        <time>2018-12-29T12:20:55Z</time>
      </trkpt>
      <trkpt lat="41.281965365633368" lon="1.402359874919057">
        <ele>179.60000610351562</ele>
        <time>2018-12-29T12:20:57Z</time>
      </trkpt>
      <trkpt lat="41.281967544928193" lon="1.402523489668965">
        <ele>179.80000305175781</ele>
        <time>2018-12-29T12:20:59Z</time>
      </trkpt>
      <trkpt lat="41.281972574070096" lon="1.402686769142747">
        <ele>179.60000610351562</ele>
        <time>2018-12-29T12:21:01Z</time>
      </trkpt>
      <trkpt lat="41.281977100297809" lon="1.402848958969116">
        <ele>179.39999389648437</ele>
        <time>2018-12-29T12:21:03Z</time>
      </trkpt>
      <trkpt lat="41.281980704516172" lon="1.402930179610848">
        <ele>179.39999389648437</ele>
        <time>2018-12-29T12:21:04Z</time>
      </trkpt>
      <trkpt lat="41.281983722001314" lon="1.403011484071612">
        <ele>179.39999389648437</ele>
        <time>2018-12-29T12:21:05Z</time>
      </trkpt>
      <trkpt lat="41.281992439180613" lon="1.403175182640553">
        <ele>179.19999694824219</ele>
        <time>2018-12-29T12:21:07Z</time>
      </trkpt>
      <trkpt lat="41.282000066712499" lon="1.403337372466922">
        <ele>179.39999389648437</ele>
        <time>2018-12-29T12:21:09Z</time>
      </trkpt>
      <trkpt lat="41.282002329826355" lon="1.403500316664577">
        <ele>179.60000610351562</ele>
        <time>2018-12-29T12:21:11Z</time>
      </trkpt>
      <trkpt lat="41.282005095854402" lon="1.403669212013483">
        <ele>179.80000305175781</ele>
        <time>2018-12-29T12:21:13Z</time>
      </trkpt>
      <trkpt lat="41.282008029520512" lon="1.403845734894276">
        <ele>179.60000610351562</ele>
        <time>2018-12-29T12:21:15Z</time>
      </trkpt>
      <trkpt lat="41.282010963186622" lon="1.404033489525318">
        <ele>178.80000305175781</ele>
        <time>2018-12-29T12:21:17Z</time>
      </trkpt>
      <trkpt lat="41.282013142481446" lon="1.40413373708725">
        <ele>178.39999389648437</ele>
        <time>2018-12-29T12:21:18Z</time>
      </trkpt>
      <trkpt lat="41.282017333433032" lon="1.404237002134323">
        <ele>178</ele>
        <time>2018-12-29T12:21:19Z</time>
      </trkpt>
      <trkpt lat="41.282021021470428" lon="1.404341943562031">
        <ele>177.80000305175781</ele>
        <time>2018-12-29T12:21:20Z</time>
      </trkpt>
      <trkpt lat="41.282027056440711" lon="1.404450405389071">
        <ele>177.39999389648437</ele>
        <time>2018-12-29T12:21:21Z</time>
      </trkpt>
      <trkpt lat="41.282033007591963" lon="1.404559873044491">
        <ele>176</ele>
        <time>2018-12-29T12:21:22Z</time>
      </trkpt>
      <trkpt lat="41.282036360353231" lon="1.404672944918275">
        <ele>175.39999389648437</ele>
        <time>2018-12-29T12:21:23Z</time>
      </trkpt>
      <trkpt lat="41.282040886580944" lon="1.404900597408414">
        <ele>175</ele>
        <time>2018-12-29T12:21:25Z</time>
      </trkpt>
      <trkpt lat="41.282043904066086" lon="1.405013585463166">
        <ele>174.39999389648437</ele>
        <time>2018-12-29T12:21:26Z</time>
      </trkpt>
      <trkpt lat="41.282048681750894" lon="1.405128752812743">
        <ele>173.80000305175781</ele>
        <time>2018-12-29T12:21:27Z</time>
      </trkpt>
      <trkpt lat="41.282058572396636" lon="1.405364954844117">
        <ele>172.80000305175781</ele>
        <time>2018-12-29T12:21:29Z</time>
      </trkpt>
      <trkpt lat="41.28206804394722" lon="1.405611969530582">
        <ele>172.19999694824219</ele>
        <time>2018-12-29T12:21:31Z</time>
      </trkpt>
      <trkpt lat="41.282072234898806" lon="1.405738787725568">
        <ele>172</ele>
        <time>2018-12-29T12:21:32Z</time>
      </trkpt>
      <trkpt lat="41.282075084745884" lon="1.40586786903441">
        <ele>171.80000305175781</ele>
        <time>2018-12-29T12:21:33Z</time>
      </trkpt>
      <trkpt lat="41.28208028152585" lon="1.405998794361949">
        <ele>171.39999389648437</ele>
        <time>2018-12-29T12:21:34Z</time>
      </trkpt>
      <trkpt lat="41.282086819410324" lon="1.406130809336901">
        <ele>170.80000305175781</ele>
        <time>2018-12-29T12:21:35Z</time>
      </trkpt>
      <trkpt lat="41.282092602923512" lon="1.406262489035726">
        <ele>169.80000305175781</ele>
        <time>2018-12-29T12:21:36Z</time>
      </trkpt>
      <trkpt lat="41.282096961513162" lon="1.406395677477121">
        <ele>169</ele>
        <time>2018-12-29T12:21:37Z</time>
      </trkpt>
      <trkpt lat="41.282101068645716" lon="1.406531129032373">
        <ele>168.39999389648437</ele>
        <time>2018-12-29T12:21:38Z</time>
      </trkpt>
      <trkpt lat="41.282104840502143" lon="1.406667502596974">
        <ele>168</ele>
        <time>2018-12-29T12:21:39Z</time>
      </trkpt>
      <trkpt lat="41.282115569338202" lon="1.40693798661232">
        <ele>167.39999389648437</ele>
        <time>2018-12-29T12:21:41Z</time>
      </trkpt>
      <trkpt lat="41.282123029232025" lon="1.407202603295445">
        <ele>167.19999694824219</ele>
        <time>2018-12-29T12:21:43Z</time>
      </trkpt>
      <trkpt lat="41.282129986211658" lon="1.407458921894431">
        <ele>167.19999694824219</ele>
        <time>2018-12-29T12:21:45Z</time>
      </trkpt>
      <trkpt lat="41.282134763896465" lon="1.407583728432655">
        <ele>167.19999694824219</ele>
        <time>2018-12-29T12:21:46Z</time>
      </trkpt>
      <trkpt lat="41.282140547409654" lon="1.407706439495087">
        <ele>167</ele>
        <time>2018-12-29T12:21:47Z</time>
      </trkpt>
      <trkpt lat="41.282149096950889" lon="1.407943731173873">
        <ele>166.80000305175781</ele>
        <time>2018-12-29T12:21:49Z</time>
      </trkpt>
      <trkpt lat="41.282157395035028" lon="1.408174568787217">
        <ele>167.19999694824219</ele>
        <time>2018-12-29T12:21:51Z</time>
      </trkpt>
      <trkpt lat="41.282164771109819" lon="1.408404149115086">
        <ele>167.39999389648437</ele>
        <time>2018-12-29T12:21:53Z</time>
      </trkpt>
      <trkpt lat="41.282169967889786" lon="1.408631717786193">
        <ele>166.60000610351562</ele>
        <time>2018-12-29T12:21:55Z</time>
      </trkpt>
      <trkpt lat="41.282180193811655" lon="1.408856185153127">
        <ele>167</ele>
        <time>2018-12-29T12:21:57Z</time>
      </trkpt>
      <trkpt lat="41.282186228781939" lon="1.409077132120729">
        <ele>166.60000610351562</ele>
        <time>2018-12-29T12:21:59Z</time>
      </trkpt>
      <trkpt lat="41.282196370884776" lon="1.409292882308364">
        <ele>166.39999389648437</ele>
        <time>2018-12-29T12:22:01Z</time>
      </trkpt>
      <trkpt lat="41.282200058922172" lon="1.409398745745421">
        <ele>166.19999694824219</ele>
        <time>2018-12-29T12:22:02Z</time>
      </trkpt>
      <trkpt lat="41.282202489674091" lon="1.409503100439906">
        <ele>166.19999694824219</ele>
        <time>2018-12-29T12:22:03Z</time>
      </trkpt>
      <trkpt lat="41.28220634534955" lon="1.409707954153419">
        <ele>166.19999694824219</ele>
        <time>2018-12-29T12:22:05Z</time>
      </trkpt>
      <trkpt lat="41.28221221268177" lon="1.40991029329598">
        <ele>166</ele>
        <time>2018-12-29T12:22:07Z</time>
      </trkpt>
      <trkpt lat="41.282220678403974" lon="1.410110369324684">
        <ele>166</ele>
        <time>2018-12-29T12:22:09Z</time>
      </trkpt>
      <trkpt lat="41.282229227945209" lon="1.410309858620167">
        <ele>166</ele>
        <time>2018-12-29T12:22:11Z</time>
      </trkpt>
      <trkpt lat="41.282233586534858" lon="1.410409938544035">
        <ele>166</ele>
        <time>2018-12-29T12:22:12Z</time>
      </trkpt>
      <trkpt lat="41.282238867133856" lon="1.41051085665822">
        <ele>166.19999694824219</ele>
        <time>2018-12-29T12:22:13Z</time>
      </trkpt>
      <trkpt lat="41.282241968438029" lon="1.410710848867893">
        <ele>166</ele>
        <time>2018-12-29T12:22:15Z</time>
      </trkpt>
      <trkpt lat="41.282246243208647" lon="1.410909667611122">
        <ele>165.60000610351562</ele>
        <time>2018-12-29T12:22:17Z</time>
      </trkpt>
      <trkpt lat="41.282251691445708" lon="1.411107061430812">
        <ele>165.80000305175781</ele>
        <time>2018-12-29T12:22:19Z</time>
      </trkpt>
      <trkpt lat="41.28226107917726" lon="1.411308981478214">
        <ele>166</ele>
        <time>2018-12-29T12:22:21Z</time>
      </trkpt>
      <trkpt lat="41.282270634546876" lon="1.411514086648822">
        <ele>166</ele>
        <time>2018-12-29T12:22:23Z</time>
      </trkpt>
      <trkpt lat="41.282276250422001" lon="1.411720030009747">
        <ele>165.80000305175781</ele>
        <time>2018-12-29T12:22:25Z</time>
      </trkpt>
      <trkpt lat="41.282283458858728" lon="1.411926057189703">
        <ele>165.60000610351562</ele>
        <time>2018-12-29T12:22:27Z</time>
      </trkpt>
      <trkpt lat="41.282290499657393" lon="1.412129402160645">
        <ele>165.39999389648437</ele>
        <time>2018-12-29T12:22:29Z</time>
      </trkpt>
      <trkpt lat="41.282294187694788" lon="1.412232080474496">
        <ele>165.39999389648437</ele>
        <time>2018-12-29T12:22:30Z</time>
      </trkpt>
      <trkpt lat="41.282299133017659" lon="1.412334674969316">
        <ele>165.80000305175781</ele>
        <time>2018-12-29T12:22:31Z</time>
      </trkpt>
      <trkpt lat="41.282304162159562" lon="1.412434838712215">
        <ele>165.80000305175781</ele>
        <time>2018-12-29T12:22:32Z</time>
      </trkpt>
      <trkpt lat="41.282307347282767" lon="1.412536343559623">
        <ele>165.80000305175781</ele>
        <time>2018-12-29T12:22:33Z</time>
      </trkpt>
      <trkpt lat="41.282314052805305" lon="1.412736922502518">
        <ele>165.60000610351562</ele>
        <time>2018-12-29T12:22:35Z</time>
      </trkpt>
      <trkpt lat="41.282319501042366" lon="1.412934316322208">
        <ele>165.39999389648437</ele>
        <time>2018-12-29T12:22:37Z</time>
      </trkpt>
      <trkpt lat="41.282327631488442" lon="1.413128022104502">
        <ele>165.19999694824219</ele>
        <time>2018-12-29T12:22:39Z</time>
      </trkpt>
      <trkpt lat="41.28233433701098" lon="1.413321476429701">
        <ele>165.39999389648437</ele>
        <time>2018-12-29T12:22:41Z</time>
      </trkpt>
      <trkpt lat="41.282339030876756" lon="1.413418287411332">
        <ele>165.39999389648437</ele>
        <time>2018-12-29T12:22:42Z</time>
      </trkpt>
      <trkpt lat="41.282343389466405" lon="1.413514511659741">
        <ele>165.39999389648437</ele>
        <time>2018-12-29T12:22:43Z</time>
      </trkpt>
      <trkpt lat="41.282351352274418" lon="1.413708720356226">
        <ele>165.80000305175781</ele>
        <time>2018-12-29T12:22:45Z</time>
      </trkpt>
      <trkpt lat="41.282353028655052" lon="1.413901671767235">
        <ele>165.80000305175781</ele>
        <time>2018-12-29T12:22:47Z</time>
      </trkpt>
      <trkpt lat="41.282357554882765" lon="1.414096467196941">
        <ele>165.80000305175781</ele>
        <time>2018-12-29T12:22:49Z</time>
      </trkpt>
      <trkpt lat="41.282365098595619" lon="1.414290089160204">
        <ele>166</ele>
        <time>2018-12-29T12:22:51Z</time>
      </trkpt>
      <trkpt lat="41.282373480498791" lon="1.414487902075052">
        <ele>165.80000305175781</ele>
        <time>2018-12-29T12:22:53Z</time>
      </trkpt>
      <trkpt lat="41.282384041696787" lon="1.414684122428298">
        <ele>166</ele>
        <time>2018-12-29T12:22:55Z</time>
      </trkpt>
      <trkpt lat="41.2823885679245" lon="1.414875229820609">
        <ele>166</ele>
        <time>2018-12-29T12:22:57Z</time>
      </trkpt>
      <trkpt lat="41.282395860180259" lon="1.415063152089715">
        <ele>165.80000305175781</ele>
        <time>2018-12-29T12:22:59Z</time>
      </trkpt>
      <trkpt lat="41.282400973141193" lon="1.415250487625599">
        <ele>165.80000305175781</ele>
        <time>2018-12-29T12:23:01Z</time>
      </trkpt>
      <trkpt lat="41.282405415549874" lon="1.415438912808895">
        <ele>165.80000305175781</ele>
        <time>2018-12-29T12:23:03Z</time>
      </trkpt>
      <trkpt lat="41.282415390014648" lon="1.415628511458635">
        <ele>166.19999694824219</ele>
        <time>2018-12-29T12:23:05Z</time>
      </trkpt>
      <trkpt lat="41.282420754432678" lon="1.415814338251948">
        <ele>166.19999694824219</ele>
        <time>2018-12-29T12:23:07Z</time>
      </trkpt>
      <trkpt lat="41.282424023374915" lon="1.415997734293342">
        <ele>166</ele>
        <time>2018-12-29T12:23:09Z</time>
      </trkpt>
      <trkpt lat="41.282427292317152" lon="1.416087504476309">
        <ele>166.19999694824219</ele>
        <time>2018-12-29T12:23:10Z</time>
      </trkpt>
      <trkpt lat="41.282430058345199" lon="1.41617794521153">
        <ele>166.39999389648437</ele>
        <time>2018-12-29T12:23:11Z</time>
      </trkpt>
      <trkpt lat="41.28243500366807" lon="1.416358659043908">
        <ele>166.19999694824219</ele>
        <time>2018-12-29T12:23:13Z</time>
      </trkpt>
      <trkpt lat="41.282440787181258" lon="1.41653903760016">
        <ele>166.19999694824219</ele>
        <time>2018-12-29T12:23:15Z</time>
      </trkpt>
      <trkpt lat="41.282450007274747" lon="1.416719164699316">
        <ele>166.19999694824219</ele>
        <time>2018-12-29T12:23:17Z</time>
      </trkpt>
      <trkpt lat="41.28245604224503" lon="1.416898621246219">
        <ele>166.60000610351562</ele>
        <time>2018-12-29T12:23:19Z</time>
      </trkpt>
      <trkpt lat="41.28246190957725" lon="1.417075144127011">
        <ele>166.39999389648437</ele>
        <time>2018-12-29T12:23:21Z</time>
      </trkpt>
      <trkpt lat="41.282466687262058" lon="1.417245045304298">
        <ele>166.39999389648437</ele>
        <time>2018-12-29T12:23:23Z</time>
      </trkpt>
      <trkpt lat="41.282468531280756" lon="1.417414024472237">
        <ele>166.60000610351562</ele>
        <time>2018-12-29T12:23:25Z</time>
      </trkpt>
      <trkpt lat="41.282471967861056" lon="1.417499519884586">
        <ele>166.39999389648437</ele>
        <time>2018-12-29T12:23:26Z</time>
      </trkpt>
      <trkpt lat="41.282474985346198" lon="1.417584596201778">
        <ele>166.19999694824219</ele>
        <time>2018-12-29T12:23:27Z</time>
      </trkpt>
      <trkpt lat="41.282478673383594" lon="1.417754497379065">
        <ele>166.39999389648437</ele>
        <time>2018-12-29T12:23:29Z</time>
      </trkpt>
      <trkpt lat="41.282484037801623" lon="1.417919369414449">
        <ele>166.80000305175781</ele>
        <time>2018-12-29T12:23:31Z</time>
      </trkpt>
      <trkpt lat="41.282489988952875" lon="1.418075356632471">
        <ele>167</ele>
        <time>2018-12-29T12:23:33Z</time>
      </trkpt>
      <trkpt lat="41.2824921682477" lon="1.418149955570698">
        <ele>167</ele>
        <time>2018-12-29T12:23:34Z</time>
      </trkpt>
      <trkpt lat="41.282495940104127" lon="1.418222039937973">
        <ele>167.19999694824219</ele>
        <time>2018-12-29T12:23:35Z</time>
      </trkpt>
      <trkpt lat="41.282498119398952" lon="1.418290855363011">
        <ele>167.39999389648437</ele>
        <time>2018-12-29T12:23:36Z</time>
      </trkpt>
      <trkpt lat="41.282502058893442" lon="1.418361430987716">
        <ele>167.60000610351562</ele>
        <time>2018-12-29T12:23:37Z</time>
      </trkpt>
      <trkpt lat="41.282510524615645" lon="1.418505096808076">
        <ele>168.39999389648437</ele>
        <time>2018-12-29T12:23:39Z</time>
      </trkpt>
      <trkpt lat="41.282511530444026" lon="1.418577181175351">
        <ele>168.39999389648437</ele>
        <time>2018-12-29T12:23:40Z</time>
      </trkpt>
      <trkpt lat="41.282512452453375" lon="1.418650606647134">
        <ele>168.39999389648437</ele>
        <time>2018-12-29T12:23:41Z</time>
      </trkpt>
      <trkpt lat="41.282512033358216" lon="1.418723193928599">
        <ele>168.39999389648437</ele>
        <time>2018-12-29T12:23:42Z</time>
      </trkpt>
      <trkpt lat="41.282514296472073" lon="1.418796870857477">
        <ele>168.60000610351562</ele>
        <time>2018-12-29T12:23:43Z</time>
      </trkpt>
      <trkpt lat="41.282519577071071" lon="1.418940704315901">
        <ele>168.80000305175781</ele>
        <time>2018-12-29T12:23:45Z</time>
      </trkpt>
      <trkpt lat="41.282521672546864" lon="1.419077077880502">
        <ele>169.19999694824219</ele>
        <time>2018-12-29T12:23:47Z</time>
      </trkpt>
      <trkpt lat="41.282524187117815" lon="1.419141786172986">
        <ele>169.60000610351562</ele>
        <time>2018-12-29T12:23:48Z</time>
      </trkpt>
      <trkpt lat="41.282528378069401" lon="1.419205153360963">
        <ele>170</ele>
        <time>2018-12-29T12:23:49Z</time>
      </trkpt>
      <trkpt lat="41.282530725002289" lon="1.419269107282162">
        <ele>170.19999694824219</ele>
        <time>2018-12-29T12:23:50Z</time>
      </trkpt>
      <trkpt lat="41.282533910125494" lon="1.419332725927234">
        <ele>170.39999389648438</ele>
        <time>2018-12-29T12:23:51Z</time>
      </trkpt>
      <trkpt lat="41.282536340877414" lon="1.41939165070653">
        <ele>170.60000610351562</ele>
        <time>2018-12-29T12:23:52Z</time>
      </trkpt>
      <trkpt lat="41.282539274543524" lon="1.419446049258113">
        <ele>170.80000305175781</ele>
        <time>2018-12-29T12:23:53Z</time>
      </trkpt>
      <trkpt lat="41.282542794942856" lon="1.419552667066455">
        <ele>171.19999694824219</ele>
        <time>2018-12-29T12:23:55Z</time>
      </trkpt>
      <trkpt lat="41.282547069713473" lon="1.419656770303845">
        <ele>171.80000305175781</ele>
        <time>2018-12-29T12:23:57Z</time>
      </trkpt>
      <trkpt lat="41.282554613426328" lon="1.419758275151253">
        <ele>172.39999389648437</ele>
        <time>2018-12-29T12:23:59Z</time>
      </trkpt>
      <trkpt lat="41.282560816034675" lon="1.419857097789645">
        <ele>172.80000305175781</ele>
        <time>2018-12-29T12:24:01Z</time>
      </trkpt>
      <trkpt lat="41.282558217644691" lon="1.419955082237721">
        <ele>173.39999389648437</ele>
        <time>2018-12-29T12:24:03Z</time>
      </trkpt>
      <trkpt lat="41.282560145482421" lon="1.4200459420681">
        <ele>173.60000610351562</ele>
        <time>2018-12-29T12:24:05Z</time>
      </trkpt>
      <trkpt lat="41.282562324777246" lon="1.420090198516846">
        <ele>173.80000305175781</ele>
        <time>2018-12-29T12:24:06Z</time>
      </trkpt>
      <trkpt lat="41.282566348090768" lon="1.420132275670767">
        <ele>174</ele>
        <time>2018-12-29T12:24:07Z</time>
      </trkpt>
      <trkpt lat="41.282570119947195" lon="1.420220118016005">
        <ele>174.39999389648437</ele>
        <time>2018-12-29T12:24:09Z</time>
      </trkpt>
      <trkpt lat="41.282570287585258" lon="1.420307876542211">
        <ele>174.80000305175781</ele>
        <time>2018-12-29T12:24:11Z</time>
      </trkpt>
      <trkpt lat="41.282569030299783" lon="1.420350456610322">
        <ele>175</ele>
        <time>2018-12-29T12:24:12Z</time>
      </trkpt>
      <trkpt lat="41.282571544870734" lon="1.420389851555228">
        <ele>175.19999694824219</ele>
        <time>2018-12-29T12:24:13Z</time>
      </trkpt>
      <trkpt lat="41.282567856833339" lon="1.420465037226677">
        <ele>175.60000610351562</ele>
        <time>2018-12-29T12:24:15Z</time>
      </trkpt>
      <trkpt lat="41.282556625083089" lon="1.420544162392616">
        <ele>176</ele>
        <time>2018-12-29T12:24:17Z</time>
      </trkpt>
      <trkpt lat="41.28252737224102" lon="1.420616414397955">
        <ele>176.60000610351562</ele>
        <time>2018-12-29T12:24:19Z</time>
      </trkpt>
      <trkpt lat="41.28249753266573" lon="1.42068263143301">
        <ele>177</ele>
        <time>2018-12-29T12:24:21Z</time>
      </trkpt>
      <trkpt lat="41.282457802444696" lon="1.42073979601264">
        <ele>177.19999694824219</ele>
        <time>2018-12-29T12:24:23Z</time>
      </trkpt>
      <trkpt lat="41.282410779967904" lon="1.420794446021318">
        <ele>177.60000610351562</ele>
        <time>2018-12-29T12:24:25Z</time>
      </trkpt>
      <trkpt lat="41.282388065010309" lon="1.420822106301785">
        <ele>177.80000305175781</ele>
        <time>2018-12-29T12:24:26Z</time>
      </trkpt>
      <trkpt lat="41.282366104424" lon="1.420850101858378">
        <ele>178</ele>
        <time>2018-12-29T12:24:27Z</time>
      </trkpt>
      <trkpt lat="41.282344395294785" lon="1.420883126556873">
        <ele>178</ele>
        <time>2018-12-29T12:24:28Z</time>
      </trkpt>
      <trkpt lat="41.282324697822332" lon="1.420918414369226">
        <ele>178.19999694824219</ele>
        <time>2018-12-29T12:24:29Z</time>
      </trkpt>
      <trkpt lat="41.282296031713486" lon="1.420992845669389">
        <ele>178.39999389648437</ele>
        <time>2018-12-29T12:24:31Z</time>
      </trkpt>
      <trkpt lat="41.282277423888445" lon="1.421071719378233">
        <ele>178.60000610351562</ele>
        <time>2018-12-29T12:24:33Z</time>
      </trkpt>
      <trkpt lat="41.282271724194288" lon="1.421151934191585">
        <ele>178.80000305175781</ele>
        <time>2018-12-29T12:24:35Z</time>
      </trkpt>
      <trkpt lat="41.28228303976357" lon="1.421235585585237">
        <ele>178.80000305175781</ele>
        <time>2018-12-29T12:24:37Z</time>
      </trkpt>
      <trkpt lat="41.282292762771249" lon="1.421275231987238">
        <ele>178.80000305175781</ele>
        <time>2018-12-29T12:24:38Z</time>
      </trkpt>
      <trkpt lat="41.282304329797626" lon="1.421314291656017">
        <ele>178.80000305175781</ele>
        <time>2018-12-29T12:24:39Z</time>
      </trkpt>
      <trkpt lat="41.282329056411982" lon="1.421392327174544">
        <ele>178.80000305175781</ele>
        <time>2018-12-29T12:24:41Z</time>
      </trkpt>
      <trkpt lat="41.282338779419661" lon="1.421478493139148">
        <ele>179</ele>
        <time>2018-12-29T12:24:43Z</time>
      </trkpt>
      <trkpt lat="41.282337186858058" lon="1.421521240845323">
        <ele>179</ele>
        <time>2018-12-29T12:24:44Z</time>
      </trkpt>
      <trkpt lat="41.282330984249711" lon="1.421559546142817">
        <ele>179.19999694824219</ele>
        <time>2018-12-29T12:24:45Z</time>
      </trkpt>
      <trkpt lat="41.282313801348209" lon="1.421637665480375">
        <ele>179.39999389648437</ele>
        <time>2018-12-29T12:24:47Z</time>
      </trkpt>
      <trkpt lat="41.282293600961566" lon="1.421722825616598">
        <ele>179.80000305175781</ele>
        <time>2018-12-29T12:24:49Z</time>
      </trkpt>
      <trkpt lat="41.282285386696458" lon="1.42176833935082">
        <ele>179.80000305175781</ele>
        <time>2018-12-29T12:24:50Z</time>
      </trkpt>
      <trkpt lat="41.282282117754221" lon="1.421815445646644">
        <ele>179.80000305175781</ele>
        <time>2018-12-29T12:24:51Z</time>
      </trkpt>
      <trkpt lat="41.282287063077092" lon="1.421909239143133">
        <ele>180</ele>
        <time>2018-12-29T12:24:53Z</time>
      </trkpt>
      <trkpt lat="41.28230064176023" lon="1.421993644908071">
        <ele>180</ele>
        <time>2018-12-29T12:24:55Z</time>
      </trkpt>
      <trkpt lat="41.282327631488442" lon="1.42206933349371">
        <ele>180</ele>
        <time>2018-12-29T12:24:57Z</time>
      </trkpt>
      <trkpt lat="41.282347831875086" lon="1.422103447839618">
        <ele>180.19999694824219</ele>
        <time>2018-12-29T12:24:58Z</time>
      </trkpt>
      <trkpt lat="41.282369205728173" lon="1.422136975452304">
        <ele>180.39999389648437</ele>
        <time>2018-12-29T12:24:59Z</time>
      </trkpt>
      <trkpt lat="41.282395692542195" lon="1.422165641561151">
        <ele>180.60000610351562</ele>
        <time>2018-12-29T12:25:00Z</time>
      </trkpt>
      <trkpt lat="41.282423352822661" lon="1.422192044556141">
        <ele>180.60000610351562</ele>
        <time>2018-12-29T12:25:01Z</time>
      </trkpt>
      <trkpt lat="41.282484205439687" lon="1.422237725928426">
        <ele>180.39999389648437</ele>
        <time>2018-12-29T12:25:03Z</time>
      </trkpt>
      <trkpt lat="41.282549751922488" lon="1.422263290733099">
        <ele>180.39999389648437</ele>
        <time>2018-12-29T12:25:05Z</time>
      </trkpt>
      <trkpt lat="41.28258453682065" lon="1.422271253541112">
        <ele>180.39999389648437</ele>
        <time>2018-12-29T12:25:06Z</time>
      </trkpt>
      <trkpt lat="41.282619573175907" lon="1.422280976548791">
        <ele>180.39999389648437</ele>
        <time>2018-12-29T12:25:07Z</time>
      </trkpt>
      <trkpt lat="41.282689813524485" lon="1.422307714819908">
        <ele>180.39999389648437</ele>
        <time>2018-12-29T12:25:09Z</time>
      </trkpt>
      <trkpt lat="41.282750582322478" lon="1.422367226332426">
        <ele>180.60000610351562</ele>
        <time>2018-12-29T12:25:11Z</time>
      </trkpt>
      <trkpt lat="41.282772123813629" lon="1.422413159161806">
        <ele>180.60000610351562</ele>
        <time>2018-12-29T12:25:12Z</time>
      </trkpt>
      <trkpt lat="41.282784612849355" lon="1.422465965151787">
        <ele>180.60000610351562</ele>
        <time>2018-12-29T12:25:13Z</time>
      </trkpt>
      <trkpt lat="41.282782768830657" lon="1.422571409493685">
        <ele>180.80000305175781</ele>
        <time>2018-12-29T12:25:15Z</time>
      </trkpt>
      <trkpt lat="41.282776901498437" lon="1.422619856894016">
        <ele>181</ele>
        <time>2018-12-29T12:25:16Z</time>
      </trkpt>
      <trkpt lat="41.28276483155787" lon="1.422671489417553">
        <ele>181.19999694824219</ele>
        <time>2018-12-29T12:25:17Z</time>
      </trkpt>
      <trkpt lat="41.282754940912127" lon="1.422723708674312">
        <ele>181.39999389648437</ele>
        <time>2018-12-29T12:25:18Z</time>
      </trkpt>
      <trkpt lat="41.282744463533163" lon="1.422776598483324">
        <ele>181.60000610351562</ele>
        <time>2018-12-29T12:25:19Z</time>
      </trkpt>
      <trkpt lat="41.282723844051361" lon="1.422882881015539">
        <ele>181.60000610351562</ele>
        <time>2018-12-29T12:25:21Z</time>
      </trkpt>
      <trkpt lat="41.282696267589927" lon="1.422985559329391">
        <ele>182</ele>
        <time>2018-12-29T12:25:23Z</time>
      </trkpt>
      <trkpt lat="41.282666008919477" lon="1.423082537949085">
        <ele>182.19999694824219</ele>
        <time>2018-12-29T12:25:25Z</time>
      </trkpt>
      <trkpt lat="41.28262803889811" lon="1.423173565417528">
        <ele>182.60000610351562</ele>
        <time>2018-12-29T12:25:27Z</time>
      </trkpt>
      <trkpt lat="41.282587219029665" lon="1.423257635906339">
        <ele>183</ele>
        <time>2018-12-29T12:25:29Z</time>
      </trkpt>
      <trkpt lat="41.282548746094108" lon="1.423345729708672">
        <ele>183.19999694824219</ele>
        <time>2018-12-29T12:25:31Z</time>
      </trkpt>
      <trkpt lat="41.28250977024436" lon="1.423430135473609">
        <ele>183.80000305175781</ele>
        <time>2018-12-29T12:25:33Z</time>
      </trkpt>
      <trkpt lat="41.282472722232342" lon="1.423507751896977">
        <ele>184.19999694824219</ele>
        <time>2018-12-29T12:25:35Z</time>
      </trkpt>
      <trkpt lat="41.282439446076751" lon="1.423578411340714">
        <ele>184.80000305175781</ele>
        <time>2018-12-29T12:25:37Z</time>
      </trkpt>
      <trkpt lat="41.282404409721494" lon="1.423649238422513">
        <ele>185.19999694824219</ele>
        <time>2018-12-29T12:25:39Z</time>
      </trkpt>
      <trkpt lat="41.282367613166571" lon="1.423719227313995">
        <ele>185.80000305175781</ele>
        <time>2018-12-29T12:25:41Z</time>
      </trkpt>
      <trkpt lat="41.282350933179259" lon="1.423754934221506">
        <ele>186</ele>
        <time>2018-12-29T12:25:42Z</time>
      </trkpt>
      <trkpt lat="41.282336935400963" lon="1.423790976405144">
        <ele>186.39999389648437</ele>
        <time>2018-12-29T12:25:43Z</time>
      </trkpt>
      <trkpt lat="41.282310616225004" lon="1.423863060772419">
        <ele>186.80000305175781</ele>
        <time>2018-12-29T12:25:45Z</time>
      </trkpt>
      <trkpt lat="41.282298462465405" lon="1.423898600041866">
        <ele>187.19999694824219</ele>
        <time>2018-12-29T12:25:46Z</time>
      </trkpt>
      <trkpt lat="41.282288068905473" lon="1.423934558406472">
        <ele>187.39999389648437</ele>
        <time>2018-12-29T12:25:47Z</time>
      </trkpt>
      <trkpt lat="41.282262587919831" lon="1.424004044383764">
        <ele>188</ele>
        <time>2018-12-29T12:25:49Z</time>
      </trkpt>
      <trkpt lat="41.282249847427011" lon="1.424039583653212">
        <ele>188.19999694824219</ele>
        <time>2018-12-29T12:25:50Z</time>
      </trkpt>
      <trkpt lat="41.282237861305475" lon="1.4240747038275">
        <ele>188.19999694824219</ele>
        <time>2018-12-29T12:25:51Z</time>
      </trkpt>
      <trkpt lat="41.28221707418561" lon="1.424151230603457">
        <ele>188.60000610351562</ele>
        <time>2018-12-29T12:25:53Z</time>
      </trkpt>
      <trkpt lat="41.282208440825343" lon="1.42419096082449">
        <ele>188.80000305175781</ele>
        <time>2018-12-29T12:25:54Z</time>
      </trkpt>
      <trkpt lat="41.282202322036028" lon="1.424231445416808">
        <ele>189.19999694824219</ele>
        <time>2018-12-29T12:25:55Z</time>
      </trkpt>
      <trkpt lat="41.282197963446379" lon="1.424273103475571">
        <ele>189.39999389648437</ele>
        <time>2018-12-29T12:25:56Z</time>
      </trkpt>
      <trkpt lat="41.282195867970586" lon="1.424314007163048">
        <ele>189.60000610351562</ele>
        <time>2018-12-29T12:25:57Z</time>
      </trkpt>
      <trkpt lat="41.282185558229685" lon="1.424394892528653">
        <ele>189.80000305175781</ele>
        <time>2018-12-29T12:25:59Z</time>
      </trkpt>
      <trkpt lat="41.282176002860069" lon="1.424479549750686">
        <ele>190.19999694824219</ele>
        <time>2018-12-29T12:26:01Z</time>
      </trkpt>
      <trkpt lat="41.28217357210815" lon="1.424523303285241">
        <ele>190.60000610351562</ele>
        <time>2018-12-29T12:26:02Z</time>
      </trkpt>
      <trkpt lat="41.282170554623008" lon="1.424566470086575">
        <ele>190.60000610351562</ele>
        <time>2018-12-29T12:26:03Z</time>
      </trkpt>
      <trkpt lat="41.282164687290788" lon="1.424655569717288">
        <ele>191</ele>
        <time>2018-12-29T12:26:05Z</time>
      </trkpt>
      <trkpt lat="41.282173991203308" lon="1.424742573872209">
        <ele>191.19999694824219</ele>
        <time>2018-12-29T12:26:07Z</time>
      </trkpt>
      <trkpt lat="41.282184049487114" lon="1.424824213609099">
        <ele>191.39999389648437</ele>
        <time>2018-12-29T12:26:09Z</time>
      </trkpt>
      <trkpt lat="41.282187066972256" lon="1.42486528493464">
        <ele>191.39999389648437</ele>
        <time>2018-12-29T12:26:10Z</time>
      </trkpt>
      <trkpt lat="41.282189916819334" lon="1.424905266612768">
        <ele>191.80000305175781</ele>
        <time>2018-12-29T12:26:11Z</time>
      </trkpt>
      <trkpt lat="41.282195867970586" lon="1.424986319616437">
        <ele>192.39999389648437</ele>
        <time>2018-12-29T12:26:13Z</time>
      </trkpt>
      <trkpt lat="41.282195197418332" lon="1.425067791715264">
        <ele>192.60000610351562</ele>
        <time>2018-12-29T12:26:15Z</time>
      </trkpt>
      <trkpt lat="41.282194778323174" lon="1.425108108669519">
        <ele>192.80000305175781</ele>
        <time>2018-12-29T12:26:16Z</time>
      </trkpt>
      <trkpt lat="41.282194191589952" lon="1.425146581605077">
        <ele>193</ele>
        <time>2018-12-29T12:26:17Z</time>
      </trkpt>
      <trkpt lat="41.282197125256062" lon="1.425184216350317">
        <ele>193</ele>
        <time>2018-12-29T12:26:18Z</time>
      </trkpt>
      <trkpt lat="41.282201316207647" lon="1.425217241048813">
        <ele>193</ele>
        <time>2018-12-29T12:26:19Z</time>
      </trkpt>
      <trkpt lat="41.282206596806645" lon="1.425287900492549">
        <ele>193.39999389648437</ele>
        <time>2018-12-29T12:26:21Z</time>
      </trkpt>
      <trkpt lat="41.282211290672421" lon="1.425360906869173">
        <ele>193.60000610351562</ele>
        <time>2018-12-29T12:26:23Z</time>
      </trkpt>
      <trkpt lat="41.282212547957897" lon="1.425400217995048">
        <ele>193.80000305175781</ele>
        <time>2018-12-29T12:26:24Z</time>
      </trkpt>
      <trkpt lat="41.282215984538198" lon="1.425438858568668">
        <ele>194</ele>
        <time>2018-12-29T12:26:25Z</time>
      </trkpt>
      <trkpt lat="41.282223360612988" lon="1.425519241020083">
        <ele>194.19999694824219</ele>
        <time>2018-12-29T12:26:27Z</time>
      </trkpt>
      <trkpt lat="41.282231574878097" lon="1.425600126385689">
        <ele>194.39999389648437</ele>
        <time>2018-12-29T12:26:29Z</time>
      </trkpt>
      <trkpt lat="41.282234424725175" lon="1.425674557685852">
        <ele>194.60000610351562</ele>
        <time>2018-12-29T12:26:31Z</time>
      </trkpt>
      <trkpt lat="41.282242136076093" lon="1.42574873752892">
        <ele>194.60000610351562</ele>
        <time>2018-12-29T12:26:33Z</time>
      </trkpt>
      <trkpt lat="41.282248590141535" lon="1.425823839381337">
        <ele>195</ele>
        <time>2018-12-29T12:26:35Z</time>
      </trkpt>
      <trkpt lat="41.282253535464406" lon="1.425903383642435">
        <ele>195</ele>
        <time>2018-12-29T12:26:37Z</time>
      </trkpt>
      <trkpt lat="41.282258816063404" lon="1.42598913051188">
        <ele>195</ele>
        <time>2018-12-29T12:26:39Z</time>
      </trkpt>
      <trkpt lat="41.282260743901134" lon="1.426077391952276">
        <ele>195</ele>
        <time>2018-12-29T12:26:41Z</time>
      </trkpt>
      <trkpt lat="41.282264264300466" lon="1.426165988668799">
        <ele>195</ele>
        <time>2018-12-29T12:26:43Z</time>
      </trkpt>
      <trkpt lat="41.282264599576592" lon="1.426260452717543">
        <ele>195.19999694824219</ele>
        <time>2018-12-29T12:26:45Z</time>
      </trkpt>
      <trkpt lat="41.282265186309814" lon="1.426355000585318">
        <ele>195.39999389648437</ele>
        <time>2018-12-29T12:26:47Z</time>
      </trkpt>
      <trkpt lat="41.282265773043036" lon="1.426448207348585">
        <ele>195.60000610351562</ele>
        <time>2018-12-29T12:26:49Z</time>
      </trkpt>
      <trkpt lat="41.282263174653053" lon="1.426538480445743">
        <ele>195.80000305175781</ele>
        <time>2018-12-29T12:26:51Z</time>
      </trkpt>
      <trkpt lat="41.28226057626307" lon="1.426584664732218">
        <ele>196</ele>
        <time>2018-12-29T12:26:52Z</time>
      </trkpt>
      <trkpt lat="41.282256217673421" lon="1.426630346104503">
        <ele>196</ele>
        <time>2018-12-29T12:26:53Z</time>
      </trkpt>
      <trkpt lat="41.282248422503471" lon="1.426720703020692">
        <ele>196.19999694824219</ele>
        <time>2018-12-29T12:26:55Z</time>
      </trkpt>
      <trkpt lat="41.282239956781268" lon="1.426813490688801">
        <ele>196.39999389648437</ele>
        <time>2018-12-29T12:26:57Z</time>
      </trkpt>
      <trkpt lat="41.282237693667412" lon="1.426860513165593">
        <ele>196.60000610351562</ele>
        <time>2018-12-29T12:26:58Z</time>
      </trkpt>
      <trkpt lat="41.282232915982604" lon="1.426907535642386">
        <ele>196.60000610351562</ele>
        <time>2018-12-29T12:26:59Z</time>
      </trkpt>
      <trkpt lat="41.282225707545877" lon="1.426998898386955">
        <ele>196.80000305175781</ele>
        <time>2018-12-29T12:27:01Z</time>
      </trkpt>
      <trkpt lat="41.282215816900134" lon="1.427085399627686">
        <ele>197</ele>
        <time>2018-12-29T12:27:03Z</time>
      </trkpt>
      <trkpt lat="41.282209614291787" lon="1.427127476781607">
        <ele>197</ele>
        <time>2018-12-29T12:27:04Z</time>
      </trkpt>
      <trkpt lat="41.282204752787948" lon="1.427170056849718">
        <ele>197.19999694824219</ele>
        <time>2018-12-29T12:27:05Z</time>
      </trkpt>
      <trkpt lat="41.282198131084442" lon="1.427253792062402">
        <ele>197.60000610351562</ele>
        <time>2018-12-29T12:27:07Z</time>
      </trkpt>
      <trkpt lat="41.282190503552556" lon="1.427335264161229">
        <ele>197.80000305175781</ele>
        <time>2018-12-29T12:27:09Z</time>
      </trkpt>
      <trkpt lat="41.282188910990953" lon="1.427374659106135">
        <ele>198.19999694824219</ele>
        <time>2018-12-29T12:27:10Z</time>
      </trkpt>
      <trkpt lat="41.282187821343541" lon="1.427411958575249">
        <ele>198.39999389648437</ele>
        <time>2018-12-29T12:27:11Z</time>
      </trkpt>
      <trkpt lat="41.28218044526875" lon="1.427478427067399">
        <ele>198.80000305175781</ele>
        <time>2018-12-29T12:27:13Z</time>
      </trkpt>
      <trkpt lat="41.282174829393625" lon="1.427547326311469">
        <ele>199.19999694824219</ele>
        <time>2018-12-29T12:27:15Z</time>
      </trkpt>
      <trkpt lat="41.282166615128517" lon="1.427619075402618">
        <ele>199.80000305175781</ele>
        <time>2018-12-29T12:27:17Z</time>
      </trkpt>
      <trkpt lat="41.282156389206648" lon="1.427695769816637">
        <ele>200</ele>
        <time>2018-12-29T12:27:19Z</time>
      </trkpt>
      <trkpt lat="41.28215504810214" lon="1.42773550003767">
        <ele>200.39999389648437</ele>
        <time>2018-12-29T12:27:20Z</time>
      </trkpt>
      <trkpt lat="41.282150857150555" lon="1.427774894982576">
        <ele>200.39999389648437</ele>
        <time>2018-12-29T12:27:21Z</time>
      </trkpt>
      <trkpt lat="41.28214624710381" lon="1.427812278270721">
        <ele>200.80000305175781</ele>
        <time>2018-12-29T12:27:22Z</time>
      </trkpt>
      <trkpt lat="41.282141217961907" lon="1.427851002663374">
        <ele>201</ele>
        <time>2018-12-29T12:27:23Z</time>
      </trkpt>
      <trkpt lat="41.282131914049387" lon="1.427926775068045">
        <ele>201.39999389648437</ele>
        <time>2018-12-29T12:27:25Z</time>
      </trkpt>
      <trkpt lat="41.282123615965247" lon="1.428005564957857">
        <ele>201.80000305175781</ele>
        <time>2018-12-29T12:27:27Z</time>
      </trkpt>
      <trkpt lat="41.282114731147885" lon="1.428087959066033">
        <ele>202</ele>
        <time>2018-12-29T12:27:29Z</time>
      </trkpt>
      <trkpt lat="41.282112300395966" lon="1.428170939907432">
        <ele>202.19999694824219</ele>
        <time>2018-12-29T12:27:31Z</time>
      </trkpt>
      <trkpt lat="41.282111294567585" lon="1.428210251033306">
        <ele>202.19999694824219</ele>
        <time>2018-12-29T12:27:32Z</time>
      </trkpt>
      <trkpt lat="41.282109366729856" lon="1.428250148892403">
        <ele>202.39999389648437</ele>
        <time>2018-12-29T12:27:33Z</time>
      </trkpt>
      <trkpt lat="41.282106768339872" lon="1.428289292380214">
        <ele>202.60000610351562</ele>
        <time>2018-12-29T12:27:34Z</time>
      </trkpt>
      <trkpt lat="41.282105427235365" lon="1.428327597677708">
        <ele>202.60000610351562</ele>
        <time>2018-12-29T12:27:35Z</time>
      </trkpt>
      <trkpt lat="41.282094614580274" lon="1.42840538173914">
        <ele>203</ele>
        <time>2018-12-29T12:27:37Z</time>
      </trkpt>
      <trkpt lat="41.282082628458738" lon="1.428486602380872">
        <ele>203.19999694824219</ele>
        <time>2018-12-29T12:27:39Z</time>
      </trkpt>
      <trkpt lat="41.282077515497804" lon="1.42852708697319">
        <ele>203.19999694824219</ele>
        <time>2018-12-29T12:27:40Z</time>
      </trkpt>
      <trkpt lat="41.282073492184281" lon="1.428568158298731">
        <ele>203.39999389648437</ele>
        <time>2018-12-29T12:27:41Z</time>
      </trkpt>
      <trkpt lat="41.282070223242044" lon="1.428610319271684">
        <ele>203.60000610351562</ele>
        <time>2018-12-29T12:27:42Z</time>
      </trkpt>
      <trkpt lat="41.282066451385617" lon="1.428649462759495">
        <ele>203.80000305175781</ele>
        <time>2018-12-29T12:27:43Z</time>
      </trkpt>
      <trkpt lat="41.282051699236035" lon="1.428728336468339">
        <ele>204</ele>
        <time>2018-12-29T12:27:45Z</time>
      </trkpt>
      <trkpt lat="41.282035354524851" lon="1.428807629272342">
        <ele>204.39999389648437</ele>
        <time>2018-12-29T12:27:47Z</time>
      </trkpt>
      <trkpt lat="41.282021775841713" lon="1.428890358656645">
        <ele>204.60000610351562</ele>
        <time>2018-12-29T12:27:49Z</time>
      </trkpt>
      <trkpt lat="41.282006604596972" lon="1.428971160203219">
        <ele>205</ele>
        <time>2018-12-29T12:27:51Z</time>
      </trkpt>
      <trkpt lat="41.281988918781281" lon="1.429054057225585">
        <ele>205.19999694824219</ele>
        <time>2018-12-29T12:27:53Z</time>
      </trkpt>
      <trkpt lat="41.281975843012333" lon="1.429135194048286">
        <ele>205.39999389648437</ele>
        <time>2018-12-29T12:27:55Z</time>
      </trkpt>
      <trkpt lat="41.281967209652066" lon="1.429175762459636">
        <ele>205.60000610351562</ele>
        <time>2018-12-29T12:27:56Z</time>
      </trkpt>
      <trkpt lat="41.281957570463419" lon="1.429217336699367">
        <ele>205.80000305175781</ele>
        <time>2018-12-29T12:27:57Z</time>
      </trkpt>
      <trkpt lat="41.28194784745574" lon="1.429259497672319">
        <ele>205.80000305175781</ele>
        <time>2018-12-29T12:27:58Z</time>
      </trkpt>
      <trkpt lat="41.281938124448061" lon="1.429299311712384">
        <ele>206</ele>
        <time>2018-12-29T12:27:59Z</time>
      </trkpt>
      <trkpt lat="41.281916415318847" lon="1.429380616173148">
        <ele>206.39999389648437</ele>
        <time>2018-12-29T12:28:01Z</time>
      </trkpt>
      <trkpt lat="41.281888419762254" lon="1.429463177919388">
        <ele>206.60000610351562</ele>
        <time>2018-12-29T12:28:03Z</time>
      </trkpt>
      <trkpt lat="41.281872326508164" lon="1.429506009444594">
        <ele>206.80000305175781</ele>
        <time>2018-12-29T12:28:04Z</time>
      </trkpt>
      <trkpt lat="41.281858747825027" lon="1.429544063284993">
        <ele>207</ele>
        <time>2018-12-29T12:28:05Z</time>
      </trkpt>
      <trkpt lat="41.281821113079786" lon="1.429626205936074">
        <ele>207</ele>
        <time>2018-12-29T12:28:07Z</time>
      </trkpt>
      <trkpt lat="41.281775683164597" lon="1.429707845672965">
        <ele>207.19999694824219</ele>
        <time>2018-12-29T12:28:09Z</time>
      </trkpt>
      <trkpt lat="41.281723380088806" lon="1.429789233952761">
        <ele>207.19999694824219</ele>
        <time>2018-12-29T12:28:11Z</time>
      </trkpt>
      <trkpt lat="41.281669149175286" lon="1.429871125146747">
        <ele>207.60000610351562</ele>
        <time>2018-12-29T12:28:13Z</time>
      </trkpt>
      <trkpt lat="41.281641237437725" lon="1.429909178987145">
        <ele>207.80000305175781</ele>
        <time>2018-12-29T12:28:14Z</time>
      </trkpt>
      <trkpt lat="41.281612068414688" lon="1.429947568103671">
        <ele>208</ele>
        <time>2018-12-29T12:28:15Z</time>
      </trkpt>
      <trkpt lat="41.281551299616694" lon="1.430013785138726">
        <ele>208.19999694824219</ele>
        <time>2018-12-29T12:28:17Z</time>
      </trkpt>
      <trkpt lat="41.281485836952925" lon="1.430074973031879">
        <ele>208.19999694824219</ele>
        <time>2018-12-29T12:28:19Z</time>
      </trkpt>
      <trkpt lat="41.281421380117536" lon="1.430137502029538">
        <ele>208.19999694824219</ele>
        <time>2018-12-29T12:28:21Z</time>
      </trkpt>
      <trkpt lat="41.281388020142913" lon="1.430166251957417">
        <ele>208.60000610351562</ele>
        <time>2018-12-29T12:28:22Z</time>
      </trkpt>
      <trkpt lat="41.2813541572541" lon="1.430195001885295">
        <ele>208.60000610351562</ele>
        <time>2018-12-29T12:28:23Z</time>
      </trkpt>
      <trkpt lat="41.281287269666791" lon="1.430251076817513">
        <ele>208.80000305175781</ele>
        <time>2018-12-29T12:28:25Z</time>
      </trkpt>
      <trkpt lat="41.281221136450768" lon="1.430306481197476">
        <ele>209.19999694824219</ele>
        <time>2018-12-29T12:28:27Z</time>
      </trkpt>
      <trkpt lat="41.281157601624727" lon="1.430357443168759">
        <ele>209.19999694824219</ele>
        <time>2018-12-29T12:28:29Z</time>
      </trkpt>
      <trkpt lat="41.281093815341592" lon="1.430407064035535">
        <ele>209.19999694824219</ele>
        <time>2018-12-29T12:28:31Z</time>
      </trkpt>
      <trkpt lat="41.281032292172313" lon="1.430458193644881">
        <ele>209.39999389648437</ele>
        <time>2018-12-29T12:28:33Z</time>
      </trkpt>
      <trkpt lat="41.281001530587673" lon="1.430484848096967">
        <ele>209.60000610351562</ele>
        <time>2018-12-29T12:28:34Z</time>
      </trkpt>
      <trkpt lat="41.280970433726907" lon="1.430509407073259">
        <ele>209.60000610351562</ele>
        <time>2018-12-29T12:28:35Z</time>
      </trkpt>
      <trkpt lat="41.280904551967978" lon="1.430561877787113">
        <ele>209.80000305175781</ele>
        <time>2018-12-29T12:28:37Z</time>
      </trkpt>
      <trkpt lat="41.280871778726578" lon="1.430587442591786">
        <ele>210</ele>
        <time>2018-12-29T12:28:38Z</time>
      </trkpt>
      <trkpt lat="41.28083917312324" lon="1.430610744282603">
        <ele>210</ele>
        <time>2018-12-29T12:28:39Z</time>
      </trkpt>
      <trkpt lat="41.280775805935264" lon="1.43066237680614">
        <ele>210.19999694824219</ele>
        <time>2018-12-29T12:28:41Z</time>
      </trkpt>
      <trkpt lat="41.280711516737938" lon="1.430715434253216">
        <ele>210.19999694824219</ele>
        <time>2018-12-29T12:28:43Z</time>
      </trkpt>
      <trkpt lat="41.280645215883851" lon="1.43076891079545">
        <ele>210.39999389648437</ele>
        <time>2018-12-29T12:28:45Z</time>
      </trkpt>
      <trkpt lat="41.280580256134272" lon="1.43081970512867">
        <ele>210.80000305175781</ele>
        <time>2018-12-29T12:28:47Z</time>
      </trkpt>
      <trkpt lat="41.280515715479851" lon="1.430868739262223">
        <ele>211</ele>
        <time>2018-12-29T12:28:49Z</time>
      </trkpt>
      <trkpt lat="41.280444050207734" lon="1.430921126157045">
        <ele>211.19999694824219</ele>
        <time>2018-12-29T12:28:51Z</time>
      </trkpt>
      <trkpt lat="41.280379425734282" lon="1.430980386212468">
        <ele>211.39999389648437</ele>
        <time>2018-12-29T12:28:53Z</time>
      </trkpt>
      <trkpt lat="41.280315136536956" lon="1.431035539135337">
        <ele>211.60000610351562</ele>
        <time>2018-12-29T12:28:55Z</time>
      </trkpt>
      <trkpt lat="41.280252523720264" lon="1.431091111153364">
        <ele>212</ele>
        <time>2018-12-29T12:28:57Z</time>
      </trkpt>
      <trkpt lat="41.28019267693162" lon="1.431138971820474">
        <ele>212.39999389648437</ele>
        <time>2018-12-29T12:28:59Z</time>
      </trkpt>
      <trkpt lat="41.280131740495563" lon="1.431187083944678">
        <ele>212.39999389648437</ele>
        <time>2018-12-29T12:29:01Z</time>
      </trkpt>
      <trkpt lat="41.280067367479205" lon="1.431239638477564">
        <ele>212.60000610351562</ele>
        <time>2018-12-29T12:29:03Z</time>
      </trkpt>
      <trkpt lat="41.280009029433131" lon="1.431310214102268">
        <ele>212.60000610351562</ele>
        <time>2018-12-29T12:29:05Z</time>
      </trkpt>
      <trkpt lat="41.27997575327754" lon="1.431344328448176">
        <ele>212.39999389648437</ele>
        <time>2018-12-29T12:29:06Z</time>
      </trkpt>
      <trkpt lat="41.279937950894237" lon="1.43137676641345">
        <ele>212.39999389648437</ele>
        <time>2018-12-29T12:29:07Z</time>
      </trkpt>
      <trkpt lat="41.279856646433473" lon="1.431447844952345">
        <ele>212.19999694824219</ele>
        <time>2018-12-29T12:29:09Z</time>
      </trkpt>
      <trkpt lat="41.279767882078886" lon="1.431518336758018">
        <ele>212</ele>
        <time>2018-12-29T12:29:11Z</time>
      </trkpt>
      <trkpt lat="41.279719602316618" lon="1.431547254323959">
        <ele>211.80000305175781</ele>
        <time>2018-12-29T12:29:12Z</time>
      </trkpt>
      <trkpt lat="41.279671490192413" lon="1.431581368669868">
        <ele>211.80000305175781</ele>
        <time>2018-12-29T12:29:14Z</time>
      </trkpt>
      <trkpt lat="41.279566632583737" lon="1.431642221286893">
        <ele>211.60000610351562</ele>
        <time>2018-12-29T12:29:16Z</time>
      </trkpt>
      <trkpt lat="41.279449872672558" lon="1.431674491614103">
        <ele>211.19999694824219</ele>
        <time>2018-12-29T12:29:18Z</time>
      </trkpt>
      <trkpt lat="41.279386589303613" lon="1.431681616231799">
        <ele>211</ele>
        <time>2018-12-29T12:29:19Z</time>
      </trkpt>
      <trkpt lat="41.279320791363716" lon="1.43168019130826">
        <ele>210.80000305175781</ele>
        <time>2018-12-29T12:29:20Z</time>
      </trkpt>
      <trkpt lat="41.279191793873906" lon="1.431635012850165">
        <ele>210.19999694824219</ele>
        <time>2018-12-29T12:29:22Z</time>
      </trkpt>
      <trkpt lat="41.279133707284927" lon="1.431588241830468">
        <ele>209.19999694824219</ele>
        <time>2018-12-29T12:29:23Z</time>
      </trkpt>
      <trkpt lat="41.279080482199788" lon="1.431527640670538">
        <ele>208.60000610351562</ele>
        <time>2018-12-29T12:29:24Z</time>
      </trkpt>
      <trkpt lat="41.279029939323664" lon="1.431458657607436">
        <ele>208</ele>
        <time>2018-12-29T12:29:25Z</time>
      </trkpt>
      <trkpt lat="41.278975708410144" lon="1.431390512734652">
        <ele>207.60000610351562</ele>
        <time>2018-12-29T12:29:26Z</time>
      </trkpt>
      <trkpt lat="41.278918460011482" lon="1.431320104748011">
        <ele>207.19999694824219</ele>
        <time>2018-12-29T12:29:27Z</time>
      </trkpt>
      <trkpt lat="41.278861463069916" lon="1.431248104199767">
        <ele>206.80000305175781</ele>
        <time>2018-12-29T12:29:28Z</time>
      </trkpt>
      <trkpt lat="41.278738416731358" lon="1.431099073961377">
        <ele>206.19999694824219</ele>
        <time>2018-12-29T12:29:30Z</time>
      </trkpt>
      <trkpt lat="41.278598438948393" lon="1.430964712053537">
        <ele>205.60000610351562</ele>
        <time>2018-12-29T12:29:32Z</time>
      </trkpt>
      <trkpt lat="41.278520990163088" lon="1.430907044559717">
        <ele>205</ele>
        <time>2018-12-29T12:29:33Z</time>
      </trkpt>
      <trkpt lat="41.278438763692975" lon="1.43085977062583">
        <ele>204.60000610351562</ele>
        <time>2018-12-29T12:29:34Z</time>
      </trkpt>
      <trkpt lat="41.278350334614515" lon="1.430830517783761">
        <ele>204.19999694824219</ele>
        <time>2018-12-29T12:29:35Z</time>
      </trkpt>
      <trkpt lat="41.278261737897992" lon="1.430814675986767">
        <ele>203.39999389648437</ele>
        <time>2018-12-29T12:29:36Z</time>
      </trkpt>
      <trkpt lat="41.278172135353088" lon="1.430796906352043">
        <ele>202.60000610351562</ele>
        <time>2018-12-29T12:29:37Z</time>
      </trkpt>
      <trkpt lat="41.278083203360438" lon="1.430774191394448">
        <ele>202</ele>
        <time>2018-12-29T12:29:38Z</time>
      </trkpt>
      <trkpt lat="41.277995025739074" lon="1.430745190009475">
        <ele>201.60000610351562</ele>
        <time>2018-12-29T12:29:39Z</time>
      </trkpt>
      <trkpt lat="41.277905590832233" lon="1.430726833641529">
        <ele>201.39999389648437</ele>
        <time>2018-12-29T12:29:40Z</time>
      </trkpt>
      <trkpt lat="41.277815317735076" lon="1.430723648518324">
        <ele>201</ele>
        <time>2018-12-29T12:29:41Z</time>
      </trkpt>
      <trkpt lat="41.277726301923394" lon="1.430741753429174">
        <ele>200.80000305175781</ele>
        <time>2018-12-29T12:29:42Z</time>
      </trkpt>
      <trkpt lat="41.277637872844934" lon="1.430755080655217">
        <ele>200.39999389648437</ele>
        <time>2018-12-29T12:29:43Z</time>
      </trkpt>
      <trkpt lat="41.277557574212551" lon="1.430784836411476">
        <ele>200</ele>
        <time>2018-12-29T12:29:44Z</time>
      </trkpt>
      <trkpt lat="41.27749839797616" lon="1.430856585502625">
        <ele>199.39999389648437</ele>
        <time>2018-12-29T12:29:45Z</time>
      </trkpt>
      <trkpt lat="41.277454476803541" lon="1.430951468646526">
        <ele>199</ele>
        <time>2018-12-29T12:29:46Z</time>
      </trkpt>
      <trkpt lat="41.277423044666648" lon="1.431036712601781">
        <ele>198</ele>
        <time>2018-12-29T12:29:47Z</time>
      </trkpt>
      <trkpt lat="41.277424301952124" lon="1.431136792525649">
        <ele>197.60000610351562</ele>
        <time>2018-12-29T12:29:48Z</time>
      </trkpt>
      <trkpt lat="41.277459505945444" lon="1.43125656992197">
        <ele>197</ele>
        <time>2018-12-29T12:29:49Z</time>
      </trkpt>
      <trkpt lat="41.277513736858964" lon="1.431396044790745">
        <ele>196.80000305175781</ele>
        <time>2018-12-29T12:29:50Z</time>
      </trkpt>
      <trkpt lat="41.277548437938094" lon="1.43166502006352">
        <ele>196.39999389648437</ele>
        <time>2018-12-29T12:29:52Z</time>
      </trkpt>
      <trkpt lat="41.277525303885341" lon="1.431779684498906">
        <ele>195.80000305175781</ele>
        <time>2018-12-29T12:29:53Z</time>
      </trkpt>
      <trkpt lat="41.27749253064394" lon="1.431898539885879">
        <ele>195.39999389648437</ele>
        <time>2018-12-29T12:29:54Z</time>
      </trkpt>
      <trkpt lat="41.277479203417897" lon="1.432029465213418">
        <ele>194.39999389648437</ele>
        <time>2018-12-29T12:29:55Z</time>
      </trkpt>
      <trkpt lat="41.277500158175826" lon="1.432160306721926">
        <ele>193.39999389648437</ele>
        <time>2018-12-29T12:29:56Z</time>
      </trkpt>
      <trkpt lat="41.277578864246607" lon="1.432422576472163">
        <ele>192</ele>
        <time>2018-12-29T12:29:58Z</time>
      </trkpt>
      <trkpt lat="41.277624126523733" lon="1.432551490142942">
        <ele>191.39999389648437</ele>
        <time>2018-12-29T12:29:59Z</time>
      </trkpt>
      <trkpt lat="41.277665784582496" lon="1.432685265317559">
        <ele>190.80000305175781</ele>
        <time>2018-12-29T12:30:00Z</time>
      </trkpt>
      <trkpt lat="41.277724709361792" lon="1.432974105700851">
        <ele>190</ele>
        <time>2018-12-29T12:30:02Z</time>
      </trkpt>
      <trkpt lat="41.27774122171104" lon="1.433129170909524">
        <ele>189.60000610351562</ele>
        <time>2018-12-29T12:30:03Z</time>
      </trkpt>
      <trkpt lat="41.277743820101023" lon="1.433283062651753">
        <ele>189</ele>
        <time>2018-12-29T12:30:04Z</time>
      </trkpt>
      <trkpt lat="41.27770509570837" lon="1.433591349050403">
        <ele>188.39999389648437</ele>
        <time>2018-12-29T12:30:06Z</time>
      </trkpt>
      <trkpt lat="41.277625802904367" lon="1.433906843885779">
        <ele>186.60000610351562</ele>
        <time>2018-12-29T12:30:08Z</time>
      </trkpt>
      <trkpt lat="41.277583055198193" lon="1.434068279340863">
        <ele>185.60000610351562</ele>
        <time>2018-12-29T12:30:09Z</time>
      </trkpt>
      <trkpt lat="41.277539134025574" lon="1.434231642633677">
        <ele>184.60000610351562</ele>
        <time>2018-12-29T12:30:10Z</time>
      </trkpt>
      <trkpt lat="41.277492111548781" lon="1.434394586831331">
        <ele>182.39999389648437</ele>
        <time>2018-12-29T12:30:11Z</time>
      </trkpt>
      <trkpt lat="41.277440562844276" lon="1.434558033943176">
        <ele>181.39999389648437</ele>
        <time>2018-12-29T12:30:12Z</time>
      </trkpt>
      <trkpt lat="41.277382895350456" lon="1.434718882665038">
        <ele>180.60000610351562</ele>
        <time>2018-12-29T12:30:13Z</time>
      </trkpt>
      <trkpt lat="41.277318270877004" lon="1.434875456616283">
        <ele>179.80000305175781</ele>
        <time>2018-12-29T12:30:14Z</time>
      </trkpt>
      <trkpt lat="41.277248030528426" lon="1.435028426349163">
        <ele>179.19999694824219</ele>
        <time>2018-12-29T12:30:15Z</time>
      </trkpt>
      <trkpt lat="41.27716806717217" lon="1.435177708044648">
        <ele>178.19999694824219</ele>
        <time>2018-12-29T12:30:16Z</time>
      </trkpt>
      <trkpt lat="41.277081314474344" lon="1.435320368036628">
        <ele>177.19999694824219</ele>
        <time>2018-12-29T12:30:17Z</time>
      </trkpt>
      <trkpt lat="41.276991292834282" lon="1.435460262000561">
        <ele>176.39999389648437</ele>
        <time>2018-12-29T12:30:18Z</time>
      </trkpt>
      <trkpt lat="41.276899678632617" lon="1.435597389936447">
        <ele>176</ele>
        <time>2018-12-29T12:30:19Z</time>
      </trkpt>
      <trkpt lat="41.276805633679032" lon="1.435735775157809">
        <ele>175.19999694824219</ele>
        <time>2018-12-29T12:30:20Z</time>
      </trkpt>
      <trkpt lat="41.276712594553828" lon="1.435872064903379">
        <ele>174.60000610351562</ele>
        <time>2018-12-29T12:30:21Z</time>
      </trkpt>
      <trkpt lat="41.276617627590895" lon="1.436004750430584">
        <ele>173.80000305175781</ele>
        <time>2018-12-29T12:30:22Z</time>
      </trkpt>
      <trkpt lat="41.276524420827627" lon="1.436133328825235">
        <ele>173</ele>
        <time>2018-12-29T12:30:23Z</time>
      </trkpt>
      <trkpt lat="41.276434566825628" lon="1.436242377385497">
        <ele>172.39999389648437</ele>
        <time>2018-12-29T12:30:24Z</time>
      </trkpt>
      <trkpt lat="41.276340102776885" lon="1.436323262751102">
        <ele>172</ele>
        <time>2018-12-29T12:30:25Z</time>
      </trkpt>
      <trkpt lat="41.276235664263368" lon="1.436373554170132">
        <ele>171.60000610351562</ele>
        <time>2018-12-29T12:30:26Z</time>
      </trkpt>
      <trkpt lat="41.276027457788587" lon="1.436460725963116">
        <ele>170.80000305175781</ele>
        <time>2018-12-29T12:30:28Z</time>
      </trkpt>
      <trkpt lat="41.275861747562885" lon="1.436651246622205">
        <ele>169.39999389648437</ele>
        <time>2018-12-29T12:30:30Z</time>
      </trkpt>
      <trkpt lat="41.275756973773241" lon="1.436924748122692">
        <ele>167.80000305175781</ele>
        <time>2018-12-29T12:30:32Z</time>
      </trkpt>
      <trkpt lat="41.275723781436682" lon="1.437074365094304">
        <ele>167</ele>
        <time>2018-12-29T12:30:33Z</time>
      </trkpt>
      <trkpt lat="41.275700563564897" lon="1.437234291806817">
        <ele>166.19999694824219</ele>
        <time>2018-12-29T12:30:34Z</time>
      </trkpt>
      <trkpt lat="41.275677178055048" lon="1.437392123043537">
        <ele>164.60000610351562</ele>
        <time>2018-12-29T12:30:35Z</time>
      </trkpt>
      <trkpt lat="41.275652451440692" lon="1.437546517699957">
        <ele>163.80000305175781</ele>
        <time>2018-12-29T12:30:36Z</time>
      </trkpt>
      <trkpt lat="41.275629233568907" lon="1.437706863507628">
        <ele>163.19999694824219</ele>
        <time>2018-12-29T12:30:37Z</time>
      </trkpt>
      <trkpt lat="41.275606183335185" lon="1.437867041677237">
        <ele>162.39999389648437</ele>
        <time>2018-12-29T12:30:38Z</time>
      </trkpt>
      <trkpt lat="41.275587994605303" lon="1.438030069693923">
        <ele>161.80000305175781</ele>
        <time>2018-12-29T12:30:39Z</time>
      </trkpt>
      <trkpt lat="41.27557760104537" lon="1.438191588968039">
        <ele>161.19999694824219</ele>
        <time>2018-12-29T12:30:40Z</time>
      </trkpt>
      <trkpt lat="41.275575086474419" lon="1.438357215374708">
        <ele>160.39999389648437</ele>
        <time>2018-12-29T12:30:41Z</time>
      </trkpt>
      <trkpt lat="41.275579277426004" lon="1.438522841781378">
        <ele>159.60000610351562</ele>
        <time>2018-12-29T12:30:42Z</time>
      </trkpt>
      <trkpt lat="41.275583887472749" lon="1.438688887283206">
        <ele>159.19999694824219</ele>
        <time>2018-12-29T12:30:43Z</time>
      </trkpt>
      <trkpt lat="41.275588413700461" lon="1.438858034089208">
        <ele>159</ele>
        <time>2018-12-29T12:30:44Z</time>
      </trkpt>
      <trkpt lat="41.275603417307138" lon="1.439199512824416">
        <ele>157.60000610351562</ele>
        <time>2018-12-29T12:30:46Z</time>
      </trkpt>
      <trkpt lat="41.275584306567907" lon="1.439545936882496">
        <ele>156.60000610351562</ele>
        <time>2018-12-29T12:30:48Z</time>
      </trkpt>
      <trkpt lat="41.275550946593285" lon="1.439717765897512">
        <ele>156.19999694824219</ele>
        <time>2018-12-29T12:30:49Z</time>
      </trkpt>
      <trkpt lat="41.275503421202302" lon="1.439886158332229">
        <ele>155.19999694824219</ele>
        <time>2018-12-29T12:30:50Z</time>
      </trkpt>
      <trkpt lat="41.275442149490118" lon="1.440038122236729">
        <ele>154.80000305175781</ele>
        <time>2018-12-29T12:30:51Z</time>
      </trkpt>
      <trkpt lat="41.275367131456733" lon="1.440178686752915">
        <ele>154.19999694824219</ele>
        <time>2018-12-29T12:30:52Z</time>
      </trkpt>
      <trkpt lat="41.275275768712163" lon="1.440298045054078">
        <ele>153.60000610351562</ele>
        <time>2018-12-29T12:30:53Z</time>
      </trkpt>
      <trkpt lat="41.275180969387293" lon="1.440409859642386">
        <ele>152.39999389648437</ele>
        <time>2018-12-29T12:30:54Z</time>
      </trkpt>
      <trkpt lat="41.275087678804994" lon="1.44050725735724">
        <ele>151.39999389648437</ele>
        <time>2018-12-29T12:30:55Z</time>
      </trkpt>
      <trkpt lat="41.274992376565933" lon="1.440578084439039">
        <ele>150.60000610351562</ele>
        <time>2018-12-29T12:30:56Z</time>
      </trkpt>
      <trkpt lat="41.274903109297156" lon="1.440631309524179">
        <ele>150</ele>
        <time>2018-12-29T12:30:57Z</time>
      </trkpt>
      <trkpt lat="41.274839071556926" lon="1.440702974796295">
        <ele>149.80000305175781</ele>
        <time>2018-12-29T12:30:58Z</time>
      </trkpt>
      <trkpt lat="41.274792887270451" lon="1.440798947587609">
        <ele>149.19999694824219</ele>
        <time>2018-12-29T12:30:59Z</time>
      </trkpt>
      <trkpt lat="41.274773022159934" lon="1.440910175442696">
        <ele>148.80000305175781</ele>
        <time>2018-12-29T12:31:00Z</time>
      </trkpt>
      <trkpt lat="41.274773608893156" lon="1.441027857363224">
        <ele>148.39999389648437</ele>
        <time>2018-12-29T12:31:01Z</time>
      </trkpt>
      <trkpt lat="41.274795737117529" lon="1.441146042197943">
        <ele>147.80000305175781</ele>
        <time>2018-12-29T12:31:02Z</time>
      </trkpt>
      <trkpt lat="41.274846950545907" lon="1.441389368847013">
        <ele>147</ele>
        <time>2018-12-29T12:31:04Z</time>
      </trkpt>
      <trkpt lat="41.274856338277459" lon="1.441522724926472">
        <ele>146.60000610351562</ele>
        <time>2018-12-29T12:31:05Z</time>
      </trkpt>
      <trkpt lat="41.274844687432051" lon="1.441660607233644">
        <ele>146</ele>
        <time>2018-12-29T12:31:06Z</time>
      </trkpt>
      <trkpt lat="41.274818787351251" lon="1.44179723225534">
        <ele>145.39999389648437</ele>
        <time>2018-12-29T12:31:07Z</time>
      </trkpt>
      <trkpt lat="41.274784170091152" lon="1.441933186724782">
        <ele>144.80000305175781</ele>
        <time>2018-12-29T12:31:08Z</time>
      </trkpt>
      <trkpt lat="41.274739913642406" lon="1.442072242498398">
        <ele>144.19999694824219</ele>
        <time>2018-12-29T12:31:09Z</time>
      </trkpt>
      <trkpt lat="41.27468534745276" lon="1.442208113148809">
        <ele>143.39999389648438</ele>
        <time>2018-12-29T12:31:10Z</time>
      </trkpt>
      <trkpt lat="41.274621142074466" lon="1.442337026819587">
        <ele>142.80000305175781</ele>
        <time>2018-12-29T12:31:11Z</time>
      </trkpt>
      <trkpt lat="41.274553835391998" lon="1.442465437576175">
        <ele>142</ele>
        <time>2018-12-29T12:31:12Z</time>
      </trkpt>
      <trkpt lat="41.274485606700182" lon="1.442596781998873">
        <ele>141.39999389648437</ele>
        <time>2018-12-29T12:31:13Z</time>
      </trkpt>
      <trkpt lat="41.274420814588666" lon="1.442733826115727">
        <ele>140.60000610351562</ele>
        <time>2018-12-29T12:31:14Z</time>
      </trkpt>
      <trkpt lat="41.274366499856114" lon="1.442877156659961">
        <ele>139.80000305175781</ele>
        <time>2018-12-29T12:31:15Z</time>
      </trkpt>
      <trkpt lat="41.274328948929906" lon="1.443030629307032">
        <ele>139</ele>
        <time>2018-12-29T12:31:16Z</time>
      </trkpt>
      <trkpt lat="41.274302545934916" lon="1.443192316219211">
        <ele>138</ele>
        <time>2018-12-29T12:31:17Z</time>
      </trkpt>
      <trkpt lat="41.274279076606035" lon="1.443359451368451">
        <ele>137.19999694824219</ele>
        <time>2018-12-29T12:31:18Z</time>
      </trkpt>
      <trkpt lat="41.274248734116554" lon="1.443528430536389">
        <ele>136.60000610351562</ele>
        <time>2018-12-29T12:31:19Z</time>
      </trkpt>
      <trkpt lat="41.274215541779995" lon="1.443700762465596">
        <ele>136.19999694824219</ele>
        <time>2018-12-29T12:31:20Z</time>
      </trkpt>
      <trkpt lat="41.274141278117895" lon="1.44404785707593">
        <ele>135</ele>
        <time>2018-12-29T12:31:22Z</time>
      </trkpt>
      <trkpt lat="41.274105990305543" lon="1.444220775738359">
        <ele>133.80000305175781</ele>
        <time>2018-12-29T12:31:23Z</time>
      </trkpt>
      <trkpt lat="41.274076150730252" lon="1.444391096010804">
        <ele>133.39999389648437</ele>
        <time>2018-12-29T12:31:24Z</time>
      </trkpt>
      <trkpt lat="41.274027787148952" lon="1.444737268611789">
        <ele>133</ele>
        <time>2018-12-29T12:31:26Z</time>
      </trkpt>
      <trkpt lat="41.273990403860807" lon="1.445094086229801">
        <ele>132.39999389648437</ele>
        <time>2018-12-29T12:31:28Z</time>
      </trkpt>
      <trkpt lat="41.27396953292191" lon="1.445451574400067">
        <ele>130</ele>
        <time>2018-12-29T12:31:30Z</time>
      </trkpt>
      <trkpt lat="41.273959139361978" lon="1.445625247433782">
        <ele>129.19999694824219</ele>
        <time>2018-12-29T12:31:31Z</time>
      </trkpt>
      <trkpt lat="41.273946985602379" lon="1.445795567706227">
        <ele>128.19999694824219</ele>
        <time>2018-12-29T12:31:32Z</time>
      </trkpt>
      <trkpt lat="41.273934664204717" lon="1.445964630693197">
        <ele>127.19999694824219</ele>
        <time>2018-12-29T12:31:33Z</time>
      </trkpt>
      <trkpt lat="41.273921420797706" lon="1.446132604032755">
        <ele>125.80000305175781</ele>
        <time>2018-12-29T12:31:34Z</time>
      </trkpt>
      <trkpt lat="41.273907171562314" lon="1.446287417784333">
        <ele>124.80000305175781</ele>
        <time>2018-12-29T12:31:35Z</time>
      </trkpt>
      <trkpt lat="41.273890156298876" lon="1.44642747938633">
        <ele>124</ele>
        <time>2018-12-29T12:31:36Z</time>
      </trkpt>
      <trkpt lat="41.273868614807725" lon="1.446554129943252">
        <ele>123.19999694824219</ele>
        <time>2018-12-29T12:31:37Z</time>
      </trkpt>
      <trkpt lat="41.273833075538278" lon="1.446666195988655">
        <ele>122.59999847412109</ele>
        <time>2018-12-29T12:31:38Z</time>
      </trkpt>
      <trkpt lat="41.273782029747963" lon="1.446767281740904">
        <ele>122</ele>
        <time>2018-12-29T12:31:39Z</time>
      </trkpt>
      <trkpt lat="41.273709358647466" lon="1.446839366108179">
        <ele>121.40000152587891</ele>
        <time>2018-12-29T12:31:40Z</time>
      </trkpt>
      <trkpt lat="41.273625791072845" lon="1.446893764659762">
        <ele>120.80000305175781</ele>
        <time>2018-12-29T12:31:41Z</time>
      </trkpt>
      <trkpt lat="41.273538451641798" lon="1.44694053567946">
        <ele>120</ele>
        <time>2018-12-29T12:31:42Z</time>
      </trkpt>
      <trkpt lat="41.27345354296267" lon="1.447003316134214">
        <ele>119.59999847412109</ele>
        <time>2018-12-29T12:31:43Z</time>
      </trkpt>
      <trkpt lat="41.273377938196063" lon="1.447088057175279">
        <ele>119</ele>
        <time>2018-12-29T12:31:44Z</time>
      </trkpt>
      <trkpt lat="41.273270901292562" lon="1.447315206751227">
        <ele>118.19999694824219</ele>
        <time>2018-12-29T12:31:46Z</time>
      </trkpt>
      <trkpt lat="41.273226896300912" lon="1.44758552312851">
        <ele>117.59999847412109</ele>
        <time>2018-12-29T12:31:48Z</time>
      </trkpt>
      <trkpt lat="41.273230835795403" lon="1.447725668549538">
        <ele>117.40000152587891</ele>
        <time>2018-12-29T12:31:49Z</time>
      </trkpt>
      <trkpt lat="41.273257657885551" lon="1.447862377390266">
        <ele>117.40000152587891</ele>
        <time>2018-12-29T12:31:50Z</time>
      </trkpt>
      <trkpt lat="41.273304093629122" lon="1.447985591366887">
        <ele>117</ele>
        <time>2018-12-29T12:31:51Z</time>
      </trkpt>
      <trkpt lat="41.273369807749987" lon="1.448090029880405">
        <ele>116.40000152587891</ele>
        <time>2018-12-29T12:31:52Z</time>
      </trkpt>
      <trkpt lat="41.273446083068848" lon="1.448179883882403">
        <ele>115.80000305175781</ele>
        <time>2018-12-29T12:31:53Z</time>
      </trkpt>
      <trkpt lat="41.273525627329946" lon="1.448263870552182">
        <ele>115.59999847412109</ele>
        <time>2018-12-29T12:31:54Z</time>
      </trkpt>
      <trkpt lat="41.27359377220273" lon="1.44836051389575">
        <ele>115.19999694824219</ele>
        <time>2018-12-29T12:31:55Z</time>
      </trkpt>
      <trkpt lat="41.273649344220757" lon="1.448470903560519">
        <ele>114.59999847412109</ele>
        <time>2018-12-29T12:31:56Z</time>
      </trkpt>
      <trkpt lat="41.273683207109571" lon="1.448593782261014">
        <ele>114.19999694824219</ele>
        <time>2018-12-29T12:31:57Z</time>
      </trkpt>
      <trkpt lat="41.273696953430772" lon="1.448720600455999">
        <ele>114</ele>
        <time>2018-12-29T12:31:58Z</time>
      </trkpt>
      <trkpt lat="41.273689828813076" lon="1.448988653719425">
        <ele>114</ele>
        <time>2018-12-29T12:32:00Z</time>
      </trkpt>
      <trkpt lat="41.273680943995714" lon="1.449126787483692">
        <ele>113.80000305175781</ele>
        <time>2018-12-29T12:32:01Z</time>
      </trkpt>
      <trkpt lat="41.273672394454479" lon="1.449267184361816">
        <ele>113</ele>
        <time>2018-12-29T12:32:02Z</time>
      </trkpt>
      <trkpt lat="41.27365286462009" lon="1.449556862935424">
        <ele>111.59999847412109</ele>
        <time>2018-12-29T12:32:04Z</time>
      </trkpt>
      <trkpt lat="41.273636687546968" lon="1.449857437983155">
        <ele>110.80000305175781</ele>
        <time>2018-12-29T12:32:06Z</time>
      </trkpt>
      <trkpt lat="41.273630065843463" lon="1.450011329725385">
        <ele>110.19999694824219</ele>
        <time>2018-12-29T12:32:07Z</time>
      </trkpt>
      <trkpt lat="41.273619337007403" lon="1.4501659758389">
        <ele>109.59999847412109</ele>
        <time>2018-12-29T12:32:08Z</time>
      </trkpt>
      <trkpt lat="41.273594526574016" lon="1.450320035219193">
        <ele>108.80000305175781</ele>
        <time>2018-12-29T12:32:09Z</time>
      </trkpt>
      <trkpt lat="41.273550689220428" lon="1.450473675504327">
        <ele>108.19999694824219</ele>
        <time>2018-12-29T12:32:10Z</time>
      </trkpt>
      <trkpt lat="41.273507606238127" lon="1.450626812875271">
        <ele>107</ele>
        <time>2018-12-29T12:32:11Z</time>
      </trkpt>
      <trkpt lat="41.273461673408747" lon="1.450764359906316">
        <ele>106.40000152587891</ele>
        <time>2018-12-29T12:32:12Z</time>
      </trkpt>
      <trkpt lat="41.273408029228449" lon="1.450888244435191">
        <ele>106</ele>
        <time>2018-12-29T12:32:13Z</time>
      </trkpt>
      <trkpt lat="41.273337872698903" lon="1.451000729575753">
        <ele>105.19999694824219</ele>
        <time>2018-12-29T12:32:14Z</time>
      </trkpt>
      <trkpt lat="41.27324927598238" lon="1.451092176139355">
        <ele>104.40000152587891</ele>
        <time>2018-12-29T12:32:15Z</time>
      </trkpt>
      <trkpt lat="41.273159924894571" lon="1.451183371245861">
        <ele>103.59999847412109</ele>
        <time>2018-12-29T12:32:16Z</time>
      </trkpt>
      <trkpt lat="41.273084068670869" lon="1.45129619166255">
        <ele>103</ele>
        <time>2018-12-29T12:32:17Z</time>
      </trkpt>
      <trkpt lat="41.273032184690237" lon="1.451432732865214">
        <ele>102.40000152587891</ele>
        <time>2018-12-29T12:32:18Z</time>
      </trkpt>
      <trkpt lat="41.272998992353678" lon="1.451584445312619">
        <ele>101.59999847412109</ele>
        <time>2018-12-29T12:32:19Z</time>
      </trkpt>
      <trkpt lat="41.272980803623796" lon="1.451742025092244">
        <ele>100.80000305175781</ele>
        <time>2018-12-29T12:32:20Z</time>
      </trkpt>
      <trkpt lat="41.272961776703596" lon="1.45190455019474">
        <ele>99.800003051757813</ele>
        <time>2018-12-29T12:32:21Z</time>
      </trkpt>
      <trkpt lat="41.272941995412111" lon="1.452065650373697">
        <ele>98.800003051757812</ele>
        <time>2018-12-29T12:32:22Z</time>
      </trkpt>
      <trkpt lat="41.272868402302265" lon="1.452373517677188">
        <ele>97.199996948242188</ele>
        <time>2018-12-29T12:32:24Z</time>
      </trkpt>
      <trkpt lat="41.27281048335135" lon="1.452515674754977">
        <ele>96</ele>
        <time>2018-12-29T12:32:25Z</time>
      </trkpt>
      <trkpt lat="41.272741165012121" lon="1.452640062198043">
        <ele>95.400001525878906</ele>
        <time>2018-12-29T12:32:26Z</time>
      </trkpt>
      <trkpt lat="41.272609736770391" lon="1.45287349820137">
        <ele>95</ele>
        <time>2018-12-29T12:32:28Z</time>
      </trkpt>
      <trkpt lat="41.272569168359041" lon="1.453154627233744">
        <ele>93.800003051757813</ele>
        <time>2018-12-29T12:32:30Z</time>
      </trkpt>
      <trkpt lat="41.272656843066216" lon="1.453402061015368">
        <ele>92.599998474121094</ele>
        <time>2018-12-29T12:32:32Z</time>
      </trkpt>
      <trkpt lat="41.272789444774389" lon="1.453620325773954">
        <ele>91.599998474121094</ele>
        <time>2018-12-29T12:32:34Z</time>
      </trkpt>
      <trkpt lat="41.272856499999762" lon="1.453728703781962">
        <ele>90.400001525878906</ele>
        <time>2018-12-29T12:32:35Z</time>
      </trkpt>
      <trkpt lat="41.272915089502931" lon="1.453848062083125">
        <ele>89.199996948242188</ele>
        <time>2018-12-29T12:32:36Z</time>
      </trkpt>
      <trkpt lat="41.273027071729302" lon="1.454092562198639">
        <ele>88</ele>
        <time>2018-12-29T12:32:38Z</time>
      </trkpt>
      <trkpt lat="41.273116171360016" lon="1.454340917989612">
        <ele>87.599998474121094</ele>
        <time>2018-12-29T12:32:40Z</time>
      </trkpt>
      <trkpt lat="41.273155147209764" lon="1.454469580203295">
        <ele>86.800003051757813</ele>
        <time>2018-12-29T12:32:41Z</time>
      </trkpt>
      <trkpt lat="41.273190518841147" lon="1.454604612663388">
        <ele>86.199996948242188</ele>
        <time>2018-12-29T12:32:42Z</time>
      </trkpt>
      <trkpt lat="41.273219268769026" lon="1.454745596274734">
        <ele>85.400001525878906</ele>
        <time>2018-12-29T12:32:43Z</time>
      </trkpt>
      <trkpt lat="41.273233266547322" lon="1.454888340085745">
        <ele>84.599998474121094</ele>
        <time>2018-12-29T12:32:44Z</time>
      </trkpt>
      <trkpt lat="41.273231841623783" lon="1.455031502991915">
        <ele>83.800003051757813</ele>
        <time>2018-12-29T12:32:45Z</time>
      </trkpt>
      <trkpt lat="41.273224884644151" lon="1.455177096650004">
        <ele>83.400001525878906</ele>
        <time>2018-12-29T12:32:46Z</time>
      </trkpt>
      <trkpt lat="41.273191357031465" lon="1.455465685576201">
        <ele>82.800003051757813</ele>
        <time>2018-12-29T12:32:48Z</time>
      </trkpt>
      <trkpt lat="41.273164032027125" lon="1.455605495721102">
        <ele>82.199996948242188</ele>
        <time>2018-12-29T12:32:49Z</time>
      </trkpt>
      <trkpt lat="41.273125223815441" lon="1.455746227875352">
        <ele>81.400001525878906</ele>
        <time>2018-12-29T12:32:50Z</time>
      </trkpt>
      <trkpt lat="41.273082140833139" lon="1.455885954201222">
        <ele>80.599998474121094</ele>
        <time>2018-12-29T12:32:51Z</time>
      </trkpt>
      <trkpt lat="41.273036962375045" lon="1.456028195098043">
        <ele>80.199996948242188</ele>
        <time>2018-12-29T12:32:52Z</time>
      </trkpt>
      <trkpt lat="41.272990694269538" lon="1.456169681623578">
        <ele>79.400001525878906</ele>
        <time>2018-12-29T12:32:53Z</time>
      </trkpt>
      <trkpt lat="41.272947108373046" lon="1.456310413777828">
        <ele>78.800003051757813</ele>
        <time>2018-12-29T12:32:54Z</time>
      </trkpt>
      <trkpt lat="41.272903438657522" lon="1.456445949152112">
        <ele>78.199996948242188</ele>
        <time>2018-12-29T12:32:55Z</time>
      </trkpt>
      <trkpt lat="41.272851135581732" lon="1.456579640507698">
        <ele>78</ele>
        <time>2018-12-29T12:32:56Z</time>
      </trkpt>
      <trkpt lat="41.272788355126977" lon="1.456709057092667">
        <ele>77.599998474121094</ele>
        <time>2018-12-29T12:32:57Z</time>
      </trkpt>
      <trkpt lat="41.272717276588082" lon="1.456833863630891">
        <ele>77</ele>
        <time>2018-12-29T12:32:58Z</time>
      </trkpt>
      <trkpt lat="41.272643432021141" lon="1.456958753988147">
        <ele>75.599998474121094</ele>
        <time>2018-12-29T12:32:59Z</time>
      </trkpt>
      <trkpt lat="41.272566486150026" lon="1.457083141431212">
        <ele>75</ele>
        <time>2018-12-29T12:33:00Z</time>
      </trkpt>
      <trkpt lat="41.27249339595437" lon="1.457212222740054">
        <ele>74.400001525878906</ele>
        <time>2018-12-29T12:33:01Z</time>
      </trkpt>
      <trkpt lat="41.272423658519983" lon="1.457347674295306">
        <ele>73.800003051757812</ele>
        <time>2018-12-29T12:33:02Z</time>
      </trkpt>
      <trkpt lat="41.272357776761055" lon="1.457485472783446">
        <ele>73</ele>
        <time>2018-12-29T12:33:03Z</time>
      </trkpt>
      <trkpt lat="41.272296002134681" lon="1.457618996500969">
        <ele>72.400001525878906</ele>
        <time>2018-12-29T12:33:04Z</time>
      </trkpt>
      <trkpt lat="41.272234059870243" lon="1.457752101123333">
        <ele>71.599998474121094</ele>
        <time>2018-12-29T12:33:05Z</time>
      </trkpt>
      <trkpt lat="41.272167675197124" lon="1.457879589870572">
        <ele>70.800003051757813</ele>
        <time>2018-12-29T12:33:06Z</time>
      </trkpt>
      <trkpt lat="41.272092573344707" lon="1.458001965656877">
        <ele>70</ele>
        <time>2018-12-29T12:33:07Z</time>
      </trkpt>
      <trkpt lat="41.272005820646882" lon="1.458113612607122">
        <ele>69.199996948242188</ele>
        <time>2018-12-29T12:33:08Z</time>
      </trkpt>
      <trkpt lat="41.271913535892963" lon="1.458212854340673">
        <ele>68.400001525878906</ele>
        <time>2018-12-29T12:33:09Z</time>
      </trkpt>
      <trkpt lat="41.271813875064254" lon="1.458302121609449">
        <ele>68</ele>
        <time>2018-12-29T12:33:10Z</time>
      </trkpt>
      <trkpt lat="41.271589491516352" lon="1.458441261202097">
        <ele>67.199996948242187</ele>
        <time>2018-12-29T12:33:12Z</time>
      </trkpt>
      <trkpt lat="41.271471725776792" lon="1.458498425781727">
        <ele>66.199996948242187</ele>
        <time>2018-12-29T12:33:13Z</time>
      </trkpt>
      <trkpt lat="41.27135974355042" lon="1.458556763827801">
        <ele>65.199996948242188</ele>
        <time>2018-12-29T12:33:14Z</time>
      </trkpt>
      <trkpt lat="41.271247928962111" lon="1.458618203178048">
        <ele>64.400001525878906</ele>
        <time>2018-12-29T12:33:15Z</time>
      </trkpt>
      <trkpt lat="41.271133767440915" lon="1.458682827651501">
        <ele>64</ele>
        <time>2018-12-29T12:33:16Z</time>
      </trkpt>
      <trkpt lat="41.271017761901021" lon="1.458744183182716">
        <ele>63.599998474121094</ele>
        <time>2018-12-29T12:33:17Z</time>
      </trkpt>
      <trkpt lat="41.270903768017888" lon="1.4588020183146">
        <ele>63</ele>
        <time>2018-12-29T12:33:18Z</time>
      </trkpt>
      <trkpt lat="41.270687766373158" lon="1.458925902843475">
        <ele>62.400001525878906</ele>
        <time>2018-12-29T12:33:20Z</time>
      </trkpt>
      <trkpt lat="41.270583160221577" lon="1.458991868421435">
        <ele>62</ele>
        <time>2018-12-29T12:33:21Z</time>
      </trkpt>
      <trkpt lat="41.270481068640947" lon="1.459071580320597">
        <ele>61.799999237060547</ele>
        <time>2018-12-29T12:33:22Z</time>
      </trkpt>
      <trkpt lat="41.27038492821157" lon="1.459161518141627">
        <ele>60.200000762939453</ele>
        <time>2018-12-29T12:33:23Z</time>
      </trkpt>
      <trkpt lat="41.270291050896049" lon="1.459260424599052">
        <ele>59.599998474121094</ele>
        <time>2018-12-29T12:33:24Z</time>
      </trkpt>
      <trkpt lat="41.270121987909079" lon="1.459458405151963">
        <ele>58.799999237060547</ele>
        <time>2018-12-29T12:33:26Z</time>
      </trkpt>
      <trkpt lat="41.269985698163509" lon="1.459649093449116">
        <ele>58</ele>
        <time>2018-12-29T12:33:28Z</time>
      </trkpt>
      <trkpt lat="41.269934233278036" lon="1.459743808954954">
        <ele>58.200000762939453</ele>
        <time>2018-12-29T12:33:29Z</time>
      </trkpt>
      <trkpt lat="41.269884612411261" lon="1.45984766073525">
        <ele>57.799999237060547</ele>
        <time>2018-12-29T12:33:30Z</time>
      </trkpt>
      <trkpt lat="41.269841194152832" lon="1.459944471716881">
        <ele>57.599998474121094</ele>
        <time>2018-12-29T12:33:31Z</time>
      </trkpt>
      <trkpt lat="41.269799116998911" lon="1.46003776229918">
        <ele>57</ele>
        <time>2018-12-29T12:33:32Z</time>
      </trkpt>
      <trkpt lat="41.269756453111768" lon="1.460136836394668">
        <ele>56.799999237060547</ele>
        <time>2018-12-29T12:33:33Z</time>
      </trkpt>
      <trkpt lat="41.269721752032638" lon="1.460228869691491">
        <ele>56.599998474121094</ele>
        <time>2018-12-29T12:33:34Z</time>
      </trkpt>
      <trkpt lat="41.269702473655343" lon="1.460319980978966">
        <ele>56.400001525878906</ele>
        <time>2018-12-29T12:33:35Z</time>
      </trkpt>
      <trkpt lat="41.26967204734683" lon="1.460407068952918">
        <ele>55.799999237060547</ele>
        <time>2018-12-29T12:33:36Z</time>
      </trkpt>
      <trkpt lat="41.2696114461869" lon="1.46055861376226">
        <ele>55</ele>
        <time>2018-12-29T12:33:38Z</time>
      </trkpt>
      <trkpt lat="41.269566267728806" lon="1.460672440007329">
        <ele>54.400001525878906</ele>
        <time>2018-12-29T12:33:40Z</time>
      </trkpt>
      <trkpt lat="41.269535087049007" lon="1.460789451375604">
        <ele>54</ele>
        <time>2018-12-29T12:33:42Z</time>
      </trkpt>
      <trkpt lat="41.269522346556187" lon="1.460880562663078">
        <ele>53.799999237060547</ele>
        <time>2018-12-29T12:33:44Z</time>
      </trkpt>
      <trkpt lat="41.269520167261362" lon="1.460922136902809">
        <ele>53.799999237060547</ele>
        <time>2018-12-29T12:33:45Z</time>
      </trkpt>
      <trkpt lat="41.269521089270711" lon="1.460965638980269">
        <ele>53.599998474121094</ele>
        <time>2018-12-29T12:33:46Z</time>
      </trkpt>
      <trkpt lat="41.269540535286069" lon="1.461045434698463">
        <ele>53</ele>
        <time>2018-12-29T12:33:48Z</time>
      </trkpt>
      <trkpt lat="41.269566854462028" lon="1.461065551266074">
        <ele>52.799999237060547</ele>
        <time>2018-12-29T12:33:49Z</time>
      </trkpt>
      <trkpt lat="41.26959920860827" lon="1.461062785238028">
        <ele>52.799999237060547</ele>
        <time>2018-12-29T12:33:50Z</time>
      </trkpt>
      <trkpt lat="41.269649248570204" lon="1.461021881550551">
        <ele>52.599998474121094</ele>
        <time>2018-12-29T12:33:52Z</time>
      </trkpt>
      <trkpt lat="41.269695265218616" lon="1.460988773033023">
        <ele>52.599998474121094</ele>
        <time>2018-12-29T12:33:54Z</time>
      </trkpt>
      <trkpt lat="41.269739689305425" lon="1.460961950942874">
        <ele>52.799999237060547</ele>
        <time>2018-12-29T12:33:56Z</time>
      </trkpt>
      <trkpt lat="41.269807750359178" lon="1.460944516584277">
        <ele>52.799999237060547</ele>
        <time>2018-12-29T12:33:58Z</time>
      </trkpt>
      <trkpt lat="41.269844630733132" lon="1.46092071197927">
        <ele>52.799999237060547</ele>
        <time>2018-12-29T12:33:59Z</time>
      </trkpt>
      <trkpt lat="41.269878158345819" lon="1.460883747786284">
        <ele>52.799999237060547</ele>
        <time>2018-12-29T12:34:00Z</time>
      </trkpt>
      <trkpt lat="41.269942531362176" lon="1.460796827450395">
        <ele>52.799999237060547</ele>
        <time>2018-12-29T12:34:02Z</time>
      </trkpt>
      <trkpt lat="41.27000187523663" lon="1.460709907114506">
        <ele>52.599998474121094</ele>
        <time>2018-12-29T12:34:04Z</time>
      </trkpt>
      <trkpt lat="41.270063314586878" lon="1.460625501349568">
        <ele>52.599998474121094</ele>
        <time>2018-12-29T12:34:06Z</time>
      </trkpt>
      <trkpt lat="41.270135482773185" lon="1.46055324934423">
        <ele>53</ele>
        <time>2018-12-29T12:34:08Z</time>
      </trkpt>
      <trkpt lat="41.270212596282363" lon="1.460501533001661">
        <ele>53.599998474121094</ele>
        <time>2018-12-29T12:34:10Z</time>
      </trkpt>
      <trkpt lat="41.270256601274014" lon="1.460485691204667">
        <ele>53.799999237060547</ele>
        <time>2018-12-29T12:34:11Z</time>
      </trkpt>
      <trkpt lat="41.270305132493377" lon="1.460482589900494">
        <ele>54</ele>
        <time>2018-12-29T12:34:12Z</time>
      </trkpt>
      <trkpt lat="41.270403871312737" lon="1.460518045350909">
        <ele>54</ele>
        <time>2018-12-29T12:34:14Z</time>
      </trkpt>
      <trkpt lat="41.270499508827925" lon="1.460586525499821">
        <ele>53.799999237060547</ele>
        <time>2018-12-29T12:34:16Z</time>
      </trkpt>
      <trkpt lat="41.270576370880008" lon="1.460709236562252">
        <ele>53.599998474121094</ele>
        <time>2018-12-29T12:34:18Z</time>
      </trkpt>
      <trkpt lat="41.2706458568573" lon="1.460857847705483">
        <ele>53.599998474121094</ele>
        <time>2018-12-29T12:34:20Z</time>
      </trkpt>
      <trkpt lat="41.270708972588181" lon="1.461022552102804">
        <ele>53.200000762939453</ele>
        <time>2018-12-29T12:34:22Z</time>
      </trkpt>
      <trkpt lat="41.27074409276247" lon="1.461108634248376">
        <ele>52.799999237060547</ele>
        <time>2018-12-29T12:34:23Z</time>
      </trkpt>
      <trkpt lat="41.270781308412552" lon="1.461196560412645">
        <ele>52.400001525878906</ele>
        <time>2018-12-29T12:34:24Z</time>
      </trkpt>
      <trkpt lat="41.270861020311713" lon="1.461377525702119">
        <ele>51.799999237060547</ele>
        <time>2018-12-29T12:34:26Z</time>
      </trkpt>
      <trkpt lat="41.270902846008539" lon="1.461472157388926">
        <ele>51.400001525878906</ele>
        <time>2018-12-29T12:34:27Z</time>
      </trkpt>
      <trkpt lat="41.270945090800524" lon="1.461569387465715">
        <ele>51.200000762939453</ele>
        <time>2018-12-29T12:34:28Z</time>
      </trkpt>
      <trkpt lat="41.271030167117715" lon="1.461771978065372">
        <ele>50.400001525878906</ele>
        <time>2018-12-29T12:34:30Z</time>
      </trkpt>
      <trkpt lat="41.271112812682986" lon="1.461975406855345">
        <ele>49.599998474121094</ele>
        <time>2018-12-29T12:34:32Z</time>
      </trkpt>
      <trkpt lat="41.271157572045922" lon="1.462077666074038">
        <ele>49</ele>
        <time>2018-12-29T12:34:33Z</time>
      </trkpt>
      <trkpt lat="41.271200990304351" lon="1.462179506197572">
        <ele>48.599998474121094</ele>
        <time>2018-12-29T12:34:34Z</time>
      </trkpt>
      <trkpt lat="41.271245246753097" lon="1.462282603606582">
        <ele>47.599998474121094</ele>
        <time>2018-12-29T12:34:35Z</time>
      </trkpt>
      <trkpt lat="41.271290928125381" lon="1.462386036291719">
        <ele>47.400001525878906</ele>
        <time>2018-12-29T12:34:36Z</time>
      </trkpt>
      <trkpt lat="41.271382793784142" lon="1.462592650204897">
        <ele>47.200000762939453</ele>
        <time>2018-12-29T12:34:38Z</time>
      </trkpt>
      <trkpt lat="41.271433001384139" lon="1.462697088718414">
        <ele>47.200000762939453</ele>
        <time>2018-12-29T12:34:39Z</time>
      </trkpt>
      <trkpt lat="41.27148094587028" lon="1.462802616879344">
        <ele>46.799999237060547</ele>
        <time>2018-12-29T12:34:40Z</time>
      </trkpt>
      <trkpt lat="41.271526794880629" lon="1.462909318506718">
        <ele>46.599998474121094</ele>
        <time>2018-12-29T12:34:41Z</time>
      </trkpt>
      <trkpt lat="41.271571973338723" lon="1.463016103953123">
        <ele>46.200000762939453</ele>
        <time>2018-12-29T12:34:42Z</time>
      </trkpt>
      <trkpt lat="41.271667694672942" lon="1.4632279984653">
        <ele>45.799999237060547</ele>
        <time>2018-12-29T12:34:44Z</time>
      </trkpt>
      <trkpt lat="41.271761152893305" lon="1.463434277102351">
        <ele>45.599998474121094</ele>
        <time>2018-12-29T12:34:46Z</time>
      </trkpt>
      <trkpt lat="41.271807253360748" lon="1.463534105569124">
        <ele>45.799999237060547</ele>
        <time>2018-12-29T12:34:47Z</time>
      </trkpt>
      <trkpt lat="41.271852515637875" lon="1.463635275140405">
        <ele>46</ele>
        <time>2018-12-29T12:34:48Z</time>
      </trkpt>
      <trkpt lat="41.271940022706985" lon="1.463837698101997">
        <ele>45.799999237060547</ele>
        <time>2018-12-29T12:34:50Z</time>
      </trkpt>
      <trkpt lat="41.272020656615496" lon="1.464039534330368">
        <ele>46.400001525878906</ele>
        <time>2018-12-29T12:34:52Z</time>
      </trkpt>
      <trkpt lat="41.272093746811152" lon="1.464229887351394">
        <ele>47.400001525878906</ele>
        <time>2018-12-29T12:34:54Z</time>
      </trkpt>
      <trkpt lat="41.272128615528345" lon="1.46432351320982">
        <ele>47.599998474121094</ele>
        <time>2018-12-29T12:34:55Z</time>
      </trkpt>
      <trkpt lat="41.272158958017826" lon="1.464415127411485">
        <ele>47.400001525878906</ele>
        <time>2018-12-29T12:34:56Z</time>
      </trkpt>
      <trkpt lat="41.272217463701963" lon="1.464596092700958">
        <ele>47.799999237060547</ele>
        <time>2018-12-29T12:34:58Z</time>
      </trkpt>
      <trkpt lat="41.272274544462562" lon="1.464770687744021">
        <ele>48.400001525878906</ele>
        <time>2018-12-29T12:35:00Z</time>
      </trkpt>
      <trkpt lat="41.272330451756716" lon="1.464940086007118">
        <ele>49</ele>
        <time>2018-12-29T12:35:02Z</time>
      </trkpt>
      <trkpt lat="41.272381329908967" lon="1.465109903365374">
        <ele>49.400001525878906</ele>
        <time>2018-12-29T12:35:04Z</time>
      </trkpt>
      <trkpt lat="41.272434806451201" lon="1.465278631076217">
        <ele>50</ele>
        <time>2018-12-29T12:35:06Z</time>
      </trkpt>
      <trkpt lat="41.272486606612802" lon="1.46544836461544">
        <ele>50</ele>
        <time>2018-12-29T12:35:08Z</time>
      </trkpt>
      <trkpt lat="41.272543100640178" lon="1.465611308813095">
        <ele>50.400001525878906</ele>
        <time>2018-12-29T12:35:10Z</time>
      </trkpt>
      <trkpt lat="41.272571934387088" lon="1.46568926051259">
        <ele>50.799999237060547</ele>
        <time>2018-12-29T12:35:11Z</time>
      </trkpt>
      <trkpt lat="41.272601606324315" lon="1.465767212212086">
        <ele>51.200000762939453</ele>
        <time>2018-12-29T12:35:12Z</time>
      </trkpt>
      <trkpt lat="41.272663213312626" lon="1.465915655717254">
        <ele>51</ele>
        <time>2018-12-29T12:35:14Z</time>
      </trkpt>
      <trkpt lat="41.272729430347681" lon="1.466050017625094">
        <ele>50.799999237060547</ele>
        <time>2018-12-29T12:35:16Z</time>
      </trkpt>
      <trkpt lat="41.272801095619798" lon="1.466183289885521">
        <ele>51</ele>
        <time>2018-12-29T12:35:18Z</time>
      </trkpt>
      <trkpt lat="41.272881058976054" lon="1.466321758925915">
        <ele>50.799999237060547</ele>
        <time>2018-12-29T12:35:20Z</time>
      </trkpt>
      <trkpt lat="41.272962531074882" lon="1.466470034793019">
        <ele>50.200000762939453</ele>
        <time>2018-12-29T12:35:22Z</time>
      </trkpt>
      <trkpt lat="41.273004440590739" lon="1.466548657044768">
        <ele>49.599998474121094</ele>
        <time>2018-12-29T12:35:23Z</time>
      </trkpt>
      <trkpt lat="41.273044925183058" lon="1.466630799695849">
        <ele>49.400001525878906</ele>
        <time>2018-12-29T12:35:24Z</time>
      </trkpt>
      <trkpt lat="41.273088259622455" lon="1.46671487018466">
        <ele>49</ele>
        <time>2018-12-29T12:35:25Z</time>
      </trkpt>
      <trkpt lat="41.273134695366025" lon="1.466798186302185">
        <ele>48.400001525878906</ele>
        <time>2018-12-29T12:35:26Z</time>
      </trkpt>
      <trkpt lat="41.273232428357005" lon="1.466973703354597">
        <ele>47.599998474121094</ele>
        <time>2018-12-29T12:35:28Z</time>
      </trkpt>
      <trkpt lat="41.27328297123313" lon="1.467065569013357">
        <ele>47.400001525878906</ele>
        <time>2018-12-29T12:35:29Z</time>
      </trkpt>
      <trkpt lat="41.273335106670856" lon="1.467157267034054">
        <ele>46.799999237060547</ele>
        <time>2018-12-29T12:35:30Z</time>
      </trkpt>
      <trkpt lat="41.273388164117932" lon="1.467248713597655">
        <ele>46.200000762939453</ele>
        <time>2018-12-29T12:35:31Z</time>
      </trkpt>
      <trkpt lat="41.273443819954991" lon="1.467343345284462">
        <ele>45.599998474121094</ele>
        <time>2018-12-29T12:35:32Z</time>
      </trkpt>
      <trkpt lat="41.273497212678194" lon="1.46743998862803">
        <ele>45.200000762939453</ele>
        <time>2018-12-29T12:35:33Z</time>
      </trkpt>
      <trkpt lat="41.273552114143968" lon="1.467536296695471">
        <ele>44.599998474121094</ele>
        <time>2018-12-29T12:35:34Z</time>
      </trkpt>
      <trkpt lat="41.27365873195231" lon="1.467739138752222">
        <ele>43.799999237060547</ele>
        <time>2018-12-29T12:35:36Z</time>
      </trkpt>
      <trkpt lat="41.273761410266161" lon="1.467947512865067">
        <ele>42.799999237060547</ele>
        <time>2018-12-29T12:35:38Z</time>
      </trkpt>
      <trkpt lat="41.273804577067494" lon="1.46805664524436">
        <ele>42.400001525878906</ele>
        <time>2018-12-29T12:35:39Z</time>
      </trkpt>
      <trkpt lat="41.273841541260481" lon="1.468168376013637">
        <ele>42.200000762939453</ele>
        <time>2018-12-29T12:35:40Z</time>
      </trkpt>
      <trkpt lat="41.273905746638775" lon="1.468387730419636">
        <ele>42.400001525878906</ele>
        <time>2018-12-29T12:35:42Z</time>
      </trkpt>
      <trkpt lat="41.273967521265149" lon="1.468598619103432">
        <ele>42.400001525878906</ele>
        <time>2018-12-29T12:35:44Z</time>
      </trkpt>
      <trkpt lat="41.274031056091189" lon="1.468800790607929">
        <ele>42.400001525878906</ele>
        <time>2018-12-29T12:35:46Z</time>
      </trkpt>
      <trkpt lat="41.274087550118566" lon="1.468992903828621">
        <ele>42.400001525878906</ele>
        <time>2018-12-29T12:35:48Z</time>
      </trkpt>
      <trkpt lat="41.274142367765307" lon="1.469188956543803">
        <ele>42.200000762939453</ele>
        <time>2018-12-29T12:35:50Z</time>
      </trkpt>
      <trkpt lat="41.274169608950615" lon="1.46928945556283">
        <ele>42</ele>
        <time>2018-12-29T12:35:51Z</time>
      </trkpt>
      <trkpt lat="41.27419869415462" lon="1.469390038400888">
        <ele>42</ele>
        <time>2018-12-29T12:35:52Z</time>
      </trkpt>
      <trkpt lat="41.274259714409709" lon="1.469592126086354">
        <ele>42.400001525878906</ele>
        <time>2018-12-29T12:35:54Z</time>
      </trkpt>
      <trkpt lat="41.274316962808371" lon="1.469789268448949">
        <ele>42.400001525878906</ele>
        <time>2018-12-29T12:35:56Z</time>
      </trkpt>
      <trkpt lat="41.274370104074478" lon="1.469982387498021">
        <ele>42.400001525878906</ele>
        <time>2018-12-29T12:35:58Z</time>
      </trkpt>
      <trkpt lat="41.274425843730569" lon="1.470169303938747">
        <ele>42.599998474121094</ele>
        <time>2018-12-29T12:36:00Z</time>
      </trkpt>
      <trkpt lat="41.274455934762955" lon="1.470262762159109">
        <ele>42.599998474121094</ele>
        <time>2018-12-29T12:36:01Z</time>
      </trkpt>
      <trkpt lat="41.27448451705277" lon="1.470358651131392">
        <ele>42.200000762939453</ele>
        <time>2018-12-29T12:36:02Z</time>
      </trkpt>
      <trkpt lat="41.274539083242416" lon="1.470554368570447">
        <ele>41.599998474121094</ele>
        <time>2018-12-29T12:36:04Z</time>
      </trkpt>
      <trkpt lat="41.27459742128849" lon="1.470752684399486">
        <ele>41.200000762939453</ele>
        <time>2018-12-29T12:36:06Z</time>
      </trkpt>
      <trkpt lat="41.274651233106852" lon="1.470952006056905">
        <ele>40.400001525878906</ele>
        <time>2018-12-29T12:36:08Z</time>
      </trkpt>
      <trkpt lat="41.274678390473127" lon="1.471052002161741">
        <ele>40</ele>
        <time>2018-12-29T12:36:09Z</time>
      </trkpt>
      <trkpt lat="41.274708146229386" lon="1.471152249723673">
        <ele>39.599998474121094</ele>
        <time>2018-12-29T12:36:10Z</time>
      </trkpt>
      <trkpt lat="41.274737901985645" lon="1.471254844218493">
        <ele>39.200000762939453</ele>
        <time>2018-12-29T12:36:11Z</time>
      </trkpt>
      <trkpt lat="41.274766903370619" lon="1.471354924142361">
        <ele>38.799999237060547</ele>
        <time>2018-12-29T12:36:12Z</time>
      </trkpt>
      <trkpt lat="41.274824319407344" lon="1.471551395952702">
        <ele>38.400001525878906</ele>
        <time>2018-12-29T12:36:14Z</time>
      </trkpt>
      <trkpt lat="41.274879137054086" lon="1.471734708175063">
        <ele>38.400001525878906</ele>
        <time>2018-12-29T12:36:16Z</time>
      </trkpt>
      <trkpt lat="41.274934792891145" lon="1.471896981820464">
        <ele>39.200000762939453</ele>
        <time>2018-12-29T12:36:18Z</time>
      </trkpt>
      <trkpt lat="41.274968907237053" lon="1.471966383978725">
        <ele>39.200000762939453</ele>
        <time>2018-12-29T12:36:19Z</time>
      </trkpt>
      <trkpt lat="41.275009894743562" lon="1.472028829157352">
        <ele>39.400001525878906</ele>
        <time>2018-12-29T12:36:20Z</time>
      </trkpt>
      <trkpt lat="41.275051468983293" lon="1.472082808613777">
        <ele>39.799999237060547</ele>
        <time>2018-12-29T12:36:21Z</time>
      </trkpt>
      <trkpt lat="41.275097737088799" lon="1.472126226872206">
        <ele>40</ele>
        <time>2018-12-29T12:36:22Z</time>
      </trkpt>
      <trkpt lat="41.275146268308163" lon="1.472165873274207">
        <ele>40.400001525878906</ele>
        <time>2018-12-29T12:36:23Z</time>
      </trkpt>
      <trkpt lat="41.275196056813002" lon="1.472205771133304">
        <ele>40.599998474121094</ele>
        <time>2018-12-29T12:36:24Z</time>
      </trkpt>
      <trkpt lat="41.27524777315557" lon="1.472248435020447">
        <ele>40.799999237060547</ele>
        <time>2018-12-29T12:36:25Z</time>
      </trkpt>
      <trkpt lat="41.27529907040298" lon="1.472292104735971">
        <ele>41</ele>
        <time>2018-12-29T12:36:26Z</time>
      </trkpt>
      <trkpt lat="41.275397809222341" lon="1.47236586548388">
        <ele>41.200000762939453</ele>
        <time>2018-12-29T12:36:28Z</time>
      </trkpt>
      <trkpt lat="41.275442903861403" lon="1.472400231286883">
        <ele>41.400001525878906</ele>
        <time>2018-12-29T12:36:29Z</time>
      </trkpt>
      <trkpt lat="41.275486741214991" lon="1.472433675080538">
        <ele>41.799999237060547</ele>
        <time>2018-12-29T12:36:30Z</time>
      </trkpt>
      <trkpt lat="41.275525549426675" lon="1.472467454150319">
        <ele>42</ele>
        <time>2018-12-29T12:36:31Z</time>
      </trkpt>
      <trkpt lat="41.275563016533852" lon="1.472497042268515">
        <ele>42.400001525878906</ele>
        <time>2018-12-29T12:36:32Z</time>
      </trkpt>
      <trkpt lat="41.275598052889109" lon="1.472530318424106">
        <ele>42.799999237060547</ele>
        <time>2018-12-29T12:36:33Z</time>
      </trkpt>
      <trkpt lat="41.275632586330175" lon="1.472568204626441">
        <ele>43</ele>
        <time>2018-12-29T12:36:34Z</time>
      </trkpt>
      <trkpt lat="41.275710621848702" lon="1.472637187689543">
        <ele>43.799999237060547</ele>
        <time>2018-12-29T12:36:36Z</time>
      </trkpt>
      <trkpt lat="41.275750435888767" lon="1.472664847970009">
        <ele>44</ele>
        <time>2018-12-29T12:36:37Z</time>
      </trkpt>
      <trkpt lat="41.275790836662054" lon="1.472688652575016">
        <ele>44.400001525878906</ele>
        <time>2018-12-29T12:36:38Z</time>
      </trkpt>
      <trkpt lat="41.275826962664723" lon="1.472717737779021">
        <ele>44.599998474121094</ele>
        <time>2018-12-29T12:36:39Z</time>
      </trkpt>
      <trkpt lat="41.275861412286758" lon="1.472747074440122">
        <ele>44.799999237060547</ele>
        <time>2018-12-29T12:36:40Z</time>
      </trkpt>
      <trkpt lat="41.275932993739843" lon="1.472802395001054">
        <ele>45</ele>
        <time>2018-12-29T12:36:42Z</time>
      </trkpt>
      <trkpt lat="41.276000803336501" lon="1.47285595536232">
        <ele>45.799999237060547</ele>
        <time>2018-12-29T12:36:44Z</time>
      </trkpt>
      <trkpt lat="41.276067020371556" lon="1.47291655652225">
        <ele>46</ele>
        <time>2018-12-29T12:36:46Z</time>
      </trkpt>
      <trkpt lat="41.276104403659701" lon="1.472946731373668">
        <ele>46.200000762939453</ele>
        <time>2018-12-29T12:36:47Z</time>
      </trkpt>
      <trkpt lat="41.276143798604608" lon="1.472972882911563">
        <ele>46.400001525878906</ele>
        <time>2018-12-29T12:36:48Z</time>
      </trkpt>
      <trkpt lat="41.276216302067041" lon="1.473024683073163">
        <ele>47</ele>
        <time>2018-12-29T12:36:50Z</time>
      </trkpt>
      <trkpt lat="41.276280926540494" lon="1.473086457699537">
        <ele>47.200000762939453</ele>
        <time>2018-12-29T12:36:52Z</time>
      </trkpt>
      <trkpt lat="41.276340940967202" lon="1.473157536238432">
        <ele>47.799999237060547</ele>
        <time>2018-12-29T12:36:54Z</time>
      </trkpt>
      <trkpt lat="41.276393495500088" lon="1.47324537858367">
        <ele>48.200000762939453</ele>
        <time>2018-12-29T12:36:56Z</time>
      </trkpt>
      <trkpt lat="41.276435069739819" lon="1.473343027755618">
        <ele>49</ele>
        <time>2018-12-29T12:36:58Z</time>
      </trkpt>
      <trkpt lat="41.276461472734809" lon="1.473440509289503">
        <ele>49.400001525878906</ele>
        <time>2018-12-29T12:37:00Z</time>
      </trkpt>
      <trkpt lat="41.276471363380551" lon="1.473489291965962">
        <ele>49.799999237060547</ele>
        <time>2018-12-29T12:37:01Z</time>
      </trkpt>
      <trkpt lat="41.27647815272212" lon="1.473537404090166">
        <ele>50.200000762939453</ele>
        <time>2018-12-29T12:37:02Z</time>
      </trkpt>
      <trkpt lat="41.27647815272212" lon="1.473582331091166">
        <ele>50.599998474121094</ele>
        <time>2018-12-29T12:37:03Z</time>
      </trkpt>
      <trkpt lat="41.276473458856344" lon="1.473629353567958">
        <ele>51</ele>
        <time>2018-12-29T12:37:04Z</time>
      </trkpt>
      <trkpt lat="41.276468597352505" lon="1.473725577816367">
        <ele>51.599998474121094</ele>
        <time>2018-12-29T12:37:06Z</time>
      </trkpt>
      <trkpt lat="41.2764654122293" lon="1.473772181198001">
        <ele>51.799999237060547</ele>
        <time>2018-12-29T12:37:07Z</time>
      </trkpt>
      <trkpt lat="41.276461388915777" lon="1.473821299150586">
        <ele>52.200000762939453</ele>
        <time>2018-12-29T12:37:08Z</time>
      </trkpt>
      <trkpt lat="41.276450240984559" lon="1.473915930837393">
        <ele>52.599998474121094</ele>
        <time>2018-12-29T12:37:10Z</time>
      </trkpt>
      <trkpt lat="41.27644588239491" lon="1.47395926527679">
        <ele>52.799999237060547</ele>
        <time>2018-12-29T12:37:11Z</time>
      </trkpt>
      <trkpt lat="41.276441356167197" lon="1.474003102630377">
        <ele>53.200000762939453</ele>
        <time>2018-12-29T12:37:12Z</time>
      </trkpt>
      <trkpt lat="41.276437500491738" lon="1.474088681861758">
        <ele>53.599998474121094</ele>
        <time>2018-12-29T12:37:14Z</time>
      </trkpt>
      <trkpt lat="41.276437332853675" lon="1.474132351577282">
        <ele>54</ele>
        <time>2018-12-29T12:37:15Z</time>
      </trkpt>
      <trkpt lat="41.276430040597916" lon="1.474178871139884">
        <ele>54.200000762939453</ele>
        <time>2018-12-29T12:37:16Z</time>
      </trkpt>
      <trkpt lat="41.276423335075378" lon="1.474269311875105">
        <ele>54.799999237060547</ele>
        <time>2018-12-29T12:37:18Z</time>
      </trkpt>
      <trkpt lat="41.276421155780554" lon="1.474317759275436">
        <ele>55.200000762939453</ele>
        <time>2018-12-29T12:37:19Z</time>
      </trkpt>
      <trkpt lat="41.276420233771205" lon="1.474362853914499">
        <ele>55.400001525878906</ele>
        <time>2018-12-29T12:37:20Z</time>
      </trkpt>
      <trkpt lat="41.27641512081027" lon="1.474405433982611">
        <ele>55.799999237060547</ele>
        <time>2018-12-29T12:37:21Z</time>
      </trkpt>
      <trkpt lat="41.276413192972541" lon="1.474448433145881">
        <ele>56</ele>
        <time>2018-12-29T12:37:22Z</time>
      </trkpt>
      <trkpt lat="41.27640875056386" lon="1.474491851404309">
        <ele>56.400001525878906</ele>
        <time>2018-12-29T12:37:23Z</time>
      </trkpt>
      <trkpt lat="41.276404475793242" lon="1.474531497806311">
        <ele>56.799999237060547</ele>
        <time>2018-12-29T12:37:24Z</time>
      </trkpt>
      <trkpt lat="41.276403972879052" lon="1.474614562466741">
        <ele>57.400001525878906</ele>
        <time>2018-12-29T12:37:26Z</time>
      </trkpt>
      <trkpt lat="41.276402967050672" lon="1.474653370678425">
        <ele>57.599998474121094</ele>
        <time>2018-12-29T12:37:27Z</time>
      </trkpt>
      <trkpt lat="41.276406152173877" lon="1.474693603813648">
        <ele>58</ele>
        <time>2018-12-29T12:37:28Z</time>
      </trkpt>
      <trkpt lat="41.276415372267365" lon="1.474775746464729">
        <ele>58.400001525878906</ele>
        <time>2018-12-29T12:37:30Z</time>
      </trkpt>
      <trkpt lat="41.276429537683725" lon="1.474852608516812">
        <ele>58.799999237060547</ele>
        <time>2018-12-29T12:37:32Z</time>
      </trkpt>
      <trkpt lat="41.276446301490068" lon="1.474928967654705">
        <ele>59.200000762939453</ele>
        <time>2018-12-29T12:37:34Z</time>
      </trkpt>
      <trkpt lat="41.276462897658348" lon="1.475010188296437">
        <ele>59.400001525878906</ele>
        <time>2018-12-29T12:37:36Z</time>
      </trkpt>
      <trkpt lat="41.276488043367863" lon="1.475089732557535">
        <ele>59.599998474121094</ele>
        <time>2018-12-29T12:37:38Z</time>
      </trkpt>
      <trkpt lat="41.276495587080717" lon="1.475129881873727">
        <ele>59.799999237060547</ele>
        <time>2018-12-29T12:37:39Z</time>
      </trkpt>
      <trkpt lat="41.276504471898079" lon="1.475160978734493">
        <ele>60</ele>
        <time>2018-12-29T12:37:40Z</time>
      </trkpt>
      <trkpt lat="41.276525761932135" lon="1.475219568237662">
        <ele>60.200000762939453</ele>
        <time>2018-12-29T12:37:42Z</time>
      </trkpt>
      <trkpt lat="41.276548728346825" lon="1.475276481360197">
        <ele>60.400001525878906</ele>
        <time>2018-12-29T12:37:44Z</time>
      </trkpt>
      <trkpt lat="41.276564653962851" lon="1.47534110583365">
        <ele>60.400001525878906</ele>
        <time>2018-12-29T12:37:46Z</time>
      </trkpt>
      <trkpt lat="41.276579657569528" lon="1.475405730307102">
        <ele>60.799999237060547</ele>
        <time>2018-12-29T12:37:48Z</time>
      </trkpt>
      <trkpt lat="41.276585524901748" lon="1.475439006462693">
        <ele>60.799999237060547</ele>
        <time>2018-12-29T12:37:49Z</time>
      </trkpt>
      <trkpt lat="41.276592733338475" lon="1.475472953170538">
        <ele>61</ele>
        <time>2018-12-29T12:37:50Z</time>
      </trkpt>
      <trkpt lat="41.276608575135469" lon="1.475538834929466">
        <ele>61.400001525878906</ele>
        <time>2018-12-29T12:37:52Z</time>
      </trkpt>
      <trkpt lat="41.276628607884049" lon="1.475599352270365">
        <ele>61.400001525878906</ele>
        <time>2018-12-29T12:37:54Z</time>
      </trkpt>
      <trkpt lat="41.276652244850993" lon="1.475664312019944">
        <ele>61.400001525878906</ele>
        <time>2018-12-29T12:37:56Z</time>
      </trkpt>
      <trkpt lat="41.27668141387403" lon="1.475736312568188">
        <ele>61.799999237060547</ele>
        <time>2018-12-29T12:37:58Z</time>
      </trkpt>
      <trkpt lat="41.276708822697401" lon="1.475815186277032">
        <ele>61.799999237060547</ele>
        <time>2018-12-29T12:38:00Z</time>
      </trkpt>
      <trkpt lat="41.276736566796899" lon="1.475896406918764">
        <ele>62</ele>
        <time>2018-12-29T12:38:02Z</time>
      </trkpt>
      <trkpt lat="41.276759281754494" lon="1.475976118817926">
        <ele>62</ele>
        <time>2018-12-29T12:38:04Z</time>
      </trkpt>
      <trkpt lat="41.276784762740135" lon="1.476053316146135">
        <ele>62.200000762939453</ele>
        <time>2018-12-29T12:38:06Z</time>
      </trkpt>
      <trkpt lat="41.276814015582204" lon="1.476133111864328">
        <ele>62.599998474121094</ele>
        <time>2018-12-29T12:38:08Z</time>
      </trkpt>
      <trkpt lat="41.276842514052987" lon="1.47621626034379">
        <ele>62.599998474121094</ele>
        <time>2018-12-29T12:38:10Z</time>
      </trkpt>
      <trkpt lat="41.276872102171183" lon="1.476298654451966">
        <ele>62.799999237060547</ele>
        <time>2018-12-29T12:38:12Z</time>
      </trkpt>
      <trkpt lat="41.27688811160624" lon="1.47633939050138">
        <ele>62.799999237060547</ele>
        <time>2018-12-29T12:38:13Z</time>
      </trkpt>
      <trkpt lat="41.276901857927442" lon="1.47637945599854">
        <ele>63</ele>
        <time>2018-12-29T12:38:14Z</time>
      </trkpt>
      <trkpt lat="41.276932535693049" lon="1.476455815136433">
        <ele>63.200000762939453</ele>
        <time>2018-12-29T12:38:16Z</time>
      </trkpt>
      <trkpt lat="41.276956424117088" lon="1.476537203416228">
        <ele>63.200000762939453</ele>
        <time>2018-12-29T12:38:18Z</time>
      </trkpt>
      <trkpt lat="41.276984168216586" lon="1.476620938628912">
        <ele>63.200000762939453</ele>
        <time>2018-12-29T12:38:20Z</time>
      </trkpt>
      <trkpt lat="41.277016354724765" lon="1.47670341655612">
        <ele>63.400001525878906</ele>
        <time>2018-12-29T12:38:22Z</time>
      </trkpt>
      <trkpt lat="41.277044769376516" lon="1.476788409054279">
        <ele>63.799999237060547</ele>
        <time>2018-12-29T12:38:24Z</time>
      </trkpt>
      <trkpt lat="41.277057593688369" lon="1.476830402389169">
        <ele>63.799999237060547</ele>
        <time>2018-12-29T12:38:25Z</time>
      </trkpt>
      <trkpt lat="41.277071675285697" lon="1.476874826475978">
        <ele>64</ele>
        <time>2018-12-29T12:38:26Z</time>
      </trkpt>
      <trkpt lat="41.277104699984193" lon="1.476966273039579">
        <ele>63.799999237060547</ele>
        <time>2018-12-29T12:38:28Z</time>
      </trkpt>
      <trkpt lat="41.277121128514409" lon="1.477011870592833">
        <ele>64</ele>
        <time>2018-12-29T12:38:29Z</time>
      </trkpt>
      <trkpt lat="41.277135377749801" lon="1.47705914452672">
        <ele>64.199996948242188</ele>
        <time>2018-12-29T12:38:30Z</time>
      </trkpt>
      <trkpt lat="41.27716806717217" lon="1.477153692394495">
        <ele>64.599998474121094</ele>
        <time>2018-12-29T12:38:32Z</time>
      </trkpt>
      <trkpt lat="41.277205869555473" lon="1.477240696549416">
        <ele>64.800003051757812</ele>
        <time>2018-12-29T12:38:34Z</time>
      </trkpt>
      <trkpt lat="41.277244677767158" lon="1.477322755381465">
        <ele>64.800003051757812</ele>
        <time>2018-12-29T12:38:36Z</time>
      </trkpt>
      <trkpt lat="41.27726680599153" lon="1.477364329621196">
        <ele>64.800003051757812</ele>
        <time>2018-12-29T12:38:37Z</time>
      </trkpt>
      <trkpt lat="41.277290778234601" lon="1.477407747879624">
        <ele>64.800003051757812</ele>
        <time>2018-12-29T12:38:38Z</time>
      </trkpt>
      <trkpt lat="41.277343584224582" lon="1.477496847510338">
        <ele>64.400001525878906</ele>
        <time>2018-12-29T12:38:40Z</time>
      </trkpt>
      <trkpt lat="41.277406867593527" lon="1.477585695683956">
        <ele>64.199996948242188</ele>
        <time>2018-12-29T12:38:42Z</time>
      </trkpt>
      <trkpt lat="41.277475263923407" lon="1.477685607969761">
        <ele>63.799999237060547</ele>
        <time>2018-12-29T12:38:44Z</time>
      </trkpt>
      <trkpt lat="41.27754969522357" lon="1.47778962738812">
        <ele>63.400001525878906</ele>
        <time>2018-12-29T12:38:46Z</time>
      </trkpt>
      <trkpt lat="41.277628736570477" lon="1.477907560765743">
        <ele>63.200000762939453</ele>
        <time>2018-12-29T12:38:48Z</time>
      </trkpt>
      <trkpt lat="41.27771825529635" lon="1.478034630417824">
        <ele>62.599998474121094</ele>
        <time>2018-12-29T12:38:50Z</time>
      </trkpt>
      <trkpt lat="41.2778106238693" lon="1.478179302066565">
        <ele>61.799999237060547</ele>
        <time>2018-12-29T12:38:52Z</time>
      </trkpt>
      <trkpt lat="41.277859238907695" lon="1.478256247937679">
        <ele>61.599998474121094</ele>
        <time>2018-12-29T12:38:53Z</time>
      </trkpt>
      <trkpt lat="41.277905842289329" lon="1.478340569883585">
        <ele>61.200000762939453</ele>
        <time>2018-12-29T12:38:54Z</time>
      </trkpt>
      <trkpt lat="41.277992930263281" lon="1.47851625457406">
        <ele>60.400001525878906</ele>
        <time>2018-12-29T12:38:56Z</time>
      </trkpt>
      <trkpt lat="41.278064679354429" lon="1.478706188499928">
        <ele>59.400001525878906</ele>
        <time>2018-12-29T12:38:58Z</time>
      </trkpt>
      <trkpt lat="41.278103655204177" lon="1.478799981996417">
        <ele>58.799999237060547</ele>
        <time>2018-12-29T12:38:59Z</time>
      </trkpt>
      <trkpt lat="41.278143636882305" lon="1.478896122425795">
        <ele>58</ele>
        <time>2018-12-29T12:39:00Z</time>
      </trkpt>
      <trkpt lat="41.278183702379465" lon="1.478992849588394">
        <ele>57.599998474121094</ele>
        <time>2018-12-29T12:39:01Z</time>
      </trkpt>
      <trkpt lat="41.27822452224791" lon="1.479089995846152">
        <ele>57.200000762939453</ele>
        <time>2018-12-29T12:39:02Z</time>
      </trkpt>
      <trkpt lat="41.278301887214184" lon="1.479291915893555">
        <ele>56.200000762939453</ele>
        <time>2018-12-29T12:39:04Z</time>
      </trkpt>
      <trkpt lat="41.278386460617185" lon="1.479490399360657">
        <ele>55.400001525878906</ele>
        <time>2018-12-29T12:39:06Z</time>
      </trkpt>
      <trkpt lat="41.278428034856915" lon="1.479589054360986">
        <ele>55.200000762939453</ele>
        <time>2018-12-29T12:39:07Z</time>
      </trkpt>
      <trkpt lat="41.278468770906329" lon="1.479686871170998">
        <ele>54.599998474121094</ele>
        <time>2018-12-29T12:39:08Z</time>
      </trkpt>
      <trkpt lat="41.278550745919347" lon="1.479886695742607">
        <ele>54</ele>
        <time>2018-12-29T12:39:10Z</time>
      </trkpt>
      <trkpt lat="41.278637750074267" lon="1.480093225836754">
        <ele>53.599998474121094</ele>
        <time>2018-12-29T12:39:12Z</time>
      </trkpt>
      <trkpt lat="41.278679156675935" lon="1.480198418721557">
        <ele>52.799999237060547</ele>
        <time>2018-12-29T12:39:13Z</time>
      </trkpt>
      <trkpt lat="41.278722658753395" lon="1.480302521958947">
        <ele>52.400001525878906</ele>
        <time>2018-12-29T12:39:14Z</time>
      </trkpt>
      <trkpt lat="41.278807735070586" lon="1.480514165014029">
        <ele>52</ele>
        <time>2018-12-29T12:39:16Z</time>
      </trkpt>
      <trkpt lat="41.278851656243205" lon="1.480619944632053">
        <ele>51.599998474121094</ele>
        <time>2018-12-29T12:39:17Z</time>
      </trkpt>
      <trkpt lat="41.278893481940031" lon="1.480724634602666">
        <ele>51.599998474121094</ele>
        <time>2018-12-29T12:39:18Z</time>
      </trkpt>
      <trkpt lat="41.278961291536689" lon="1.480950862169266">
        <ele>50.799999237060547</ele>
        <time>2018-12-29T12:39:20Z</time>
      </trkpt>
      <trkpt lat="41.278985096141696" lon="1.481071477755904">
        <ele>50.599998474121094</ele>
        <time>2018-12-29T12:39:21Z</time>
      </trkpt>
      <trkpt lat="41.278997166082263" lon="1.481198044493794">
        <ele>50</ele>
        <time>2018-12-29T12:39:22Z</time>
      </trkpt>
      <trkpt lat="41.27899800427258" lon="1.481456542387605">
        <ele>48.799999237060547</ele>
        <time>2018-12-29T12:39:24Z</time>
      </trkpt>
      <trkpt lat="41.278984928503633" lon="1.48172115907073">
        <ele>47.599998474121094</ele>
        <time>2018-12-29T12:39:26Z</time>
      </trkpt>
      <trkpt lat="41.278970930725336" lon="1.481973454356194">
        <ele>46.799999237060547</ele>
        <time>2018-12-29T12:39:28Z</time>
      </trkpt>
      <trkpt lat="41.278964225202799" lon="1.482098093256354">
        <ele>46.400001525878906</ele>
        <time>2018-12-29T12:39:29Z</time>
      </trkpt>
      <trkpt lat="41.278956262394786" lon="1.482226252555847">
        <ele>45.799999237060547</ele>
        <time>2018-12-29T12:39:30Z</time>
      </trkpt>
      <trkpt lat="41.278951233252883" lon="1.482354663312435">
        <ele>45.200000762939453</ele>
        <time>2018-12-29T12:39:31Z</time>
      </trkpt>
      <trkpt lat="41.278945198282599" lon="1.482485421001911">
        <ele>44.799999237060547</ele>
        <time>2018-12-29T12:39:32Z</time>
      </trkpt>
      <trkpt lat="41.278936145827174" lon="1.482745595276356">
        <ele>44.400001525878906</ele>
        <time>2018-12-29T12:39:34Z</time>
      </trkpt>
      <trkpt lat="41.278932206332684" lon="1.482876688241959">
        <ele>44</ele>
        <time>2018-12-29T12:39:35Z</time>
      </trkpt>
      <trkpt lat="41.27892809920013" lon="1.483008619397879">
        <ele>43.799999237060547</ele>
        <time>2018-12-29T12:39:36Z</time>
      </trkpt>
      <trkpt lat="41.278923405334353" lon="1.483140802010894">
        <ele>43.400001525878906</ele>
        <time>2018-12-29T12:39:37Z</time>
      </trkpt>
      <trkpt lat="41.278918040916324" lon="1.483270972967148">
        <ele>43</ele>
        <time>2018-12-29T12:39:38Z</time>
      </trkpt>
      <trkpt lat="41.278910748660564" lon="1.483402820304036">
        <ele>42.400001525878906</ele>
        <time>2018-12-29T12:39:39Z</time>
      </trkpt>
      <trkpt lat="41.2789037078619" lon="1.483533410355449">
        <ele>42.200000762939453</ele>
        <time>2018-12-29T12:39:40Z</time>
      </trkpt>
      <trkpt lat="41.278891135007143" lon="1.483796266838908">
        <ele>42.200000762939453</ele>
        <time>2018-12-29T12:39:42Z</time>
      </trkpt>
      <trkpt lat="41.278883423656225" lon="1.484053758904338">
        <ele>42.200000762939453</ele>
        <time>2018-12-29T12:39:44Z</time>
      </trkpt>
      <trkpt lat="41.2788743712008" lon="1.484302701428533">
        <ele>42.400001525878906</ele>
        <time>2018-12-29T12:39:46Z</time>
      </trkpt>
      <trkpt lat="41.278871102258563" lon="1.484421556815505">
        <ele>42.400001525878906</ele>
        <time>2018-12-29T12:39:47Z</time>
      </trkpt>
      <trkpt lat="41.278867833316326" lon="1.484537646174431">
        <ele>42.599998474121094</ele>
        <time>2018-12-29T12:39:48Z</time>
      </trkpt>
      <trkpt lat="41.278857188299298" lon="1.484760604798794">
        <ele>43.200000762939453</ele>
        <time>2018-12-29T12:39:50Z</time>
      </trkpt>
      <trkpt lat="41.278849979862571" lon="1.484871665015817">
        <ele>43.400001525878906</ele>
        <time>2018-12-29T12:39:51Z</time>
      </trkpt>
      <trkpt lat="41.278844950720668" lon="1.484984317794442">
        <ele>43.400001525878906</ele>
        <time>2018-12-29T12:39:52Z</time>
      </trkpt>
      <trkpt lat="41.278836484998465" lon="1.485211970284581">
        <ele>43.200000762939453</ele>
        <time>2018-12-29T12:39:54Z</time>
      </trkpt>
      <trkpt lat="41.278832545503974" lon="1.485328897833824">
        <ele>42.799999237060547</ele>
        <time>2018-12-29T12:39:55Z</time>
      </trkpt>
      <trkpt lat="41.278831791132689" lon="1.485449764877558">
        <ele>42.400001525878906</ele>
        <time>2018-12-29T12:39:56Z</time>
      </trkpt>
      <trkpt lat="41.278827600181103" lon="1.485693762078881">
        <ele>41.200000762939453</ele>
        <time>2018-12-29T12:39:58Z</time>
      </trkpt>
      <trkpt lat="41.278818296268582" lon="1.485942536965013">
        <ele>40.200000762939453</ele>
        <time>2018-12-29T12:40:00Z</time>
      </trkpt>
      <trkpt lat="41.278811674565077" lon="1.486069187521935">
        <ele>39.599998474121094</ele>
        <time>2018-12-29T12:40:01Z</time>
      </trkpt>
      <trkpt lat="41.278807483613491" lon="1.486196927726269">
        <ele>39.200000762939453</ele>
        <time>2018-12-29T12:40:02Z</time>
      </trkpt>
      <trkpt lat="41.278796335682273" lon="1.486463807523251">
        <ele>38.200000762939453</ele>
        <time>2018-12-29T12:40:04Z</time>
      </trkpt>
      <trkpt lat="41.27878887578845" lon="1.486736889928579">
        <ele>36.799999237060547</ele>
        <time>2018-12-29T12:40:06Z</time>
      </trkpt>
      <trkpt lat="41.278780326247215" lon="1.487016677856445">
        <ele>35.799999237060547</ele>
        <time>2018-12-29T12:40:08Z</time>
      </trkpt>
      <trkpt lat="41.278759371489286" lon="1.487151375040412">
        <ele>35.400001525878906</ele>
        <time>2018-12-29T12:40:09Z</time>
      </trkpt>
      <trkpt lat="41.278717629611492" lon="1.487278193235397">
        <ele>34.599998474121094</ele>
        <time>2018-12-29T12:40:10Z</time>
      </trkpt>
      <trkpt lat="41.278654430061579" lon="1.487389756366611">
        <ele>34</ele>
        <time>2018-12-29T12:40:11Z</time>
      </trkpt>
      <trkpt lat="41.278579831123352" lon="1.487486651167274">
        <ele>33.200000762939453</ele>
        <time>2018-12-29T12:40:12Z</time>
      </trkpt>
      <trkpt lat="41.278428956866264" lon="1.487685386091471">
        <ele>32.599998474121094</ele>
        <time>2018-12-29T12:40:14Z</time>
      </trkpt>
      <trkpt lat="41.278326865285635" lon="1.487923935055733">
        <ele>32</ele>
        <time>2018-12-29T12:40:16Z</time>
      </trkpt>
      <trkpt lat="41.278309933841228" lon="1.48805620148778">
        <ele>31.600000381469727</ele>
        <time>2018-12-29T12:40:17Z</time>
      </trkpt>
      <trkpt lat="41.27831001766026" lon="1.488188048824668">
        <ele>31.399999618530273</ele>
        <time>2018-12-29T12:40:18Z</time>
      </trkpt>
      <trkpt lat="41.278345473110676" lon="1.488429196178913">
        <ele>31.399999618530273</ele>
        <time>2018-12-29T12:40:20Z</time>
      </trkpt>
      <trkpt lat="41.27835838124156" lon="1.488529946655035">
        <ele>31.399999618530273</ele>
        <time>2018-12-29T12:40:21Z</time>
      </trkpt>
      <trkpt lat="41.278341030701995" lon="1.488623572513461">
        <ele>31.600000381469727</ele>
        <time>2018-12-29T12:40:22Z</time>
      </trkpt>
      <trkpt lat="41.278303815051913" lon="1.48870412260294">
        <ele>31.399999618530273</ele>
        <time>2018-12-29T12:40:23Z</time>
      </trkpt>
      <trkpt lat="41.278244974091649" lon="1.488769166171551">
        <ele>31.200000762939453</ele>
        <time>2018-12-29T12:40:24Z</time>
      </trkpt>
      <trkpt lat="41.278116228058934" lon="1.488861450925469">
        <ele>31.399999618530273</ele>
        <time>2018-12-29T12:40:26Z</time>
      </trkpt>
      <trkpt lat="41.278053531423211" lon="1.488899169489741">
        <ele>31.600000381469727</ele>
        <time>2018-12-29T12:40:27Z</time>
      </trkpt>
      <trkpt lat="41.277993684634566" lon="1.488938732072711">
        <ele>31.799999237060547</ele>
        <time>2018-12-29T12:40:28Z</time>
      </trkpt>
      <trkpt lat="41.277882875874639" lon="1.489012073725462">
        <ele>32.200000762939453</ele>
        <time>2018-12-29T12:40:30Z</time>
      </trkpt>
      <trkpt lat="41.277783801779151" lon="1.489077787846327">
        <ele>32.599998474121094</ele>
        <time>2018-12-29T12:40:32Z</time>
      </trkpt>
      <trkpt lat="41.27769386395812" lon="1.489130090922117">
        <ele>33.200000762939453</ele>
        <time>2018-12-29T12:40:34Z</time>
      </trkpt>
      <trkpt lat="41.277621192857623" lon="1.489182645455003">
        <ele>34</ele>
        <time>2018-12-29T12:40:36Z</time>
      </trkpt>
      <trkpt lat="41.277588503435254" lon="1.489206617698073">
        <ele>34.400001525878906</ele>
        <time>2018-12-29T12:40:37Z</time>
      </trkpt>
      <trkpt lat="41.277558077126741" lon="1.489228410646319">
        <ele>34.599998474121094</ele>
        <time>2018-12-29T12:40:38Z</time>
      </trkpt>
      <trkpt lat="41.277502421289682" lon="1.48926168680191">
        <ele>35</ele>
        <time>2018-12-29T12:40:40Z</time>
      </trkpt>
      <trkpt lat="41.277457075193524" lon="1.489288676530123">
        <ele>35</ele>
        <time>2018-12-29T12:40:42Z</time>
      </trkpt>
      <trkpt lat="41.277436623349786" lon="1.489300578832626">
        <ele>35.200000762939453</ele>
        <time>2018-12-29T12:40:43Z</time>
      </trkpt>
      <trkpt lat="41.277421116828918" lon="1.489313403144479">
        <ele>35.200000762939453</ele>
        <time>2018-12-29T12:40:44Z</time>
      </trkpt>
      <trkpt lat="41.277395468205214" lon="1.489356569945812">
        <ele>35.200000762939453</ele>
        <time>2018-12-29T12:40:46Z</time>
      </trkpt>
      <trkpt lat="41.277351463213563" lon="1.489409795030952">
        <ele>35.200000762939453</ele>
        <time>2018-12-29T12:40:48Z</time>
      </trkpt>
      <trkpt lat="41.277295891195536" lon="1.489463187754154">
        <ele>35.400001525878906</ele>
        <time>2018-12-29T12:40:50Z</time>
      </trkpt>
      <trkpt lat="41.277249036356807" lon="1.489525884389877">
        <ele>35.799999237060547</ele>
        <time>2018-12-29T12:40:52Z</time>
      </trkpt>
      <trkpt lat="41.277213413268328" lon="1.489622192457318">
        <ele>35.599998474121094</ele>
        <time>2018-12-29T12:40:54Z</time>
      </trkpt>
      <trkpt lat="41.277197068557143" lon="1.489737359806895">
        <ele>35.400001525878906</ele>
        <time>2018-12-29T12:40:56Z</time>
      </trkpt>
      <trkpt lat="41.277212407439947" lon="1.489874739199877">
        <ele>35</ele>
        <time>2018-12-29T12:40:58Z</time>
      </trkpt>
      <trkpt lat="41.277248449623585" lon="1.49001563899219">
        <ele>34</ele>
        <time>2018-12-29T12:41:00Z</time>
      </trkpt>
      <trkpt lat="41.27728633582592" lon="1.490166429430246">
        <ele>33.400001525878906</ele>
        <time>2018-12-29T12:41:02Z</time>
      </trkpt>
      <trkpt lat="41.277306200936437" lon="1.490246308967471">
        <ele>33</ele>
        <time>2018-12-29T12:41:03Z</time>
      </trkpt>
      <trkpt lat="41.277326233685017" lon="1.490327110514045">
        <ele>32.599998474121094</ele>
        <time>2018-12-29T12:41:04Z</time>
      </trkpt>
      <trkpt lat="41.277369065210223" lon="1.490497263148427">
        <ele>32.400001525878906</ele>
        <time>2018-12-29T12:41:06Z</time>
      </trkpt>
      <trkpt lat="41.277415920048952" lon="1.490675713866949">
        <ele>31.600000381469727</ele>
        <time>2018-12-29T12:41:08Z</time>
      </trkpt>
      <trkpt lat="41.277462523430586" lon="1.490861289203167">
        <ele>31.200000762939453</ele>
        <time>2018-12-29T12:41:10Z</time>
      </trkpt>
      <trkpt lat="41.277514826506376" lon="1.491039739921689">
        <ele>30.799999237060547</ele>
        <time>2018-12-29T12:41:12Z</time>
      </trkpt>
      <trkpt lat="41.277539050206542" lon="1.491129091009498">
        <ele>30.399999618530273</ele>
        <time>2018-12-29T12:41:13Z</time>
      </trkpt>
      <trkpt lat="41.277559669688344" lon="1.491221124306321">
        <ele>30.200000762939453</ele>
        <time>2018-12-29T12:41:14Z</time>
      </trkpt>
      <trkpt lat="41.277610128745437" lon="1.491396222263575">
        <ele>30</ele>
        <time>2018-12-29T12:41:16Z</time>
      </trkpt>
      <trkpt lat="41.277657067403197" lon="1.491570146754384">
        <ele>29.799999237060547</ele>
        <time>2018-12-29T12:41:18Z</time>
      </trkpt>
      <trkpt lat="41.27769973129034" lon="1.491753375157714">
        <ele>29.600000381469727</ele>
        <time>2018-12-29T12:41:20Z</time>
      </trkpt>
      <trkpt lat="41.27772219479084" lon="1.491843480616808">
        <ele>29.399999618530273</ele>
        <time>2018-12-29T12:41:21Z</time>
      </trkpt>
      <trkpt lat="41.277747005224228" lon="1.491931909695268">
        <ele>29.399999618530273</ele>
        <time>2018-12-29T12:41:22Z</time>
      </trkpt>
      <trkpt lat="41.277800481766462" lon="1.492108097299933">
        <ele>29</ele>
        <time>2018-12-29T12:41:24Z</time>
      </trkpt>
      <trkpt lat="41.277843816205859" lon="1.492287470027804">
        <ele>28.600000381469727</ele>
        <time>2018-12-29T12:41:26Z</time>
      </trkpt>
      <trkpt lat="41.277864687144756" lon="1.492380006238818">
        <ele>28.200000762939453</ele>
        <time>2018-12-29T12:41:27Z</time>
      </trkpt>
      <trkpt lat="41.277885055169463" lon="1.492470279335976">
        <ele>28.200000762939453</ele>
        <time>2018-12-29T12:41:28Z</time>
      </trkpt>
      <trkpt lat="41.277933586388826" lon="1.492650238797069">
        <ele>28</ele>
        <time>2018-12-29T12:41:30Z</time>
      </trkpt>
      <trkpt lat="41.277977088466287" lon="1.492829862982035">
        <ele>27.600000381469727</ele>
        <time>2018-12-29T12:41:32Z</time>
      </trkpt>
      <trkpt lat="41.278024530038238" lon="1.493002781644464">
        <ele>27.399999618530273</ele>
        <time>2018-12-29T12:41:34Z</time>
      </trkpt>
      <trkpt lat="41.278070379048586" lon="1.493172850459814">
        <ele>27.200000762939453</ele>
        <time>2018-12-29T12:41:36Z</time>
      </trkpt>
      <trkpt lat="41.278112707659602" lon="1.493340823799372">
        <ele>27.399999618530273</ele>
        <time>2018-12-29T12:41:38Z</time>
      </trkpt>
      <trkpt lat="41.278153862804174" lon="1.493511060252786">
        <ele>27</ele>
        <time>2018-12-29T12:41:40Z</time>
      </trkpt>
      <trkpt lat="41.278195939958096" lon="1.493683895096183">
        <ele>26.600000381469727</ele>
        <time>2018-12-29T12:41:42Z</time>
      </trkpt>
      <trkpt lat="41.278228377923369" lon="1.493860250338912">
        <ele>26.200000762939453</ele>
        <time>2018-12-29T12:41:44Z</time>
      </trkpt>
      <trkpt lat="41.278250338509679" lon="1.493945745751262">
        <ele>26.200000762939453</ele>
        <time>2018-12-29T12:41:45Z</time>
      </trkpt>
      <trkpt lat="41.278264001011848" lon="1.494032498449087">
        <ele>26.200000762939453</ele>
        <time>2018-12-29T12:41:46Z</time>
      </trkpt>
      <trkpt lat="41.278266180306673" lon="1.494122603908181">
        <ele>26.200000762939453</ele>
        <time>2018-12-29T12:41:47Z</time>
      </trkpt>
      <trkpt lat="41.278257882222533" lon="1.494210865348578">
        <ele>26</ele>
        <time>2018-12-29T12:41:48Z</time>
      </trkpt>
      <trkpt lat="41.278249500319362" lon="1.494299964979291">
        <ele>26</ele>
        <time>2018-12-29T12:41:49Z</time>
      </trkpt>
      <trkpt lat="41.278260229155421" lon="1.494387555867434">
        <ele>26.399999618530273</ele>
        <time>2018-12-29T12:41:50Z</time>
      </trkpt>
      <trkpt lat="41.278327284380794" lon="1.494541866704822">
        <ele>26.200000762939453</ele>
        <time>2018-12-29T12:41:52Z</time>
      </trkpt>
      <trkpt lat="41.278413869440556" lon="1.494679162278771">
        <ele>25.799999237060547</ele>
        <time>2018-12-29T12:41:54Z</time>
      </trkpt>
      <trkpt lat="41.278480840846896" lon="1.494837999343872">
        <ele>25.399999618530273</ele>
        <time>2018-12-29T12:41:56Z</time>
      </trkpt>
      <trkpt lat="41.278509004041553" lon="1.494919555261731">
        <ele>25.399999618530273</ele>
        <time>2018-12-29T12:41:57Z</time>
      </trkpt>
      <trkpt lat="41.278533646836877" lon="1.495003374293447">
        <ele>25.200000762939453</ele>
        <time>2018-12-29T12:41:58Z</time>
      </trkpt>
      <trkpt lat="41.278557032346725" lon="1.495087360963225">
        <ele>25</ele>
        <time>2018-12-29T12:41:59Z</time>
      </trkpt>
      <trkpt lat="41.27857924439013" lon="1.495169503614306">
        <ele>25</ele>
        <time>2018-12-29T12:42:00Z</time>
      </trkpt>
      <trkpt lat="41.278621070086956" lon="1.495331609621644">
        <ele>25.399999618530273</ele>
        <time>2018-12-29T12:42:02Z</time>
      </trkpt>
      <trkpt lat="41.278640516102314" lon="1.49541056714952">
        <ele>25.600000381469727</ele>
        <time>2018-12-29T12:42:03Z</time>
      </trkpt>
      <trkpt lat="41.278661722317338" lon="1.495487596839666">
        <ele>26</ele>
        <time>2018-12-29T12:42:04Z</time>
      </trkpt>
      <trkpt lat="41.278680916875601" lon="1.495563704520464">
        <ele>26.200000762939453</ele>
        <time>2018-12-29T12:42:05Z</time>
      </trkpt>
      <trkpt lat="41.278698686510324" lon="1.495637968182564">
        <ele>26.200000762939453</ele>
        <time>2018-12-29T12:42:06Z</time>
      </trkpt>
      <trkpt lat="41.278729280456901" lon="1.495780711993575">
        <ele>26.399999618530273</ele>
        <time>2018-12-29T12:42:08Z</time>
      </trkpt>
      <trkpt lat="41.278751492500305" lon="1.495923288166523">
        <ele>26.799999237060547</ele>
        <time>2018-12-29T12:42:10Z</time>
      </trkpt>
      <trkpt lat="41.278768926858902" lon="1.496069133281708">
        <ele>27.399999618530273</ele>
        <time>2018-12-29T12:42:12Z</time>
      </trkpt>
      <trkpt lat="41.278783595189452" lon="1.496214810758829">
        <ele>27.799999237060547</ele>
        <time>2018-12-29T12:42:14Z</time>
      </trkpt>
      <trkpt lat="41.278793485835195" lon="1.496361158788204">
        <ele>28</ele>
        <time>2018-12-29T12:42:16Z</time>
      </trkpt>
      <trkpt lat="41.278804130852222" lon="1.496503902599216">
        <ele>28.399999618530273</ele>
        <time>2018-12-29T12:42:18Z</time>
      </trkpt>
      <trkpt lat="41.278810668736696" lon="1.49657255038619">
        <ele>28.399999618530273</ele>
        <time>2018-12-29T12:42:19Z</time>
      </trkpt>
      <trkpt lat="41.27881670370698" lon="1.496643545106053">
        <ele>28.399999618530273</ele>
        <time>2018-12-29T12:42:20Z</time>
      </trkpt>
      <trkpt lat="41.278829947113991" lon="1.496787462383509">
        <ele>28.600000381469727</ele>
        <time>2018-12-29T12:42:22Z</time>
      </trkpt>
      <trkpt lat="41.27884553745389" lon="1.496932301670313">
        <ele>28.799999237060547</ele>
        <time>2018-12-29T12:42:24Z</time>
      </trkpt>
      <trkpt lat="41.278858026489615" lon="1.497071105986834">
        <ele>29</ele>
        <time>2018-12-29T12:42:26Z</time>
      </trkpt>
      <trkpt lat="41.27887244336307" lon="1.49721167050302">
        <ele>29.399999618530273</ele>
        <time>2018-12-29T12:42:28Z</time>
      </trkpt>
      <trkpt lat="41.278876131400466" lon="1.497281575575471">
        <ele>29.600000381469727</ele>
        <time>2018-12-29T12:42:29Z</time>
      </trkpt>
      <trkpt lat="41.278881747275591" lon="1.497352318838239">
        <ele>29.799999237060547</ele>
        <time>2018-12-29T12:42:30Z</time>
      </trkpt>
      <trkpt lat="41.27889440394938" lon="1.497493553906679">
        <ele>30</ele>
        <time>2018-12-29T12:42:32Z</time>
      </trkpt>
      <trkpt lat="41.278905216604471" lon="1.497630514204502">
        <ele>30.200000762939453</ele>
        <time>2018-12-29T12:42:34Z</time>
      </trkpt>
      <trkpt lat="41.278915274888277" lon="1.497769821435213">
        <ele>30.600000381469727</ele>
        <time>2018-12-29T12:42:36Z</time>
      </trkpt>
      <trkpt lat="41.27891980111599" lon="1.49783855304122">
        <ele>30.799999237060547</ele>
        <time>2018-12-29T12:42:37Z</time>
      </trkpt>
      <trkpt lat="41.278927596285939" lon="1.497905608266592">
        <ele>30.799999237060547</ele>
        <time>2018-12-29T12:42:38Z</time>
      </trkpt>
      <trkpt lat="41.278933295980096" lon="1.497972831130028">
        <ele>30.799999237060547</ele>
        <time>2018-12-29T12:42:39Z</time>
      </trkpt>
      <trkpt lat="41.27893497236073" lon="1.498042736202478">
        <ele>30.799999237060547</ele>
        <time>2018-12-29T12:42:40Z</time>
      </trkpt>
      <trkpt lat="41.278940420597792" lon="1.498186066746712">
        <ele>30.600000381469727</ele>
        <time>2018-12-29T12:42:42Z</time>
      </trkpt>
      <trkpt lat="41.278950059786439" lon="1.498335096985102">
        <ele>30.200000762939453</ele>
        <time>2018-12-29T12:42:44Z</time>
      </trkpt>
      <trkpt lat="41.278957854956388" lon="1.498486138880253">
        <ele>30</ele>
        <time>2018-12-29T12:42:46Z</time>
      </trkpt>
      <trkpt lat="41.27896623685956" lon="1.498638270422816">
        <ele>29.399999618530273</ele>
        <time>2018-12-29T12:42:48Z</time>
      </trkpt>
      <trkpt lat="41.27897554077208" lon="1.498785205185413">
        <ele>29</ele>
        <time>2018-12-29T12:42:50Z</time>
      </trkpt>
      <trkpt lat="41.2789710983634" lon="1.498931469395757">
        <ele>29.200000762939453</ele>
        <time>2018-12-29T12:42:52Z</time>
      </trkpt>
      <trkpt lat="41.278929775580764" lon="1.499069686979055">
        <ele>29</ele>
        <time>2018-12-29T12:42:54Z</time>
      </trkpt>
      <trkpt lat="41.27888317219913" lon="1.499215280637145">
        <ele>28.799999237060547</ele>
        <time>2018-12-29T12:42:56Z</time>
      </trkpt>
      <trkpt lat="41.278867330402136" lon="1.499292897060514">
        <ele>28.600000381469727</ele>
        <time>2018-12-29T12:42:57Z</time>
      </trkpt>
      <trkpt lat="41.278870766982436" lon="1.499373447149992">
        <ele>28.600000381469727</ele>
        <time>2018-12-29T12:42:58Z</time>
      </trkpt>
      <trkpt lat="41.278888704255223" lon="1.499451566487551">
        <ele>28.600000381469727</ele>
        <time>2018-12-29T12:42:59Z</time>
      </trkpt>
      <trkpt lat="41.278917957097292" lon="1.499524740502238">
        <ele>28.399999618530273</ele>
        <time>2018-12-29T12:43:00Z</time>
      </trkpt>
      <trkpt lat="41.278999010100961" lon="1.499644098803401">
        <ele>28.200000762939453</ele>
        <time>2018-12-29T12:43:02Z</time>
      </trkpt>
      <trkpt lat="41.279041087254882" lon="1.4997046161443">
        <ele>28.200000762939453</ele>
        <time>2018-12-29T12:43:03Z</time>
      </trkpt>
      <trkpt lat="41.279065059497952" lon="1.499778544530273">
        <ele>28</ele>
        <time>2018-12-29T12:43:04Z</time>
      </trkpt>
      <trkpt lat="41.279082242399454" lon="1.499942075461149">
        <ele>27.799999237060547</ele>
        <time>2018-12-29T12:43:06Z</time>
      </trkpt>
      <trkpt lat="41.279100514948368" lon="1.50010677985847">
        <ele>28</ele>
        <time>2018-12-29T12:43:08Z</time>
      </trkpt>
      <trkpt lat="41.279118033125997" lon="1.500274417921901">
        <ele>28</ele>
        <time>2018-12-29T12:43:10Z</time>
      </trkpt>
      <trkpt lat="41.279132030904293" lon="1.500445492565632">
        <ele>27.799999237060547</ele>
        <time>2018-12-29T12:43:12Z</time>
      </trkpt>
      <trkpt lat="41.279144519940019" lon="1.500622183084488">
        <ele>27.399999618530273</ele>
        <time>2018-12-29T12:43:14Z</time>
      </trkpt>
      <trkpt lat="41.279161032289267" lon="1.500799208879471">
        <ele>27.399999618530273</ele>
        <time>2018-12-29T12:43:16Z</time>
      </trkpt>
      <trkpt lat="41.279178634285927" lon="1.500979252159596">
        <ele>27.200000762939453</ele>
        <time>2018-12-29T12:43:18Z</time>
      </trkpt>
      <trkpt lat="41.279196487739682" lon="1.501161977648735">
        <ele>26.799999237060547</ele>
        <time>2018-12-29T12:43:20Z</time>
      </trkpt>
      <trkpt lat="41.279214089736342" lon="1.501347301527858">
        <ele>26.600000381469727</ele>
        <time>2018-12-29T12:43:22Z</time>
      </trkpt>
      <trkpt lat="41.279225908219814" lon="1.501538408920169">
        <ele>26</ele>
        <time>2018-12-29T12:43:24Z</time>
      </trkpt>
      <trkpt lat="41.27923303283751" lon="1.501637231558561">
        <ele>26</ele>
        <time>2018-12-29T12:43:25Z</time>
      </trkpt>
      <trkpt lat="41.27924082800746" lon="1.50173588655889">
        <ele>25.799999237060547</ele>
        <time>2018-12-29T12:43:26Z</time>
      </trkpt>
      <trkpt lat="41.279258346185088" lon="1.501934789121151">
        <ele>25.600000381469727</ele>
        <time>2018-12-29T12:43:28Z</time>
      </trkpt>
      <trkpt lat="41.279275612905622" lon="1.502134194597602">
        <ele>25.600000381469727</ele>
        <time>2018-12-29T12:43:30Z</time>
      </trkpt>
      <trkpt lat="41.279289359226823" lon="1.502337288111448">
        <ele>25.399999618530273</ele>
        <time>2018-12-29T12:43:32Z</time>
      </trkpt>
      <trkpt lat="41.279297238215804" lon="1.502441558986902">
        <ele>25</ele>
        <time>2018-12-29T12:43:33Z</time>
      </trkpt>
      <trkpt lat="41.279303776100278" lon="1.502546751871705">
        <ele>24.799999237060547</ele>
        <time>2018-12-29T12:43:34Z</time>
      </trkpt>
      <trkpt lat="41.279321545735002" lon="1.502765938639641">
        <ele>24.399999618530273</ele>
        <time>2018-12-29T12:43:36Z</time>
      </trkpt>
      <trkpt lat="41.279341913759708" lon="1.502986382693052">
        <ele>23.799999237060547</ele>
        <time>2018-12-29T12:43:38Z</time>
      </trkpt>
      <trkpt lat="41.27936689183116" lon="1.503202132880688">
        <ele>23.600000381469727</ele>
        <time>2018-12-29T12:43:40Z</time>
      </trkpt>
      <trkpt lat="41.279381057247519" lon="1.503307074308395">
        <ele>23.600000381469727</ele>
        <time>2018-12-29T12:43:41Z</time>
      </trkpt>
      <trkpt lat="41.279397653415799" lon="1.503405394032598">
        <ele>23.399999618530273</ele>
        <time>2018-12-29T12:43:42Z</time>
      </trkpt>
      <trkpt lat="41.279428834095597" lon="1.503595998510718">
        <ele>23.399999618530273</ele>
        <time>2018-12-29T12:43:44Z</time>
      </trkpt>
      <trkpt lat="41.279467726126313" lon="1.503786100074649">
        <ele>24</ele>
        <time>2018-12-29T12:43:46Z</time>
      </trkpt>
      <trkpt lat="41.279485914856195" lon="1.503880061209202">
        <ele>23.799999237060547</ele>
        <time>2018-12-29T12:43:47Z</time>
      </trkpt>
      <trkpt lat="41.279504857957363" lon="1.503973603248596">
        <ele>24</ele>
        <time>2018-12-29T12:43:48Z</time>
      </trkpt>
      <trkpt lat="41.279545091092587" lon="1.504155658185482">
        <ele>24.200000762939453</ele>
        <time>2018-12-29T12:43:50Z</time>
      </trkpt>
      <trkpt lat="41.279588006436825" lon="1.504336623474956">
        <ele>24.200000762939453</ele>
        <time>2018-12-29T12:43:52Z</time>
      </trkpt>
      <trkpt lat="41.279631089419127" lon="1.50451323017478">
        <ele>24.200000762939453</ele>
        <time>2018-12-29T12:43:54Z</time>
      </trkpt>
      <trkpt lat="41.279669981449842" lon="1.504689920693636">
        <ele>24.200000762939453</ele>
        <time>2018-12-29T12:43:56Z</time>
      </trkpt>
      <trkpt lat="41.279689846560359" lon="1.50477952323854">
        <ele>24.399999618530273</ele>
        <time>2018-12-29T12:43:57Z</time>
      </trkpt>
      <trkpt lat="41.279708789661527" lon="1.504869963973761">
        <ele>24.399999618530273</ele>
        <time>2018-12-29T12:43:58Z</time>
      </trkpt>
      <trkpt lat="41.279747933149338" lon="1.505051264539361">
        <ele>24.600000381469727</ele>
        <time>2018-12-29T12:44:00Z</time>
      </trkpt>
      <trkpt lat="41.279787914827466" lon="1.50522954761982">
        <ele>24.799999237060547</ele>
        <time>2018-12-29T12:44:02Z</time>
      </trkpt>
      <trkpt lat="41.27980375662446" lon="1.505414368584752">
        <ele>24.799999237060547</ele>
        <time>2018-12-29T12:44:04Z</time>
      </trkpt>
      <trkpt lat="41.279808869585395" lon="1.505578402429819">
        <ele>25</ele>
        <time>2018-12-29T12:44:06Z</time>
      </trkpt>
      <trkpt lat="41.279824208468199" lon="1.505661802366376">
        <ele>25.200000762939453</ele>
        <time>2018-12-29T12:44:07Z</time>
      </trkpt>
      <trkpt lat="41.279843905940652" lon="1.505743358284235">
        <ele>25.399999618530273</ele>
        <time>2018-12-29T12:44:08Z</time>
      </trkpt>
      <trkpt lat="41.279894281178713" lon="1.50590336881578">
        <ele>25.600000381469727</ele>
        <time>2018-12-29T12:44:10Z</time>
      </trkpt>
      <trkpt lat="41.279944237321615" lon="1.506054913625121">
        <ele>25.799999237060547</ele>
        <time>2018-12-29T12:44:12Z</time>
      </trkpt>
      <trkpt lat="41.27998891286552" lon="1.506199082359672">
        <ele>26.200000762939453</ele>
        <time>2018-12-29T12:44:14Z</time>
      </trkpt>
      <trkpt lat="41.280028559267521" lon="1.506336629390717">
        <ele>27</ele>
        <time>2018-12-29T12:44:16Z</time>
      </trkpt>
      <trkpt lat="41.280062170699239" lon="1.506468141451478">
        <ele>27.399999618530273</ele>
        <time>2018-12-29T12:44:18Z</time>
      </trkpt>
      <trkpt lat="41.280094608664513" lon="1.506596552208066">
        <ele>27.600000381469727</ele>
        <time>2018-12-29T12:44:20Z</time>
      </trkpt>
      <trkpt lat="41.28012377768755" lon="1.506720101460815">
        <ele>28.200000762939453</ele>
        <time>2018-12-29T12:44:22Z</time>
      </trkpt>
      <trkpt lat="41.280154874548316" lon="1.506841303780675">
        <ele>28.399999618530273</ele>
        <time>2018-12-29T12:44:24Z</time>
      </trkpt>
      <trkpt lat="41.280180858448148" lon="1.50696418248117">
        <ele>28.799999237060547</ele>
        <time>2018-12-29T12:44:26Z</time>
      </trkpt>
      <trkpt lat="41.28021128475666" lon="1.507088737562299">
        <ele>29.200000762939453</ele>
        <time>2018-12-29T12:44:28Z</time>
      </trkpt>
      <trkpt lat="41.280243555083871" lon="1.507213627919555">
        <ele>29.399999618530273</ele>
        <time>2018-12-29T12:44:30Z</time>
      </trkpt>
      <trkpt lat="41.28027431666851" lon="1.50733994320035">
        <ele>29.399999618530273</ele>
        <time>2018-12-29T12:44:32Z</time>
      </trkpt>
      <trkpt lat="41.280306838452816" lon="1.507468270137906">
        <ele>29.600000381469727</ele>
        <time>2018-12-29T12:44:34Z</time>
      </trkpt>
      <trkpt lat="41.280340952798724" lon="1.507596680894494">
        <ele>30</ele>
        <time>2018-12-29T12:44:36Z</time>
      </trkpt>
      <trkpt lat="41.280363919213414" lon="1.507721319794655">
        <ele>30.200000762939453</ele>
        <time>2018-12-29T12:44:38Z</time>
      </trkpt>
      <trkpt lat="41.280377078801394" lon="1.507780412212014">
        <ele>30.200000762939453</ele>
        <time>2018-12-29T12:44:39Z</time>
      </trkpt>
      <trkpt lat="41.280390406027436" lon="1.507838079705834">
        <ele>30.399999618530273</ele>
        <time>2018-12-29T12:44:40Z</time>
      </trkpt>
      <trkpt lat="41.280419826507568" lon="1.507954588159919">
        <ele>30.399999618530273</ele>
        <time>2018-12-29T12:44:42Z</time>
      </trkpt>
      <trkpt lat="41.28045167773962" lon="1.508075287565589">
        <ele>30.600000381469727</ele>
        <time>2018-12-29T12:44:44Z</time>
      </trkpt>
      <trkpt lat="41.280478583648801" lon="1.508199004456401">
        <ele>30.799999237060547</ele>
        <time>2018-12-29T12:44:46Z</time>
      </trkpt>
      <trkpt lat="41.280502639710903" lon="1.508319033309817">
        <ele>30.799999237060547</ele>
        <time>2018-12-29T12:44:48Z</time>
      </trkpt>
      <trkpt lat="41.280527114868164" lon="1.508439313620329">
        <ele>31</ele>
        <time>2018-12-29T12:44:50Z</time>
      </trkpt>
      <trkpt lat="41.280556786805391" lon="1.508559677749872">
        <ele>31.200000762939453</ele>
        <time>2018-12-29T12:44:52Z</time>
      </trkpt>
      <trkpt lat="41.280585872009397" lon="1.508682137355208">
        <ele>31.399999618530273</ele>
        <time>2018-12-29T12:44:54Z</time>
      </trkpt>
      <trkpt lat="41.280619064345956" lon="1.508808201178908">
        <ele>31.399999618530273</ele>
        <time>2018-12-29T12:44:56Z</time>
      </trkpt>
      <trkpt lat="41.280644377693534" lon="1.508929822593927">
        <ele>31.399999618530273</ele>
        <time>2018-12-29T12:44:58Z</time>
      </trkpt>
      <trkpt lat="41.280669188126922" lon="1.509051527827978">
        <ele>31.600000381469727</ele>
        <time>2018-12-29T12:45:00Z</time>
      </trkpt>
      <trkpt lat="41.280696010217071" lon="1.509165605530143">
        <ele>31.399999618530273</ele>
        <time>2018-12-29T12:45:02Z</time>
      </trkpt>
      <trkpt lat="41.280726101249456" lon="1.509280269965529">
        <ele>31.600000381469727</ele>
        <time>2018-12-29T12:45:04Z</time>
      </trkpt>
      <trkpt lat="41.280757281929255" lon="1.50940197519958">
        <ele>31.799999237060547</ele>
        <time>2018-12-29T12:45:06Z</time>
      </trkpt>
      <trkpt lat="41.280785780400038" lon="1.509522926062346">
        <ele>32.200000762939453</ele>
        <time>2018-12-29T12:45:08Z</time>
      </trkpt>
      <trkpt lat="41.280799442902207" lon="1.509582689031959">
        <ele>32.400001525878906</ele>
        <time>2018-12-29T12:45:09Z</time>
      </trkpt>
      <trkpt lat="41.280812099575996" lon="1.509644044563174">
        <ele>32.400001525878906</ele>
        <time>2018-12-29T12:45:10Z</time>
      </trkpt>
      <trkpt lat="41.28083816729486" lon="1.509761810302734">
        <ele>32.599998474121094</ele>
        <time>2018-12-29T12:45:12Z</time>
      </trkpt>
      <trkpt lat="41.280863229185343" lon="1.509880162775517">
        <ele>32.400001525878906</ele>
        <time>2018-12-29T12:45:14Z</time>
      </trkpt>
      <trkpt lat="41.280886866152287" lon="1.51000153273344">
        <ele>32.599998474121094</ele>
        <time>2018-12-29T12:45:16Z</time>
      </trkpt>
      <trkpt lat="41.280915280804038" lon="1.510125333443284">
        <ele>32.799999237060547</ele>
        <time>2018-12-29T12:45:18Z</time>
      </trkpt>
      <trkpt lat="41.280937073752284" lon="1.510246368125081">
        <ele>33</ele>
        <time>2018-12-29T12:45:20Z</time>
      </trkpt>
      <trkpt lat="41.280958028510213" lon="1.5103714261204">
        <ele>33</ele>
        <time>2018-12-29T12:45:22Z</time>
      </trkpt>
      <trkpt lat="41.280978815630078" lon="1.510495143011212">
        <ele>33.200000762939453</ele>
        <time>2018-12-29T12:45:24Z</time>
      </trkpt>
      <trkpt lat="41.280999351292849" lon="1.510619865730405">
        <ele>33.400001525878906</ele>
        <time>2018-12-29T12:45:26Z</time>
      </trkpt>
      <trkpt lat="41.281021311879158" lon="1.510745426639915">
        <ele>33.400001525878906</ele>
        <time>2018-12-29T12:45:28Z</time>
      </trkpt>
      <trkpt lat="41.2810312025249" lon="1.510807704180479">
        <ele>33.599998474121094</ele>
        <time>2018-12-29T12:45:29Z</time>
      </trkpt>
      <trkpt lat="41.281041512265801" lon="1.510871825739741">
        <ele>33.799999237060547</ele>
        <time>2018-12-29T12:45:30Z</time>
      </trkpt>
      <trkpt lat="41.28105852752924" lon="1.510995542630553">
        <ele>33.799999237060547</ele>
        <time>2018-12-29T12:45:32Z</time>
      </trkpt>
      <trkpt lat="41.281076800078154" lon="1.511121857911348">
        <ele>33.799999237060547</ele>
        <time>2018-12-29T12:45:34Z</time>
      </trkpt>
      <trkpt lat="41.281099347397685" lon="1.511246496811509">
        <ele>33.799999237060547</ele>
        <time>2018-12-29T12:45:36Z</time>
      </trkpt>
      <trkpt lat="41.28112206235528" lon="1.511373482644558">
        <ele>33.599998474121094</ele>
        <time>2018-12-29T12:45:38Z</time>
      </trkpt>
      <trkpt lat="41.281140837818384" lon="1.511502731591463">
        <ele>33.599998474121094</ele>
        <time>2018-12-29T12:45:40Z</time>
      </trkpt>
      <trkpt lat="41.281160954385996" lon="1.511631812900305">
        <ele>33.799999237060547</ele>
        <time>2018-12-29T12:45:42Z</time>
      </trkpt>
      <trkpt lat="41.281178556382656" lon="1.511759301647544">
        <ele>33.599998474121094</ele>
        <time>2018-12-29T12:45:44Z</time>
      </trkpt>
      <trkpt lat="41.281199175864458" lon="1.511887293308973">
        <ele>33.400001525878906</ele>
        <time>2018-12-29T12:45:46Z</time>
      </trkpt>
      <trkpt lat="41.281221387907863" lon="1.512013021856546">
        <ele>33.599998474121094</ele>
        <time>2018-12-29T12:45:48Z</time>
      </trkpt>
      <trkpt lat="41.281241588294506" lon="1.512134978547692">
        <ele>33.799999237060547</ele>
        <time>2018-12-29T12:45:50Z</time>
      </trkpt>
      <trkpt lat="41.281259609386325" lon="1.512264898046851">
        <ele>34.400001525878906</ele>
        <time>2018-12-29T12:45:52Z</time>
      </trkpt>
      <trkpt lat="41.281278636306524" lon="1.512391632422805">
        <ele>34.599998474121094</ele>
        <time>2018-12-29T12:45:54Z</time>
      </trkpt>
      <trkpt lat="41.281296405941248" lon="1.512518534436822">
        <ele>34.400001525878906</ele>
        <time>2018-12-29T12:45:56Z</time>
      </trkpt>
      <trkpt lat="41.281320881098509" lon="1.512645604088903">
        <ele>34.200000762939453</ele>
        <time>2018-12-29T12:45:58Z</time>
      </trkpt>
      <trkpt lat="41.281341081485152" lon="1.512773260474205">
        <ele>34.599998474121094</ele>
        <time>2018-12-29T12:46:00Z</time>
      </trkpt>
      <trkpt lat="41.281351558864117" lon="1.512835705652833">
        <ele>34.599998474121094</ele>
        <time>2018-12-29T12:46:01Z</time>
      </trkpt>
      <trkpt lat="41.281362287700176" lon="1.512899491935968">
        <ele>34.799999237060547</ele>
        <time>2018-12-29T12:46:02Z</time>
      </trkpt>
      <trkpt lat="41.281382739543915" lon="1.513025304302573">
        <ele>34.599998474121094</ele>
        <time>2018-12-29T12:46:04Z</time>
      </trkpt>
      <trkpt lat="41.28140302374959" lon="1.513150027021766">
        <ele>34.599998474121094</ele>
        <time>2018-12-29T12:46:06Z</time>
      </trkpt>
      <trkpt lat="41.281422972679138" lon="1.513276426121593">
        <ele>34.799999237060547</ele>
        <time>2018-12-29T12:46:08Z</time>
      </trkpt>
      <trkpt lat="41.281442418694496" lon="1.513402154669166">
        <ele>35</ele>
        <time>2018-12-29T12:46:10Z</time>
      </trkpt>
      <trkpt lat="41.281464211642742" lon="1.513532660901547">
        <ele>35</ele>
        <time>2018-12-29T12:46:12Z</time>
      </trkpt>
      <trkpt lat="41.281485753133893" lon="1.513669202104211">
        <ele>35</ele>
        <time>2018-12-29T12:46:14Z</time>
      </trkpt>
      <trkpt lat="41.28150712698698" lon="1.513809766620398">
        <ele>34.799999237060547</ele>
        <time>2018-12-29T12:46:16Z</time>
      </trkpt>
      <trkpt lat="41.281530931591988" lon="1.51395158842206">
        <ele>34.799999237060547</ele>
        <time>2018-12-29T12:46:18Z</time>
      </trkpt>
      <trkpt lat="41.281555658206344" lon="1.514105228707194">
        <ele>34.799999237060547</ele>
        <time>2018-12-29T12:46:20Z</time>
      </trkpt>
      <trkpt lat="41.281569236889482" lon="1.514179911464453">
        <ele>34.799999237060547</ele>
        <time>2018-12-29T12:46:21Z</time>
      </trkpt>
      <trkpt lat="41.281579630449414" lon="1.514255432412028">
        <ele>34.400001525878906</ele>
        <time>2018-12-29T12:46:22Z</time>
      </trkpt>
      <trkpt lat="41.281606117263436" lon="1.514410162344575">
        <ele>33.799999237060547</ele>
        <time>2018-12-29T12:46:24Z</time>
      </trkpt>
      <trkpt lat="41.281631179153919" lon="1.514566233381629">
        <ele>33.799999237060547</ele>
        <time>2018-12-29T12:46:26Z</time>
      </trkpt>
      <trkpt lat="41.281657414510846" lon="1.51471434161067">
        <ele>33.799999237060547</ele>
        <time>2018-12-29T12:46:28Z</time>
      </trkpt>
      <trkpt lat="41.281671831384301" lon="1.514788353815675">
        <ele>33.799999237060547</ele>
        <time>2018-12-29T12:46:29Z</time>
      </trkpt>
      <trkpt lat="41.281680716201663" lon="1.514860605821014">
        <ele>33.599998474121094</ele>
        <time>2018-12-29T12:46:30Z</time>
      </trkpt>
      <trkpt lat="41.281703347340226" lon="1.515005528926849">
        <ele>33.400001525878906</ele>
        <time>2018-12-29T12:46:32Z</time>
      </trkpt>
      <trkpt lat="41.281729247421026" lon="1.515144752338529">
        <ele>33.400001525878906</ele>
        <time>2018-12-29T12:46:34Z</time>
      </trkpt>
      <trkpt lat="41.281755985692143" lon="1.515279784798622">
        <ele>33.200000762939453</ele>
        <time>2018-12-29T12:46:36Z</time>
      </trkpt>
      <trkpt lat="41.281778449192643" lon="1.515410291031003">
        <ele>33</ele>
        <time>2018-12-29T12:46:38Z</time>
      </trkpt>
      <trkpt lat="41.281808540225029" lon="1.515550771728158">
        <ele>33.200000762939453</ele>
        <time>2018-12-29T12:46:40Z</time>
      </trkpt>
      <trkpt lat="41.281849024817348" lon="1.515693096444011">
        <ele>33.400001525878906</ele>
        <time>2018-12-29T12:46:42Z</time>
      </trkpt>
      <trkpt lat="41.281875343993306" lon="1.515761995688081">
        <ele>33.400001525878906</ele>
        <time>2018-12-29T12:46:43Z</time>
      </trkpt>
      <trkpt lat="41.281904764473438" lon="1.515826117247343">
        <ele>33.200000762939453</ele>
        <time>2018-12-29T12:46:44Z</time>
      </trkpt>
      <trkpt lat="41.281976597383618" lon="1.515951761975884">
        <ele>33</ele>
        <time>2018-12-29T12:46:46Z</time>
      </trkpt>
      <trkpt lat="41.28205337561667" lon="1.516077322885394">
        <ele>32.799999237060547</ele>
        <time>2018-12-29T12:46:48Z</time>
      </trkpt>
      <trkpt lat="41.282141050323844" lon="1.516193244606257">
        <ele>32.599998474121094</ele>
        <time>2018-12-29T12:46:50Z</time>
      </trkpt>
      <trkpt lat="41.282221348956227" lon="1.516313357278705">
        <ele>32.400001525878906</ele>
        <time>2018-12-29T12:46:52Z</time>
      </trkpt>
      <trkpt lat="41.282299887388945" lon="1.516426429152489">
        <ele>32.400001525878906</ele>
        <time>2018-12-29T12:46:54Z</time>
      </trkpt>
      <trkpt lat="41.282381610944867" lon="1.516537573188543">
        <ele>32.400001525878906</ele>
        <time>2018-12-29T12:46:56Z</time>
      </trkpt>
      <trkpt lat="41.282458724454045" lon="1.51664930395782">
        <ele>32.200000762939453</ele>
        <time>2018-12-29T12:46:58Z</time>
      </trkpt>
      <trkpt lat="41.282535586506128" lon="1.51677243411541">
        <ele>32</ele>
        <time>2018-12-29T12:47:00Z</time>
      </trkpt>
      <trkpt lat="41.282608676701784" lon="1.516895899549127">
        <ele>31.799999237060547</ele>
        <time>2018-12-29T12:47:02Z</time>
      </trkpt>
      <trkpt lat="41.282645389437675" lon="1.51696102693677">
        <ele>31.600000381469727</ele>
        <time>2018-12-29T12:47:03Z</time>
      </trkpt>
      <trkpt lat="41.282680341973901" lon="1.517025902867317">
        <ele>31.799999237060547</ele>
        <time>2018-12-29T12:47:04Z</time>
      </trkpt>
      <trkpt lat="41.282742032781243" lon="1.517164371907711">
        <ele>31.799999237060547</ele>
        <time>2018-12-29T12:47:06Z</time>
      </trkpt>
      <trkpt lat="41.282806321978569" lon="1.517310300841928">
        <ele>31.600000381469727</ele>
        <time>2018-12-29T12:47:08Z</time>
      </trkpt>
      <trkpt lat="41.282864324748516" lon="1.517461761832237">
        <ele>31.399999618530273</ele>
        <time>2018-12-29T12:47:10Z</time>
      </trkpt>
      <trkpt lat="41.282916627824306" lon="1.517607104033232">
        <ele>31.600000381469727</ele>
        <time>2018-12-29T12:47:12Z</time>
      </trkpt>
      <trkpt lat="41.282960046082735" lon="1.517754457890987">
        <ele>31.799999237060547</ele>
        <time>2018-12-29T12:47:14Z</time>
      </trkpt>
      <trkpt lat="41.283001871779561" lon="1.517895441502333">
        <ele>32</ele>
        <time>2018-12-29T12:47:16Z</time>
      </trkpt>
      <trkpt lat="41.283021569252014" lon="1.517966100946069">
        <ele>31.799999237060547</ele>
        <time>2018-12-29T12:47:17Z</time>
      </trkpt>
      <trkpt lat="41.28303942270577" lon="1.51803407818079">
        <ele>32</ele>
        <time>2018-12-29T12:47:18Z</time>
      </trkpt>
      <trkpt lat="41.283081332221627" lon="1.518170367926359">
        <ele>32.400001525878906</ele>
        <time>2018-12-29T12:47:20Z</time>
      </trkpt>
      <trkpt lat="41.283121481537819" lon="1.518302550539374">
        <ele>32.799999237060547</ele>
        <time>2018-12-29T12:47:22Z</time>
      </trkpt>
      <trkpt lat="41.283161966130137" lon="1.518439762294292">
        <ele>32.799999237060547</ele>
        <time>2018-12-29T12:47:24Z</time>
      </trkpt>
      <trkpt lat="41.283181412145495" lon="1.518510589376092">
        <ele>33</ele>
        <time>2018-12-29T12:47:25Z</time>
      </trkpt>
      <trkpt lat="41.283201696351171" lon="1.518584433943033">
        <ele>33</ele>
        <time>2018-12-29T12:47:26Z</time>
      </trkpt>
      <trkpt lat="41.283246455714107" lon="1.518731201067567">
        <ele>33</ele>
        <time>2018-12-29T12:47:28Z</time>
      </trkpt>
      <trkpt lat="41.283297752961516" lon="1.518876878544688">
        <ele>32.799999237060547</ele>
        <time>2018-12-29T12:47:30Z</time>
      </trkpt>
      <trkpt lat="41.283340584486723" lon="1.519027920439839">
        <ele>32.400001525878906</ele>
        <time>2018-12-29T12:47:32Z</time>
      </trkpt>
      <trkpt lat="41.283362293615937" lon="1.519102603197098">
        <ele>32</ele>
        <time>2018-12-29T12:47:33Z</time>
      </trkpt>
      <trkpt lat="41.283380566164851" lon="1.519182231277227">
        <ele>31.799999237060547</ele>
        <time>2018-12-29T12:47:34Z</time>
      </trkpt>
      <trkpt lat="41.283418033272028" lon="1.519342912361026">
        <ele>31.399999618530273</ele>
        <time>2018-12-29T12:47:36Z</time>
      </trkpt>
      <trkpt lat="41.283432114869356" lon="1.519430922344327">
        <ele>31</ele>
        <time>2018-12-29T12:47:37Z</time>
      </trkpt>
      <trkpt lat="41.283443346619606" lon="1.519520860165358">
        <ele>30.799999237060547</ele>
        <time>2018-12-29T12:47:38Z</time>
      </trkpt>
      <trkpt lat="41.28345625475049" lon="1.519616832956672">
        <ele>30.399999618530273</ele>
        <time>2018-12-29T12:47:39Z</time>
      </trkpt>
      <trkpt lat="41.283471928909421" lon="1.519713141024113">
        <ele>30</ele>
        <time>2018-12-29T12:47:40Z</time>
      </trkpt>
      <trkpt lat="41.283506629988551" lon="1.519908523187041">
        <ele>29.200000762939453</ele>
        <time>2018-12-29T12:47:42Z</time>
      </trkpt>
      <trkpt lat="41.283522304147482" lon="1.520008854568005">
        <ele>29</ele>
        <time>2018-12-29T12:47:43Z</time>
      </trkpt>
      <trkpt lat="41.28353881649673" lon="1.520110107958317">
        <ele>28.600000381469727</ele>
        <time>2018-12-29T12:47:44Z</time>
      </trkpt>
      <trkpt lat="41.283571925014257" lon="1.520311860367656">
        <ele>28</ele>
        <time>2018-12-29T12:47:46Z</time>
      </trkpt>
      <trkpt lat="41.283600172027946" lon="1.520504727959633">
        <ele>28.200000762939453</ele>
        <time>2018-12-29T12:47:48Z</time>
      </trkpt>
      <trkpt lat="41.283630849793553" lon="1.520694494247437">
        <ele>28.200000762939453</ele>
        <time>2018-12-29T12:47:50Z</time>
      </trkpt>
      <trkpt lat="41.283662198111415" lon="1.520874621346593">
        <ele>28.399999618530273</ele>
        <time>2018-12-29T12:47:52Z</time>
      </trkpt>
      <trkpt lat="41.283689774572849" lon="1.521046785637736">
        <ele>28.399999618530273</ele>
        <time>2018-12-29T12:47:54Z</time>
      </trkpt>
      <trkpt lat="41.28371424973011" lon="1.521206796169281">
        <ele>28.600000381469727</ele>
        <time>2018-12-29T12:47:56Z</time>
      </trkpt>
      <trkpt lat="41.283735036849976" lon="1.521364040672779">
        <ele>28.399999618530273</ele>
        <time>2018-12-29T12:47:58Z</time>
      </trkpt>
      <trkpt lat="41.283763451501727" lon="1.521525140851736">
        <ele>28.200000762939453</ele>
        <time>2018-12-29T12:48:00Z</time>
      </trkpt>
      <trkpt lat="41.283778036013246" lon="1.521607870236039">
        <ele>28.200000762939453</ele>
        <time>2018-12-29T12:48:01Z</time>
      </trkpt>
      <trkpt lat="41.283790441229939" lon="1.521692778915167">
        <ele>28.200000762939453</ele>
        <time>2018-12-29T12:48:02Z</time>
      </trkpt>
      <trkpt lat="41.283817514777184" lon="1.521862680092454">
        <ele>28</ele>
        <time>2018-12-29T12:48:04Z</time>
      </trkpt>
      <trkpt lat="41.283844755962491" lon="1.522021684795618">
        <ele>27.799999237060547</ele>
        <time>2018-12-29T12:48:06Z</time>
      </trkpt>
      <trkpt lat="41.283872500061989" lon="1.522173397243023">
        <ele>28</ele>
        <time>2018-12-29T12:48:08Z</time>
      </trkpt>
      <trkpt lat="41.283881803974509" lon="1.522253947332501">
        <ele>28</ele>
        <time>2018-12-29T12:48:09Z</time>
      </trkpt>
      <trkpt lat="41.283889096230268" lon="1.522335670888424">
        <ele>27.799999237060547</ele>
        <time>2018-12-29T12:48:10Z</time>
      </trkpt>
      <trkpt lat="41.283895550295711" lon="1.52250456623733">
        <ele>27.600000381469727</ele>
        <time>2018-12-29T12:48:12Z</time>
      </trkpt>
      <trkpt lat="41.283888928592205" lon="1.522668851539493">
        <ele>27.799999237060547</ele>
        <time>2018-12-29T12:48:14Z</time>
      </trkpt>
      <trkpt lat="41.283885911107063" lon="1.522749736905098">
        <ele>27.799999237060547</ele>
        <time>2018-12-29T12:48:15Z</time>
      </trkpt>
      <trkpt lat="41.283881133422256" lon="1.522829029709101">
        <ele>27.799999237060547</ele>
        <time>2018-12-29T12:48:16Z</time>
      </trkpt>
      <trkpt lat="41.283866884186864" lon="1.522983675822616">
        <ele>28</ele>
        <time>2018-12-29T12:48:18Z</time>
      </trkpt>
      <trkpt lat="41.283852802589536" lon="1.523130275309086">
        <ele>28.600000381469727</ele>
        <time>2018-12-29T12:48:20Z</time>
      </trkpt>
      <trkpt lat="41.283843414857984" lon="1.523275198414922">
        <ele>28.799999237060547</ele>
        <time>2018-12-29T12:48:22Z</time>
      </trkpt>
      <trkpt lat="41.283840732648969" lon="1.523343846201897">
        <ele>29</ele>
        <time>2018-12-29T12:48:23Z</time>
      </trkpt>
      <trkpt lat="41.283835954964161" lon="1.523412996903062">
        <ele>29</ele>
        <time>2018-12-29T12:48:24Z</time>
      </trkpt>
      <trkpt lat="41.283828243613243" lon="1.523551214486361">
        <ele>29.399999618530273</ele>
        <time>2018-12-29T12:48:26Z</time>
      </trkpt>
      <trkpt lat="41.283826399594545" lon="1.523696221411228">
        <ele>29.799999237060547</ele>
        <time>2018-12-29T12:48:28Z</time>
      </trkpt>
      <trkpt lat="41.28382514230907" lon="1.523832427337766">
        <ele>30</ele>
        <time>2018-12-29T12:48:30Z</time>
      </trkpt>
      <trkpt lat="41.283830758184195" lon="1.523897806182504">
        <ele>30.200000762939453</ele>
        <time>2018-12-29T12:48:31Z</time>
      </trkpt>
      <trkpt lat="41.283839391544461" lon="1.523957652971149">
        <ele>30.399999618530273</ele>
        <time>2018-12-29T12:48:32Z</time>
      </trkpt>
      <trkpt lat="41.283860765397549" lon="1.524069886654615">
        <ele>30.399999618530273</ele>
        <time>2018-12-29T12:48:34Z</time>
      </trkpt>
      <trkpt lat="41.283885994926095" lon="1.52418689802289">
        <ele>30.600000381469727</ele>
        <time>2018-12-29T12:48:36Z</time>
      </trkpt>
      <trkpt lat="41.283901249989867" lon="1.524248337373138">
        <ele>30.600000381469727</ele>
        <time>2018-12-29T12:48:37Z</time>
      </trkpt>
      <trkpt lat="41.28391700796783" lon="1.524311536923051">
        <ele>30.600000381469727</ele>
        <time>2018-12-29T12:48:38Z</time>
      </trkpt>
      <trkpt lat="41.283947518095374" lon="1.524435421451926">
        <ele>30.600000381469727</ele>
        <time>2018-12-29T12:48:40Z</time>
      </trkpt>
      <trkpt lat="41.28398054279387" lon="1.524571292102337">
        <ele>30.600000381469727</ele>
        <time>2018-12-29T12:48:42Z</time>
      </trkpt>
      <trkpt lat="41.284020524471998" lon="1.524715377017856">
        <ele>30.200000762939453</ele>
        <time>2018-12-29T12:48:44Z</time>
      </trkpt>
      <trkpt lat="41.284039299935102" lon="1.524789892137051">
        <ele>30</ele>
        <time>2018-12-29T12:48:45Z</time>
      </trkpt>
      <trkpt lat="41.284061428159475" lon="1.524862227961421">
        <ele>30</ele>
        <time>2018-12-29T12:48:46Z</time>
      </trkpt>
      <trkpt lat="41.28410367295146" lon="1.525009581819177">
        <ele>30.200000762939453</ele>
        <time>2018-12-29T12:48:48Z</time>
      </trkpt>
      <trkpt lat="41.284137703478336" lon="1.52515877969563">
        <ele>30</ele>
        <time>2018-12-29T12:48:50Z</time>
      </trkpt>
      <trkpt lat="41.284170895814896" lon="1.525306049734354">
        <ele>29.399999618530273</ele>
        <time>2018-12-29T12:48:52Z</time>
      </trkpt>
      <trkpt lat="41.28420777618885" lon="1.525453990325332">
        <ele>29.600000381469727</ele>
        <time>2018-12-29T12:48:54Z</time>
      </trkpt>
      <trkpt lat="41.28424390219152" lon="1.525603942573071">
        <ele>29.399999618530273</ele>
        <time>2018-12-29T12:48:56Z</time>
      </trkpt>
      <trkpt lat="41.284280028194189" lon="1.525754230096936">
        <ele>29.200000762939453</ele>
        <time>2018-12-29T12:48:58Z</time>
      </trkpt>
      <trkpt lat="41.284319171682" lon="1.525901835411787">
        <ele>29</ele>
        <time>2018-12-29T12:49:00Z</time>
      </trkpt>
      <trkpt lat="41.284354291856289" lon="1.526054805144668">
        <ele>28.799999237060547</ele>
        <time>2018-12-29T12:49:02Z</time>
      </trkpt>
      <trkpt lat="41.28439393825829" lon="1.526209451258183">
        <ele>28.600000381469727</ele>
        <time>2018-12-29T12:49:04Z</time>
      </trkpt>
      <trkpt lat="41.284434255212545" lon="1.526366109028459">
        <ele>28</ele>
        <time>2018-12-29T12:49:06Z</time>
      </trkpt>
      <trkpt lat="41.284469878301024" lon="1.526526371017098">
        <ele>28.200000762939453</ele>
        <time>2018-12-29T12:49:08Z</time>
      </trkpt>
      <trkpt lat="41.284502986818552" lon="1.526685375720263">
        <ele>27.600000381469727</ele>
        <time>2018-12-29T12:49:10Z</time>
      </trkpt>
      <trkpt lat="41.284514553844929" lon="1.526846224442124">
        <ele>27.399999618530273</ele>
        <time>2018-12-29T12:49:12Z</time>
      </trkpt>
      <trkpt lat="41.284497538581491" lon="1.527009252458811">
        <ele>27</ele>
        <time>2018-12-29T12:49:14Z</time>
      </trkpt>
      <trkpt lat="41.284458395093679" lon="1.527174627408385">
        <ele>26.200000762939453</ele>
        <time>2018-12-29T12:49:16Z</time>
      </trkpt>
      <trkpt lat="41.284408438950777" lon="1.52732533402741">
        <ele>25.799999237060547</ele>
        <time>2018-12-29T12:49:18Z</time>
      </trkpt>
      <trkpt lat="41.284376000985503" lon="1.527396244928241">
        <ele>26</ele>
        <time>2018-12-29T12:49:19Z</time>
      </trkpt>
      <trkpt lat="41.284346664324403" lon="1.527461791411042">
        <ele>25.799999237060547</ele>
        <time>2018-12-29T12:49:20Z</time>
      </trkpt>
      <trkpt lat="41.284326380118728" lon="1.527526499703527">
        <ele>25.799999237060547</ele>
        <time>2018-12-29T12:49:21Z</time>
      </trkpt>
      <trkpt lat="41.284325793385506" lon="1.527600344270468">
        <ele>25.799999237060547</ele>
        <time>2018-12-29T12:49:22Z</time>
      </trkpt>
      <trkpt lat="41.28438564017415" lon="1.527713499963284">
        <ele>25.799999237060547</ele>
        <time>2018-12-29T12:49:24Z</time>
      </trkpt>
      <trkpt lat="41.284492677077651" lon="1.527702687308192">
        <ele>25.399999618530273</ele>
        <time>2018-12-29T12:49:26Z</time>
      </trkpt>
      <trkpt lat="41.284581525251269" lon="1.527611743658781">
        <ele>25.399999618530273</ele>
        <time>2018-12-29T12:49:28Z</time>
      </trkpt>
      <trkpt lat="41.284623015671968" lon="1.527562793344259">
        <ele>25.600000381469727</ele>
        <time>2018-12-29T12:49:29Z</time>
      </trkpt>
      <trkpt lat="41.28465972840786" lon="1.527510741725564">
        <ele>25.600000381469727</ele>
        <time>2018-12-29T12:49:30Z</time>
      </trkpt>
      <trkpt lat="41.28472862765193" lon="1.527421222999692">
        <ele>26</ele>
        <time>2018-12-29T12:49:32Z</time>
      </trkpt>
      <trkpt lat="41.284801466390491" lon="1.527330446988344">
        <ele>26.200000762939453</ele>
        <time>2018-12-29T12:49:34Z</time>
      </trkpt>
      <trkpt lat="41.284838430583477" lon="1.527285184711218">
        <ele>26.200000762939453</ele>
        <time>2018-12-29T12:49:35Z</time>
      </trkpt>
      <trkpt lat="41.284873718395829" lon="1.527241347357631">
        <ele>26.399999618530273</ele>
        <time>2018-12-29T12:49:36Z</time>
      </trkpt>
      <trkpt lat="41.284941444173455" lon="1.527153253555298">
        <ele>26.600000381469727</ele>
        <time>2018-12-29T12:49:38Z</time>
      </trkpt>
      <trkpt lat="41.285013360902667" lon="1.527073038741946">
        <ele>26.799999237060547</ele>
        <time>2018-12-29T12:49:40Z</time>
      </trkpt>
      <trkpt lat="41.285086954012513" lon="1.526995338499546">
        <ele>27.200000762939453</ele>
        <time>2018-12-29T12:49:42Z</time>
      </trkpt>
      <trkpt lat="41.285122660920024" lon="1.526958709582686">
        <ele>27.600000381469727</ele>
        <time>2018-12-29T12:49:43Z</time>
      </trkpt>
      <trkpt lat="41.285160128027201" lon="1.526923505589366">
        <ele>27.600000381469727</ele>
        <time>2018-12-29T12:49:44Z</time>
      </trkpt>
      <trkpt lat="41.285227099433541" lon="1.526860138401389">
        <ele>28</ele>
        <time>2018-12-29T12:49:46Z</time>
      </trkpt>
      <trkpt lat="41.285300357267261" lon="1.526798782870174">
        <ele>28.399999618530273</ele>
        <time>2018-12-29T12:49:48Z</time>
      </trkpt>
      <trkpt lat="41.285336734727025" lon="1.52676927857101">
        <ele>28.600000381469727</ele>
        <time>2018-12-29T12:49:49Z</time>
      </trkpt>
      <trkpt lat="41.285374788567424" lon="1.5267438814044">
        <ele>28.799999237060547</ele>
        <time>2018-12-29T12:49:50Z</time>
      </trkpt>
      <trkpt lat="41.28541368059814" lon="1.526716975495219">
        <ele>29</ele>
        <time>2018-12-29T12:49:51Z</time>
      </trkpt>
      <trkpt lat="41.28545131534338" lon="1.526689734309912">
        <ele>29.200000762939453</ele>
        <time>2018-12-29T12:49:52Z</time>
      </trkpt>
      <trkpt lat="41.285527590662241" lon="1.526645896956325">
        <ele>29.200000762939453</ele>
        <time>2018-12-29T12:49:54Z</time>
      </trkpt>
      <trkpt lat="41.285597495734692" lon="1.52659728191793">
        <ele>29.399999618530273</ele>
        <time>2018-12-29T12:49:56Z</time>
      </trkpt>
      <trkpt lat="41.285662204027176" lon="1.526553276926279">
        <ele>29.799999237060547</ele>
        <time>2018-12-29T12:49:58Z</time>
      </trkpt>
      <trkpt lat="41.28569707274437" lon="1.526532489806414">
        <ele>30</ele>
        <time>2018-12-29T12:49:59Z</time>
      </trkpt>
      <trkpt lat="41.285733031108975" lon="1.526512708514929">
        <ele>30.200000762939453</ele>
        <time>2018-12-29T12:50:00Z</time>
      </trkpt>
      <trkpt lat="41.2858060374856" lon="1.52647222392261">
        <ele>30.600000381469727</ele>
        <time>2018-12-29T12:50:02Z</time>
      </trkpt>
      <trkpt lat="41.285879546776414" lon="1.526428805664182">
        <ele>30.799999237060547</ele>
        <time>2018-12-29T12:50:04Z</time>
      </trkpt>
      <trkpt lat="41.285952804610133" lon="1.526380442082882">
        <ele>31</ele>
        <time>2018-12-29T12:50:06Z</time>
      </trkpt>
      <trkpt lat="41.286025140434504" lon="1.526339873671532">
        <ele>31.399999618530273</ele>
        <time>2018-12-29T12:50:08Z</time>
      </trkpt>
      <trkpt lat="41.286060260608792" lon="1.526317410171032">
        <ele>31.600000381469727</ele>
        <time>2018-12-29T12:50:09Z</time>
      </trkpt>
      <trkpt lat="41.286093788221478" lon="1.526298047974706">
        <ele>31.600000381469727</ele>
        <time>2018-12-29T12:50:10Z</time>
      </trkpt>
      <trkpt lat="41.286165118217468" lon="1.52625379152596">
        <ele>32</ele>
        <time>2018-12-29T12:50:12Z</time>
      </trkpt>
      <trkpt lat="41.286239633336663" lon="1.526213977485895">
        <ele>32.200000762939453</ele>
        <time>2018-12-29T12:50:14Z</time>
      </trkpt>
      <trkpt lat="41.286311214789748" lon="1.526174833998084">
        <ele>32.400001525878906</ele>
        <time>2018-12-29T12:50:16Z</time>
      </trkpt>
      <trkpt lat="41.286381790414453" lon="1.526130074635148">
        <ele>32.799999237060547</ele>
        <time>2018-12-29T12:50:18Z</time>
      </trkpt>
      <trkpt lat="41.286451108753681" lon="1.526083135977387">
        <ele>33</ele>
        <time>2018-12-29T12:50:20Z</time>
      </trkpt>
      <trkpt lat="41.286487402394414" lon="1.526062935590744">
        <ele>33.200000762939453</ele>
        <time>2018-12-29T12:50:21Z</time>
      </trkpt>
      <trkpt lat="41.286524115130305" lon="1.526042651385069">
        <ele>33.400001525878906</ele>
        <time>2018-12-29T12:50:22Z</time>
      </trkpt>
      <trkpt lat="41.286594439297915" lon="1.526005016639829">
        <ele>33.599998474121094</ele>
        <time>2018-12-29T12:50:24Z</time>
      </trkpt>
      <trkpt lat="41.286662919446826" lon="1.525963442400098">
        <ele>34</ele>
        <time>2018-12-29T12:50:26Z</time>
      </trkpt>
      <trkpt lat="41.286732405424118" lon="1.52592346072197">
        <ele>34.200000762939453</ele>
        <time>2018-12-29T12:50:28Z</time>
      </trkpt>
      <trkpt lat="41.286767106503248" lon="1.52590049430728">
        <ele>34.400001525878906</ele>
        <time>2018-12-29T12:50:29Z</time>
      </trkpt>
      <trkpt lat="41.28680138848722" lon="1.525881551206112">
        <ele>34.599998474121094</ele>
        <time>2018-12-29T12:50:30Z</time>
      </trkpt>
      <trkpt lat="41.28686735406518" lon="1.525842491537333">
        <ele>35</ele>
        <time>2018-12-29T12:50:32Z</time>
      </trkpt>
      <trkpt lat="41.286934912204742" lon="1.52580720372498">
        <ele>35.200000762939453</ele>
        <time>2018-12-29T12:50:34Z</time>
      </trkpt>
      <trkpt lat="41.287001213058829" lon="1.525770658627152">
        <ele>35.599998474121094</ele>
        <time>2018-12-29T12:50:36Z</time>
      </trkpt>
      <trkpt lat="41.287068938836455" lon="1.525734448805451">
        <ele>36</ele>
        <time>2018-12-29T12:50:38Z</time>
      </trkpt>
      <trkpt lat="41.287133730947971" lon="1.525699747726321">
        <ele>36.400001525878906</ele>
        <time>2018-12-29T12:50:40Z</time>
      </trkpt>
      <trkpt lat="41.287198271602392" lon="1.5256611071527">
        <ele>36.799999237060547</ele>
        <time>2018-12-29T12:50:42Z</time>
      </trkpt>
      <trkpt lat="41.287263985723257" lon="1.525621209293604">
        <ele>37.200000762939453</ele>
        <time>2018-12-29T12:50:44Z</time>
      </trkpt>
      <trkpt lat="41.28729734569788" lon="1.525603355839849">
        <ele>37.200000762939453</ele>
        <time>2018-12-29T12:50:45Z</time>
      </trkpt>
      <trkpt lat="41.287329867482185" lon="1.525583742186427">
        <ele>37.400001525878906</ele>
        <time>2018-12-29T12:50:46Z</time>
      </trkpt>
      <trkpt lat="41.287395413964987" lon="1.525543006137013">
        <ele>38</ele>
        <time>2018-12-29T12:50:48Z</time>
      </trkpt>
      <trkpt lat="41.287459032610059" lon="1.52550763450563">
        <ele>38.200000762939453</ele>
        <time>2018-12-29T12:50:50Z</time>
      </trkpt>
      <trkpt lat="41.287525501102209" lon="1.525473184883595">
        <ele>38.599998474121094</ele>
        <time>2018-12-29T12:50:52Z</time>
      </trkpt>
      <trkpt lat="41.287593897432089" lon="1.525438232347369">
        <ele>38.799999237060547</ele>
        <time>2018-12-29T12:50:54Z</time>
      </trkpt>
      <trkpt lat="41.287629771977663" lon="1.525419959798455">
        <ele>39</ele>
        <time>2018-12-29T12:50:55Z</time>
      </trkpt>
      <trkpt lat="41.287662545219064" lon="1.5253986697644">
        <ele>39.200000762939453</ele>
        <time>2018-12-29T12:50:56Z</time>
      </trkpt>
      <trkpt lat="41.287723984569311" lon="1.525360448285937">
        <ele>39.400001525878906</ele>
        <time>2018-12-29T12:50:58Z</time>
      </trkpt>
      <trkpt lat="41.287785088643432" lon="1.525323484092951">
        <ele>39.799999237060547</ele>
        <time>2018-12-29T12:51:00Z</time>
      </trkpt>
      <trkpt lat="41.287815012037754" lon="1.525306720286608">
        <ele>40.200000762939453</ele>
        <time>2018-12-29T12:51:01Z</time>
      </trkpt>
      <trkpt lat="41.287844935432076" lon="1.525291381403804">
        <ele>40.400001525878906</ele>
        <time>2018-12-29T12:51:02Z</time>
      </trkpt>
      <trkpt lat="41.287873601540923" lon="1.525274030864239">
        <ele>40.599998474121094</ele>
        <time>2018-12-29T12:51:03Z</time>
      </trkpt>
      <trkpt lat="41.287901429459453" lon="1.525258775800467">
        <ele>40.799999237060547</ele>
        <time>2018-12-29T12:51:04Z</time>
      </trkpt>
      <trkpt lat="41.287960186600685" lon="1.525227595120668">
        <ele>41.200000762939453</ele>
        <time>2018-12-29T12:51:06Z</time>
      </trkpt>
      <trkpt lat="41.288017351180315" lon="1.525200186297298">
        <ele>41.400001525878906</ele>
        <time>2018-12-29T12:51:08Z</time>
      </trkpt>
      <trkpt lat="41.288068983703852" lon="1.525166071951389">
        <ele>41.400001525878906</ele>
        <time>2018-12-29T12:51:10Z</time>
      </trkpt>
      <trkpt lat="41.288127154111862" lon="1.525137489661574">
        <ele>41.599998474121094</ele>
        <time>2018-12-29T12:51:12Z</time>
      </trkpt>
      <trkpt lat="41.288179541006684" lon="1.525103375315666">
        <ele>42.200000762939453</ele>
        <time>2018-12-29T12:51:14Z</time>
      </trkpt>
      <trkpt lat="41.288206614553928" lon="1.525087784975767">
        <ele>42.400001525878906</ele>
        <time>2018-12-29T12:51:15Z</time>
      </trkpt>
      <trkpt lat="41.28823502920568" lon="1.525072949007154">
        <ele>42.599998474121094</ele>
        <time>2018-12-29T12:51:16Z</time>
      </trkpt>
      <trkpt lat="41.288291690871119" lon="1.525038834661245">
        <ele>42.599998474121094</ele>
        <time>2018-12-29T12:51:18Z</time>
      </trkpt>
      <trkpt lat="41.288343742489815" lon="1.525002792477608">
        <ele>43.200000762939453</ele>
        <time>2018-12-29T12:51:20Z</time>
      </trkpt>
      <trkpt lat="41.288394201546907" lon="1.524972282350063">
        <ele>43.400001525878906</ele>
        <time>2018-12-29T12:51:22Z</time>
      </trkpt>
      <trkpt lat="41.288420855998993" lon="1.524958703666925">
        <ele>43.599998474121094</ele>
        <time>2018-12-29T12:51:23Z</time>
      </trkpt>
      <trkpt lat="41.288448013365269" lon="1.524945795536041">
        <ele>43.599998474121094</ele>
        <time>2018-12-29T12:51:24Z</time>
      </trkpt>
      <trkpt lat="41.288498640060425" lon="1.524911010637879">
        <ele>44.200000762939453</ele>
        <time>2018-12-29T12:51:26Z</time>
      </trkpt>
      <trkpt lat="41.288554295897484" lon="1.524880919605494">
        <ele>44.400001525878906</ele>
        <time>2018-12-29T12:51:28Z</time>
      </trkpt>
      <trkpt lat="41.28858245909214" lon="1.524863820523024">
        <ele>44.599998474121094</ele>
        <time>2018-12-29T12:51:29Z</time>
      </trkpt>
      <trkpt lat="41.288611711934209" lon="1.524845464155078">
        <ele>44.599998474121094</ele>
        <time>2018-12-29T12:51:30Z</time>
      </trkpt>
      <trkpt lat="41.288666445761919" lon="1.52482065372169">
        <ele>45</ele>
        <time>2018-12-29T12:51:32Z</time>
      </trkpt>
      <trkpt lat="41.288719419389963" lon="1.524792574346066">
        <ele>45.400001525878906</ele>
        <time>2018-12-29T12:51:34Z</time>
      </trkpt>
      <trkpt lat="41.288769794628024" lon="1.524763992056251">
        <ele>45.599998474121094</ele>
        <time>2018-12-29T12:51:36Z</time>
      </trkpt>
      <trkpt lat="41.288823187351227" lon="1.52473951689899">
        <ele>45.799999237060547</ele>
        <time>2018-12-29T12:51:38Z</time>
      </trkpt>
      <trkpt lat="41.288874903693795" lon="1.524704732000828">
        <ele>46</ele>
        <time>2018-12-29T12:51:40Z</time>
      </trkpt>
      <trkpt lat="41.288928966969252" lon="1.524674892425537">
        <ele>46.200000762939453</ele>
        <time>2018-12-29T12:51:42Z</time>
      </trkpt>
      <trkpt lat="41.288973139598966" lon="1.524643627926707">
        <ele>46.599998474121094</ele>
        <time>2018-12-29T12:51:44Z</time>
      </trkpt>
      <trkpt lat="41.289023431017995" lon="1.524615129455924">
        <ele>47</ele>
        <time>2018-12-29T12:51:46Z</time>
      </trkpt>
      <trkpt lat="41.289078500121832" lon="1.524596689268947">
        <ele>47.200000762939453</ele>
        <time>2018-12-29T12:51:48Z</time>
      </trkpt>
      <trkpt lat="41.289134239777923" lon="1.524575734511018">
        <ele>47.400001525878906</ele>
        <time>2018-12-29T12:51:50Z</time>
      </trkpt>
      <trkpt lat="41.289159804582596" lon="1.524563161656261">
        <ele>47.599998474121094</ele>
        <time>2018-12-29T12:51:51Z</time>
      </trkpt>
      <trkpt lat="41.289186710491776" lon="1.524549415335059">
        <ele>47.799999237060547</ele>
        <time>2018-12-29T12:51:52Z</time>
      </trkpt>
      <trkpt lat="41.289240522310138" lon="1.524522006511688">
        <ele>48</ele>
        <time>2018-12-29T12:51:54Z</time>
      </trkpt>
      <trkpt lat="41.289294501766562" lon="1.524494597688317">
        <ele>48.400001525878906</ele>
        <time>2018-12-29T12:51:56Z</time>
      </trkpt>
      <trkpt lat="41.289322078227997" lon="1.524484707042575">
        <ele>48.599998474121094</ele>
        <time>2018-12-29T12:51:57Z</time>
      </trkpt>
      <trkpt lat="41.289345631375909" lon="1.524471463635564">
        <ele>48.599998474121094</ele>
        <time>2018-12-29T12:51:58Z</time>
      </trkpt>
      <trkpt lat="41.289372704923153" lon="1.524455370381475">
        <ele>48.799999237060547</ele>
        <time>2018-12-29T12:51:59Z</time>
      </trkpt>
      <trkpt lat="41.289401119574904" lon="1.524439277127385">
        <ele>48.799999237060547</ele>
        <time>2018-12-29T12:52:00Z</time>
      </trkpt>
      <trkpt lat="41.289453422650695" lon="1.524405749514699">
        <ele>49.200000762939453</ele>
        <time>2018-12-29T12:52:02Z</time>
      </trkpt>
      <trkpt lat="41.289504049345851" lon="1.524373227730393">
        <ele>49.599998474121094</ele>
        <time>2018-12-29T12:52:04Z</time>
      </trkpt>
      <trkpt lat="41.28952894359827" lon="1.524358727037907">
        <ele>49.799999237060547</ele>
        <time>2018-12-29T12:52:05Z</time>
      </trkpt>
      <trkpt lat="41.289557442069054" lon="1.52434665709734">
        <ele>49.799999237060547</ele>
        <time>2018-12-29T12:52:06Z</time>
      </trkpt>
      <trkpt lat="41.289604464545846" lon="1.524327713996172">
        <ele>50.200000762939453</ele>
        <time>2018-12-29T12:52:08Z</time>
      </trkpt>
      <trkpt lat="41.289654755964875" lon="1.524302568286657">
        <ele>50.599998474121094</ele>
        <time>2018-12-29T12:52:10Z</time>
      </trkpt>
      <trkpt lat="41.289701862260699" lon="1.524267112836242">
        <ele>50.799999237060547</ele>
        <time>2018-12-29T12:52:12Z</time>
      </trkpt>
      <trkpt lat="41.289725918322802" lon="1.524253282696009">
        <ele>51</ele>
        <time>2018-12-29T12:52:13Z</time>
      </trkpt>
      <trkpt lat="41.289750058203936" lon="1.524240123108029">
        <ele>51.400001525878906</ele>
        <time>2018-12-29T12:52:14Z</time>
      </trkpt>
      <trkpt lat="41.289800349622965" lon="1.524207014590502">
        <ele>51.799999237060547</ele>
        <time>2018-12-29T12:52:16Z</time>
      </trkpt>
      <trkpt lat="41.289849635213614" lon="1.52418396435678">
        <ele>52</ele>
        <time>2018-12-29T12:52:18Z</time>
      </trkpt>
      <trkpt lat="41.289873020723462" lon="1.524168374016881">
        <ele>52.200000762939453</ele>
        <time>2018-12-29T12:52:19Z</time>
      </trkpt>
      <trkpt lat="41.289901016280055" lon="1.524161919951439">
        <ele>52.200000762939453</ele>
        <time>2018-12-29T12:52:20Z</time>
      </trkpt>
      <trkpt lat="41.289928592741489" lon="1.524156304076314">
        <ele>52.400001525878906</ele>
        <time>2018-12-29T12:52:21Z</time>
      </trkpt>
      <trkpt lat="41.289954492822289" lon="1.524157309904695">
        <ele>52.400001525878906</ele>
        <time>2018-12-29T12:52:22Z</time>
      </trkpt>
      <trkpt lat="41.290008975192904" lon="1.524184886366129">
        <ele>52.599998474121094</ele>
        <time>2018-12-29T12:52:24Z</time>
      </trkpt>
      <trkpt lat="41.290033785626292" lon="1.524211205542088">
        <ele>52.799999237060547</ele>
        <time>2018-12-29T12:52:25Z</time>
      </trkpt>
      <trkpt lat="41.290053902193904" lon="1.524234004318714">
        <ele>53</ele>
        <time>2018-12-29T12:52:26Z</time>
      </trkpt>
      <trkpt lat="41.290075611323118" lon="1.524261245504022">
        <ele>53.200000762939453</ele>
        <time>2018-12-29T12:52:27Z</time>
      </trkpt>
      <trkpt lat="41.29009229131043" lon="1.524292174726725">
        <ele>53.200000762939453</ele>
        <time>2018-12-29T12:52:28Z</time>
      </trkpt>
      <trkpt lat="41.2901162635535" lon="1.524359900504351">
        <ele>53.400001525878906</ele>
        <time>2018-12-29T12:52:30Z</time>
      </trkpt>
      <trkpt lat="41.290127746760845" lon="1.524394685402513">
        <ele>53.400001525878906</ele>
        <time>2018-12-29T12:52:31Z</time>
      </trkpt>
      <trkpt lat="41.290138643234968" lon="1.524430559948087">
        <ele>53.599998474121094</ele>
        <time>2018-12-29T12:52:32Z</time>
      </trkpt>
      <trkpt lat="41.290163705125451" lon="1.524500129744411">
        <ele>53.400001525878906</ele>
        <time>2018-12-29T12:52:34Z</time>
      </trkpt>
      <trkpt lat="41.290197568014264" lon="1.524562742561102">
        <ele>53.799999237060547</ele>
        <time>2018-12-29T12:52:36Z</time>
      </trkpt>
      <trkpt lat="41.290236711502075" lon="1.524618230760098">
        <ele>54</ele>
        <time>2018-12-29T12:52:38Z</time>
      </trkpt>
      <trkpt lat="41.290255319327116" lon="1.524648237973452">
        <ele>54.200000762939453</ele>
        <time>2018-12-29T12:52:39Z</time>
      </trkpt>
      <trkpt lat="41.290273256599903" lon="1.524678161367774">
        <ele>54.200000762939453</ele>
        <time>2018-12-29T12:52:40Z</time>
      </trkpt>
      <trkpt lat="41.290306197479367" lon="1.524745551869273">
        <ele>54.599998474121094</ele>
        <time>2018-12-29T12:52:42Z</time>
      </trkpt>
      <trkpt lat="41.290342826396227" lon="1.524799363687635">
        <ele>54.599998474121094</ele>
        <time>2018-12-29T12:52:44Z</time>
      </trkpt>
      <trkpt lat="41.290384484454989" lon="1.524849990382791">
        <ele>54.599998474121094</ele>
        <time>2018-12-29T12:52:46Z</time>
      </trkpt>
      <trkpt lat="41.290416000410914" lon="1.524861725047231">
        <ele>54.599998474121094</ele>
        <time>2018-12-29T12:52:47Z</time>
      </trkpt>
      <trkpt lat="41.29045095294714" lon="1.52486021630466">
        <ele>54.599998474121094</ele>
        <time>2018-12-29T12:52:48Z</time>
      </trkpt>
      <trkpt lat="41.290521025657654" lon="1.524829370900989">
        <ele>54.599998474121094</ele>
        <time>2018-12-29T12:52:50Z</time>
      </trkpt>
      <trkpt lat="41.290554720908403" lon="1.524804811924696">
        <ele>54.599998474121094</ele>
        <time>2018-12-29T12:52:51Z</time>
      </trkpt>
      <trkpt lat="41.290582381188869" lon="1.524779247120023">
        <ele>54.799999237060547</ele>
        <time>2018-12-29T12:52:52Z</time>
      </trkpt>
      <trkpt lat="41.290638791397214" lon="1.524738427251577">
        <ele>55.200000762939453</ele>
        <time>2018-12-29T12:52:54Z</time>
      </trkpt>
      <trkpt lat="41.290689669549465" lon="1.524701043963432">
        <ele>55.599998474121094</ele>
        <time>2018-12-29T12:52:56Z</time>
      </trkpt>
      <trkpt lat="41.290713725611567" lon="1.524683777242899">
        <ele>55.799999237060547</ele>
        <time>2018-12-29T12:52:57Z</time>
      </trkpt>
      <trkpt lat="41.290737362578511" lon="1.524668941274285">
        <ele>56</ele>
        <time>2018-12-29T12:52:58Z</time>
      </trkpt>
      <trkpt lat="41.290761502459645" lon="1.524655530229211">
        <ele>56.400001525878906</ele>
        <time>2018-12-29T12:52:59Z</time>
      </trkpt>
      <trkpt lat="41.290785642340779" lon="1.524640023708344">
        <ele>56.599998474121094</ele>
        <time>2018-12-29T12:53:00Z</time>
      </trkpt>
      <trkpt lat="41.290836939588189" lon="1.524600042030215">
        <ele>57</ele>
        <time>2018-12-29T12:53:02Z</time>
      </trkpt>
      <trkpt lat="41.290876753628254" lon="1.524555534124374">
        <ele>57.400001525878906</ele>
        <time>2018-12-29T12:53:04Z</time>
      </trkpt>
      <trkpt lat="41.290896786376834" lon="1.52453575283289">
        <ele>57.599998474121094</ele>
        <time>2018-12-29T12:53:05Z</time>
      </trkpt>
      <trkpt lat="41.290918746963143" lon="1.524519408121705">
        <ele>57.799999237060547</ele>
        <time>2018-12-29T12:53:06Z</time>
      </trkpt>
      <trkpt lat="41.290960907936096" lon="1.524486802518368">
        <ele>58.200000762939453</ele>
        <time>2018-12-29T12:53:08Z</time>
      </trkpt>
      <trkpt lat="41.29100801423192" lon="1.524451598525047">
        <ele>58.400001525878906</ele>
        <time>2018-12-29T12:53:10Z</time>
      </trkpt>
      <trkpt lat="41.291047492995858" lon="1.524417316541076">
        <ele>58.400001525878906</ele>
        <time>2018-12-29T12:53:12Z</time>
      </trkpt>
      <trkpt lat="41.291062161326408" lon="1.524403151124716">
        <ele>58.599998474121094</ele>
        <time>2018-12-29T12:53:13Z</time>
      </trkpt>
      <trkpt lat="41.291081104427576" lon="1.524411281570792">
        <ele>58.599998474121094</ele>
        <time>2018-12-29T12:53:14Z</time>
      </trkpt>
      <trkpt lat="41.291113123297691" lon="1.524465261027217">
        <ele>58.599998474121094</ele>
        <time>2018-12-29T12:53:16Z</time>
      </trkpt>
      <trkpt lat="41.291160229593515" lon="1.524534663185477">
        <ele>58.400001525878906</ele>
        <time>2018-12-29T12:53:18Z</time>
      </trkpt>
      <trkpt lat="41.291203815490007" lon="1.524623176082969">
        <ele>58.200000762939453</ele>
        <time>2018-12-29T12:53:20Z</time>
      </trkpt>
      <trkpt lat="41.291228123009205" lon="1.524667097255588">
        <ele>58</ele>
        <time>2018-12-29T12:53:21Z</time>
      </trkpt>
      <trkpt lat="41.291254609823227" lon="1.524710347875953">
        <ele>57.799999237060547</ele>
        <time>2018-12-29T12:53:22Z</time>
      </trkpt>
      <trkpt lat="41.291289310902357" lon="1.524812020361424">
        <ele>57.599998474121094</ele>
        <time>2018-12-29T12:53:24Z</time>
      </trkpt>
      <trkpt lat="41.291313618421555" lon="1.524855606257916">
        <ele>57.200000762939453</ele>
        <time>2018-12-29T12:53:25Z</time>
      </trkpt>
      <trkpt lat="41.291340524330735" lon="1.52489491738379">
        <ele>57.200000762939453</ele>
        <time>2018-12-29T12:53:26Z</time>
      </trkpt>
      <trkpt lat="41.291363490745425" lon="1.524944873526692">
        <ele>57.200000762939453</ele>
        <time>2018-12-29T12:53:27Z</time>
      </trkpt>
      <trkpt lat="41.291384445503354" lon="1.524999355897307">
        <ele>57.400001525878906</ele>
        <time>2018-12-29T12:53:28Z</time>
      </trkpt>
      <trkpt lat="41.291404394432902" lon="1.525052580982447">
        <ele>57.400001525878906</ele>
        <time>2018-12-29T12:53:29Z</time>
      </trkpt>
      <trkpt lat="41.291422247886658" lon="1.525104884058237">
        <ele>57.200000762939453</ele>
        <time>2018-12-29T12:53:30Z</time>
      </trkpt>
      <trkpt lat="41.291457870975137" lon="1.525214854627848">
        <ele>57.200000762939453</ele>
        <time>2018-12-29T12:53:32Z</time>
      </trkpt>
      <trkpt lat="41.291479915380478" lon="1.525270510464907">
        <ele>57.400001525878906</ele>
        <time>2018-12-29T12:53:33Z</time>
      </trkpt>
      <trkpt lat="41.291496260091662" lon="1.525323987007141">
        <ele>57.599998474121094</ele>
        <time>2018-12-29T12:53:34Z</time>
      </trkpt>
      <trkpt lat="41.291527440771461" lon="1.525424737483263">
        <ele>57.599998474121094</ele>
        <time>2018-12-29T12:53:36Z</time>
      </trkpt>
      <trkpt lat="41.291549485176802" lon="1.525516519322991">
        <ele>57.799999237060547</ele>
        <time>2018-12-29T12:53:38Z</time>
      </trkpt>
      <trkpt lat="41.291574882343411" lon="1.525599081069231">
        <ele>58.200000762939453</ele>
        <time>2018-12-29T12:53:40Z</time>
      </trkpt>
      <trkpt lat="41.291590891778469" lon="1.525637302547693">
        <ele>58.400001525878906</ele>
        <time>2018-12-29T12:53:41Z</time>
      </trkpt>
      <trkpt lat="41.291605643928051" lon="1.525675859302282">
        <ele>58.599998474121094</ele>
        <time>2018-12-29T12:53:42Z</time>
      </trkpt>
      <trkpt lat="41.291624922305346" lon="1.525759426876903">
        <ele>58.799999237060547</ele>
        <time>2018-12-29T12:53:44Z</time>
      </trkpt>
      <trkpt lat="41.29164612852037" lon="1.525841318070889">
        <ele>59.200000762939453</ele>
        <time>2018-12-29T12:53:46Z</time>
      </trkpt>
      <trkpt lat="41.291655348613858" lon="1.525882473215461">
        <ele>59.599998474121094</ele>
        <time>2018-12-29T12:53:47Z</time>
      </trkpt>
      <trkpt lat="41.291666245087981" lon="1.525926729664207">
        <ele>59.799999237060547</ele>
        <time>2018-12-29T12:53:48Z</time>
      </trkpt>
      <trkpt lat="41.291691726073623" lon="1.526009207591415">
        <ele>60.400001525878906</ele>
        <time>2018-12-29T12:53:50Z</time>
      </trkpt>
      <trkpt lat="41.291703125461936" lon="1.526051955297589">
        <ele>60.599998474121094</ele>
        <time>2018-12-29T12:53:51Z</time>
      </trkpt>
      <trkpt lat="41.291710920631886" lon="1.526097217574716">
        <ele>60.799999237060547</ele>
        <time>2018-12-29T12:53:52Z</time>
      </trkpt>
      <trkpt lat="41.291727516800165" lon="1.526190927252173">
        <ele>61.200000762939453</ele>
        <time>2018-12-29T12:53:54Z</time>
      </trkpt>
      <trkpt lat="41.291736736893654" lon="1.526236943900585">
        <ele>61.599998474121094</ele>
        <time>2018-12-29T12:53:55Z</time>
      </trkpt>
      <trkpt lat="41.291747884824872" lon="1.526278182864189">
        <ele>61.799999237060547</ele>
        <time>2018-12-29T12:53:56Z</time>
      </trkpt>
      <trkpt lat="41.291766744107008" lon="1.526355380192399">
        <ele>62.200000762939453</ele>
        <time>2018-12-29T12:53:58Z</time>
      </trkpt>
      <trkpt lat="41.291787112131715" lon="1.526431068778038">
        <ele>62.599998474121094</ele>
        <time>2018-12-29T12:54:00Z</time>
      </trkpt>
      <trkpt lat="41.291800439357758" lon="1.526473397389054">
        <ele>62.799999237060547</ele>
        <time>2018-12-29T12:54:01Z</time>
      </trkpt>
      <trkpt lat="41.291818795725703" lon="1.526516228914261">
        <ele>63</ele>
        <time>2018-12-29T12:54:02Z</time>
      </trkpt>
      <trkpt lat="41.291855340823531" lon="1.526610776782036">
        <ele>62.799999237060547</ele>
        <time>2018-12-29T12:54:04Z</time>
      </trkpt>
      <trkpt lat="41.291894232854247" lon="1.526720328256488">
        <ele>62.799999237060547</ele>
        <time>2018-12-29T12:54:06Z</time>
      </trkpt>
      <trkpt lat="41.291931113228202" lon="1.526830550283194">
        <ele>62.400001525878906</ele>
        <time>2018-12-29T12:54:08Z</time>
      </trkpt>
      <trkpt lat="41.291951732710004" lon="1.526893246918917">
        <ele>62.200000762939453</ele>
        <time>2018-12-29T12:54:09Z</time>
      </trkpt>
      <trkpt lat="41.291968999430537" lon="1.526959044858813">
        <ele>62</ele>
        <time>2018-12-29T12:54:10Z</time>
      </trkpt>
      <trkpt lat="41.291990792378783" lon="1.527032135054469">
        <ele>61.799999237060547</ele>
        <time>2018-12-29T12:54:11Z</time>
      </trkpt>
      <trkpt lat="41.292008310556412" lon="1.527106566354632">
        <ele>61</ele>
        <time>2018-12-29T12:54:12Z</time>
      </trkpt>
      <trkpt lat="41.292025158181787" lon="1.527181584388018">
        <ele>60.599998474121094</ele>
        <time>2018-12-29T12:54:13Z</time>
      </trkpt>
      <trkpt lat="41.292045442387462" lon="1.527264397591353">
        <ele>60.400001525878906</ele>
        <time>2018-12-29T12:54:14Z</time>
      </trkpt>
      <trkpt lat="41.292077880352736" lon="1.527438322082162">
        <ele>59.799999237060547</ele>
        <time>2018-12-29T12:54:16Z</time>
      </trkpt>
      <trkpt lat="41.292097242549062" lon="1.527529517188668">
        <ele>59.599998474121094</ele>
        <time>2018-12-29T12:54:17Z</time>
      </trkpt>
      <trkpt lat="41.292113922536373" lon="1.527620879933238">
        <ele>59.200000762939453</ele>
        <time>2018-12-29T12:54:18Z</time>
      </trkpt>
      <trkpt lat="41.292142756283283" lon="1.527821458876133">
        <ele>58.400001525878906</ele>
        <time>2018-12-29T12:54:20Z</time>
      </trkpt>
      <trkpt lat="41.292157676070929" lon="1.528038550168276">
        <ele>57.400001525878906</ele>
        <time>2018-12-29T12:54:22Z</time>
      </trkpt>
      <trkpt lat="41.292162118479609" lon="1.528147850185633">
        <ele>57</ele>
        <time>2018-12-29T12:54:23Z</time>
      </trkpt>
      <trkpt lat="41.29217485897243" lon="1.528258910402656">
        <ele>56.599998474121094</ele>
        <time>2018-12-29T12:54:24Z</time>
      </trkpt>
      <trkpt lat="41.292200591415167" lon="1.528473487123847">
        <ele>56</ele>
        <time>2018-12-29T12:54:26Z</time>
      </trkpt>
      <trkpt lat="41.292219031602144" lon="1.528577590361238">
        <ele>55.799999237060547</ele>
        <time>2018-12-29T12:54:27Z</time>
      </trkpt>
      <trkpt lat="41.29223546013236" lon="1.528674988076091">
        <ele>55.599998474121094</ele>
        <time>2018-12-29T12:54:28Z</time>
      </trkpt>
      <trkpt lat="41.292264629155397" lon="1.528864251449704">
        <ele>55.599998474121094</ele>
        <time>2018-12-29T12:54:30Z</time>
      </trkpt>
      <trkpt lat="41.292291032150388" lon="1.529038427397609">
        <ele>56</ele>
        <time>2018-12-29T12:54:32Z</time>
      </trkpt>
      <trkpt lat="41.292286589741707" lon="1.529116211459041">
        <ele>56.200000762939453</ele>
        <time>2018-12-29T12:54:33Z</time>
      </trkpt>
      <trkpt lat="41.292279968038201" lon="1.529185026884079">
        <ele>56.400001525878906</ele>
        <time>2018-12-29T12:54:34Z</time>
      </trkpt>
      <trkpt lat="41.292281225323677" lon="1.529319053515792">
        <ele>56.400001525878906</ele>
        <time>2018-12-29T12:54:36Z</time>
      </trkpt>
      <trkpt lat="41.292282314971089" lon="1.529384851455689">
        <ele>57.599998474121094</ele>
        <time>2018-12-29T12:54:37Z</time>
      </trkpt>
      <trkpt lat="41.292281728237867" lon="1.529453247785568">
        <ele>57.799999237060547</ele>
        <time>2018-12-29T12:54:38Z</time>
      </trkpt>
      <trkpt lat="41.292278124019504" lon="1.529582915827632">
        <ele>58</ele>
        <time>2018-12-29T12:54:40Z</time>
      </trkpt>
      <trkpt lat="41.292275106534362" lon="1.529717445373535">
        <ele>58</ele>
        <time>2018-12-29T12:54:42Z</time>
      </trkpt>
      <trkpt lat="41.292271334677935" lon="1.529863122850657">
        <ele>58</ele>
        <time>2018-12-29T12:54:44Z</time>
      </trkpt>
      <trkpt lat="41.292262701317668" lon="1.530011398717761">
        <ele>57.799999237060547</ele>
        <time>2018-12-29T12:54:46Z</time>
      </trkpt>
      <trkpt lat="41.292255576699972" lon="1.530167302116752">
        <ele>57.599998474121094</ele>
        <time>2018-12-29T12:54:48Z</time>
      </trkpt>
      <trkpt lat="41.292250715196133" lon="1.530314488336444">
        <ele>57</ele>
        <time>2018-12-29T12:54:50Z</time>
      </trkpt>
      <trkpt lat="41.292261695489287" lon="1.530462261289358">
        <ele>57</ele>
        <time>2018-12-29T12:54:52Z</time>
      </trkpt>
      <trkpt lat="41.29225498996675" lon="1.530533758923411">
        <ele>57.599998474121094</ele>
        <time>2018-12-29T12:54:53Z</time>
      </trkpt>
      <trkpt lat="41.292261946946383" lon="1.530609950423241">
        <ele>57.599998474121094</ele>
        <time>2018-12-29T12:54:54Z</time>
      </trkpt>
      <trkpt lat="41.292280973866582" lon="1.530758226290345">
        <ele>57.599998474121094</ele>
        <time>2018-12-29T12:54:56Z</time>
      </trkpt>
      <trkpt lat="41.292306957766414" lon="1.530902562662959">
        <ele>57.599998474121094</ele>
        <time>2018-12-29T12:54:58Z</time>
      </trkpt>
      <trkpt lat="41.292344760149717" lon="1.531042288988829">
        <ele>57.400001525878906</ele>
        <time>2018-12-29T12:55:00Z</time>
      </trkpt>
      <trkpt lat="41.292385328561068" lon="1.531177824363112">
        <ele>57.599998474121094</ele>
        <time>2018-12-29T12:55:02Z</time>
      </trkpt>
      <trkpt lat="41.292432686313987" lon="1.531309755519033">
        <ele>57.400001525878906</ele>
        <time>2018-12-29T12:55:04Z</time>
      </trkpt>
      <trkpt lat="41.292460095137358" lon="1.531373541802168">
        <ele>57.400001525878906</ele>
        <time>2018-12-29T12:55:05Z</time>
      </trkpt>
      <trkpt lat="41.292489850893617" lon="1.531437747180462">
        <ele>57.400001525878906</ele>
        <time>2018-12-29T12:55:06Z</time>
      </trkpt>
      <trkpt lat="41.292552715167403" lon="1.531562134623528">
        <ele>57.200000762939453</ele>
        <time>2018-12-29T12:55:08Z</time>
      </trkpt>
      <trkpt lat="41.29261264577508" lon="1.531692640855908">
        <ele>57</ele>
        <time>2018-12-29T12:55:10Z</time>
      </trkpt>
      <trkpt lat="41.292674923315644" lon="1.531826080754399">
        <ele>56.599998474121094</ele>
        <time>2018-12-29T12:55:12Z</time>
      </trkpt>
      <trkpt lat="41.292706606909633" lon="1.531893806532025">
        <ele>56.599998474121094</ele>
        <time>2018-12-29T12:55:13Z</time>
      </trkpt>
      <trkpt lat="41.292741056531668" lon="1.531961532309651">
        <ele>56.599998474121094</ele>
        <time>2018-12-29T12:55:14Z</time>
      </trkpt>
      <trkpt lat="41.292811464518309" lon="1.532106706872582">
        <ele>56.200000762939453</ele>
        <time>2018-12-29T12:55:16Z</time>
      </trkpt>
      <trkpt lat="41.292880363762379" lon="1.532251797616482">
        <ele>55.599998474121094</ele>
        <time>2018-12-29T12:55:18Z</time>
      </trkpt>
      <trkpt lat="41.292958315461874" lon="1.532394457608461">
        <ele>55.599998474121094</ele>
        <time>2018-12-29T12:55:20Z</time>
      </trkpt>
      <trkpt lat="41.292997123673558" lon="1.532464111223817">
        <ele>55.400001525878906</ele>
        <time>2018-12-29T12:55:21Z</time>
      </trkpt>
      <trkpt lat="41.293037021532655" lon="1.53253904543817">
        <ele>54.799999237060547</ele>
        <time>2018-12-29T12:55:22Z</time>
      </trkpt>
      <trkpt lat="41.293115224689245" lon="1.53269830159843">
        <ele>54.400001525878906</ele>
        <time>2018-12-29T12:55:24Z</time>
      </trkpt>
      <trkpt lat="41.293161073699594" lon="1.532777175307274">
        <ele>53.799999237060547</ele>
        <time>2018-12-29T12:55:25Z</time>
      </trkpt>
      <trkpt lat="41.293205413967371" lon="1.532859317958355">
        <ele>53.400001525878906</ele>
        <time>2018-12-29T12:55:26Z</time>
      </trkpt>
      <trkpt lat="41.293250760063529" lon="1.53294607065618">
        <ele>52.799999237060547</ele>
        <time>2018-12-29T12:55:27Z</time>
      </trkpt>
      <trkpt lat="41.293293926864862" lon="1.533038606867194">
        <ele>52.200000762939453</ele>
        <time>2018-12-29T12:55:28Z</time>
      </trkpt>
      <trkpt lat="41.293335165828466" lon="1.533133070915937">
        <ele>51.799999237060547</ele>
        <time>2018-12-29T12:55:29Z</time>
      </trkpt>
      <trkpt lat="41.293383361771703" lon="1.533228540793061">
        <ele>51.200000762939453</ele>
        <time>2018-12-29T12:55:30Z</time>
      </trkpt>
      <trkpt lat="41.293429462239146" lon="1.533326860517263">
        <ele>50.400001525878906</ele>
        <time>2018-12-29T12:55:31Z</time>
      </trkpt>
      <trkpt lat="41.293477909639478" lon="1.533427024260163">
        <ele>49.799999237060547</ele>
        <time>2018-12-29T12:55:32Z</time>
      </trkpt>
      <trkpt lat="41.293534738942981" lon="1.533525763079524">
        <ele>49.200000762939453</ele>
        <time>2018-12-29T12:55:33Z</time>
      </trkpt>
      <trkpt lat="41.293591652065516" lon="1.533623496070504">
        <ele>48.599998474121094</ele>
        <time>2018-12-29T12:55:34Z</time>
      </trkpt>
      <trkpt lat="41.293648397549987" lon="1.533725755289197">
        <ele>47.799999237060547</ele>
        <time>2018-12-29T12:55:35Z</time>
      </trkpt>
      <trkpt lat="41.293701874092221" lon="1.533835977315903">
        <ele>47</ele>
        <time>2018-12-29T12:55:36Z</time>
      </trkpt>
      <trkpt lat="41.293758954852819" lon="1.533940583467484">
        <ele>46.200000762939453</ele>
        <time>2018-12-29T12:55:37Z</time>
      </trkpt>
      <trkpt lat="41.293816454708576" lon="1.534047620370984">
        <ele>45.599998474121094</ele>
        <time>2018-12-29T12:55:38Z</time>
      </trkpt>
      <trkpt lat="41.293872697278857" lon="1.534152897074819">
        <ele>45.200000762939453</ele>
        <time>2018-12-29T12:55:39Z</time>
      </trkpt>
      <trkpt lat="41.293928185477853" lon="1.53425557538867">
        <ele>44.799999237060547</ele>
        <time>2018-12-29T12:55:40Z</time>
      </trkpt>
      <trkpt lat="41.294037401676178" lon="1.534449700266123">
        <ele>44.599998474121094</ele>
        <time>2018-12-29T12:55:42Z</time>
      </trkpt>
      <trkpt lat="41.294134045019746" lon="1.534644411876798">
        <ele>44.799999237060547</ele>
        <time>2018-12-29T12:55:44Z</time>
      </trkpt>
      <trkpt lat="41.294233873486519" lon="1.534821940585971">
        <ele>45</ele>
        <time>2018-12-29T12:55:46Z</time>
      </trkpt>
      <trkpt lat="41.294322470203042" lon="1.53498362749815">
        <ele>45.799999237060547</ele>
        <time>2018-12-29T12:55:48Z</time>
      </trkpt>
      <trkpt lat="41.294363373890519" lon="1.535062333568931">
        <ele>46.200000762939453</ele>
        <time>2018-12-29T12:55:49Z</time>
      </trkpt>
      <trkpt lat="41.294402182102203" lon="1.535140285268426">
        <ele>46.799999237060547</ele>
        <time>2018-12-29T12:55:50Z</time>
      </trkpt>
      <trkpt lat="41.294437302276492" lon="1.535217398777604">
        <ele>47.200000762939453</ele>
        <time>2018-12-29T12:55:51Z</time>
      </trkpt>
      <trkpt lat="41.294470494613051" lon="1.535292332991958">
        <ele>47.599998474121094</ele>
        <time>2018-12-29T12:55:52Z</time>
      </trkpt>
      <trkpt lat="41.294532688334584" lon="1.535435914993286">
        <ele>48</ele>
        <time>2018-12-29T12:55:54Z</time>
      </trkpt>
      <trkpt lat="41.29459211602807" lon="1.535565918311477">
        <ele>48.400001525878906</ele>
        <time>2018-12-29T12:55:56Z</time>
      </trkpt>
      <trkpt lat="41.294621787965298" lon="1.535626268014312">
        <ele>48.799999237060547</ele>
        <time>2018-12-29T12:55:57Z</time>
      </trkpt>
      <trkpt lat="41.294649867340922" lon="1.535687707364559">
        <ele>49.200000762939453</ele>
        <time>2018-12-29T12:55:58Z</time>
      </trkpt>
      <trkpt lat="41.294674258679152" lon="1.535750906914473">
        <ele>49.599998474121094</ele>
        <time>2018-12-29T12:55:59Z</time>
      </trkpt>
      <trkpt lat="41.294695716351271" lon="1.535814274102449">
        <ele>49.799999237060547</ele>
        <time>2018-12-29T12:56:00Z</time>
      </trkpt>
      <trkpt lat="41.294712983071804" lon="1.535881580784917">
        <ele>49.799999237060547</ele>
        <time>2018-12-29T12:56:01Z</time>
      </trkpt>
      <trkpt lat="41.294732512906194" lon="1.535943020135164">
        <ele>49.799999237060547</ele>
        <time>2018-12-29T12:56:02Z</time>
      </trkpt>
      <trkpt lat="41.294769980013371" lon="1.536054750904441">
        <ele>50.200000762939453</ele>
        <time>2018-12-29T12:56:04Z</time>
      </trkpt>
      <trkpt lat="41.29481004551053" lon="1.536164805293083">
        <ele>50.599998474121094</ele>
        <time>2018-12-29T12:56:06Z</time>
      </trkpt>
      <trkpt lat="41.29484910517931" lon="1.536276955157518">
        <ele>51</ele>
        <time>2018-12-29T12:56:08Z</time>
      </trkpt>
      <trkpt lat="41.294890092685819" lon="1.5363884344697">
        <ele>51.599998474121094</ele>
        <time>2018-12-29T12:56:10Z</time>
      </trkpt>
      <trkpt lat="41.294929822906852" lon="1.53650033287704">
        <ele>52</ele>
        <time>2018-12-29T12:56:12Z</time>
      </trkpt>
      <trkpt lat="41.294948095455766" lon="1.53655406087637">
        <ele>52.200000762939453</ele>
        <time>2018-12-29T12:56:13Z</time>
      </trkpt>
      <trkpt lat="41.294965445995331" lon="1.536608543246985">
        <ele>52.400001525878906</ele>
        <time>2018-12-29T12:56:14Z</time>
      </trkpt>
      <trkpt lat="41.295001823455095" lon="1.536715999245644">
        <ele>52.799999237060547</ele>
        <time>2018-12-29T12:56:16Z</time>
      </trkpt>
      <trkpt lat="41.295040799304843" lon="1.536819180473685">
        <ele>53.200000762939453</ele>
        <time>2018-12-29T12:56:18Z</time>
      </trkpt>
      <trkpt lat="41.295059993863106" lon="1.536872405558825">
        <ele>53.200000762939453</ele>
        <time>2018-12-29T12:56:19Z</time>
      </trkpt>
      <trkpt lat="41.295078685507178" lon="1.536926636472344">
        <ele>53.400001525878906</ele>
        <time>2018-12-29T12:56:20Z</time>
      </trkpt>
      <trkpt lat="41.295122858136892" lon="1.53702856041491">
        <ele>53.799999237060547</ele>
        <time>2018-12-29T12:56:22Z</time>
      </trkpt>
      <trkpt lat="41.295170383527875" lon="1.537129562348127">
        <ele>54.200000762939453</ele>
        <time>2018-12-29T12:56:24Z</time>
      </trkpt>
      <trkpt lat="41.295193349942565" lon="1.537179937586188">
        <ele>54.400001525878906</ele>
        <time>2018-12-29T12:56:25Z</time>
      </trkpt>
      <trkpt lat="41.295217825099826" lon="1.537230145186186">
        <ele>54.400001525878906</ele>
        <time>2018-12-29T12:56:26Z</time>
      </trkpt>
      <trkpt lat="41.295267445966601" lon="1.537329386919737">
        <ele>54.799999237060547</ele>
        <time>2018-12-29T12:56:28Z</time>
      </trkpt>
      <trkpt lat="41.295317318290472" lon="1.537431310862303">
        <ele>55.200000762939453</ele>
        <time>2018-12-29T12:56:30Z</time>
      </trkpt>
      <trkpt lat="41.295342799276114" lon="1.537480596452951">
        <ele>55.400001525878906</ele>
        <time>2018-12-29T12:56:31Z</time>
      </trkpt>
      <trkpt lat="41.295372890308499" lon="1.537529798224568">
        <ele>55.599998474121094</ele>
        <time>2018-12-29T12:56:32Z</time>
      </trkpt>
      <trkpt lat="41.295431395992637" lon="1.537625938653946">
        <ele>55.599998474121094</ele>
        <time>2018-12-29T12:56:34Z</time>
      </trkpt>
      <trkpt lat="41.295486884191632" lon="1.53772241435945">
        <ele>56</ele>
        <time>2018-12-29T12:56:36Z</time>
      </trkpt>
      <trkpt lat="41.295544300228357" lon="1.537818303331733">
        <ele>56.200000762939453</ele>
        <time>2018-12-29T12:56:38Z</time>
      </trkpt>
      <trkpt lat="41.295574139803648" lon="1.53786557726562">
        <ele>56.400001525878906</ele>
        <time>2018-12-29T12:56:39Z</time>
      </trkpt>
      <trkpt lat="41.295604649931192" lon="1.537912096828222">
        <ele>56.599998474121094</ele>
        <time>2018-12-29T12:56:40Z</time>
      </trkpt>
      <trkpt lat="41.295663071796298" lon="1.538010332733393">
        <ele>56.799999237060547</ele>
        <time>2018-12-29T12:56:42Z</time>
      </trkpt>
      <trkpt lat="41.295720404013991" lon="1.538104042410851">
        <ele>57</ele>
        <time>2018-12-29T12:56:44Z</time>
      </trkpt>
      <trkpt lat="41.29577555693686" lon="1.538195321336389">
        <ele>57.200000762939453</ele>
        <time>2018-12-29T12:56:46Z</time>
      </trkpt>
      <trkpt lat="41.295834481716156" lon="1.538284253329039">
        <ele>57.400001525878906</ele>
        <time>2018-12-29T12:56:48Z</time>
      </trkpt>
      <trkpt lat="41.295861974358559" lon="1.538330186158419">
        <ele>57.599998474121094</ele>
        <time>2018-12-29T12:56:49Z</time>
      </trkpt>
      <trkpt lat="41.295889131724834" lon="1.538377543911338">
        <ele>57.799999237060547</ele>
        <time>2018-12-29T12:56:50Z</time>
      </trkpt>
      <trkpt lat="41.295949062332511" lon="1.538468571379781">
        <ele>58</ele>
        <time>2018-12-29T12:56:52Z</time>
      </trkpt>
      <trkpt lat="41.296011507511139" lon="1.538550211116672">
        <ele>58.200000762939453</ele>
        <time>2018-12-29T12:56:54Z</time>
      </trkpt>
      <trkpt lat="41.296040676534176" lon="1.538592539727688">
        <ele>58.200000762939453</ele>
        <time>2018-12-29T12:56:55Z</time>
      </trkpt>
      <trkpt lat="41.296068672090769" lon="1.538635957986116">
        <ele>58.200000762939453</ele>
        <time>2018-12-29T12:56:56Z</time>
      </trkpt>
      <trkpt lat="41.296121813356876" lon="1.538728410378099">
        <ele>58.400001525878906</ele>
        <time>2018-12-29T12:56:58Z</time>
      </trkpt>
      <trkpt lat="41.296174200251698" lon="1.538822036236525">
        <ele>58.599998474121094</ele>
        <time>2018-12-29T12:57:00Z</time>
      </trkpt>
      <trkpt lat="41.296201860532165" lon="1.538868052884936">
        <ele>58.799999237060547</ele>
        <time>2018-12-29T12:57:01Z</time>
      </trkpt>
      <trkpt lat="41.296229520812631" lon="1.538913482800126">
        <ele>58.799999237060547</ele>
        <time>2018-12-29T12:57:02Z</time>
      </trkpt>
      <trkpt lat="41.296285428106785" lon="1.539000738412142">
        <ele>58.799999237060547</ele>
        <time>2018-12-29T12:57:04Z</time>
      </trkpt>
      <trkpt lat="41.296343766152859" lon="1.539086233824492">
        <ele>59</ele>
        <time>2018-12-29T12:57:06Z</time>
      </trkpt>
      <trkpt lat="41.296400763094425" lon="1.539176506921649">
        <ele>59.200000762939453</ele>
        <time>2018-12-29T12:57:08Z</time>
      </trkpt>
      <trkpt lat="41.29645717330277" lon="1.53926937840879">
        <ele>59.200000762939453</ele>
        <time>2018-12-29T12:57:10Z</time>
      </trkpt>
      <trkpt lat="41.296484414488077" lon="1.539316819980741">
        <ele>59.400001525878906</ele>
        <time>2018-12-29T12:57:11Z</time>
      </trkpt>
      <trkpt lat="41.296511068940163" lon="1.539365602657199">
        <ele>59.400001525878906</ele>
        <time>2018-12-29T12:57:12Z</time>
      </trkpt>
      <trkpt lat="41.296564126387239" lon="1.539466017857194">
        <ele>59.400001525878906</ele>
        <time>2018-12-29T12:57:14Z</time>
      </trkpt>
      <trkpt lat="41.296616932377219" lon="1.53956551104784">
        <ele>59.400001525878906</ele>
        <time>2018-12-29T12:57:16Z</time>
      </trkpt>
      <trkpt lat="41.296670492738485" lon="1.539663914591074">
        <ele>59.400001525878906</ele>
        <time>2018-12-29T12:57:18Z</time>
      </trkpt>
      <trkpt lat="41.296724304556847" lon="1.539770783856511">
        <ele>59.599998474121094</ele>
        <time>2018-12-29T12:57:20Z</time>
      </trkpt>
      <trkpt lat="41.296775937080383" lon="1.53988896869123">
        <ele>59.799999237060547</ele>
        <time>2018-12-29T12:57:22Z</time>
      </trkpt>
      <trkpt lat="41.296799574047327" lon="1.539948983117938">
        <ele>59.799999237060547</ele>
        <time>2018-12-29T12:57:23Z</time>
      </trkpt>
      <trkpt lat="41.296821283176541" lon="1.540009332820773">
        <ele>59.799999237060547</ele>
        <time>2018-12-29T12:57:24Z</time>
      </trkpt>
      <trkpt lat="41.296862019225955" lon="1.540128942579031">
        <ele>60</ele>
        <time>2018-12-29T12:57:26Z</time>
      </trkpt>
      <trkpt lat="41.296897977590561" lon="1.540247881785035">
        <ele>60.200000762939453</ele>
        <time>2018-12-29T12:57:28Z</time>
      </trkpt>
      <trkpt lat="41.29693016409874" lon="1.540369922295213">
        <ele>60.200000762939453</ele>
        <time>2018-12-29T12:57:30Z</time>
      </trkpt>
      <trkpt lat="41.296964278444648" lon="1.540496069937944">
        <ele>60.200000762939453</ele>
        <time>2018-12-29T12:57:32Z</time>
      </trkpt>
      <trkpt lat="41.296994369477034" lon="1.540625570341945">
        <ele>60.200000762939453</ele>
        <time>2018-12-29T12:57:34Z</time>
      </trkpt>
      <trkpt lat="41.297024544328451" lon="1.540754064917564">
        <ele>60.400001525878906</ele>
        <time>2018-12-29T12:57:36Z</time>
      </trkpt>
      <trkpt lat="41.297071818262339" lon="1.540869735181332">
        <ele>60.200000762939453</ele>
        <time>2018-12-29T12:57:38Z</time>
      </trkpt>
      <trkpt lat="41.297100987285376" lon="1.540997726842761">
        <ele>60.200000762939453</ele>
        <time>2018-12-29T12:57:40Z</time>
      </trkpt>
      <trkpt lat="41.297110542654991" lon="1.541064530611038">
        <ele>60</ele>
        <time>2018-12-29T12:57:41Z</time>
      </trkpt>
      <trkpt lat="41.297116996720433" lon="1.541129657998681">
        <ele>59.799999237060547</ele>
        <time>2018-12-29T12:57:42Z</time>
      </trkpt>
      <trkpt lat="41.297114649787545" lon="1.541261589154601">
        <ele>59.799999237060547</ele>
        <time>2018-12-29T12:57:44Z</time>
      </trkpt>
      <trkpt lat="41.297108782455325" lon="1.541327219456434">
        <ele>59.799999237060547</ele>
        <time>2018-12-29T12:57:45Z</time>
      </trkpt>
      <trkpt lat="41.297099310904741" lon="1.541390670463443">
        <ele>59.799999237060547</ele>
        <time>2018-12-29T12:57:46Z</time>
      </trkpt>
      <trkpt lat="41.297088414430618" lon="1.541451942175627">
        <ele>59.799999237060547</ele>
        <time>2018-12-29T12:57:47Z</time>
      </trkpt>
      <trkpt lat="41.297081541270018" lon="1.541515393182635">
        <ele>59.599998474121094</ele>
        <time>2018-12-29T12:57:48Z</time>
      </trkpt>
      <trkpt lat="41.297092102468014" lon="1.541649755090475">
        <ele>59.400001525878906</ele>
        <time>2018-12-29T12:57:50Z</time>
      </trkpt>
      <trkpt lat="41.297154128551483" lon="1.541766012087464">
        <ele>59</ele>
        <time>2018-12-29T12:57:52Z</time>
      </trkpt>
      <trkpt lat="41.297197882086039" lon="1.541810603812337">
        <ele>58.400001525878906</ele>
        <time>2018-12-29T12:57:53Z</time>
      </trkpt>
      <trkpt lat="41.29724389873445" lon="1.541854524984956">
        <ele>58.400001525878906</ele>
        <time>2018-12-29T12:57:54Z</time>
      </trkpt>
      <trkpt lat="41.297340039163828" lon="1.541947145015001">
        <ele>58</ele>
        <time>2018-12-29T12:57:56Z</time>
      </trkpt>
      <trkpt lat="41.297438610345125" lon="1.542057199403644">
        <ele>57.200000762939453</ele>
        <time>2018-12-29T12:57:58Z</time>
      </trkpt>
      <trkpt lat="41.297480771318078" lon="1.542127020657063">
        <ele>56.599998474121094</ele>
        <time>2018-12-29T12:57:59Z</time>
      </trkpt>
      <trkpt lat="41.297520585358143" lon="1.542207822203636">
        <ele>56.200000762939453</ele>
        <time>2018-12-29T12:58:00Z</time>
      </trkpt>
      <trkpt lat="41.297597698867321" lon="1.542386692017317">
        <ele>55.400001525878906</ele>
        <time>2018-12-29T12:58:02Z</time>
      </trkpt>
      <trkpt lat="41.297631897032261" lon="1.542486771941185">
        <ele>54.799999237060547</ele>
        <time>2018-12-29T12:58:03Z</time>
      </trkpt>
      <trkpt lat="41.297663412988186" lon="1.54259255155921">
        <ele>54.200000762939453</ele>
        <time>2018-12-29T12:58:04Z</time>
      </trkpt>
      <trkpt lat="41.297691157087684" lon="1.542704282328486">
        <ele>53.200000762939453</ele>
        <time>2018-12-29T12:58:05Z</time>
      </trkpt>
      <trkpt lat="41.29771688953042" lon="1.542819868773222">
        <ele>52.400001525878906</ele>
        <time>2018-12-29T12:58:06Z</time>
      </trkpt>
      <trkpt lat="41.297740442678332" lon="1.542939897626638">
        <ele>51.799999237060547</ele>
        <time>2018-12-29T12:58:07Z</time>
      </trkpt>
      <trkpt lat="41.297758379951119" lon="1.543061435222626">
        <ele>51.400001525878906</ele>
        <time>2018-12-29T12:58:08Z</time>
      </trkpt>
      <trkpt lat="41.29777304828167" lon="1.543183140456677">
        <ele>50.799999237060547</ele>
        <time>2018-12-29T12:58:09Z</time>
      </trkpt>
      <trkpt lat="41.297780843451619" lon="1.543305348604918">
        <ele>50.200000762939453</ele>
        <time>2018-12-29T12:58:10Z</time>
      </trkpt>
      <trkpt lat="41.297780508175492" lon="1.543428814038634">
        <ele>49.599998474121094</ele>
        <time>2018-12-29T12:58:11Z</time>
      </trkpt>
      <trkpt lat="41.297773635014892" lon="1.543552279472351">
        <ele>49.200000762939453</ele>
        <time>2018-12-29T12:58:12Z</time>
      </trkpt>
      <trkpt lat="41.297764163464308" lon="1.543674487620592">
        <ele>48.400001525878906</ele>
        <time>2018-12-29T12:58:13Z</time>
      </trkpt>
      <trkpt lat="41.297749914228916" lon="1.54379460029304">
        <ele>48</ele>
        <time>2018-12-29T12:58:14Z</time>
      </trkpt>
      <trkpt lat="41.297712866216898" lon="1.544028120115399">
        <ele>47.799999237060547</ele>
        <time>2018-12-29T12:58:16Z</time>
      </trkpt>
      <trkpt lat="41.297666430473328" lon="1.54425485059619">
        <ele>47.599998474121094</ele>
        <time>2018-12-29T12:58:18Z</time>
      </trkpt>
      <trkpt lat="41.297640614211559" lon="1.544366413727403">
        <ele>47.400001525878906</ele>
        <time>2018-12-29T12:58:19Z</time>
      </trkpt>
      <trkpt lat="41.297614462673664" lon="1.544478144496679">
        <ele>47.200000762939453</ele>
        <time>2018-12-29T12:58:20Z</time>
      </trkpt>
      <trkpt lat="41.297563668340445" lon="1.544699594378471">
        <ele>47.200000762939453</ele>
        <time>2018-12-29T12:58:22Z</time>
      </trkpt>
      <trkpt lat="41.297515723854303" lon="1.544915260747075">
        <ele>47.200000762939453</ele>
        <time>2018-12-29T12:58:24Z</time>
      </trkpt>
      <trkpt lat="41.297471802681684" lon="1.545120365917683">
        <ele>47.200000762939453</ele>
        <time>2018-12-29T12:58:26Z</time>
      </trkpt>
      <trkpt lat="41.297449506819248" lon="1.545220194384456">
        <ele>47.400001525878906</ele>
        <time>2018-12-29T12:58:27Z</time>
      </trkpt>
      <trkpt lat="41.297428384423256" lon="1.545316418632865">
        <ele>47.599998474121094</ele>
        <time>2018-12-29T12:58:28Z</time>
      </trkpt>
      <trkpt lat="41.297394353896379" lon="1.545505346730351">
        <ele>48.200000762939453</ele>
        <time>2018-12-29T12:58:30Z</time>
      </trkpt>
      <trkpt lat="41.297378595918417" lon="1.545598637312651">
        <ele>48.400001525878906</ele>
        <time>2018-12-29T12:58:31Z</time>
      </trkpt>
      <trkpt lat="41.29736359231174" lon="1.545691257342696">
        <ele>48.599998474121094</ele>
        <time>2018-12-29T12:58:32Z</time>
      </trkpt>
      <trkpt lat="41.297338865697384" lon="1.545871468260884">
        <ele>49</ele>
        <time>2018-12-29T12:58:34Z</time>
      </trkpt>
      <trkpt lat="41.297322018072009" lon="1.546050338074565">
        <ele>49.400001525878906</ele>
        <time>2018-12-29T12:58:36Z</time>
      </trkpt>
      <trkpt lat="41.297316569834948" lon="1.546139353886247">
        <ele>49.599998474121094</ele>
        <time>2018-12-29T12:58:37Z</time>
      </trkpt>
      <trkpt lat="41.29731279797852" lon="1.546227615326643">
        <ele>49.599998474121094</ele>
        <time>2018-12-29T12:58:38Z</time>
      </trkpt>
      <trkpt lat="41.297309612855315" lon="1.546401455998421">
        <ele>49.799999237060547</ele>
        <time>2018-12-29T12:58:40Z</time>
      </trkpt>
      <trkpt lat="41.297310786321759" lon="1.546486699953675">
        <ele>49.799999237060547</ele>
        <time>2018-12-29T12:58:41Z</time>
      </trkpt>
      <trkpt lat="41.297312630340457" lon="1.546571357175708">
        <ele>50</ele>
        <time>2018-12-29T12:58:42Z</time>
      </trkpt>
      <trkpt lat="41.297320676967502" lon="1.546738659963012">
        <ele>50.400001525878906</ele>
        <time>2018-12-29T12:58:44Z</time>
      </trkpt>
      <trkpt lat="41.297326628118753" lon="1.546819377690554">
        <ele>50.599998474121094</ele>
        <time>2018-12-29T12:58:45Z</time>
      </trkpt>
      <trkpt lat="41.29733475856483" lon="1.546899424865842">
        <ele>50.799999237060547</ele>
        <time>2018-12-29T12:58:46Z</time>
      </trkpt>
      <trkpt lat="41.297352695837617" lon="1.547059435397387">
        <ele>50.799999237060547</ele>
        <time>2018-12-29T12:58:48Z</time>
      </trkpt>
      <trkpt lat="41.297362502664328" lon="1.547139314934611">
        <ele>51.200000762939453</ele>
        <time>2018-12-29T12:58:49Z</time>
      </trkpt>
      <trkpt lat="41.297374404966831" lon="1.547217518091202">
        <ele>51.200000762939453</ele>
        <time>2018-12-29T12:58:50Z</time>
      </trkpt>
      <trkpt lat="41.297403071075678" lon="1.547371074557304">
        <ele>50.799999237060547</ele>
        <time>2018-12-29T12:58:52Z</time>
      </trkpt>
      <trkpt lat="41.297436011955142" lon="1.547518679872155">
        <ele>50.799999237060547</ele>
        <time>2018-12-29T12:58:54Z</time>
      </trkpt>
      <trkpt lat="41.297464929521084" lon="1.547667039558291">
        <ele>51.200000762939453</ele>
        <time>2018-12-29T12:58:56Z</time>
      </trkpt>
      <trkpt lat="41.297499379143119" lon="1.547813806682825">
        <ele>51.400001525878906</ele>
        <time>2018-12-29T12:58:58Z</time>
      </trkpt>
      <trkpt lat="41.297519076615572" lon="1.547885723412037">
        <ele>51.599998474121094</ele>
        <time>2018-12-29T12:58:59Z</time>
      </trkpt>
      <trkpt lat="41.297539612278342" lon="1.547955879941583">
        <ele>51.799999237060547</ele>
        <time>2018-12-29T12:59:00Z</time>
      </trkpt>
      <trkpt lat="41.297574983909726" lon="1.548094935715199">
        <ele>52</ele>
        <time>2018-12-29T12:59:02Z</time>
      </trkpt>
      <trkpt lat="41.297611529007554" lon="1.548229800537229">
        <ele>52.400001525878906</ele>
        <time>2018-12-29T12:59:04Z</time>
      </trkpt>
      <trkpt lat="41.29764698445797" lon="1.54836374334991">
        <ele>52.599998474121094</ele>
        <time>2018-12-29T12:59:06Z</time>
      </trkpt>
      <trkpt lat="41.297663077712059" lon="1.548431301489472">
        <ele>52.799999237060547</ele>
        <time>2018-12-29T12:59:07Z</time>
      </trkpt>
      <trkpt lat="41.297679170966148" lon="1.548498943448067">
        <ele>52.799999237060547</ele>
        <time>2018-12-29T12:59:08Z</time>
      </trkpt>
      <trkpt lat="41.297714542597532" lon="1.548628024756908">
        <ele>52.799999237060547</ele>
        <time>2018-12-29T12:59:10Z</time>
      </trkpt>
      <trkpt lat="41.297749914228916" lon="1.548752579838038">
        <ele>53</ele>
        <time>2018-12-29T12:59:12Z</time>
      </trkpt>
      <trkpt lat="41.297766510397196" lon="1.548814941197634">
        <ele>53.200000762939453</ele>
        <time>2018-12-29T12:59:13Z</time>
      </trkpt>
      <trkpt lat="41.297781430184841" lon="1.548878056928515">
        <ele>53.400001525878906</ele>
        <time>2018-12-29T12:59:14Z</time>
      </trkpt>
      <trkpt lat="41.297813532873988" lon="1.549001522362232">
        <ele>53.400001525878906</ele>
        <time>2018-12-29T12:59:16Z</time>
      </trkpt>
      <trkpt lat="41.297848736867309" lon="1.549123981967568">
        <ele>53.599998474121094</ele>
        <time>2018-12-29T12:59:18Z</time>
      </trkpt>
      <trkpt lat="41.297865500673652" lon="1.549184080213308">
        <ele>53.799999237060547</ele>
        <time>2018-12-29T12:59:19Z</time>
      </trkpt>
      <trkpt lat="41.297882180660963" lon="1.549244849011302">
        <ele>54</ele>
        <time>2018-12-29T12:59:20Z</time>
      </trkpt>
      <trkpt lat="41.297898273915052" lon="1.549305450171232">
        <ele>54</ele>
        <time>2018-12-29T12:59:21Z</time>
      </trkpt>
      <trkpt lat="41.297912858426571" lon="1.549365799874067">
        <ele>54.200000762939453</ele>
        <time>2018-12-29T12:59:22Z</time>
      </trkpt>
      <trkpt lat="41.297938423231244" lon="1.549487337470055">
        <ele>54.200000762939453</ele>
        <time>2018-12-29T12:59:24Z</time>
      </trkpt>
      <trkpt lat="41.297956528142095" lon="1.549612144008279">
        <ele>54.400001525878906</ele>
        <time>2018-12-29T12:59:26Z</time>
      </trkpt>
      <trkpt lat="41.297977482900023" lon="1.54973485507071">
        <ele>54.599998474121094</ele>
        <time>2018-12-29T12:59:28Z</time>
      </trkpt>
      <trkpt lat="41.297988211736083" lon="1.549796629697084">
        <ele>54.799999237060547</ele>
        <time>2018-12-29T12:59:29Z</time>
      </trkpt>
      <trkpt lat="41.297997515648603" lon="1.549857817590237">
        <ele>55</ele>
        <time>2018-12-29T12:59:30Z</time>
      </trkpt>
      <trkpt lat="41.298012351617217" lon="1.549982707947493">
        <ele>55.200000762939453</ele>
        <time>2018-12-29T12:59:32Z</time>
      </trkpt>
      <trkpt lat="41.298021404072642" lon="1.550110531970859">
        <ele>55.400001525878906</ele>
        <time>2018-12-29T12:59:34Z</time>
      </trkpt>
      <trkpt lat="41.298022493720055" lon="1.550244642421603">
        <ele>55.599998474121094</ele>
        <time>2018-12-29T12:59:36Z</time>
      </trkpt>
      <trkpt lat="41.298023583367467" lon="1.550383865833283">
        <ele>55.599998474121094</ele>
        <time>2018-12-29T12:59:38Z</time>
      </trkpt>
      <trkpt lat="41.298019140958786" lon="1.550523927435279">
        <ele>55.799999237060547</ele>
        <time>2018-12-29T12:59:40Z</time>
      </trkpt>
      <trkpt lat="41.29800908267498" lon="1.550665078684688">
        <ele>55.599998474121094</ele>
        <time>2018-12-29T12:59:42Z</time>
      </trkpt>
      <trkpt lat="41.297992989420891" lon="1.550804805010557">
        <ele>55.400001525878906</ele>
        <time>2018-12-29T12:59:44Z</time>
      </trkpt>
      <trkpt lat="41.297969855368137" lon="1.550947381183505">
        <ele>55.400001525878906</ele>
        <time>2018-12-29T12:59:46Z</time>
      </trkpt>
      <trkpt lat="41.297941524535418" lon="1.551092388108373">
        <ele>55.400001525878906</ele>
        <time>2018-12-29T12:59:48Z</time>
      </trkpt>
      <trkpt lat="41.297907074913383" lon="1.551238400861621">
        <ele>55.599998474121094</ele>
        <time>2018-12-29T12:59:50Z</time>
      </trkpt>
      <trkpt lat="41.297872541472316" lon="1.551384497433901">
        <ele>55.400001525878906</ele>
        <time>2018-12-29T12:59:52Z</time>
      </trkpt>
      <trkpt lat="41.297853933647275" lon="1.551456665620208">
        <ele>55.400001525878906</ele>
        <time>2018-12-29T12:59:53Z</time>
      </trkpt>
      <trkpt lat="41.297833984717727" lon="1.551527492702007">
        <ele>55.400001525878906</ele>
        <time>2018-12-29T12:59:54Z</time>
      </trkpt>
      <trkpt lat="41.297793416306376" lon="1.551670823246241">
        <ele>55.599998474121094</ele>
        <time>2018-12-29T12:59:56Z</time>
      </trkpt>
      <trkpt lat="41.297754188999534" lon="1.551812393590808">
        <ele>55.599998474121094</ele>
        <time>2018-12-29T12:59:58Z</time>
      </trkpt>
      <trkpt lat="41.297713369131088" lon="1.551956227049232">
        <ele>55.400001525878906</ele>
        <time>2018-12-29T13:00:00Z</time>
      </trkpt>
      <trkpt lat="41.297671627253294" lon="1.552101066336036">
        <ele>55.599998474121094</ele>
        <time>2018-12-29T13:00:02Z</time>
      </trkpt>
      <trkpt lat="41.297634243965149" lon="1.552241966128349">
        <ele>55.799999237060547</ele>
        <time>2018-12-29T13:00:04Z</time>
      </trkpt>
      <trkpt lat="41.297616641968489" lon="1.552311033010483">
        <ele>55.799999237060547</ele>
        <time>2018-12-29T13:00:05Z</time>
      </trkpt>
      <trkpt lat="41.297600045800209" lon="1.552380099892616">
        <ele>55.799999237060547</ele>
        <time>2018-12-29T13:00:06Z</time>
      </trkpt>
      <trkpt lat="41.297564841806889" lon="1.552518820390105">
        <ele>56</ele>
        <time>2018-12-29T13:00:08Z</time>
      </trkpt>
      <trkpt lat="41.297545311972499" lon="1.55266122892499">
        <ele>56</ele>
        <time>2018-12-29T13:00:10Z</time>
      </trkpt>
      <trkpt lat="41.297539863735437" lon="1.552732894197106">
        <ele>56</ele>
        <time>2018-12-29T13:00:11Z</time>
      </trkpt>
      <trkpt lat="41.29753852263093" lon="1.552805230021477">
        <ele>56.200000762939453</ele>
        <time>2018-12-29T13:00:12Z</time>
      </trkpt>
      <trkpt lat="41.297545144334435" lon="1.5529490634799">
        <ele>56.200000762939453</ele>
        <time>2018-12-29T13:00:14Z</time>
      </trkpt>
      <trkpt lat="41.297563081607223" lon="1.553093902766705">
        <ele>56.200000762939453</ele>
        <time>2018-12-29T13:00:16Z</time>
      </trkpt>
      <trkpt lat="41.297577414661646" lon="1.553166657686234">
        <ele>56.400001525878906</ele>
        <time>2018-12-29T13:00:17Z</time>
      </trkpt>
      <trkpt lat="41.297597112134099" lon="1.553238909691572">
        <ele>56.200000762939453</ele>
        <time>2018-12-29T13:00:18Z</time>
      </trkpt>
      <trkpt lat="41.297645894810557" lon="1.553383832797408">
        <ele>56</ele>
        <time>2018-12-29T13:00:20Z</time>
      </trkpt>
      <trkpt lat="41.297703227028251" lon="1.553529845550656">
        <ele>55.599998474121094</ele>
        <time>2018-12-29T13:00:22Z</time>
      </trkpt>
      <trkpt lat="41.297735832631588" lon="1.553603606298566">
        <ele>55.599998474121094</ele>
        <time>2018-12-29T13:00:23Z</time>
      </trkpt>
      <trkpt lat="41.297769946977496" lon="1.553677367046475">
        <ele>55.400001525878906</ele>
        <time>2018-12-29T13:00:24Z</time>
      </trkpt>
      <trkpt lat="41.297836164012551" lon="1.553824134171009">
        <ele>55.200000762939453</ele>
        <time>2018-12-29T13:00:26Z</time>
      </trkpt>
      <trkpt lat="41.297901375219226" lon="1.553966458886862">
        <ele>54.799999237060547</ele>
        <time>2018-12-29T13:00:28Z</time>
      </trkpt>
      <trkpt lat="41.297953762114048" lon="1.554101323708892">
        <ele>55.200000762939453</ele>
        <time>2018-12-29T13:00:30Z</time>
      </trkpt>
      <trkpt lat="41.297976225614548" lon="1.554165948182344">
        <ele>55.200000762939453</ele>
        <time>2018-12-29T13:00:31Z</time>
      </trkpt>
      <trkpt lat="41.297998353838921" lon="1.554230321198702">
        <ele>55.400001525878906</ele>
        <time>2018-12-29T13:00:32Z</time>
      </trkpt>
      <trkpt lat="41.298041520640254" lon="1.554353451356292">
        <ele>56</ele>
        <time>2018-12-29T13:00:34Z</time>
      </trkpt>
      <trkpt lat="41.298078401014209" lon="1.554466607049108">
        <ele>56.400001525878906</ele>
        <time>2018-12-29T13:00:36Z</time>
      </trkpt>
      <trkpt lat="41.29810681566596" lon="1.554575739428401">
        <ele>57</ele>
        <time>2018-12-29T13:00:38Z</time>
      </trkpt>
      <trkpt lat="41.298121986910701" lon="1.554628042504191">
        <ele>57.200000762939453</ele>
        <time>2018-12-29T13:00:39Z</time>
      </trkpt>
      <trkpt lat="41.298136319965124" lon="1.554679088294506">
        <ele>57.400001525878906</ele>
        <time>2018-12-29T13:00:40Z</time>
      </trkpt>
      <trkpt lat="41.298168422654271" lon="1.554777743294835">
        <ele>58</ele>
        <time>2018-12-29T13:00:42Z</time>
      </trkpt>
      <trkpt lat="41.298185521736741" lon="1.554825101047754">
        <ele>58.200000762939453</ele>
        <time>2018-12-29T13:00:43Z</time>
      </trkpt>
      <trkpt lat="41.298201195895672" lon="1.554871369153261">
        <ele>58.599998474121094</ele>
        <time>2018-12-29T13:00:44Z</time>
      </trkpt>
      <trkpt lat="41.298230113461614" lon="1.554964240640402">
        <ele>59</ele>
        <time>2018-12-29T13:00:46Z</time>
      </trkpt>
      <trkpt lat="41.298241345211864" lon="1.555009419098496">
        <ele>59.400001525878906</ele>
        <time>2018-12-29T13:00:47Z</time>
      </trkpt>
      <trkpt lat="41.298253666609526" lon="1.555053340271115">
        <ele>59.599998474121094</ele>
        <time>2018-12-29T13:00:48Z</time>
      </trkpt>
      <trkpt lat="41.29828174598515" lon="1.555141434073448">
        <ele>60.200000762939453</ele>
        <time>2018-12-29T13:00:50Z</time>
      </trkpt>
      <trkpt lat="41.29829490557313" lon="1.555184265598655">
        <ele>60.599998474121094</ele>
        <time>2018-12-29T13:00:51Z</time>
      </trkpt>
      <trkpt lat="41.29830664023757" lon="1.555225672200322">
        <ele>61</ele>
        <time>2018-12-29T13:00:52Z</time>
      </trkpt>
      <trkpt lat="41.298317536711693" lon="1.555264061316848">
        <ele>61.400001525878906</ele>
        <time>2018-12-29T13:00:53Z</time>
      </trkpt>
      <trkpt lat="41.298328936100006" lon="1.555300271138549">
        <ele>61.599998474121094</ele>
        <time>2018-12-29T13:00:54Z</time>
      </trkpt>
      <trkpt lat="41.298351231962442" lon="1.555372439324856">
        <ele>62</ele>
        <time>2018-12-29T13:00:56Z</time>
      </trkpt>
      <trkpt lat="41.298370091244578" lon="1.555442931130529">
        <ele>62.599998474121094</ele>
        <time>2018-12-29T13:00:58Z</time>
      </trkpt>
      <trkpt lat="41.298379143700004" lon="1.555476542562246">
        <ele>62.799999237060547</ele>
        <time>2018-12-29T13:00:59Z</time>
      </trkpt>
      <trkpt lat="41.298388615250587" lon="1.555509483441711">
        <ele>63</ele>
        <time>2018-12-29T13:01:00Z</time>
      </trkpt>
      <trkpt lat="41.298411497846246" lon="1.555573521181941">
        <ele>64</ele>
        <time>2018-12-29T13:01:02Z</time>
      </trkpt>
      <trkpt lat="41.298433458432555" lon="1.555638648569584">
        <ele>64.400001525878906</ele>
        <time>2018-12-29T13:01:04Z</time>
      </trkpt>
      <trkpt lat="41.298454329371452" lon="1.555699668824673">
        <ele>64.800003051757812</ele>
        <time>2018-12-29T13:01:06Z</time>
      </trkpt>
      <trkpt lat="41.298476289957762" lon="1.555761024355888">
        <ele>65.199996948242188</ele>
        <time>2018-12-29T13:01:08Z</time>
      </trkpt>
      <trkpt lat="41.298487102612853" lon="1.555792121216655">
        <ele>65.400001525878906</ele>
        <time>2018-12-29T13:01:09Z</time>
      </trkpt>
      <trkpt lat="41.29849623888731" lon="1.555823469534516">
        <ele>65.599998474121094</ele>
        <time>2018-12-29T13:01:10Z</time>
      </trkpt>
      <trkpt lat="41.298517361283302" lon="1.555887758731842">
        <ele>66.199996948242187</ele>
        <time>2018-12-29T13:01:12Z</time>
      </trkpt>
      <trkpt lat="41.298540998250246" lon="1.555954646319151">
        <ele>66.599998474121094</ele>
        <time>2018-12-29T13:01:14Z</time>
      </trkpt>
      <trkpt lat="41.298563545569777" lon="1.556022288277745">
        <ele>67</ele>
        <time>2018-12-29T13:01:16Z</time>
      </trkpt>
      <trkpt lat="41.29857636988163" lon="1.556056151166558">
        <ele>67.199996948242187</ele>
        <time>2018-12-29T13:01:17Z</time>
      </trkpt>
      <trkpt lat="41.29858567379415" lon="1.556089678779244">
        <ele>67.400001525878906</ele>
        <time>2018-12-29T13:01:18Z</time>
      </trkpt>
      <trkpt lat="41.298603862524033" lon="1.556158494204283">
        <ele>67.800003051757813</ele>
        <time>2018-12-29T13:01:20Z</time>
      </trkpt>
      <trkpt lat="41.298624314367771" lon="1.556229321286082">
        <ele>67.800003051757813</ele>
        <time>2018-12-29T13:01:22Z</time>
      </trkpt>
      <trkpt lat="41.298647616058588" lon="1.556300902739167">
        <ele>67.800003051757813</ele>
        <time>2018-12-29T13:01:24Z</time>
      </trkpt>
      <trkpt lat="41.298674019053578" lon="1.556367874145508">
        <ele>67.800003051757813</ele>
        <time>2018-12-29T13:01:26Z</time>
      </trkpt>
      <trkpt lat="41.298694973811507" lon="1.55643199570477">
        <ele>68.199996948242188</ele>
        <time>2018-12-29T13:01:28Z</time>
      </trkpt>
      <trkpt lat="41.29870587028563" lon="1.556464852765203">
        <ele>68.599998474121094</ele>
        <time>2018-12-29T13:01:29Z</time>
      </trkpt>
      <trkpt lat="41.298721209168434" lon="1.556497542187572">
        <ele>68.599998474121094</ele>
        <time>2018-12-29T13:01:30Z</time>
      </trkpt>
      <trkpt lat="41.298737972974777" lon="1.556529141962528">
        <ele>68.400001525878906</ele>
        <time>2018-12-29T13:01:31Z</time>
      </trkpt>
      <trkpt lat="41.298754066228867" lon="1.556562585756183">
        <ele>68.599998474121094</ele>
        <time>2018-12-29T13:01:32Z</time>
      </trkpt>
      <trkpt lat="41.298780385404825" lon="1.556637519970536">
        <ele>68.599998474121094</ele>
        <time>2018-12-29T13:01:34Z</time>
      </trkpt>
      <trkpt lat="41.29880846478045" lon="1.556716309860349">
        <ele>68.599998474121094</ele>
        <time>2018-12-29T13:01:36Z</time>
      </trkpt>
      <trkpt lat="41.298837717622519" lon="1.556802140548825">
        <ele>68.800003051757812</ele>
        <time>2018-12-29T13:01:38Z</time>
      </trkpt>
      <trkpt lat="41.298863785341382" lon="1.556890653446317">
        <ele>68.800003051757812</ele>
        <time>2018-12-29T13:01:40Z</time>
      </trkpt>
      <trkpt lat="41.298889182507992" lon="1.556978328153491">
        <ele>68.800003051757812</ele>
        <time>2018-12-29T13:01:42Z</time>
      </trkpt>
      <trkpt lat="41.298915753141046" lon="1.557068265974522">
        <ele>68.800003051757812</ele>
        <time>2018-12-29T13:01:44Z</time>
      </trkpt>
      <trkpt lat="41.298942910507321" lon="1.557160215452313">
        <ele>69</ele>
        <time>2018-12-29T13:01:46Z</time>
      </trkpt>
      <trkpt lat="41.298973672091961" lon="1.557251159101725">
        <ele>69.199996948242188</ele>
        <time>2018-12-29T13:01:48Z</time>
      </trkpt>
      <trkpt lat="41.299000075086951" lon="1.557339588180184">
        <ele>69.199996948242188</ele>
        <time>2018-12-29T13:01:50Z</time>
      </trkpt>
      <trkpt lat="41.299024382606149" lon="1.55742734670639">
        <ele>69.599998474121094</ele>
        <time>2018-12-29T13:01:52Z</time>
      </trkpt>
      <trkpt lat="41.299047516658902" lon="1.557514015585184">
        <ele>69.800003051757812</ele>
        <time>2018-12-29T13:01:54Z</time>
      </trkpt>
      <trkpt lat="41.299071153625846" lon="1.55760177411139">
        <ele>69.800003051757812</ele>
        <time>2018-12-29T13:01:56Z</time>
      </trkpt>
      <trkpt lat="41.299097975715995" lon="1.557689197361469">
        <ele>70</ele>
        <time>2018-12-29T13:01:58Z</time>
      </trkpt>
      <trkpt lat="41.299124378710985" lon="1.557768993079662">
        <ele>70.400001525878906</ele>
        <time>2018-12-29T13:02:00Z</time>
      </trkpt>
      <trkpt lat="41.299147931858897" lon="1.557845687493682">
        <ele>70.800003051757813</ele>
        <time>2018-12-29T13:02:02Z</time>
      </trkpt>
      <trkpt lat="41.299169976264238" lon="1.557922381907702">
        <ele>71.199996948242187</ele>
        <time>2018-12-29T13:02:04Z</time>
      </trkpt>
      <trkpt lat="41.299190931022167" lon="1.557997483760119">
        <ele>71.400001525878906</ele>
        <time>2018-12-29T13:02:06Z</time>
      </trkpt>
      <trkpt lat="41.299200067296624" lon="1.558033190667629">
        <ele>71.599998474121094</ele>
        <time>2018-12-29T13:02:07Z</time>
      </trkpt>
      <trkpt lat="41.299207946285605" lon="1.558069316670299">
        <ele>71.800003051757813</ele>
        <time>2018-12-29T13:02:08Z</time>
      </trkpt>
      <trkpt lat="41.299225380644202" lon="1.558141736313701">
        <ele>72.199996948242188</ele>
        <time>2018-12-29T13:02:10Z</time>
      </trkpt>
      <trkpt lat="41.299239043146372" lon="1.558216167613864">
        <ele>72.199996948242188</ele>
        <time>2018-12-29T13:02:12Z</time>
      </trkpt>
      <trkpt lat="41.299248598515987" lon="1.558255814015865">
        <ele>72.199996948242188</ele>
        <time>2018-12-29T13:02:13Z</time>
      </trkpt>
      <trkpt lat="41.299261590465903" lon="1.558297052979469">
        <ele>72.199996948242188</ele>
        <time>2018-12-29T13:02:14Z</time>
      </trkpt>
      <trkpt lat="41.299291597679257" lon="1.558387996628881">
        <ele>72</ele>
        <time>2018-12-29T13:02:16Z</time>
      </trkpt>
      <trkpt lat="41.299316072836518" lon="1.558478605002165">
        <ele>71.800003051757813</ele>
        <time>2018-12-29T13:02:18Z</time>
      </trkpt>
      <trkpt lat="41.299340128898621" lon="1.558573320508003">
        <ele>71.400001525878906</ele>
        <time>2018-12-29T13:02:20Z</time>
      </trkpt>
      <trkpt lat="41.299353372305632" lon="1.558657307177782">
        <ele>71.400001525878906</ele>
        <time>2018-12-29T13:02:22Z</time>
      </trkpt>
      <trkpt lat="41.299359323456883" lon="1.558686643838882">
        <ele>71.400001525878906</ele>
        <time>2018-12-29T13:02:23Z</time>
      </trkpt>
      <trkpt lat="41.299365106970072" lon="1.558715645223856">
        <ele>71.400001525878906</ele>
        <time>2018-12-29T13:02:24Z</time>
      </trkpt>
      <trkpt lat="41.299377009272575" lon="1.558778844773769">
        <ele>71.400001525878906</ele>
        <time>2018-12-29T13:02:26Z</time>
      </trkpt>
      <trkpt lat="41.299381451681256" lon="1.558854449540377">
        <ele>71.400001525878906</ele>
        <time>2018-12-29T13:02:28Z</time>
      </trkpt>
      <trkpt lat="41.299383379518986" lon="1.558887055143714">
        <ele>71.599998474121094</ele>
        <time>2018-12-29T13:02:29Z</time>
      </trkpt>
      <trkpt lat="41.299384133890271" lon="1.558909770101309">
        <ele>71.400001525878906</ele>
        <time>2018-12-29T13:02:30Z</time>
      </trkpt>
      <trkpt lat="41.299383966252208" lon="1.558994008228183">
        <ele>71.199996948242187</ele>
        <time>2018-12-29T13:02:38Z</time>
      </trkpt>
      <trkpt lat="41.299405004829168" lon="1.559049747884274">
        <ele>71.199996948242187</ele>
        <time>2018-12-29T13:02:40Z</time>
      </trkpt>
      <trkpt lat="41.299437945708632" lon="1.559112528339028">
        <ele>71</ele>
        <time>2018-12-29T13:02:42Z</time>
      </trkpt>
      <trkpt lat="41.299456553533673" lon="1.559144044294953">
        <ele>71</ele>
        <time>2018-12-29T13:02:43Z</time>
      </trkpt>
      <trkpt lat="41.299480274319649" lon="1.559170363470912">
        <ele>71</ele>
        <time>2018-12-29T13:02:44Z</time>
      </trkpt>
      <trkpt lat="41.299534924328327" lon="1.55921277590096">
        <ele>71.199996948242187</ele>
        <time>2018-12-29T13:02:46Z</time>
      </trkpt>
      <trkpt lat="41.299559650942683" lon="1.559228030964732">
        <ele>71.400001525878906</ele>
        <time>2018-12-29T13:02:47Z</time>
      </trkpt>
      <trkpt lat="41.299586640670896" lon="1.559240771457553">
        <ele>71.599998474121094</ele>
        <time>2018-12-29T13:02:48Z</time>
      </trkpt>
      <trkpt lat="41.299643386155367" lon="1.559257367625833">
        <ele>71.800003051757813</ele>
        <time>2018-12-29T13:02:50Z</time>
      </trkpt>
      <trkpt lat="41.299705412238836" lon="1.559270946308971">
        <ele>71.800003051757813</ele>
        <time>2018-12-29T13:02:52Z</time>
      </trkpt>
      <trkpt lat="41.299736173823476" lon="1.559273293241859">
        <ele>72</ele>
        <time>2018-12-29T13:02:53Z</time>
      </trkpt>
      <trkpt lat="41.299765342846513" lon="1.559274969622493">
        <ele>72.199996948242188</ele>
        <time>2018-12-29T13:02:54Z</time>
      </trkpt>
      <trkpt lat="41.299832900986075" lon="1.559281004592776">
        <ele>72.400001525878906</ele>
        <time>2018-12-29T13:02:56Z</time>
      </trkpt>
      <trkpt lat="41.299904566258192" lon="1.559287961572409">
        <ele>72.400001525878906</ele>
        <time>2018-12-29T13:02:58Z</time>
      </trkpt>
      <trkpt lat="41.299972627311945" lon="1.559288632124662">
        <ele>72.599998474121094</ele>
        <time>2018-12-29T13:03:00Z</time>
      </trkpt>
      <trkpt lat="41.300007747486234" lon="1.559291733428836">
        <ele>73</ele>
        <time>2018-12-29T13:03:01Z</time>
      </trkpt>
      <trkpt lat="41.300046220421791" lon="1.559292655438185">
        <ele>73</ele>
        <time>2018-12-29T13:03:02Z</time>
      </trkpt>
      <trkpt lat="41.300130626186728" lon="1.559290811419487">
        <ele>73.199996948242188</ele>
        <time>2018-12-29T13:03:04Z</time>
      </trkpt>
      <trkpt lat="41.300200950354338" lon="1.559288548305631">
        <ele>73.400001525878906</ele>
        <time>2018-12-29T13:03:06Z</time>
      </trkpt>
      <trkpt lat="41.30027873441577" lon="1.559290392324328">
        <ele>73.599998474121094</ele>
        <time>2018-12-29T13:03:08Z</time>
      </trkpt>
      <trkpt lat="41.300360960885882" lon="1.559290643781424">
        <ele>73.800003051757812</ele>
        <time>2018-12-29T13:03:10Z</time>
      </trkpt>
      <trkpt lat="41.300404295325279" lon="1.559289218857884">
        <ele>74</ele>
        <time>2018-12-29T13:03:11Z</time>
      </trkpt>
      <trkpt lat="41.300446204841137" lon="1.55929047614336">
        <ele>74.199996948242188</ele>
        <time>2018-12-29T13:03:12Z</time>
      </trkpt>
      <trkpt lat="41.300489036366343" lon="1.559290727600455">
        <ele>74.400001525878906</ele>
        <time>2018-12-29T13:03:13Z</time>
      </trkpt>
      <trkpt lat="41.300525330007076" lon="1.559289637953043">
        <ele>74.599998474121094</ele>
        <time>2018-12-29T13:03:14Z</time>
      </trkpt>
      <trkpt lat="41.300600683316588" lon="1.559291398152709">
        <ele>75</ele>
        <time>2018-12-29T13:03:16Z</time>
      </trkpt>
      <trkpt lat="41.300681317225099" lon="1.559291817247868">
        <ele>75.199996948242187</ele>
        <time>2018-12-29T13:03:18Z</time>
      </trkpt>
      <trkpt lat="41.300761196762323" lon="1.559293828904629">
        <ele>75.400001525878906</ele>
        <time>2018-12-29T13:03:20Z</time>
      </trkpt>
      <trkpt lat="41.300801932811737" lon="1.559293912723661">
        <ele>75.400001525878906</ele>
        <time>2018-12-29T13:03:21Z</time>
      </trkpt>
      <trkpt lat="41.300842668861151" lon="1.559295253828168">
        <ele>75.599998474121094</ele>
        <time>2018-12-29T13:03:22Z</time>
      </trkpt>
      <trkpt lat="41.300919950008392" lon="1.559295421466231">
        <ele>75.800003051757813</ele>
        <time>2018-12-29T13:03:24Z</time>
      </trkpt>
      <trkpt lat="41.300958758220077" lon="1.559294583275914">
        <ele>76</ele>
        <time>2018-12-29T13:03:25Z</time>
      </trkpt>
      <trkpt lat="41.300996812060475" lon="1.559294247999787">
        <ele>76.199996948242188</ele>
        <time>2018-12-29T13:03:26Z</time>
      </trkpt>
      <trkpt lat="41.301073841750622" lon="1.559287626296282">
        <ele>76.400001525878906</ele>
        <time>2018-12-29T13:03:28Z</time>
      </trkpt>
      <trkpt lat="41.301150200888515" lon="1.559281256049871">
        <ele>76.599998474121094</ele>
        <time>2018-12-29T13:03:30Z</time>
      </trkpt>
      <trkpt lat="41.301191104575992" lon="1.559277148917317">
        <ele>76.800003051757813</ele>
        <time>2018-12-29T13:03:31Z</time>
      </trkpt>
      <trkpt lat="41.301231002435088" lon="1.55927924439311">
        <ele>77</ele>
        <time>2018-12-29T13:03:32Z</time>
      </trkpt>
      <trkpt lat="41.301306523382664" lon="1.559282345697284">
        <ele>77.199996948242188</ele>
        <time>2018-12-29T13:03:34Z</time>
      </trkpt>
      <trkpt lat="41.301372908055782" lon="1.559283267706633">
        <ele>77.400001525878906</ele>
        <time>2018-12-29T13:03:36Z</time>
      </trkpt>
      <trkpt lat="41.301439544185996" lon="1.559286033734679">
        <ele>77.599998474121094</ele>
        <time>2018-12-29T13:03:38Z</time>
      </trkpt>
      <trkpt lat="41.301508191972971" lon="1.559283100068569">
        <ele>78</ele>
        <time>2018-12-29T13:03:40Z</time>
      </trkpt>
      <trkpt lat="41.301582371816039" lon="1.559287207201123">
        <ele>78.199996948242188</ele>
        <time>2018-12-29T13:03:42Z</time>
      </trkpt>
      <trkpt lat="41.301655042916536" lon="1.559301540255547">
        <ele>78.599998474121094</ele>
        <time>2018-12-29T13:03:44Z</time>
      </trkpt>
      <trkpt lat="41.301721343770623" lon="1.559302462264895">
        <ele>78.800003051757813</ele>
        <time>2018-12-29T13:03:46Z</time>
      </trkpt>
      <trkpt lat="41.301753111183643" lon="1.559300450608134">
        <ele>79</ele>
        <time>2018-12-29T13:03:47Z</time>
      </trkpt>
      <trkpt lat="41.301785968244076" lon="1.559295505285263">
        <ele>79.199996948242187</ele>
        <time>2018-12-29T13:03:48Z</time>
      </trkpt>
      <trkpt lat="41.301818490028381" lon="1.559290643781424">
        <ele>79.400001525878906</ele>
        <time>2018-12-29T13:03:49Z</time>
      </trkpt>
      <trkpt lat="41.301851598545909" lon="1.559284776449204">
        <ele>79.599998474121094</ele>
        <time>2018-12-29T13:03:50Z</time>
      </trkpt>
      <trkpt lat="41.301920749247074" lon="1.55926214531064">
        <ele>79.800003051757813</ele>
        <time>2018-12-29T13:03:52Z</time>
      </trkpt>
      <trkpt lat="41.301985457539558" lon="1.559233227744699">
        <ele>80.199996948242188</ele>
        <time>2018-12-29T13:03:54Z</time>
      </trkpt>
      <trkpt lat="41.302047735080123" lon="1.559202969074249">
        <ele>80.199996948242188</ele>
        <time>2018-12-29T13:03:56Z</time>
      </trkpt>
      <trkpt lat="41.302104648202658" lon="1.55916441231966">
        <ele>80.199996948242188</ele>
        <time>2018-12-29T13:03:58Z</time>
      </trkpt>
      <trkpt lat="41.302131889387965" lon="1.559143792837858">
        <ele>80.400001525878906</ele>
        <time>2018-12-29T13:03:59Z</time>
      </trkpt>
      <trkpt lat="41.302161896601319" lon="1.559122083708644">
        <ele>80.599998474121094</ele>
        <time>2018-12-29T13:04:00Z</time>
      </trkpt>
      <trkpt lat="41.302224257960916" lon="1.559072798117995">
        <ele>80.800003051757813</ele>
        <time>2018-12-29T13:04:02Z</time>
      </trkpt>
      <trkpt lat="41.30228653550148" lon="1.559016052633524">
        <ele>81</ele>
        <time>2018-12-29T13:04:04Z</time>
      </trkpt>
      <trkpt lat="41.302350489422679" lon="1.558959223330021">
        <ele>81.199996948242188</ele>
        <time>2018-12-29T13:04:06Z</time>
      </trkpt>
      <trkpt lat="41.302412264049053" lon="1.55890105292201">
        <ele>81.400001525878906</ele>
        <time>2018-12-29T13:04:08Z</time>
      </trkpt>
      <trkpt lat="41.302477810531855" lon="1.558852437883616">
        <ele>81.599998474121094</ele>
        <time>2018-12-29T13:04:10Z</time>
      </trkpt>
      <trkpt lat="41.302547296509147" lon="1.558820335194469">
        <ele>81.599998474121094</ele>
        <time>2018-12-29T13:04:12Z</time>
      </trkpt>
      <trkpt lat="41.302623655647039" lon="1.558828046545386">
        <ele>81.800003051757812</ele>
        <time>2018-12-29T13:04:14Z</time>
      </trkpt>
      <trkpt lat="41.302658021450043" lon="1.558855874463916">
        <ele>82.199996948242188</ele>
        <time>2018-12-29T13:04:15Z</time>
      </trkpt>
      <trkpt lat="41.302686603739858" lon="1.558894263580442">
        <ele>82.199996948242188</ele>
        <time>2018-12-29T13:04:16Z</time>
      </trkpt>
      <trkpt lat="41.302733290940523" lon="1.558981351554394">
        <ele>82.199996948242188</ele>
        <time>2018-12-29T13:04:18Z</time>
      </trkpt>
      <trkpt lat="41.302780564874411" lon="1.55907497741282">
        <ele>82</ele>
        <time>2018-12-29T13:04:20Z</time>
      </trkpt>
      <trkpt lat="41.302831023931503" lon="1.559172878041863">
        <ele>82</ele>
        <time>2018-12-29T13:04:22Z</time>
      </trkpt>
      <trkpt lat="41.302890367805958" lon="1.559279914945364">
        <ele>81.800003051757812</ele>
        <time>2018-12-29T13:04:24Z</time>
      </trkpt>
      <trkpt lat="41.302951304242015" lon="1.559392903000116">
        <ele>81.800003051757812</ele>
        <time>2018-12-29T13:04:26Z</time>
      </trkpt>
      <trkpt lat="41.302981059998274" lon="1.559449480846524">
        <ele>81.800003051757812</ele>
        <time>2018-12-29T13:04:27Z</time>
      </trkpt>
      <trkpt lat="41.303009977564216" lon="1.559507735073566">
        <ele>81.599998474121094</ele>
        <time>2018-12-29T13:04:28Z</time>
      </trkpt>
      <trkpt lat="41.303070494905114" lon="1.559626255184412">
        <ele>81.400001525878906</ele>
        <time>2018-12-29T13:04:30Z</time>
      </trkpt>
      <trkpt lat="41.303134616464376" lon="1.559746535494924">
        <ele>81</ele>
        <time>2018-12-29T13:04:32Z</time>
      </trkpt>
      <trkpt lat="41.303201839327812" lon="1.559865223243833">
        <ele>81</ele>
        <time>2018-12-29T13:04:34Z</time>
      </trkpt>
      <trkpt lat="41.303235534578562" lon="1.559923980385065">
        <ele>81</ele>
        <time>2018-12-29T13:04:35Z</time>
      </trkpt>
      <trkpt lat="41.303267804905772" lon="1.559982737526298">
        <ele>81</ele>
        <time>2018-12-29T13:04:36Z</time>
      </trkpt>
      <trkpt lat="41.30333217792213" lon="1.560096815228462">
        <ele>80.800003051757813</ele>
        <time>2018-12-29T13:04:38Z</time>
      </trkpt>
      <trkpt lat="41.303393114358187" lon="1.560212317854166">
        <ele>80.800003051757813</ele>
        <time>2018-12-29T13:04:40Z</time>
      </trkpt>
      <trkpt lat="41.303457319736481" lon="1.560331759974361">
        <ele>81</ele>
        <time>2018-12-29T13:04:42Z</time>
      </trkpt>
      <trkpt lat="41.303492523729801" lon="1.560391271486878">
        <ele>81</ele>
        <time>2018-12-29T13:04:43Z</time>
      </trkpt>
      <trkpt lat="41.303528817370534" lon="1.560452124103904">
        <ele>80.800003051757813</ele>
        <time>2018-12-29T13:04:44Z</time>
      </trkpt>
      <trkpt lat="41.303604170680046" lon="1.560577098280191">
        <ele>80.599998474121094</ele>
        <time>2018-12-29T13:04:46Z</time>
      </trkpt>
      <trkpt lat="41.303640464320779" lon="1.560640968382359">
        <ele>80.400001525878906</ele>
        <time>2018-12-29T13:04:47Z</time>
      </trkpt>
      <trkpt lat="41.303675584495068" lon="1.56070358119905">
        <ele>80.199996948242188</ele>
        <time>2018-12-29T13:04:48Z</time>
      </trkpt>
      <trkpt lat="41.303746663033962" lon="1.560831405222416">
        <ele>80.199996948242188</ele>
        <time>2018-12-29T13:04:50Z</time>
      </trkpt>
      <trkpt lat="41.303815646097064" lon="1.560967862606049">
        <ele>80</ele>
        <time>2018-12-29T13:04:52Z</time>
      </trkpt>
      <trkpt lat="41.303881863132119" lon="1.561103900894523">
        <ele>79.599998474121094</ele>
        <time>2018-12-29T13:04:54Z</time>
      </trkpt>
      <trkpt lat="41.303941207006574" lon="1.561246141791344">
        <ele>79.599998474121094</ele>
        <time>2018-12-29T13:04:56Z</time>
      </trkpt>
      <trkpt lat="41.303965849801898" lon="1.561323506757617">
        <ele>79.800003051757813</ele>
        <time>2018-12-29T13:04:57Z</time>
      </trkpt>
      <trkpt lat="41.303984457626939" lon="1.561405565589666">
        <ele>79.599998474121094</ele>
        <time>2018-12-29T13:04:58Z</time>
      </trkpt>
      <trkpt lat="41.304002143442631" lon="1.561573706567287">
        <ele>79.400001525878906</ele>
        <time>2018-12-29T13:05:00Z</time>
      </trkpt>
      <trkpt lat="41.304006418213248" lon="1.561744948849082">
        <ele>79</ele>
        <time>2018-12-29T13:05:02Z</time>
      </trkpt>
      <trkpt lat="41.304007088765502" lon="1.56183086335659">
        <ele>79</ele>
        <time>2018-12-29T13:05:03Z</time>
      </trkpt>
      <trkpt lat="41.304005244746804" lon="1.561914766207337">
        <ele>79</ele>
        <time>2018-12-29T13:05:04Z</time>
      </trkpt>
      <trkpt lat="41.304006334394217" lon="1.562085254117847">
        <ele>78.599998474121094</ele>
        <time>2018-12-29T13:05:06Z</time>
      </trkpt>
      <trkpt lat="41.304017482325435" lon="1.562249204143882">
        <ele>78.800003051757813</ele>
        <time>2018-12-29T13:05:08Z</time>
      </trkpt>
      <trkpt lat="41.304028043523431" lon="1.562323803082109">
        <ele>79</ele>
        <time>2018-12-29T13:05:09Z</time>
      </trkpt>
      <trkpt lat="41.304042125120759" lon="1.562396725639701">
        <ele>78.599998474121094</ele>
        <time>2018-12-29T13:05:10Z</time>
      </trkpt>
      <trkpt lat="41.30408026278019" lon="1.562544330954552">
        <ele>78.199996948242188</ele>
        <time>2018-12-29T13:05:12Z</time>
      </trkpt>
      <trkpt lat="41.304104067385197" lon="1.562616918236017">
        <ele>78</ele>
        <time>2018-12-29T13:05:13Z</time>
      </trkpt>
      <trkpt lat="41.304131811484694" lon="1.562688248232007">
        <ele>77.800003051757812</ele>
        <time>2018-12-29T13:05:14Z</time>
      </trkpt>
      <trkpt lat="41.304165339097381" lon="1.562756644561887">
        <ele>77.599998474121094</ele>
        <time>2018-12-29T13:05:15Z</time>
      </trkpt>
      <trkpt lat="41.304205320775509" lon="1.562820179387927">
        <ele>77.599998474121094</ele>
        <time>2018-12-29T13:05:16Z</time>
      </trkpt>
      <trkpt lat="41.304302047938108" lon="1.562932999804616">
        <ele>77.400001525878906</ele>
        <time>2018-12-29T13:05:18Z</time>
      </trkpt>
      <trkpt lat="41.304357703775167" lon="1.562982620671392">
        <ele>77.199996948242188</ele>
        <time>2018-12-29T13:05:19Z</time>
      </trkpt>
      <trkpt lat="41.304418304935098" lon="1.563016567379236">
        <ele>77</ele>
        <time>2018-12-29T13:05:20Z</time>
      </trkpt>
      <trkpt lat="41.304546631872654" lon="1.563065517693758">
        <ele>76.800003051757813</ele>
        <time>2018-12-29T13:05:22Z</time>
      </trkpt>
      <trkpt lat="41.304613519459963" lon="1.563090411946178">
        <ele>76.599998474121094</ele>
        <time>2018-12-29T13:05:23Z</time>
      </trkpt>
      <trkpt lat="41.304680909961462" lon="1.563114216551185">
        <ele>76.599998474121094</ele>
        <time>2018-12-29T13:05:24Z</time>
      </trkpt>
      <trkpt lat="41.304817451164126" lon="1.563169034197927">
        <ele>75.800003051757813</ele>
        <time>2018-12-29T13:05:26Z</time>
      </trkpt>
      <trkpt lat="41.304957009851933" lon="1.563228126615286">
        <ele>75</ele>
        <time>2018-12-29T13:05:28Z</time>
      </trkpt>
      <trkpt lat="41.305030351504683" lon="1.56325570307672">
        <ele>74.599998474121094</ele>
        <time>2018-12-29T13:05:29Z</time>
      </trkpt>
      <trkpt lat="41.30510251969099" lon="1.563281686976552">
        <ele>74.599998474121094</ele>
        <time>2018-12-29T13:05:30Z</time>
      </trkpt>
      <trkpt lat="41.305248532444239" lon="1.563329044729471">
        <ele>74.400001525878906</ele>
        <time>2018-12-29T13:05:32Z</time>
      </trkpt>
      <trkpt lat="41.305390354245901" lon="1.563379252329469">
        <ele>74.199996948242188</ele>
        <time>2018-12-29T13:05:34Z</time>
      </trkpt>
      <trkpt lat="41.305534020066261" lon="1.56342719681561">
        <ele>73.800003051757812</ele>
        <time>2018-12-29T13:05:36Z</time>
      </trkpt>
      <trkpt lat="41.305676763877273" lon="1.563467094674707">
        <ele>74</ele>
        <time>2018-12-29T13:05:38Z</time>
      </trkpt>
      <trkpt lat="41.305811209604144" lon="1.563532389700413">
        <ele>74.199996948242188</ele>
        <time>2018-12-29T13:05:40Z</time>
      </trkpt>
      <trkpt lat="41.305871391668916" lon="1.56358159147203">
        <ele>74.199996948242188</ele>
        <time>2018-12-29T13:05:41Z</time>
      </trkpt>
      <trkpt lat="41.305928220972419" lon="1.563638085499406">
        <ele>74</ele>
        <time>2018-12-29T13:05:42Z</time>
      </trkpt>
      <trkpt lat="41.306041125208139" lon="1.563761550933123">
        <ele>73.800003051757812</ele>
        <time>2018-12-29T13:05:44Z</time>
      </trkpt>
      <trkpt lat="41.306144641712308" lon="1.563895661383867">
        <ele>73</ele>
        <time>2018-12-29T13:05:46Z</time>
      </trkpt>
      <trkpt lat="41.306195184588432" lon="1.563963806256652">
        <ele>73</ele>
        <time>2018-12-29T13:05:47Z</time>
      </trkpt>
      <trkpt lat="41.306244553998113" lon="1.564032873138785">
        <ele>73.199996948242188</ele>
        <time>2018-12-29T13:05:48Z</time>
      </trkpt>
      <trkpt lat="41.306338934227824" lon="1.564166313037276">
        <ele>74</ele>
        <time>2018-12-29T13:05:50Z</time>
      </trkpt>
      <trkpt lat="41.306380843743682" lon="1.564229344949126">
        <ele>74.199996948242188</ele>
        <time>2018-12-29T13:05:51Z</time>
      </trkpt>
      <trkpt lat="41.306417221203446" lon="1.564291119575501">
        <ele>74.800003051757813</ele>
        <time>2018-12-29T13:05:52Z</time>
      </trkpt>
      <trkpt lat="41.306451084092259" lon="1.56434778124094">
        <ele>75.400001525878906</ele>
        <time>2018-12-29T13:05:53Z</time>
      </trkpt>
      <trkpt lat="41.306485701352358" lon="1.564397569745779">
        <ele>75.800003051757813</ele>
        <time>2018-12-29T13:05:54Z</time>
      </trkpt>
      <trkpt lat="41.306551331654191" lon="1.564475521445274">
        <ele>76.199996948242188</ele>
        <time>2018-12-29T13:05:56Z</time>
      </trkpt>
      <trkpt lat="41.306585110723972" lon="1.564507707953453">
        <ele>76.400001525878906</ele>
        <time>2018-12-29T13:05:57Z</time>
      </trkpt>
      <trkpt lat="41.306619476526976" lon="1.564534697681665">
        <ele>76.800003051757813</ele>
        <time>2018-12-29T13:05:58Z</time>
      </trkpt>
      <trkpt lat="41.306691393256187" lon="1.564587587490678">
        <ele>77.400001525878906</ele>
        <time>2018-12-29T13:06:00Z</time>
      </trkpt>
      <trkpt lat="41.306768674403429" lon="1.564629832282662">
        <ele>77.599998474121094</ele>
        <time>2018-12-29T13:06:02Z</time>
      </trkpt>
      <trkpt lat="41.30680974572897" lon="1.564642321318388">
        <ele>77.599998474121094</ele>
        <time>2018-12-29T13:06:03Z</time>
      </trkpt>
      <trkpt lat="41.306852074339986" lon="1.564652798697352">
        <ele>77.800003051757812</ele>
        <time>2018-12-29T13:06:04Z</time>
      </trkpt>
      <trkpt lat="41.306943017989397" lon="1.564669981598854">
        <ele>78.400001525878906</ele>
        <time>2018-12-29T13:06:06Z</time>
      </trkpt>
      <trkpt lat="41.307041924446821" lon="1.564682805910707">
        <ele>78.599998474121094</ele>
        <time>2018-12-29T13:06:08Z</time>
      </trkpt>
      <trkpt lat="41.307146949693561" lon="1.564685152843595">
        <ele>78.599998474121094</ele>
        <time>2018-12-29T13:06:10Z</time>
      </trkpt>
      <trkpt lat="41.307202270254493" lon="1.564688589423895">
        <ele>78.599998474121094</ele>
        <time>2018-12-29T13:06:11Z</time>
      </trkpt>
      <trkpt lat="41.307257087901235" lon="1.564700240269303">
        <ele>78.400001525878906</ele>
        <time>2018-12-29T13:06:12Z</time>
      </trkpt>
      <trkpt lat="41.307369908317924" lon="1.564736953005195">
        <ele>78</ele>
        <time>2018-12-29T13:06:14Z</time>
      </trkpt>
      <trkpt lat="41.307427156716585" lon="1.564768385142088">
        <ele>78</ele>
        <time>2018-12-29T13:06:15Z</time>
      </trkpt>
      <trkpt lat="41.307480381801724" lon="1.56480903737247">
        <ele>77.800003051757812</ele>
        <time>2018-12-29T13:06:16Z</time>
      </trkpt>
      <trkpt lat="41.307573840022087" lon="1.564920181408525">
        <ele>77.199996948242188</ele>
        <time>2018-12-29T13:06:18Z</time>
      </trkpt>
      <trkpt lat="41.307644164189696" lon="1.565056722611189">
        <ele>77.400001525878906</ele>
        <time>2018-12-29T13:06:20Z</time>
      </trkpt>
      <trkpt lat="41.307673584669828" lon="1.565132327377796">
        <ele>77.400001525878906</ele>
        <time>2018-12-29T13:06:21Z</time>
      </trkpt>
      <trkpt lat="41.307703088968992" lon="1.565209440886974">
        <ele>77.400001525878906</ele>
        <time>2018-12-29T13:06:22Z</time>
      </trkpt>
      <trkpt lat="41.307758912444115" lon="1.565356878563762">
        <ele>77.199996948242188</ele>
        <time>2018-12-29T13:06:24Z</time>
      </trkpt>
      <trkpt lat="41.307814903557301" lon="1.565500209107995">
        <ele>77.199996948242188</ele>
        <time>2018-12-29T13:06:26Z</time>
      </trkpt>
      <trkpt lat="41.307874331250787" lon="1.565637672320008">
        <ele>77.400001525878906</ele>
        <time>2018-12-29T13:06:28Z</time>
      </trkpt>
      <trkpt lat="41.3079306576401" lon="1.565769016742706">
        <ele>77.599998474121094</ele>
        <time>2018-12-29T13:06:30Z</time>
      </trkpt>
      <trkpt lat="41.30798103287816" lon="1.565893404185772">
        <ele>78</ele>
        <time>2018-12-29T13:06:32Z</time>
      </trkpt>
      <trkpt lat="41.308000311255455" lon="1.565958615392447">
        <ele>78.400001525878906</ele>
        <time>2018-12-29T13:06:33Z</time>
      </trkpt>
      <trkpt lat="41.308012632653117" lon="1.566023575142026">
        <ele>78.400001525878906</ele>
        <time>2018-12-29T13:06:34Z</time>
      </trkpt>
      <trkpt lat="41.308027552440763" lon="1.566155171021819">
        <ele>78.800003051757813</ele>
        <time>2018-12-29T13:06:36Z</time>
      </trkpt>
      <trkpt lat="41.308027552440763" lon="1.566284839063883">
        <ele>79.400001525878906</ele>
        <time>2018-12-29T13:06:38Z</time>
      </trkpt>
      <trkpt lat="41.308009782806039" lon="1.566410567611456">
        <ele>80</ele>
        <time>2018-12-29T13:06:40Z</time>
      </trkpt>
      <trkpt lat="41.307984804734588" lon="1.566537469625473">
        <ele>80.199996948242188</ele>
        <time>2018-12-29T13:06:42Z</time>
      </trkpt>
      <trkpt lat="41.307959742844105" lon="1.56666680239141">
        <ele>80.599998474121094</ele>
        <time>2018-12-29T13:06:44Z</time>
      </trkpt>
      <trkpt lat="41.30793116055429" lon="1.566795632243156">
        <ele>80.800003051757813</ele>
        <time>2018-12-29T13:06:46Z</time>
      </trkpt>
      <trkpt lat="41.307914732024074" lon="1.56685983762145">
        <ele>81.199996948242188</ele>
        <time>2018-12-29T13:06:47Z</time>
      </trkpt>
      <trkpt lat="41.307897046208382" lon="1.566923623904586">
        <ele>81.400001525878906</ele>
        <time>2018-12-29T13:06:48Z</time>
      </trkpt>
      <trkpt lat="41.307877767831087" lon="1.566984308883548">
        <ele>81.800003051757812</ele>
        <time>2018-12-29T13:06:49Z</time>
      </trkpt>
      <trkpt lat="41.307855136692524" lon="1.567041557282209">
        <ele>82</ele>
        <time>2018-12-29T13:06:50Z</time>
      </trkpt>
      <trkpt lat="41.307829990983009" lon="1.567094698548317">
        <ele>82.400001525878906</ele>
        <time>2018-12-29T13:06:51Z</time>
      </trkpt>
      <trkpt lat="41.307800486683846" lon="1.567144738510251">
        <ele>82.599998474121094</ele>
        <time>2018-12-29T13:06:52Z</time>
      </trkpt>
      <trkpt lat="41.307739969342947" lon="1.567239621654153">
        <ele>83</ele>
        <time>2018-12-29T13:06:54Z</time>
      </trkpt>
      <trkpt lat="41.307682385668159" lon="1.567328134551644">
        <ele>83.599998474121094</ele>
        <time>2018-12-29T13:06:56Z</time>
      </trkpt>
      <trkpt lat="41.307629495859146" lon="1.567413881421089">
        <ele>84</ele>
        <time>2018-12-29T13:06:58Z</time>
      </trkpt>
      <trkpt lat="41.307582976296544" lon="1.567502478137612">
        <ele>84.400001525878906</ele>
        <time>2018-12-29T13:07:00Z</time>
      </trkpt>
      <trkpt lat="41.307562189176679" lon="1.567548494786024">
        <ele>84.800003051757813</ele>
        <time>2018-12-29T13:07:01Z</time>
      </trkpt>
      <trkpt lat="41.30754467099905" lon="1.567594846710563">
        <ele>85.199996948242188</ele>
        <time>2018-12-29T13:07:02Z</time>
      </trkpt>
      <trkpt lat="41.307526230812073" lon="1.567688807845116">
        <ele>85.599998474121094</ele>
        <time>2018-12-29T13:07:04Z</time>
      </trkpt>
      <trkpt lat="41.307523129507899" lon="1.567734237760305">
        <ele>85.800003051757812</ele>
        <time>2018-12-29T13:07:05Z</time>
      </trkpt>
      <trkpt lat="41.307524889707565" lon="1.567777656018734">
        <ele>86.199996948242188</ele>
        <time>2018-12-29T13:07:06Z</time>
      </trkpt>
      <trkpt lat="41.307540563866496" lon="1.567861139774323">
        <ele>86.400001525878906</ele>
        <time>2018-12-29T13:07:08Z</time>
      </trkpt>
      <trkpt lat="41.30756126716733" lon="1.567946216091514">
        <ele>86.800003051757813</ele>
        <time>2018-12-29T13:07:10Z</time>
      </trkpt>
      <trkpt lat="41.307584568858147" lon="1.568033639341593">
        <ele>86.800003051757813</ele>
        <time>2018-12-29T13:07:12Z</time>
      </trkpt>
      <trkpt lat="41.307602003216743" lon="1.568078733980656">
        <ele>86.800003051757813</ele>
        <time>2018-12-29T13:07:13Z</time>
      </trkpt>
      <trkpt lat="41.307622119784355" lon="1.568126259371638">
        <ele>86.800003051757813</ele>
        <time>2018-12-29T13:07:14Z</time>
      </trkpt>
      <trkpt lat="41.307650534436107" lon="1.568176299333572">
        <ele>86.599998474121094</ele>
        <time>2018-12-29T13:07:15Z</time>
      </trkpt>
      <trkpt lat="41.307678278535604" lon="1.568227848038077">
        <ele>86.199996948242188</ele>
        <time>2018-12-29T13:07:16Z</time>
      </trkpt>
      <trkpt lat="41.307746423408389" lon="1.568336896598339">
        <ele>85.400001525878906</ele>
        <time>2018-12-29T13:07:18Z</time>
      </trkpt>
      <trkpt lat="41.307833595201373" lon="1.56844980083406">
        <ele>84.400001525878906</ele>
        <time>2018-12-29T13:07:20Z</time>
      </trkpt>
      <trkpt lat="41.307927388697863" lon="1.568580893799663">
        <ele>83.599998474121094</ele>
        <time>2018-12-29T13:07:22Z</time>
      </trkpt>
      <trkpt lat="41.30797809921205" lon="1.568649876862764">
        <ele>83.199996948242187</ele>
        <time>2018-12-29T13:07:23Z</time>
      </trkpt>
      <trkpt lat="41.308030569925904" lon="1.568721374496818">
        <ele>82.800003051757813</ele>
        <time>2018-12-29T13:07:24Z</time>
      </trkpt>
      <trkpt lat="41.308144396170974" lon="1.568864788860083">
        <ele>81.400001525878906</ele>
        <time>2018-12-29T13:07:26Z</time>
      </trkpt>
      <trkpt lat="41.308271801099181" lon="1.569000240415335">
        <ele>80.199996948242188</ele>
        <time>2018-12-29T13:07:28Z</time>
      </trkpt>
      <trkpt lat="41.308341873809695" lon="1.569059751927853">
        <ele>79.800003051757813</ele>
        <time>2018-12-29T13:07:29Z</time>
      </trkpt>
      <trkpt lat="41.308418400585651" lon="1.569113731384277">
        <ele>79.800003051757813</ele>
        <time>2018-12-29T13:07:30Z</time>
      </trkpt>
      <trkpt lat="41.308500543236732" lon="1.569162514060736">
        <ele>79</ele>
        <time>2018-12-29T13:07:31Z</time>
      </trkpt>
      <trkpt lat="41.308583188802004" lon="1.569210458546877">
        <ele>78.199996948242188</ele>
        <time>2018-12-29T13:07:32Z</time>
      </trkpt>
      <trkpt lat="41.308664241805673" lon="1.569255804643035">
        <ele>77.599998474121094</ele>
        <time>2018-12-29T13:07:33Z</time>
      </trkpt>
      <trkpt lat="41.308741942048073" lon="1.569301150739193">
        <ele>77.199996948242188</ele>
        <time>2018-12-29T13:07:34Z</time>
      </trkpt>
      <trkpt lat="41.308896420523524" lon="1.569392262026668">
        <ele>77.199996948242188</ele>
        <time>2018-12-29T13:07:36Z</time>
      </trkpt>
      <trkpt lat="41.309030698612332" lon="1.569491336122155">
        <ele>77.400001525878906</ele>
        <time>2018-12-29T13:07:38Z</time>
      </trkpt>
      <trkpt lat="41.309090880677104" lon="1.5695546194911">
        <ele>77.800003051757812</ele>
        <time>2018-12-29T13:07:39Z</time>
      </trkpt>
      <trkpt lat="41.309141675010324" lon="1.569629721343517">
        <ele>78</ele>
        <time>2018-12-29T13:07:40Z</time>
      </trkpt>
      <trkpt lat="41.309216441586614" lon="1.569799706339836">
        <ele>77.800003051757812</ele>
        <time>2018-12-29T13:07:42Z</time>
      </trkpt>
      <trkpt lat="41.309268157929182" lon="1.569968517869711">
        <ele>77.800003051757812</ele>
        <time>2018-12-29T13:07:44Z</time>
      </trkpt>
      <trkpt lat="41.309311660006642" lon="1.570140011608601">
        <ele>78.400001525878906</ele>
        <time>2018-12-29T13:07:46Z</time>
      </trkpt>
      <trkpt lat="41.309351222589612" lon="1.570300692692399">
        <ele>78.800003051757813</ele>
        <time>2018-12-29T13:07:48Z</time>
      </trkpt>
      <trkpt lat="41.309392629191279" lon="1.570448549464345">
        <ele>79.599998474121094</ele>
        <time>2018-12-29T13:07:50Z</time>
      </trkpt>
      <trkpt lat="41.309411069378257" lon="1.570518538355827">
        <ele>80.199996948242188</ele>
        <time>2018-12-29T13:07:51Z</time>
      </trkpt>
      <trkpt lat="41.309429341927171" lon="1.570586850866675">
        <ele>80.599998474121094</ele>
        <time>2018-12-29T13:07:52Z</time>
      </trkpt>
      <trkpt lat="41.309471419081092" lon="1.570712244138122">
        <ele>81.400001525878906</ele>
        <time>2018-12-29T13:07:54Z</time>
      </trkpt>
      <trkpt lat="41.309505449607968" lon="1.570833949372172">
        <ele>81.800003051757812</ele>
        <time>2018-12-29T13:07:56Z</time>
      </trkpt>
      <trkpt lat="41.309539563953876" lon="1.570953894406557">
        <ele>82.400001525878906</ele>
        <time>2018-12-29T13:07:58Z</time>
      </trkpt>
      <trkpt lat="41.309573175385594" lon="1.571071408689022">
        <ele>82.800003051757813</ele>
        <time>2018-12-29T13:08:00Z</time>
      </trkpt>
      <trkpt lat="41.309606367722154" lon="1.57119051553309">
        <ele>83.199996948242187</ele>
        <time>2018-12-29T13:08:02Z</time>
      </trkpt>
      <trkpt lat="41.309624388813972" lon="1.571248937398195">
        <ele>83.400001525878906</ele>
        <time>2018-12-29T13:08:03Z</time>
      </trkpt>
      <trkpt lat="41.309643667191267" lon="1.571307443082333">
        <ele>83.599998474121094</ele>
        <time>2018-12-29T13:08:04Z</time>
      </trkpt>
      <trkpt lat="41.309680379927158" lon="1.57142118550837">
        <ele>84</ele>
        <time>2018-12-29T13:08:06Z</time>
      </trkpt>
      <trkpt lat="41.309699909761548" lon="1.571479020640254">
        <ele>84.199996948242188</ele>
        <time>2018-12-29T13:08:07Z</time>
      </trkpt>
      <trkpt lat="41.309716841205955" lon="1.571536352857947">
        <ele>84.400001525878906</ele>
        <time>2018-12-29T13:08:08Z</time>
      </trkpt>
      <trkpt lat="41.309731844812632" lon="1.571593852713704">
        <ele>84.599998474121094</ele>
        <time>2018-12-29T13:08:09Z</time>
      </trkpt>
      <trkpt lat="41.309747602790594" lon="1.571652945131064">
        <ele>84.800003051757813</ele>
        <time>2018-12-29T13:08:10Z</time>
      </trkpt>
      <trkpt lat="41.309779034927487" lon="1.571769788861275">
        <ele>85</ele>
        <time>2018-12-29T13:08:12Z</time>
      </trkpt>
      <trkpt lat="41.309814658015966" lon="1.571889817714691">
        <ele>85</ele>
        <time>2018-12-29T13:08:14Z</time>
      </trkpt>
      <trkpt lat="41.309853214770555" lon="1.572005990892649">
        <ele>85.400001525878906</ele>
        <time>2018-12-29T13:08:16Z</time>
      </trkpt>
      <trkpt lat="41.309891771525145" lon="1.572124008089304">
        <ele>85.599998474121094</ele>
        <time>2018-12-29T13:08:18Z</time>
      </trkpt>
      <trkpt lat="41.309909960255027" lon="1.572182094678283">
        <ele>85.800003051757812</ele>
        <time>2018-12-29T13:08:19Z</time>
      </trkpt>
      <trkpt lat="41.309927394613624" lon="1.572241773828864">
        <ele>86</ele>
        <time>2018-12-29T13:08:20Z</time>
      </trkpt>
      <trkpt lat="41.30996435880661" lon="1.572361551225185">
        <ele>86.199996948242188</ele>
        <time>2018-12-29T13:08:22Z</time>
      </trkpt>
      <trkpt lat="41.310001071542501" lon="1.572484849020839">
        <ele>86.400001525878906</ele>
        <time>2018-12-29T13:08:24Z</time>
      </trkpt>
      <trkpt lat="41.310036946088076" lon="1.572609655559063">
        <ele>86.599998474121094</ele>
        <time>2018-12-29T13:08:26Z</time>
      </trkpt>
      <trkpt lat="41.310056559741497" lon="1.572671262547374">
        <ele>86.800003051757813</ele>
        <time>2018-12-29T13:08:27Z</time>
      </trkpt>
      <trkpt lat="41.310076341032982" lon="1.572734210640192">
        <ele>86.800003051757813</ele>
        <time>2018-12-29T13:08:28Z</time>
      </trkpt>
      <trkpt lat="41.310113137587905" lon="1.572855664417148">
        <ele>87</ele>
        <time>2018-12-29T13:08:30Z</time>
      </trkpt>
      <trkpt lat="41.310150101780891" lon="1.572981476783752">
        <ele>87</ele>
        <time>2018-12-29T13:08:32Z</time>
      </trkpt>
      <trkpt lat="41.310194609686732" lon="1.573104271665216">
        <ele>87</ele>
        <time>2018-12-29T13:08:34Z</time>
      </trkpt>
      <trkpt lat="41.310220761224627" lon="1.57316411845386">
        <ele>87</ele>
        <time>2018-12-29T13:08:35Z</time>
      </trkpt>
      <trkpt lat="41.310248337686062" lon="1.573224635794759">
        <ele>87</ele>
        <time>2018-12-29T13:08:36Z</time>
      </trkpt>
      <trkpt lat="41.310304496437311" lon="1.573350615799427">
        <ele>86.599998474121094</ele>
        <time>2018-12-29T13:08:38Z</time>
      </trkpt>
      <trkpt lat="41.310358811169863" lon="1.573479780927301">
        <ele>86.800003051757813</ele>
        <time>2018-12-29T13:08:40Z</time>
      </trkpt>
      <trkpt lat="41.310412455350161" lon="1.573613556101918">
        <ele>86.800003051757813</ele>
        <time>2018-12-29T13:08:42Z</time>
      </trkpt>
      <trkpt lat="41.310470374301076" lon="1.57375194132328">
        <ele>86.800003051757813</ele>
        <time>2018-12-29T13:08:44Z</time>
      </trkpt>
      <trkpt lat="41.310531394556165" lon="1.573886889964342">
        <ele>86.800003051757813</ele>
        <time>2018-12-29T13:08:46Z</time>
      </trkpt>
      <trkpt lat="41.310591744259" lon="1.57402602955699">
        <ele>86.599998474121094</ele>
        <time>2018-12-29T13:08:48Z</time>
      </trkpt>
      <trkpt lat="41.310653183609247" lon="1.574165504425764">
        <ele>86.800003051757813</ele>
        <time>2018-12-29T13:08:50Z</time>
      </trkpt>
      <trkpt lat="41.310713449493051" lon="1.574304727837443">
        <ele>86.800003051757813</ele>
        <time>2018-12-29T13:08:52Z</time>
      </trkpt>
      <trkpt lat="41.310743037611246" lon="1.574376057833433">
        <ele>86.800003051757813</ele>
        <time>2018-12-29T13:08:53Z</time>
      </trkpt>
      <trkpt lat="41.310772961005569" lon="1.574449315667152">
        <ele>86.800003051757813</ele>
        <time>2018-12-29T13:08:54Z</time>
      </trkpt>
      <trkpt lat="41.310833394527435" lon="1.574594490230084">
        <ele>86.800003051757813</ele>
        <time>2018-12-29T13:08:56Z</time>
      </trkpt>
      <trkpt lat="41.310894582420588" lon="1.57473748549819">
        <ele>87</ele>
        <time>2018-12-29T13:08:58Z</time>
      </trkpt>
      <trkpt lat="41.31094990298152" lon="1.57488944940269">
        <ele>87</ele>
        <time>2018-12-29T13:09:00Z</time>
      </trkpt>
      <trkpt lat="41.310992818325758" lon="1.575039569288492">
        <ele>87.199996948242188</ele>
        <time>2018-12-29T13:09:02Z</time>
      </trkpt>
      <trkpt lat="41.31102223880589" lon="1.575190862640739">
        <ele>87.400001525878906</ele>
        <time>2018-12-29T13:09:04Z</time>
      </trkpt>
      <trkpt lat="41.311045372858644" lon="1.575348693877459">
        <ele>87.400001525878906</ele>
        <time>2018-12-29T13:09:06Z</time>
      </trkpt>
      <trkpt lat="41.311063813045621" lon="1.575507363304496">
        <ele>87.599998474121094</ele>
        <time>2018-12-29T13:09:08Z</time>
      </trkpt>
      <trkpt lat="41.311082420870662" lon="1.57567273825407">
        <ele>87.400001525878906</ele>
        <time>2018-12-29T13:09:10Z</time>
      </trkpt>
      <trkpt lat="41.311100525781512" lon="1.575836101546884">
        <ele>87.199996948242188</ele>
        <time>2018-12-29T13:09:12Z</time>
      </trkpt>
      <trkpt lat="41.311116451397538" lon="1.576003571972251">
        <ele>87</ele>
        <time>2018-12-29T13:09:14Z</time>
      </trkpt>
      <trkpt lat="41.311130532994866" lon="1.576173305511475">
        <ele>87.199996948242188</ele>
        <time>2018-12-29T13:09:16Z</time>
      </trkpt>
      <trkpt lat="41.31114830262959" lon="1.576345050707459">
        <ele>87.400001525878906</ele>
        <time>2018-12-29T13:09:18Z</time>
      </trkpt>
      <trkpt lat="41.31116590462625" lon="1.57652148976922">
        <ele>87.199996948242188</ele>
        <time>2018-12-29T13:09:20Z</time>
      </trkpt>
      <trkpt lat="41.311184428632259" lon="1.576693067327142">
        <ele>87.199996948242188</ele>
        <time>2018-12-29T13:09:22Z</time>
      </trkpt>
      <trkpt lat="41.311203204095364" lon="1.576861459761858">
        <ele>87.199996948242188</ele>
        <time>2018-12-29T13:09:24Z</time>
      </trkpt>
      <trkpt lat="41.31122063845396" lon="1.577030774205923">
        <ele>87.199996948242188</ele>
        <time>2018-12-29T13:09:26Z</time>
      </trkpt>
      <trkpt lat="41.311241257935762" lon="1.577196400612593">
        <ele>87.599998474121094</ele>
        <time>2018-12-29T13:09:28Z</time>
      </trkpt>
      <trkpt lat="41.311259111389518" lon="1.577365044504404">
        <ele>87.599998474121094</ele>
        <time>2018-12-29T13:09:30Z</time>
      </trkpt>
      <trkpt lat="41.311274785548449" lon="1.577533604577184">
        <ele>87.599998474121094</ele>
        <time>2018-12-29T13:09:32Z</time>
      </trkpt>
      <trkpt lat="41.311293812468648" lon="1.577701577916741">
        <ele>87.599998474121094</ele>
        <time>2018-12-29T13:09:34Z</time>
      </trkpt>
      <trkpt lat="41.311314180493355" lon="1.57787105999887">
        <ele>87.599998474121094</ele>
        <time>2018-12-29T13:09:36Z</time>
      </trkpt>
      <trkpt lat="41.311329770833254" lon="1.577950771898031">
        <ele>87.599998474121094</ele>
        <time>2018-12-29T13:09:37Z</time>
      </trkpt>
      <trkpt lat="41.31134963594377" lon="1.578031154349446">
        <ele>87.599998474121094</ele>
        <time>2018-12-29T13:09:38Z</time>
      </trkpt>
      <trkpt lat="41.311394814401865" lon="1.578190913423896">
        <ele>87.599998474121094</ele>
        <time>2018-12-29T13:09:40Z</time>
      </trkpt>
      <trkpt lat="41.311444435268641" lon="1.578348241746426">
        <ele>87.400001525878906</ele>
        <time>2018-12-29T13:09:42Z</time>
      </trkpt>
      <trkpt lat="41.311490954831243" lon="1.578502636402845">
        <ele>87.400001525878906</ele>
        <time>2018-12-29T13:09:44Z</time>
      </trkpt>
      <trkpt lat="41.311541832983494" lon="1.578660467639566">
        <ele>87.599998474121094</ele>
        <time>2018-12-29T13:09:46Z</time>
      </trkpt>
      <trkpt lat="41.311568571254611" lon="1.57873934134841">
        <ele>87.800003051757813</ele>
        <time>2018-12-29T13:09:47Z</time>
      </trkpt>
      <trkpt lat="41.311596147716045" lon="1.578819891437888">
        <ele>87.800003051757813</ele>
        <time>2018-12-29T13:09:48Z</time>
      </trkpt>
      <trkpt lat="41.311651552096009" lon="1.578980656340718">
        <ele>87.599998474121094</ele>
        <time>2018-12-29T13:09:50Z</time>
      </trkpt>
      <trkpt lat="41.311706118285656" lon="1.579147204756737">
        <ele>87.800003051757813</ele>
        <time>2018-12-29T13:09:52Z</time>
      </trkpt>
      <trkpt lat="41.311755487695336" lon="1.579313753172755">
        <ele>88</ele>
        <time>2018-12-29T13:09:54Z</time>
      </trkpt>
      <trkpt lat="41.311807287856936" lon="1.579475859180093">
        <ele>88</ele>
        <time>2018-12-29T13:09:56Z</time>
      </trkpt>
      <trkpt lat="41.311867721378803" lon="1.579639306291938">
        <ele>88</ele>
        <time>2018-12-29T13:09:58Z</time>
      </trkpt>
      <trkpt lat="41.311939973384142" lon="1.579797388985753">
        <ele>88.199996948242188</ele>
        <time>2018-12-29T13:10:00Z</time>
      </trkpt>
      <trkpt lat="41.312037454918027" lon="1.579931499436498">
        <ele>88</ele>
        <time>2018-12-29T13:10:02Z</time>
      </trkpt>
      <trkpt lat="41.312149437144399" lon="1.580045828595758">
        <ele>87.800003051757813</ele>
        <time>2018-12-29T13:10:04Z</time>
      </trkpt>
      <trkpt lat="41.312268208712339" lon="1.580145657062531">
        <ele>87.599998474121094</ele>
        <time>2018-12-29T13:10:06Z</time>
      </trkpt>
      <trkpt lat="41.312329228967428" lon="1.580187566578388">
        <ele>87.400001525878906</ele>
        <time>2018-12-29T13:10:07Z</time>
      </trkpt>
      <trkpt lat="41.312389662489295" lon="1.580232912674546">
        <ele>87.199996948242188</ele>
        <time>2018-12-29T13:10:08Z</time>
      </trkpt>
      <trkpt lat="41.312510529533029" lon="1.580323688685894">
        <ele>86.800003051757813</ele>
        <time>2018-12-29T13:10:10Z</time>
      </trkpt>
      <trkpt lat="41.312628630548716" lon="1.580419410020113">
        <ele>86.800003051757813</ele>
        <time>2018-12-29T13:10:12Z</time>
      </trkpt>
      <trkpt lat="41.312740780413151" lon="1.580515885725617">
        <ele>86.599998474121094</ele>
        <time>2018-12-29T13:10:14Z</time>
      </trkpt>
      <trkpt lat="41.312852259725332" lon="1.580602219328284">
        <ele>86.400001525878906</ele>
        <time>2018-12-29T13:10:16Z</time>
      </trkpt>
      <trkpt lat="41.31296357139945" lon="1.580668687820435">
        <ele>86.400001525878906</ele>
        <time>2018-12-29T13:10:18Z</time>
      </trkpt>
      <trkpt lat="41.313066836446524" lon="1.580741023644805">
        <ele>86.800003051757813</ele>
        <time>2018-12-29T13:10:20Z</time>
      </trkpt>
      <trkpt lat="41.313163731247187" lon="1.580818556249142">
        <ele>87.199996948242188</ele>
        <time>2018-12-29T13:10:22Z</time>
      </trkpt>
      <trkpt lat="41.313254674896598" lon="1.580906482413411">
        <ele>87</ele>
        <time>2018-12-29T13:10:24Z</time>
      </trkpt>
      <trkpt lat="41.3133011944592" lon="1.580944117158651">
        <ele>87</ele>
        <time>2018-12-29T13:10:25Z</time>
      </trkpt>
      <trkpt lat="41.313348384574056" lon="1.58097923733294">
        <ele>87</ele>
        <time>2018-12-29T13:10:26Z</time>
      </trkpt>
      <trkpt lat="41.313394904136658" lon="1.581017542630434">
        <ele>87.199996948242188</ele>
        <time>2018-12-29T13:10:27Z</time>
      </trkpt>
      <trkpt lat="41.313442178070545" lon="1.581055093556643">
        <ele>87.400001525878906</ele>
        <time>2018-12-29T13:10:28Z</time>
      </trkpt>
      <trkpt lat="41.313538486137986" lon="1.581126842647791">
        <ele>87.599998474121094</ele>
        <time>2018-12-29T13:10:30Z</time>
      </trkpt>
      <trkpt lat="41.313586933538318" lon="1.581163890659809">
        <ele>88</ele>
        <time>2018-12-29T13:10:31Z</time>
      </trkpt>
      <trkpt lat="41.313634542748332" lon="1.581201693043113">
        <ele>88</ele>
        <time>2018-12-29T13:10:32Z</time>
      </trkpt>
      <trkpt lat="41.313729593530297" lon="1.581277549266815">
        <ele>88.199996948242188</ele>
        <time>2018-12-29T13:10:34Z</time>
      </trkpt>
      <trkpt lat="41.313818776980042" lon="1.581354411318898">
        <ele>88.199996948242188</ele>
        <time>2018-12-29T13:10:36Z</time>
      </trkpt>
      <trkpt lat="41.313861943781376" lon="1.581391710788012">
        <ele>88.400001525878906</ele>
        <time>2018-12-29T13:10:37Z</time>
      </trkpt>
      <trkpt lat="41.313904691487551" lon="1.581425908952951">
        <ele>88.400001525878906</ele>
        <time>2018-12-29T13:10:38Z</time>
      </trkpt>
      <trkpt lat="41.313987588509917" lon="1.581485336646438">
        <ele>88.599998474121094</ele>
        <time>2018-12-29T13:10:40Z</time>
      </trkpt>
      <trkpt lat="41.314074341207743" lon="1.581538142636418">
        <ele>88.800003051757813</ele>
        <time>2018-12-29T13:10:42Z</time>
      </trkpt>
      <trkpt lat="41.314113903790712" lon="1.581567898392677">
        <ele>88.800003051757813</ele>
        <time>2018-12-29T13:10:43Z</time>
      </trkpt>
      <trkpt lat="41.314148940145969" lon="1.581603353843093">
        <ele>88.800003051757813</ele>
        <time>2018-12-29T13:10:44Z</time>
      </trkpt>
      <trkpt lat="41.314216665923595" lon="1.581675354391336">
        <ele>88.800003051757813</ele>
        <time>2018-12-29T13:10:46Z</time>
      </trkpt>
      <trkpt lat="41.314274584874511" lon="1.581751881167293">
        <ele>88.800003051757813</ele>
        <time>2018-12-29T13:10:48Z</time>
      </trkpt>
      <trkpt lat="41.314292941242456" lon="1.581798484548926">
        <ele>88.800003051757813</ele>
        <time>2018-12-29T13:10:49Z</time>
      </trkpt>
      <trkpt lat="41.314306687563658" lon="1.581848859786987">
        <ele>88.800003051757813</ele>
        <time>2018-12-29T13:10:50Z</time>
      </trkpt>
      <trkpt lat="41.314323032274842" lon="1.581959249451757">
        <ele>88.599998474121094</ele>
        <time>2018-12-29T13:10:52Z</time>
      </trkpt>
      <trkpt lat="41.314330575987697" lon="1.582080200314522">
        <ele>88.400001525878906</ele>
        <time>2018-12-29T13:10:54Z</time>
      </trkpt>
      <trkpt lat="41.314328564330935" lon="1.582140382379293">
        <ele>88.400001525878906</ele>
        <time>2018-12-29T13:10:55Z</time>
      </trkpt>
      <trkpt lat="41.314324038103223" lon="1.582205258309841">
        <ele>88.199996948242188</ele>
        <time>2018-12-29T13:10:56Z</time>
      </trkpt>
      <trkpt lat="41.314309118315578" lon="1.582339704036713">
        <ele>88</ele>
        <time>2018-12-29T13:10:58Z</time>
      </trkpt>
      <trkpt lat="41.314291013404727" lon="1.582488482818008">
        <ele>87.400001525878906</ele>
        <time>2018-12-29T13:11:00Z</time>
      </trkpt>
      <trkpt lat="41.3142872415483" lon="1.582568362355232">
        <ele>87.199996948242188</ele>
        <time>2018-12-29T13:11:01Z</time>
      </trkpt>
      <trkpt lat="41.314283302053809" lon="1.582651510834694">
        <ele>86.199996948242188</ele>
        <time>2018-12-29T13:11:02Z</time>
      </trkpt>
      <trkpt lat="41.31426720879972" lon="1.582828033715487">
        <ele>85.400001525878906</ele>
        <time>2018-12-29T13:11:04Z</time>
      </trkpt>
      <trkpt lat="41.314256563782692" lon="1.582920821383596">
        <ele>84.800003051757813</ele>
        <time>2018-12-29T13:11:05Z</time>
      </trkpt>
      <trkpt lat="41.314248936250806" lon="1.583014447242022">
        <ele>84.400001525878906</ele>
        <time>2018-12-29T13:11:06Z</time>
      </trkpt>
      <trkpt lat="41.314225969836116" lon="1.583208572119474">
        <ele>83.800003051757813</ele>
        <time>2018-12-29T13:11:08Z</time>
      </trkpt>
      <trkpt lat="41.314231753349304" lon="1.583312842994928">
        <ele>83.599998474121094</ele>
        <time>2018-12-29T13:11:09Z</time>
      </trkpt>
      <trkpt lat="41.314255390316248" lon="1.583414850756526">
        <ele>83.400001525878906</ele>
        <time>2018-12-29T13:11:10Z</time>
      </trkpt>
      <trkpt lat="41.314348261803389" lon="1.583597073331475">
        <ele>82.199996948242188</ele>
        <time>2018-12-29T13:11:12Z</time>
      </trkpt>
      <trkpt lat="41.314419759437442" lon="1.583658093586564">
        <ele>81.800003051757812</ele>
        <time>2018-12-29T13:11:13Z</time>
      </trkpt>
      <trkpt lat="41.314505087211728" lon="1.583691369742155">
        <ele>81.400001525878906</ele>
        <time>2018-12-29T13:11:14Z</time>
      </trkpt>
      <trkpt lat="41.314597623422742" lon="1.583704277873039">
        <ele>80.800003051757813</ele>
        <time>2018-12-29T13:11:15Z</time>
      </trkpt>
      <trkpt lat="41.314691919833422" lon="1.583716096356511">
        <ele>80</ele>
        <time>2018-12-29T13:11:16Z</time>
      </trkpt>
      <trkpt lat="41.314787054434419" lon="1.583727411925793">
        <ele>79.599998474121094</ele>
        <time>2018-12-29T13:11:17Z</time>
      </trkpt>
      <trkpt lat="41.314884619787335" lon="1.583742164075375">
        <ele>79</ele>
        <time>2018-12-29T13:11:18Z</time>
      </trkpt>
      <trkpt lat="41.314981682226062" lon="1.58376881852746">
        <ele>78.599998474121094</ele>
        <time>2018-12-29T13:11:19Z</time>
      </trkpt>
      <trkpt lat="41.315078074112535" lon="1.583814667537808">
        <ele>77.800003051757812</ele>
        <time>2018-12-29T13:11:20Z</time>
      </trkpt>
      <trkpt lat="41.31517019122839" lon="1.583870071917772">
        <ele>77</ele>
        <time>2018-12-29T13:11:21Z</time>
      </trkpt>
      <trkpt lat="41.315259793773293" lon="1.583935534581542">
        <ele>76.199996948242188</ele>
        <time>2018-12-29T13:11:22Z</time>
      </trkpt>
      <trkpt lat="41.315422989428043" lon="1.584088169038296">
        <ele>75.800003051757813</ele>
        <time>2018-12-29T13:11:24Z</time>
      </trkpt>
      <trkpt lat="41.315502701327205" lon="1.584166372194886">
        <ele>75.400001525878906</ele>
        <time>2018-12-29T13:11:25Z</time>
      </trkpt>
      <trkpt lat="41.315578557550907" lon="1.584243234246969">
        <ele>75.400001525878906</ele>
        <time>2018-12-29T13:11:26Z</time>
      </trkpt>
      <trkpt lat="41.315717278048396" lon="1.584396790713072">
        <ele>75.800003051757813</ele>
        <time>2018-12-29T13:11:28Z</time>
      </trkpt>
      <trkpt lat="41.315834792330861" lon="1.584557723253965">
        <ele>76</ele>
        <time>2018-12-29T13:11:30Z</time>
      </trkpt>
      <trkpt lat="41.315929591655731" lon="1.584726870059967">
        <ele>76.400001525878906</ele>
        <time>2018-12-29T13:11:32Z</time>
      </trkpt>
      <trkpt lat="41.316001676023006" lon="1.584901800379157">
        <ele>76.599998474121094</ele>
        <time>2018-12-29T13:11:34Z</time>
      </trkpt>
      <trkpt lat="41.316060265526175" lon="1.585068432614207">
        <ele>76.800003051757813</ele>
        <time>2018-12-29T13:11:36Z</time>
      </trkpt>
      <trkpt lat="41.316104354336858" lon="1.58522735349834">
        <ele>77.400001525878906</ele>
        <time>2018-12-29T13:11:38Z</time>
      </trkpt>
      <trkpt lat="41.316118603572249" lon="1.585305137559772">
        <ele>77.800003051757812</ele>
        <time>2018-12-29T13:11:39Z</time>
      </trkpt>
      <trkpt lat="41.316131260246038" lon="1.585382586345077">
        <ele>77.800003051757812</ele>
        <time>2018-12-29T13:11:40Z</time>
      </trkpt>
      <trkpt lat="41.316163698211312" lon="1.585531029850245">
        <ele>77.800003051757812</ele>
        <time>2018-12-29T13:11:42Z</time>
      </trkpt>
      <trkpt lat="41.316191274672747" lon="1.585675030946732">
        <ele>78</ele>
        <time>2018-12-29T13:11:44Z</time>
      </trkpt>
      <trkpt lat="41.316225472837687" lon="1.585813919082284">
        <ele>78</ele>
        <time>2018-12-29T13:11:46Z</time>
      </trkpt>
      <trkpt lat="41.316258665174246" lon="1.585949873551726">
        <ele>78</ele>
        <time>2018-12-29T13:11:48Z</time>
      </trkpt>
      <trkpt lat="41.316291941329837" lon="1.586082056164742">
        <ele>78</ele>
        <time>2018-12-29T13:11:50Z</time>
      </trkpt>
      <trkpt lat="41.316324044018984" lon="1.586211137473583">
        <ele>78.199996948242188</ele>
        <time>2018-12-29T13:11:52Z</time>
      </trkpt>
      <trkpt lat="41.31634097546339" lon="1.586275091394782">
        <ele>78.400001525878906</ele>
        <time>2018-12-29T13:11:53Z</time>
      </trkpt>
      <trkpt lat="41.316358242183924" lon="1.586338458582759">
        <ele>78.599998474121094</ele>
        <time>2018-12-29T13:11:54Z</time>
      </trkpt>
      <trkpt lat="41.316390847787261" lon="1.586465444415808">
        <ele>78.599998474121094</ele>
        <time>2018-12-29T13:11:56Z</time>
      </trkpt>
      <trkpt lat="41.316405851393938" lon="1.586528979241848">
        <ele>78.800003051757813</ele>
        <time>2018-12-29T13:11:57Z</time>
      </trkpt>
      <trkpt lat="41.316419765353203" lon="1.586592346429825">
        <ele>78.800003051757813</ele>
        <time>2018-12-29T13:11:58Z</time>
      </trkpt>
      <trkpt lat="41.316448263823986" lon="1.586716566234827">
        <ele>78.800003051757813</ele>
        <time>2018-12-29T13:12:00Z</time>
      </trkpt>
      <trkpt lat="41.316478690132499" lon="1.586838690564036">
        <ele>78.599998474121094</ele>
        <time>2018-12-29T13:12:02Z</time>
      </trkpt>
      <trkpt lat="41.316510457545519" lon="1.586960479617119">
        <ele>78.800003051757813</ele>
        <time>2018-12-29T13:12:04Z</time>
      </trkpt>
      <trkpt lat="41.31653786636889" lon="1.587083274498582">
        <ele>79</ele>
        <time>2018-12-29T13:12:06Z</time>
      </trkpt>
      <trkpt lat="41.316559491679072" lon="1.587207494303584">
        <ele>79</ele>
        <time>2018-12-29T13:12:08Z</time>
      </trkpt>
      <trkpt lat="41.316576255485415" lon="1.587338335812092">
        <ele>78.800003051757813</ele>
        <time>2018-12-29T13:12:10Z</time>
      </trkpt>
      <trkpt lat="41.316590588539839" lon="1.587473619729281">
        <ele>79</ele>
        <time>2018-12-29T13:12:12Z</time>
      </trkpt>
      <trkpt lat="41.316601736471057" lon="1.587611669674516">
        <ele>78.599998474121094</ele>
        <time>2018-12-29T13:12:14Z</time>
      </trkpt>
      <trkpt lat="41.316617326810956" lon="1.587747540324926">
        <ele>78.400001525878906</ele>
        <time>2018-12-29T13:12:16Z</time>
      </trkpt>
      <trkpt lat="41.316628474742174" lon="1.58788894303143">
        <ele>78.199996948242188</ele>
        <time>2018-12-29T13:12:18Z</time>
      </trkpt>
      <trkpt lat="41.316638616845012" lon="1.5879578422755">
        <ele>78</ele>
        <time>2018-12-29T13:12:19Z</time>
      </trkpt>
      <trkpt lat="41.316649932414293" lon="1.588024143129587">
        <ele>78</ele>
        <time>2018-12-29T13:12:20Z</time>
      </trkpt>
      <trkpt lat="41.316660912707448" lon="1.588158840313554">
        <ele>78</ele>
        <time>2018-12-29T13:12:22Z</time>
      </trkpt>
      <trkpt lat="41.316665019840002" lon="1.588291442021728">
        <ele>78</ele>
        <time>2018-12-29T13:12:24Z</time>
      </trkpt>
      <trkpt lat="41.316676838323474" lon="1.588418260216713">
        <ele>77.800003051757812</ele>
        <time>2018-12-29T13:12:26Z</time>
      </trkpt>
      <trkpt lat="41.316690081730485" lon="1.588545581325889">
        <ele>78</ele>
        <time>2018-12-29T13:12:28Z</time>
      </trkpt>
      <trkpt lat="41.316705085337162" lon="1.58867172896862">
        <ele>77.800003051757812</ele>
        <time>2018-12-29T13:12:30Z</time>
      </trkpt>
      <trkpt lat="41.316715562716126" lon="1.58880558796227">
        <ele>77.800003051757812</ele>
        <time>2018-12-29T13:12:32Z</time>
      </trkpt>
      <trkpt lat="41.31672453135252" lon="1.58894581720233">
        <ele>77.400001525878906</ele>
        <time>2018-12-29T13:12:34Z</time>
      </trkpt>
      <trkpt lat="41.316727381199598" lon="1.589018488302827">
        <ele>77.400001525878906</ele>
        <time>2018-12-29T13:12:35Z</time>
      </trkpt>
      <trkpt lat="41.316734002903104" lon="1.58909535035491">
        <ele>77</ele>
        <time>2018-12-29T13:12:36Z</time>
      </trkpt>
      <trkpt lat="41.316752694547176" lon="1.589257875457406">
        <ele>76</ele>
        <time>2018-12-29T13:12:38Z</time>
      </trkpt>
      <trkpt lat="41.316766524687409" lon="1.589433057233691">
        <ele>75.800003051757813</ele>
        <time>2018-12-29T13:12:40Z</time>
      </trkpt>
      <trkpt lat="41.316779013723135" lon="1.589616453275085">
        <ele>75.199996948242187</ele>
        <time>2018-12-29T13:12:42Z</time>
      </trkpt>
      <trkpt lat="41.316784294322133" lon="1.589710079133511">
        <ele>75</ele>
        <time>2018-12-29T13:12:43Z</time>
      </trkpt>
      <trkpt lat="41.316794771701097" lon="1.589806638658047">
        <ele>74.599998474121094</ele>
        <time>2018-12-29T13:12:44Z</time>
      </trkpt>
      <trkpt lat="41.316813547164202" lon="1.589901857078075">
        <ele>74.199996948242188</ele>
        <time>2018-12-29T13:12:45Z</time>
      </trkpt>
      <trkpt lat="41.316848080605268" lon="1.589990705251694">
        <ele>73.800003051757812</ele>
        <time>2018-12-29T13:12:46Z</time>
      </trkpt>
      <trkpt lat="41.316961320117116" lon="1.590132527053356">
        <ele>73</ele>
        <time>2018-12-29T13:12:48Z</time>
      </trkpt>
      <trkpt lat="41.317035080865026" lon="1.590181477367878">
        <ele>72.599998474121094</ele>
        <time>2018-12-29T13:12:49Z</time>
      </trkpt>
      <trkpt lat="41.317115044221282" lon="1.590225649997592">
        <ele>72.199996948242188</ele>
        <time>2018-12-29T13:12:50Z</time>
      </trkpt>
      <trkpt lat="41.317194756120443" lon="1.590268732979894">
        <ele>71.400001525878906</ele>
        <time>2018-12-29T13:12:51Z</time>
      </trkpt>
      <trkpt lat="41.317275892943144" lon="1.590312067419291">
        <ele>71</ele>
        <time>2018-12-29T13:12:52Z</time>
      </trkpt>
      <trkpt lat="41.317359376698732" lon="1.590356156229973">
        <ele>70.199996948242188</ele>
        <time>2018-12-29T13:12:53Z</time>
      </trkpt>
      <trkpt lat="41.317444201558828" lon="1.590401669964194">
        <ele>69.599998474121094</ele>
        <time>2018-12-29T13:12:54Z</time>
      </trkpt>
      <trkpt lat="41.317531960085034" lon="1.590444417670369">
        <ele>69</ele>
        <time>2018-12-29T13:12:55Z</time>
      </trkpt>
      <trkpt lat="41.317624244838953" lon="1.590481130406261">
        <ele>68.599998474121094</ele>
        <time>2018-12-29T13:12:56Z</time>
      </trkpt>
      <trkpt lat="41.317719798535109" lon="1.590504515916109">
        <ele>68.400001525878906</ele>
        <time>2018-12-29T13:12:57Z</time>
      </trkpt>
      <trkpt lat="41.317818285897374" lon="1.590511975809932">
        <ele>67.599998474121094</ele>
        <time>2018-12-29T13:12:58Z</time>
      </trkpt>
      <trkpt lat="41.318012243136764" lon="1.590501163154841">
        <ele>66.599998474121094</ele>
        <time>2018-12-29T13:13:00Z</time>
      </trkpt>
      <trkpt lat="41.318197231739759" lon="1.59050602465868">
        <ele>66.599998474121094</ele>
        <time>2018-12-29T13:13:02Z</time>
      </trkpt>
      <trkpt lat="41.318336287513375" lon="1.590594621375203">
        <ele>66.800003051757813</ele>
        <time>2018-12-29T13:13:04Z</time>
      </trkpt>
      <trkpt lat="41.318427566438913" lon="1.590737868100405">
        <ele>66.800003051757813</ele>
        <time>2018-12-29T13:13:06Z</time>
      </trkpt>
      <trkpt lat="41.3184645306319" lon="1.590815652161837">
        <ele>66.599998474121094</ele>
        <time>2018-12-29T13:13:07Z</time>
      </trkpt>
      <trkpt lat="41.318499315530062" lon="1.59089058637619">
        <ele>66.599998474121094</ele>
        <time>2018-12-29T13:13:08Z</time>
      </trkpt>
      <trkpt lat="41.318569555878639" lon="1.591029725968838">
        <ele>67</ele>
        <time>2018-12-29T13:13:10Z</time>
      </trkpt>
      <trkpt lat="41.318636862561107" lon="1.591176744550467">
        <ele>67</ele>
        <time>2018-12-29T13:13:12Z</time>
      </trkpt>
      <trkpt lat="41.318663768470287" lon="1.59125410951674">
        <ele>67</ele>
        <time>2018-12-29T13:13:13Z</time>
      </trkpt>
      <trkpt lat="41.318680616095662" lon="1.591338263824582">
        <ele>67</ele>
        <time>2018-12-29T13:13:14Z</time>
      </trkpt>
      <trkpt lat="41.318680197000504" lon="1.59150917083025">
        <ele>67.199996948242187</ele>
        <time>2018-12-29T13:13:16Z</time>
      </trkpt>
      <trkpt lat="41.318654799833894" lon="1.591669097542763">
        <ele>67.599998474121094</ele>
        <time>2018-12-29T13:13:18Z</time>
      </trkpt>
      <trkpt lat="41.318638119846582" lon="1.591746294870973">
        <ele>68</ele>
        <time>2018-12-29T13:13:19Z</time>
      </trkpt>
      <trkpt lat="41.318621439859271" lon="1.591819385066629">
        <ele>68.199996948242188</ele>
        <time>2018-12-29T13:13:20Z</time>
      </trkpt>
      <trkpt lat="41.318574752658606" lon="1.591950645670295">
        <ele>68.599998474121094</ele>
        <time>2018-12-29T13:13:22Z</time>
      </trkpt>
      <trkpt lat="41.318539883941412" lon="1.592003703117371">
        <ele>68.800003051757812</ele>
        <time>2018-12-29T13:13:23Z</time>
      </trkpt>
      <trkpt lat="41.318503422662616" lon="1.592047456651926">
        <ele>69</ele>
        <time>2018-12-29T13:13:24Z</time>
      </trkpt>
      <trkpt lat="41.318421447649598" lon="1.592106129974127">
        <ele>70.199996948242188</ele>
        <time>2018-12-29T13:13:26Z</time>
      </trkpt>
      <trkpt lat="41.318379873409867" lon="1.592128928750753">
        <ele>70.400001525878906</ele>
        <time>2018-12-29T13:13:27Z</time>
      </trkpt>
      <trkpt lat="41.318339807912707" lon="1.592153990641236">
        <ele>70.800003051757813</ele>
        <time>2018-12-29T13:13:28Z</time>
      </trkpt>
      <trkpt lat="41.318302508443594" lon="1.592182237654924">
        <ele>71.199996948242187</ele>
        <time>2018-12-29T13:13:29Z</time>
      </trkpt>
      <trkpt lat="41.318269148468971" lon="1.592216184362769">
        <ele>71.599998474121094</ele>
        <time>2018-12-29T13:13:30Z</time>
      </trkpt>
      <trkpt lat="41.318222712725401" lon="1.59229782409966">
        <ele>72</ele>
        <time>2018-12-29T13:13:32Z</time>
      </trkpt>
      <trkpt lat="41.318195555359125" lon="1.592391030862927">
        <ele>72.199996948242188</ele>
        <time>2018-12-29T13:13:34Z</time>
      </trkpt>
      <trkpt lat="41.318187844008207" lon="1.592490607872605">
        <ele>72.599998474121094</ele>
        <time>2018-12-29T13:13:36Z</time>
      </trkpt>
      <trkpt lat="41.31819580681622" lon="1.592540396377444">
        <ele>73</ele>
        <time>2018-12-29T13:13:37Z</time>
      </trkpt>
      <trkpt lat="41.318210726603866" lon="1.592589849606156">
        <ele>73.199996948242188</ele>
        <time>2018-12-29T13:13:38Z</time>
      </trkpt>
      <trkpt lat="41.318226149305701" lon="1.592640392482281">
        <ele>73.400001525878906</ele>
        <time>2018-12-29T13:13:39Z</time>
      </trkpt>
      <trkpt lat="41.318244002759457" lon="1.592689091339707">
        <ele>73.400001525878906</ele>
        <time>2018-12-29T13:13:40Z</time>
      </trkpt>
      <trkpt lat="41.318282894790173" lon="1.592785064131022">
        <ele>73.800003051757812</ele>
        <time>2018-12-29T13:13:42Z</time>
      </trkpt>
      <trkpt lat="41.318301502615213" lon="1.592830661684275">
        <ele>74</ele>
        <time>2018-12-29T13:13:43Z</time>
      </trkpt>
      <trkpt lat="41.31831893697381" lon="1.592873577028513">
        <ele>74.400001525878906</ele>
        <time>2018-12-29T13:13:44Z</time>
      </trkpt>
      <trkpt lat="41.318352213129401" lon="1.592962760478258">
        <ele>74.800003051757813</ele>
        <time>2018-12-29T13:13:46Z</time>
      </trkpt>
      <trkpt lat="41.318367971107364" lon="1.59301221370697">
        <ele>74.800003051757813</ele>
        <time>2018-12-29T13:13:47Z</time>
      </trkpt>
      <trkpt lat="41.318385740742087" lon="1.593059068545699">
        <ele>75</ele>
        <time>2018-12-29T13:13:48Z</time>
      </trkpt>
      <trkpt lat="41.318423040211201" lon="1.59315143711865">
        <ele>75.599998474121094</ele>
        <time>2018-12-29T13:13:50Z</time>
      </trkpt>
      <trkpt lat="41.318461848422885" lon="1.593240117654204">
        <ele>75.800003051757813</ele>
        <time>2018-12-29T13:13:52Z</time>
      </trkpt>
      <trkpt lat="41.318498393520713" lon="1.593329552561045">
        <ele>76.199996948242188</ele>
        <time>2018-12-29T13:13:54Z</time>
      </trkpt>
      <trkpt lat="41.318529825657606" lon="1.593423262238503">
        <ele>76.400001525878906</ele>
        <time>2018-12-29T13:13:56Z</time>
      </trkpt>
      <trkpt lat="41.318569472059608" lon="1.593515714630485">
        <ele>76.400001525878906</ele>
        <time>2018-12-29T13:13:58Z</time>
      </trkpt>
      <trkpt lat="41.318605178967118" lon="1.593614285811782">
        <ele>76.599998474121094</ele>
        <time>2018-12-29T13:14:00Z</time>
      </trkpt>
      <trkpt lat="41.318625966086984" lon="1.593664828687906">
        <ele>76.599998474121094</ele>
        <time>2018-12-29T13:14:01Z</time>
      </trkpt>
      <trkpt lat="41.318649183958769" lon="1.593714281916618">
        <ele>76.800003051757813</ele>
        <time>2018-12-29T13:14:02Z</time>
      </trkpt>
      <trkpt lat="41.318694781512022" lon="1.59381452947855">
        <ele>76.800003051757813</ele>
        <time>2018-12-29T13:14:04Z</time>
      </trkpt>
      <trkpt lat="41.318734511733055" lon="1.593913268297911">
        <ele>76.800003051757813</ele>
        <time>2018-12-29T13:14:06Z</time>
      </trkpt>
      <trkpt lat="41.318754376843572" lon="1.593964565545321">
        <ele>76.800003051757813</ele>
        <time>2018-12-29T13:14:07Z</time>
      </trkpt>
      <trkpt lat="41.318773906677961" lon="1.594015192240477">
        <ele>77</ele>
        <time>2018-12-29T13:14:08Z</time>
      </trkpt>
      <trkpt lat="41.318814139813185" lon="1.594115607440472">
        <ele>77.199996948242188</ele>
        <time>2018-12-29T13:14:10Z</time>
      </trkpt>
      <trkpt lat="41.318854205310345" lon="1.594215771183372">
        <ele>77.599998474121094</ele>
        <time>2018-12-29T13:14:12Z</time>
      </trkpt>
      <trkpt lat="41.318901060149074" lon="1.594312163069844">
        <ele>77.800003051757812</ele>
        <time>2018-12-29T13:14:14Z</time>
      </trkpt>
      <trkpt lat="41.318940622732043" lon="1.594414254650474">
        <ele>77.800003051757812</ele>
        <time>2018-12-29T13:14:16Z</time>
      </trkpt>
      <trkpt lat="41.31897808983922" lon="1.594513999298215">
        <ele>78</ele>
        <time>2018-12-29T13:14:18Z</time>
      </trkpt>
      <trkpt lat="41.318997787311673" lon="1.594565128907561">
        <ele>78</ele>
        <time>2018-12-29T13:14:19Z</time>
      </trkpt>
      <trkpt lat="41.319019161164761" lon="1.594616258516908">
        <ele>78</ele>
        <time>2018-12-29T13:14:20Z</time>
      </trkpt>
      <trkpt lat="41.319062327966094" lon="1.594718685373664">
        <ele>78</ele>
        <time>2018-12-29T13:14:22Z</time>
      </trkpt>
      <trkpt lat="41.319105913862586" lon="1.594819938763976">
        <ele>78.199996948242188</ele>
        <time>2018-12-29T13:14:24Z</time>
      </trkpt>
      <trkpt lat="41.319149835035205" lon="1.594920689240098">
        <ele>78.400001525878906</ele>
        <time>2018-12-29T13:14:26Z</time>
      </trkpt>
      <trkpt lat="41.319192163646221" lon="1.595019428059459">
        <ele>78.599998474121094</ele>
        <time>2018-12-29T13:14:28Z</time>
      </trkpt>
      <trkpt lat="41.319214459508657" lon="1.595068294554949">
        <ele>78.800003051757813</ele>
        <time>2018-12-29T13:14:29Z</time>
      </trkpt>
      <trkpt lat="41.319235917180777" lon="1.595120681449771">
        <ele>78.800003051757813</ele>
        <time>2018-12-29T13:14:30Z</time>
      </trkpt>
      <trkpt lat="41.319256871938705" lon="1.595173655077815">
        <ele>79</ele>
        <time>2018-12-29T13:14:31Z</time>
      </trkpt>
      <trkpt lat="41.319277742877603" lon="1.595226544886828">
        <ele>79.199996948242187</ele>
        <time>2018-12-29T13:14:32Z</time>
      </trkpt>
      <trkpt lat="41.319318898022175" lon="1.595333581790328">
        <ele>79.599998474121094</ele>
        <time>2018-12-29T13:14:34Z</time>
      </trkpt>
      <trkpt lat="41.319363741204143" lon="1.595436260104179">
        <ele>79.800003051757813</ele>
        <time>2018-12-29T13:14:36Z</time>
      </trkpt>
      <trkpt lat="41.319404058158398" lon="1.595533406361938">
        <ele>80</ele>
        <time>2018-12-29T13:14:38Z</time>
      </trkpt>
      <trkpt lat="41.319424174726009" lon="1.595582943409681">
        <ele>80.199996948242188</ele>
        <time>2018-12-29T13:14:39Z</time>
      </trkpt>
      <trkpt lat="41.319446973502636" lon="1.595630552619696">
        <ele>80.199996948242188</ele>
        <time>2018-12-29T13:14:40Z</time>
      </trkpt>
      <trkpt lat="41.319487793371081" lon="1.595729710534215">
        <ele>80.599998474121094</ele>
        <time>2018-12-29T13:14:42Z</time>
      </trkpt>
      <trkpt lat="41.319526433944702" lon="1.595831634476781">
        <ele>81</ele>
        <time>2018-12-29T13:14:44Z</time>
      </trkpt>
      <trkpt lat="41.319547304883599" lon="1.595882177352905">
        <ele>81.199996948242188</ele>
        <time>2018-12-29T13:14:45Z</time>
      </trkpt>
      <trkpt lat="41.319570103660226" lon="1.595931965857744">
        <ele>81.599998474121094</ele>
        <time>2018-12-29T13:14:46Z</time>
      </trkpt>
      <trkpt lat="41.31961083970964" lon="1.596025843173266">
        <ele>81.800003051757812</ele>
        <time>2018-12-29T13:14:48Z</time>
      </trkpt>
      <trkpt lat="41.319631291553378" lon="1.596074374392629">
        <ele>82</ele>
        <time>2018-12-29T13:14:49Z</time>
      </trkpt>
      <trkpt lat="41.319651659578085" lon="1.596122067421675">
        <ele>82.199996948242188</ele>
        <time>2018-12-29T13:14:50Z</time>
      </trkpt>
      <trkpt lat="41.319672279059887" lon="1.596170011907816">
        <ele>82.400001525878906</ele>
        <time>2018-12-29T13:14:51Z</time>
      </trkpt>
      <trkpt lat="41.319693233817816" lon="1.596219968050718">
        <ele>82.400001525878906</ele>
        <time>2018-12-29T13:14:52Z</time>
      </trkpt>
      <trkpt lat="41.319732461124659" lon="1.59632071852684">
        <ele>82.800003051757813</ele>
        <time>2018-12-29T13:14:54Z</time>
      </trkpt>
      <trkpt lat="41.319772694259882" lon="1.596423396840692">
        <ele>83</ele>
        <time>2018-12-29T13:14:56Z</time>
      </trkpt>
      <trkpt lat="41.319811418652534" lon="1.596523392945528">
        <ele>83.199996948242187</ele>
        <time>2018-12-29T13:14:58Z</time>
      </trkpt>
      <trkpt lat="41.31984586827457" lon="1.596618108451366">
        <ele>83.199996948242187</ele>
        <time>2018-12-29T13:15:00Z</time>
      </trkpt>
      <trkpt lat="41.319877803325653" lon="1.5967130754143">
        <ele>83.400001525878906</ele>
        <time>2018-12-29T13:15:02Z</time>
      </trkpt>
      <trkpt lat="41.319903787225485" lon="1.596817346289754">
        <ele>83.400001525878906</ele>
        <time>2018-12-29T13:15:04Z</time>
      </trkpt>
      <trkpt lat="41.31992700509727" lon="1.596932681277394">
        <ele>83.599998474121094</ele>
        <time>2018-12-29T13:15:06Z</time>
      </trkpt>
      <trkpt lat="41.319944942370057" lon="1.597049944102764">
        <ele>83.599998474121094</ele>
        <time>2018-12-29T13:15:08Z</time>
      </trkpt>
      <trkpt lat="41.319955168291926" lon="1.597165865823627">
        <ele>83.800003051757813</ele>
        <time>2018-12-29T13:15:10Z</time>
      </trkpt>
      <trkpt lat="41.3199582695961" lon="1.597280111163855">
        <ele>83.800003051757813</ele>
        <time>2018-12-29T13:15:12Z</time>
      </trkpt>
      <trkpt lat="41.319955587387085" lon="1.597338868305087">
        <ele>84</ele>
        <time>2018-12-29T13:15:13Z</time>
      </trkpt>
      <trkpt lat="41.319951983168721" lon="1.597397960722446">
        <ele>84.199996948242188</ele>
        <time>2018-12-29T13:15:14Z</time>
      </trkpt>
      <trkpt lat="41.319948043674231" lon="1.597457472234964">
        <ele>84.400001525878906</ele>
        <time>2018-12-29T13:15:15Z</time>
      </trkpt>
      <trkpt lat="41.319941505789757" lon="1.597516816109419">
        <ele>84.400001525878906</ele>
        <time>2018-12-29T13:15:16Z</time>
      </trkpt>
      <trkpt lat="41.319926418364048" lon="1.597638437524438">
        <ele>84.400001525878906</ele>
        <time>2018-12-29T13:15:18Z</time>
      </trkpt>
      <trkpt lat="41.319908061996102" lon="1.597759639844298">
        <ele>84.599998474121094</ele>
        <time>2018-12-29T13:15:20Z</time>
      </trkpt>
      <trkpt lat="41.319889705628157" lon="1.597880758345127">
        <ele>84.599998474121094</ele>
        <time>2018-12-29T13:15:22Z</time>
      </trkpt>
      <trkpt lat="41.319882497191429" lon="1.597940269857645">
        <ele>84.599998474121094</ele>
        <time>2018-12-29T13:15:23Z</time>
      </trkpt>
      <trkpt lat="41.319875037297606" lon="1.597999865189195">
        <ele>84.800003051757813</ele>
        <time>2018-12-29T13:15:24Z</time>
      </trkpt>
      <trkpt lat="41.319859111681581" lon="1.598123582080007">
        <ele>84.800003051757813</ele>
        <time>2018-12-29T13:15:26Z</time>
      </trkpt>
      <trkpt lat="41.319842180237174" lon="1.598252076655626">
        <ele>85</ele>
        <time>2018-12-29T13:15:28Z</time>
      </trkpt>
      <trkpt lat="41.319824829697609" lon="1.598378727212548">
        <ele>85</ele>
        <time>2018-12-29T13:15:30Z</time>
      </trkpt>
      <trkpt lat="41.319809826090932" lon="1.598505545407534">
        <ele>84.800003051757813</ele>
        <time>2018-12-29T13:15:32Z</time>
      </trkpt>
      <trkpt lat="41.319805467501283" lon="1.598566062748432">
        <ele>84.800003051757813</ele>
        <time>2018-12-29T13:15:33Z</time>
      </trkpt>
      <trkpt lat="41.319803204387426" lon="1.598627334460616">
        <ele>85</ele>
        <time>2018-12-29T13:15:34Z</time>
      </trkpt>
      <trkpt lat="41.319805132225156" lon="1.59875214099884">
        <ele>85</ele>
        <time>2018-12-29T13:15:36Z</time>
      </trkpt>
      <trkpt lat="41.319816447794437" lon="1.598886586725712">
        <ele>85.199996948242188</ele>
        <time>2018-12-29T13:15:38Z</time>
      </trkpt>
      <trkpt lat="41.319831870496273" lon="1.599024888128042">
        <ele>84.800003051757813</ele>
        <time>2018-12-29T13:15:40Z</time>
      </trkpt>
      <trkpt lat="41.319853914901614" lon="1.599168805405498">
        <ele>84.400001525878906</ele>
        <time>2018-12-29T13:15:42Z</time>
      </trkpt>
      <trkpt lat="41.319876965135336" lon="1.599322110414505">
        <ele>84</ele>
        <time>2018-12-29T13:15:44Z</time>
      </trkpt>
      <trkpt lat="41.319904206320643" lon="1.599484970793128">
        <ele>83.599998474121094</ele>
        <time>2018-12-29T13:15:46Z</time>
      </trkpt>
      <trkpt lat="41.319918790832162" lon="1.599569544196129">
        <ele>83.400001525878906</ele>
        <time>2018-12-29T13:15:47Z</time>
      </trkpt>
      <trkpt lat="41.319935219362378" lon="1.599657135084271">
        <ele>83.199996948242187</ele>
        <time>2018-12-29T13:15:48Z</time>
      </trkpt>
      <trkpt lat="41.319968160241842" lon="1.599836591631174">
        <ele>82.400001525878906</ele>
        <time>2018-12-29T13:15:50Z</time>
      </trkpt>
      <trkpt lat="41.319996658712626" lon="1.600023088976741">
        <ele>82.199996948242188</ele>
        <time>2018-12-29T13:15:52Z</time>
      </trkpt>
      <trkpt lat="41.320009734481573" lon="1.600116966292262">
        <ele>82.199996948242188</ele>
        <time>2018-12-29T13:15:53Z</time>
      </trkpt>
      <trkpt lat="41.320023983716965" lon="1.600210508331657">
        <ele>82</ele>
        <time>2018-12-29T13:15:54Z</time>
      </trkpt>
      <trkpt lat="41.320040998980403" lon="1.600304385647178">
        <ele>81.800003051757812</ele>
        <time>2018-12-29T13:15:55Z</time>
      </trkpt>
      <trkpt lat="41.320059187710285" lon="1.60039683803916">
        <ele>81.599998474121094</ele>
        <time>2018-12-29T13:15:56Z</time>
      </trkpt>
      <trkpt lat="41.32009020075202" lon="1.600585263222456">
        <ele>81</ele>
        <time>2018-12-29T13:15:58Z</time>
      </trkpt>
      <trkpt lat="41.320117358118296" lon="1.600773772224784">
        <ele>80.800003051757813</ele>
        <time>2018-12-29T13:16:00Z</time>
      </trkpt>
      <trkpt lat="41.320143761113286" lon="1.600957922637463">
        <ele>80.599998474121094</ele>
        <time>2018-12-29T13:16:02Z</time>
      </trkpt>
      <trkpt lat="41.320171086117625" lon="1.601140983402729">
        <ele>80.400001525878906</ele>
        <time>2018-12-29T13:16:04Z</time>
      </trkpt>
      <trkpt lat="41.320200255140662" lon="1.601326391100884">
        <ele>80.199996948242188</ele>
        <time>2018-12-29T13:16:06Z</time>
      </trkpt>
      <trkpt lat="41.320227747783065" lon="1.601511212065816">
        <ele>80</ele>
        <time>2018-12-29T13:16:08Z</time>
      </trkpt>
      <trkpt lat="41.32025633007288" lon="1.601693015545607">
        <ele>79.800003051757813</ele>
        <time>2018-12-29T13:16:10Z</time>
      </trkpt>
      <trkpt lat="41.320281475782394" lon="1.601871633902192">
        <ele>79.599998474121094</ele>
        <time>2018-12-29T13:16:12Z</time>
      </trkpt>
      <trkpt lat="41.320292372256517" lon="1.601959643885493">
        <ele>79.800003051757813</ele>
        <time>2018-12-29T13:16:13Z</time>
      </trkpt>
      <trkpt lat="41.32030519656837" lon="1.602045390754938">
        <ele>80</ele>
        <time>2018-12-29T13:16:14Z</time>
      </trkpt>
      <trkpt lat="41.320340819656849" lon="1.602213867008686">
        <ele>79.599998474121094</ele>
        <time>2018-12-29T13:16:16Z</time>
      </trkpt>
      <trkpt lat="41.320365462452173" lon="1.602294249460101">
        <ele>79.599998474121094</ele>
        <time>2018-12-29T13:16:17Z</time>
      </trkpt>
      <trkpt lat="41.320394463837147" lon="1.602371027693152">
        <ele>79.599998474121094</ele>
        <time>2018-12-29T13:16:18Z</time>
      </trkpt>
      <trkpt lat="41.320432685315609" lon="1.60244177095592">
        <ele>79.599998474121094</ele>
        <time>2018-12-29T13:16:19Z</time>
      </trkpt>
      <trkpt lat="41.320478785783052" lon="1.602503042668104">
        <ele>79.599998474121094</ele>
        <time>2018-12-29T13:16:20Z</time>
      </trkpt>
      <trkpt lat="41.320590265095234" lon="1.602599853649736">
        <ele>79.199996948242187</ele>
        <time>2018-12-29T13:16:22Z</time>
      </trkpt>
      <trkpt lat="41.320657404139638" lon="1.602626089006662">
        <ele>78.800003051757813</ele>
        <time>2018-12-29T13:16:23Z</time>
      </trkpt>
      <trkpt lat="41.320730661973357" lon="1.602641511708498">
        <ele>78.599998474121094</ele>
        <time>2018-12-29T13:16:24Z</time>
      </trkpt>
      <trkpt lat="41.320808194577694" lon="1.602642349898815">
        <ele>78</ele>
        <time>2018-12-29T13:16:25Z</time>
      </trkpt>
      <trkpt lat="41.320888577029109" lon="1.602634219452739">
        <ele>77.599998474121094</ele>
        <time>2018-12-29T13:16:26Z</time>
      </trkpt>
      <trkpt lat="41.320969294756651" lon="1.602623574435711">
        <ele>77.199996948242188</ele>
        <time>2018-12-29T13:16:27Z</time>
      </trkpt>
      <trkpt lat="41.321049174293876" lon="1.602610163390636">
        <ele>77</ele>
        <time>2018-12-29T13:16:28Z</time>
      </trkpt>
      <trkpt lat="41.321214213967323" lon="1.602581748738885">
        <ele>76</ele>
        <time>2018-12-29T13:16:30Z</time>
      </trkpt>
      <trkpt lat="41.321386713534594" lon="1.602554926648736">
        <ele>75</ele>
        <time>2018-12-29T13:16:32Z</time>
      </trkpt>
      <trkpt lat="41.321474639698863" lon="1.602547131478787">
        <ele>74.400001525878906</ele>
        <time>2018-12-29T13:16:33Z</time>
      </trkpt>
      <trkpt lat="41.321563571691513" lon="1.602542186155915">
        <ele>74</ele>
        <time>2018-12-29T13:16:34Z</time>
      </trkpt>
      <trkpt lat="41.321745291352272" lon="1.602539252489805">
        <ele>73.199996948242188</ele>
        <time>2018-12-29T13:16:36Z</time>
      </trkpt>
      <trkpt lat="41.32184000685811" lon="1.602542521432042">
        <ele>72.599998474121094</ele>
        <time>2018-12-29T13:16:37Z</time>
      </trkpt>
      <trkpt lat="41.321936482563615" lon="1.602547466754913">
        <ele>71.599998474121094</ele>
        <time>2018-12-29T13:16:38Z</time>
      </trkpt>
      <trkpt lat="41.322134714573622" lon="1.602556770667434">
        <ele>71</ele>
        <time>2018-12-29T13:16:40Z</time>
      </trkpt>
      <trkpt lat="41.322235632687807" lon="1.602570014074445">
        <ele>70.599998474121094</ele>
        <time>2018-12-29T13:16:41Z</time>
      </trkpt>
      <trkpt lat="41.322335377335548" lon="1.602590717375279">
        <ele>70</ele>
        <time>2018-12-29T13:16:42Z</time>
      </trkpt>
      <trkpt lat="41.322433361783624" lon="1.602609492838383">
        <ele>69.199996948242188</ele>
        <time>2018-12-29T13:16:43Z</time>
      </trkpt>
      <trkpt lat="41.322531849145889" lon="1.602627011016011">
        <ele>68.599998474121094</ele>
        <time>2018-12-29T13:16:44Z</time>
      </trkpt>
      <trkpt lat="41.322629665955901" lon="1.602650983259082">
        <ele>68</ele>
        <time>2018-12-29T13:16:45Z</time>
      </trkpt>
      <trkpt lat="41.32272488437593" lon="1.602694652974606">
        <ele>67.599998474121094</ele>
        <time>2018-12-29T13:16:46Z</time>
      </trkpt>
      <trkpt lat="41.322812642902136" lon="1.60276179201901">
        <ele>67.199996948242187</ele>
        <time>2018-12-29T13:16:47Z</time>
      </trkpt>
      <trkpt lat="41.322881123051047" lon="1.602861788123846">
        <ele>66.599998474121094</ele>
        <time>2018-12-29T13:16:48Z</time>
      </trkpt>
      <trkpt lat="41.32292227819562" lon="1.602984080091119">
        <ele>66.199996948242187</ele>
        <time>2018-12-29T13:16:49Z</time>
      </trkpt>
      <trkpt lat="41.322931917384267" lon="1.603112909942865">
        <ele>65.400001525878906</ele>
        <time>2018-12-29T13:16:50Z</time>
      </trkpt>
      <trkpt lat="41.322913309559226" lon="1.603243416175246">
        <ele>64.800003051757812</ele>
        <time>2018-12-29T13:16:51Z</time>
      </trkpt>
      <trkpt lat="41.322881206870079" lon="1.603374760597944">
        <ele>64.400001525878906</ele>
        <time>2018-12-29T13:16:52Z</time>
      </trkpt>
      <trkpt lat="41.322842733934522" lon="1.603502668440342">
        <ele>64.400001525878906</ele>
        <time>2018-12-29T13:16:53Z</time>
      </trkpt>
      <trkpt lat="41.322806188836694" lon="1.603630492463708">
        <ele>63.799999237060547</ele>
        <time>2018-12-29T13:16:54Z</time>
      </trkpt>
      <trkpt lat="41.322769895195961" lon="1.603758400306106">
        <ele>63.400001525878906</ele>
        <time>2018-12-29T13:16:55Z</time>
      </trkpt>
      <trkpt lat="41.322733266279101" lon="1.60388320684433">
        <ele>62.799999237060547</ele>
        <time>2018-12-29T13:16:56Z</time>
      </trkpt>
      <trkpt lat="41.322661936283112" lon="1.604133155196905">
        <ele>62</ele>
        <time>2018-12-29T13:16:58Z</time>
      </trkpt>
      <trkpt lat="41.322626816108823" lon="1.604258129373193">
        <ele>61.599998474121094</ele>
        <time>2018-12-29T13:16:59Z</time>
      </trkpt>
      <trkpt lat="41.322591276839375" lon="1.604382013902068">
        <ele>61.400001525878906</ele>
        <time>2018-12-29T13:17:00Z</time>
      </trkpt>
      <trkpt lat="41.322523215785623" lon="1.604628525674343">
        <ele>60.400001525878906</ele>
        <time>2018-12-29T13:17:02Z</time>
      </trkpt>
      <trkpt lat="41.322456747293472" lon="1.604873025789857">
        <ele>60.200000762939453</ele>
        <time>2018-12-29T13:17:04Z</time>
      </trkpt>
      <trkpt lat="41.322389943525195" lon="1.605108976364136">
        <ele>59.400001525878906</ele>
        <time>2018-12-29T13:17:06Z</time>
      </trkpt>
      <trkpt lat="41.322321379557252" lon="1.605345094576478">
        <ele>59</ele>
        <time>2018-12-29T13:17:08Z</time>
      </trkpt>
      <trkpt lat="41.322255246341228" lon="1.605578530579805">
        <ele>58.599998474121094</ele>
        <time>2018-12-29T13:17:10Z</time>
      </trkpt>
      <trkpt lat="41.322196153923869" lon="1.605812553316355">
        <ele>58.200000762939453</ele>
        <time>2018-12-29T13:17:12Z</time>
      </trkpt>
      <trkpt lat="41.322179641574621" lon="1.605928977951407">
        <ele>58.400001525878906</ele>
        <time>2018-12-29T13:17:13Z</time>
      </trkpt>
      <trkpt lat="41.322171846404672" lon="1.606048420071602">
        <ele>58.400001525878906</ele>
        <time>2018-12-29T13:17:14Z</time>
      </trkpt>
      <trkpt lat="41.322178887203336" lon="1.606286130845547">
        <ele>58</ele>
        <time>2018-12-29T13:17:16Z</time>
      </trkpt>
      <trkpt lat="41.322189113125205" lon="1.606402387842536">
        <ele>57.799999237060547</ele>
        <time>2018-12-29T13:17:17Z</time>
      </trkpt>
      <trkpt lat="41.322199339047074" lon="1.606516800820828">
        <ele>57.599998474121094</ele>
        <time>2018-12-29T13:17:18Z</time>
      </trkpt>
      <trkpt lat="41.322216438129544" lon="1.60674462094903">
        <ele>57.200000762939453</ele>
        <time>2018-12-29T13:17:20Z</time>
      </trkpt>
      <trkpt lat="41.322232028469443" lon="1.606966489925981">
        <ele>57</ele>
        <time>2018-12-29T13:17:22Z</time>
      </trkpt>
      <trkpt lat="41.322250301018357" lon="1.607184503227472">
        <ele>56.799999237060547</ele>
        <time>2018-12-29T13:17:24Z</time>
      </trkpt>
      <trkpt lat="41.322268573567271" lon="1.607398074120283">
        <ele>56.200000762939453</ele>
        <time>2018-12-29T13:17:26Z</time>
      </trkpt>
      <trkpt lat="41.322276201099157" lon="1.607504775747657">
        <ele>56</ele>
        <time>2018-12-29T13:17:27Z</time>
      </trkpt>
      <trkpt lat="41.322284750640392" lon="1.607611393555999">
        <ele>56</ele>
        <time>2018-12-29T13:17:28Z</time>
      </trkpt>
      <trkpt lat="41.322300340980291" lon="1.607825886458159">
        <ele>55.799999237060547</ele>
        <time>2018-12-29T13:17:30Z</time>
      </trkpt>
      <trkpt lat="41.322314338758588" lon="1.608039457350969">
        <ele>55.200000762939453</ele>
        <time>2018-12-29T13:17:32Z</time>
      </trkpt>
      <trkpt lat="41.322332192212343" lon="1.608253279700875">
        <ele>55</ele>
        <time>2018-12-29T13:17:34Z</time>
      </trkpt>
      <trkpt lat="41.322345435619354" lon="1.608469532802701">
        <ele>55</ele>
        <time>2018-12-29T13:17:36Z</time>
      </trkpt>
      <trkpt lat="41.322357086464763" lon="1.608685282990336">
        <ele>54.799999237060547</ele>
        <time>2018-12-29T13:17:38Z</time>
      </trkpt>
      <trkpt lat="41.322361193597317" lon="1.60890094935894">
        <ele>54.599998474121094</ele>
        <time>2018-12-29T13:17:40Z</time>
      </trkpt>
      <trkpt lat="41.322361193597317" lon="1.609102869406343">
        <ele>54.599998474121094</ele>
        <time>2018-12-29T13:17:42Z</time>
      </trkpt>
      <trkpt lat="41.322348369285464" lon="1.609289115294814">
        <ele>55.200000762939453</ele>
        <time>2018-12-29T13:17:44Z</time>
      </trkpt>
      <trkpt lat="41.32232716307044" lon="1.60945457406342">
        <ele>56.200000762939453</ele>
        <time>2018-12-29T13:17:46Z</time>
      </trkpt>
      <trkpt lat="41.322308387607336" lon="1.6096006706357">
        <ele>57.200000762939453</ele>
        <time>2018-12-29T13:17:48Z</time>
      </trkpt>
      <trkpt lat="41.322291288524866" lon="1.609733691439033">
        <ele>58.400001525878906</ele>
        <time>2018-12-29T13:17:50Z</time>
      </trkpt>
      <trkpt lat="41.322270585224032" lon="1.609862269833684">
        <ele>59.400001525878906</ele>
        <time>2018-12-29T13:17:52Z</time>
      </trkpt>
      <trkpt lat="41.322263712063432" lon="1.60992119461298">
        <ele>59.599998474121094</ele>
        <time>2018-12-29T13:17:53Z</time>
      </trkpt>
      <trkpt lat="41.32225725799799" lon="1.609981376677752">
        <ele>59.799999237060547</ele>
        <time>2018-12-29T13:17:54Z</time>
      </trkpt>
      <trkpt lat="41.32224946282804" lon="1.610091514885426">
        <ele>60.599998474121094</ele>
        <time>2018-12-29T13:17:56Z</time>
      </trkpt>
      <trkpt lat="41.322246193885803" lon="1.610140213742852">
        <ele>60.799999237060547</ele>
        <time>2018-12-29T13:17:58Z</time>
      </trkpt>
      <trkpt lat="41.322255078703165" lon="1.61019385792315">
        <ele>61.200000762939453</ele>
        <time>2018-12-29T13:17:59Z</time>
      </trkpt>
      <trkpt lat="41.322268322110176" lon="1.610247753560543">
        <ele>61.599998474121094</ele>
        <time>2018-12-29T13:18:00Z</time>
      </trkpt>
      <trkpt lat="41.322288438677788" lon="1.61030039191246">
        <ele>61.799999237060547</ele>
        <time>2018-12-29T13:18:01Z</time>
      </trkpt>
      <trkpt lat="41.322310566902161" lon="1.610353700816631">
        <ele>61.799999237060547</ele>
        <time>2018-12-29T13:18:02Z</time>
      </trkpt>
      <trkpt lat="41.322367312386632" lon="1.610461240634322">
        <ele>61.599998474121094</ele>
        <time>2018-12-29T13:18:04Z</time>
      </trkpt>
      <trkpt lat="41.322398744523525" lon="1.610516058281064">
        <ele>61.400001525878906</ele>
        <time>2018-12-29T13:18:05Z</time>
      </trkpt>
      <trkpt lat="41.322430511936545" lon="1.610574563965201">
        <ele>61.200000762939453</ele>
        <time>2018-12-29T13:18:06Z</time>
      </trkpt>
      <trkpt lat="41.322495555505157" lon="1.610696101561189">
        <ele>60.799999237060547</ele>
        <time>2018-12-29T13:18:08Z</time>
      </trkpt>
      <trkpt lat="41.322564287111163" lon="1.610818142071366">
        <ele>60.400001525878906</ele>
        <time>2018-12-29T13:18:10Z</time>
      </trkpt>
      <trkpt lat="41.322625055909157" lon="1.610950995236635">
        <ele>60</ele>
        <time>2018-12-29T13:18:12Z</time>
      </trkpt>
      <trkpt lat="41.322679622098804" lon="1.61109147593379">
        <ele>59.799999237060547</ele>
        <time>2018-12-29T13:18:14Z</time>
      </trkpt>
      <trkpt lat="41.322731422260404" lon="1.611227262765169">
        <ele>59.799999237060547</ele>
        <time>2018-12-29T13:18:16Z</time>
      </trkpt>
      <trkpt lat="41.322783976793289" lon="1.6113655641675">
        <ele>59.599998474121094</ele>
        <time>2018-12-29T13:18:18Z</time>
      </trkpt>
      <trkpt lat="41.322830747812986" lon="1.611508643254638">
        <ele>59.599998474121094</ele>
        <time>2018-12-29T13:18:20Z</time>
      </trkpt>
      <trkpt lat="41.32287684828043" lon="1.61165339872241">
        <ele>59.400001525878906</ele>
        <time>2018-12-29T13:18:22Z</time>
      </trkpt>
      <trkpt lat="41.322895120829344" lon="1.611729757860303">
        <ele>59.200000762939453</ele>
        <time>2018-12-29T13:18:23Z</time>
      </trkpt>
      <trkpt lat="41.322910962626338" lon="1.611805111169815">
        <ele>59</ele>
        <time>2018-12-29T13:18:24Z</time>
      </trkpt>
      <trkpt lat="41.322936275973916" lon="1.611954141408205">
        <ele>59.200000762939453</ele>
        <time>2018-12-29T13:18:26Z</time>
      </trkpt>
      <trkpt lat="41.322964690625668" lon="1.612101746723056">
        <ele>59</ele>
        <time>2018-12-29T13:18:28Z</time>
      </trkpt>
      <trkpt lat="41.322977263480425" lon="1.612173579633236">
        <ele>59</ele>
        <time>2018-12-29T13:18:29Z</time>
      </trkpt>
      <trkpt lat="41.322992770001292" lon="1.612245161086321">
        <ele>59</ele>
        <time>2018-12-29T13:18:30Z</time>
      </trkpt>
      <trkpt lat="41.323021352291107" lon="1.612386479973793">
        <ele>58.799999237060547</ele>
        <time>2018-12-29T13:18:32Z</time>
      </trkpt>
      <trkpt lat="41.323053538799286" lon="1.612526122480631">
        <ele>58.799999237060547</ele>
        <time>2018-12-29T13:18:34Z</time>
      </trkpt>
      <trkpt lat="41.323091760277748" lon="1.612664256244898">
        <ele>58.799999237060547</ele>
        <time>2018-12-29T13:18:36Z</time>
      </trkpt>
      <trkpt lat="41.323110871016979" lon="1.612731562927365">
        <ele>58.799999237060547</ele>
        <time>2018-12-29T13:18:37Z</time>
      </trkpt>
      <trkpt lat="41.323130400851369" lon="1.612798282876611">
        <ele>58.599998474121094</ele>
        <time>2018-12-29T13:18:38Z</time>
      </trkpt>
      <trkpt lat="41.323167784139514" lon="1.612924262881279">
        <ele>58.799999237060547</ele>
        <time>2018-12-29T13:18:40Z</time>
      </trkpt>
      <trkpt lat="41.323206257075071" lon="1.613048482686281">
        <ele>59</ele>
        <time>2018-12-29T13:18:42Z</time>
      </trkpt>
      <trkpt lat="41.323241041973233" lon="1.613173289224505">
        <ele>59.400001525878906</ele>
        <time>2018-12-29T13:18:44Z</time>
      </trkpt>
      <trkpt lat="41.323277251794934" lon="1.613297006115317">
        <ele>59.599998474121094</ele>
        <time>2018-12-29T13:18:46Z</time>
      </trkpt>
      <trkpt lat="41.323296949267387" lon="1.613358361646533">
        <ele>59.400001525878906</ele>
        <time>2018-12-29T13:18:47Z</time>
      </trkpt>
      <trkpt lat="41.32331564091146" lon="1.613421812653542">
        <ele>59.599998474121094</ele>
        <time>2018-12-29T13:18:48Z</time>
      </trkpt>
      <trkpt lat="41.323348078876734" lon="1.613545781001449">
        <ele>59.799999237060547</ele>
        <time>2018-12-29T13:18:50Z</time>
      </trkpt>
      <trkpt lat="41.323384204879403" lon="1.613665223121643">
        <ele>60</ele>
        <time>2018-12-29T13:18:52Z</time>
      </trkpt>
      <trkpt lat="41.32341873832047" lon="1.613783240318298">
        <ele>59.799999237060547</ele>
        <time>2018-12-29T13:18:54Z</time>
      </trkpt>
      <trkpt lat="41.323454612866044" lon="1.613904358819127">
        <ele>59.799999237060547</ele>
        <time>2018-12-29T13:18:56Z</time>
      </trkpt>
      <trkpt lat="41.323490990325809" lon="1.614032853394747">
        <ele>59.599998474121094</ele>
        <time>2018-12-29T13:18:58Z</time>
      </trkpt>
      <trkpt lat="41.323525523766875" lon="1.614165622740984">
        <ele>59.400001525878906</ele>
        <time>2018-12-29T13:19:00Z</time>
      </trkpt>
      <trkpt lat="41.323565421625972" lon="1.614294033497572">
        <ele>59.400001525878906</ele>
        <time>2018-12-29T13:19:02Z</time>
      </trkpt>
      <trkpt lat="41.323606325313449" lon="1.614423282444477">
        <ele>59.400001525878906</ele>
        <time>2018-12-29T13:19:04Z</time>
      </trkpt>
      <trkpt lat="41.323624262586236" lon="1.614492014050484">
        <ele>59.400001525878906</ele>
        <time>2018-12-29T13:19:05Z</time>
      </trkpt>
      <trkpt lat="41.323642786592245" lon="1.614560158923268">
        <ele>59.400001525878906</ele>
        <time>2018-12-29T13:19:06Z</time>
      </trkpt>
      <trkpt lat="41.32368360646069" lon="1.614691587164998">
        <ele>59.400001525878906</ele>
        <time>2018-12-29T13:19:08Z</time>
      </trkpt>
      <trkpt lat="41.323719983920455" lon="1.614820249378681">
        <ele>59.200000762939453</ele>
        <time>2018-12-29T13:19:10Z</time>
      </trkpt>
      <trkpt lat="41.323762815445662" lon="1.614947067573667">
        <ele>59.200000762939453</ele>
        <time>2018-12-29T13:19:12Z</time>
      </trkpt>
      <trkpt lat="41.323792990297079" lon="1.615005489438772">
        <ele>59.400001525878906</ele>
        <time>2018-12-29T13:19:13Z</time>
      </trkpt>
      <trkpt lat="41.323830457404256" lon="1.615055277943611">
        <ele>59.400001525878906</ele>
        <time>2018-12-29T13:19:14Z</time>
      </trkpt>
      <trkpt lat="41.323918467387557" lon="1.615139851346612">
        <ele>59.200000762939453</ele>
        <time>2018-12-29T13:19:16Z</time>
      </trkpt>
      <trkpt lat="41.324019972234964" lon="1.615201290696859">
        <ele>59.200000762939453</ele>
        <time>2018-12-29T13:19:18Z</time>
      </trkpt>
      <trkpt lat="41.324071940034628" lon="1.615230292081833">
        <ele>59.200000762939453</ele>
        <time>2018-12-29T13:19:19Z</time>
      </trkpt>
      <trkpt lat="41.324123488739133" lon="1.61526289768517">
        <ele>59.200000762939453</ele>
        <time>2018-12-29T13:19:20Z</time>
      </trkpt>
      <trkpt lat="41.324176378548145" lon="1.615295503288508">
        <ele>59.200000762939453</ele>
        <time>2018-12-29T13:19:21Z</time>
      </trkpt>
      <trkpt lat="41.324230441823602" lon="1.615328276529908">
        <ele>59</ele>
        <time>2018-12-29T13:19:22Z</time>
      </trkpt>
      <trkpt lat="41.324340831488371" lon="1.615394158288837">
        <ele>58.599998474121094</ele>
        <time>2018-12-29T13:19:24Z</time>
      </trkpt>
      <trkpt lat="41.324455579742789" lon="1.615464985370636">
        <ele>58</ele>
        <time>2018-12-29T13:19:26Z</time>
      </trkpt>
      <trkpt lat="41.324571501463652" lon="1.615530448034406">
        <ele>57.599998474121094</ele>
        <time>2018-12-29T13:19:28Z</time>
      </trkpt>
      <trkpt lat="41.324629504233599" lon="1.61556389182806">
        <ele>57.400001525878906</ele>
        <time>2018-12-29T13:19:29Z</time>
      </trkpt>
      <trkpt lat="41.324688093736768" lon="1.615598676726222">
        <ele>57.200000762939453</ele>
        <time>2018-12-29T13:19:30Z</time>
      </trkpt>
      <trkpt lat="41.324808541685343" lon="1.615665731951594">
        <ele>57.200000762939453</ele>
        <time>2018-12-29T13:19:32Z</time>
      </trkpt>
      <trkpt lat="41.324867382645607" lon="1.615700265392661">
        <ele>57</ele>
        <time>2018-12-29T13:19:33Z</time>
      </trkpt>
      <trkpt lat="41.324927229434252" lon="1.615735637024045">
        <ele>56.799999237060547</ele>
        <time>2018-12-29T13:19:34Z</time>
      </trkpt>
      <trkpt lat="41.325047425925732" lon="1.615810571238399">
        <ele>56.400001525878906</ele>
        <time>2018-12-29T13:19:36Z</time>
      </trkpt>
      <trkpt lat="41.32516510784626" lon="1.615897910669446">
        <ele>56</ele>
        <time>2018-12-29T13:19:38Z</time>
      </trkpt>
      <trkpt lat="41.325273988768458" lon="1.616017268970609">
        <ele>55.400001525878906</ele>
        <time>2018-12-29T13:19:40Z</time>
      </trkpt>
      <trkpt lat="41.325363423675299" lon="1.616153055801988">
        <ele>54.599998474121094</ele>
        <time>2018-12-29T13:19:42Z</time>
      </trkpt>
      <trkpt lat="41.325446236878633" lon="1.616293452680111">
        <ele>54.400001525878906</ele>
        <time>2018-12-29T13:19:44Z</time>
      </trkpt>
      <trkpt lat="41.325528882443905" lon="1.616441812366247">
        <ele>54.200000762939453</ele>
        <time>2018-12-29T13:19:46Z</time>
      </trkpt>
      <trkpt lat="41.325610773637891" lon="1.616589669138193">
        <ele>53.799999237060547</ele>
        <time>2018-12-29T13:19:48Z</time>
      </trkpt>
      <trkpt lat="41.325642373412848" lon="1.61666426807642">
        <ele>53.799999237060547</ele>
        <time>2018-12-29T13:19:49Z</time>
      </trkpt>
      <trkpt lat="41.325649078935385" lon="1.61674833856523">
        <ele>53.400001525878906</ele>
        <time>2018-12-29T13:19:50Z</time>
      </trkpt>
      <trkpt lat="41.3255999609828" lon="1.616897201165557">
        <ele>53.400001525878906</ele>
        <time>2018-12-29T13:19:52Z</time>
      </trkpt>
      <trkpt lat="41.325559979304671" lon="1.616955203935504">
        <ele>53.400001525878906</ele>
        <time>2018-12-29T13:19:53Z</time>
      </trkpt>
      <trkpt lat="41.325516812503338" lon="1.6170106921345">
        <ele>53.400001525878906</ele>
        <time>2018-12-29T13:19:54Z</time>
      </trkpt>
      <trkpt lat="41.325475657358766" lon="1.617061318829656">
        <ele>53.200000762939453</ele>
        <time>2018-12-29T13:19:55Z</time>
      </trkpt>
      <trkpt lat="41.325437352061272" lon="1.61710599437356">
        <ele>53</ele>
        <time>2018-12-29T13:19:56Z</time>
      </trkpt>
      <trkpt lat="41.3254030700773" lon="1.617158129811287">
        <ele>52.799999237060547</ele>
        <time>2018-12-29T13:19:57Z</time>
      </trkpt>
      <trkpt lat="41.325368033722043" lon="1.617214623838663">
        <ele>52.599998474121094</ele>
        <time>2018-12-29T13:19:58Z</time>
      </trkpt>
      <trkpt lat="41.325297122821212" lon="1.617327444255352">
        <ele>52.400001525878906</ele>
        <time>2018-12-29T13:20:00Z</time>
      </trkpt>
      <trkpt lat="41.325261248275638" lon="1.617375137284398">
        <ele>52.400001525878906</ele>
        <time>2018-12-29T13:20:01Z</time>
      </trkpt>
      <trkpt lat="41.325224032625556" lon="1.617421992123127">
        <ele>52.200000762939453</ele>
        <time>2018-12-29T13:20:02Z</time>
      </trkpt>
      <trkpt lat="41.325147338211536" lon="1.617515785619617">
        <ele>52.200000762939453</ele>
        <time>2018-12-29T13:20:04Z</time>
      </trkpt>
      <trkpt lat="41.325109619647264" lon="1.617566663771868">
        <ele>52.200000762939453</ele>
        <time>2018-12-29T13:20:05Z</time>
      </trkpt>
      <trkpt lat="41.325067039579153" lon="1.617613770067692">
        <ele>52</ele>
        <time>2018-12-29T13:20:06Z</time>
      </trkpt>
      <trkpt lat="41.324989004060626" lon="1.617722818627954">
        <ele>51.799999237060547</ele>
        <time>2018-12-29T13:20:08Z</time>
      </trkpt>
      <trkpt lat="41.324908537790179" lon="1.617837818339467">
        <ele>51.599998474121094</ele>
        <time>2018-12-29T13:20:10Z</time>
      </trkpt>
      <trkpt lat="41.32486704736948" lon="1.617896324023604">
        <ele>51.400001525878906</ele>
        <time>2018-12-29T13:20:11Z</time>
      </trkpt>
      <trkpt lat="41.324824886396527" lon="1.617955584079027">
        <ele>51.200000762939453</ele>
        <time>2018-12-29T13:20:12Z</time>
      </trkpt>
      <trkpt lat="41.324739307165146" lon="1.618075696751475">
        <ele>50.799999237060547</ele>
        <time>2018-12-29T13:20:14Z</time>
      </trkpt>
      <trkpt lat="41.324653141200542" lon="1.618200670927763">
        <ele>50.599998474121094</ele>
        <time>2018-12-29T13:20:16Z</time>
      </trkpt>
      <trkpt lat="41.32456018589437" lon="1.618325896561146">
        <ele>50.599998474121094</ele>
        <time>2018-12-29T13:20:18Z</time>
      </trkpt>
      <trkpt lat="41.32446588948369" lon="1.618450870737433">
        <ele>50.200000762939453</ele>
        <time>2018-12-29T13:20:20Z</time>
      </trkpt>
      <trkpt lat="41.324420627206564" lon="1.618521278724074">
        <ele>50.200000762939453</ele>
        <time>2018-12-29T13:20:21Z</time>
      </trkpt>
      <trkpt lat="41.324373772367835" lon="1.618591099977493">
        <ele>50.200000762939453</ele>
        <time>2018-12-29T13:20:22Z</time>
      </trkpt>
      <trkpt lat="41.324284505099058" lon="1.618740046396852">
        <ele>49.799999237060547</ele>
        <time>2018-12-29T13:20:24Z</time>
      </trkpt>
      <trkpt lat="41.324192136526108" lon="1.618884298950434">
        <ele>49.599998474121094</ele>
        <time>2018-12-29T13:20:26Z</time>
      </trkpt>
      <trkpt lat="41.324147880077362" lon="1.618961663916707">
        <ele>49.599998474121094</ele>
        <time>2018-12-29T13:20:27Z</time>
      </trkpt>
      <trkpt lat="41.324101947247982" lon="1.61903265863657">
        <ele>49.200000762939453</ele>
        <time>2018-12-29T13:20:28Z</time>
      </trkpt>
      <trkpt lat="41.324055343866348" lon="1.619106084108353">
        <ele>49</ele>
        <time>2018-12-29T13:20:29Z</time>
      </trkpt>
      <trkpt lat="41.32400706410408" lon="1.619179174304009">
        <ele>48.799999237060547</ele>
        <time>2018-12-29T13:20:30Z</time>
      </trkpt>
      <trkpt lat="41.323911175131798" lon="1.619330467656255">
        <ele>48.599998474121094</ele>
        <time>2018-12-29T13:20:32Z</time>
      </trkpt>
      <trkpt lat="41.323815956711769" lon="1.61947681568563">
        <ele>48.400001525878906</ele>
        <time>2018-12-29T13:20:34Z</time>
      </trkpt>
      <trkpt lat="41.323724258691072" lon="1.619616793468595">
        <ele>48</ele>
        <time>2018-12-29T13:20:36Z</time>
      </trkpt>
      <trkpt lat="41.323678577318788" lon="1.619684854522348">
        <ele>47.799999237060547</ele>
        <time>2018-12-29T13:20:37Z</time>
      </trkpt>
      <trkpt lat="41.323635494336486" lon="1.619754256680608">
        <ele>47.799999237060547</ele>
        <time>2018-12-29T13:20:38Z</time>
      </trkpt>
      <trkpt lat="41.323546646162868" lon="1.619897251948714">
        <ele>47.400001525878906</ele>
        <time>2018-12-29T13:20:40Z</time>
      </trkpt>
      <trkpt lat="41.323454026132822" lon="1.62003924138844">
        <ele>47.400001525878906</ele>
        <time>2018-12-29T13:20:42Z</time>
      </trkpt>
      <trkpt lat="41.323361406102777" lon="1.620184583589435">
        <ele>47.200000762939453</ele>
        <time>2018-12-29T13:20:44Z</time>
      </trkpt>
      <trkpt lat="41.323268283158541" lon="1.620326153934002">
        <ele>47</ele>
        <time>2018-12-29T13:20:46Z</time>
      </trkpt>
      <trkpt lat="41.323223523795605" lon="1.620394382625818">
        <ele>46.799999237060547</ele>
        <time>2018-12-29T13:20:47Z</time>
      </trkpt>
      <trkpt lat="41.323177088052034" lon="1.620462024584413">
        <ele>46.799999237060547</ele>
        <time>2018-12-29T13:20:48Z</time>
      </trkpt>
      <trkpt lat="41.323084132745862" lon="1.620603427290916">
        <ele>46.200000762939453</ele>
        <time>2018-12-29T13:20:50Z</time>
      </trkpt>
      <trkpt lat="41.322992015630007" lon="1.62074726074934">
        <ele>45.599998474121094</ele>
        <time>2018-12-29T13:20:52Z</time>
      </trkpt>
      <trkpt lat="41.322900233790278" lon="1.620887825265527">
        <ele>45.200000762939453</ele>
        <time>2018-12-29T13:20:54Z</time>
      </trkpt>
      <trkpt lat="41.322800572961569" lon="1.621024617925286">
        <ele>45</ele>
        <time>2018-12-29T13:20:56Z</time>
      </trkpt>
      <trkpt lat="41.322752125561237" lon="1.62109418772161">
        <ele>44.599998474121094</ele>
        <time>2018-12-29T13:20:57Z</time>
      </trkpt>
      <trkpt lat="41.322704516351223" lon="1.621165266260505">
        <ele>44.599998474121094</ele>
        <time>2018-12-29T13:20:58Z</time>
      </trkpt>
      <trkpt lat="41.322610639035702" lon="1.62130918353796">
        <ele>45</ele>
        <time>2018-12-29T13:21:00Z</time>
      </trkpt>
      <trkpt lat="41.322514414787292" lon="1.621456956490874">
        <ele>45</ele>
        <time>2018-12-29T13:21:02Z</time>
      </trkpt>
      <trkpt lat="41.322414418682456" lon="1.621607495471835">
        <ele>44.400001525878906</ele>
        <time>2018-12-29T13:21:04Z</time>
      </trkpt>
      <trkpt lat="41.322314003482461" lon="1.621760046109557">
        <ele>44.400001525878906</ele>
        <time>2018-12-29T13:21:06Z</time>
      </trkpt>
      <trkpt lat="41.322262538596988" lon="1.621835818514228">
        <ele>44.400001525878906</ele>
        <time>2018-12-29T13:21:07Z</time>
      </trkpt>
      <trkpt lat="41.322210989892483" lon="1.621911926195025">
        <ele>44.400001525878906</ele>
        <time>2018-12-29T13:21:08Z</time>
      </trkpt>
      <trkpt lat="41.322116106748581" lon="1.622060956433415">
        <ele>44.200000762939453</ele>
        <time>2018-12-29T13:21:10Z</time>
      </trkpt>
      <trkpt lat="41.322024073451757" lon="1.622213087975979">
        <ele>43.799999237060547</ele>
        <time>2018-12-29T13:21:12Z</time>
      </trkpt>
      <trkpt lat="41.32197923026979" lon="1.622289950028062">
        <ele>43.400001525878906</ele>
        <time>2018-12-29T13:21:13Z</time>
      </trkpt>
      <trkpt lat="41.321934722363949" lon="1.622366979718208">
        <ele>43.200000762939453</ele>
        <time>2018-12-29T13:21:14Z</time>
      </trkpt>
      <trkpt lat="41.321843108162284" lon="1.622518356889486">
        <ele>43</ele>
        <time>2018-12-29T13:21:16Z</time>
      </trkpt>
      <trkpt lat="41.321748225018382" lon="1.622671661898494">
        <ele>43</ele>
        <time>2018-12-29T13:21:18Z</time>
      </trkpt>
      <trkpt lat="41.321652419865131" lon="1.622826894745231">
        <ele>43.200000762939453</ele>
        <time>2018-12-29T13:21:20Z</time>
      </trkpt>
      <trkpt lat="41.32156147621572" lon="1.622981708496809">
        <ele>43.200000762939453</ele>
        <time>2018-12-29T13:21:22Z</time>
      </trkpt>
      <trkpt lat="41.321469275280833" lon="1.623139539733529">
        <ele>42.799999237060547</ele>
        <time>2018-12-29T13:21:24Z</time>
      </trkpt>
      <trkpt lat="41.321376487612724" lon="1.623298963531852">
        <ele>42.599998474121094</ele>
        <time>2018-12-29T13:21:26Z</time>
      </trkpt>
      <trkpt lat="41.321282694116235" lon="1.623454699292779">
        <ele>42.599998474121094</ele>
        <time>2018-12-29T13:21:28Z</time>
      </trkpt>
      <trkpt lat="41.321190996095538" lon="1.62360331043601">
        <ele>42.400001525878906</ele>
        <time>2018-12-29T13:21:30Z</time>
      </trkpt>
      <trkpt lat="41.321099549531937" lon="1.623754184693098">
        <ele>42.200000762939453</ele>
        <time>2018-12-29T13:21:32Z</time>
      </trkpt>
      <trkpt lat="41.321013886481524" lon="1.623902460560203">
        <ele>41.799999237060547</ele>
        <time>2018-12-29T13:21:34Z</time>
      </trkpt>
      <trkpt lat="41.320924200117588" lon="1.624052664265037">
        <ele>41.400001525878906</ele>
        <time>2018-12-29T13:21:36Z</time>
      </trkpt>
      <trkpt lat="41.320877512916923" lon="1.624128939583898">
        <ele>41.400001525878906</ele>
        <time>2018-12-29T13:21:37Z</time>
      </trkpt>
      <trkpt lat="41.320830322802067" lon="1.624202029779553">
        <ele>41.400001525878906</ele>
        <time>2018-12-29T13:21:38Z</time>
      </trkpt>
      <trkpt lat="41.320739798247814" lon="1.624350221827626">
        <ele>41.200000762939453</ele>
        <time>2018-12-29T13:21:40Z</time>
      </trkpt>
      <trkpt lat="41.32065262645483" lon="1.624495312571526">
        <ele>40.799999237060547</ele>
        <time>2018-12-29T13:21:42Z</time>
      </trkpt>
      <trkpt lat="41.320565370842814" lon="1.62463964894414">
        <ele>41</ele>
        <time>2018-12-29T13:21:44Z</time>
      </trkpt>
      <trkpt lat="41.320523377507925" lon="1.624710895121098">
        <ele>41</ele>
        <time>2018-12-29T13:21:45Z</time>
      </trkpt>
      <trkpt lat="41.320480378344655" lon="1.624782895669341">
        <ele>40.799999237060547</ele>
        <time>2018-12-29T13:21:46Z</time>
      </trkpt>
      <trkpt lat="41.320399912074208" lon="1.624915497377515">
        <ele>41</ele>
        <time>2018-12-29T13:21:48Z</time>
      </trkpt>
      <trkpt lat="41.32032036781311" lon="1.625042818486691">
        <ele>41</ele>
        <time>2018-12-29T13:21:50Z</time>
      </trkpt>
      <trkpt lat="41.320284074172378" lon="1.625108532607555">
        <ele>40.599998474121094</ele>
        <time>2018-12-29T13:21:51Z</time>
      </trkpt>
      <trkpt lat="41.320243757218122" lon="1.625168211758137">
        <ele>40.400001525878906</ele>
        <time>2018-12-29T13:21:52Z</time>
      </trkpt>
      <trkpt lat="41.320201680064201" lon="1.625232165679336">
        <ele>40.200000762939453</ele>
        <time>2018-12-29T13:21:53Z</time>
      </trkpt>
      <trkpt lat="41.320161614567041" lon="1.625295532867312">
        <ele>40</ele>
        <time>2018-12-29T13:21:54Z</time>
      </trkpt>
      <trkpt lat="41.320087602362037" lon="1.625429224222899">
        <ele>40</ele>
        <time>2018-12-29T13:21:56Z</time>
      </trkpt>
      <trkpt lat="41.320050302892923" lon="1.62549720145762">
        <ele>39.799999237060547</ele>
        <time>2018-12-29T13:21:57Z</time>
      </trkpt>
      <trkpt lat="41.320011662319303" lon="1.62556073628366">
        <ele>40</ele>
        <time>2018-12-29T13:21:58Z</time>
      </trkpt>
      <trkpt lat="41.319932118058205" lon="1.625688811764121">
        <ele>40.200000762939453</ele>
        <time>2018-12-29T13:22:00Z</time>
      </trkpt>
      <trkpt lat="41.319851232692599" lon="1.625817893072963">
        <ele>40.200000762939453</ele>
        <time>2018-12-29T13:22:02Z</time>
      </trkpt>
      <trkpt lat="41.319772778078914" lon="1.625954434275627">
        <ele>40.200000762939453</ele>
        <time>2018-12-29T13:22:04Z</time>
      </trkpt>
      <trkpt lat="41.319733131676912" lon="1.626024171710014">
        <ele>40</ele>
        <time>2018-12-29T13:22:05Z</time>
      </trkpt>
      <trkpt lat="41.319690467789769" lon="1.62609675899148">
        <ele>39.799999237060547</ele>
        <time>2018-12-29T13:22:06Z</time>
      </trkpt>
      <trkpt lat="41.319607989862561" lon="1.626235982403159">
        <ele>39.400001525878906</ele>
        <time>2018-12-29T13:22:08Z</time>
      </trkpt>
      <trkpt lat="41.319522662088275" lon="1.626375624909997">
        <ele>39.200000762939453</ele>
        <time>2018-12-29T13:22:10Z</time>
      </trkpt>
      <trkpt lat="41.319479160010815" lon="1.626447625458241">
        <ele>39</ele>
        <time>2018-12-29T13:22:11Z</time>
      </trkpt>
      <trkpt lat="41.31943641230464" lon="1.626522056758404">
        <ele>39</ele>
        <time>2018-12-29T13:22:12Z</time>
      </trkpt>
      <trkpt lat="41.319392574951053" lon="1.626596571877599">
        <ele>39</ele>
        <time>2018-12-29T13:22:13Z</time>
      </trkpt>
      <trkpt lat="41.319346474483609" lon="1.626670500263572">
        <ele>39</ele>
        <time>2018-12-29T13:22:14Z</time>
      </trkpt>
      <trkpt lat="41.319253016263247" lon="1.626822631806135">
        <ele>38.400001525878906</ele>
        <time>2018-12-29T13:22:16Z</time>
      </trkpt>
      <trkpt lat="41.31916131824255" lon="1.626978116109967">
        <ele>37.799999237060547</ele>
        <time>2018-12-29T13:22:18Z</time>
      </trkpt>
      <trkpt lat="41.319068698212504" lon="1.627134019508958">
        <ele>37.599998474121094</ele>
        <time>2018-12-29T13:22:20Z</time>
      </trkpt>
      <trkpt lat="41.319021340459585" lon="1.627211468294263">
        <ele>37.400001525878906</ele>
        <time>2018-12-29T13:22:21Z</time>
      </trkpt>
      <trkpt lat="41.318974401801825" lon="1.627288833260536">
        <ele>37.200000762939453</ele>
        <time>2018-12-29T13:22:22Z</time>
      </trkpt>
      <trkpt lat="41.31888329051435" lon="1.627443814650178">
        <ele>37</ele>
        <time>2018-12-29T13:22:24Z</time>
      </trkpt>
      <trkpt lat="41.318790251389146" lon="1.627595024183393">
        <ele>37</ele>
        <time>2018-12-29T13:22:26Z</time>
      </trkpt>
      <trkpt lat="41.318746330216527" lon="1.627671299502254">
        <ele>36.799999237060547</ele>
        <time>2018-12-29T13:22:27Z</time>
      </trkpt>
      <trkpt lat="41.318701319396496" lon="1.627747239544988">
        <ele>36.599998474121094</ele>
        <time>2018-12-29T13:22:28Z</time>
      </trkpt>
      <trkpt lat="41.31861113011837" lon="1.627901215106249">
        <ele>36.200000762939453</ele>
        <time>2018-12-29T13:22:30Z</time>
      </trkpt>
      <trkpt lat="41.318566286936402" lon="1.62797698751092">
        <ele>36</ele>
        <time>2018-12-29T13:22:31Z</time>
      </trkpt>
      <trkpt lat="41.318519348278642" lon="1.628053011372685">
        <ele>35.799999237060547</ele>
        <time>2018-12-29T13:22:32Z</time>
      </trkpt>
      <trkpt lat="41.318474169820547" lon="1.628128448501229">
        <ele>35.599998474121094</ele>
        <time>2018-12-29T13:22:33Z</time>
      </trkpt>
      <trkpt lat="41.318429242819548" lon="1.62820614874363">
        <ele>35.599998474121094</ele>
        <time>2018-12-29T13:22:34Z</time>
      </trkpt>
      <trkpt lat="41.318339388817549" lon="1.628353502601385">
        <ele>35</ele>
        <time>2018-12-29T13:22:36Z</time>
      </trkpt>
      <trkpt lat="41.318250289186835" lon="1.628500521183014">
        <ele>35</ele>
        <time>2018-12-29T13:22:38Z</time>
      </trkpt>
      <trkpt lat="41.318163285031915" lon="1.628652820363641">
        <ele>35</ele>
        <time>2018-12-29T13:22:40Z</time>
      </trkpt>
      <trkpt lat="41.318119280040264" lon="1.628727251663804">
        <ele>34.799999237060547</ele>
        <time>2018-12-29T13:22:41Z</time>
      </trkpt>
      <trkpt lat="41.318073850125074" lon="1.628802688792348">
        <ele>34.599998474121094</ele>
        <time>2018-12-29T13:22:42Z</time>
      </trkpt>
      <trkpt lat="41.318029258400202" lon="1.628878125920892">
        <ele>34.599998474121094</ele>
        <time>2018-12-29T13:22:43Z</time>
      </trkpt>
      <trkpt lat="41.317982487380505" lon="1.628953060135245">
        <ele>34.599998474121094</ele>
        <time>2018-12-29T13:22:44Z</time>
      </trkpt>
      <trkpt lat="41.317891543731093" lon="1.629109550267458">
        <ele>34.200000762939453</ele>
        <time>2018-12-29T13:22:46Z</time>
      </trkpt>
      <trkpt lat="41.317798839882016" lon="1.629269979894161">
        <ele>33.799999237060547</ele>
        <time>2018-12-29T13:22:48Z</time>
      </trkpt>
      <trkpt lat="41.317704962566495" lon="1.629429319873452">
        <ele>33.400001525878906</ele>
        <time>2018-12-29T13:22:50Z</time>
      </trkpt>
      <trkpt lat="41.317610163241625" lon="1.629588324576616">
        <ele>33.200000762939453</ele>
        <time>2018-12-29T13:22:52Z</time>
      </trkpt>
      <trkpt lat="41.317519387230277" lon="1.629741881042719">
        <ele>32.599998474121094</ele>
        <time>2018-12-29T13:22:54Z</time>
      </trkpt>
      <trkpt lat="41.317472364753485" lon="1.629819916561246">
        <ele>32.400001525878906</ele>
        <time>2018-12-29T13:22:55Z</time>
      </trkpt>
      <trkpt lat="41.317425677552819" lon="1.629899377003312">
        <ele>32.200000762939453</ele>
        <time>2018-12-29T13:22:56Z</time>
      </trkpt>
      <trkpt lat="41.317330123856664" lon="1.630058297887445">
        <ele>32</ele>
        <time>2018-12-29T13:22:58Z</time>
      </trkpt>
      <trkpt lat="41.317284693941474" lon="1.630138847976923">
        <ele>31.799999237060547</ele>
        <time>2018-12-29T13:22:59Z</time>
      </trkpt>
      <trkpt lat="41.317240186035633" lon="1.630216548219323">
        <ele>31.799999237060547</ele>
        <time>2018-12-29T13:23:00Z</time>
      </trkpt>
      <trkpt lat="41.317146979272366" lon="1.630375469103456">
        <ele>31.600000381469727</ele>
        <time>2018-12-29T13:23:02Z</time>
      </trkpt>
      <trkpt lat="41.317055281251669" lon="1.630530618131161">
        <ele>31.600000381469727</ele>
        <time>2018-12-29T13:23:04Z</time>
      </trkpt>
      <trkpt lat="41.317009683698416" lon="1.630607228726149">
        <ele>31.399999618530273</ele>
        <time>2018-12-29T13:23:05Z</time>
      </trkpt>
      <trkpt lat="41.316964086145163" lon="1.630683336406946">
        <ele>31</ele>
        <time>2018-12-29T13:23:06Z</time>
      </trkpt>
      <trkpt lat="41.316920164972544" lon="1.630757851526141">
        <ele>30.799999237060547</ele>
        <time>2018-12-29T13:23:07Z</time>
      </trkpt>
      <trkpt lat="41.316877081990242" lon="1.630833121016622">
        <ele>31</ele>
        <time>2018-12-29T13:23:08Z</time>
      </trkpt>
      <trkpt lat="41.316789574921131" lon="1.63098550401628">
        <ele>31.200000762939453</ele>
        <time>2018-12-29T13:23:10Z</time>
      </trkpt>
      <trkpt lat="41.316700726747513" lon="1.631133025512099">
        <ele>30.799999237060547</ele>
        <time>2018-12-29T13:23:12Z</time>
      </trkpt>
      <trkpt lat="41.316612465307117" lon="1.631281720474362">
        <ele>30.200000762939453</ele>
        <time>2018-12-29T13:23:14Z</time>
      </trkpt>
      <trkpt lat="41.316568292677402" lon="1.631356654688716">
        <ele>30</ele>
        <time>2018-12-29T13:23:15Z</time>
      </trkpt>
      <trkpt lat="41.316523868590593" lon="1.631431505084038">
        <ele>30</ele>
        <time>2018-12-29T13:23:16Z</time>
      </trkpt>
      <trkpt lat="41.316438792273402" lon="1.631580535322428">
        <ele>29.799999237060547</ele>
        <time>2018-12-29T13:23:18Z</time>
      </trkpt>
      <trkpt lat="41.31635514087975" lon="1.631728727370501">
        <ele>29.600000381469727</ele>
        <time>2018-12-29T13:23:20Z</time>
      </trkpt>
      <trkpt lat="41.316273165866733" lon="1.6318772546947">
        <ele>29.600000381469727</ele>
        <time>2018-12-29T13:23:22Z</time>
      </trkpt>
      <trkpt lat="41.316193202510476" lon="1.632023015990853">
        <ele>29.200000762939453</ele>
        <time>2018-12-29T13:23:24Z</time>
      </trkpt>
      <trkpt lat="41.316151041537523" lon="1.632097195833921">
        <ele>28.799999237060547</ele>
        <time>2018-12-29T13:23:25Z</time>
      </trkpt>
      <trkpt lat="41.316107204183936" lon="1.63217288441956">
        <ele>28.799999237060547</ele>
        <time>2018-12-29T13:23:26Z</time>
      </trkpt>
      <trkpt lat="41.316022630780935" lon="1.632323758676648">
        <ele>28.600000381469727</ele>
        <time>2018-12-29T13:23:28Z</time>
      </trkpt>
      <trkpt lat="41.31593881174922" lon="1.632475974038243">
        <ele>28.399999618530273</ele>
        <time>2018-12-29T13:23:30Z</time>
      </trkpt>
      <trkpt lat="41.315897405147552" lon="1.632547387853265">
        <ele>28</ele>
        <time>2018-12-29T13:23:31Z</time>
      </trkpt>
      <trkpt lat="41.315857172012329" lon="1.632620310410857">
        <ele>27.799999237060547</ele>
        <time>2018-12-29T13:23:32Z</time>
      </trkpt>
      <trkpt lat="41.315777208656073" lon="1.632764814421535">
        <ele>27.799999237060547</ele>
        <time>2018-12-29T13:23:34Z</time>
      </trkpt>
      <trkpt lat="41.315737562254071" lon="1.632839078083634">
        <ele>27.399999618530273</ele>
        <time>2018-12-29T13:23:35Z</time>
      </trkpt>
      <trkpt lat="41.315696490928531" lon="1.632912755012512">
        <ele>27.200000762939453</ele>
        <time>2018-12-29T13:23:36Z</time>
      </trkpt>
      <trkpt lat="41.31561191752553" lon="1.633061785250902">
        <ele>27.200000762939453</ele>
        <time>2018-12-29T13:23:38Z</time>
      </trkpt>
      <trkpt lat="41.315536648035049" lon="1.633204780519009">
        <ele>27.200000762939453</ele>
        <time>2018-12-29T13:23:40Z</time>
      </trkpt>
      <trkpt lat="41.315458528697491" lon="1.633347691968083">
        <ele>27</ele>
        <time>2018-12-29T13:23:42Z</time>
      </trkpt>
      <trkpt lat="41.315416703000665" lon="1.633419441059232">
        <ele>26.799999237060547</ele>
        <time>2018-12-29T13:23:43Z</time>
      </trkpt>
      <trkpt lat="41.315374290570617" lon="1.633490100502968">
        <ele>26.799999237060547</ele>
        <time>2018-12-29T13:23:44Z</time>
      </trkpt>
      <trkpt lat="41.315288627520204" lon="1.63363921456039">
        <ele>26.600000381469727</ele>
        <time>2018-12-29T13:23:46Z</time>
      </trkpt>
      <trkpt lat="41.31520145572722" lon="1.633792268112302">
        <ele>26.399999618530273</ele>
        <time>2018-12-29T13:23:48Z</time>
      </trkpt>
      <trkpt lat="41.315114367753267" lon="1.633945489302278">
        <ele>25.799999237060547</ele>
        <time>2018-12-29T13:23:50Z</time>
      </trkpt>
      <trkpt lat="41.315031554549932" lon="1.634097788482904">
        <ele>25.200000762939453</ele>
        <time>2018-12-29T13:23:52Z</time>
      </trkpt>
      <trkpt lat="41.314945053309202" lon="1.634248495101929">
        <ele>24.799999237060547</ele>
        <time>2018-12-29T13:23:54Z</time>
      </trkpt>
      <trkpt lat="41.314900377765298" lon="1.634326782077551">
        <ele>24.799999237060547</ele>
        <time>2018-12-29T13:23:55Z</time>
      </trkpt>
      <trkpt lat="41.31485503166914" lon="1.634404398500919">
        <ele>24.600000381469727</ele>
        <time>2018-12-29T13:23:56Z</time>
      </trkpt>
      <trkpt lat="41.314766854047775" lon="1.63456030189991">
        <ele>24.200000762939453</ele>
        <time>2018-12-29T13:23:58Z</time>
      </trkpt>
      <trkpt lat="41.314676748588681" lon="1.634723413735628">
        <ele>24</ele>
        <time>2018-12-29T13:24:00Z</time>
      </trkpt>
      <trkpt lat="41.314630815759301" lon="1.634806310757995">
        <ele>24</ele>
        <time>2018-12-29T13:24:01Z</time>
      </trkpt>
      <trkpt lat="41.31458580493927" lon="1.634887866675854">
        <ele>23.799999237060547</ele>
        <time>2018-12-29T13:24:02Z</time>
      </trkpt>
      <trkpt lat="41.314544146880507" lon="1.634972775354981">
        <ele>23.200000762939453</ele>
        <time>2018-12-29T13:24:03Z</time>
      </trkpt>
      <trkpt lat="41.314500141888857" lon="1.635052906349301">
        <ele>22.799999237060547</ele>
        <time>2018-12-29T13:24:04Z</time>
      </trkpt>
      <trkpt lat="41.314414478838444" lon="1.635208893567324">
        <ele>23.200000762939453</ele>
        <time>2018-12-29T13:24:06Z</time>
      </trkpt>
      <trkpt lat="41.314330156892538" lon="1.635364461690188">
        <ele>23</ele>
        <time>2018-12-29T13:24:08Z</time>
      </trkpt>
      <trkpt lat="41.314240470528603" lon="1.635522125288844">
        <ele>22.799999237060547</ele>
        <time>2018-12-29T13:24:10Z</time>
      </trkpt>
      <trkpt lat="41.314148604869843" lon="1.635683560743928">
        <ele>22.399999618530273</ele>
        <time>2018-12-29T13:24:12Z</time>
      </trkpt>
      <trkpt lat="41.314059169963002" lon="1.635839464142919">
        <ele>22.200000762939453</ele>
        <time>2018-12-29T13:24:14Z</time>
      </trkpt>
      <trkpt lat="41.313971662893891" lon="1.635994613170624">
        <ele>22</ele>
        <time>2018-12-29T13:24:16Z</time>
      </trkpt>
      <trkpt lat="41.31388122215867" lon="1.636156048625708">
        <ele>21.600000381469727</ele>
        <time>2018-12-29T13:24:18Z</time>
      </trkpt>
      <trkpt lat="41.31378935649991" lon="1.636318657547236">
        <ele>21.200000762939453</ele>
        <time>2018-12-29T13:24:20Z</time>
      </trkpt>
      <trkpt lat="41.313698580488563" lon="1.636487971991301">
        <ele>21</ele>
        <time>2018-12-29T13:24:22Z</time>
      </trkpt>
      <trkpt lat="41.313606044277549" lon="1.636657873168588">
        <ele>20.399999618530273</ele>
        <time>2018-12-29T13:24:24Z</time>
      </trkpt>
      <trkpt lat="41.31351375952363" lon="1.636817213147879">
        <ele>20.399999618530273</ele>
        <time>2018-12-29T13:24:26Z</time>
      </trkpt>
      <trkpt lat="41.313468078151345" lon="1.636897595599294">
        <ele>19.799999237060547</ele>
        <time>2018-12-29T13:24:27Z</time>
      </trkpt>
      <trkpt lat="41.313422480598092" lon="1.636978480964899">
        <ele>19.799999237060547</ele>
        <time>2018-12-29T13:24:28Z</time>
      </trkpt>
      <trkpt lat="41.313333380967379" lon="1.637137904763222">
        <ele>20</ele>
        <time>2018-12-29T13:24:30Z</time>
      </trkpt>
      <trkpt lat="41.313242353498936" lon="1.637296238914132">
        <ele>19.200000762939453</ele>
        <time>2018-12-29T13:24:32Z</time>
      </trkpt>
      <trkpt lat="41.313153253868222" lon="1.63745834492147">
        <ele>19.399999618530273</ele>
        <time>2018-12-29T13:24:34Z</time>
      </trkpt>
      <trkpt lat="41.313062477856874" lon="1.637615924701095">
        <ele>19.200000762939453</ele>
        <time>2018-12-29T13:24:36Z</time>
      </trkpt>
      <trkpt lat="41.31302073597908" lon="1.637692367658019">
        <ele>19.200000762939453</ele>
        <time>2018-12-29T13:24:37Z</time>
      </trkpt>
      <trkpt lat="41.312980251386762" lon="1.637764954939485">
        <ele>19</ele>
        <time>2018-12-29T13:24:38Z</time>
      </trkpt>
      <trkpt lat="41.312901042401791" lon="1.637909542769194">
        <ele>18.799999237060547</ele>
        <time>2018-12-29T13:24:40Z</time>
      </trkpt>
      <trkpt lat="41.312816217541695" lon="1.638056728988886">
        <ele>18.399999618530273</ele>
        <time>2018-12-29T13:24:42Z</time>
      </trkpt>
      <trkpt lat="41.312729129567742" lon="1.638206513598561">
        <ele>18.200000762939453</ele>
        <time>2018-12-29T13:24:44Z</time>
      </trkpt>
      <trkpt lat="41.312685124576092" lon="1.638285974040628">
        <ele>18</ele>
        <time>2018-12-29T13:24:45Z</time>
      </trkpt>
      <trkpt lat="41.312642125412822" lon="1.638366440311074">
        <ele>17.799999237060547</ele>
        <time>2018-12-29T13:24:46Z</time>
      </trkpt>
      <trkpt lat="41.312552355229855" lon="1.638520332053304">
        <ele>17.600000381469727</ele>
        <time>2018-12-29T13:24:48Z</time>
      </trkpt>
      <trkpt lat="41.312466189265251" lon="1.638674810528755">
        <ele>17.399999618530273</ele>
        <time>2018-12-29T13:24:50Z</time>
      </trkpt>
      <trkpt lat="41.312383878976107" lon="1.638823756948113">
        <ele>17.600000381469727</ele>
        <time>2018-12-29T13:24:52Z</time>
      </trkpt>
      <trkpt lat="41.312307184562087" lon="1.638960801064968">
        <ele>18</ele>
        <time>2018-12-29T13:24:54Z</time>
      </trkpt>
      <trkpt lat="41.312234429642558" lon="1.639085607603192">
        <ele>18.399999618530273</ele>
        <time>2018-12-29T13:24:56Z</time>
      </trkpt>
      <trkpt lat="41.312151867896318" lon="1.639189291745424">
        <ele>18.799999237060547</ele>
        <time>2018-12-29T13:24:58Z</time>
      </trkpt>
      <trkpt lat="41.312110209837556" lon="1.639241091907024">
        <ele>19.200000762939453</ele>
        <time>2018-12-29T13:24:59Z</time>
      </trkpt>
      <trkpt lat="41.312073580920696" lon="1.639298591762781">
        <ele>19.399999618530273</ele>
        <time>2018-12-29T13:25:00Z</time>
      </trkpt>
      <trkpt lat="41.312042819336057" lon="1.639360534027219">
        <ele>19.600000381469727</ele>
        <time>2018-12-29T13:25:01Z</time>
      </trkpt>
      <trkpt lat="41.312018092721701" lon="1.639429097995162">
        <ele>19.600000381469727</ele>
        <time>2018-12-29T13:25:02Z</time>
      </trkpt>
      <trkpt lat="41.312003256753087" lon="1.639500679448247">
        <ele>19.799999237060547</ele>
        <time>2018-12-29T13:25:03Z</time>
      </trkpt>
      <trkpt lat="41.311996635049582" lon="1.639574859291315">
        <ele>20</ele>
        <time>2018-12-29T13:25:04Z</time>
      </trkpt>
      <trkpt lat="41.311991857364774" lon="1.639647278934717">
        <ele>19.799999237060547</ele>
        <time>2018-12-29T13:25:05Z</time>
      </trkpt>
      <trkpt lat="41.311982301995158" lon="1.639720788225532">
        <ele>19.600000381469727</ele>
        <time>2018-12-29T13:25:06Z</time>
      </trkpt>
      <trkpt lat="41.311966711655259" lon="1.639791615307331">
        <ele>19.600000381469727</ele>
        <time>2018-12-29T13:25:07Z</time>
      </trkpt>
      <trkpt lat="41.31194818764925" lon="1.639862358570099">
        <ele>19.600000381469727</ele>
        <time>2018-12-29T13:25:08Z</time>
      </trkpt>
      <trkpt lat="41.311921281740069" lon="1.639989595860243">
        <ele>19.600000381469727</ele>
        <time>2018-12-29T13:25:10Z</time>
      </trkpt>
      <trkpt lat="41.311902171000838" lon="1.640107361599803">
        <ele>19.600000381469727</ele>
        <time>2018-12-29T13:25:12Z</time>
      </trkpt>
      <trkpt lat="41.311890687793493" lon="1.640165951102972">
        <ele>19.600000381469727</ele>
        <time>2018-12-29T13:25:13Z</time>
      </trkpt>
      <trkpt lat="41.311872834339738" lon="1.640226719900966">
        <ele>19.600000381469727</ele>
        <time>2018-12-29T13:25:14Z</time>
      </trkpt>
      <trkpt lat="41.311828745529056" lon="1.640347503125668">
        <ele>19</ele>
        <time>2018-12-29T13:25:16Z</time>
      </trkpt>
      <trkpt lat="41.311810808256269" lon="1.640412798151374">
        <ele>18.600000381469727</ele>
        <time>2018-12-29T13:25:17Z</time>
      </trkpt>
      <trkpt lat="41.311801252886653" lon="1.640486055985093">
        <ele>18.600000381469727</ele>
        <time>2018-12-29T13:25:18Z</time>
      </trkpt>
      <trkpt lat="41.311815837398171" lon="1.640642881393433">
        <ele>18</ele>
        <time>2018-12-29T13:25:20Z</time>
      </trkpt>
      <trkpt lat="41.311835451051593" lon="1.640725107863545">
        <ele>17.600000381469727</ele>
        <time>2018-12-29T13:25:21Z</time>
      </trkpt>
      <trkpt lat="41.311853472143412" lon="1.640811022371054">
        <ele>17</ele>
        <time>2018-12-29T13:25:22Z</time>
      </trkpt>
      <trkpt lat="41.311867469921708" lon="1.640903223305941">
        <ele>16.600000381469727</ele>
        <time>2018-12-29T13:25:23Z</time>
      </trkpt>
      <trkpt lat="41.31187979131937" lon="1.640999615192413">
        <ele>16</ele>
        <time>2018-12-29T13:25:24Z</time>
      </trkpt>
      <trkpt lat="41.311894627287984" lon="1.641100868582726">
        <ele>15.800000190734863</ele>
        <time>2018-12-29T13:25:25Z</time>
      </trkpt>
      <trkpt lat="41.311912816017866" lon="1.641203043982387">
        <ele>15.199999809265137</ele>
        <time>2018-12-29T13:25:26Z</time>
      </trkpt>
      <trkpt lat="41.311951288953424" lon="1.641411501914263">
        <ele>13.399999618530273</ele>
        <time>2018-12-29T13:25:28Z</time>
      </trkpt>
      <trkpt lat="41.311996718868613" lon="1.641615265980363">
        <ele>12.399999618530273</ele>
        <time>2018-12-29T13:25:30Z</time>
      </trkpt>
      <trkpt lat="41.312055727466941" lon="1.64181693457067">
        <ele>12.199999809265137</ele>
        <time>2018-12-29T13:25:32Z</time>
      </trkpt>
      <trkpt lat="41.312083303928375" lon="1.641916092485189">
        <ele>11.800000190734863</ele>
        <time>2018-12-29T13:25:33Z</time>
      </trkpt>
      <trkpt lat="41.312113394960761" lon="1.642009047791362">
        <ele>11.600000381469727</ele>
        <time>2018-12-29T13:25:34Z</time>
      </trkpt>
      <trkpt lat="41.312168128788471" lon="1.642190096899867">
        <ele>11.600000381469727</ele>
        <time>2018-12-29T13:25:36Z</time>
      </trkpt>
      <trkpt lat="41.312217330560088" lon="1.642356896772981">
        <ele>11.800000190734863</ele>
        <time>2018-12-29T13:25:38Z</time>
      </trkpt>
      <trkpt lat="41.31223987787962" lon="1.642436692491174">
        <ele>12</ele>
        <time>2018-12-29T13:25:39Z</time>
      </trkpt>
      <trkpt lat="41.312259659171104" lon="1.642523109912872">
        <ele>12.199999809265137</ele>
        <time>2018-12-29T13:25:40Z</time>
      </trkpt>
      <trkpt lat="41.312305424362421" lon="1.642688820138574">
        <ele>12.199999809265137</ele>
        <time>2018-12-29T13:25:42Z</time>
      </trkpt>
      <trkpt lat="41.312356889247894" lon="1.642841706052423">
        <ele>12.600000381469727</ele>
        <time>2018-12-29T13:25:44Z</time>
      </trkpt>
      <trkpt lat="41.312382118776441" lon="1.64291437715292">
        <ele>12.800000190734863</ele>
        <time>2018-12-29T13:25:45Z</time>
      </trkpt>
      <trkpt lat="41.312414640560746" lon="1.642983192577958">
        <ele>12.600000381469727</ele>
        <time>2018-12-29T13:25:46Z</time>
      </trkpt>
      <trkpt lat="41.312494184821844" lon="1.643109172582626">
        <ele>13.199999809265137</ele>
        <time>2018-12-29T13:25:48Z</time>
      </trkpt>
      <trkpt lat="41.312534753233194" lon="1.643168600276113">
        <ele>13.600000381469727</ele>
        <time>2018-12-29T13:25:49Z</time>
      </trkpt>
      <trkpt lat="41.312578171491623" lon="1.64322417229414">
        <ele>13.800000190734863</ele>
        <time>2018-12-29T13:25:50Z</time>
      </trkpt>
      <trkpt lat="41.312668779864907" lon="1.64332970045507">
        <ele>15</ele>
        <time>2018-12-29T13:25:52Z</time>
      </trkpt>
      <trkpt lat="41.312757795676589" lon="1.643435060977936">
        <ele>15</ele>
        <time>2018-12-29T13:25:54Z</time>
      </trkpt>
      <trkpt lat="41.31284287199378" lon="1.643536062911153">
        <ele>15.600000381469727</ele>
        <time>2018-12-29T13:25:56Z</time>
      </trkpt>
      <trkpt lat="41.312885284423828" lon="1.643581409007311">
        <ele>16</ele>
        <time>2018-12-29T13:25:57Z</time>
      </trkpt>
      <trkpt lat="41.312927193939686" lon="1.643629437312484">
        <ele>16.399999618530273</ele>
        <time>2018-12-29T13:25:58Z</time>
      </trkpt>
      <trkpt lat="41.313010929152369" lon="1.643717782571912">
        <ele>17</ele>
        <time>2018-12-29T13:26:00Z</time>
      </trkpt>
      <trkpt lat="41.313050407916307" lon="1.643761117011309">
        <ele>17.399999618530273</ele>
        <time>2018-12-29T13:26:01Z</time>
      </trkpt>
      <trkpt lat="41.313090054318309" lon="1.643804619088769">
        <ele>17.799999237060547</ele>
        <time>2018-12-29T13:26:02Z</time>
      </trkpt>
      <trkpt lat="41.313165323808789" lon="1.643891120329499">
        <ele>18.399999618530273</ele>
        <time>2018-12-29T13:26:04Z</time>
      </trkpt>
      <trkpt lat="41.313203545287251" lon="1.64393269456923">
        <ele>18.799999237060547</ele>
        <time>2018-12-29T13:26:05Z</time>
      </trkpt>
      <trkpt lat="41.313240677118301" lon="1.643974436447024">
        <ele>19</ele>
        <time>2018-12-29T13:26:06Z</time>
      </trkpt>
      <trkpt lat="41.313308570533991" lon="1.644056914374232">
        <ele>19.399999618530273</ele>
        <time>2018-12-29T13:26:08Z</time>
      </trkpt>
      <trkpt lat="41.313376799225807" lon="1.644137883558869">
        <ele>20</ele>
        <time>2018-12-29T13:26:10Z</time>
      </trkpt>
      <trkpt lat="41.313444105908275" lon="1.644211392849684">
        <ele>20.399999618530273</ele>
        <time>2018-12-29T13:26:12Z</time>
      </trkpt>
      <trkpt lat="41.313476040959358" lon="1.644250368699431">
        <ele>20.600000381469727</ele>
        <time>2018-12-29T13:26:13Z</time>
      </trkpt>
      <trkpt lat="41.313504036515951" lon="1.644290266558528">
        <ele>20.799999237060547</ele>
        <time>2018-12-29T13:26:14Z</time>
      </trkpt>
      <trkpt lat="41.313566230237484" lon="1.64436855353415">
        <ele>21.200000762939453</ele>
        <time>2018-12-29T13:26:16Z</time>
      </trkpt>
      <trkpt lat="41.31361979059875" lon="1.644441308453679">
        <ele>21.600000381469727</ele>
        <time>2018-12-29T13:26:18Z</time>
      </trkpt>
      <trkpt lat="41.31364325992763" lon="1.644475841894746">
        <ele>21.799999237060547</ele>
        <time>2018-12-29T13:26:19Z</time>
      </trkpt>
      <trkpt lat="41.313663711771369" lon="1.644513225182891">
        <ele>22</ele>
        <time>2018-12-29T13:26:20Z</time>
      </trkpt>
      <trkpt lat="41.313682654872537" lon="1.644552201032639">
        <ele>22.200000762939453</ele>
        <time>2018-12-29T13:26:21Z</time>
      </trkpt>
      <trkpt lat="41.313700592145324" lon="1.644587656483054">
        <ele>22.600000381469727</ele>
        <time>2018-12-29T13:26:22Z</time>
      </trkpt>
      <trkpt lat="41.313726576045156" lon="1.644651358947158">
        <ele>23</ele>
        <time>2018-12-29T13:26:24Z</time>
      </trkpt>
      <trkpt lat="41.313737137243152" lon="1.644683545455337">
        <ele>23.200000762939453</ele>
        <time>2018-12-29T13:26:25Z</time>
      </trkpt>
      <trkpt lat="41.31374778226018" lon="1.64471598342061">
        <ele>23.399999618530273</ele>
        <time>2018-12-29T13:26:26Z</time>
      </trkpt>
      <trkpt lat="41.313764378428459" lon="1.644779769703746">
        <ele>23.799999237060547</ele>
        <time>2018-12-29T13:26:28Z</time>
      </trkpt>
      <trkpt lat="41.313777035102248" lon="1.644847160205245">
        <ele>24.200000762939453</ele>
        <time>2018-12-29T13:26:30Z</time>
      </trkpt>
      <trkpt lat="41.313782818615437" lon="1.64490801282227">
        <ele>24.399999618530273</ele>
        <time>2018-12-29T13:26:32Z</time>
      </trkpt>
      <trkpt lat="41.31379128433764" lon="1.644973391667008">
        <ele>24.600000381469727</ele>
        <time>2018-12-29T13:26:34Z</time>
      </trkpt>
      <trkpt lat="41.313800504431129" lon="1.645042542368174">
        <ele>24.799999237060547</ele>
        <time>2018-12-29T13:26:36Z</time>
      </trkpt>
      <trkpt lat="41.313808718696237" lon="1.645109849050641">
        <ele>25</ele>
        <time>2018-12-29T13:26:38Z</time>
      </trkpt>
      <trkpt lat="41.313813244923949" lon="1.645174138247967">
        <ele>25.600000381469727</ele>
        <time>2018-12-29T13:26:40Z</time>
      </trkpt>
      <trkpt lat="41.313817016780376" lon="1.645238427445293">
        <ele>25.799999237060547</ele>
        <time>2018-12-29T13:26:42Z</time>
      </trkpt>
      <trkpt lat="41.313822297379375" lon="1.645303722470999">
        <ele>26</ele>
        <time>2018-12-29T13:26:44Z</time>
      </trkpt>
      <trkpt lat="41.313827577978373" lon="1.645335741341114">
        <ele>26.200000762939453</ele>
        <time>2018-12-29T13:26:45Z</time>
      </trkpt>
      <trkpt lat="41.313833277672529" lon="1.645369185134769">
        <ele>26.200000762939453</ele>
        <time>2018-12-29T13:26:46Z</time>
      </trkpt>
      <trkpt lat="41.31384258158505" lon="1.645439760759473">
        <ele>26.200000762939453</ele>
        <time>2018-12-29T13:26:48Z</time>
      </trkpt>
      <trkpt lat="41.313846101984382" lon="1.645513772964478">
        <ele>26.399999618530273</ele>
        <time>2018-12-29T13:26:50Z</time>
      </trkpt>
      <trkpt lat="41.313848532736301" lon="1.645585522055626">
        <ele>26.600000381469727</ele>
        <time>2018-12-29T13:26:52Z</time>
      </trkpt>
      <trkpt lat="41.313849873840809" lon="1.645657354965806">
        <ele>27</ele>
        <time>2018-12-29T13:26:54Z</time>
      </trkpt>
      <trkpt lat="41.313858339563012" lon="1.645728936418891">
        <ele>27.399999618530273</ele>
        <time>2018-12-29T13:26:56Z</time>
      </trkpt>
      <trkpt lat="41.313865296542645" lon="1.645804373547435">
        <ele>27.399999618530273</ele>
        <time>2018-12-29T13:26:58Z</time>
      </trkpt>
      <trkpt lat="41.313876612111926" lon="1.645880481228232">
        <ele>27.600000381469727</ele>
        <time>2018-12-29T13:27:00Z</time>
      </trkpt>
      <trkpt lat="41.313882060348988" lon="1.645964216440916">
        <ele>27.600000381469727</ele>
        <time>2018-12-29T13:27:02Z</time>
      </trkpt>
      <trkpt lat="41.313888011500239" lon="1.646049544215202">
        <ele>27.600000381469727</ele>
        <time>2018-12-29T13:27:04Z</time>
      </trkpt>
      <trkpt lat="41.313890861347318" lon="1.6460963152349">
        <ele>27.600000381469727</ele>
        <time>2018-12-29T13:27:05Z</time>
      </trkpt>
      <trkpt lat="41.313894633203745" lon="1.64614325389266">
        <ele>27.600000381469727</ele>
        <time>2018-12-29T13:27:06Z</time>
      </trkpt>
      <trkpt lat="41.313910726457834" lon="1.646224055439234">
        <ele>27.600000381469727</ele>
        <time>2018-12-29T13:27:08Z</time>
      </trkpt>
      <trkpt lat="41.313919946551323" lon="1.646311981603503">
        <ele>27.600000381469727</ele>
        <time>2018-12-29T13:27:10Z</time>
      </trkpt>
      <trkpt lat="41.313921120017767" lon="1.64635824970901">
        <ele>27.600000381469727</ele>
        <time>2018-12-29T13:27:11Z</time>
      </trkpt>
      <trkpt lat="41.313922461122274" lon="1.646406864747405">
        <ele>27.799999237060547</ele>
        <time>2018-12-29T13:27:12Z</time>
      </trkpt>
      <trkpt lat="41.313925981521606" lon="1.646500406786799">
        <ele>27.799999237060547</ele>
        <time>2018-12-29T13:27:14Z</time>
      </trkpt>
      <trkpt lat="41.31393201649189" lon="1.646600821986795">
        <ele>27.799999237060547</ele>
        <time>2018-12-29T13:27:16Z</time>
      </trkpt>
      <trkpt lat="41.313944170251489" lon="1.646698974072933">
        <ele>27.799999237060547</ele>
        <time>2018-12-29T13:27:18Z</time>
      </trkpt>
      <trkpt lat="41.313953725621104" lon="1.646797461435199">
        <ele>27.799999237060547</ele>
        <time>2018-12-29T13:27:20Z</time>
      </trkpt>
      <trkpt lat="41.313962275162339" lon="1.646896954625845">
        <ele>27.799999237060547</ele>
        <time>2018-12-29T13:27:22Z</time>
      </trkpt>
      <trkpt lat="41.313967891037464" lon="1.646994184702635">
        <ele>28</ele>
        <time>2018-12-29T13:27:24Z</time>
      </trkpt>
      <trkpt lat="41.313978284597397" lon="1.647094767540693">
        <ele>28</ele>
        <time>2018-12-29T13:27:26Z</time>
      </trkpt>
      <trkpt lat="41.313983481377363" lon="1.64719769731164">
        <ele>28</ele>
        <time>2018-12-29T13:27:28Z</time>
      </trkpt>
      <trkpt lat="41.313992450013757" lon="1.647298531606793">
        <ele>28.200000762939453</ele>
        <time>2018-12-29T13:27:30Z</time>
      </trkpt>
      <trkpt lat="41.314005944877863" lon="1.647401377558708">
        <ele>28.399999618530273</ele>
        <time>2018-12-29T13:27:32Z</time>
      </trkpt>
      <trkpt lat="41.314010387286544" lon="1.647514784708619">
        <ele>28.200000762939453</ele>
        <time>2018-12-29T13:27:34Z</time>
      </trkpt>
      <trkpt lat="41.31401751190424" lon="1.64763305336237">
        <ele>28.200000762939453</ele>
        <time>2018-12-29T13:27:36Z</time>
      </trkpt>
      <trkpt lat="41.314020194113255" lon="1.647693738341332">
        <ele>28.200000762939453</ele>
        <time>2018-12-29T13:27:37Z</time>
      </trkpt>
      <trkpt lat="41.314022289589047" lon="1.647755345329642">
        <ele>28.200000762939453</ele>
        <time>2018-12-29T13:27:38Z</time>
      </trkpt>
      <trkpt lat="41.314019775018096" lon="1.647877553477883">
        <ele>28.200000762939453</ele>
        <time>2018-12-29T13:27:40Z</time>
      </trkpt>
      <trkpt lat="41.314021116122603" lon="1.647998169064522">
        <ele>28.200000762939453</ele>
        <time>2018-12-29T13:27:42Z</time>
      </trkpt>
      <trkpt lat="41.314016422256827" lon="1.648118868470192">
        <ele>28.200000762939453</ele>
        <time>2018-12-29T13:27:44Z</time>
      </trkpt>
      <trkpt lat="41.314011560752988" lon="1.648179804906249">
        <ele>28.200000762939453</ele>
        <time>2018-12-29T13:27:45Z</time>
      </trkpt>
      <trkpt lat="41.314008627086878" lon="1.648242333903909">
        <ele>28.399999618530273</ele>
        <time>2018-12-29T13:27:46Z</time>
      </trkpt>
      <trkpt lat="41.314002675935626" lon="1.648370577022433">
        <ele>28.399999618530273</ele>
        <time>2018-12-29T13:27:48Z</time>
      </trkpt>
      <trkpt lat="41.313997311517596" lon="1.648500077426434">
        <ele>28.200000762939453</ele>
        <time>2018-12-29T13:27:50Z</time>
      </trkpt>
      <trkpt lat="41.313991779461503" lon="1.648628236725926">
        <ele>28.799999237060547</ele>
        <time>2018-12-29T13:27:52Z</time>
      </trkpt>
      <trkpt lat="41.3139833137393" lon="1.648745918646455">
        <ele>29</ele>
        <time>2018-12-29T13:27:54Z</time>
      </trkpt>
      <trkpt lat="41.313979038968682" lon="1.648801825940609">
        <ele>28.799999237060547</ele>
        <time>2018-12-29T13:27:55Z</time>
      </trkpt>
      <trkpt lat="41.313975183293223" lon="1.648858403787017">
        <ele>28.799999237060547</ele>
        <time>2018-12-29T13:27:56Z</time>
      </trkpt>
      <trkpt lat="41.313967974856496" lon="1.64896896108985">
        <ele>28.399999618530273</ele>
        <time>2018-12-29T13:27:58Z</time>
      </trkpt>
      <trkpt lat="41.313963029533625" lon="1.649083290249109">
        <ele>28.600000381469727</ele>
        <time>2018-12-29T13:28:00Z</time>
      </trkpt>
      <trkpt lat="41.313957832753658" lon="1.649199714884162">
        <ele>28.799999237060547</ele>
        <time>2018-12-29T13:28:02Z</time>
      </trkpt>
      <trkpt lat="41.31395255215466" lon="1.64931639097631">
        <ele>29.200000762939453</ele>
        <time>2018-12-29T13:28:04Z</time>
      </trkpt>
      <trkpt lat="41.313953474164009" lon="1.649375902488828">
        <ele>29.399999618530273</ele>
        <time>2018-12-29T13:28:05Z</time>
      </trkpt>
      <trkpt lat="41.313953474164009" lon="1.64943709038198">
        <ele>29.200000762939453</ele>
        <time>2018-12-29T13:28:06Z</time>
      </trkpt>
      <trkpt lat="41.313948864117265" lon="1.649561477825046">
        <ele>28.799999237060547</ele>
        <time>2018-12-29T13:28:08Z</time>
      </trkpt>
      <trkpt lat="41.313943583518267" lon="1.649689637124538">
        <ele>28.799999237060547</ele>
        <time>2018-12-29T13:28:10Z</time>
      </trkpt>
      <trkpt lat="41.313933022320271" lon="1.649823077023029">
        <ele>29</ele>
        <time>2018-12-29T13:28:12Z</time>
      </trkpt>
      <trkpt lat="41.313925394788384" lon="1.64995894767344">
        <ele>29.399999618530273</ele>
        <time>2018-12-29T13:28:14Z</time>
      </trkpt>
      <trkpt lat="41.313920700922608" lon="1.650088531896472">
        <ele>29.399999618530273</ele>
        <time>2018-12-29T13:28:16Z</time>
      </trkpt>
      <trkpt lat="41.313914498314261" lon="1.650215685367584">
        <ele>29.799999237060547</ele>
        <time>2018-12-29T13:28:18Z</time>
      </trkpt>
      <trkpt lat="41.3139090500772" lon="1.650279387831688">
        <ele>29.799999237060547</ele>
        <time>2018-12-29T13:28:19Z</time>
      </trkpt>
      <trkpt lat="41.313904942944646" lon="1.650344179943204">
        <ele>29.799999237060547</ele>
        <time>2018-12-29T13:28:20Z</time>
      </trkpt>
      <trkpt lat="41.313897734507918" lon="1.650469405576587">
        <ele>30</ele>
        <time>2018-12-29T13:28:22Z</time>
      </trkpt>
      <trkpt lat="41.313893543556333" lon="1.65053210221231">
        <ele>29.799999237060547</ele>
        <time>2018-12-29T13:28:23Z</time>
      </trkpt>
      <trkpt lat="41.313887257128954" lon="1.65059463120997">
        <ele>30</ele>
        <time>2018-12-29T13:28:24Z</time>
      </trkpt>
      <trkpt lat="41.313876612111926" lon="1.650717593729496">
        <ele>30.200000762939453</ele>
        <time>2018-12-29T13:28:26Z</time>
      </trkpt>
      <trkpt lat="41.313864039257169" lon="1.65083552710712">
        <ele>30.399999618530273</ele>
        <time>2018-12-29T13:28:28Z</time>
      </trkpt>
      <trkpt lat="41.313856160268188" lon="1.650950778275728">
        <ele>30.399999618530273</ele>
        <time>2018-12-29T13:28:30Z</time>
      </trkpt>
      <trkpt lat="41.313854232430458" lon="1.65107105858624">
        <ele>30.200000762939453</ele>
        <time>2018-12-29T13:28:32Z</time>
      </trkpt>
      <trkpt lat="41.313844425603747" lon="1.651191422715783">
        <ele>30.399999618530273</ele>
        <time>2018-12-29T13:28:34Z</time>
      </trkpt>
      <trkpt lat="41.31384358741343" lon="1.651310948655009">
        <ele>30.200000762939453</ele>
        <time>2018-12-29T13:28:36Z</time>
      </trkpt>
      <trkpt lat="41.313836965709925" lon="1.651370963081718">
        <ele>30</ele>
        <time>2018-12-29T13:28:37Z</time>
      </trkpt>
      <trkpt lat="41.313833361491561" lon="1.651428295299411">
        <ele>30</ele>
        <time>2018-12-29T13:28:38Z</time>
      </trkpt>
      <trkpt lat="41.31382062099874" lon="1.651485711336136">
        <ele>30.200000762939453</ele>
        <time>2018-12-29T13:28:39Z</time>
      </trkpt>
      <trkpt lat="41.313796313479543" lon="1.651539439335465">
        <ele>30.600000381469727</ele>
        <time>2018-12-29T13:28:40Z</time>
      </trkpt>
      <trkpt lat="41.313739735633135" lon="1.651633232831955">
        <ele>30.799999237060547</ele>
        <time>2018-12-29T13:28:42Z</time>
      </trkpt>
      <trkpt lat="41.313716350123286" lon="1.651683188974857">
        <ele>31</ele>
        <time>2018-12-29T13:28:43Z</time>
      </trkpt>
      <trkpt lat="41.313695395365357" lon="1.651731971651316">
        <ele>31</ele>
        <time>2018-12-29T13:28:44Z</time>
      </trkpt>
      <trkpt lat="41.313685001805425" lon="1.651784861460328">
        <ele>31.200000762939453</ele>
        <time>2018-12-29T13:28:45Z</time>
      </trkpt>
      <trkpt lat="41.313689779490232" lon="1.651840601116419">
        <ele>31</ele>
        <time>2018-12-29T13:28:46Z</time>
      </trkpt>
      <trkpt lat="41.313708974048495" lon="1.651893239468336">
        <ele>31</ele>
        <time>2018-12-29T13:28:47Z</time>
      </trkpt>
      <trkpt lat="41.313739819452167" lon="1.65194034576416">
        <ele>31.200000762939453</ele>
        <time>2018-12-29T13:28:48Z</time>
      </trkpt>
      <trkpt lat="41.313819196075201" lon="1.65200237184763">
        <ele>31</ele>
        <time>2018-12-29T13:28:50Z</time>
      </trkpt>
      <trkpt lat="41.313903350383043" lon="1.652051573619247">
        <ele>30.799999237060547</ele>
        <time>2018-12-29T13:28:52Z</time>
      </trkpt>
      <trkpt lat="41.313981972634792" lon="1.652117958292365">
        <ele>31.600000381469727</ele>
        <time>2018-12-29T13:28:54Z</time>
      </trkpt>
      <trkpt lat="41.314045256003737" lon="1.652209237217903">
        <ele>31.799999237060547</ele>
        <time>2018-12-29T13:28:56Z</time>
      </trkpt>
      <trkpt lat="41.314103007316589" lon="1.652300516143441">
        <ele>32.200000762939453</ele>
        <time>2018-12-29T13:28:58Z</time>
      </trkpt>
      <trkpt lat="41.31416704505682" lon="1.652396991848946">
        <ele>32.400001525878906</ele>
        <time>2018-12-29T13:29:00Z</time>
      </trkpt>
      <trkpt lat="41.314235692843795" lon="1.652486259117723">
        <ele>32.599998474121094</ele>
        <time>2018-12-29T13:29:02Z</time>
      </trkpt>
      <trkpt lat="41.314299395307899" lon="1.652583153918386">
        <ele>32.599998474121094</ele>
        <time>2018-12-29T13:29:04Z</time>
      </trkpt>
      <trkpt lat="41.314369132742286" lon="1.652683652937412">
        <ele>32.799999237060547</ele>
        <time>2018-12-29T13:29:06Z</time>
      </trkpt>
      <trkpt lat="41.314435182139277" lon="1.652784235775471">
        <ele>32.799999237060547</ele>
        <time>2018-12-29T13:29:08Z</time>
      </trkpt>
      <trkpt lat="41.314496705308557" lon="1.652888674288988">
        <ele>33</ele>
        <time>2018-12-29T13:29:10Z</time>
      </trkpt>
      <trkpt lat="41.314562000334263" lon="1.652990849688649">
        <ele>33.200000762939453</ele>
        <time>2018-12-29T13:29:12Z</time>
      </trkpt>
      <trkpt lat="41.314624194055796" lon="1.653098724782467">
        <ele>33.400001525878906</ele>
        <time>2018-12-29T13:29:14Z</time>
      </trkpt>
      <trkpt lat="41.314689153805375" lon="1.653206096962094">
        <ele>33.200000762939453</ele>
        <time>2018-12-29T13:29:16Z</time>
      </trkpt>
      <trkpt lat="41.314760316163301" lon="1.653316654264927">
        <ele>32.799999237060547</ele>
        <time>2018-12-29T13:29:18Z</time>
      </trkpt>
      <trkpt lat="41.314830388873816" lon="1.653422601521015">
        <ele>32.799999237060547</ele>
        <time>2018-12-29T13:29:20Z</time>
      </trkpt>
      <trkpt lat="41.314865592867136" lon="1.653476748615503">
        <ele>32.599998474121094</ele>
        <time>2018-12-29T13:29:21Z</time>
      </trkpt>
      <trkpt lat="41.314899707213044" lon="1.653532320633531">
        <ele>32.599998474121094</ele>
        <time>2018-12-29T13:29:22Z</time>
      </trkpt>
      <trkpt lat="41.314971540123224" lon="1.653640195727348">
        <ele>32.400001525878906</ele>
        <time>2018-12-29T13:29:24Z</time>
      </trkpt>
      <trkpt lat="41.315044714137912" lon="1.653747400268912">
        <ele>32.200000762939453</ele>
        <time>2018-12-29T13:29:26Z</time>
      </trkpt>
      <trkpt lat="41.315116798505187" lon="1.653857454657555">
        <ele>32.200000762939453</ele>
        <time>2018-12-29T13:29:28Z</time>
      </trkpt>
      <trkpt lat="41.315152505412698" lon="1.653911434113979">
        <ele>32.200000762939453</ele>
        <time>2018-12-29T13:29:29Z</time>
      </trkpt>
      <trkpt lat="41.315188547596335" lon="1.653966084122658">
        <ele>32.200000762939453</ele>
        <time>2018-12-29T13:29:30Z</time>
      </trkpt>
      <trkpt lat="41.315224254503846" lon="1.654021320864558">
        <ele>32.200000762939453</ele>
        <time>2018-12-29T13:29:31Z</time>
      </trkpt>
      <trkpt lat="41.315259542316198" lon="1.654077395796776">
        <ele>32.400001525878906</ele>
        <time>2018-12-29T13:29:32Z</time>
      </trkpt>
      <trkpt lat="41.315330620855093" lon="1.654194490984082">
        <ele>32</ele>
        <time>2018-12-29T13:29:34Z</time>
      </trkpt>
      <trkpt lat="41.315407399088144" lon="1.654309742152691">
        <ele>31.799999237060547</ele>
        <time>2018-12-29T13:29:36Z</time>
      </trkpt>
      <trkpt lat="41.315483590587974" lon="1.654425580054522">
        <ele>31.600000381469727</ele>
        <time>2018-12-29T13:29:38Z</time>
      </trkpt>
      <trkpt lat="41.315557854250073" lon="1.654537227004767">
        <ele>32</ele>
        <time>2018-12-29T13:29:40Z</time>
      </trkpt>
      <trkpt lat="41.315631531178951" lon="1.65465172380209">
        <ele>32</ele>
        <time>2018-12-29T13:29:42Z</time>
      </trkpt>
      <trkpt lat="41.315708728507161" lon="1.654771836474538">
        <ele>31.799999237060547</ele>
        <time>2018-12-29T13:29:44Z</time>
      </trkpt>
      <trkpt lat="41.315788524225354" lon="1.65489605627954">
        <ele>31.399999618530273</ele>
        <time>2018-12-29T13:29:46Z</time>
      </trkpt>
      <trkpt lat="41.315830517560244" lon="1.654961099848151">
        <ele>31.200000762939453</ele>
        <time>2018-12-29T13:29:47Z</time>
      </trkpt>
      <trkpt lat="41.315872762352228" lon="1.655027568340302">
        <ele>31</ele>
        <time>2018-12-29T13:29:48Z</time>
      </trkpt>
      <trkpt lat="41.315956246107817" lon="1.655156398192048">
        <ele>30.399999618530273</ele>
        <time>2018-12-29T13:29:50Z</time>
      </trkpt>
      <trkpt lat="41.315999496728182" lon="1.655221860855818">
        <ele>30</ele>
        <time>2018-12-29T13:29:51Z</time>
      </trkpt>
      <trkpt lat="41.316042747348547" lon="1.655288496986032">
        <ele>29.799999237060547</ele>
        <time>2018-12-29T13:29:52Z</time>
      </trkpt>
      <trkpt lat="41.316132936626673" lon="1.655425876379013">
        <ele>30</ele>
        <time>2018-12-29T13:29:54Z</time>
      </trkpt>
      <trkpt lat="41.31622270680964" lon="1.655572224408388">
        <ele>30</ele>
        <time>2018-12-29T13:29:56Z</time>
      </trkpt>
      <trkpt lat="41.31631700322032" lon="1.655719242990017">
        <ele>30</ele>
        <time>2018-12-29T13:29:58Z</time>
      </trkpt>
      <trkpt lat="41.316365450620651" lon="1.655792919918895">
        <ele>29.600000381469727</ele>
        <time>2018-12-29T13:29:59Z</time>
      </trkpt>
      <trkpt lat="41.316411970183253" lon="1.655867267400026">
        <ele>29.399999618530273</ele>
        <time>2018-12-29T13:30:00Z</time>
      </trkpt>
      <trkpt lat="41.316458070650697" lon="1.655938010662794">
        <ele>29</ele>
        <time>2018-12-29T13:30:01Z</time>
      </trkpt>
      <trkpt lat="41.316504422575235" lon="1.656008083373308">
        <ele>29</ele>
        <time>2018-12-29T13:30:02Z</time>
      </trkpt>
      <trkpt lat="41.316593522205949" lon="1.656144540756941">
        <ele>29.200000762939453</ele>
        <time>2018-12-29T13:30:04Z</time>
      </trkpt>
      <trkpt lat="41.316683627665043" lon="1.656279992312193">
        <ele>29</ele>
        <time>2018-12-29T13:30:06Z</time>
      </trkpt>
      <trkpt lat="41.316769206896424" lon="1.656424077227712">
        <ele>29</ele>
        <time>2018-12-29T13:30:08Z</time>
      </trkpt>
      <trkpt lat="41.316857971251011" lon="1.656563384458423">
        <ele>28.799999237060547</ele>
        <time>2018-12-29T13:30:10Z</time>
      </trkpt>
      <trkpt lat="41.316946232691407" lon="1.656697494909167">
        <ele>28.799999237060547</ele>
        <time>2018-12-29T13:30:12Z</time>
      </trkpt>
      <trkpt lat="41.317030722275376" lon="1.656833700835705">
        <ele>28.799999237060547</ele>
        <time>2018-12-29T13:30:14Z</time>
      </trkpt>
      <trkpt lat="41.317115128040314" lon="1.656966218724847">
        <ele>28.399999618530273</ele>
        <time>2018-12-29T13:30:16Z</time>
      </trkpt>
      <trkpt lat="41.317200204357505" lon="1.65710074827075">
        <ele>28.200000762939453</ele>
        <time>2018-12-29T13:30:18Z</time>
      </trkpt>
      <trkpt lat="41.317289052531123" lon="1.657240558415651">
        <ele>28.200000762939453</ele>
        <time>2018-12-29T13:30:20Z</time>
      </trkpt>
      <trkpt lat="41.317372368648648" lon="1.657374668866396">
        <ele>28.200000762939453</ele>
        <time>2018-12-29T13:30:22Z</time>
      </trkpt>
      <trkpt lat="41.317457109689713" lon="1.657507522031665">
        <ele>28</ele>
        <time>2018-12-29T13:30:24Z</time>
      </trkpt>
      <trkpt lat="41.317537156865001" lon="1.657628556713462">
        <ele>28</ele>
        <time>2018-12-29T13:30:26Z</time>
      </trkpt>
      <trkpt lat="41.317617706954479" lon="1.657747244462371">
        <ele>27.799999237060547</ele>
        <time>2018-12-29T13:30:28Z</time>
      </trkpt>
      <trkpt lat="41.317693060263991" lon="1.657872889190912">
        <ele>27.799999237060547</ele>
        <time>2018-12-29T13:30:30Z</time>
      </trkpt>
      <trkpt lat="41.317767240107059" lon="1.6579978633672">
        <ele>27.799999237060547</ele>
        <time>2018-12-29T13:30:32Z</time>
      </trkpt>
      <trkpt lat="41.317848041653633" lon="1.658116634935141">
        <ele>27.799999237060547</ele>
        <time>2018-12-29T13:30:34Z</time>
      </trkpt>
      <trkpt lat="41.317927418276668" lon="1.658233227208257">
        <ele>28</ele>
        <time>2018-12-29T13:30:36Z</time>
      </trkpt>
      <trkpt lat="41.318003358319402" lon="1.65835409425199">
        <ele>28.200000762939453</ele>
        <time>2018-12-29T13:30:38Z</time>
      </trkpt>
      <trkpt lat="41.318077789619565" lon="1.658474709838629">
        <ele>28.200000762939453</ele>
        <time>2018-12-29T13:30:40Z</time>
      </trkpt>
      <trkpt lat="41.318148365244269" lon="1.658592391759157">
        <ele>28.399999618530273</ele>
        <time>2018-12-29T13:30:42Z</time>
      </trkpt>
      <trkpt lat="41.318220114335418" lon="1.658706134185195">
        <ele>28.399999618530273</ele>
        <time>2018-12-29T13:30:44Z</time>
      </trkpt>
      <trkpt lat="41.318293958902359" lon="1.658819373697043">
        <ele>28.799999237060547</ele>
        <time>2018-12-29T13:30:46Z</time>
      </trkpt>
      <trkpt lat="41.318364702165127" lon="1.658928925171495">
        <ele>28.600000381469727</ele>
        <time>2018-12-29T13:30:48Z</time>
      </trkpt>
      <trkpt lat="41.318437289446592" lon="1.659038309007883">
        <ele>28.600000381469727</ele>
        <time>2018-12-29T13:30:50Z</time>
      </trkpt>
      <trkpt lat="41.318501913920045" lon="1.659154566004872">
        <ele>28.600000381469727</ele>
        <time>2018-12-29T13:30:52Z</time>
      </trkpt>
      <trkpt lat="41.318536279723048" lon="1.659210054203868">
        <ele>28.200000762939453</ele>
        <time>2018-12-29T13:30:53Z</time>
      </trkpt>
      <trkpt lat="41.318572070449591" lon="1.659263363108039">
        <ele>28.600000381469727</ele>
        <time>2018-12-29T13:30:54Z</time>
      </trkpt>
      <trkpt lat="41.318646669387817" lon="1.659376015886664">
        <ele>28.799999237060547</ele>
        <time>2018-12-29T13:30:56Z</time>
      </trkpt>
      <trkpt lat="41.318723782896996" lon="1.659486824646592">
        <ele>28.600000381469727</ele>
        <time>2018-12-29T13:30:58Z</time>
      </trkpt>
      <trkpt lat="41.318794526159763" lon="1.65959419682622">
        <ele>29</ele>
        <time>2018-12-29T13:31:00Z</time>
      </trkpt>
      <trkpt lat="41.318862838670611" lon="1.659689079970121">
        <ele>29</ele>
        <time>2018-12-29T13:31:02Z</time>
      </trkpt>
      <trkpt lat="41.31889401935041" lon="1.659725289791822">
        <ele>29.200000762939453</ele>
        <time>2018-12-29T13:31:03Z</time>
      </trkpt>
      <trkpt lat="41.31891849450767" lon="1.659771976992488">
        <ele>29.200000762939453</ele>
        <time>2018-12-29T13:31:04Z</time>
      </trkpt>
      <trkpt lat="41.318951100111008" lon="1.659849844872952">
        <ele>29.799999237060547</ele>
        <time>2018-12-29T13:31:06Z</time>
      </trkpt>
      <trkpt lat="41.318971216678619" lon="1.659906422719359">
        <ele>29.799999237060547</ele>
        <time>2018-12-29T13:31:08Z</time>
      </trkpt>
      <trkpt lat="41.318979933857918" lon="1.65993525646627">
        <ele>30</ele>
        <time>2018-12-29T13:31:10Z</time>
      </trkpt>
      <trkpt lat="41.318978257477283" lon="1.659928550943732">
        <ele>30.200000762939453</ele>
        <time>2018-12-29T13:31:11Z</time>
      </trkpt>
      <trkpt lat="41.319039529189467" lon="1.660026367753744">
        <ele>30.200000762939453</ele>
        <time>2018-12-29T13:31:50Z</time>
      </trkpt>
      <trkpt lat="41.319058388471603" lon="1.660054279491305">
        <ele>30.200000762939453</ele>
        <time>2018-12-29T13:31:51Z</time>
      </trkpt>
      <trkpt lat="41.319096777588129" lon="1.660112868994474">
        <ele>30.200000762939453</ele>
        <time>2018-12-29T13:31:53Z</time>
      </trkpt>
      <trkpt lat="41.319142375141382" lon="1.660168776288629">
        <ele>30.200000762939453</ele>
        <time>2018-12-29T13:31:55Z</time>
      </trkpt>
      <trkpt lat="41.319193923845887" lon="1.660231640562415">
        <ele>30.200000762939453</ele>
        <time>2018-12-29T13:31:57Z</time>
      </trkpt>
      <trkpt lat="41.319238850846887" lon="1.660310346633196">
        <ele>30.399999618530273</ele>
        <time>2018-12-29T13:31:59Z</time>
      </trkpt>
      <trkpt lat="41.319287298247218" lon="1.660389471799135">
        <ele>30.399999618530273</ele>
        <time>2018-12-29T13:32:01Z</time>
      </trkpt>
      <trkpt lat="41.319313449785113" lon="1.660424256697297">
        <ele>30.200000762939453</ele>
        <time>2018-12-29T13:32:02Z</time>
      </trkpt>
      <trkpt lat="41.319337841123343" lon="1.660456107929349">
        <ele>30.200000762939453</ele>
        <time>2018-12-29T13:32:03Z</time>
      </trkpt>
      <trkpt lat="41.319387294352055" lon="1.660537663847208">
        <ele>30.600000381469727</ele>
        <time>2018-12-29T13:32:05Z</time>
      </trkpt>
      <trkpt lat="41.319436747580767" lon="1.660623578354716">
        <ele>30.600000381469727</ele>
        <time>2018-12-29T13:32:07Z</time>
      </trkpt>
      <trkpt lat="41.319463821128011" lon="1.660664565861225">
        <ele>30.600000381469727</ele>
        <time>2018-12-29T13:32:08Z</time>
      </trkpt>
      <trkpt lat="41.319490810856223" lon="1.660707145929337">
        <ele>30.600000381469727</ele>
        <time>2018-12-29T13:32:09Z</time>
      </trkpt>
      <trkpt lat="41.319547221064568" lon="1.660788953304291">
        <ele>30.600000381469727</ele>
        <time>2018-12-29T13:32:11Z</time>
      </trkpt>
      <trkpt lat="41.319602960720658" lon="1.660872520878911">
        <ele>30.600000381469727</ele>
        <time>2018-12-29T13:32:13Z</time>
      </trkpt>
      <trkpt lat="41.319660041481256" lon="1.660960614681244">
        <ele>30.799999237060547</ele>
        <time>2018-12-29T13:32:15Z</time>
      </trkpt>
      <trkpt lat="41.319714523851871" lon="1.661053569987416">
        <ele>30.600000381469727</ele>
        <time>2018-12-29T13:32:17Z</time>
      </trkpt>
      <trkpt lat="41.319768754765391" lon="1.661150883883238">
        <ele>30.600000381469727</ele>
        <time>2018-12-29T13:32:19Z</time>
      </trkpt>
      <trkpt lat="41.319826170802116" lon="1.66124283336103">
        <ele>30.799999237060547</ele>
        <time>2018-12-29T13:32:21Z</time>
      </trkpt>
      <trkpt lat="41.319889621809125" lon="1.661331849172711">
        <ele>31</ele>
        <time>2018-12-29T13:32:23Z</time>
      </trkpt>
      <trkpt lat="41.319953743368387" lon="1.661419523879886">
        <ele>30.399999618530273</ele>
        <time>2018-12-29T13:32:25Z</time>
      </trkpt>
      <trkpt lat="41.320016104727983" lon="1.66151306591928">
        <ele>30.399999618530273</ele>
        <time>2018-12-29T13:32:27Z</time>
      </trkpt>
      <trkpt lat="41.320047620683908" lon="1.661564614623785">
        <ele>30.200000762939453</ele>
        <time>2018-12-29T13:32:28Z</time>
      </trkpt>
      <trkpt lat="41.320083076134324" lon="1.661612894386053">
        <ele>30.399999618530273</ele>
        <time>2018-12-29T13:32:29Z</time>
      </trkpt>
      <trkpt lat="41.320148454979062" lon="1.661712136119604">
        <ele>30.200000762939453</ele>
        <time>2018-12-29T13:32:31Z</time>
      </trkpt>
      <trkpt lat="41.320213498547673" lon="1.661805091425777">
        <ele>30</ele>
        <time>2018-12-29T13:32:33Z</time>
      </trkpt>
      <trkpt lat="41.320282984524965" lon="1.66190005838871">
        <ele>30</ele>
        <time>2018-12-29T13:32:35Z</time>
      </trkpt>
      <trkpt lat="41.320314165204763" lon="1.661953115835786">
        <ele>30</ele>
        <time>2018-12-29T13:32:36Z</time>
      </trkpt>
      <trkpt lat="41.320347022265196" lon="1.662001814693213">
        <ele>30</ele>
        <time>2018-12-29T13:32:37Z</time>
      </trkpt>
      <trkpt lat="41.32041122764349" lon="1.662103151902556">
        <ele>30</ele>
        <time>2018-12-29T13:32:39Z</time>
      </trkpt>
      <trkpt lat="41.320476941764355" lon="1.662207003682852">
        <ele>29.200000762939453</ele>
        <time>2018-12-29T13:32:41Z</time>
      </trkpt>
      <trkpt lat="41.320546427741647" lon="1.662307335063815">
        <ele>29.200000762939453</ele>
        <time>2018-12-29T13:32:43Z</time>
      </trkpt>
      <trkpt lat="41.320615829899907" lon="1.662411270663142">
        <ele>29.200000762939453</ele>
        <time>2018-12-29T13:32:45Z</time>
      </trkpt>
      <trkpt lat="41.32065162062645" lon="1.662462316453457">
        <ele>29</ele>
        <time>2018-12-29T13:32:46Z</time>
      </trkpt>
      <trkpt lat="41.320683639496565" lon="1.662516798824072">
        <ele>28.799999237060547</ele>
        <time>2018-12-29T13:32:47Z</time>
      </trkpt>
      <trkpt lat="41.320742731913924" lon="1.662612771615386">
        <ele>28.799999237060547</ele>
        <time>2018-12-29T13:32:49Z</time>
      </trkpt>
      <trkpt lat="41.320771900936961" lon="1.662663985043764">
        <ele>28.399999618530273</ele>
        <time>2018-12-29T13:32:50Z</time>
      </trkpt>
      <trkpt lat="41.32080115377903" lon="1.662719054147601">
        <ele>28.399999618530273</ele>
        <time>2018-12-29T13:32:51Z</time>
      </trkpt>
      <trkpt lat="41.320862509310246" lon="1.662815194576979">
        <ele>28.399999618530273</ele>
        <time>2018-12-29T13:32:53Z</time>
      </trkpt>
      <trkpt lat="41.320922439917922" lon="1.662915609776974">
        <ele>28.399999618530273</ele>
        <time>2018-12-29T13:32:55Z</time>
      </trkpt>
      <trkpt lat="41.320986812934279" lon="1.663012504577637">
        <ele>28.399999618530273</ele>
        <time>2018-12-29T13:32:57Z</time>
      </trkpt>
      <trkpt lat="41.321046156808734" lon="1.663117613643408">
        <ele>28.399999618530273</ele>
        <time>2018-12-29T13:32:59Z</time>
      </trkpt>
      <trkpt lat="41.32110558450222" lon="1.663215849548578">
        <ele>28.600000381469727</ele>
        <time>2018-12-29T13:33:01Z</time>
      </trkpt>
      <trkpt lat="41.321161156520247" lon="1.66330830194056">
        <ele>28.799999237060547</ele>
        <time>2018-12-29T13:33:03Z</time>
      </trkpt>
      <trkpt lat="41.321189822629094" lon="1.663352642208338">
        <ele>29</ele>
        <time>2018-12-29T13:33:04Z</time>
      </trkpt>
      <trkpt lat="41.321216225624084" lon="1.663392288610339">
        <ele>29.399999618530273</ele>
        <time>2018-12-29T13:33:05Z</time>
      </trkpt>
      <trkpt lat="41.32127221673727" lon="1.663475101813674">
        <ele>29.600000381469727</ele>
        <time>2018-12-29T13:33:07Z</time>
      </trkpt>
      <trkpt lat="41.321325274184346" lon="1.663556238636375">
        <ele>29.799999237060547</ele>
        <time>2018-12-29T13:33:09Z</time>
      </trkpt>
      <trkpt lat="41.321383863687515" lon="1.663640895858407">
        <ele>30</ele>
        <time>2018-12-29T13:33:11Z</time>
      </trkpt>
      <trkpt lat="41.321411272510886" lon="1.663684565573931">
        <ele>30</ele>
        <time>2018-12-29T13:33:12Z</time>
      </trkpt>
      <trkpt lat="41.321441447362304" lon="1.663734437897801">
        <ele>30</ele>
        <time>2018-12-29T13:33:13Z</time>
      </trkpt>
      <trkpt lat="41.321502802893519" lon="1.663830829784274">
        <ele>30</ele>
        <time>2018-12-29T13:33:15Z</time>
      </trkpt>
      <trkpt lat="41.321565583348274" lon="1.663923114538193">
        <ele>30</ele>
        <time>2018-12-29T13:33:17Z</time>
      </trkpt>
      <trkpt lat="41.321635572239757" lon="1.664013974368572">
        <ele>30</ele>
        <time>2018-12-29T13:33:19Z</time>
      </trkpt>
      <trkpt lat="41.321674967184663" lon="1.664063008502126">
        <ele>30</ele>
        <time>2018-12-29T13:33:20Z</time>
      </trkpt>
      <trkpt lat="41.32170706987381" lon="1.664114808663726">
        <ele>30.200000762939453</ele>
        <time>2018-12-29T13:33:21Z</time>
      </trkpt>
      <trkpt lat="41.321774125099182" lon="1.664223941043019">
        <ele>30.399999618530273</ele>
        <time>2018-12-29T13:33:23Z</time>
      </trkpt>
      <trkpt lat="41.321846125647426" lon="1.664321757853031">
        <ele>30.399999618530273</ele>
        <time>2018-12-29T13:33:25Z</time>
      </trkpt>
      <trkpt lat="41.321910247206688" lon="1.664413204416633">
        <ele>30.600000381469727</ele>
        <time>2018-12-29T13:33:27Z</time>
      </trkpt>
      <trkpt lat="41.321982415392995" lon="1.664504483342171">
        <ele>30.799999237060547</ele>
        <time>2018-12-29T13:33:29Z</time>
      </trkpt>
      <trkpt lat="41.32205156609416" lon="1.664595594629645">
        <ele>31</ele>
        <time>2018-12-29T13:33:31Z</time>
      </trkpt>
      <trkpt lat="41.322116861119866" lon="1.664687879383564">
        <ele>30.799999237060547</ele>
        <time>2018-12-29T13:33:33Z</time>
      </trkpt>
      <trkpt lat="41.32217419333756" lon="1.664777733385563">
        <ele>31</ele>
        <time>2018-12-29T13:33:35Z</time>
      </trkpt>
      <trkpt lat="41.322201434522867" lon="1.664816457778215">
        <ele>31.200000762939453</ele>
        <time>2018-12-29T13:33:36Z</time>
      </trkpt>
      <trkpt lat="41.322230519726872" lon="1.664855182170868">
        <ele>31.200000762939453</ele>
        <time>2018-12-29T13:33:37Z</time>
      </trkpt>
      <trkpt lat="41.322290198877454" lon="1.664933552965522">
        <ele>31.200000762939453</ele>
        <time>2018-12-29T13:33:39Z</time>
      </trkpt>
      <trkpt lat="41.322353817522526" lon="1.665013851597905">
        <ele>31.200000762939453</ele>
        <time>2018-12-29T13:33:41Z</time>
      </trkpt>
      <trkpt lat="41.322419866919518" lon="1.665091803297401">
        <ele>31</ele>
        <time>2018-12-29T13:33:43Z</time>
      </trkpt>
      <trkpt lat="41.322470158338547" lon="1.665168832987547">
        <ele>31.200000762939453</ele>
        <time>2018-12-29T13:33:45Z</time>
      </trkpt>
      <trkpt lat="41.322536543011665" lon="1.665212586522102">
        <ele>31.399999618530273</ele>
        <time>2018-12-29T13:33:47Z</time>
      </trkpt>
      <trkpt lat="41.322568478062749" lon="1.665216609835625">
        <ele>31.399999618530273</ele>
        <time>2018-12-29T13:33:48Z</time>
      </trkpt>
      <trkpt lat="41.322599742561579" lon="1.665219040587544">
        <ele>31.399999618530273</ele>
        <time>2018-12-29T13:33:49Z</time>
      </trkpt>
      <trkpt lat="41.322663947939873" lon="1.665169084444642">
        <ele>31</ele>
        <time>2018-12-29T13:33:51Z</time>
      </trkpt>
      <trkpt lat="41.322696134448051" lon="1.665135975927115">
        <ele>31.200000762939453</ele>
        <time>2018-12-29T13:33:52Z</time>
      </trkpt>
      <trkpt lat="41.322730164974928" lon="1.665101610124111">
        <ele>31.799999237060547</ele>
        <time>2018-12-29T13:33:53Z</time>
      </trkpt>
      <trkpt lat="41.322794873267412" lon="1.665026340633631">
        <ele>32</ele>
        <time>2018-12-29T13:33:55Z</time>
      </trkpt>
      <trkpt lat="41.32285488769412" lon="1.664953837171197">
        <ele>32.200000762939453</ele>
        <time>2018-12-29T13:33:57Z</time>
      </trkpt>
      <trkpt lat="41.32288271561265" lon="1.664918716996908">
        <ele>32.200000762939453</ele>
        <time>2018-12-29T13:33:58Z</time>
      </trkpt>
      <trkpt lat="41.322915907949209" lon="1.664883932098746">
        <ele>32.400001525878906</ele>
        <time>2018-12-29T13:33:59Z</time>
      </trkpt>
      <trkpt lat="41.322946166619658" lon="1.664847638458014">
        <ele>32.599998474121094</ele>
        <time>2018-12-29T13:34:00Z</time>
      </trkpt>
      <trkpt lat="41.322977095842361" lon="1.664810590445995">
        <ele>33</ele>
        <time>2018-12-29T13:34:01Z</time>
      </trkpt>
      <trkpt lat="41.323049599304795" lon="1.664737584069371">
        <ele>32.799999237060547</ele>
        <time>2018-12-29T13:34:03Z</time>
      </trkpt>
      <trkpt lat="41.323117492720485" lon="1.664660135284066">
        <ele>32.200000762939453</ele>
        <time>2018-12-29T13:34:05Z</time>
      </trkpt>
      <trkpt lat="41.323184799402952" lon="1.66458553634584">
        <ele>32.200000762939453</ele>
        <time>2018-12-29T13:34:07Z</time>
      </trkpt>
      <trkpt lat="41.323217991739511" lon="1.664550332352519">
        <ele>32.200000762939453</ele>
        <time>2018-12-29T13:34:08Z</time>
      </trkpt>
      <trkpt lat="41.323250597342849" lon="1.664516134187579">
        <ele>32.200000762939453</ele>
        <time>2018-12-29T13:34:09Z</time>
      </trkpt>
      <trkpt lat="41.323313880711794" lon="1.664450000971556">
        <ele>32.200000762939453</ele>
        <time>2018-12-29T13:34:11Z</time>
      </trkpt>
      <trkpt lat="41.323379427194595" lon="1.66439451277256">
        <ele>32.200000762939453</ele>
        <time>2018-12-29T13:34:13Z</time>
      </trkpt>
      <trkpt lat="41.323440950363874" lon="1.664337264373899">
        <ele>32.599998474121094</ele>
        <time>2018-12-29T13:34:15Z</time>
      </trkpt>
      <trkpt lat="41.323468191549182" lon="1.664311867207289">
        <ele>32.799999237060547</ele>
        <time>2018-12-29T13:34:16Z</time>
      </trkpt>
      <trkpt lat="41.323496270924807" lon="1.664282698184252">
        <ele>33.200000762939453</ele>
        <time>2018-12-29T13:34:17Z</time>
      </trkpt>
      <trkpt lat="41.32351890206337" lon="1.664249170571566">
        <ele>33.200000762939453</ele>
        <time>2018-12-29T13:34:18Z</time>
      </trkpt>
      <trkpt lat="41.323526697233319" lon="1.664225030690432">
        <ele>33.400001525878906</ele>
        <time>2018-12-29T13:34:19Z</time>
      </trkpt>
      <trkpt lat="41.32354287430644" lon="1.664199130609632">
        <ele>33.400001525878906</ele>
        <time>2018-12-29T13:34:21Z</time>
      </trkpt>
      <trkpt lat="41.323535582050681" lon="1.664197538048029">
        <ele>33.400001525878906</ele>
        <time>2018-12-29T13:34:23Z</time>
      </trkpt>
    </trkseg>
  </trk>
</gpx>
